<?xml version='1.0' encoding='UTF-8'?><gpx version="1.1" creator="JPX - https://github.com/jenetics/jpx" xmlns="http://www.topografix.com/GPX/1/1"><trk><trkseg><trkpt lat="43.9762382" lon="12.48111"><ele>120.0</ele><time>2026-04-12T04:57:52.283Z</time></trkpt><trkpt lat="43.9761987" lon="12.4811852"><ele>120.0</ele><time>2026-04-12T04:58:18.238Z</time></trkpt><trkpt lat="43.9761383" lon="12.481214"><ele>120.0</ele><time>2026-04-12T04:58:21.259Z</time></trkpt><trkpt lat="43.9760725" lon="12.4812473"><ele>120.0</ele><time>2026-04-12T04:58:24.268Z</time></trkpt><trkpt lat="43.9760087" lon="12.4812667"><ele>120.0</ele><time>2026-04-12T04:58:27.236Z</time></trkpt><trkpt lat="43.9759325" lon="12.4813043"><ele>120.0</ele><time>2026-04-12T04:58:31.255Z</time></trkpt><trkpt lat="43.9758743" lon="12.4813461"><ele>120.0</ele><time>2026-04-12T04:58:34.235Z</time></trkpt><trkpt lat="43.9758132" lon="12.4813846"><ele>120.0</ele><time>2026-04-12T04:58:38.259Z</time></trkpt><trkpt lat="43.9757433" lon="12.4814292"><ele>120.0</ele><time>2026-04-12T04:58:42.233Z</time></trkpt><trkpt lat="43.9756711" lon="12.4814674"><ele>120.0</ele><time>2026-04-12T04:58:46.237Z</time></trkpt><trkpt lat="43.9756125" lon="12.481503"><ele>120.0</ele><time>2026-04-12T04:58:49.237Z</time></trkpt><trkpt lat="43.9755524" lon="12.4815363"><ele>120.0</ele><time>2026-04-12T04:58:52.241Z</time></trkpt><trkpt lat="43.9754856" lon="12.481579"><ele>120.0</ele><time>2026-04-12T04:58:55.266Z</time></trkpt><trkpt lat="43.9754114" lon="12.4815742"><ele>120.0</ele><time>2026-04-12T04:58:58.241Z</time></trkpt><trkpt lat="43.9753353" lon="12.4816164"><ele>120.0</ele><time>2026-04-12T04:59:01.264Z</time></trkpt><trkpt lat="43.9752584" lon="12.4816736"><ele>120.0</ele><time>2026-04-12T04:59:03.243Z</time></trkpt><trkpt lat="43.9751455" lon="12.4817398"><ele>120.0</ele><time>2026-04-12T04:59:05.237Z</time></trkpt><trkpt lat="43.9750711" lon="12.4817777"><ele>120.0</ele><time>2026-04-12T04:59:06.267Z</time></trkpt><trkpt lat="43.9749937" lon="12.481818"><ele>120.0</ele><time>2026-04-12T04:59:07.242Z</time></trkpt><trkpt lat="43.9749157" lon="12.4818514"><ele>119.66666666666667</ele><time>2026-04-12T04:59:08.276Z</time></trkpt><trkpt lat="43.9748393" lon="12.4818871"><ele>119.33333333333334</ele><time>2026-04-12T04:59:09.237Z</time></trkpt><trkpt lat="43.9747618" lon="12.4819144"><ele>119.0</ele><time>2026-04-12T04:59:10.257Z</time></trkpt><trkpt lat="43.9746809" lon="12.4819145"><ele>118.66666666666667</ele><time>2026-04-12T04:59:11.24Z</time></trkpt><trkpt lat="43.9745889" lon="12.4818938"><ele>118.33333333333334</ele><time>2026-04-12T04:59:12.239Z</time></trkpt><trkpt lat="43.9744893" lon="12.4818614"><ele>118.0</ele><time>2026-04-12T04:59:13.261Z</time></trkpt><trkpt lat="43.9743924" lon="12.4818155"><ele>118.0</ele><time>2026-04-12T04:59:14.267Z</time></trkpt><trkpt lat="43.9743035" lon="12.4817643"><ele>118.00000000000001</ele><time>2026-04-12T04:59:15.241Z</time></trkpt><trkpt lat="43.9742128" lon="12.4817133"><ele>118.00000000000001</ele><time>2026-04-12T04:59:16.24Z</time></trkpt><trkpt lat="43.9741345" lon="12.4816777"><ele>118.0</ele><time>2026-04-12T04:59:17.242Z</time></trkpt><trkpt lat="43.9740153" lon="12.4816651"><ele>118.0</ele><time>2026-04-12T04:59:19.27Z</time></trkpt><trkpt lat="43.9739599" lon="12.4817246"><ele>116.00000000000001</ele><time>2026-04-12T04:59:21.237Z</time></trkpt><trkpt lat="43.9739515" lon="12.4818565"><ele>114.0</ele><time>2026-04-12T04:59:23.255Z</time></trkpt><trkpt lat="43.9739447" lon="12.4819462"><ele>112.0</ele><time>2026-04-12T04:59:24.253Z</time></trkpt><trkpt lat="43.9739411" lon="12.4820365"><ele>110.0</ele><time>2026-04-12T04:59:25.236Z</time></trkpt><trkpt lat="43.973945" lon="12.4822157"><ele>108.00000000000001</ele><time>2026-04-12T04:59:27.24Z</time></trkpt><trkpt lat="43.973953" lon="12.4823161"><ele>106.0</ele><time>2026-04-12T04:59:28.253Z</time></trkpt><trkpt lat="43.9739642" lon="12.482405"><ele>104.83333333333334</ele><time>2026-04-12T04:59:29.248Z</time></trkpt><trkpt lat="43.9739581" lon="12.4825009"><ele>103.66666666666667</ele><time>2026-04-12T04:59:31.237Z</time></trkpt><trkpt lat="43.9738791" lon="12.4824449"><ele>102.5</ele><time>2026-04-12T04:59:34.243Z</time></trkpt><trkpt lat="43.9738142" lon="12.4823643"><ele>101.33333333333334</ele><time>2026-04-12T04:59:36.237Z</time></trkpt><trkpt lat="43.9737361" lon="12.4822501"><ele>100.16666666666667</ele><time>2026-04-12T04:59:38.247Z</time></trkpt><trkpt lat="43.9736831" lon="12.4821808"><ele>99.0</ele><time>2026-04-12T04:59:39.249Z</time></trkpt><trkpt lat="43.9736244" lon="12.4821114"><ele>100.4</ele><time>2026-04-12T04:59:40.234Z</time></trkpt><trkpt lat="43.9735663" lon="12.4820334"><ele>101.80000000000001</ele><time>2026-04-12T04:59:41.239Z</time></trkpt><trkpt lat="43.9735039" lon="12.4819437"><ele>103.19999999999999</ele><time>2026-04-12T04:59:42.234Z</time></trkpt><trkpt lat="43.9733513" lon="12.4817887"><ele>104.6</ele><time>2026-04-12T04:59:44.232Z</time></trkpt><trkpt lat="43.9732712" lon="12.481753"><ele>106.0</ele><time>2026-04-12T04:59:45.236Z</time></trkpt><trkpt lat="43.973191" lon="12.4817336"><ele>103.33333333333334</ele><time>2026-04-12T04:59:46.296Z</time></trkpt><trkpt lat="43.9731051" lon="12.4817242"><ele>100.66666666666667</ele><time>2026-04-12T04:59:47.233Z</time></trkpt><trkpt lat="43.9730154" lon="12.4817346"><ele>98.0</ele><time>2026-04-12T04:59:48.235Z</time></trkpt><trkpt lat="43.9729282" lon="12.4817444"><ele>95.33333333333334</ele><time>2026-04-12T04:59:49.237Z</time></trkpt><trkpt lat="43.9728572" lon="12.4817648"><ele>92.66666666666667</ele><time>2026-04-12T04:59:50.242Z</time></trkpt><trkpt lat="43.972788" lon="12.4817966"><ele>90.0</ele><time>2026-04-12T04:59:51.248Z</time></trkpt><trkpt lat="43.9727284" lon="12.481842"><ele>90.0</ele><time>2026-04-12T04:59:52.247Z</time></trkpt><trkpt lat="43.9726539" lon="12.481943"><ele>90.0</ele><time>2026-04-12T04:59:54.238Z</time></trkpt><trkpt lat="43.9726331" lon="12.4820753"><ele>90.0</ele><time>2026-04-12T04:59:56.236Z</time></trkpt><trkpt lat="43.9725881" lon="12.4822176"><ele>90.0</ele><time>2026-04-12T04:59:58.266Z</time></trkpt><trkpt lat="43.9725331" lon="12.482337"><ele>90.0</ele><time>2026-04-12T05:00:00.241Z</time></trkpt><trkpt lat="43.9724586" lon="12.482396"><ele>89.2</ele><time>2026-04-12T05:00:02.242Z</time></trkpt><trkpt lat="43.9723829" lon="12.4824128"><ele>88.4</ele><time>2026-04-12T05:00:04.239Z</time></trkpt><trkpt lat="43.972276" lon="12.4824814"><ele>87.6</ele><time>2026-04-12T05:00:06.237Z</time></trkpt><trkpt lat="43.9721766" lon="12.4825672"><ele>86.8</ele><time>2026-04-12T05:00:08.25Z</time></trkpt><trkpt lat="43.9721112" lon="12.4826143"><ele>86.0</ele><time>2026-04-12T05:00:09.237Z</time></trkpt><trkpt lat="43.9719119" lon="12.4827656"><ele>86.0</ele><time>2026-04-12T05:00:11.221Z</time></trkpt><trkpt lat="43.9718335" lon="12.48277"><ele>86.0</ele><time>2026-04-12T05:00:12.231Z</time></trkpt><trkpt lat="43.9717754" lon="12.4827003"><ele>86.0</ele><time>2026-04-12T05:00:13.227Z</time></trkpt><trkpt lat="43.9718492" lon="12.4829514"><ele>86.0</ele><time>2026-04-12T05:00:15.218Z</time></trkpt><trkpt lat="43.9718592" lon="12.4831119"><ele>85.83333333333334</ele><time>2026-04-12T05:00:16.224Z</time></trkpt><trkpt lat="43.9717846" lon="12.4831563"><ele>85.66666666666667</ele><time>2026-04-12T05:00:18.229Z</time></trkpt><trkpt lat="43.9717188" lon="12.4832033"><ele>85.5</ele><time>2026-04-12T05:00:19.228Z</time></trkpt><trkpt lat="43.9716226" lon="12.4832385"><ele>85.33333333333333</ele><time>2026-04-12T05:00:21.251Z</time></trkpt><trkpt lat="43.9715394" lon="12.4832634"><ele>85.16666666666666</ele><time>2026-04-12T05:00:23.235Z</time></trkpt><trkpt lat="43.9714567" lon="12.4832626"><ele>85.0</ele><time>2026-04-12T05:00:25.234Z</time></trkpt><trkpt lat="43.9713526" lon="12.4832509"><ele>86.0</ele><time>2026-04-12T05:00:27.238Z</time></trkpt><trkpt lat="43.9712598" lon="12.483264"><ele>87.0</ele><time>2026-04-12T05:00:29.238Z</time></trkpt><trkpt lat="43.9711665" lon="12.4832696"><ele>88.0</ele><time>2026-04-12T05:00:31.273Z</time></trkpt><trkpt lat="43.971097" lon="12.4832686"><ele>89.0</ele><time>2026-04-12T05:00:33.235Z</time></trkpt><trkpt lat="43.9709952" lon="12.4832801"><ele>90.0</ele><time>2026-04-12T05:00:35.262Z</time></trkpt><trkpt lat="43.9709201" lon="12.4832754"><ele>91.0</ele><time>2026-04-12T05:00:37.253Z</time></trkpt><trkpt lat="43.9708446" lon="12.4832554"><ele>91.16666666666666</ele><time>2026-04-12T05:00:39.257Z</time></trkpt><trkpt lat="43.9707673" lon="12.4832331"><ele>91.33333333333333</ele><time>2026-04-12T05:00:41.236Z</time></trkpt><trkpt lat="43.9706842" lon="12.483195"><ele>91.5</ele><time>2026-04-12T05:00:43.255Z</time></trkpt><trkpt lat="43.9706008" lon="12.4831629"><ele>91.66666666666667</ele><time>2026-04-12T05:00:45.239Z</time></trkpt><trkpt lat="43.9705103" lon="12.4831457"><ele>91.83333333333334</ele><time>2026-04-12T05:00:47.236Z</time></trkpt><trkpt lat="43.9704106" lon="12.4831173"><ele>92.0</ele><time>2026-04-12T05:00:49.242Z</time></trkpt><trkpt lat="43.9703261" lon="12.4830901"><ele>92.0</ele><time>2026-04-12T05:00:51.239Z</time></trkpt><trkpt lat="43.9702386" lon="12.483078"><ele>92.0</ele><time>2026-04-12T05:00:53.236Z</time></trkpt><trkpt lat="43.9701502" lon="12.4830203"><ele>92.0</ele><time>2026-04-12T05:00:55.242Z</time></trkpt><trkpt lat="43.9700752" lon="12.482977"><ele>92.0</ele><time>2026-04-12T05:00:57.284Z</time></trkpt><trkpt lat="43.9700101" lon="12.4829997"><ele>92.0</ele><time>2026-04-12T05:00:59.242Z</time></trkpt><trkpt lat="43.9699326" lon="12.4829995"><ele>92.0</ele><time>2026-04-12T05:01:01.252Z</time></trkpt><trkpt lat="43.9698531" lon="12.4829815"><ele>91.66666666666667</ele><time>2026-04-12T05:01:03.264Z</time></trkpt><trkpt lat="43.969788" lon="12.4829503"><ele>91.33333333333334</ele><time>2026-04-12T05:01:05.245Z</time></trkpt><trkpt lat="43.9697196" lon="12.4829397"><ele>91.0</ele><time>2026-04-12T05:01:07.235Z</time></trkpt><trkpt lat="43.9696285" lon="12.4829341"><ele>90.66666666666667</ele><time>2026-04-12T05:01:10.283Z</time></trkpt><trkpt lat="43.969551" lon="12.4829397"><ele>90.33333333333333</ele><time>2026-04-12T05:01:12.249Z</time></trkpt><trkpt lat="43.9694696" lon="12.482932"><ele>90.0</ele><time>2026-04-12T05:01:14.24Z</time></trkpt><trkpt lat="43.96939" lon="12.4829383"><ele>90.0</ele><time>2026-04-12T05:01:16.233Z</time></trkpt><trkpt lat="43.9693253" lon="12.4829393"><ele>90.0</ele><time>2026-04-12T05:01:18.26Z</time></trkpt><trkpt lat="43.9692475" lon="12.482945"><ele>90.0</ele><time>2026-04-12T05:01:20.239Z</time></trkpt><trkpt lat="43.9691395" lon="12.4829244"><ele>90.0</ele><time>2026-04-12T05:01:22.256Z</time></trkpt><trkpt lat="43.9690544" lon="12.4829201"><ele>90.0</ele><time>2026-04-12T05:01:24.248Z</time></trkpt><trkpt lat="43.9689577" lon="12.4829251"><ele>90.0</ele><time>2026-04-12T05:01:27.244Z</time></trkpt><trkpt lat="43.96887" lon="12.4829369"><ele>92.33333333333333</ele><time>2026-04-12T05:01:29.238Z</time></trkpt><trkpt lat="43.9688061" lon="12.4829292"><ele>94.66666666666666</ele><time>2026-04-12T05:01:30.264Z</time></trkpt><trkpt lat="43.9687031" lon="12.4829143"><ele>97.0</ele><time>2026-04-12T05:01:32.255Z</time></trkpt><trkpt lat="43.9686048" lon="12.4828811"><ele>99.33333333333333</ele><time>2026-04-12T05:01:34.268Z</time></trkpt><trkpt lat="43.9685219" lon="12.4828705"><ele>101.66666666666666</ele><time>2026-04-12T05:01:36.248Z</time></trkpt><trkpt lat="43.968451" lon="12.4828271"><ele>104.0</ele><time>2026-04-12T05:01:38.242Z</time></trkpt><trkpt lat="43.968364" lon="12.4827822"><ele>103.66666666666666</ele><time>2026-04-12T05:01:40.261Z</time></trkpt><trkpt lat="43.9682911" lon="12.4827295"><ele>103.33333333333333</ele><time>2026-04-12T05:01:42.237Z</time></trkpt><trkpt lat="43.9682201" lon="12.4826618"><ele>103.0</ele><time>2026-04-12T05:01:44.291Z</time></trkpt><trkpt lat="43.9681505" lon="12.4826125"><ele>102.66666666666666</ele><time>2026-04-12T05:01:46.236Z</time></trkpt><trkpt lat="43.9680862" lon="12.4825487"><ele>102.33333333333333</ele><time>2026-04-12T05:01:48.273Z</time></trkpt><trkpt lat="43.9680248" lon="12.4824787"><ele>102.0</ele><time>2026-04-12T05:01:50.241Z</time></trkpt><trkpt lat="43.967979" lon="12.4823966"><ele>102.0</ele><time>2026-04-12T05:01:52.285Z</time></trkpt><trkpt lat="43.9679355" lon="12.4823108"><ele>102.0</ele><time>2026-04-12T05:01:54.246Z</time></trkpt><trkpt lat="43.9678848" lon="12.4822141"><ele>102.0</ele><time>2026-04-12T05:01:56.284Z</time></trkpt><trkpt lat="43.9678395" lon="12.4821322"><ele>102.0</ele><time>2026-04-12T05:01:58.241Z</time></trkpt><trkpt lat="43.9677744" lon="12.4820271"><ele>102.0</ele><time>2026-04-12T05:02:00.258Z</time></trkpt><trkpt lat="43.9677309" lon="12.4819209"><ele>102.0</ele><time>2026-04-12T05:02:02.285Z</time></trkpt><trkpt lat="43.967699" lon="12.481814"><ele>104.0</ele><time>2026-04-12T05:02:04.252Z</time></trkpt><trkpt lat="43.9676734" lon="12.4817014"><ele>106.0</ele><time>2026-04-12T05:02:06.251Z</time></trkpt><trkpt lat="43.9676529" lon="12.4815757"><ele>108.0</ele><time>2026-04-12T05:02:08.241Z</time></trkpt><trkpt lat="43.9676408" lon="12.4814506"><ele>110.0</ele><time>2026-04-12T05:02:10.288Z</time></trkpt><trkpt lat="43.9676439" lon="12.4813364"><ele>112.0</ele><time>2026-04-12T05:02:12.236Z</time></trkpt><trkpt lat="43.9676391" lon="12.4812207"><ele>114.0</ele><time>2026-04-12T05:02:14.291Z</time></trkpt><trkpt lat="43.967656" lon="12.4811142"><ele>114.83333333333333</ele><time>2026-04-12T05:02:16.245Z</time></trkpt><trkpt lat="43.9676796" lon="12.4810064"><ele>115.66666666666666</ele><time>2026-04-12T05:02:18.237Z</time></trkpt><trkpt lat="43.9676898" lon="12.4809054"><ele>116.5</ele><time>2026-04-12T05:02:20.241Z</time></trkpt><trkpt lat="43.9677067" lon="12.4807891"><ele>117.33333333333333</ele><time>2026-04-12T05:02:22.248Z</time></trkpt><trkpt lat="43.9676624" lon="12.4806739"><ele>118.16666666666666</ele><time>2026-04-12T05:02:24.26Z</time></trkpt><trkpt lat="43.9675792" lon="12.4806011"><ele>119.0</ele><time>2026-04-12T05:02:26.238Z</time></trkpt><trkpt lat="43.9675006" lon="12.480508"><ele>116.83333333333333</ele><time>2026-04-12T05:02:28.246Z</time></trkpt><trkpt lat="43.967451" lon="12.4803912"><ele>114.66666666666666</ele><time>2026-04-12T05:02:30.283Z</time></trkpt><trkpt lat="43.9673956" lon="12.4802835"><ele>112.5</ele><time>2026-04-12T05:02:32.241Z</time></trkpt><trkpt lat="43.9673317" lon="12.4802253"><ele>110.33333333333334</ele><time>2026-04-12T05:02:34.239Z</time></trkpt><trkpt lat="43.9672961" lon="12.4801117"><ele>108.16666666666667</ele><time>2026-04-12T05:02:36.26Z</time></trkpt><trkpt lat="43.9672783" lon="12.47999"><ele>106.0</ele><time>2026-04-12T05:02:38.235Z</time></trkpt><trkpt lat="43.9672467" lon="12.4798658"><ele>106.0</ele><time>2026-04-12T05:02:40.246Z</time></trkpt><trkpt lat="43.9672244" lon="12.4797402"><ele>106.0</ele><time>2026-04-12T05:02:42.235Z</time></trkpt><trkpt lat="43.9671852" lon="12.4796203"><ele>106.0</ele><time>2026-04-12T05:02:44.249Z</time></trkpt><trkpt lat="43.9671435" lon="12.4794367"><ele>106.0</ele><time>2026-04-12T05:02:47.251Z</time></trkpt><trkpt lat="43.9671166" lon="12.4793252"><ele>106.0</ele><time>2026-04-12T05:02:49.238Z</time></trkpt><trkpt lat="43.9670971" lon="12.4792124"><ele>106.42857142857143</ele><time>2026-04-12T05:02:51.287Z</time></trkpt><trkpt lat="43.9670779" lon="12.4791075"><ele>106.85714285714285</ele><time>2026-04-12T05:02:53.236Z</time></trkpt><trkpt lat="43.9670556" lon="12.4790209"><ele>107.28571428571428</ele><time>2026-04-12T05:02:55.236Z</time></trkpt><trkpt lat="43.9670367" lon="12.4789352"><ele>107.71428571428572</ele><time>2026-04-12T05:02:57.234Z</time></trkpt><trkpt lat="43.9670048" lon="12.4788512"><ele>108.14285714285714</ele><time>2026-04-12T05:02:59.243Z</time></trkpt><trkpt lat="43.9669702" lon="12.4787747"><ele>108.57142857142857</ele><time>2026-04-12T05:03:01.236Z</time></trkpt><trkpt lat="43.9669406" lon="12.4786524"><ele>109.0</ele><time>2026-04-12T05:03:04.238Z</time></trkpt><trkpt lat="43.9669193" lon="12.478566"><ele>109.83333333333334</ele><time>2026-04-12T05:03:06.264Z</time></trkpt><trkpt lat="43.9668996" lon="12.4784749"><ele>110.66666666666667</ele><time>2026-04-12T05:03:08.236Z</time></trkpt><trkpt lat="43.9668793" lon="12.4783796"><ele>111.5</ele><time>2026-04-12T05:03:10.236Z</time></trkpt><trkpt lat="43.9668487" lon="12.478276"><ele>112.33333333333334</ele><time>2026-04-12T05:03:12.242Z</time></trkpt><trkpt lat="43.966836" lon="12.4781604"><ele>113.16666666666667</ele><time>2026-04-12T05:03:14.277Z</time></trkpt><trkpt lat="43.9668113" lon="12.478061"><ele>114.0</ele><time>2026-04-12T05:03:16.238Z</time></trkpt><trkpt lat="43.966785" lon="12.4779699"><ele>113.5</ele><time>2026-04-12T05:03:18.237Z</time></trkpt><trkpt lat="43.9667436" lon="12.4778727"><ele>113.0</ele><time>2026-04-12T05:03:20.238Z</time></trkpt><trkpt lat="43.9666984" lon="12.4777774"><ele>112.5</ele><time>2026-04-12T05:03:22.237Z</time></trkpt><trkpt lat="43.9666607" lon="12.4776749"><ele>112.0</ele><time>2026-04-12T05:03:24.24Z</time></trkpt><trkpt lat="43.9666159" lon="12.4775705"><ele>111.5</ele><time>2026-04-12T05:03:26.242Z</time></trkpt><trkpt lat="43.9665726" lon="12.4774774"><ele>111.0</ele><time>2026-04-12T05:03:28.237Z</time></trkpt><trkpt lat="43.9665548" lon="12.4773893"><ele>111.0</ele><time>2026-04-12T05:03:30.275Z</time></trkpt><trkpt lat="43.966566" lon="12.4772877"><ele>111.0</ele><time>2026-04-12T05:03:33.249Z</time></trkpt><trkpt lat="43.9665832" lon="12.4771931"><ele>111.0</ele><time>2026-04-12T05:03:36.268Z</time></trkpt><trkpt lat="43.9665702" lon="12.4771053"><ele>111.0</ele><time>2026-04-12T05:03:39.272Z</time></trkpt><trkpt lat="43.9664951" lon="12.4770737"><ele>111.0</ele><time>2026-04-12T05:03:42.267Z</time></trkpt><trkpt lat="43.9664279" lon="12.4770893"><ele>111.0</ele><time>2026-04-12T05:03:45.248Z</time></trkpt><trkpt lat="43.9664398" lon="12.4769982"><ele>111.0</ele><time>2026-04-12T05:03:52.272Z</time></trkpt><trkpt lat="43.9665025" lon="12.4769246"><ele>112.0</ele><time>2026-04-12T05:03:55.275Z</time></trkpt><trkpt lat="43.9665716" lon="12.476837"><ele>113.0</ele><time>2026-04-12T05:03:58.281Z</time></trkpt><trkpt lat="43.9666499" lon="12.476819"><ele>114.0</ele><time>2026-04-12T05:04:01.267Z</time></trkpt><trkpt lat="43.9667247" lon="12.47686"><ele>115.0</ele><time>2026-04-12T05:04:05.27Z</time></trkpt><trkpt lat="43.9667607" lon="12.4769333"><ele>116.0</ele><time>2026-04-12T05:04:08.265Z</time></trkpt><trkpt lat="43.9668218" lon="12.4769069"><ele>117.0</ele><time>2026-04-12T05:04:13.254Z</time></trkpt><trkpt lat="43.9668019" lon="12.4767911"><ele>117.0</ele><time>2026-04-12T05:04:17.235Z</time></trkpt><trkpt lat="43.9667689" lon="12.4767031"><ele>117.00000000000001</ele><time>2026-04-12T05:04:20.278Z</time></trkpt><trkpt lat="43.9667321" lon="12.4766179"><ele>117.0</ele><time>2026-04-12T05:04:23.261Z</time></trkpt><trkpt lat="43.9667094" lon="12.4765329"><ele>117.0</ele><time>2026-04-12T05:04:26.279Z</time></trkpt><trkpt lat="43.9666867" lon="12.4764484"><ele>117.00000000000001</ele><time>2026-04-12T05:04:30.288Z</time></trkpt><trkpt lat="43.9667414" lon="12.4764995"><ele>117.0</ele><time>2026-04-12T05:04:38.298Z</time></trkpt><trkpt lat="43.9667975" lon="12.4765457"><ele>117.0</ele><time>2026-04-12T05:04:42.272Z</time></trkpt><trkpt lat="43.9667856" lon="12.4764465"><ele>118.66666666666667</ele><time>2026-04-12T05:04:48.273Z</time></trkpt><trkpt lat="43.9667608" lon="12.4763598"><ele>120.33333333333334</ele><time>2026-04-12T05:04:51.245Z</time></trkpt><trkpt lat="43.9667586" lon="12.4762511"><ele>122.0</ele><time>2026-04-12T05:04:55.266Z</time></trkpt><trkpt lat="43.9667545" lon="12.4761361"><ele>123.66666666666667</ele><time>2026-04-12T05:04:59.27Z</time></trkpt><trkpt lat="43.9667492" lon="12.4760229"><ele>125.33333333333334</ele><time>2026-04-12T05:05:03.245Z</time></trkpt><trkpt lat="43.9667152" lon="12.4759453"><ele>127.0</ele><time>2026-04-12T05:05:06.259Z</time></trkpt><trkpt lat="43.9666795" lon="12.4758528"><ele>127.0</ele><time>2026-04-12T05:05:10.267Z</time></trkpt><trkpt lat="43.9666454" lon="12.4757593"><ele>127.0</ele><time>2026-04-12T05:05:14.251Z</time></trkpt><trkpt lat="43.9666034" lon="12.4756671"><ele>127.0</ele><time>2026-04-12T05:05:18.263Z</time></trkpt><trkpt lat="43.9665629" lon="12.4755898"><ele>127.0</ele><time>2026-04-12T05:05:21.309Z</time></trkpt><trkpt lat="43.9665289" lon="12.4755149"><ele>127.0</ele><time>2026-04-12T05:05:24.274Z</time></trkpt><trkpt lat="43.9664838" lon="12.4754411"><ele>127.0</ele><time>2026-04-12T05:05:27.307Z</time></trkpt><trkpt lat="43.9664403" lon="12.4753537"><ele>127.0</ele><time>2026-04-12T05:05:30.302Z</time></trkpt><trkpt lat="43.9663853" lon="12.475269"><ele>129.33333333333334</ele><time>2026-04-12T05:05:33.319Z</time></trkpt><trkpt lat="43.9663231" lon="12.4751752"><ele>131.66666666666669</ele><time>2026-04-12T05:05:36.316Z</time></trkpt><trkpt lat="43.9662587" lon="12.4750867"><ele>134.0</ele><time>2026-04-12T05:05:39.307Z</time></trkpt><trkpt lat="43.9662134" lon="12.4750132"><ele>136.33333333333334</ele><time>2026-04-12T05:05:41.319Z</time></trkpt><trkpt lat="43.9661678" lon="12.474938"><ele>138.66666666666666</ele><time>2026-04-12T05:05:43.272Z</time></trkpt><trkpt lat="43.9661223" lon="12.4748565"><ele>141.0</ele><time>2026-04-12T05:05:45.292Z</time></trkpt><trkpt lat="43.9660753" lon="12.4747763"><ele>141.0</ele><time>2026-04-12T05:05:47.253Z</time></trkpt><trkpt lat="43.9660282" lon="12.4746943"><ele>141.0</ele><time>2026-04-12T05:05:49.27Z</time></trkpt><trkpt lat="43.9659907" lon="12.4746154"><ele>141.0</ele><time>2026-04-12T05:05:51.312Z</time></trkpt><trkpt lat="43.9659601" lon="12.474533"><ele>141.0</ele><time>2026-04-12T05:05:53.309Z</time></trkpt><trkpt lat="43.9659177" lon="12.4744273"><ele>141.0</ele><time>2026-04-12T05:05:56.302Z</time></trkpt><trkpt lat="43.9658919" lon="12.4743311"><ele>141.0</ele><time>2026-04-12T05:05:59.292Z</time></trkpt><trkpt lat="43.9658579" lon="12.4742333"><ele>141.0</ele><time>2026-04-12T05:06:02.291Z</time></trkpt><trkpt lat="43.9658361" lon="12.474133"><ele>140.66666666666666</ele><time>2026-04-12T05:06:05.311Z</time></trkpt><trkpt lat="43.9658321" lon="12.4740216"><ele>140.33333333333334</ele><time>2026-04-12T05:06:08.281Z</time></trkpt><trkpt lat="43.9658233" lon="12.4739065"><ele>140.0</ele><time>2026-04-12T05:06:11.309Z</time></trkpt><trkpt lat="43.9658126" lon="12.4737889"><ele>139.66666666666669</ele><time>2026-04-12T05:06:14.293Z</time></trkpt><trkpt lat="43.9658059" lon="12.4736636"><ele>139.33333333333334</ele><time>2026-04-12T05:06:17.298Z</time></trkpt><trkpt lat="43.9657884" lon="12.4735474"><ele>139.0</ele><time>2026-04-12T05:06:20.308Z</time></trkpt><trkpt lat="43.9657646" lon="12.4734374"><ele>139.83333333333334</ele><time>2026-04-12T05:06:23.295Z</time></trkpt><trkpt lat="43.9657286" lon="12.4733287"><ele>140.66666666666669</ele><time>2026-04-12T05:06:26.283Z</time></trkpt><trkpt lat="43.9656746" lon="12.4732194"><ele>141.5</ele><time>2026-04-12T05:06:29.317Z</time></trkpt><trkpt lat="43.9656393" lon="12.4731359"><ele>142.33333333333334</ele><time>2026-04-12T05:06:31.298Z</time></trkpt><trkpt lat="43.9655973" lon="12.4730616"><ele>143.16666666666666</ele><time>2026-04-12T05:06:33.301Z</time></trkpt><trkpt lat="43.9655284" lon="12.4729738"><ele>144.0</ele><time>2026-04-12T05:06:36.293Z</time></trkpt><trkpt lat="43.9654431" lon="12.4729161"><ele>144.0</ele><time>2026-04-12T05:06:39.293Z</time></trkpt><trkpt lat="43.9653771" lon="12.4728985"><ele>144.0</ele><time>2026-04-12T05:06:41.288Z</time></trkpt><trkpt lat="43.9652995" lon="12.4729483"><ele>144.0</ele><time>2026-04-12T05:06:44.295Z</time></trkpt><trkpt lat="43.9653153" lon="12.4730704"><ele>144.0</ele><time>2026-04-12T05:06:47.306Z</time></trkpt><trkpt lat="43.9653302" lon="12.4731599"><ele>144.0</ele><time>2026-04-12T05:06:49.288Z</time></trkpt><trkpt lat="43.9652675" lon="12.473208"><ele>144.0</ele><time>2026-04-12T05:06:51.298Z</time></trkpt><trkpt lat="43.9651692" lon="12.4732171"><ele>144.00000000000003</ele><time>2026-04-12T05:06:53.307Z</time></trkpt><trkpt lat="43.9650879" lon="12.4732057"><ele>144.0</ele><time>2026-04-12T05:06:55.315Z</time></trkpt><trkpt lat="43.9650202" lon="12.4732243"><ele>144.0</ele><time>2026-04-12T05:06:57.307Z</time></trkpt><trkpt lat="43.964949" lon="12.4732595"><ele>144.0</ele><time>2026-04-12T05:06:59.304Z</time></trkpt><trkpt lat="43.9648651" lon="12.4732719"><ele>144.0</ele><time>2026-04-12T05:07:01.305Z</time></trkpt><trkpt lat="43.9647993" lon="12.4732878"><ele>144.00000000000003</ele><time>2026-04-12T05:07:03.276Z</time></trkpt><trkpt lat="43.9647328" lon="12.473314"><ele>144.0</ele><time>2026-04-12T05:07:06.299Z</time></trkpt><trkpt lat="43.9646586" lon="12.4733236"><ele>144.14285714285717</ele><time>2026-04-12T05:07:09.314Z</time></trkpt><trkpt lat="43.9645829" lon="12.4733"><ele>144.28571428571428</ele><time>2026-04-12T05:07:12.298Z</time></trkpt><trkpt lat="43.9645106" lon="12.473315"><ele>144.42857142857144</ele><time>2026-04-12T05:07:15.29Z</time></trkpt><trkpt lat="43.9644399" lon="12.4733422"><ele>144.57142857142858</ele><time>2026-04-12T05:07:18.249Z</time></trkpt><trkpt lat="43.9643833" lon="12.473388"><ele>144.71428571428572</ele><time>2026-04-12T05:07:21.307Z</time></trkpt><trkpt lat="43.9643269" lon="12.4734433"><ele>144.85714285714286</ele><time>2026-04-12T05:07:24.3Z</time></trkpt><trkpt lat="43.9642638" lon="12.4735114"><ele>145.0</ele><time>2026-04-12T05:07:27.293Z</time></trkpt><trkpt lat="43.9641964" lon="12.4735615"><ele>145.0</ele><time>2026-04-12T05:07:30.276Z</time></trkpt><trkpt lat="43.9641213" lon="12.4735965"><ele>145.0</ele><time>2026-04-12T05:07:33.319Z</time></trkpt><trkpt lat="43.9640517" lon="12.4736319"><ele>145.0</ele><time>2026-04-12T05:07:36.312Z</time></trkpt><trkpt lat="43.9639801" lon="12.473657"><ele>145.0</ele><time>2026-04-12T05:07:39.293Z</time></trkpt><trkpt lat="43.9638987" lon="12.4736792"><ele>145.0</ele><time>2026-04-12T05:07:42.288Z</time></trkpt><trkpt lat="43.9638107" lon="12.4736993"><ele>145.0</ele><time>2026-04-12T05:07:45.306Z</time></trkpt><trkpt lat="43.9637255" lon="12.4736919"><ele>145.0</ele><time>2026-04-12T05:07:48.297Z</time></trkpt><trkpt lat="43.9636631" lon="12.4736784"><ele>145.0</ele><time>2026-04-12T05:07:50.254Z</time></trkpt><trkpt lat="43.9635998" lon="12.4736398"><ele>145.0</ele><time>2026-04-12T05:07:52.284Z</time></trkpt><trkpt lat="43.9635425" lon="12.4735856"><ele>145.0</ele><time>2026-04-12T05:07:54.29Z</time></trkpt><trkpt lat="43.9635003" lon="12.4735094"><ele>145.0</ele><time>2026-04-12T05:07:56.307Z</time></trkpt><trkpt lat="43.9634549" lon="12.473442"><ele>145.0</ele><time>2026-04-12T05:07:58.256Z</time></trkpt><trkpt lat="43.963377" lon="12.4733808"><ele>145.0</ele><time>2026-04-12T05:08:01.311Z</time></trkpt><trkpt lat="43.9633127" lon="12.4733528"><ele>146.0</ele><time>2026-04-12T05:08:03.311Z</time></trkpt><trkpt lat="43.9632499" lon="12.4733337"><ele>147.0</ele><time>2026-04-12T05:08:05.291Z</time></trkpt><trkpt lat="43.9631862" lon="12.4733137"><ele>148.0</ele><time>2026-04-12T05:08:07.289Z</time></trkpt><trkpt lat="43.9630955" lon="12.4732852"><ele>149.0</ele><time>2026-04-12T05:08:10.294Z</time></trkpt><trkpt lat="43.9630306" lon="12.473257"><ele>150.0</ele><time>2026-04-12T05:08:12.291Z</time></trkpt><trkpt lat="43.9629575" lon="12.4732394"><ele>151.0</ele><time>2026-04-12T05:08:14.305Z</time></trkpt><trkpt lat="43.9628703" lon="12.4732292"><ele>151.0</ele><time>2026-04-12T05:08:16.3Z</time></trkpt><trkpt lat="43.9627887" lon="12.4732142"><ele>151.0</ele><time>2026-04-12T05:08:18.299Z</time></trkpt><trkpt lat="43.9626956" lon="12.4731494"><ele>151.0</ele><time>2026-04-12T05:08:21.312Z</time></trkpt><trkpt lat="43.9626391" lon="12.4730821"><ele>151.0</ele><time>2026-04-12T05:08:23.311Z</time></trkpt><trkpt lat="43.9625855" lon="12.4730082"><ele>151.0</ele><time>2026-04-12T05:08:25.263Z</time></trkpt><trkpt lat="43.9625377" lon="12.472939"><ele>151.0</ele><time>2026-04-12T05:08:27.295Z</time></trkpt><trkpt lat="43.9624697" lon="12.4729057"><ele>151.66666666666669</ele><time>2026-04-12T05:08:29.285Z</time></trkpt><trkpt lat="43.9623985" lon="12.4728949"><ele>152.33333333333334</ele><time>2026-04-12T05:08:31.302Z</time></trkpt><trkpt lat="43.9623186" lon="12.4728844"><ele>153.0</ele><time>2026-04-12T05:08:33.315Z</time></trkpt><trkpt lat="43.9622452" lon="12.4728544"><ele>153.66666666666666</ele><time>2026-04-12T05:08:35.294Z</time></trkpt><trkpt lat="43.9621644" lon="12.4728343"><ele>154.33333333333331</ele><time>2026-04-12T05:08:37.291Z</time></trkpt><trkpt lat="43.962083" lon="12.4728005"><ele>155.0</ele><time>2026-04-12T05:08:39.299Z</time></trkpt><trkpt lat="43.9620111" lon="12.4727798"><ele>155.0</ele><time>2026-04-12T05:08:41.295Z</time></trkpt><trkpt lat="43.9619348" lon="12.472773"><ele>155.0</ele><time>2026-04-12T05:08:43.311Z</time></trkpt><trkpt lat="43.9618627" lon="12.4727646"><ele>155.0</ele><time>2026-04-12T05:08:45.275Z</time></trkpt><trkpt lat="43.9617944" lon="12.4727338"><ele>155.0</ele><time>2026-04-12T05:08:47.245Z</time></trkpt><trkpt lat="43.961708" lon="12.4727094"><ele>155.0</ele><time>2026-04-12T05:08:49.281Z</time></trkpt><trkpt lat="43.9616167" lon="12.4727832"><ele>155.0</ele><time>2026-04-12T05:08:51.301Z</time></trkpt><trkpt lat="43.9615977" lon="12.4728958"><ele>158.0</ele><time>2026-04-12T05:08:53.289Z</time></trkpt><trkpt lat="43.9615806" lon="12.4729987"><ele>161.0</ele><time>2026-04-12T05:08:55.293Z</time></trkpt><trkpt lat="43.9615617" lon="12.4731044"><ele>164.0</ele><time>2026-04-12T05:08:57.228Z</time></trkpt><trkpt lat="43.9615519" lon="12.4732109"><ele>167.0</ele><time>2026-04-12T05:08:59.255Z</time></trkpt><trkpt lat="43.9615939" lon="12.4763624"><ele>167.0</ele><time>2026-04-12T05:09:58.262Z</time></trkpt><trkpt lat="43.961611" lon="12.4764675"><ele>167.0</ele><time>2026-04-12T05:10:00.292Z</time></trkpt><trkpt lat="43.9616221" lon="12.4765862"><ele>167.0</ele><time>2026-04-12T05:10:02.294Z</time></trkpt><trkpt lat="43.9616501" lon="12.4767027"><ele>167.0</ele><time>2026-04-12T05:10:04.256Z</time></trkpt><trkpt lat="43.9616806" lon="12.4768247"><ele>167.0</ele><time>2026-04-12T05:10:06.306Z</time></trkpt><trkpt lat="43.9617035" lon="12.4769378"><ele>167.0</ele><time>2026-04-12T05:10:08.294Z</time></trkpt><trkpt lat="43.961725" lon="12.4770595"><ele>165.16666666666666</ele><time>2026-04-12T05:10:10.3Z</time></trkpt><trkpt lat="43.9617631" lon="12.4771835"><ele>163.33333333333331</ele><time>2026-04-12T05:10:12.3Z</time></trkpt><trkpt lat="43.9617749" lon="12.4773112"><ele>161.5</ele><time>2026-04-12T05:10:14.281Z</time></trkpt><trkpt lat="43.9617789" lon="12.4774182"><ele>159.66666666666666</ele><time>2026-04-12T05:10:16.307Z</time></trkpt><trkpt lat="43.9617828" lon="12.4775202"><ele>157.83333333333334</ele><time>2026-04-12T05:10:18.305Z</time></trkpt><trkpt lat="43.9617928" lon="12.477669"><ele>156.0</ele><time>2026-04-12T05:10:20.303Z</time></trkpt><trkpt lat="43.9618037" lon="12.4778116"><ele>156.66666666666666</ele><time>2026-04-12T05:10:22.291Z</time></trkpt><trkpt lat="43.9618061" lon="12.4779488"><ele>157.33333333333334</ele><time>2026-04-12T05:10:24.29Z</time></trkpt><trkpt lat="43.9618028" lon="12.4780667"><ele>158.0</ele><time>2026-04-12T05:10:26.312Z</time></trkpt><trkpt lat="43.961793" lon="12.4781907"><ele>158.66666666666669</ele><time>2026-04-12T05:10:28.318Z</time></trkpt><trkpt lat="43.961782" lon="12.478293"><ele>159.33333333333334</ele><time>2026-04-12T05:10:30.255Z</time></trkpt><trkpt lat="43.9617693" lon="12.4783845"><ele>160.0</ele><time>2026-04-12T05:10:32.302Z</time></trkpt><trkpt lat="43.9617447" lon="12.47849"><ele>160.0</ele><time>2026-04-12T05:10:35.316Z</time></trkpt><trkpt lat="43.9617228" lon="12.4785957"><ele>160.0</ele><time>2026-04-12T05:10:38.317Z</time></trkpt><trkpt lat="43.9617091" lon="12.4787146"><ele>160.0</ele><time>2026-04-12T05:10:41.313Z</time></trkpt><trkpt lat="43.9616909" lon="12.4788073"><ele>160.0</ele><time>2026-04-12T05:10:43.309Z</time></trkpt><trkpt lat="43.961677" lon="12.4788992"><ele>160.0</ele><time>2026-04-12T05:10:45.302Z</time></trkpt><trkpt lat="43.961665" lon="12.4789957"><ele>160.0</ele><time>2026-04-12T05:10:47.285Z</time></trkpt><trkpt lat="43.9616522" lon="12.4790948"><ele>160.0</ele><time>2026-04-12T05:10:49.302Z</time></trkpt><trkpt lat="43.9616493" lon="12.4792034"><ele>162.33333333333334</ele><time>2026-04-12T05:10:51.301Z</time></trkpt><trkpt lat="43.961642" lon="12.4793078"><ele>164.66666666666669</ele><time>2026-04-12T05:10:53.302Z</time></trkpt><trkpt lat="43.9616298" lon="12.4794109"><ele>167.0</ele><time>2026-04-12T05:10:55.265Z</time></trkpt><trkpt lat="43.9616216" lon="12.4795252"><ele>169.33333333333334</ele><time>2026-04-12T05:10:57.3Z</time></trkpt><trkpt lat="43.9616208" lon="12.4796317"><ele>171.66666666666666</ele><time>2026-04-12T05:10:59.299Z</time></trkpt><trkpt lat="43.9616062" lon="12.4797324"><ele>174.0</ele><time>2026-04-12T05:11:01.31Z</time></trkpt><trkpt lat="43.9615974" lon="12.4798279"><ele>174.28571428571428</ele><time>2026-04-12T05:11:03.295Z</time></trkpt><trkpt lat="43.9615847" lon="12.479922"><ele>174.57142857142858</ele><time>2026-04-12T05:11:05.283Z</time></trkpt><trkpt lat="43.9615715" lon="12.4800274"><ele>174.85714285714286</ele><time>2026-04-12T05:11:07.293Z</time></trkpt><trkpt lat="43.9615595" lon="12.4801305"><ele>175.14285714285714</ele><time>2026-04-12T05:11:09.309Z</time></trkpt><trkpt lat="43.961543" lon="12.4802279"><ele>175.42857142857142</ele><time>2026-04-12T05:11:11.308Z</time></trkpt><trkpt lat="43.9615257" lon="12.4803303"><ele>175.71428571428572</ele><time>2026-04-12T05:11:13.303Z</time></trkpt><trkpt lat="43.9615106" lon="12.4804312"><ele>176.0</ele><time>2026-04-12T05:11:15.3Z</time></trkpt><trkpt lat="43.9615004" lon="12.4805371"><ele>176.16666666666666</ele><time>2026-04-12T05:11:17.306Z</time></trkpt><trkpt lat="43.961494" lon="12.4806484"><ele>176.33333333333331</ele><time>2026-04-12T05:11:19.311Z</time></trkpt><trkpt lat="43.9614896" lon="12.4807762"><ele>176.5</ele><time>2026-04-12T05:11:21.307Z</time></trkpt><trkpt lat="43.9614764" lon="12.4808745"><ele>176.66666666666666</ele><time>2026-04-12T05:11:23.319Z</time></trkpt><trkpt lat="43.9614613" lon="12.4809725"><ele>176.83333333333334</ele><time>2026-04-12T05:11:25.306Z</time></trkpt><trkpt lat="43.9614441" lon="12.4810659"><ele>177.0</ele><time>2026-04-12T05:11:27.301Z</time></trkpt><trkpt lat="43.9614242" lon="12.4811575"><ele>177.0</ele><time>2026-04-12T05:11:29.302Z</time></trkpt><trkpt lat="43.9614003" lon="12.4812442"><ele>177.0</ele><time>2026-04-12T05:11:31.311Z</time></trkpt><trkpt lat="43.9613778" lon="12.4813292"><ele>177.0</ele><time>2026-04-12T05:11:33.288Z</time></trkpt><trkpt lat="43.9613563" lon="12.4814119"><ele>177.0</ele><time>2026-04-12T05:11:35.308Z</time></trkpt><trkpt lat="43.9613319" lon="12.4814947"><ele>177.0</ele><time>2026-04-12T05:11:37.307Z</time></trkpt><trkpt lat="43.9612961" lon="12.4815802"><ele>177.0</ele><time>2026-04-12T05:11:39.277Z</time></trkpt><trkpt lat="43.961255" lon="12.4816721"><ele>177.0</ele><time>2026-04-12T05:11:41.323Z</time></trkpt><trkpt lat="43.9612151" lon="12.4817621"><ele>176.8</ele><time>2026-04-12T05:11:43.31Z</time></trkpt><trkpt lat="43.9611767" lon="12.4818728"><ele>176.6</ele><time>2026-04-12T05:11:45.297Z</time></trkpt><trkpt lat="43.9611273" lon="12.4819549"><ele>176.4</ele><time>2026-04-12T05:11:47.258Z</time></trkpt><trkpt lat="43.9610593" lon="12.4820427"><ele>176.20000000000002</ele><time>2026-04-12T05:11:49.299Z</time></trkpt><trkpt lat="43.960974" lon="12.482146"><ele>176.0</ele><time>2026-04-12T05:11:52.286Z</time></trkpt><trkpt lat="43.9609117" lon="12.4822214"><ele>177.0</ele><time>2026-04-12T05:11:54.259Z</time></trkpt><trkpt lat="43.9608468" lon="12.4822863"><ele>178.0</ele><time>2026-04-12T05:11:56.295Z</time></trkpt><trkpt lat="43.9607668" lon="12.4823508"><ele>179.0</ele><time>2026-04-12T05:11:58.287Z</time></trkpt><trkpt lat="43.9606933" lon="12.482396"><ele>180.0</ele><time>2026-04-12T05:12:00.301Z</time></trkpt><trkpt lat="43.9606288" lon="12.4824358"><ele>181.0</ele><time>2026-04-12T05:12:02.296Z</time></trkpt><trkpt lat="43.9605671" lon="12.4824739"><ele>182.0</ele><time>2026-04-12T05:12:04.299Z</time></trkpt><trkpt lat="43.9604996" lon="12.4825109"><ele>182.0</ele><time>2026-04-12T05:12:06.304Z</time></trkpt><trkpt lat="43.9604228" lon="12.4825304"><ele>182.0</ele><time>2026-04-12T05:12:08.284Z</time></trkpt><trkpt lat="43.9603461" lon="12.4825455"><ele>182.0</ele><time>2026-04-12T05:12:10.303Z</time></trkpt><trkpt lat="43.9602697" lon="12.482557"><ele>182.0</ele><time>2026-04-12T05:12:12.3Z</time></trkpt><trkpt lat="43.9602006" lon="12.4825714"><ele>182.0</ele><time>2026-04-12T05:12:14.288Z</time></trkpt><trkpt lat="43.9601306" lon="12.4825786"><ele>182.0</ele><time>2026-04-12T05:12:16.314Z</time></trkpt><trkpt lat="43.9600635" lon="12.4825874"><ele>182.0</ele><time>2026-04-12T05:12:18.277Z</time></trkpt><trkpt lat="43.9599857" lon="12.4825826"><ele>183.16666666666666</ele><time>2026-04-12T05:12:21.27Z</time></trkpt><trkpt lat="43.9599072" lon="12.482579"><ele>184.33333333333331</ele><time>2026-04-12T05:12:24.295Z</time></trkpt><trkpt lat="43.9598443" lon="12.4825677"><ele>185.5</ele><time>2026-04-12T05:12:26.317Z</time></trkpt><trkpt lat="43.9597719" lon="12.4825372"><ele>186.66666666666666</ele><time>2026-04-12T05:12:28.295Z</time></trkpt><trkpt lat="43.9596953" lon="12.4825133"><ele>187.83333333333334</ele><time>2026-04-12T05:12:30.314Z</time></trkpt><trkpt lat="43.9596161" lon="12.48249"><ele>189.0</ele><time>2026-04-12T05:12:32.299Z</time></trkpt><trkpt lat="43.9595411" lon="12.482461"><ele>189.0</ele><time>2026-04-12T05:12:34.308Z</time></trkpt><trkpt lat="43.9594648" lon="12.4824292"><ele>189.0</ele><time>2026-04-12T05:12:36.316Z</time></trkpt><trkpt lat="43.9593908" lon="12.4823968"><ele>189.0</ele><time>2026-04-12T05:12:38.297Z</time></trkpt><trkpt lat="43.9593155" lon="12.4823676"><ele>189.0</ele><time>2026-04-12T05:12:40.314Z</time></trkpt><trkpt lat="43.9592378" lon="12.4823221"><ele>189.0</ele><time>2026-04-12T05:12:42.244Z</time></trkpt><trkpt lat="43.9591631" lon="12.4822895"><ele>189.0</ele><time>2026-04-12T05:12:44.251Z</time></trkpt><trkpt lat="43.9590952" lon="12.4822589"><ele>188.83333333333334</ele><time>2026-04-12T05:12:46.244Z</time></trkpt><trkpt lat="43.959027" lon="12.4822279"><ele>188.66666666666666</ele><time>2026-04-12T05:12:48.249Z</time></trkpt><trkpt lat="43.9589577" lon="12.4821922"><ele>188.5</ele><time>2026-04-12T05:12:50.24Z</time></trkpt><trkpt lat="43.9588921" lon="12.4821647"><ele>188.33333333333331</ele><time>2026-04-12T05:12:52.239Z</time></trkpt><trkpt lat="43.9588141" lon="12.4821251"><ele>188.16666666666666</ele><time>2026-04-12T05:12:54.294Z</time></trkpt><trkpt lat="43.9587418" lon="12.4820853"><ele>188.0</ele><time>2026-04-12T05:12:56.295Z</time></trkpt><trkpt lat="43.9586643" lon="12.4820541"><ele>189.0</ele><time>2026-04-12T05:12:58.288Z</time></trkpt><trkpt lat="43.9585895" lon="12.4820203"><ele>190.0</ele><time>2026-04-12T05:13:00.308Z</time></trkpt><trkpt lat="43.9585142" lon="12.4819826"><ele>191.0</ele><time>2026-04-12T05:13:02.293Z</time></trkpt><trkpt lat="43.9584296" lon="12.4819456"><ele>192.0</ele><time>2026-04-12T05:13:04.284Z</time></trkpt><trkpt lat="43.9583521" lon="12.4819026"><ele>193.00000000000003</ele><time>2026-04-12T05:13:06.296Z</time></trkpt><trkpt lat="43.9582835" lon="12.4818627"><ele>194.0</ele><time>2026-04-12T05:13:08.319Z</time></trkpt><trkpt lat="43.9582204" lon="12.4818219"><ele>194.50000000000003</ele><time>2026-04-12T05:13:10.289Z</time></trkpt><trkpt lat="43.9581355" lon="12.4817678"><ele>195.0</ele><time>2026-04-12T05:13:13.308Z</time></trkpt><trkpt lat="43.9580576" lon="12.4817197"><ele>195.5</ele><time>2026-04-12T05:13:16.303Z</time></trkpt><trkpt lat="43.9579758" lon="12.4816778"><ele>196.0</ele><time>2026-04-12T05:13:19.323Z</time></trkpt><trkpt lat="43.9578906" lon="12.4816374"><ele>196.50000000000003</ele><time>2026-04-12T05:13:22.294Z</time></trkpt><trkpt lat="43.9578021" lon="12.4816094"><ele>197.0</ele><time>2026-04-12T05:13:25.289Z</time></trkpt><trkpt lat="43.9577333" lon="12.4815889"><ele>197.00000000000003</ele><time>2026-04-12T05:13:27.305Z</time></trkpt><trkpt lat="43.9576479" lon="12.4815563"><ele>197.0</ele><time>2026-04-12T05:13:29.319Z</time></trkpt><trkpt lat="43.9575543" lon="12.4815234"><ele>197.0</ele><time>2026-04-12T05:13:31.299Z</time></trkpt><trkpt lat="43.9574699" lon="12.4814853"><ele>197.0</ele><time>2026-04-12T05:13:33.305Z</time></trkpt><trkpt lat="43.9573874" lon="12.4814591"><ele>197.00000000000003</ele><time>2026-04-12T05:13:35.307Z</time></trkpt><trkpt lat="43.9573079" lon="12.4814265"><ele>197.0</ele><time>2026-04-12T05:13:37.314Z</time></trkpt><trkpt lat="43.9572366" lon="12.4814005"><ele>197.50000000000003</ele><time>2026-04-12T05:13:39.312Z</time></trkpt><trkpt lat="43.9571718" lon="12.4813737"><ele>198.0</ele><time>2026-04-12T05:13:41.305Z</time></trkpt><trkpt lat="43.957092" lon="12.4813193"><ele>198.5</ele><time>2026-04-12T05:13:44.319Z</time></trkpt><trkpt lat="43.9570216" lon="12.4812734"><ele>199.0</ele><time>2026-04-12T05:13:47.3Z</time></trkpt><trkpt lat="43.9569332" lon="12.4812408"><ele>199.50000000000003</ele><time>2026-04-12T05:13:50.302Z</time></trkpt><trkpt lat="43.9568696" lon="12.4812228"><ele>200.0</ele><time>2026-04-12T05:13:52.27Z</time></trkpt><trkpt lat="43.9567944" lon="12.4811986"><ele>201.16666666666669</ele><time>2026-04-12T05:13:54.31Z</time></trkpt><trkpt lat="43.9566988" lon="12.4811803"><ele>202.33333333333334</ele><time>2026-04-12T05:13:56.324Z</time></trkpt><trkpt lat="43.9566188" lon="12.4811453"><ele>203.5</ele><time>2026-04-12T05:13:58.301Z</time></trkpt><trkpt lat="43.9565341" lon="12.4811149"><ele>204.66666666666669</ele><time>2026-04-12T05:14:00.305Z</time></trkpt><trkpt lat="43.9564446" lon="12.4810911"><ele>205.83333333333334</ele><time>2026-04-12T05:14:02.323Z</time></trkpt><trkpt lat="43.9563648" lon="12.4810642"><ele>207.0</ele><time>2026-04-12T05:14:04.32Z</time></trkpt><trkpt lat="43.9562852" lon="12.481036"><ele>207.0</ele><time>2026-04-12T05:14:06.302Z</time></trkpt><trkpt lat="43.9562039" lon="12.4810243"><ele>207.0</ele><time>2026-04-12T05:14:08.308Z</time></trkpt><trkpt lat="43.956118" lon="12.4810292"><ele>207.0</ele><time>2026-04-12T05:14:10.318Z</time></trkpt><trkpt lat="43.9560365" lon="12.4810552"><ele>207.0</ele><time>2026-04-12T05:14:12.312Z</time></trkpt><trkpt lat="43.9559599" lon="12.4810701"><ele>207.0</ele><time>2026-04-12T05:14:14.32Z</time></trkpt><trkpt lat="43.9558953" lon="12.4810617"><ele>207.0</ele><time>2026-04-12T05:14:16.318Z</time></trkpt><trkpt lat="43.9558201" lon="12.4810875"><ele>207.16666666666666</ele><time>2026-04-12T05:14:19.306Z</time></trkpt><trkpt lat="43.9557521" lon="12.4810984"><ele>207.33333333333331</ele><time>2026-04-12T05:14:22.313Z</time></trkpt><trkpt lat="43.9556841" lon="12.4811"><ele>207.5</ele><time>2026-04-12T05:14:25.307Z</time></trkpt><trkpt lat="43.9555899" lon="12.4811235"><ele>207.66666666666666</ele><time>2026-04-12T05:14:28.264Z</time></trkpt><trkpt lat="43.9555206" lon="12.4811357"><ele>207.83333333333331</ele><time>2026-04-12T05:14:30.297Z</time></trkpt><trkpt lat="43.9554515" lon="12.4811632"><ele>208.0</ele><time>2026-04-12T05:14:32.304Z</time></trkpt><trkpt lat="43.9553717" lon="12.4812083"><ele>207.99999999999997</ele><time>2026-04-12T05:14:34.302Z</time></trkpt><trkpt lat="43.955286" lon="12.4812325"><ele>208.0</ele><time>2026-04-12T05:14:36.315Z</time></trkpt><trkpt lat="43.9552049" lon="12.4812587"><ele>208.0</ele><time>2026-04-12T05:14:38.316Z</time></trkpt><trkpt lat="43.955128" lon="12.4812839"><ele>208.0</ele><time>2026-04-12T05:14:40.326Z</time></trkpt><trkpt lat="43.9550503" lon="12.4813115"><ele>207.99999999999997</ele><time>2026-04-12T05:14:42.31Z</time></trkpt><trkpt lat="43.954981" lon="12.4813582"><ele>208.0</ele><time>2026-04-12T05:14:44.304Z</time></trkpt><trkpt lat="43.9549016" lon="12.4813952"><ele>207.83333333333331</ele><time>2026-04-12T05:14:46.308Z</time></trkpt><trkpt lat="43.9548096" lon="12.4814269"><ele>207.66666666666666</ele><time>2026-04-12T05:14:48.305Z</time></trkpt><trkpt lat="43.9547183" lon="12.4814321"><ele>207.5</ele><time>2026-04-12T05:14:50.294Z</time></trkpt><trkpt lat="43.9546221" lon="12.4814408"><ele>207.33333333333331</ele><time>2026-04-12T05:14:52.314Z</time></trkpt><trkpt lat="43.9545306" lon="12.481449"><ele>207.16666666666666</ele><time>2026-04-12T05:14:54.275Z</time></trkpt><trkpt lat="43.9544588" lon="12.4814561"><ele>207.0</ele><time>2026-04-12T05:14:56.302Z</time></trkpt><trkpt lat="43.9543779" lon="12.4814656"><ele>207.0</ele><time>2026-04-12T05:14:58.295Z</time></trkpt><trkpt lat="43.9542924" lon="12.4814678"><ele>207.0</ele><time>2026-04-12T05:15:00.28Z</time></trkpt><trkpt lat="43.9542165" lon="12.4814594"><ele>207.0</ele><time>2026-04-12T05:15:02.299Z</time></trkpt><trkpt lat="43.9541394" lon="12.4814466"><ele>207.0</ele><time>2026-04-12T05:15:04.31Z</time></trkpt><trkpt lat="43.9540613" lon="12.4814275"><ele>207.0</ele><time>2026-04-12T05:15:06.308Z</time></trkpt><trkpt lat="43.953976" lon="12.4814096"><ele>207.0</ele><time>2026-04-12T05:15:08.31Z</time></trkpt><trkpt lat="43.9539014" lon="12.481403"><ele>207.5</ele><time>2026-04-12T05:15:10.289Z</time></trkpt><trkpt lat="43.9538246" lon="12.4814086"><ele>208.0</ele><time>2026-04-12T05:15:12.309Z</time></trkpt><trkpt lat="43.9537481" lon="12.4814102"><ele>208.5</ele><time>2026-04-12T05:15:14.319Z</time></trkpt><trkpt lat="43.953682" lon="12.4814069"><ele>209.0</ele><time>2026-04-12T05:15:16.276Z</time></trkpt><trkpt lat="43.9536027" lon="12.481416"><ele>209.5</ele><time>2026-04-12T05:15:19.304Z</time></trkpt><trkpt lat="43.9535271" lon="12.4814542"><ele>210.0</ele><time>2026-04-12T05:15:22.312Z</time></trkpt><trkpt lat="43.9534388" lon="12.4815018"><ele>210.0</ele><time>2026-04-12T05:15:25.309Z</time></trkpt><trkpt lat="43.9533753" lon="12.4815469"><ele>210.0</ele><time>2026-04-12T05:15:27.318Z</time></trkpt><trkpt lat="43.9532993" lon="12.4815909"><ele>210.0</ele><time>2026-04-12T05:15:29.309Z</time></trkpt><trkpt lat="43.9532329" lon="12.4816627"><ele>210.0</ele><time>2026-04-12T05:15:31.317Z</time></trkpt><trkpt lat="43.953169" lon="12.4817265"><ele>210.0</ele><time>2026-04-12T05:15:33.319Z</time></trkpt><trkpt lat="43.9531077" lon="12.4817991"><ele>210.0</ele><time>2026-04-12T05:15:35.305Z</time></trkpt><trkpt lat="43.9530529" lon="12.4818739"><ele>210.5</ele><time>2026-04-12T05:15:37.322Z</time></trkpt><trkpt lat="43.9529925" lon="12.4819399"><ele>211.0</ele><time>2026-04-12T05:15:39.303Z</time></trkpt><trkpt lat="43.9529484" lon="12.4820267"><ele>211.5</ele><time>2026-04-12T05:15:41.303Z</time></trkpt><trkpt lat="43.9529048" lon="12.4821299"><ele>212.0</ele><time>2026-04-12T05:15:43.331Z</time></trkpt><trkpt lat="43.9528744" lon="12.4822198"><ele>212.5</ele><time>2026-04-12T05:15:45.278Z</time></trkpt><trkpt lat="43.9528553" lon="12.4823181"><ele>213.0</ele><time>2026-04-12T05:15:47.318Z</time></trkpt><trkpt lat="43.9528384" lon="12.4824176"><ele>212.99999999999997</ele><time>2026-04-12T05:15:49.316Z</time></trkpt><trkpt lat="43.9528114" lon="12.482504"><ele>213.0</ele><time>2026-04-12T05:15:51.317Z</time></trkpt><trkpt lat="43.9527866" lon="12.4825853"><ele>213.0</ele><time>2026-04-12T05:15:53.321Z</time></trkpt><trkpt lat="43.9527603" lon="12.482675"><ele>213.0</ele><time>2026-04-12T05:15:55.313Z</time></trkpt><trkpt lat="43.9527466" lon="12.4827697"><ele>213.0</ele><time>2026-04-12T05:15:57.261Z</time></trkpt><trkpt lat="43.9527366" lon="12.4828563"><ele>212.99999999999997</ele><time>2026-04-12T05:15:59.281Z</time></trkpt><trkpt lat="43.9527276" lon="12.4829676"><ele>213.0</ele><time>2026-04-12T05:16:01.275Z</time></trkpt><trkpt lat="43.9527191" lon="12.4831107"><ele>212.83333333333334</ele><time>2026-04-12T05:16:03.289Z</time></trkpt><trkpt lat="43.9527277" lon="12.4832358"><ele>212.66666666666669</ele><time>2026-04-12T05:16:05.297Z</time></trkpt><trkpt lat="43.952737" lon="12.483372"><ele>212.5</ele><time>2026-04-12T05:16:07.302Z</time></trkpt><trkpt lat="43.9527237" lon="12.4834894"><ele>212.33333333333334</ele><time>2026-04-12T05:16:09.31Z</time></trkpt><trkpt lat="43.9527213" lon="12.4836059"><ele>212.16666666666669</ele><time>2026-04-12T05:16:11.307Z</time></trkpt><trkpt lat="43.9527081" lon="12.4837289"><ele>212.0</ele><time>2026-04-12T05:16:13.302Z</time></trkpt><trkpt lat="43.9527025" lon="12.4838581"><ele>212.00000000000003</ele><time>2026-04-12T05:16:15.312Z</time></trkpt><trkpt lat="43.9527014" lon="12.4839777"><ele>212.0</ele><time>2026-04-12T05:16:17.306Z</time></trkpt><trkpt lat="43.9526952" lon="12.4841"><ele>212.0</ele><time>2026-04-12T05:16:19.303Z</time></trkpt><trkpt lat="43.9526861" lon="12.4842192"><ele>212.0</ele><time>2026-04-12T05:16:21.322Z</time></trkpt><trkpt lat="43.9526803" lon="12.4843486"><ele>212.00000000000003</ele><time>2026-04-12T05:16:23.309Z</time></trkpt><trkpt lat="43.9526727" lon="12.4844683"><ele>212.0</ele><time>2026-04-12T05:16:25.325Z</time></trkpt><trkpt lat="43.9526552" lon="12.4845828"><ele>211.66666666666669</ele><time>2026-04-12T05:16:27.316Z</time></trkpt><trkpt lat="43.9526368" lon="12.4846878"><ele>211.33333333333334</ele><time>2026-04-12T05:16:29.295Z</time></trkpt><trkpt lat="43.9526147" lon="12.4847964"><ele>211.0</ele><time>2026-04-12T05:16:31.306Z</time></trkpt><trkpt lat="43.9525767" lon="12.4848963"><ele>210.66666666666669</ele><time>2026-04-12T05:16:33.303Z</time></trkpt><trkpt lat="43.9525464" lon="12.4849846"><ele>210.33333333333334</ele><time>2026-04-12T05:16:35.311Z</time></trkpt><trkpt lat="43.9524947" lon="12.4850808"><ele>210.0</ele><time>2026-04-12T05:16:37.311Z</time></trkpt><trkpt lat="43.9524376" lon="12.4851767"><ele>210.85714285714286</ele><time>2026-04-12T05:16:39.31Z</time></trkpt><trkpt lat="43.9523928" lon="12.485257"><ele>211.71428571428572</ele><time>2026-04-12T05:16:41.304Z</time></trkpt><trkpt lat="43.9523367" lon="12.4853141"><ele>212.57142857142856</ele><time>2026-04-12T05:16:43.309Z</time></trkpt><trkpt lat="43.9522785" lon="12.4853675"><ele>213.42857142857144</ele><time>2026-04-12T05:16:45.285Z</time></trkpt><trkpt lat="43.9522164" lon="12.4854229"><ele>214.28571428571428</ele><time>2026-04-12T05:16:47.272Z</time></trkpt><trkpt lat="43.9521583" lon="12.4854641"><ele>215.14285714285714</ele><time>2026-04-12T05:16:49.326Z</time></trkpt><trkpt lat="43.9520923" lon="12.4854928"><ele>216.0</ele><time>2026-04-12T05:16:51.317Z</time></trkpt><trkpt lat="43.9520248" lon="12.4855188"><ele>216.0</ele><time>2026-04-12T05:16:53.307Z</time></trkpt><trkpt lat="43.9519534" lon="12.4855423"><ele>216.0</ele><time>2026-04-12T05:16:55.313Z</time></trkpt><trkpt lat="43.9518808" lon="12.4855557"><ele>216.0</ele><time>2026-04-12T05:16:57.281Z</time></trkpt><trkpt lat="43.9518094" lon="12.4855743"><ele>216.0</ele><time>2026-04-12T05:16:59.298Z</time></trkpt><trkpt lat="43.9517435" lon="12.4855788"><ele>216.0</ele><time>2026-04-12T05:17:01.306Z</time></trkpt><trkpt lat="43.951648" lon="12.4855738"><ele>216.0</ele><time>2026-04-12T05:17:04.306Z</time></trkpt><trkpt lat="43.951581" lon="12.485561"><ele>216.0</ele><time>2026-04-12T05:17:06.299Z</time></trkpt><trkpt lat="43.9515132" lon="12.4855365"><ele>217.5</ele><time>2026-04-12T05:17:08.281Z</time></trkpt><trkpt lat="43.9514485" lon="12.4855006"><ele>219.0</ele><time>2026-04-12T05:17:10.31Z</time></trkpt><trkpt lat="43.9513617" lon="12.485438"><ele>220.5</ele><time>2026-04-12T05:17:13.27Z</time></trkpt><trkpt lat="43.9513004" lon="12.4853976"><ele>222.0</ele><time>2026-04-12T05:17:15.29Z</time></trkpt><trkpt lat="43.9512452" lon="12.4853391"><ele>223.5</ele><time>2026-04-12T05:17:17.306Z</time></trkpt><trkpt lat="43.9511826" lon="12.4852625"><ele>225.0</ele><time>2026-04-12T05:17:19.305Z</time></trkpt><trkpt lat="43.9511263" lon="12.4851931"><ele>225.33333333333334</ele><time>2026-04-12T05:17:21.294Z</time></trkpt><trkpt lat="43.9510773" lon="12.4851143"><ele>225.66666666666669</ele><time>2026-04-12T05:17:23.299Z</time></trkpt><trkpt lat="43.9510352" lon="12.4850247"><ele>226.0</ele><time>2026-04-12T05:17:25.312Z</time></trkpt><trkpt lat="43.9509979" lon="12.484934"><ele>226.33333333333334</ele><time>2026-04-12T05:17:27.294Z</time></trkpt><trkpt lat="43.9509641" lon="12.48484"><ele>226.66666666666669</ele><time>2026-04-12T05:17:29.311Z</time></trkpt><trkpt lat="43.9509346" lon="12.4847457"><ele>227.0</ele><time>2026-04-12T05:17:31.31Z</time></trkpt><trkpt lat="43.950907" lon="12.4846468"><ele>227.66666666666669</ele><time>2026-04-12T05:17:33.308Z</time></trkpt><trkpt lat="43.9508801" lon="12.4845464"><ele>228.33333333333334</ele><time>2026-04-12T05:17:35.288Z</time></trkpt><trkpt lat="43.9508624" lon="12.4844366"><ele>229.0</ele><time>2026-04-12T05:17:37.3Z</time></trkpt><trkpt lat="43.9508524" lon="12.4843156"><ele>229.66666666666669</ele><time>2026-04-12T05:17:39.312Z</time></trkpt><trkpt lat="43.9508588" lon="12.4841922"><ele>230.33333333333334</ele><time>2026-04-12T05:17:41.301Z</time></trkpt><trkpt lat="43.9508736" lon="12.4840933"><ele>231.0</ele><time>2026-04-12T05:17:43.315Z</time></trkpt><trkpt lat="43.9508955" lon="12.4839928"><ele>231.0</ele><time>2026-04-12T05:17:45.318Z</time></trkpt><trkpt lat="43.9509294" lon="12.4838795"><ele>231.0</ele><time>2026-04-12T05:17:47.308Z</time></trkpt><trkpt lat="43.9509726" lon="12.4837732"><ele>231.0</ele><time>2026-04-12T05:17:49.302Z</time></trkpt><trkpt lat="43.9510133" lon="12.4836683"><ele>231.0</ele><time>2026-04-12T05:17:51.317Z</time></trkpt><trkpt lat="43.9510608" lon="12.4835744"><ele>231.0</ele><time>2026-04-12T05:17:53.307Z</time></trkpt><trkpt lat="43.9511089" lon="12.483482"><ele>231.0</ele><time>2026-04-12T05:17:55.269Z</time></trkpt><trkpt lat="43.9511507" lon="12.4833857"><ele>231.33333333333334</ele><time>2026-04-12T05:17:57.253Z</time></trkpt><trkpt lat="43.9512095" lon="12.4832934"><ele>231.66666666666669</ele><time>2026-04-12T05:17:59.294Z</time></trkpt><trkpt lat="43.9512559" lon="12.483206"><ele>232.0</ele><time>2026-04-12T05:18:01.312Z</time></trkpt><trkpt lat="43.9513104" lon="12.4831213"><ele>232.33333333333334</ele><time>2026-04-12T05:18:03.306Z</time></trkpt><trkpt lat="43.9513612" lon="12.483025"><ele>232.66666666666669</ele><time>2026-04-12T05:18:05.252Z</time></trkpt><trkpt lat="43.9514127" lon="12.4829414"><ele>233.0</ele><time>2026-04-12T05:18:07.283Z</time></trkpt><trkpt lat="43.9514723" lon="12.4828414"><ele>233.66666666666669</ele><time>2026-04-12T05:18:09.296Z</time></trkpt><trkpt lat="43.9515204" lon="12.4827334"><ele>234.33333333333334</ele><time>2026-04-12T05:18:11.278Z</time></trkpt><trkpt lat="43.9515553" lon="12.4826155"><ele>235.0</ele><time>2026-04-12T05:18:13.303Z</time></trkpt><trkpt lat="43.9515947" lon="12.4824989"><ele>235.66666666666669</ele><time>2026-04-12T05:18:15.252Z</time></trkpt><trkpt lat="43.9516147" lon="12.4823878"><ele>236.33333333333334</ele><time>2026-04-12T05:18:17.289Z</time></trkpt><trkpt lat="43.9516187" lon="12.4822683"><ele>237.0</ele><time>2026-04-12T05:18:19.249Z</time></trkpt><trkpt lat="43.9516172" lon="12.4821557"><ele>237.66666666666666</ele><time>2026-04-12T05:18:21.299Z</time></trkpt><trkpt lat="43.951633" lon="12.4820447"><ele>238.33333333333331</ele><time>2026-04-12T05:18:23.265Z</time></trkpt><trkpt lat="43.9516335" lon="12.4819281"><ele>239.0</ele><time>2026-04-12T05:18:25.333Z</time></trkpt><trkpt lat="43.9516344" lon="12.4818045"><ele>239.66666666666666</ele><time>2026-04-12T05:18:27.273Z</time></trkpt><trkpt lat="43.9516212" lon="12.4816862"><ele>240.33333333333331</ele><time>2026-04-12T05:18:29.275Z</time></trkpt><trkpt lat="43.9516224" lon="12.4815795"><ele>241.0</ele><time>2026-04-12T05:18:31.314Z</time></trkpt><trkpt lat="43.951625" lon="12.48148"><ele>240.99999999999997</ele><time>2026-04-12T05:18:33.306Z</time></trkpt><trkpt lat="43.9516282" lon="12.4813622"><ele>241.0</ele><time>2026-04-12T05:18:35.296Z</time></trkpt><trkpt lat="43.9516429" lon="12.4812531"><ele>241.0</ele><time>2026-04-12T05:18:37.301Z</time></trkpt><trkpt lat="43.9516566" lon="12.4811376"><ele>241.0</ele><time>2026-04-12T05:18:39.302Z</time></trkpt><trkpt lat="43.9516588" lon="12.4810385"><ele>240.99999999999997</ele><time>2026-04-12T05:18:41.287Z</time></trkpt><trkpt lat="43.951659" lon="12.4809389"><ele>241.0</ele><time>2026-04-12T05:18:43.311Z</time></trkpt><trkpt lat="43.9516453" lon="12.4808312"><ele>241.33333333333331</ele><time>2026-04-12T05:18:45.277Z</time></trkpt><trkpt lat="43.9516349" lon="12.4807257"><ele>241.66666666666666</ele><time>2026-04-12T05:18:47.296Z</time></trkpt><trkpt lat="43.9516292" lon="12.4806107"><ele>242.0</ele><time>2026-04-12T05:18:49.284Z</time></trkpt><trkpt lat="43.9516373" lon="12.4804991"><ele>242.33333333333331</ele><time>2026-04-12T05:18:51.303Z</time></trkpt><trkpt lat="43.9516373" lon="12.4803983"><ele>242.66666666666666</ele><time>2026-04-12T05:18:53.3Z</time></trkpt><trkpt lat="43.9516377" lon="12.4802881"><ele>243.0</ele><time>2026-04-12T05:18:55.29Z</time></trkpt><trkpt lat="43.9516325" lon="12.4801724"><ele>243.57142857142856</ele><time>2026-04-12T05:18:57.261Z</time></trkpt><trkpt lat="43.9516414" lon="12.4800694"><ele>244.14285714285717</ele><time>2026-04-12T05:18:59.289Z</time></trkpt><trkpt lat="43.9516434" lon="12.4799745"><ele>244.71428571428572</ele><time>2026-04-12T05:19:01.305Z</time></trkpt><trkpt lat="43.9516439" lon="12.479883"><ele>245.28571428571428</ele><time>2026-04-12T05:19:03.314Z</time></trkpt><trkpt lat="43.9516423" lon="12.4797947"><ele>245.85714285714283</ele><time>2026-04-12T05:19:05.271Z</time></trkpt><trkpt lat="43.9516365" lon="12.4796982"><ele>246.42857142857144</ele><time>2026-04-12T05:19:07.257Z</time></trkpt><trkpt lat="43.9516371" lon="12.4796022"><ele>247.0</ele><time>2026-04-12T05:19:09.305Z</time></trkpt><trkpt lat="43.9516402" lon="12.4795139"><ele>247.99999999999997</ele><time>2026-04-12T05:19:11.27Z</time></trkpt><trkpt lat="43.9516382" lon="12.4794196"><ele>249.0</ele><time>2026-04-12T05:19:13.295Z</time></trkpt><trkpt lat="43.951637" lon="12.4793281"><ele>250.0</ele><time>2026-04-12T05:19:15.3Z</time></trkpt><trkpt lat="43.9516374" lon="12.4792307"><ele>251.0</ele><time>2026-04-12T05:19:17.311Z</time></trkpt><trkpt lat="43.9516483" lon="12.4791007"><ele>251.99999999999997</ele><time>2026-04-12T05:19:20.314Z</time></trkpt><trkpt lat="43.9516438" lon="12.4789809"><ele>253.0</ele><time>2026-04-12T05:19:23.31Z</time></trkpt><trkpt lat="43.951648" lon="12.4788885"><ele>252.99999999999997</ele><time>2026-04-12T05:19:25.3Z</time></trkpt><trkpt lat="43.9516436" lon="12.4787898"><ele>253.0</ele><time>2026-04-12T05:19:27.304Z</time></trkpt><trkpt lat="43.9516434" lon="12.4786862"><ele>253.0</ele><time>2026-04-12T05:19:29.275Z</time></trkpt><trkpt lat="43.9516586" lon="12.4785691"><ele>253.0</ele><time>2026-04-12T05:19:31.293Z</time></trkpt><trkpt lat="43.9516511" lon="12.4784357"><ele>252.99999999999997</ele><time>2026-04-12T05:19:33.309Z</time></trkpt><trkpt lat="43.9516361" lon="12.4782873"><ele>253.0</ele><time>2026-04-12T05:19:35.304Z</time></trkpt><trkpt lat="43.9516236" lon="12.4781475"><ele>252.66666666666666</ele><time>2026-04-12T05:19:37.295Z</time></trkpt><trkpt lat="43.9516175" lon="12.4780156"><ele>252.33333333333331</ele><time>2026-04-12T05:19:39.302Z</time></trkpt><trkpt lat="43.9516367" lon="12.4779064"><ele>252.0</ele><time>2026-04-12T05:19:41.293Z</time></trkpt><trkpt lat="43.9516774" lon="12.4778054"><ele>251.66666666666669</ele><time>2026-04-12T05:19:43.274Z</time></trkpt><trkpt lat="43.9517129" lon="12.4776943"><ele>251.33333333333334</ele><time>2026-04-12T05:19:45.299Z</time></trkpt><trkpt lat="43.9517537" lon="12.4775947"><ele>251.0</ele><time>2026-04-12T05:19:47.307Z</time></trkpt><trkpt lat="43.9518159" lon="12.4775621"><ele>250.4</ele><time>2026-04-12T05:19:49.296Z</time></trkpt><trkpt lat="43.9519001" lon="12.4775543"><ele>249.8</ele><time>2026-04-12T05:19:51.311Z</time></trkpt><trkpt lat="43.9519765" lon="12.4775171"><ele>249.20000000000002</ele><time>2026-04-12T05:19:53.318Z</time></trkpt><trkpt lat="43.9520515" lon="12.4774296"><ele>248.60000000000002</ele><time>2026-04-12T05:19:55.272Z</time></trkpt><trkpt lat="43.952131" lon="12.4773357"><ele>248.0</ele><time>2026-04-12T05:19:57.301Z</time></trkpt><trkpt lat="43.9522083" lon="12.4772393"><ele>248.00000000000003</ele><time>2026-04-12T05:19:59.282Z</time></trkpt><trkpt lat="43.9522711" lon="12.4771328"><ele>248.0</ele><time>2026-04-12T05:20:01.297Z</time></trkpt><trkpt lat="43.9523332" lon="12.4770297"><ele>248.0</ele><time>2026-04-12T05:20:03.278Z</time></trkpt><trkpt lat="43.9523871" lon="12.4769462"><ele>248.0</ele><time>2026-04-12T05:20:05.255Z</time></trkpt><trkpt lat="43.952431" lon="12.4768703"><ele>248.00000000000003</ele><time>2026-04-12T05:20:07.258Z</time></trkpt><trkpt lat="43.9524872" lon="12.4767914"><ele>248.0</ele><time>2026-04-12T05:20:09.289Z</time></trkpt><trkpt lat="43.9525385" lon="12.4767213"><ele>249.00000000000003</ele><time>2026-04-12T05:20:11.255Z</time></trkpt><trkpt lat="43.9525864" lon="12.4766599"><ele>250.0</ele><time>2026-04-12T05:20:13.289Z</time></trkpt><trkpt lat="43.9526423" lon="12.4765975"><ele>251.0</ele><time>2026-04-12T05:20:16.307Z</time></trkpt><trkpt lat="43.9527057" lon="12.476528"><ele>252.0</ele><time>2026-04-12T05:20:20.299Z</time></trkpt><trkpt lat="43.9527594" lon="12.4764707"><ele>253.00000000000003</ele><time>2026-04-12T05:20:23.297Z</time></trkpt><trkpt lat="43.9528405" lon="12.4764231"><ele>254.0</ele><time>2026-04-12T05:20:26.307Z</time></trkpt><trkpt lat="43.9529227" lon="12.4763931"><ele>254.00000000000003</ele><time>2026-04-12T05:20:29.299Z</time></trkpt><trkpt lat="43.9530042" lon="12.4763301"><ele>254.0</ele><time>2026-04-12T05:20:32.276Z</time></trkpt><trkpt lat="43.9530739" lon="12.4762816"><ele>254.0</ele><time>2026-04-12T05:20:34.306Z</time></trkpt><trkpt lat="43.9531525" lon="12.4762467"><ele>254.0</ele><time>2026-04-12T05:20:36.311Z</time></trkpt><trkpt lat="43.9532501" lon="12.4762086"><ele>254.00000000000003</ele><time>2026-04-12T05:20:38.276Z</time></trkpt><trkpt lat="43.9533279" lon="12.4761853"><ele>254.0</ele><time>2026-04-12T05:20:40.312Z</time></trkpt><trkpt lat="43.9534023" lon="12.476157"><ele>255.16666666666669</ele><time>2026-04-12T05:20:42.325Z</time></trkpt><trkpt lat="43.9534751" lon="12.4761087"><ele>256.33333333333337</ele><time>2026-04-12T05:20:44.302Z</time></trkpt><trkpt lat="43.9535392" lon="12.4760688"><ele>257.5</ele><time>2026-04-12T05:20:46.314Z</time></trkpt><trkpt lat="43.9536129" lon="12.4760035"><ele>258.6666666666667</ele><time>2026-04-12T05:20:48.309Z</time></trkpt><trkpt lat="43.9536856" lon="12.4759419"><ele>259.8333333333333</ele><time>2026-04-12T05:20:50.292Z</time></trkpt><trkpt lat="43.9537559" lon="12.4758921"><ele>261.0</ele><time>2026-04-12T05:20:52.308Z</time></trkpt><trkpt lat="43.953823" lon="12.4758346"><ele>261.0</ele><time>2026-04-12T05:20:54.289Z</time></trkpt><trkpt lat="43.9538876" lon="12.4757876"><ele>261.0</ele><time>2026-04-12T05:20:56.311Z</time></trkpt><trkpt lat="43.9539516" lon="12.4757417"><ele>261.0</ele><time>2026-04-12T05:20:58.251Z</time></trkpt><trkpt lat="43.9540084" lon="12.4756842"><ele>261.0</ele><time>2026-04-12T05:21:00.287Z</time></trkpt><trkpt lat="43.9540601" lon="12.4756216"><ele>261.0</ele><time>2026-04-12T05:21:02.306Z</time></trkpt><trkpt lat="43.9541112" lon="12.4755691"><ele>261.0</ele><time>2026-04-12T05:21:04.305Z</time></trkpt><trkpt lat="43.9541604" lon="12.4755128"><ele>261.0</ele><time>2026-04-12T05:21:06.315Z</time></trkpt><trkpt lat="43.9542219" lon="12.4754284"><ele>260.6666666666667</ele><time>2026-04-12T05:21:08.296Z</time></trkpt><trkpt lat="43.9542684" lon="12.4753411"><ele>260.3333333333333</ele><time>2026-04-12T05:21:10.306Z</time></trkpt><trkpt lat="43.9543192" lon="12.4752535"><ele>260.0</ele><time>2026-04-12T05:21:12.315Z</time></trkpt><trkpt lat="43.954366" lon="12.4751656"><ele>259.66666666666663</ele><time>2026-04-12T05:21:14.306Z</time></trkpt><trkpt lat="43.954397" lon="12.4750633"><ele>259.3333333333333</ele><time>2026-04-12T05:21:16.307Z</time></trkpt><trkpt lat="43.9544219" lon="12.4749804"><ele>259.0</ele><time>2026-04-12T05:21:18.311Z</time></trkpt><trkpt lat="43.9544398" lon="12.4748789"><ele>259.0</ele><time>2026-04-12T05:21:20.32Z</time></trkpt><trkpt lat="43.9544538" lon="12.4747723"><ele>259.0</ele><time>2026-04-12T05:21:22.303Z</time></trkpt><trkpt lat="43.9544554" lon="12.4746718"><ele>259.0</ele><time>2026-04-12T05:21:24.307Z</time></trkpt><trkpt lat="43.9544447" lon="12.4745645"><ele>259.0</ele><time>2026-04-12T05:21:26.297Z</time></trkpt><trkpt lat="43.9544343" lon="12.4744706"><ele>259.0</ele><time>2026-04-12T05:21:28.317Z</time></trkpt><trkpt lat="43.9544342" lon="12.4743727"><ele>259.0</ele><time>2026-04-12T05:21:30.308Z</time></trkpt><trkpt lat="43.9544396" lon="12.4742797"><ele>259.0</ele><time>2026-04-12T05:21:32.3Z</time></trkpt><trkpt lat="43.9544415" lon="12.4741769"><ele>259.8333333333333</ele><time>2026-04-12T05:21:34.3Z</time></trkpt><trkpt lat="43.9544381" lon="12.4740753"><ele>260.66666666666663</ele><time>2026-04-12T05:21:36.307Z</time></trkpt><trkpt lat="43.9544356" lon="12.4739686"><ele>261.5</ele><time>2026-04-12T05:21:38.313Z</time></trkpt><trkpt lat="43.9544244" lon="12.4738637"><ele>262.3333333333333</ele><time>2026-04-12T05:21:40.307Z</time></trkpt><trkpt lat="43.9544312" lon="12.4737629"><ele>263.1666666666667</ele><time>2026-04-12T05:21:42.305Z</time></trkpt><trkpt lat="43.9544362" lon="12.4736444"><ele>264.0</ele><time>2026-04-12T05:21:44.314Z</time></trkpt><trkpt lat="43.9544442" lon="12.4735225"><ele>264.0</ele><time>2026-04-12T05:21:46.313Z</time></trkpt><trkpt lat="43.9544444" lon="12.4734176"><ele>264.0</ele><time>2026-04-12T05:21:48.315Z</time></trkpt><trkpt lat="43.9544388" lon="12.4733181"><ele>264.0</ele><time>2026-04-12T05:21:50.323Z</time></trkpt><trkpt lat="43.9544449" lon="12.4732053"><ele>264.0</ele><time>2026-04-12T05:21:52.307Z</time></trkpt><trkpt lat="43.9544493" lon="12.4730952"><ele>264.0</ele><time>2026-04-12T05:21:54.304Z</time></trkpt><trkpt lat="43.954436" lon="12.4729875"><ele>264.0</ele><time>2026-04-12T05:21:56.303Z</time></trkpt><trkpt lat="43.9544332" lon="12.4728696"><ele>264.3333333333333</ele><time>2026-04-12T05:21:58.285Z</time></trkpt><trkpt lat="43.9544327" lon="12.4727494"><ele>264.6666666666667</ele><time>2026-04-12T05:22:00.301Z</time></trkpt><trkpt lat="43.9544335" lon="12.4726261"><ele>265.0</ele><time>2026-04-12T05:22:02.316Z</time></trkpt><trkpt lat="43.9544334" lon="12.472495"><ele>265.33333333333337</ele><time>2026-04-12T05:22:04.301Z</time></trkpt><trkpt lat="43.954433" lon="12.4723753"><ele>265.6666666666667</ele><time>2026-04-12T05:22:06.301Z</time></trkpt><trkpt lat="43.9544304" lon="12.4722625"><ele>266.0</ele><time>2026-04-12T05:22:08.289Z</time></trkpt><trkpt lat="43.9544192" lon="12.4721589"><ele>266.7142857142857</ele><time>2026-04-12T05:22:10.272Z</time></trkpt><trkpt lat="43.9544209" lon="12.4720614"><ele>267.42857142857144</ele><time>2026-04-12T05:22:12.319Z</time></trkpt><trkpt lat="43.9544248" lon="12.4719669"><ele>268.1428571428571</ele><time>2026-04-12T05:22:14.3Z</time></trkpt><trkpt lat="43.9544339" lon="12.4718784"><ele>268.8571428571429</ele><time>2026-04-12T05:22:16.314Z</time></trkpt><trkpt lat="43.9544403" lon="12.4717905"><ele>269.57142857142856</ele><time>2026-04-12T05:22:18.316Z</time></trkpt><trkpt lat="43.9544482" lon="12.4716722"><ele>270.2857142857143</ele><time>2026-04-12T05:22:21.296Z</time></trkpt><trkpt lat="43.9544665" lon="12.4715885"><ele>271.0</ele><time>2026-04-12T05:22:23.3Z</time></trkpt><trkpt lat="43.9544974" lon="12.4714625"><ele>271.0</ele><time>2026-04-12T05:22:26.3Z</time></trkpt><trkpt lat="43.9545211" lon="12.4713339"><ele>271.0</ele><time>2026-04-12T05:22:29.298Z</time></trkpt><trkpt lat="43.9545445" lon="12.4712231"><ele>271.0</ele><time>2026-04-12T05:22:32.3Z</time></trkpt><trkpt lat="43.9545612" lon="12.4711016"><ele>271.0</ele><time>2026-04-12T05:22:35.292Z</time></trkpt><trkpt lat="43.9545922" lon="12.4709828"><ele>271.0</ele><time>2026-04-12T05:22:38.305Z</time></trkpt><trkpt lat="43.9546057" lon="12.4708573"><ele>271.5</ele><time>2026-04-12T05:22:41.326Z</time></trkpt><trkpt lat="43.9546162" lon="12.4707661"><ele>272.0</ele><time>2026-04-12T05:22:43.319Z</time></trkpt><trkpt lat="43.954639" lon="12.4706597"><ele>272.5</ele><time>2026-04-12T05:22:45.291Z</time></trkpt><trkpt lat="43.954667" lon="12.4705372"><ele>273.0</ele><time>2026-04-12T05:22:47.326Z</time></trkpt><trkpt lat="43.9546836" lon="12.4704376"><ele>273.5</ele><time>2026-04-12T05:22:49.289Z</time></trkpt><trkpt lat="43.9546865" lon="12.4703421"><ele>274.0</ele><time>2026-04-12T05:22:51.336Z</time></trkpt><trkpt lat="43.9546825" lon="12.4702361"><ele>274.00000000000006</ele><time>2026-04-12T05:22:53.305Z</time></trkpt><trkpt lat="43.9546745" lon="12.4701225"><ele>274.0</ele><time>2026-04-12T05:22:55.301Z</time></trkpt><trkpt lat="43.9546828" lon="12.470015"><ele>274.0</ele><time>2026-04-12T05:22:57.32Z</time></trkpt><trkpt lat="43.9546832" lon="12.4699169"><ele>274.0</ele><time>2026-04-12T05:22:59.296Z</time></trkpt><trkpt lat="43.9546726" lon="12.4698195"><ele>274.0</ele><time>2026-04-12T05:23:01.311Z</time></trkpt><trkpt lat="43.9546675" lon="12.4697235"><ele>274.00000000000006</ele><time>2026-04-12T05:23:03.321Z</time></trkpt><trkpt lat="43.9546638" lon="12.4696316"><ele>274.0</ele><time>2026-04-12T05:23:05.312Z</time></trkpt><trkpt lat="43.954656" lon="12.4695327"><ele>274.5</ele><time>2026-04-12T05:23:07.244Z</time></trkpt><trkpt lat="43.9546423" lon="12.4694399"><ele>275.0</ele><time>2026-04-12T05:23:09.277Z</time></trkpt><trkpt lat="43.9546276" lon="12.46935"><ele>275.5</ele><time>2026-04-12T05:23:11.301Z</time></trkpt><trkpt lat="43.9546183" lon="12.4692555"><ele>276.0</ele><time>2026-04-12T05:23:13.307Z</time></trkpt><trkpt lat="43.9546084" lon="12.4691319"><ele>276.5</ele><time>2026-04-12T05:23:16.307Z</time></trkpt><trkpt lat="43.9545989" lon="12.4690026"><ele>277.0</ele><time>2026-04-12T05:23:19.295Z</time></trkpt><trkpt lat="43.9545944" lon="12.4688724"><ele>277.0</ele><time>2026-04-12T05:23:22.272Z</time></trkpt><trkpt lat="43.9545958" lon="12.4687838"><ele>277.0</ele><time>2026-04-12T05:23:24.315Z</time></trkpt><trkpt lat="43.9545981" lon="12.4686935"><ele>277.0</ele><time>2026-04-12T05:23:26.27Z</time></trkpt><trkpt lat="43.9545955" lon="12.4686049"><ele>277.0</ele><time>2026-04-12T05:23:28.295Z</time></trkpt><trkpt lat="43.9545432" lon="12.4685361"><ele>277.0</ele><time>2026-04-12T05:23:32.3Z</time></trkpt><trkpt lat="43.9544718" lon="12.4685815"><ele>277.0</ele><time>2026-04-12T05:23:36.309Z</time></trkpt><trkpt lat="43.9544018" lon="12.4686293"><ele>277.0</ele><time>2026-04-12T05:23:40.308Z</time></trkpt><trkpt lat="43.9543398" lon="12.468664"><ele>277.8333333333333</ele><time>2026-04-12T05:23:44.322Z</time></trkpt><trkpt lat="43.9542699" lon="12.4687096"><ele>278.66666666666663</ele><time>2026-04-12T05:23:48.307Z</time></trkpt><trkpt lat="43.9542153" lon="12.4687595"><ele>279.5</ele><time>2026-04-12T05:23:51.316Z</time></trkpt><trkpt lat="43.9541537" lon="12.4688435"><ele>280.3333333333333</ele><time>2026-04-12T05:23:55.289Z</time></trkpt><trkpt lat="43.9540929" lon="12.4689031"><ele>281.1666666666667</ele><time>2026-04-12T05:23:58.256Z</time></trkpt><trkpt lat="43.9540234" lon="12.4689601"><ele>282.0</ele><time>2026-04-12T05:24:01.291Z</time></trkpt><trkpt lat="43.953967" lon="12.4690181"><ele>283.42857142857144</ele><time>2026-04-12T05:24:04.291Z</time></trkpt><trkpt lat="43.9539116" lon="12.4690844"><ele>284.85714285714283</ele><time>2026-04-12T05:24:07.26Z</time></trkpt><trkpt lat="43.9538565" lon="12.4691389"><ele>286.2857142857143</ele><time>2026-04-12T05:24:10.305Z</time></trkpt><trkpt lat="43.9538039" lon="12.4691965"><ele>287.7142857142857</ele><time>2026-04-12T05:24:13.305Z</time></trkpt><trkpt lat="43.9537433" lon="12.4692635"><ele>289.14285714285717</ele><time>2026-04-12T05:24:17.294Z</time></trkpt><trkpt lat="43.9537023" lon="12.4693532"><ele>290.57142857142856</ele><time>2026-04-12T05:24:21.329Z</time></trkpt><trkpt lat="43.9536742" lon="12.4694325"><ele>292.0</ele><time>2026-04-12T05:24:24.31Z</time></trkpt><trkpt lat="43.9536342" lon="12.469534"><ele>291.42857142857144</ele><time>2026-04-12T05:24:27.295Z</time></trkpt><trkpt lat="43.9535993" lon="12.4696222"><ele>290.8571428571429</ele><time>2026-04-12T05:24:30.301Z</time></trkpt><trkpt lat="43.9535511" lon="12.4696818"><ele>290.28571428571433</ele><time>2026-04-12T05:24:33.323Z</time></trkpt><trkpt lat="43.9534945" lon="12.4697441"><ele>289.7142857142857</ele><time>2026-04-12T05:24:36.309Z</time></trkpt><trkpt lat="43.953429" lon="12.4697865"><ele>289.14285714285717</ele><time>2026-04-12T05:24:39.295Z</time></trkpt><trkpt lat="43.9533558" lon="12.4698106"><ele>288.5714285714286</ele><time>2026-04-12T05:24:42.312Z</time></trkpt><trkpt lat="43.9532853" lon="12.4698231"><ele>288.0</ele><time>2026-04-12T05:24:46.308Z</time></trkpt><trkpt lat="43.9532218" lon="12.4698216"><ele>289.42857142857144</ele><time>2026-04-12T05:24:50.31Z</time></trkpt><trkpt lat="43.953149" lon="12.4697956"><ele>290.8571428571429</ele><time>2026-04-12T05:24:55.324Z</time></trkpt><trkpt lat="43.9530664" lon="12.469776"><ele>292.2857142857143</ele><time>2026-04-12T05:24:59.294Z</time></trkpt><trkpt lat="43.9530082" lon="12.4697343"><ele>293.7142857142857</ele><time>2026-04-12T05:25:01.319Z</time></trkpt><trkpt lat="43.9529546" lon="12.4696862"><ele>295.1428571428571</ele><time>2026-04-12T05:25:03.303Z</time></trkpt><trkpt lat="43.9528908" lon="12.4696506"><ele>296.57142857142856</ele><time>2026-04-12T05:25:06.296Z</time></trkpt><trkpt lat="43.9528285" lon="12.4696123"><ele>298.0</ele><time>2026-04-12T05:25:10.299Z</time></trkpt><trkpt lat="43.9528033" lon="12.4695297"><ele>299.0</ele><time>2026-04-12T05:25:14.315Z</time></trkpt><trkpt lat="43.9528045" lon="12.4694283"><ele>300.0</ele><time>2026-04-12T05:25:17.326Z</time></trkpt><trkpt lat="43.9528097" lon="12.4693382"><ele>301.0</ele><time>2026-04-12T05:25:20.308Z</time></trkpt><trkpt lat="43.9527798" lon="12.4692331"><ele>302.0</ele><time>2026-04-12T05:25:23.304Z</time></trkpt><trkpt lat="43.9527642" lon="12.4691232"><ele>303.0</ele><time>2026-04-12T05:25:26.303Z</time></trkpt><trkpt lat="43.952734" lon="12.4690187"><ele>304.0</ele><time>2026-04-12T05:25:29.297Z</time></trkpt><trkpt lat="43.9526789" lon="12.468957"><ele>304.0</ele><time>2026-04-12T05:25:32.273Z</time></trkpt><trkpt lat="43.9526495" lon="12.468842"><ele>304.0</ele><time>2026-04-12T05:25:35.304Z</time></trkpt><trkpt lat="43.9526477" lon="12.4687359"><ele>304.0</ele><time>2026-04-12T05:25:38.306Z</time></trkpt><trkpt lat="43.9526524" lon="12.4686191"><ele>304.0</ele><time>2026-04-12T05:25:41.305Z</time></trkpt><trkpt lat="43.9526608" lon="12.468506"><ele>304.0</ele><time>2026-04-12T05:25:44.307Z</time></trkpt><trkpt lat="43.9525902" lon="12.4685312"><ele>304.0</ele><time>2026-04-12T05:25:48.299Z</time></trkpt><trkpt lat="43.9525729" lon="12.4686382"><ele>304.1428571428571</ele><time>2026-04-12T05:25:51.313Z</time></trkpt><trkpt lat="43.9525545" lon="12.4687241"><ele>304.28571428571433</ele><time>2026-04-12T05:25:53.317Z</time></trkpt><trkpt lat="43.9525283" lon="12.4688099"><ele>304.42857142857144</ele><time>2026-04-12T05:25:55.306Z</time></trkpt><trkpt lat="43.9525007" lon="12.4688943"><ele>304.57142857142856</ele><time>2026-04-12T05:25:57.304Z</time></trkpt><trkpt lat="43.9524667" lon="12.4689798"><ele>304.71428571428567</ele><time>2026-04-12T05:25:59.311Z</time></trkpt><trkpt lat="43.9524343" lon="12.4690745"><ele>304.8571428571429</ele><time>2026-04-12T05:26:01.298Z</time></trkpt><trkpt lat="43.9523947" lon="12.4691574"><ele>305.0</ele><time>2026-04-12T05:26:03.287Z</time></trkpt><trkpt lat="43.9523431" lon="12.4692435"><ele>305.5</ele><time>2026-04-12T05:26:05.297Z</time></trkpt><trkpt lat="43.9522865" lon="12.4693322"><ele>306.0</ele><time>2026-04-12T05:26:07.295Z</time></trkpt><trkpt lat="43.9522269" lon="12.4693849"><ele>306.5</ele><time>2026-04-12T05:26:09.303Z</time></trkpt><trkpt lat="43.9521636" lon="12.4694776"><ele>307.0</ele><time>2026-04-12T05:26:11.316Z</time></trkpt><trkpt lat="43.952078" lon="12.4695694"><ele>307.5</ele><time>2026-04-12T05:26:13.313Z</time></trkpt><trkpt lat="43.9520315" lon="12.4696801"><ele>308.0</ele><time>2026-04-12T05:26:15.28Z</time></trkpt><trkpt lat="43.9519851" lon="12.4697704"><ele>308.0</ele><time>2026-04-12T05:26:17.314Z</time></trkpt><trkpt lat="43.9519384" lon="12.4698806"><ele>308.0</ele><time>2026-04-12T05:26:19.311Z</time></trkpt><trkpt lat="43.9518904" lon="12.4699622"><ele>308.0</ele><time>2026-04-12T05:26:21.332Z</time></trkpt><trkpt lat="43.9518216" lon="12.4699117"><ele>308.0</ele><time>2026-04-12T05:26:25.298Z</time></trkpt><trkpt lat="43.9517663" lon="12.4698465"><ele>308.0</ele><time>2026-04-12T05:26:29.257Z</time></trkpt><trkpt lat="43.9517077" lon="12.4697844"><ele>308.0</ele><time>2026-04-12T05:26:32.304Z</time></trkpt><trkpt lat="43.9516567" lon="12.4697248"><ele>309.1666666666667</ele><time>2026-04-12T05:26:35.322Z</time></trkpt><trkpt lat="43.9515968" lon="12.4696762"><ele>310.33333333333337</ele><time>2026-04-12T05:26:38.301Z</time></trkpt><trkpt lat="43.9515322" lon="12.4696123"><ele>311.5</ele><time>2026-04-12T05:26:42.307Z</time></trkpt><trkpt lat="43.9514689" lon="12.4695454"><ele>312.6666666666667</ele><time>2026-04-12T05:26:46.302Z</time></trkpt><trkpt lat="43.9514006" lon="12.469489"><ele>313.8333333333333</ele><time>2026-04-12T05:26:50.31Z</time></trkpt><trkpt lat="43.9513308" lon="12.4694375"><ele>315.0</ele><time>2026-04-12T05:26:54.309Z</time></trkpt><trkpt lat="43.9512884" lon="12.4693574"><ele>316.0</ele><time>2026-04-12T05:26:59.261Z</time></trkpt><trkpt lat="43.951314" lon="12.4692738"><ele>317.0</ele><time>2026-04-12T05:27:02.291Z</time></trkpt><trkpt lat="43.9513494" lon="12.4691733"><ele>318.0</ele><time>2026-04-12T05:27:05.273Z</time></trkpt><trkpt lat="43.9513739" lon="12.469084"><ele>319.0</ele><time>2026-04-12T05:27:07.306Z</time></trkpt><trkpt lat="43.9514042" lon="12.4689789"><ele>320.0</ele><time>2026-04-12T05:27:09.319Z</time></trkpt><trkpt lat="43.9514388" lon="12.4688473"><ele>321.0</ele><time>2026-04-12T05:27:11.302Z</time></trkpt><trkpt lat="43.9514663" lon="12.4687415"><ele>321.6666666666667</ele><time>2026-04-12T05:27:13.308Z</time></trkpt><trkpt lat="43.9514433" lon="12.4686177"><ele>322.3333333333333</ele><time>2026-04-12T05:27:16.304Z</time></trkpt><trkpt lat="43.9513889" lon="12.4685462"><ele>323.0</ele><time>2026-04-12T05:27:19.291Z</time></trkpt><trkpt lat="43.9513469" lon="12.468474"><ele>323.66666666666663</ele><time>2026-04-12T05:27:22.275Z</time></trkpt><trkpt lat="43.9512566" lon="12.4685064"><ele>324.3333333333333</ele><time>2026-04-12T05:27:26.32Z</time></trkpt><trkpt lat="43.951185" lon="12.4685433"><ele>325.0</ele><time>2026-04-12T05:27:29.299Z</time></trkpt><trkpt lat="43.9511003" lon="12.4685638"><ele>325.0</ele><time>2026-04-12T05:27:32.312Z</time></trkpt><trkpt lat="43.9510333" lon="12.4685179"><ele>325.0</ele><time>2026-04-12T05:27:35.271Z</time></trkpt><trkpt lat="43.9509759" lon="12.4684527"><ele>325.0</ele><time>2026-04-12T05:27:38.288Z</time></trkpt><trkpt lat="43.9509295" lon="12.4683885"><ele>325.0</ele><time>2026-04-12T05:27:41.296Z</time></trkpt><trkpt lat="43.9508733" lon="12.4683313"><ele>325.0</ele><time>2026-04-12T05:27:44.301Z</time></trkpt><trkpt lat="43.9508113" lon="12.4682779"><ele>325.0</ele><time>2026-04-12T05:27:47.309Z</time></trkpt><trkpt lat="43.9507621" lon="12.4682111"><ele>325.0</ele><time>2026-04-12T05:27:50.303Z</time></trkpt><trkpt lat="43.9507098" lon="12.4681509"><ele>325.85714285714283</ele><time>2026-04-12T05:27:53.316Z</time></trkpt><trkpt lat="43.9506496" lon="12.4680679"><ele>326.7142857142857</ele><time>2026-04-12T05:27:57.254Z</time></trkpt><trkpt lat="43.9506004" lon="12.4680042"><ele>327.57142857142856</ele><time>2026-04-12T05:28:00.267Z</time></trkpt><trkpt lat="43.9505499" lon="12.4679328"><ele>328.42857142857144</ele><time>2026-04-12T05:28:03.287Z</time></trkpt><trkpt lat="43.9505221" lon="12.4678511"><ele>329.2857142857143</ele><time>2026-04-12T05:28:08.263Z</time></trkpt><trkpt lat="43.9504452" lon="12.4678823"><ele>330.14285714285717</ele><time>2026-04-12T05:28:12.298Z</time></trkpt><trkpt lat="43.9503742" lon="12.4679189"><ele>331.0</ele><time>2026-04-12T05:28:15.289Z</time></trkpt><trkpt lat="43.9503159" lon="12.467828"><ele>331.0</ele><time>2026-04-12T05:28:20.295Z</time></trkpt><trkpt lat="43.9503013" lon="12.4677251"><ele>331.0</ele><time>2026-04-12T05:28:23.255Z</time></trkpt><trkpt lat="43.9502983" lon="12.4676109"><ele>331.0</ele><time>2026-04-12T05:28:26.315Z</time></trkpt><trkpt lat="43.9502869" lon="12.4674916"><ele>331.0</ele><time>2026-04-12T05:28:29.288Z</time></trkpt><trkpt lat="43.9502665" lon="12.4673742"><ele>331.0</ele><time>2026-04-12T05:28:32.299Z</time></trkpt><trkpt lat="43.9502492" lon="12.4672532"><ele>331.0</ele><time>2026-04-12T05:28:35.27Z</time></trkpt><trkpt lat="43.9502256" lon="12.467164"><ele>330.5</ele><time>2026-04-12T05:28:37.286Z</time></trkpt><trkpt lat="43.9501975" lon="12.4670716"><ele>330.0</ele><time>2026-04-12T05:28:39.294Z</time></trkpt><trkpt lat="43.9501761" lon="12.4669811"><ele>329.5</ele><time>2026-04-12T05:28:41.287Z</time></trkpt><trkpt lat="43.950156" lon="12.4668884"><ele>329.0</ele><time>2026-04-12T05:28:43.306Z</time></trkpt><trkpt lat="43.9501248" lon="12.4667878"><ele>328.5</ele><time>2026-04-12T05:28:45.309Z</time></trkpt><trkpt lat="43.9500913" lon="12.4666974"><ele>328.0</ele><time>2026-04-12T05:28:47.292Z</time></trkpt><trkpt lat="43.9500407" lon="12.4665932"><ele>329.5</ele><time>2026-04-12T05:28:49.267Z</time></trkpt><trkpt lat="43.9500107" lon="12.4665155"><ele>331.0</ele><time>2026-04-12T05:28:51.288Z</time></trkpt><trkpt lat="43.9499417" lon="12.46644"><ele>332.5</ele><time>2026-04-12T05:28:54.294Z</time></trkpt><trkpt lat="43.9498762" lon="12.4663734"><ele>334.0</ele><time>2026-04-12T05:28:57.317Z</time></trkpt><trkpt lat="43.9498126" lon="12.4663131"><ele>335.5</ele><time>2026-04-12T05:29:00.299Z</time></trkpt><trkpt lat="43.9497394" lon="12.4662665"><ele>337.0</ele><time>2026-04-12T05:29:03.3Z</time></trkpt><trkpt lat="43.9496716" lon="12.4662069"><ele>337.0</ele><time>2026-04-12T05:29:06.301Z</time></trkpt><trkpt lat="43.9495913" lon="12.4661546"><ele>337.0</ele><time>2026-04-12T05:29:09.289Z</time></trkpt><trkpt lat="43.949519" lon="12.4661146"><ele>337.0</ele><time>2026-04-12T05:29:12.308Z</time></trkpt><trkpt lat="43.949452" lon="12.4660831"><ele>337.0</ele><time>2026-04-12T05:29:15.307Z</time></trkpt><trkpt lat="43.9493882" lon="12.4660603"><ele>337.0</ele><time>2026-04-12T05:29:17.302Z</time></trkpt><trkpt lat="43.9493107" lon="12.4660352"><ele>337.0</ele><time>2026-04-12T05:29:20.285Z</time></trkpt><trkpt lat="43.9492362" lon="12.4660289"><ele>338.00000000000006</ele><time>2026-04-12T05:29:23.251Z</time></trkpt><trkpt lat="43.9491658" lon="12.4660268"><ele>339.0</ele><time>2026-04-12T05:29:25.32Z</time></trkpt><trkpt lat="43.9490969" lon="12.4660252"><ele>340.0</ele><time>2026-04-12T05:29:27.278Z</time></trkpt><trkpt lat="43.9490297" lon="12.4660282"><ele>341.0</ele><time>2026-04-12T05:29:29.307Z</time></trkpt><trkpt lat="43.9489641" lon="12.4660343"><ele>342.0</ele><time>2026-04-12T05:29:31.33Z</time></trkpt><trkpt lat="43.948896" lon="12.4660406"><ele>343.00000000000006</ele><time>2026-04-12T05:29:33.307Z</time></trkpt><trkpt lat="43.9488294" lon="12.4660472"><ele>344.0</ele><time>2026-04-12T05:29:35.301Z</time></trkpt><trkpt lat="43.9487589" lon="12.4660638"><ele>344.00000000000006</ele><time>2026-04-12T05:29:37.298Z</time></trkpt><trkpt lat="43.9486919" lon="12.4660743"><ele>344.0</ele><time>2026-04-12T05:29:39.302Z</time></trkpt><trkpt lat="43.9486184" lon="12.4660919"><ele>344.0</ele><time>2026-04-12T05:29:41.285Z</time></trkpt><trkpt lat="43.9485522" lon="12.4661024"><ele>344.0</ele><time>2026-04-12T05:29:43.306Z</time></trkpt><trkpt lat="43.9484759" lon="12.4661064"><ele>344.0</ele><time>2026-04-12T05:29:46.311Z</time></trkpt><trkpt lat="43.9484084" lon="12.4661125"><ele>344.00000000000006</ele><time>2026-04-12T05:29:49.269Z</time></trkpt><trkpt lat="43.9483342" lon="12.4661012"><ele>344.0</ele><time>2026-04-12T05:29:52.278Z</time></trkpt><trkpt lat="43.9482703" lon="12.4660898"><ele>353.0</ele><time>2026-04-12T05:29:54.279Z</time></trkpt><trkpt lat="43.9476986" lon="12.465735"><ele>353.0</ele><time>2026-04-12T05:30:10.275Z</time></trkpt><trkpt lat="43.9477839" lon="12.4656309"><ele>353.0</ele><time>2026-04-12T05:30:21.301Z</time></trkpt><trkpt lat="43.9478183" lon="12.4657171"><ele>353.0</ele><time>2026-04-12T05:30:28.313Z</time></trkpt><trkpt lat="43.9478134" lon="12.4658107"><ele>353.0</ele><time>2026-04-12T05:30:34.32Z</time></trkpt><trkpt lat="43.9477932" lon="12.4659084"><ele>353.0</ele><time>2026-04-12T05:30:37.303Z</time></trkpt><trkpt lat="43.9477668" lon="12.4660033"><ele>353.0</ele><time>2026-04-12T05:30:40.305Z</time></trkpt><trkpt lat="43.947736" lon="12.4660976"><ele>353.0</ele><time>2026-04-12T05:30:43.295Z</time></trkpt><trkpt lat="43.9476985" lon="12.4662143"><ele>353.0</ele><time>2026-04-12T05:30:46.301Z</time></trkpt><trkpt lat="43.94767" lon="12.4663032"><ele>353.0</ele><time>2026-04-12T05:30:48.308Z</time></trkpt><trkpt lat="43.9476495" lon="12.466397"><ele>353.0</ele><time>2026-04-12T05:30:50.297Z</time></trkpt><trkpt lat="43.9476249" lon="12.4664801"><ele>353.0</ele><time>2026-04-12T05:30:52.313Z</time></trkpt><trkpt lat="43.947607" lon="12.4665737"><ele>353.0</ele><time>2026-04-12T05:30:54.319Z</time></trkpt><trkpt lat="43.9475899" lon="12.4666622"><ele>353.0</ele><time>2026-04-12T05:30:56.305Z</time></trkpt><trkpt lat="43.947567" lon="12.4667666"><ele>352.83333333333337</ele><time>2026-04-12T05:30:58.302Z</time></trkpt><trkpt lat="43.9475403" lon="12.4668715"><ele>352.6666666666667</ele><time>2026-04-12T05:31:00.319Z</time></trkpt><trkpt lat="43.9475166" lon="12.4669731"><ele>352.5</ele><time>2026-04-12T05:31:02.298Z</time></trkpt><trkpt lat="43.9475165" lon="12.4671198"><ele>352.3333333333333</ele><time>2026-04-12T05:31:04.311Z</time></trkpt><trkpt lat="43.9475102" lon="12.4672546"><ele>352.16666666666663</ele><time>2026-04-12T05:31:06.304Z</time></trkpt><trkpt lat="43.9474954" lon="12.4673558"><ele>352.0</ele><time>2026-04-12T05:31:08.302Z</time></trkpt><trkpt lat="43.9474775" lon="12.4674872"><ele>353.20000000000005</ele><time>2026-04-12T05:31:10.314Z</time></trkpt><trkpt lat="43.9474635" lon="12.4676144"><ele>354.4</ele><time>2026-04-12T05:31:12.313Z</time></trkpt><trkpt lat="43.9474477" lon="12.4677374"><ele>355.6</ele><time>2026-04-12T05:31:14.328Z</time></trkpt><trkpt lat="43.9474439" lon="12.4678397"><ele>356.79999999999995</ele><time>2026-04-12T05:31:16.313Z</time></trkpt><trkpt lat="43.9474005" lon="12.4679179"><ele>358.0</ele><time>2026-04-12T05:31:19.313Z</time></trkpt><trkpt lat="43.947278" lon="12.4679518"><ele>358.0</ele><time>2026-04-12T05:31:21.257Z</time></trkpt><trkpt lat="43.9471962" lon="12.4679707"><ele>358.0</ele><time>2026-04-12T05:31:22.296Z</time></trkpt><trkpt lat="43.947128" lon="12.468007"><ele>358.0</ele><time>2026-04-12T05:31:23.318Z</time></trkpt><trkpt lat="43.9470592" lon="12.4680387"><ele>358.0</ele><time>2026-04-12T05:31:25.316Z</time></trkpt><trkpt lat="43.946975" lon="12.4681002"><ele>358.0</ele><time>2026-04-12T05:31:27.272Z</time></trkpt><trkpt lat="43.9468673" lon="12.4681795"><ele>358.0</ele><time>2026-04-12T05:31:29.308Z</time></trkpt><trkpt lat="43.9468001" lon="12.4681258"><ele>358.0</ele><time>2026-04-12T05:31:34.301Z</time></trkpt><trkpt lat="43.9467822" lon="12.4680222"><ele>358.0</ele><time>2026-04-12T05:31:36.304Z</time></trkpt><trkpt lat="43.9467309" lon="12.4679049"><ele>358.0</ele><time>2026-04-12T05:31:38.273Z</time></trkpt><trkpt lat="43.9466359" lon="12.4677632"><ele>358.0</ele><time>2026-04-12T05:31:40.287Z</time></trkpt><trkpt lat="43.9465757" lon="12.4676689"><ele>358.0</ele><time>2026-04-12T05:31:41.276Z</time></trkpt><trkpt lat="43.9465127" lon="12.4675588"><ele>355.4</ele><time>2026-04-12T05:31:42.326Z</time></trkpt><trkpt lat="43.9464366" lon="12.4674309"><ele>352.79999999999995</ele><time>2026-04-12T05:31:43.251Z</time></trkpt><trkpt lat="43.9463871" lon="12.467292"><ele>350.2</ele><time>2026-04-12T05:31:44.236Z</time></trkpt><trkpt lat="43.9463552" lon="12.4671866"><ele>347.6</ele><time>2026-04-12T05:31:45.262Z</time></trkpt><trkpt lat="43.9463429" lon="12.4670425"><ele>345.0</ele><time>2026-04-12T05:31:47.287Z</time></trkpt><trkpt lat="43.9463851" lon="12.4669042"><ele>344.42857142857144</ele><time>2026-04-12T05:31:49.314Z</time></trkpt><trkpt lat="43.9463827" lon="12.4668146"><ele>343.85714285714283</ele><time>2026-04-12T05:31:50.303Z</time></trkpt><trkpt lat="43.9463929" lon="12.4667161"><ele>343.2857142857143</ele><time>2026-04-12T05:31:52.296Z</time></trkpt><trkpt lat="43.9464282" lon="12.4666231"><ele>342.7142857142857</ele><time>2026-04-12T05:31:55.306Z</time></trkpt><trkpt lat="43.9464591" lon="12.4665371"><ele>342.14285714285717</ele><time>2026-04-12T05:31:58.298Z</time></trkpt><trkpt lat="43.946406" lon="12.4664436"><ele>341.57142857142856</ele><time>2026-04-12T05:32:00.274Z</time></trkpt><trkpt lat="43.9463501" lon="12.4663774"><ele>341.0</ele><time>2026-04-12T05:32:01.293Z</time></trkpt><trkpt lat="43.9462785" lon="12.4663188"><ele>340.33333333333337</ele><time>2026-04-12T05:32:02.295Z</time></trkpt><trkpt lat="43.9462098" lon="12.4662436"><ele>339.6666666666667</ele><time>2026-04-12T05:32:03.303Z</time></trkpt><trkpt lat="43.9461387" lon="12.4661923"><ele>339.0</ele><time>2026-04-12T05:32:04.298Z</time></trkpt><trkpt lat="43.9460455" lon="12.4661329"><ele>338.3333333333333</ele><time>2026-04-12T05:32:05.291Z</time></trkpt><trkpt lat="43.9459688" lon="12.46607"><ele>337.66666666666663</ele><time>2026-04-12T05:32:06.288Z</time></trkpt><trkpt lat="43.9459047" lon="12.465993"><ele>337.0</ele><time>2026-04-12T05:32:07.285Z</time></trkpt><trkpt lat="43.945837" lon="12.4659338"><ele>335.66666666666663</ele><time>2026-04-12T05:32:08.293Z</time></trkpt><trkpt lat="43.9457705" lon="12.4658638"><ele>334.3333333333333</ele><time>2026-04-12T05:32:09.302Z</time></trkpt><trkpt lat="43.9457045" lon="12.4658063"><ele>333.0</ele><time>2026-04-12T05:32:10.311Z</time></trkpt><trkpt lat="43.9456434" lon="12.4657413"><ele>331.6666666666667</ele><time>2026-04-12T05:32:11.297Z</time></trkpt><trkpt lat="43.9455805" lon="12.4656765"><ele>330.33333333333337</ele><time>2026-04-12T05:32:12.304Z</time></trkpt><trkpt lat="43.9455192" lon="12.465621"><ele>329.0</ele><time>2026-04-12T05:32:13.284Z</time></trkpt><trkpt lat="43.9454596" lon="12.4655603"><ele>329.0</ele><time>2026-04-12T05:32:14.308Z</time></trkpt><trkpt lat="43.9454044" lon="12.4655112"><ele>329.0</ele><time>2026-04-12T05:32:15.3Z</time></trkpt><trkpt lat="43.9452968" lon="12.4654447"><ele>329.0</ele><time>2026-04-12T05:32:17.288Z</time></trkpt><trkpt lat="43.9452361" lon="12.4653579"><ele>329.0</ele><time>2026-04-12T05:32:19.312Z</time></trkpt><trkpt lat="43.9451718" lon="12.4652546"><ele>329.0</ele><time>2026-04-12T05:32:21.258Z</time></trkpt><trkpt lat="43.9450783" lon="12.4651695"><ele>327.5</ele><time>2026-04-12T05:32:23.318Z</time></trkpt><trkpt lat="43.9450321" lon="12.465108"><ele>326.0</ele><time>2026-04-12T05:32:24.31Z</time></trkpt><trkpt lat="43.944979" lon="12.4650203"><ele>324.5</ele><time>2026-04-12T05:32:25.317Z</time></trkpt><trkpt lat="43.9449217" lon="12.4649481"><ele>323.0</ele><time>2026-04-12T05:32:26.286Z</time></trkpt><trkpt lat="43.9448705" lon="12.4648807"><ele>321.5</ele><time>2026-04-12T05:32:27.293Z</time></trkpt><trkpt lat="43.9447967" lon="12.4648098"><ele>320.0</ele><time>2026-04-12T05:32:29.311Z</time></trkpt><trkpt lat="43.9447471" lon="12.4647489"><ele>320.0</ele><time>2026-04-12T05:32:31.303Z</time></trkpt><trkpt lat="43.9447449" lon="12.4646296"><ele>320.0</ele><time>2026-04-12T05:32:34.295Z</time></trkpt><trkpt lat="43.9447043" lon="12.4645329"><ele>320.0</ele><time>2026-04-12T05:32:37.315Z</time></trkpt><trkpt lat="43.9446418" lon="12.4644799"><ele>320.0</ele><time>2026-04-12T05:32:41.308Z</time></trkpt><trkpt lat="43.9445801" lon="12.464461"><ele>320.0</ele><time>2026-04-12T05:32:46.309Z</time></trkpt><trkpt lat="43.9445084" lon="12.4644435"><ele>320.0</ele><time>2026-04-12T05:32:51.272Z</time></trkpt><trkpt lat="43.9444395" lon="12.4644272"><ele>320.0</ele><time>2026-04-12T05:32:55.304Z</time></trkpt><trkpt lat="43.9443679" lon="12.4644191"><ele>320.0</ele><time>2026-04-12T05:33:00.3Z</time></trkpt><trkpt lat="43.9442921" lon="12.4644167"><ele>320.0</ele><time>2026-04-12T05:33:06.277Z</time></trkpt><trkpt lat="43.9442375" lon="12.4643726"><ele>320.0</ele><time>2026-04-12T05:33:11.274Z</time></trkpt><trkpt lat="43.9442021" lon="12.4642895"><ele>320.0</ele><time>2026-04-12T05:33:17.255Z</time></trkpt><trkpt lat="43.9441793" lon="12.4641964"><ele>320.0</ele><time>2026-04-12T05:33:22.288Z</time></trkpt><trkpt lat="43.9441891" lon="12.4641059"><ele>320.0</ele><time>2026-04-12T05:33:27.272Z</time></trkpt><trkpt lat="43.944206" lon="12.464"><ele>320.0</ele><time>2026-04-12T05:33:31.285Z</time></trkpt><trkpt lat="43.944225" lon="12.4639123"><ele>320.0</ele><time>2026-04-12T05:33:34.272Z</time></trkpt><trkpt lat="43.9442411" lon="12.4638135"><ele>320.0</ele><time>2026-04-12T05:33:37.305Z</time></trkpt><trkpt lat="43.9442473" lon="12.4637197"><ele>320.0</ele><time>2026-04-12T05:33:40.292Z</time></trkpt><trkpt lat="43.9442598" lon="12.463621"><ele>320.0</ele><time>2026-04-12T05:33:43.306Z</time></trkpt><trkpt lat="43.9442741" lon="12.4635216"><ele>320.0</ele><time>2026-04-12T05:33:46.296Z</time></trkpt><trkpt lat="43.9442913" lon="12.4634015"><ele>320.0</ele><time>2026-04-12T05:33:49.298Z</time></trkpt><trkpt lat="43.9443002" lon="12.463312"><ele>320.0</ele><time>2026-04-12T05:33:51.243Z</time></trkpt><trkpt lat="43.9443182" lon="12.4632061"><ele>321.0</ele><time>2026-04-12T05:33:54.311Z</time></trkpt><trkpt lat="43.9443215" lon="12.4631163"><ele>322.0</ele><time>2026-04-12T05:33:57.299Z</time></trkpt><trkpt lat="43.9443274" lon="12.4630283"><ele>323.0</ele><time>2026-04-12T05:34:00.311Z</time></trkpt><trkpt lat="43.9443342" lon="12.4629189"><ele>324.0</ele><time>2026-04-12T05:34:04.298Z</time></trkpt><trkpt lat="43.9443347" lon="12.4628275"><ele>325.0</ele><time>2026-04-12T05:34:07.307Z</time></trkpt><trkpt lat="43.9443267" lon="12.4627274"><ele>326.0</ele><time>2026-04-12T05:34:10.316Z</time></trkpt><trkpt lat="43.9443006" lon="12.4626269"><ele>327.0</ele><time>2026-04-12T05:34:13.308Z</time></trkpt><trkpt lat="43.9442775" lon="12.4625427"><ele>327.5</ele><time>2026-04-12T05:34:16.318Z</time></trkpt><trkpt lat="43.9442432" lon="12.4624367"><ele>328.0</ele><time>2026-04-12T05:34:20.289Z</time></trkpt><trkpt lat="43.9442099" lon="12.4623291"><ele>328.5</ele><time>2026-04-12T05:34:24.31Z</time></trkpt><trkpt lat="43.9441925" lon="12.4622335"><ele>329.0</ele><time>2026-04-12T05:34:28.309Z</time></trkpt><trkpt lat="43.9441689" lon="12.4621398"><ele>329.5</ele><time>2026-04-12T05:34:32.307Z</time></trkpt><trkpt lat="43.9441475" lon="12.4620482"><ele>330.0</ele><time>2026-04-12T05:34:36.315Z</time></trkpt><trkpt lat="43.9441124" lon="12.4619613"><ele>332.28571428571433</ele><time>2026-04-12T05:34:40.304Z</time></trkpt><trkpt lat="43.944093" lon="12.4618675"><ele>334.57142857142856</ele><time>2026-04-12T05:34:45.296Z</time></trkpt><trkpt lat="43.9440656" lon="12.4617885"><ele>336.8571428571429</ele><time>2026-04-12T05:34:49.31Z</time></trkpt><trkpt lat="43.9440615" lon="12.4617001"><ele>339.14285714285717</ele><time>2026-04-12T05:34:54.3Z</time></trkpt><trkpt lat="43.9440409" lon="12.461604"><ele>341.42857142857144</ele><time>2026-04-12T05:34:58.307Z</time></trkpt><trkpt lat="43.9440255" lon="12.4614952"><ele>343.7142857142857</ele><time>2026-04-12T05:35:02.297Z</time></trkpt><trkpt lat="43.9440244" lon="12.4614029"><ele>346.0</ele><time>2026-04-12T05:35:05.283Z</time></trkpt><trkpt lat="43.9440072" lon="12.4612863"><ele>346.1428571428571</ele><time>2026-04-12T05:35:09.307Z</time></trkpt><trkpt lat="43.943977" lon="12.46119"><ele>346.28571428571433</ele><time>2026-04-12T05:35:12.301Z</time></trkpt><trkpt lat="43.9439472" lon="12.4610947"><ele>346.42857142857144</ele><time>2026-04-12T05:35:15.301Z</time></trkpt><trkpt lat="43.9439167" lon="12.4610105"><ele>346.57142857142856</ele><time>2026-04-12T05:35:19.304Z</time></trkpt><trkpt lat="43.9438877" lon="12.4609162"><ele>346.71428571428567</ele><time>2026-04-12T05:35:23.303Z</time></trkpt><trkpt lat="43.9438652" lon="12.460818"><ele>346.8571428571429</ele><time>2026-04-12T05:35:27.297Z</time></trkpt><trkpt lat="43.9438526" lon="12.4607296"><ele>347.0</ele><time>2026-04-12T05:35:31.305Z</time></trkpt><trkpt lat="43.9438218" lon="12.4606357"><ele>347.0</ele><time>2026-04-12T05:35:35.295Z</time></trkpt><trkpt lat="43.9437902" lon="12.4605563"><ele>347.0</ele><time>2026-04-12T05:35:38.308Z</time></trkpt><trkpt lat="43.9437492" lon="12.4604682"><ele>347.0</ele><time>2026-04-12T05:35:42.276Z</time></trkpt><trkpt lat="43.9437142" lon="12.4603682"><ele>347.0</ele><time>2026-04-12T05:35:46.304Z</time></trkpt><trkpt lat="43.943701" lon="12.4602652"><ele>347.0</ele><time>2026-04-12T05:35:51.289Z</time></trkpt><trkpt lat="43.9436773" lon="12.4601835"><ele>347.0</ele><time>2026-04-12T05:35:56.306Z</time></trkpt><trkpt lat="43.9436262" lon="12.4601304"><ele>347.0</ele><time>2026-04-12T05:36:00.303Z</time></trkpt><trkpt lat="43.9435829" lon="12.4600524"><ele>347.7142857142857</ele><time>2026-04-12T05:36:04.31Z</time></trkpt><trkpt lat="43.943545" lon="12.4599618"><ele>348.4285714285714</ele><time>2026-04-12T05:36:08.318Z</time></trkpt><trkpt lat="43.9435172" lon="12.4598827"><ele>349.1428571428571</ele><time>2026-04-12T05:36:12.273Z</time></trkpt><trkpt lat="43.9434943" lon="12.4597979"><ele>349.8571428571429</ele><time>2026-04-12T05:36:16.284Z</time></trkpt><trkpt lat="43.943455" lon="12.4597204"><ele>350.57142857142856</ele><time>2026-04-12T05:36:20.304Z</time></trkpt><trkpt lat="43.9434082" lon="12.4596442"><ele>351.2857142857143</ele><time>2026-04-12T05:36:25.3Z</time></trkpt><trkpt lat="43.9433616" lon="12.4595727"><ele>352.0</ele><time>2026-04-12T05:36:29.305Z</time></trkpt><trkpt lat="43.9433184" lon="12.4594848"><ele>354.7142857142857</ele><time>2026-04-12T05:36:32.315Z</time></trkpt><trkpt lat="43.9432715" lon="12.4594246"><ele>357.42857142857144</ele><time>2026-04-12T05:36:35.294Z</time></trkpt><trkpt lat="43.9432218" lon="12.459363"><ele>360.1428571428571</ele><time>2026-04-12T05:36:39.317Z</time></trkpt><trkpt lat="43.9431696" lon="12.459308"><ele>362.8571428571429</ele><time>2026-04-12T05:36:43.319Z</time></trkpt><trkpt lat="43.9431205" lon="12.4592516"><ele>365.57142857142856</ele><time>2026-04-12T05:36:47.311Z</time></trkpt><trkpt lat="43.9430625" lon="12.459202"><ele>368.2857142857143</ele><time>2026-04-12T05:36:53.325Z</time></trkpt><trkpt lat="43.9430017" lon="12.4591357"><ele>371.0</ele><time>2026-04-12T05:36:59.285Z</time></trkpt><trkpt lat="43.9429515" lon="12.4590749"><ele>371.0</ele><time>2026-04-12T05:37:04.283Z</time></trkpt><trkpt lat="43.9428978" lon="12.4590152"><ele>371.0</ele><time>2026-04-12T05:37:09.301Z</time></trkpt><trkpt lat="43.9428489" lon="12.4589354"><ele>371.0</ele><time>2026-04-12T05:37:14.301Z</time></trkpt><trkpt lat="43.9428221" lon="12.4588474"><ele>371.0</ele><time>2026-04-12T05:37:19.296Z</time></trkpt><trkpt lat="43.9427986" lon="12.4587543"><ele>371.0</ele><time>2026-04-12T05:37:24.263Z</time></trkpt><trkpt lat="43.9427454" lon="12.4586778"><ele>371.0</ele><time>2026-04-12T05:37:28.294Z</time></trkpt><trkpt lat="43.9426758" lon="12.4586378"><ele>371.0</ele><time>2026-04-12T05:37:31.322Z</time></trkpt><trkpt lat="43.9426099" lon="12.458651"><ele>372.4</ele><time>2026-04-12T05:37:33.296Z</time></trkpt><trkpt lat="43.9425272" lon="12.4586719"><ele>373.8</ele><time>2026-04-12T05:37:35.273Z</time></trkpt><trkpt lat="43.9424358" lon="12.4587118"><ele>375.2</ele><time>2026-04-12T05:37:37.317Z</time></trkpt><trkpt lat="43.9423385" lon="12.4587856"><ele>376.59999999999997</ele><time>2026-04-12T05:37:39.268Z</time></trkpt><trkpt lat="43.9422607" lon="12.4588725"><ele>378.0</ele><time>2026-04-12T05:37:41.309Z</time></trkpt><trkpt lat="43.9421739" lon="12.4589486"><ele>378.0</ele><time>2026-04-12T05:37:43.273Z</time></trkpt><trkpt lat="43.9420884" lon="12.459026"><ele>378.0</ele><time>2026-04-12T05:37:45.303Z</time></trkpt><trkpt lat="43.9420068" lon="12.4591209"><ele>378.0</ele><time>2026-04-12T05:37:47.311Z</time></trkpt><trkpt lat="43.9419154" lon="12.4592061"><ele>378.0</ele><time>2026-04-12T05:37:49.317Z</time></trkpt><trkpt lat="43.9418357" lon="12.4592908"><ele>378.0</ele><time>2026-04-12T05:37:51.301Z</time></trkpt><trkpt lat="43.9417355" lon="12.4593182"><ele>378.5</ele><time>2026-04-12T05:37:53.294Z</time></trkpt><trkpt lat="43.9416442" lon="12.4593578"><ele>379.0</ele><time>2026-04-12T05:37:55.284Z</time></trkpt><trkpt lat="43.9415681" lon="12.4593464"><ele>379.5</ele><time>2026-04-12T05:37:57.307Z</time></trkpt><trkpt lat="43.9414883" lon="12.4593675"><ele>380.0</ele><time>2026-04-12T05:37:59.311Z</time></trkpt><trkpt lat="43.9414188" lon="12.4593919"><ele>380.5</ele><time>2026-04-12T05:38:01.305Z</time></trkpt><trkpt lat="43.9413549" lon="12.4594136"><ele>381.0</ele><time>2026-04-12T05:38:03.284Z</time></trkpt><trkpt lat="43.9412925" lon="12.4594303"><ele>381.0</ele><time>2026-04-12T05:38:05.291Z</time></trkpt><trkpt lat="43.941246" lon="12.4593464"><ele>381.0</ele><time>2026-04-12T05:38:09.277Z</time></trkpt><trkpt lat="43.9412141" lon="12.4592695"><ele>381.0</ele><time>2026-04-12T05:38:12.296Z</time></trkpt><trkpt lat="43.9411679" lon="12.4591916"><ele>381.0</ele><time>2026-04-12T05:38:15.282Z</time></trkpt><trkpt lat="43.9411162" lon="12.4591205"><ele>381.0</ele><time>2026-04-12T05:38:18.291Z</time></trkpt><trkpt lat="43.9410607" lon="12.4590633"><ele>381.0</ele><time>2026-04-12T05:38:21.278Z</time></trkpt><trkpt lat="43.941007" lon="12.4590062"><ele>381.0</ele><time>2026-04-12T05:38:24.291Z</time></trkpt><trkpt lat="43.9409535" lon="12.458953"><ele>381.0</ele><time>2026-04-12T05:38:27.262Z</time></trkpt><trkpt lat="43.9408979" lon="12.458873"><ele>381.0</ele><time>2026-04-12T05:38:31.297Z</time></trkpt><trkpt lat="43.9408438" lon="12.4588108"><ele>381.0</ele><time>2026-04-12T05:38:35.293Z</time></trkpt><trkpt lat="43.9407864" lon="12.4587333"><ele>381.0</ele><time>2026-04-12T05:38:39.329Z</time></trkpt><trkpt lat="43.9407657" lon="12.4586487"><ele>381.0</ele><time>2026-04-12T05:38:42.321Z</time></trkpt><trkpt lat="43.9407949" lon="12.4585498"><ele>381.0</ele><time>2026-04-12T05:38:45.285Z</time></trkpt><trkpt lat="43.9408434" lon="12.4584649"><ele>383.0</ele><time>2026-04-12T05:38:48.296Z</time></trkpt><trkpt lat="43.9408761" lon="12.4583684"><ele>385.0</ele><time>2026-04-12T05:38:51.311Z</time></trkpt><trkpt lat="43.9408211" lon="12.4582973"><ele>387.0</ele><time>2026-04-12T05:38:54.323Z</time></trkpt><trkpt lat="43.9407403" lon="12.4583305"><ele>389.0</ele><time>2026-04-12T05:38:57.301Z</time></trkpt><trkpt lat="43.9406605" lon="12.4583745"><ele>391.0</ele><time>2026-04-12T05:39:00.307Z</time></trkpt><trkpt lat="43.9405999" lon="12.4584271"><ele>393.0</ele><time>2026-04-12T05:39:03.3Z</time></trkpt><trkpt lat="43.9405316" lon="12.4584844"><ele>393.00000000000006</ele><time>2026-04-12T05:39:06.316Z</time></trkpt><trkpt lat="43.9404778" lon="12.4585394"><ele>393.0</ele><time>2026-04-12T05:39:09.312Z</time></trkpt><trkpt lat="43.9404178" lon="12.4585951"><ele>393.0</ele><time>2026-04-12T05:39:12.319Z</time></trkpt><trkpt lat="43.9403479" lon="12.458642"><ele>393.0</ele><time>2026-04-12T05:39:16.277Z</time></trkpt><trkpt lat="43.9402776" lon="12.4586461"><ele>393.0</ele><time>2026-04-12T05:39:19.301Z</time></trkpt><trkpt lat="43.9402111" lon="12.4586265"><ele>393.00000000000006</ele><time>2026-04-12T05:39:23.304Z</time></trkpt><trkpt lat="43.9401399" lon="12.4586099"><ele>393.0</ele><time>2026-04-12T05:39:26.277Z</time></trkpt><trkpt lat="43.9400597" lon="12.4586305"><ele>393.8333333333333</ele><time>2026-04-12T05:39:29.303Z</time></trkpt><trkpt lat="43.9399893" lon="12.4586879"><ele>394.66666666666663</ele><time>2026-04-12T05:39:32.281Z</time></trkpt><trkpt lat="43.9399172" lon="12.458757"><ele>395.5</ele><time>2026-04-12T05:39:35.313Z</time></trkpt><trkpt lat="43.9398563" lon="12.4588357"><ele>396.3333333333333</ele><time>2026-04-12T05:39:38.313Z</time></trkpt><trkpt lat="43.9398083" lon="12.4588966"><ele>397.16666666666663</ele><time>2026-04-12T05:39:41.311Z</time></trkpt><trkpt lat="43.9397586" lon="12.4589556"><ele>398.0</ele><time>2026-04-12T05:39:44.3Z</time></trkpt><trkpt lat="43.9397014" lon="12.4590274"><ele>397.99999999999994</ele><time>2026-04-12T05:39:48.307Z</time></trkpt><trkpt lat="43.9396504" lon="12.4590978"><ele>398.0</ele><time>2026-04-12T05:39:52.338Z</time></trkpt><trkpt lat="43.9395991" lon="12.4591684"><ele>398.0</ele><time>2026-04-12T05:39:56.302Z</time></trkpt><trkpt lat="43.9395505" lon="12.4592279"><ele>398.0</ele><time>2026-04-12T05:39:59.298Z</time></trkpt><trkpt lat="43.9394791" lon="12.459279"><ele>398.0</ele><time>2026-04-12T05:40:04.297Z</time></trkpt><trkpt lat="43.9394164" lon="12.459299"><ele>397.99999999999994</ele><time>2026-04-12T05:40:08.306Z</time></trkpt><trkpt lat="43.9393484" lon="12.4593022"><ele>398.0</ele><time>2026-04-12T05:40:12.311Z</time></trkpt><trkpt lat="43.939275" lon="12.4592542"><ele>397.99999999999994</ele><time>2026-04-12T05:40:16.297Z</time></trkpt><trkpt lat="43.9392181" lon="12.4592039"><ele>398.0</ele><time>2026-04-12T05:40:19.305Z</time></trkpt><trkpt lat="43.9391632" lon="12.45915"><ele>398.0</ele><time>2026-04-12T05:40:22.299Z</time></trkpt><trkpt lat="43.9391104" lon="12.4590892"><ele>398.0</ele><time>2026-04-12T05:40:25.312Z</time></trkpt><trkpt lat="43.9390545" lon="12.4590353"><ele>398.0</ele><time>2026-04-12T05:40:28.307Z</time></trkpt><trkpt lat="43.9390008" lon="12.4589759"><ele>397.99999999999994</ele><time>2026-04-12T05:40:31.301Z</time></trkpt><trkpt lat="43.9389381" lon="12.4589146"><ele>398.0</ele><time>2026-04-12T05:40:34.301Z</time></trkpt><trkpt lat="43.9388753" lon="12.458825"><ele>399.99999999999994</ele><time>2026-04-12T05:40:38.296Z</time></trkpt><trkpt lat="43.9388222" lon="12.4587688"><ele>402.0</ele><time>2026-04-12T05:40:41.27Z</time></trkpt><trkpt lat="43.9387728" lon="12.4587011"><ele>404.0</ele><time>2026-04-12T05:40:44.312Z</time></trkpt><trkpt lat="43.9387159" lon="12.4586347"><ele>406.0</ele><time>2026-04-12T05:40:47.266Z</time></trkpt><trkpt lat="43.9386631" lon="12.4585773"><ele>408.0</ele><time>2026-04-12T05:40:50.256Z</time></trkpt><trkpt lat="43.9386029" lon="12.4585169"><ele>409.99999999999994</ele><time>2026-04-12T05:40:53.27Z</time></trkpt><trkpt lat="43.9385696" lon="12.4584346"><ele>412.0</ele><time>2026-04-12T05:40:56.321Z</time></trkpt><trkpt lat="43.9385512" lon="12.4583415"><ele>411.99999999999994</ele><time>2026-04-12T05:40:59.301Z</time></trkpt><trkpt lat="43.9385851" lon="12.4582591"><ele>412.0</ele><time>2026-04-12T05:41:02.283Z</time></trkpt><trkpt lat="43.9386237" lon="12.4581874"><ele>412.0</ele><time>2026-04-12T05:41:05.266Z</time></trkpt><trkpt lat="43.9386499" lon="12.4581053"><ele>412.0</ele><time>2026-04-12T05:41:08.306Z</time></trkpt><trkpt lat="43.9386412" lon="12.457998"><ele>412.0</ele><time>2026-04-12T05:41:12.236Z</time></trkpt><trkpt lat="43.9386337" lon="12.457898"><ele>411.99999999999994</ele><time>2026-04-12T05:41:16.246Z</time></trkpt><trkpt lat="43.9385968" lon="12.457802"><ele>412.0</ele><time>2026-04-12T05:41:20.297Z</time></trkpt><trkpt lat="43.9385587" lon="12.4577203"><ele>412.99999999999994</ele><time>2026-04-12T05:41:24.297Z</time></trkpt><trkpt lat="43.9385302" lon="12.4576382"><ele>414.0</ele><time>2026-04-12T05:41:27.309Z</time></trkpt><trkpt lat="43.938524" lon="12.4575263"><ele>415.0</ele><time>2026-04-12T05:41:31.293Z</time></trkpt><trkpt lat="43.9385235" lon="12.4574334"><ele>416.0</ele><time>2026-04-12T05:41:35.289Z</time></trkpt><trkpt lat="43.9385338" lon="12.4573463"><ele>417.0</ele><time>2026-04-12T05:41:39.301Z</time></trkpt><trkpt lat="43.9385345" lon="12.4572545"><ele>417.99999999999994</ele><time>2026-04-12T05:41:43.306Z</time></trkpt><trkpt lat="43.938519" lon="12.4571498"><ele>419.0</ele><time>2026-04-12T05:41:48.286Z</time></trkpt><trkpt lat="43.9384858" lon="12.4570645"><ele>419.99999999999994</ele><time>2026-04-12T05:41:52.256Z</time></trkpt><trkpt lat="43.9384438" lon="12.456991"><ele>421.0</ele><time>2026-04-12T05:41:56.305Z</time></trkpt><trkpt lat="43.9384015" lon="12.4569196"><ele>422.0</ele><time>2026-04-12T05:42:01.305Z</time></trkpt><trkpt lat="43.9383642" lon="12.4568431"><ele>423.0</ele><time>2026-04-12T05:42:07.308Z</time></trkpt><trkpt lat="43.9383214" lon="12.4567785"><ele>424.0</ele><time>2026-04-12T05:42:12.276Z</time></trkpt><trkpt lat="43.9382597" lon="12.456732"><ele>424.99999999999994</ele><time>2026-04-12T05:42:17.272Z</time></trkpt><trkpt lat="43.9381921" lon="12.4567084"><ele>426.0</ele><time>2026-04-12T05:42:21.28Z</time></trkpt><trkpt lat="43.9381451" lon="12.4566402"><ele>427.4285714285714</ele><time>2026-04-12T05:42:26.318Z</time></trkpt><trkpt lat="43.9381076" lon="12.4565533"><ele>428.85714285714283</ele><time>2026-04-12T05:42:32.312Z</time></trkpt><trkpt lat="43.9380546" lon="12.4564758"><ele>430.2857142857143</ele><time>2026-04-12T05:42:37.293Z</time></trkpt><trkpt lat="43.9380245" lon="12.456385"><ele>431.71428571428567</ele><time>2026-04-12T05:42:42.302Z</time></trkpt><trkpt lat="43.9380344" lon="12.4562913"><ele>433.14285714285717</ele><time>2026-04-12T05:42:47.301Z</time></trkpt><trkpt lat="43.9380645" lon="12.4561941"><ele>434.57142857142856</ele><time>2026-04-12T05:42:52.295Z</time></trkpt><trkpt lat="43.9380861" lon="12.4561047"><ele>436.0</ele><time>2026-04-12T05:42:56.309Z</time></trkpt><trkpt lat="43.9381124" lon="12.4560094"><ele>435.33333333333337</ele><time>2026-04-12T05:43:00.307Z</time></trkpt><trkpt lat="43.9381587" lon="12.4559228"><ele>434.6666666666667</ele><time>2026-04-12T05:43:04.3Z</time></trkpt><trkpt lat="43.9382149" lon="12.4558495"><ele>434.0</ele><time>2026-04-12T05:43:08.302Z</time></trkpt><trkpt lat="43.938279" lon="12.4557635"><ele>433.33333333333337</ele><time>2026-04-12T05:43:11.294Z</time></trkpt><trkpt lat="43.9383408" lon="12.45568"><ele>432.6666666666667</ele><time>2026-04-12T05:43:14.296Z</time></trkpt><trkpt lat="43.9384117" lon="12.4555899"><ele>432.0</ele><time>2026-04-12T05:43:17.304Z</time></trkpt><trkpt lat="43.9384785" lon="12.45551"><ele>432.7142857142857</ele><time>2026-04-12T05:43:20.298Z</time></trkpt><trkpt lat="43.9385013" lon="12.4554115"><ele>433.42857142857144</ele><time>2026-04-12T05:43:23.306Z</time></trkpt><trkpt lat="43.938441" lon="12.4553859"><ele>434.1428571428571</ele><time>2026-04-12T05:44:22.282Z</time></trkpt><trkpt lat="43.9383875" lon="12.4553308"><ele>434.8571428571429</ele><time>2026-04-12T05:44:27.301Z</time></trkpt><trkpt lat="43.9383413" lon="12.4552708"><ele>435.5714285714286</ele><time>2026-04-12T05:44:31.311Z</time></trkpt><trkpt lat="43.9382756" lon="12.4552407"><ele>436.2857142857143</ele><time>2026-04-12T05:44:36.296Z</time></trkpt><trkpt lat="43.9382051" lon="12.4552117"><ele>437.0</ele><time>2026-04-12T05:44:41.32Z</time></trkpt><trkpt lat="43.9381404" lon="12.4551896"><ele>439.1428571428571</ele><time>2026-04-12T05:44:46.31Z</time></trkpt><trkpt lat="43.9380722" lon="12.4551609"><ele>441.28571428571433</ele><time>2026-04-12T05:44:51.295Z</time></trkpt><trkpt lat="43.9379972" lon="12.4551413"><ele>443.42857142857144</ele><time>2026-04-12T05:44:57.276Z</time></trkpt><trkpt lat="43.9379244" lon="12.4551209"><ele>445.57142857142856</ele><time>2026-04-12T05:45:02.302Z</time></trkpt><trkpt lat="43.9378623" lon="12.4550639"><ele>447.71428571428567</ele><time>2026-04-12T05:45:08.266Z</time></trkpt><trkpt lat="43.9378201" lon="12.4549882"><ele>449.8571428571429</ele><time>2026-04-12T05:45:13.314Z</time></trkpt><trkpt lat="43.9377904" lon="12.4549081"><ele>452.0</ele><time>2026-04-12T05:45:17.302Z</time></trkpt><trkpt lat="43.9377614" lon="12.4548247"><ele>452.0</ele><time>2026-04-12T05:45:21.272Z</time></trkpt><trkpt lat="43.9377333" lon="12.4547406"><ele>452.0</ele><time>2026-04-12T05:45:25.288Z</time></trkpt><trkpt lat="43.9377054" lon="12.454653"><ele>452.0</ele><time>2026-04-12T05:45:29.291Z</time></trkpt><trkpt lat="43.9376735" lon="12.4545508"><ele>452.0</ele><time>2026-04-12T05:45:33.299Z</time></trkpt><trkpt lat="43.9376563" lon="12.454458"><ele>452.0</ele><time>2026-04-12T05:45:36.296Z</time></trkpt><trkpt lat="43.9376372" lon="12.4543608"><ele>452.0</ele><time>2026-04-12T05:45:39.302Z</time></trkpt><trkpt lat="43.9376067" lon="12.4542719"><ele>452.0</ele><time>2026-04-12T05:45:42.288Z</time></trkpt><trkpt lat="43.9375746" lon="12.4541733"><ele>453.99999999999994</ele><time>2026-04-12T05:45:46.309Z</time></trkpt><trkpt lat="43.937556" lon="12.4540549"><ele>456.0</ele><time>2026-04-12T05:45:50.319Z</time></trkpt><trkpt lat="43.9375648" lon="12.4539674"><ele>458.0</ele><time>2026-04-12T05:45:53.311Z</time></trkpt><trkpt lat="43.9375875" lon="12.453857"><ele>460.0</ele><time>2026-04-12T05:45:57.302Z</time></trkpt><trkpt lat="43.9376248" lon="12.4537544"><ele>461.99999999999994</ele><time>2026-04-12T05:46:01.319Z</time></trkpt><trkpt lat="43.9376585" lon="12.4536776"><ele>464.0</ele><time>2026-04-12T05:46:04.304Z</time></trkpt><trkpt lat="43.9377117" lon="12.4535887"><ele>464.57142857142867</ele><time>2026-04-12T05:46:08.258Z</time></trkpt><trkpt lat="43.9377413" lon="12.4535097"><ele>465.14285714285717</ele><time>2026-04-12T05:46:11.274Z</time></trkpt><trkpt lat="43.9377748" lon="12.4534194"><ele>465.7142857142858</ele><time>2026-04-12T05:46:14.313Z</time></trkpt><trkpt lat="43.9378011" lon="12.4533271"><ele>466.28571428571433</ele><time>2026-04-12T05:46:17.306Z</time></trkpt><trkpt lat="43.9378188" lon="12.4532388"><ele>466.8571428571429</ele><time>2026-04-12T05:46:20.317Z</time></trkpt><trkpt lat="43.9378367" lon="12.453139"><ele>467.42857142857144</ele><time>2026-04-12T05:46:23.266Z</time></trkpt><trkpt lat="43.9378484" lon="12.4530172"><ele>468.0</ele><time>2026-04-12T05:46:26.318Z</time></trkpt><trkpt lat="43.9378612" lon="12.4529095"><ele>468.6666666666667</ele><time>2026-04-12T05:46:29.309Z</time></trkpt><trkpt lat="43.9378814" lon="12.4527914"><ele>469.33333333333337</ele><time>2026-04-12T05:46:32.311Z</time></trkpt><trkpt lat="43.9378985" lon="12.4526869"><ele>470.0</ele><time>2026-04-12T05:46:35.316Z</time></trkpt><trkpt lat="43.9379182" lon="12.4525702"><ele>470.6666666666667</ele><time>2026-04-12T05:46:38.289Z</time></trkpt><trkpt lat="43.9379353" lon="12.4524517"><ele>471.33333333333337</ele><time>2026-04-12T05:46:41.24Z</time></trkpt><trkpt lat="43.9379443" lon="12.4523364"><ele>472.0</ele><time>2026-04-12T05:46:44.28Z</time></trkpt><trkpt lat="43.937966" lon="12.4522113"><ele>472.33333333333337</ele><time>2026-04-12T05:46:47.295Z</time></trkpt><trkpt lat="43.9379793" lon="12.4521114"><ele>472.6666666666667</ele><time>2026-04-12T05:46:49.3Z</time></trkpt><trkpt lat="43.937989" lon="12.4520014"><ele>473.0</ele><time>2026-04-12T05:46:51.266Z</time></trkpt><trkpt lat="43.9380002" lon="12.4518884"><ele>473.33333333333337</ele><time>2026-04-12T05:46:53.297Z</time></trkpt><trkpt lat="43.9380221" lon="12.4517731"><ele>473.6666666666667</ele><time>2026-04-12T05:46:55.312Z</time></trkpt><trkpt lat="43.9380292" lon="12.4516606"><ele>474.0</ele><time>2026-04-12T05:46:57.246Z</time></trkpt><trkpt lat="43.9380508" lon="12.4515405"><ele>474.0</ele><time>2026-04-12T05:46:59.305Z</time></trkpt><trkpt lat="43.9380709" lon="12.4514184"><ele>474.0</ele><time>2026-04-12T05:47:01.298Z</time></trkpt><trkpt lat="43.9380848" lon="12.4512849"><ele>474.0</ele><time>2026-04-12T05:47:03.3Z</time></trkpt><trkpt lat="43.938101" lon="12.4511537"><ele>474.0</ele><time>2026-04-12T05:47:05.316Z</time></trkpt><trkpt lat="43.9381236" lon="12.451042"><ele>474.0</ele><time>2026-04-12T05:47:07.302Z</time></trkpt><trkpt lat="43.9381639" lon="12.4509494"><ele>474.0</ele><time>2026-04-12T05:47:09.274Z</time></trkpt><trkpt lat="43.9381996" lon="12.4508541"><ele>474.0</ele><time>2026-04-12T05:47:11.294Z</time></trkpt><trkpt lat="43.938238" lon="12.4507813"><ele>474.0</ele><time>2026-04-12T05:47:13.297Z</time></trkpt><trkpt lat="43.9382772" lon="12.4507106"><ele>474.0</ele><time>2026-04-12T05:47:15.284Z</time></trkpt><trkpt lat="43.9383428" lon="12.4506317"><ele>474.0</ele><time>2026-04-12T05:47:18.309Z</time></trkpt><trkpt lat="43.9384082" lon="12.4505775"><ele>474.0</ele><time>2026-04-12T05:47:21.312Z</time></trkpt><trkpt lat="43.9384778" lon="12.4505175"><ele>474.0</ele><time>2026-04-12T05:47:24.264Z</time></trkpt><trkpt lat="43.9385179" lon="12.4504264"><ele>475.0</ele><time>2026-04-12T05:47:27.282Z</time></trkpt><trkpt lat="43.9384552" lon="12.4503758"><ele>476.0</ele><time>2026-04-12T05:47:31.303Z</time></trkpt><trkpt lat="43.9383659" lon="12.45039"><ele>477.0</ele><time>2026-04-12T05:47:34.293Z</time></trkpt><trkpt lat="43.9382928" lon="12.4504187"><ele>478.0</ele><time>2026-04-12T05:47:37.292Z</time></trkpt><trkpt lat="43.9382071" lon="12.450425"><ele>479.0</ele><time>2026-04-12T05:47:40.298Z</time></trkpt><trkpt lat="43.9381452" lon="12.4504465"><ele>480.0</ele><time>2026-04-12T05:47:42.289Z</time></trkpt><trkpt lat="43.9380828" lon="12.4504632"><ele>480.0</ele><time>2026-04-12T05:47:44.303Z</time></trkpt><trkpt lat="43.9380138" lon="12.4504833"><ele>480.0</ele><time>2026-04-12T05:47:46.293Z</time></trkpt><trkpt lat="43.9379451" lon="12.4504801"><ele>480.0</ele><time>2026-04-12T05:47:48.285Z</time></trkpt><trkpt lat="43.9378582" lon="12.4504817"><ele>480.0</ele><time>2026-04-12T05:47:51.28Z</time></trkpt><trkpt lat="43.9377771" lon="12.4505184"><ele>480.0</ele><time>2026-04-12T05:47:54.291Z</time></trkpt><trkpt lat="43.937719" lon="12.4505635"><ele>480.0</ele><time>2026-04-12T05:47:56.304Z</time></trkpt><trkpt lat="43.9376616" lon="12.4506323"><ele>480.0</ele><time>2026-04-12T05:47:59.292Z</time></trkpt><trkpt lat="43.9375986" lon="12.4506838"><ele>480.0</ele><time>2026-04-12T05:48:03.3Z</time></trkpt><trkpt lat="43.9375241" lon="12.450679"><ele>480.0</ele><time>2026-04-12T05:48:07.292Z</time></trkpt><trkpt lat="43.93746" lon="12.4506192"><ele>480.0</ele><time>2026-04-12T05:48:12.294Z</time></trkpt><trkpt lat="43.9374188" lon="12.4505241"><ele>480.0</ele><time>2026-04-12T05:48:16.294Z</time></trkpt><trkpt lat="43.9374123" lon="12.4504127"><ele>480.0</ele><time>2026-04-12T05:48:20.302Z</time></trkpt><trkpt lat="43.9374463" lon="12.4503229"><ele>481.57142857142856</ele><time>2026-04-12T05:48:23.299Z</time></trkpt><trkpt lat="43.9375022" lon="12.4502238"><ele>483.1428571428571</ele><time>2026-04-12T05:48:26.288Z</time></trkpt><trkpt lat="43.9375521" lon="12.4501561"><ele>484.71428571428567</ele><time>2026-04-12T05:48:28.282Z</time></trkpt><trkpt lat="43.9375972" lon="12.4500844"><ele>486.2857142857143</ele><time>2026-04-12T05:48:30.294Z</time></trkpt><trkpt lat="43.9376329" lon="12.4500025"><ele>487.8571428571428</ele><time>2026-04-12T05:48:32.296Z</time></trkpt><trkpt lat="43.9376433" lon="12.4498979"><ele>489.4285714285714</ele><time>2026-04-12T05:48:34.298Z</time></trkpt><trkpt lat="43.937598" lon="12.4498293"><ele>491.0</ele><time>2026-04-12T05:48:38.286Z</time></trkpt><trkpt lat="43.9375337" lon="12.4498352"><ele>492.4285714285714</ele><time>2026-04-12T05:48:42.286Z</time></trkpt><trkpt lat="43.9374656" lon="12.4498119"><ele>493.8571428571428</ele><time>2026-04-12T05:48:47.245Z</time></trkpt><trkpt lat="43.9374596" lon="12.4497145"><ele>495.2857142857143</ele><time>2026-04-12T05:48:52.262Z</time></trkpt><trkpt lat="43.9375077" lon="12.4496355"><ele>496.71428571428567</ele><time>2026-04-12T05:48:56.263Z</time></trkpt><trkpt lat="43.9375541" lon="12.4495664"><ele>498.1428571428571</ele><time>2026-04-12T05:49:00.267Z</time></trkpt><trkpt lat="43.93763" lon="12.4495476"><ele>499.57142857142856</ele><time>2026-04-12T05:49:05.28Z</time></trkpt><trkpt lat="43.9377063" lon="12.4495133"><ele>501.0</ele><time>2026-04-12T05:49:09.291Z</time></trkpt><trkpt lat="43.9377676" lon="12.4494818"><ele>502.14285714285717</ele><time>2026-04-12T05:49:12.266Z</time></trkpt><trkpt lat="43.9378253" lon="12.4494337"><ele>503.2857142857142</ele><time>2026-04-12T05:49:15.295Z</time></trkpt><trkpt lat="43.9378911" lon="12.4493892"><ele>504.4285714285714</ele><time>2026-04-12T05:49:18.223Z</time></trkpt><trkpt lat="43.9379451" lon="12.4493362"><ele>505.57142857142856</ele><time>2026-04-12T05:49:21.276Z</time></trkpt><trkpt lat="43.9380082" lon="12.4493259"><ele>506.71428571428567</ele><time>2026-04-12T05:49:24.303Z</time></trkpt><trkpt lat="43.9380728" lon="12.4492988"><ele>507.8571428571428</ele><time>2026-04-12T05:49:28.275Z</time></trkpt><trkpt lat="43.9381181" lon="12.4492334"><ele>508.99999999999994</ele><time>2026-04-12T05:49:32.301Z</time></trkpt><trkpt lat="43.9381853" lon="12.4492011"><ele>508.99999999999994</ele><time>2026-04-12T05:49:36.287Z</time></trkpt><trkpt lat="43.9382371" lon="12.4491293"><ele>509.0</ele><time>2026-04-12T05:49:41.272Z</time></trkpt><trkpt lat="43.9383022" lon="12.4490923"><ele>508.99999999999994</ele><time>2026-04-12T05:49:47.284Z</time></trkpt><trkpt lat="43.9383073" lon="12.4490048"><ele>508.99999999999994</ele><time>2026-04-12T05:49:52.292Z</time></trkpt><trkpt lat="43.9383345" lon="12.4489113"><ele>509.0</ele><time>2026-04-12T05:49:57.315Z</time></trkpt><trkpt lat="43.9383986" lon="12.4488961"><ele>508.99999999999994</ele><time>2026-04-12T05:50:02.285Z</time></trkpt><trkpt lat="43.9384725" lon="12.4488857"><ele>508.99999999999994</ele><time>2026-04-12T05:50:07.284Z</time></trkpt><trkpt lat="43.9385374" lon="12.4488538"><ele>507.99999999999994</ele><time>2026-04-12T05:50:11.302Z</time></trkpt><trkpt lat="43.9386133" lon="12.448814"><ele>507.0</ele><time>2026-04-12T05:50:15.251Z</time></trkpt><trkpt lat="43.9386916" lon="12.448795"><ele>506.0</ele><time>2026-04-12T05:50:21.304Z</time></trkpt><trkpt lat="43.9387564" lon="12.4487499"><ele>505.0</ele><time>2026-04-12T05:50:25.308Z</time></trkpt><trkpt lat="43.9388495" lon="12.4487295"><ele>503.99999999999994</ele><time>2026-04-12T05:50:29.29Z</time></trkpt><trkpt lat="43.9389161" lon="12.4487183"><ele>503.0</ele><time>2026-04-12T05:50:31.299Z</time></trkpt><trkpt lat="43.9389947" lon="12.4487091"><ele>504.4</ele><time>2026-04-12T05:50:33.307Z</time></trkpt><trkpt lat="43.9390836" lon="12.4487044"><ele>505.79999999999995</ele><time>2026-04-12T05:50:35.314Z</time></trkpt><trkpt lat="43.9391742" lon="12.448683"><ele>507.2</ele><time>2026-04-12T05:50:37.307Z</time></trkpt><trkpt lat="43.9392307" lon="12.4486438"><ele>508.6</ele><time>2026-04-12T05:50:38.308Z</time></trkpt><trkpt lat="43.9392937" lon="12.4485173"><ele>510.0</ele><time>2026-04-12T05:50:40.263Z</time></trkpt><trkpt lat="43.9392994" lon="12.4483774"><ele>510.0</ele><time>2026-04-12T05:50:42.288Z</time></trkpt><trkpt lat="43.9392754" lon="12.4482587"><ele>510.0</ele><time>2026-04-12T05:50:44.276Z</time></trkpt><trkpt lat="43.9392789" lon="12.4481632"><ele>510.0</ele><time>2026-04-12T05:50:46.284Z</time></trkpt><trkpt lat="43.9393038" lon="12.4480755"><ele>510.0</ele><time>2026-04-12T05:50:48.295Z</time></trkpt><trkpt lat="43.9393352" lon="12.4479859"><ele>510.0</ele><time>2026-04-12T05:50:57.308Z</time></trkpt><trkpt lat="43.9394052" lon="12.4479263"><ele>510.0</ele><time>2026-04-12T05:51:01.295Z</time></trkpt><trkpt lat="43.9394525" lon="12.4478455"><ele>510.6666666666667</ele><time>2026-04-12T05:51:03.294Z</time></trkpt><trkpt lat="43.9395082" lon="12.447768"><ele>511.33333333333337</ele><time>2026-04-12T05:51:06.305Z</time></trkpt><trkpt lat="43.9395672" lon="12.4478456"><ele>512.0</ele><time>2026-04-12T05:51:08.28Z</time></trkpt><trkpt lat="43.9396467" lon="12.4479523"><ele>512.6666666666667</ele><time>2026-04-12T05:51:10.28Z</time></trkpt><trkpt lat="43.939718" lon="12.4479542"><ele>513.3333333333334</ele><time>2026-04-12T05:51:12.293Z</time></trkpt><trkpt lat="43.9397785" lon="12.4478913"><ele>514.0</ele><time>2026-04-12T05:51:14.303Z</time></trkpt><trkpt lat="43.9398793" lon="12.447787"><ele>514.0</ele><time>2026-04-12T05:51:16.289Z</time></trkpt><trkpt lat="43.9399169" lon="12.4476808"><ele>514.0</ele><time>2026-04-12T05:51:17.29Z</time></trkpt><trkpt lat="43.939937" lon="12.4475674"><ele>514.0</ele><time>2026-04-12T05:51:18.234Z</time></trkpt><trkpt lat="43.9399688" lon="12.4474588"><ele>514.0</ele><time>2026-04-12T05:51:19.284Z</time></trkpt><trkpt lat="43.939994" lon="12.4473466"><ele>514.0</ele><time>2026-04-12T05:51:20.292Z</time></trkpt><trkpt lat="43.9400285" lon="12.4472351"><ele>514.0</ele><time>2026-04-12T05:51:21.293Z</time></trkpt><trkpt lat="43.9400739" lon="12.4471277"><ele>511.79999999999995</ele><time>2026-04-12T05:51:22.3Z</time></trkpt><trkpt lat="43.9401161" lon="12.4470117"><ele>509.59999999999997</ele><time>2026-04-12T05:51:23.31Z</time></trkpt><trkpt lat="43.9401715" lon="12.4468869"><ele>507.4</ele><time>2026-04-12T05:51:24.283Z</time></trkpt><trkpt lat="43.9402344" lon="12.4467457"><ele>505.2</ele><time>2026-04-12T05:51:25.281Z</time></trkpt><trkpt lat="43.9403062" lon="12.4466163"><ele>503.0</ele><time>2026-04-12T05:51:26.272Z</time></trkpt><trkpt lat="43.9403983" lon="12.4464934"><ele>503.0</ele><time>2026-04-12T05:51:27.306Z</time></trkpt><trkpt lat="43.9404699" lon="12.446366"><ele>502.99999999999994</ele><time>2026-04-12T05:51:28.283Z</time></trkpt><trkpt lat="43.9405136" lon="12.4462273"><ele>502.99999999999994</ele><time>2026-04-12T05:51:29.3Z</time></trkpt><trkpt lat="43.9405374" lon="12.4461133"><ele>503.0</ele><time>2026-04-12T05:51:30.315Z</time></trkpt><trkpt lat="43.9405536" lon="12.4460077"><ele>503.0</ele><time>2026-04-12T05:51:31.299Z</time></trkpt><trkpt lat="43.9405657" lon="12.4459126"><ele>502.8333333333333</ele><time>2026-04-12T05:51:32.287Z</time></trkpt><trkpt lat="43.9405925" lon="12.4458154"><ele>502.66666666666663</ele><time>2026-04-12T05:51:33.321Z</time></trkpt><trkpt lat="43.9406131" lon="12.4457275"><ele>502.5</ele><time>2026-04-12T05:51:34.331Z</time></trkpt><trkpt lat="43.9406378" lon="12.4456284"><ele>502.33333333333337</ele><time>2026-04-12T05:51:35.313Z</time></trkpt><trkpt lat="43.9406631" lon="12.445524"><ele>502.1666666666667</ele><time>2026-04-12T05:51:36.308Z</time></trkpt><trkpt lat="43.9406683" lon="12.4454212"><ele>502.0</ele><time>2026-04-12T05:51:37.287Z</time></trkpt><trkpt lat="43.940665" lon="12.4453112"><ele>501.1666666666667</ele><time>2026-04-12T05:51:38.318Z</time></trkpt><trkpt lat="43.9406586" lon="12.4452145"><ele>500.33333333333337</ele><time>2026-04-12T05:51:39.307Z</time></trkpt><trkpt lat="43.9406498" lon="12.4451175"><ele>499.5</ele><time>2026-04-12T05:51:40.301Z</time></trkpt><trkpt lat="43.9406099" lon="12.4449415"><ele>498.66666666666663</ele><time>2026-04-12T05:51:42.302Z</time></trkpt><trkpt lat="43.9405817" lon="12.4448587"><ele>497.8333333333333</ele><time>2026-04-12T05:51:43.293Z</time></trkpt><trkpt lat="43.9405542" lon="12.4447706"><ele>497.0</ele><time>2026-04-12T05:51:44.3Z</time></trkpt><trkpt lat="43.9405037" lon="12.4446431"><ele>495.99999999999994</ele><time>2026-04-12T05:51:46.285Z</time></trkpt><trkpt lat="43.9404677" lon="12.444513"><ele>495.0</ele><time>2026-04-12T05:51:48.267Z</time></trkpt><trkpt lat="43.9404732" lon="12.4444249"><ele>494.0</ele><time>2026-04-12T05:51:49.286Z</time></trkpt><trkpt lat="43.9404918" lon="12.4443286"><ele>493.0</ele><time>2026-04-12T05:51:50.284Z</time></trkpt><trkpt lat="43.9405089" lon="12.4442304"><ele>491.99999999999994</ele><time>2026-04-12T05:51:51.301Z</time></trkpt><trkpt lat="43.9405113" lon="12.4441407"><ele>491.0</ele><time>2026-04-12T05:51:52.304Z</time></trkpt><trkpt lat="43.9404531" lon="12.4439882"><ele>508.0</ele><time>2026-04-12T05:51:54.28Z</time></trkpt><trkpt lat="43.9399416" lon="12.4417772"><ele>508.00000000000006</ele><time>2026-04-12T05:52:33.272Z</time></trkpt><trkpt lat="43.9399037" lon="12.4416343"><ele>508.0</ele><time>2026-04-12T05:52:36.253Z</time></trkpt><trkpt lat="43.9398612" lon="12.4415539"><ele>508.0</ele><time>2026-04-12T05:52:38.283Z</time></trkpt><trkpt lat="43.9398236" lon="12.4414655"><ele>508.0</ele><time>2026-04-12T05:52:40.271Z</time></trkpt><trkpt lat="43.9397758" lon="12.4413807"><ele>508.00000000000006</ele><time>2026-04-12T05:52:42.28Z</time></trkpt><trkpt lat="43.93973" lon="12.4413076"><ele>508.0</ele><time>2026-04-12T05:52:44.255Z</time></trkpt><trkpt lat="43.9396805" lon="12.4411997"><ele>512.0</ele><time>2026-04-12T05:52:47.293Z</time></trkpt><trkpt lat="43.9396212" lon="12.4411081"><ele>516.0</ele><time>2026-04-12T05:52:50.274Z</time></trkpt><trkpt lat="43.9385799" lon="12.4416341"><ele>533.0</ele><time>2026-04-12T05:53:37.271Z</time></trkpt><trkpt lat="43.9379665" lon="12.4396908"><ele>533.0</ele><time>2026-04-12T05:53:40.291Z</time></trkpt><trkpt lat="43.9379423" lon="12.4397815"><ele>533.0</ele><time>2026-04-12T05:53:41.268Z</time></trkpt><trkpt lat="43.9378705" lon="12.4397343"><ele>533.0</ele><time>2026-04-12T05:53:43.287Z</time></trkpt><trkpt lat="43.9377972" lon="12.4397709"><ele>533.0</ele><time>2026-04-12T05:53:46.288Z</time></trkpt><trkpt lat="43.9377163" lon="12.4397887"><ele>533.0</ele><time>2026-04-12T05:53:48.273Z</time></trkpt><trkpt lat="43.937614" lon="12.4397981"><ele>533.0</ele><time>2026-04-12T05:53:50.286Z</time></trkpt><trkpt lat="43.9375156" lon="12.4398152"><ele>531.8333333333333</ele><time>2026-04-12T05:53:52.266Z</time></trkpt><trkpt lat="43.9374355" lon="12.4397683"><ele>530.6666666666666</ele><time>2026-04-12T05:53:54.25Z</time></trkpt><trkpt lat="43.9373634" lon="12.4397392"><ele>529.5</ele><time>2026-04-12T05:53:56.289Z</time></trkpt><trkpt lat="43.9372966" lon="12.4398061"><ele>528.3333333333334</ele><time>2026-04-12T05:53:58.297Z</time></trkpt><trkpt lat="43.9372353" lon="12.4398787"><ele>527.1666666666667</ele><time>2026-04-12T05:54:00.292Z</time></trkpt><trkpt lat="43.9371573" lon="12.4399509"><ele>526.0</ele><time>2026-04-12T05:54:02.289Z</time></trkpt><trkpt lat="43.9370948" lon="12.4400038"><ele>526.0</ele><time>2026-04-12T05:54:04.279Z</time></trkpt><trkpt lat="43.9370392" lon="12.4400488"><ele>526.0</ele><time>2026-04-12T05:54:06.29Z</time></trkpt><trkpt lat="43.9369675" lon="12.4401149"><ele>526.0</ele><time>2026-04-12T05:54:09.307Z</time></trkpt><trkpt lat="43.9369172" lon="12.4401763"><ele>526.0</ele><time>2026-04-12T05:54:12.287Z</time></trkpt><trkpt lat="43.936857" lon="12.4402439"><ele>526.0</ele><time>2026-04-12T05:54:15.295Z</time></trkpt><trkpt lat="43.9367897" lon="12.4403256"><ele>526.0</ele><time>2026-04-12T05:54:18.293Z</time></trkpt><trkpt lat="43.9367318" lon="12.4403943"><ele>526.4</ele><time>2026-04-12T05:54:21.313Z</time></trkpt><trkpt lat="43.9366692" lon="12.4404752"><ele>526.8</ele><time>2026-04-12T05:54:24.279Z</time></trkpt><trkpt lat="43.9366261" lon="12.4405804"><ele>527.1999999999999</ele><time>2026-04-12T05:54:27.267Z</time></trkpt><trkpt lat="43.9365573" lon="12.4406715"><ele>527.6</ele><time>2026-04-12T05:54:30.289Z</time></trkpt><trkpt lat="43.9364747" lon="12.4407136"><ele>528.0</ele><time>2026-04-12T05:54:32.292Z</time></trkpt><trkpt lat="43.9363581" lon="12.4407439"><ele>528.0</ele><time>2026-04-12T05:54:34.297Z</time></trkpt><trkpt lat="43.9362823" lon="12.4407519"><ele>528.0</ele><time>2026-04-12T05:54:35.296Z</time></trkpt><trkpt lat="43.9362062" lon="12.4407605"><ele>528.0</ele><time>2026-04-12T05:54:36.295Z</time></trkpt><trkpt lat="43.9361366" lon="12.4407785"><ele>528.0</ele><time>2026-04-12T05:54:37.282Z</time></trkpt><trkpt lat="43.9360641" lon="12.4407927"><ele>528.0</ele><time>2026-04-12T05:54:38.326Z</time></trkpt><trkpt lat="43.9359901" lon="12.4408163"><ele>528.0</ele><time>2026-04-12T05:54:39.29Z</time></trkpt><trkpt lat="43.9359197" lon="12.4408486"><ele>528.0</ele><time>2026-04-12T05:54:40.249Z</time></trkpt><trkpt lat="43.9358137" lon="12.4409017"><ele>526.0</ele><time>2026-04-12T05:54:42.274Z</time></trkpt><trkpt lat="43.9357418" lon="12.4408118"><ele>524.0</ele><time>2026-04-12T05:54:45.285Z</time></trkpt><trkpt lat="43.935666" lon="12.4407235"><ele>522.0</ele><time>2026-04-12T05:54:47.29Z</time></trkpt><trkpt lat="43.935563" lon="12.4406255"><ele>520.0</ele><time>2026-04-12T05:54:49.302Z</time></trkpt><trkpt lat="43.9355049" lon="12.4405733"><ele>518.0</ele><time>2026-04-12T05:54:50.323Z</time></trkpt><trkpt lat="43.9353985" lon="12.4404893"><ele>516.8333333333333</ele><time>2026-04-12T05:54:52.268Z</time></trkpt><trkpt lat="43.9353385" lon="12.440457"><ele>515.6666666666666</ele><time>2026-04-12T05:54:53.303Z</time></trkpt><trkpt lat="43.9352213" lon="12.4404028"><ele>514.5</ele><time>2026-04-12T05:54:55.289Z</time></trkpt><trkpt lat="43.9351612" lon="12.4403645"><ele>513.3333333333334</ele><time>2026-04-12T05:54:56.281Z</time></trkpt><trkpt lat="43.9351008" lon="12.4403225"><ele>512.1666666666667</ele><time>2026-04-12T05:54:57.273Z</time></trkpt><trkpt lat="43.9350471" lon="12.4402707"><ele>511.0</ele><time>2026-04-12T05:54:58.302Z</time></trkpt><trkpt lat="43.9349893" lon="12.4402095"><ele>510.1666666666667</ele><time>2026-04-12T05:54:59.296Z</time></trkpt><trkpt lat="43.9348909" lon="12.4401306"><ele>509.33333333333337</ele><time>2026-04-12T05:55:01.299Z</time></trkpt><trkpt lat="43.9348271" lon="12.4400778"><ele>508.5</ele><time>2026-04-12T05:55:06.284Z</time></trkpt><trkpt lat="43.9347538" lon="12.4400676"><ele>507.66666666666663</ele><time>2026-04-12T05:55:09.294Z</time></trkpt><trkpt lat="43.9346581" lon="12.4400203"><ele>506.8333333333333</ele><time>2026-04-12T05:55:12.295Z</time></trkpt><trkpt lat="43.9345996" lon="12.4399865"><ele>506.0</ele><time>2026-04-12T05:55:13.27Z</time></trkpt><trkpt lat="43.9345306" lon="12.4399442"><ele>506.0</ele><time>2026-04-12T05:55:14.252Z</time></trkpt><trkpt lat="43.934456" lon="12.4398958"><ele>506.0</ele><time>2026-04-12T05:55:15.286Z</time></trkpt><trkpt lat="43.9343791" lon="12.4398484"><ele>506.0</ele><time>2026-04-12T05:55:16.284Z</time></trkpt><trkpt lat="43.9342957" lon="12.4397969"><ele>506.0</ele><time>2026-04-12T05:55:17.289Z</time></trkpt><trkpt lat="43.9342075" lon="12.4397386"><ele>506.0</ele><time>2026-04-12T05:55:18.263Z</time></trkpt><trkpt lat="43.9341104" lon="12.4396879"><ele>506.49999999999994</ele><time>2026-04-12T05:55:19.285Z</time></trkpt><trkpt lat="43.9340128" lon="12.439649"><ele>507.0</ele><time>2026-04-12T05:55:20.296Z</time></trkpt><trkpt lat="43.9339176" lon="12.4396058"><ele>507.5</ele><time>2026-04-12T05:55:21.309Z</time></trkpt><trkpt lat="43.9338375" lon="12.4395618"><ele>508.0</ele><time>2026-04-12T05:55:22.282Z</time></trkpt><trkpt lat="43.9337596" lon="12.439527"><ele>508.49999999999994</ele><time>2026-04-12T05:55:23.289Z</time></trkpt><trkpt lat="43.9336813" lon="12.4395101"><ele>509.0</ele><time>2026-04-12T05:55:24.289Z</time></trkpt><trkpt lat="43.9336045" lon="12.4395044"><ele>504.66666666666663</ele><time>2026-04-12T05:55:25.292Z</time></trkpt><trkpt lat="43.9335367" lon="12.4394895"><ele>500.3333333333333</ele><time>2026-04-12T05:55:26.287Z</time></trkpt><trkpt lat="43.9334734" lon="12.439396"><ele>496.0</ele><time>2026-04-12T05:55:29.288Z</time></trkpt><trkpt lat="43.933512" lon="12.4392599"><ele>491.66666666666663</ele><time>2026-04-12T05:55:31.286Z</time></trkpt><trkpt lat="43.9335414" lon="12.4391725"><ele>487.3333333333333</ele><time>2026-04-12T05:55:32.307Z</time></trkpt><trkpt lat="43.9335757" lon="12.4390633"><ele>483.0</ele><time>2026-04-12T05:55:33.287Z</time></trkpt><trkpt lat="43.9335939" lon="12.4389437"><ele>483.0</ele><time>2026-04-12T05:55:34.27Z</time></trkpt><trkpt lat="43.9336094" lon="12.438811"><ele>482.99999999999994</ele><time>2026-04-12T05:55:35.29Z</time></trkpt><trkpt lat="43.9336319" lon="12.4386777"><ele>482.99999999999994</ele><time>2026-04-12T05:55:36.287Z</time></trkpt><trkpt lat="43.9336543" lon="12.4385424"><ele>483.0</ele><time>2026-04-12T05:55:37.289Z</time></trkpt><trkpt lat="43.9336736" lon="12.4384066"><ele>483.0</ele><time>2026-04-12T05:55:38.295Z</time></trkpt><trkpt lat="43.9336954" lon="12.4382721"><ele>481.1666666666667</ele><time>2026-04-12T05:55:39.304Z</time></trkpt><trkpt lat="43.9337176" lon="12.438138"><ele>479.33333333333337</ele><time>2026-04-12T05:55:40.309Z</time></trkpt><trkpt lat="43.933744" lon="12.4380247"><ele>477.5</ele><time>2026-04-12T05:55:41.279Z</time></trkpt><trkpt lat="43.9337836" lon="12.4379364"><ele>475.6666666666667</ele><time>2026-04-12T05:55:42.267Z</time></trkpt><trkpt lat="43.933837" lon="12.4378654"><ele>473.83333333333337</ele><time>2026-04-12T05:55:43.297Z</time></trkpt><trkpt lat="43.9338917" lon="12.4378086"><ele>472.0</ele><time>2026-04-12T05:55:44.299Z</time></trkpt><trkpt lat="43.9339906" lon="12.437712"><ele>470.83333333333337</ele><time>2026-04-12T05:55:46.298Z</time></trkpt><trkpt lat="43.9340541" lon="12.4376491"><ele>469.6666666666667</ele><time>2026-04-12T05:55:48.237Z</time></trkpt><trkpt lat="43.9341222" lon="12.4375835"><ele>468.5</ele><time>2026-04-12T05:55:50.304Z</time></trkpt><trkpt lat="43.9341865" lon="12.4375144"><ele>467.33333333333337</ele><time>2026-04-12T05:55:52.281Z</time></trkpt><trkpt lat="43.9342622" lon="12.4374182"><ele>466.1666666666667</ele><time>2026-04-12T05:55:54.271Z</time></trkpt><trkpt lat="43.934335" lon="12.4373139"><ele>465.0</ele><time>2026-04-12T05:55:56.295Z</time></trkpt><trkpt lat="43.9343907" lon="12.4371778"><ele>465.8</ele><time>2026-04-12T05:55:58.269Z</time></trkpt><trkpt lat="43.934413" lon="12.4370882"><ele>466.6</ele><time>2026-04-12T05:55:59.275Z</time></trkpt><trkpt lat="43.9344465" lon="12.4369299"><ele>467.4</ele><time>2026-04-12T05:56:01.285Z</time></trkpt><trkpt lat="43.9344452" lon="12.4367782"><ele>468.2</ele><time>2026-04-12T05:56:03.29Z</time></trkpt><trkpt lat="43.9344242" lon="12.4366582"><ele>469.0</ele><time>2026-04-12T05:56:05.307Z</time></trkpt><trkpt lat="43.934422" lon="12.4365565"><ele>469.0</ele><time>2026-04-12T05:56:07.297Z</time></trkpt><trkpt lat="43.9344519" lon="12.4364782"><ele>469.0</ele><time>2026-04-12T05:56:13.288Z</time></trkpt><trkpt lat="43.9345064" lon="12.43638"><ele>469.0</ele><time>2026-04-12T05:56:15.297Z</time></trkpt><trkpt lat="43.9345533" lon="12.4362458"><ele>469.0</ele><time>2026-04-12T05:56:17.266Z</time></trkpt><trkpt lat="43.9346342" lon="12.4361209"><ele>469.0</ele><time>2026-04-12T05:56:19.299Z</time></trkpt><trkpt lat="43.9347482" lon="12.4360238"><ele>466.50000000000006</ele><time>2026-04-12T05:56:21.28Z</time></trkpt><trkpt lat="43.9348225" lon="12.4359843"><ele>464.0</ele><time>2026-04-12T05:56:22.267Z</time></trkpt><trkpt lat="43.9348908" lon="12.4359478"><ele>461.5</ele><time>2026-04-12T05:56:23.286Z</time></trkpt><trkpt lat="43.9349702" lon="12.4359107"><ele>459.0</ele><time>2026-04-12T05:56:24.293Z</time></trkpt><trkpt lat="43.9350515" lon="12.4358717"><ele>456.50000000000006</ele><time>2026-04-12T05:56:25.295Z</time></trkpt><trkpt lat="43.9351379" lon="12.4358391"><ele>454.0</ele><time>2026-04-12T05:56:26.312Z</time></trkpt><trkpt lat="43.9352278" lon="12.4358176"><ele>454.0</ele><time>2026-04-12T05:56:27.291Z</time></trkpt><trkpt lat="43.9353143" lon="12.4357811"><ele>454.0</ele><time>2026-04-12T05:56:28.316Z</time></trkpt><trkpt lat="43.9354025" lon="12.4357461"><ele>454.0</ele><time>2026-04-12T05:56:29.26Z</time></trkpt><trkpt lat="43.9355032" lon="12.4357128"><ele>454.0</ele><time>2026-04-12T05:56:30.272Z</time></trkpt><trkpt lat="43.9355996" lon="12.4356766"><ele>454.0</ele><time>2026-04-12T05:56:31.303Z</time></trkpt><trkpt lat="43.9356988" lon="12.4356301"><ele>454.0</ele><time>2026-04-12T05:56:32.287Z</time></trkpt><trkpt lat="43.9358066" lon="12.4355983"><ele>454.0</ele><time>2026-04-12T05:56:33.31Z</time></trkpt><trkpt lat="43.935911" lon="12.4355694"><ele>454.0</ele><time>2026-04-12T05:56:34.289Z</time></trkpt><trkpt lat="43.9360207" lon="12.4355399"><ele>454.0</ele><time>2026-04-12T05:56:35.289Z</time></trkpt><trkpt lat="43.9361289" lon="12.4355117"><ele>454.0</ele><time>2026-04-12T05:56:36.288Z</time></trkpt><trkpt lat="43.9362357" lon="12.435481"><ele>450.75</ele><time>2026-04-12T05:56:37.29Z</time></trkpt><trkpt lat="43.9363438" lon="12.4354434"><ele>447.5</ele><time>2026-04-12T05:56:38.293Z</time></trkpt><trkpt lat="43.9364534" lon="12.4354128"><ele>444.25</ele><time>2026-04-12T05:56:39.289Z</time></trkpt><trkpt lat="43.9365693" lon="12.4353865"><ele>441.0</ele><time>2026-04-12T05:56:40.29Z</time></trkpt><trkpt lat="43.9366777" lon="12.4353555"><ele>438.4</ele><time>2026-04-12T05:56:41.297Z</time></trkpt><trkpt lat="43.9367833" lon="12.4353243"><ele>435.8</ele><time>2026-04-12T05:56:42.292Z</time></trkpt><trkpt lat="43.9368827" lon="12.4352879"><ele>433.19999999999993</ele><time>2026-04-12T05:56:43.293Z</time></trkpt><trkpt lat="43.9369572" lon="12.4352069"><ele>430.59999999999997</ele><time>2026-04-12T05:56:44.281Z</time></trkpt><trkpt lat="43.9369889" lon="12.435074"><ele>428.0</ele><time>2026-04-12T05:56:45.267Z</time></trkpt><trkpt lat="43.9369672" lon="12.4349569"><ele>427.99999999999994</ele><time>2026-04-12T05:56:46.309Z</time></trkpt><trkpt lat="43.9369264" lon="12.4348586"><ele>428.0</ele><time>2026-04-12T05:56:47.307Z</time></trkpt><trkpt lat="43.9368521" lon="12.4347915"><ele>428.0</ele><time>2026-04-12T05:56:48.295Z</time></trkpt><trkpt lat="43.9367633" lon="12.4347528"><ele>428.0</ele><time>2026-04-12T05:56:49.289Z</time></trkpt><trkpt lat="43.9367052" lon="12.4347015"><ele>427.99999999999994</ele><time>2026-04-12T05:56:50.286Z</time></trkpt><trkpt lat="43.9366784" lon="12.4345953"><ele>428.0</ele><time>2026-04-12T05:56:51.318Z</time></trkpt><trkpt lat="43.9366974" lon="12.4344677"><ele>426.8333333333333</ele><time>2026-04-12T05:56:52.311Z</time></trkpt><trkpt lat="43.9367543" lon="12.4343878"><ele>425.66666666666663</ele><time>2026-04-12T05:56:53.297Z</time></trkpt><trkpt lat="43.9368217" lon="12.4343169"><ele>424.5</ele><time>2026-04-12T05:56:54.31Z</time></trkpt><trkpt lat="43.9368951" lon="12.434241"><ele>423.33333333333337</ele><time>2026-04-12T05:56:55.26Z</time></trkpt><trkpt lat="43.9369649" lon="12.4341521"><ele>422.1666666666667</ele><time>2026-04-12T05:56:56.284Z</time></trkpt><trkpt lat="43.9370311" lon="12.4340628"><ele>421.0</ele><time>2026-04-12T05:56:57.3Z</time></trkpt><trkpt lat="43.9370932" lon="12.4339681"><ele>421.0</ele><time>2026-04-12T05:56:58.266Z</time></trkpt><trkpt lat="43.9371588" lon="12.4338722"><ele>421.0</ele><time>2026-04-12T05:56:59.269Z</time></trkpt><trkpt lat="43.9372288" lon="12.4337777"><ele>421.0</ele><time>2026-04-12T05:57:00.301Z</time></trkpt><trkpt lat="43.9373056" lon="12.4336759"><ele>421.0</ele><time>2026-04-12T05:57:01.306Z</time></trkpt><trkpt lat="43.9373712" lon="12.4335718"><ele>421.0</ele><time>2026-04-12T05:57:02.3Z</time></trkpt><trkpt lat="43.9374331" lon="12.4334624"><ele>422.0</ele><time>2026-04-12T05:57:03.272Z</time></trkpt><trkpt lat="43.937467" lon="12.433318"><ele>423.0</ele><time>2026-04-12T05:57:04.266Z</time></trkpt><trkpt lat="43.937453" lon="12.4331736"><ele>424.0</ele><time>2026-04-12T05:57:05.288Z</time></trkpt><trkpt lat="43.9374236" lon="12.4330427"><ele>425.0</ele><time>2026-04-12T05:57:06.291Z</time></trkpt><trkpt lat="43.9373559" lon="12.4329319"><ele>426.0</ele><time>2026-04-12T05:57:07.299Z</time></trkpt><trkpt lat="43.9372776" lon="12.4328165"><ele>426.0</ele><time>2026-04-12T05:57:08.276Z</time></trkpt><trkpt lat="43.9372018" lon="12.4327137"><ele>426.0</ele><time>2026-04-12T05:57:09.294Z</time></trkpt><trkpt lat="43.9371284" lon="12.4326063"><ele>426.0</ele><time>2026-04-12T05:57:10.298Z</time></trkpt><trkpt lat="43.9370598" lon="12.4324908"><ele>426.0</ele><time>2026-04-12T05:57:11.304Z</time></trkpt><trkpt lat="43.9369865" lon="12.4323825"><ele>426.0</ele><time>2026-04-12T05:57:12.293Z</time></trkpt><trkpt lat="43.9369091" lon="12.4322593"><ele>426.0</ele><time>2026-04-12T05:57:13.269Z</time></trkpt><trkpt lat="43.9368365" lon="12.4321528"><ele>426.0</ele><time>2026-04-12T05:57:14.326Z</time></trkpt><trkpt lat="43.9367563" lon="12.432045"><ele>426.0</ele><time>2026-04-12T05:57:15.292Z</time></trkpt><trkpt lat="43.9366742" lon="12.4319257"><ele>426.0</ele><time>2026-04-12T05:57:16.303Z</time></trkpt><trkpt lat="43.9365895" lon="12.4318116"><ele>423.75</ele><time>2026-04-12T05:57:17.315Z</time></trkpt><trkpt lat="43.9365058" lon="12.4317077"><ele>421.5</ele><time>2026-04-12T05:57:18.308Z</time></trkpt><trkpt lat="43.9364224" lon="12.4316001"><ele>419.25</ele><time>2026-04-12T05:57:19.304Z</time></trkpt><trkpt lat="43.9363356" lon="12.4314983"><ele>417.0</ele><time>2026-04-12T05:57:20.3Z</time></trkpt><trkpt lat="43.9362354" lon="12.4314113"><ele>417.0</ele><time>2026-04-12T05:57:21.303Z</time></trkpt><trkpt lat="43.9361194" lon="12.4313512"><ele>417.0</ele><time>2026-04-12T05:57:22.324Z</time></trkpt><trkpt lat="43.9360071" lon="12.4313001"><ele>417.0</ele><time>2026-04-12T05:57:23.329Z</time></trkpt><trkpt lat="43.9358902" lon="12.4312488"><ele>417.0</ele><time>2026-04-12T05:57:24.315Z</time></trkpt><trkpt lat="43.9357711" lon="12.4311944"><ele>414.0</ele><time>2026-04-12T05:57:25.305Z</time></trkpt><trkpt lat="43.935663" lon="12.4311243"><ele>411.0</ele><time>2026-04-12T05:57:26.321Z</time></trkpt><trkpt lat="43.9355804" lon="12.4310034"><ele>408.0</ele><time>2026-04-12T05:57:27.293Z</time></trkpt><trkpt lat="43.9355373" lon="12.4308598"><ele>405.0</ele><time>2026-04-12T05:57:28.303Z</time></trkpt><trkpt lat="43.9355149" lon="12.4307128"><ele>405.0</ele><time>2026-04-12T05:57:29.274Z</time></trkpt><trkpt lat="43.935519" lon="12.4305818"><ele>405.0</ele><time>2026-04-12T05:57:30.295Z</time></trkpt><trkpt lat="43.9355719" lon="12.4304573"><ele>405.0</ele><time>2026-04-12T05:57:31.284Z</time></trkpt><trkpt lat="43.9356625" lon="12.4303538"><ele>405.0</ele><time>2026-04-12T05:57:32.268Z</time></trkpt><trkpt lat="43.9357619" lon="12.4302451"><ele>405.0</ele><time>2026-04-12T05:57:33.301Z</time></trkpt><trkpt lat="43.9358557" lon="12.4301327"><ele>405.25</ele><time>2026-04-12T05:57:34.281Z</time></trkpt><trkpt lat="43.9359518" lon="12.4300213"><ele>405.5</ele><time>2026-04-12T05:57:35.268Z</time></trkpt><trkpt lat="43.9360417" lon="12.4299155"><ele>405.75</ele><time>2026-04-12T05:57:36.297Z</time></trkpt><trkpt lat="43.9361273" lon="12.4298101"><ele>406.0</ele><time>2026-04-12T05:57:37.291Z</time></trkpt><trkpt lat="43.9362164" lon="12.4297096"><ele>403.0</ele><time>2026-04-12T05:57:38.282Z</time></trkpt><trkpt lat="43.9362982" lon="12.4296069"><ele>400.0</ele><time>2026-04-12T05:57:39.301Z</time></trkpt><trkpt lat="43.9363561" lon="12.4295087"><ele>397.0</ele><time>2026-04-12T05:57:40.3Z</time></trkpt><trkpt lat="43.9363716" lon="12.4293998"><ele>394.0</ele><time>2026-04-12T05:57:41.306Z</time></trkpt><trkpt lat="43.9363437" lon="12.4292916"><ele>391.0</ele><time>2026-04-12T05:57:42.298Z</time></trkpt><trkpt lat="43.9362823" lon="12.4292077"><ele>391.0</ele><time>2026-04-12T05:57:43.312Z</time></trkpt><trkpt lat="43.9361799" lon="12.4291688"><ele>391.0</ele><time>2026-04-12T05:57:44.306Z</time></trkpt><trkpt lat="43.9360741" lon="12.4291661"><ele>391.0</ele><time>2026-04-12T05:57:45.304Z</time></trkpt><trkpt lat="43.9359684" lon="12.4291606"><ele>391.0</ele><time>2026-04-12T05:57:46.295Z</time></trkpt><trkpt lat="43.935858" lon="12.429149"><ele>391.0</ele><time>2026-04-12T05:57:47.307Z</time></trkpt><trkpt lat="43.9357394" lon="12.4291354"><ele>389.0</ele><time>2026-04-12T05:57:48.295Z</time></trkpt><trkpt lat="43.9356251" lon="12.4291244"><ele>387.0</ele><time>2026-04-12T05:57:49.312Z</time></trkpt><trkpt lat="43.9355029" lon="12.4291081"><ele>385.0</ele><time>2026-04-12T05:57:50.274Z</time></trkpt><trkpt lat="43.9353858" lon="12.4290911"><ele>383.0</ele><time>2026-04-12T05:57:51.303Z</time></trkpt><trkpt lat="43.9352642" lon="12.4290696"><ele>383.0</ele><time>2026-04-12T05:57:52.313Z</time></trkpt><trkpt lat="43.9351376" lon="12.4290596"><ele>383.0</ele><time>2026-04-12T05:57:53.268Z</time></trkpt><trkpt lat="43.9350187" lon="12.4290155"><ele>383.0</ele><time>2026-04-12T05:57:54.288Z</time></trkpt><trkpt lat="43.9349269" lon="12.4289347"><ele>383.0</ele><time>2026-04-12T05:57:55.317Z</time></trkpt><trkpt lat="43.9348559" lon="12.4287996"><ele>378.5</ele><time>2026-04-12T05:57:56.3Z</time></trkpt><trkpt lat="43.9347853" lon="12.428653"><ele>374.0</ele><time>2026-04-12T05:57:57.306Z</time></trkpt><trkpt lat="43.9347461" lon="12.4284832"><ele>369.5</ele><time>2026-04-12T05:57:58.278Z</time></trkpt><trkpt lat="43.9347277" lon="12.4283038"><ele>365.0</ele><time>2026-04-12T05:57:59.271Z</time></trkpt><trkpt lat="43.9347062" lon="12.4281324"><ele>362.25</ele><time>2026-04-12T05:58:00.305Z</time></trkpt><trkpt lat="43.9346863" lon="12.4279711"><ele>359.5</ele><time>2026-04-12T05:58:01.301Z</time></trkpt><trkpt lat="43.9346666" lon="12.4277992"><ele>356.75</ele><time>2026-04-12T05:58:02.299Z</time></trkpt><trkpt lat="43.9346535" lon="12.4276384"><ele>354.0</ele><time>2026-04-12T05:58:03.31Z</time></trkpt><trkpt lat="43.934625" lon="12.4274937"><ele>354.0</ele><time>2026-04-12T05:58:04.291Z</time></trkpt><trkpt lat="43.9345586" lon="12.427385"><ele>354.0</ele><time>2026-04-12T05:58:05.298Z</time></trkpt><trkpt lat="43.9344597" lon="12.4273409"><ele>354.0</ele><time>2026-04-12T05:58:06.29Z</time></trkpt><trkpt lat="43.9343514" lon="12.4272888"><ele>354.0</ele><time>2026-04-12T05:58:07.306Z</time></trkpt><trkpt lat="43.9342449" lon="12.4272438"><ele>354.0</ele><time>2026-04-12T05:58:08.287Z</time></trkpt><trkpt lat="43.934138" lon="12.4271977"><ele>352.0</ele><time>2026-04-12T05:58:09.295Z</time></trkpt><trkpt lat="43.9340379" lon="12.4271409"><ele>350.0</ele><time>2026-04-12T05:58:10.3Z</time></trkpt><trkpt lat="43.9339339" lon="12.4271013"><ele>348.0</ele><time>2026-04-12T05:58:11.296Z</time></trkpt><trkpt lat="43.9338365" lon="12.4270697"><ele>346.0</ele><time>2026-04-12T05:58:12.301Z</time></trkpt><trkpt lat="43.9337305" lon="12.4270526"><ele>344.0</ele><time>2026-04-12T05:58:13.273Z</time></trkpt><trkpt lat="43.9336334" lon="12.4270533"><ele>344.0</ele><time>2026-04-12T05:58:14.292Z</time></trkpt><trkpt lat="43.9335299" lon="12.4270637"><ele>344.0</ele><time>2026-04-12T05:58:15.302Z</time></trkpt><trkpt lat="43.9334342" lon="12.4270775"><ele>344.0</ele><time>2026-04-12T05:58:16.299Z</time></trkpt><trkpt lat="43.9333426" lon="12.4270998"><ele>344.0</ele><time>2026-04-12T05:58:17.313Z</time></trkpt><trkpt lat="43.9332575" lon="12.4271132"><ele>344.0</ele><time>2026-04-12T05:58:18.291Z</time></trkpt><trkpt lat="43.9331683" lon="12.4271266"><ele>344.6666666666667</ele><time>2026-04-12T05:58:19.309Z</time></trkpt><trkpt lat="43.9330794" lon="12.4271412"><ele>345.33333333333337</ele><time>2026-04-12T05:58:20.302Z</time></trkpt><trkpt lat="43.9329931" lon="12.4271461"><ele>346.0</ele><time>2026-04-12T05:58:21.316Z</time></trkpt><trkpt lat="43.9329077" lon="12.4271408"><ele>346.6666666666667</ele><time>2026-04-12T05:58:22.306Z</time></trkpt><trkpt lat="43.9328282" lon="12.4271262"><ele>347.3333333333333</ele><time>2026-04-12T05:58:23.296Z</time></trkpt><trkpt lat="43.9327548" lon="12.4271041"><ele>348.0</ele><time>2026-04-12T05:58:24.329Z</time></trkpt><trkpt lat="43.932677" lon="12.4270898"><ele>348.0</ele><time>2026-04-12T05:58:25.304Z</time></trkpt><trkpt lat="43.932601" lon="12.4270728"><ele>348.0</ele><time>2026-04-12T05:58:26.308Z</time></trkpt><trkpt lat="43.9325334" lon="12.4270504"><ele>348.0</ele><time>2026-04-12T05:58:27.31Z</time></trkpt><trkpt lat="43.9324648" lon="12.4270283"><ele>348.0</ele><time>2026-04-12T05:58:28.264Z</time></trkpt><trkpt lat="43.9324015" lon="12.4270015"><ele>348.0</ele><time>2026-04-12T05:58:29.274Z</time></trkpt><trkpt lat="43.9323335" lon="12.4269728"><ele>348.0</ele><time>2026-04-12T05:58:30.321Z</time></trkpt><trkpt lat="43.9322146" lon="12.4269117"><ele>350.75</ele><time>2026-04-12T05:58:32.294Z</time></trkpt><trkpt lat="43.9321053" lon="12.4268563"><ele>353.5</ele><time>2026-04-12T05:58:34.297Z</time></trkpt><trkpt lat="43.9320336" lon="12.4267514"><ele>356.25</ele><time>2026-04-12T05:58:36.305Z</time></trkpt><trkpt lat="43.9319885" lon="12.4265922"><ele>359.0</ele><time>2026-04-12T05:58:38.316Z</time></trkpt><trkpt lat="43.9319524" lon="12.4264405"><ele>358.79999999999995</ele><time>2026-04-12T05:58:40.309Z</time></trkpt><trkpt lat="43.9319201" lon="12.4262769"><ele>358.59999999999997</ele><time>2026-04-12T05:58:42.252Z</time></trkpt><trkpt lat="43.9318993" lon="12.4261938"><ele>358.4</ele><time>2026-04-12T05:58:43.297Z</time></trkpt><trkpt lat="43.9318405" lon="12.4260388"><ele>358.2</ele><time>2026-04-12T05:58:45.294Z</time></trkpt><trkpt lat="43.9317949" lon="12.4259648"><ele>358.0</ele><time>2026-04-12T05:58:46.25Z</time></trkpt><trkpt lat="43.9317116" lon="12.4258484"><ele>358.0</ele><time>2026-04-12T05:58:48.248Z</time></trkpt><trkpt lat="43.9316434" lon="12.4257314"><ele>358.0</ele><time>2026-04-12T05:58:50.304Z</time></trkpt><trkpt lat="43.9315702" lon="12.4256327"><ele>358.0</ele><time>2026-04-12T05:58:52.3Z</time></trkpt><trkpt lat="43.9314991" lon="12.4255586"><ele>358.0</ele><time>2026-04-12T05:58:54.317Z</time></trkpt><trkpt lat="43.9314301" lon="12.4255011"><ele>358.0</ele><time>2026-04-12T05:58:56.3Z</time></trkpt><trkpt lat="43.9313462" lon="12.4254714"><ele>358.0</ele><time>2026-04-12T05:58:58.268Z</time></trkpt><trkpt lat="43.931244" lon="12.4254628"><ele>358.0</ele><time>2026-04-12T05:59:00.264Z</time></trkpt><trkpt lat="43.9311149" lon="12.4254955"><ele>358.0</ele><time>2026-04-12T05:59:02.288Z</time></trkpt><trkpt lat="43.9310434" lon="12.4255127"><ele>358.0</ele><time>2026-04-12T05:59:03.301Z</time></trkpt><trkpt lat="43.9309688" lon="12.4255389"><ele>358.0</ele><time>2026-04-12T05:59:04.275Z</time></trkpt><trkpt lat="43.9308885" lon="12.4255813"><ele>356.79999999999995</ele><time>2026-04-12T05:59:05.297Z</time></trkpt><trkpt lat="43.9308081" lon="12.4256088"><ele>355.6</ele><time>2026-04-12T05:59:06.29Z</time></trkpt><trkpt lat="43.9307225" lon="12.4256314"><ele>354.4</ele><time>2026-04-12T05:59:07.298Z</time></trkpt><trkpt lat="43.930635" lon="12.4256498"><ele>353.20000000000005</ele><time>2026-04-12T05:59:08.311Z</time></trkpt><trkpt lat="43.9305336" lon="12.4256753"><ele>352.0</ele><time>2026-04-12T05:59:09.294Z</time></trkpt><trkpt lat="43.9304208" lon="12.4257101"><ele>352.0</ele><time>2026-04-12T05:59:10.303Z</time></trkpt><trkpt lat="43.9303074" lon="12.4257455"><ele>352.0</ele><time>2026-04-12T05:59:11.287Z</time></trkpt><trkpt lat="43.930189" lon="12.4258017"><ele>352.0</ele><time>2026-04-12T05:59:12.299Z</time></trkpt><trkpt lat="43.9300714" lon="12.4258607"><ele>352.0</ele><time>2026-04-12T05:59:13.301Z</time></trkpt><trkpt lat="43.9299513" lon="12.4259298"><ele>349.75</ele><time>2026-04-12T05:59:14.277Z</time></trkpt><trkpt lat="43.9298266" lon="12.4259998"><ele>347.5</ele><time>2026-04-12T05:59:15.264Z</time></trkpt><trkpt lat="43.9296923" lon="12.4260684"><ele>345.25</ele><time>2026-04-12T05:59:16.258Z</time></trkpt><trkpt lat="43.9295813" lon="12.4261259"><ele>343.0</ele><time>2026-04-12T05:59:17.321Z</time></trkpt><trkpt lat="43.9294996" lon="12.4261835"><ele>343.0</ele><time>2026-04-12T05:59:18.295Z</time></trkpt><trkpt lat="43.9294189" lon="12.4262338"><ele>343.0</ele><time>2026-04-12T05:59:19.302Z</time></trkpt><trkpt lat="43.9293442" lon="12.4262613"><ele>343.0</ele><time>2026-04-12T05:59:20.294Z</time></trkpt><trkpt lat="43.9292608" lon="12.4262694"><ele>343.0</ele><time>2026-04-12T05:59:21.313Z</time></trkpt><trkpt lat="43.9291637" lon="12.4262645"><ele>343.0</ele><time>2026-04-12T05:59:22.301Z</time></trkpt><trkpt lat="43.9290669" lon="12.4262745"><ele>343.0</ele><time>2026-04-12T05:59:23.321Z</time></trkpt><trkpt lat="43.9289864" lon="12.4262781"><ele>340.8333333333333</ele><time>2026-04-12T05:59:24.312Z</time></trkpt><trkpt lat="43.928924" lon="12.4262641"><ele>338.66666666666663</ele><time>2026-04-12T05:59:25.296Z</time></trkpt><trkpt lat="43.9288712" lon="12.4262162"><ele>336.5</ele><time>2026-04-12T05:59:26.302Z</time></trkpt><trkpt lat="43.9288211" lon="12.4261445"><ele>334.3333333333333</ele><time>2026-04-12T05:59:27.296Z</time></trkpt><trkpt lat="43.9287831" lon="12.426052"><ele>332.1666666666667</ele><time>2026-04-12T05:59:28.289Z</time></trkpt><trkpt lat="43.9287336" lon="12.4259445"><ele>330.0</ele><time>2026-04-12T05:59:29.301Z</time></trkpt><trkpt lat="43.9286832" lon="12.4258425"><ele>330.00000000000006</ele><time>2026-04-12T05:59:30.261Z</time></trkpt><trkpt lat="43.9286226" lon="12.425776"><ele>330.0</ele><time>2026-04-12T05:59:31.323Z</time></trkpt><trkpt lat="43.9285603" lon="12.4257436"><ele>330.0</ele><time>2026-04-12T05:59:32.308Z</time></trkpt><trkpt lat="43.9284886" lon="12.4257409"><ele>330.0</ele><time>2026-04-12T05:59:33.303Z</time></trkpt><trkpt lat="43.9284148" lon="12.4257596"><ele>330.0</ele><time>2026-04-12T05:59:34.29Z</time></trkpt><trkpt lat="43.9283539" lon="12.4258114"><ele>330.00000000000006</ele><time>2026-04-12T05:59:35.309Z</time></trkpt><trkpt lat="43.9282936" lon="12.4258731"><ele>330.0</ele><time>2026-04-12T05:59:36.31Z</time></trkpt><trkpt lat="43.9281872" lon="12.4259452"><ele>327.0</ele><time>2026-04-12T05:59:38.302Z</time></trkpt><trkpt lat="43.9280867" lon="12.4259665"><ele>324.0</ele><time>2026-04-12T05:59:40.295Z</time></trkpt><trkpt lat="43.9280217" lon="12.4259463"><ele>321.0</ele><time>2026-04-12T05:59:41.312Z</time></trkpt><trkpt lat="43.9279455" lon="12.4259296"><ele>318.0</ele><time>2026-04-12T05:59:42.303Z</time></trkpt><trkpt lat="43.9278653" lon="12.4259232"><ele>315.0</ele><time>2026-04-12T05:59:43.296Z</time></trkpt><trkpt lat="43.9277799" lon="12.4259104"><ele>312.0</ele><time>2026-04-12T05:59:44.254Z</time></trkpt><trkpt lat="43.927675" lon="12.4258847"><ele>312.0</ele><time>2026-04-12T05:59:45.226Z</time></trkpt><trkpt lat="43.927566" lon="12.4258596"><ele>312.0</ele><time>2026-04-12T05:59:46.294Z</time></trkpt><trkpt lat="43.9274628" lon="12.4258395"><ele>312.0</ele><time>2026-04-12T05:59:47.294Z</time></trkpt><trkpt lat="43.9273681" lon="12.4258335"><ele>312.0</ele><time>2026-04-12T05:59:48.293Z</time></trkpt><trkpt lat="43.9272857" lon="12.425827"><ele>312.0</ele><time>2026-04-12T05:59:49.297Z</time></trkpt><trkpt lat="43.9272153" lon="12.4258253"><ele>308.8</ele><time>2026-04-12T05:59:50.251Z</time></trkpt><trkpt lat="43.9270987" lon="12.4258089"><ele>305.6</ele><time>2026-04-12T05:59:52.286Z</time></trkpt><trkpt lat="43.9270295" lon="12.425784"><ele>302.40000000000003</ele><time>2026-04-12T05:59:53.307Z</time></trkpt><trkpt lat="43.9269569" lon="12.425724"><ele>299.2</ele><time>2026-04-12T05:59:54.298Z</time></trkpt><trkpt lat="43.9268684" lon="12.4256586"><ele>296.0</ele><time>2026-04-12T05:59:55.282Z</time></trkpt><trkpt lat="43.9267812" lon="12.4256022"><ele>293.5</ele><time>2026-04-12T05:59:56.279Z</time></trkpt><trkpt lat="43.9267029" lon="12.4255571"><ele>291.0</ele><time>2026-04-12T05:59:57.281Z</time></trkpt><trkpt lat="43.9266235" lon="12.4255203"><ele>288.5</ele><time>2026-04-12T05:59:58.288Z</time></trkpt><trkpt lat="43.926538" lon="12.4254732"><ele>286.0</ele><time>2026-04-12T06:00:00.3Z</time></trkpt><trkpt lat="43.9266256" lon="12.425402"><ele>283.5</ele><time>2026-04-12T06:00:03.283Z</time></trkpt><trkpt lat="43.9266961" lon="12.4253862"><ele>281.0</ele><time>2026-04-12T06:00:04.287Z</time></trkpt><trkpt lat="43.9267732" lon="12.4253701"><ele>280.2</ele><time>2026-04-12T06:00:05.29Z</time></trkpt><trkpt lat="43.9268569" lon="12.4253126"><ele>279.40000000000003</ele><time>2026-04-12T06:00:06.295Z</time></trkpt><trkpt lat="43.9269377" lon="12.4252154"><ele>278.6</ele><time>2026-04-12T06:00:07.304Z</time></trkpt><trkpt lat="43.9270052" lon="12.4250952"><ele>277.8</ele><time>2026-04-12T06:00:08.304Z</time></trkpt><trkpt lat="43.9270586" lon="12.4249477"><ele>277.0</ele><time>2026-04-12T06:00:09.289Z</time></trkpt><trkpt lat="43.9271047" lon="12.4247848"><ele>273.25</ele><time>2026-04-12T06:00:10.275Z</time></trkpt><trkpt lat="43.9271522" lon="12.4246171"><ele>269.5</ele><time>2026-04-12T06:00:11.293Z</time></trkpt><trkpt lat="43.9271986" lon="12.4244518"><ele>265.75</ele><time>2026-04-12T06:00:12.306Z</time></trkpt><trkpt lat="43.9272503" lon="12.424317"><ele>262.0</ele><time>2026-04-12T06:00:13.297Z</time></trkpt><trkpt lat="43.9273104" lon="12.4242378"><ele>262.0</ele><time>2026-04-12T06:00:14.304Z</time></trkpt><trkpt lat="43.9273919" lon="12.4241918"><ele>262.0</ele><time>2026-04-12T06:00:15.255Z</time></trkpt><trkpt lat="43.9274862" lon="12.4241638"><ele>262.0</ele><time>2026-04-12T06:00:16.31Z</time></trkpt><trkpt lat="43.9275713" lon="12.4241319"><ele>262.0</ele><time>2026-04-12T06:00:17.301Z</time></trkpt><trkpt lat="43.9276535" lon="12.4240756"><ele>262.0</ele><time>2026-04-12T06:00:18.299Z</time></trkpt><trkpt lat="43.927724" lon="12.4239734"><ele>263.4</ele><time>2026-04-12T06:00:19.303Z</time></trkpt><trkpt lat="43.9277479" lon="12.4238402"><ele>264.79999999999995</ele><time>2026-04-12T06:00:20.306Z</time></trkpt><trkpt lat="43.9277341" lon="12.4237181"><ele>266.2</ele><time>2026-04-12T06:00:21.293Z</time></trkpt><trkpt lat="43.9277043" lon="12.4235925"><ele>267.59999999999997</ele><time>2026-04-12T06:00:22.281Z</time></trkpt><trkpt lat="43.9276816" lon="12.4234744"><ele>269.0</ele><time>2026-04-12T06:00:23.295Z</time></trkpt><trkpt lat="43.9276652" lon="12.4233644"><ele>269.0</ele><time>2026-04-12T06:00:24.304Z</time></trkpt><trkpt lat="43.9276558" lon="12.4232464"><ele>269.0</ele><time>2026-04-12T06:00:25.32Z</time></trkpt><trkpt lat="43.9276543" lon="12.4231368"><ele>269.0</ele><time>2026-04-12T06:00:26.292Z</time></trkpt><trkpt lat="43.9276563" lon="12.4230314"><ele>269.0</ele><time>2026-04-12T06:00:27.293Z</time></trkpt><trkpt lat="43.9276722" lon="12.4228633"><ele>269.0</ele><time>2026-04-12T06:00:29.307Z</time></trkpt><trkpt lat="43.9277366" lon="12.4227428"><ele>268.0</ele><time>2026-04-12T06:00:31.277Z</time></trkpt><trkpt lat="43.9278469" lon="12.4226847"><ele>267.0</ele><time>2026-04-12T06:00:33.275Z</time></trkpt><trkpt lat="43.9279066" lon="12.4226523"><ele>266.0</ele><time>2026-04-12T06:00:34.295Z</time></trkpt><trkpt lat="43.9279696" lon="12.422607"><ele>265.0</ele><time>2026-04-12T06:00:35.295Z</time></trkpt><trkpt lat="43.9280284" lon="12.4225454"><ele>264.0</ele><time>2026-04-12T06:00:36.293Z</time></trkpt><trkpt lat="43.9280667" lon="12.422476"><ele>263.0</ele><time>2026-04-12T06:00:37.298Z</time></trkpt><trkpt lat="43.9280704" lon="12.4223853"><ele>263.0</ele><time>2026-04-12T06:00:39.314Z</time></trkpt><trkpt lat="43.9279968" lon="12.4223723"><ele>263.0</ele><time>2026-04-12T06:00:41.267Z</time></trkpt><trkpt lat="43.9279012" lon="12.4224191"><ele>263.0</ele><time>2026-04-12T06:00:43.302Z</time></trkpt><trkpt lat="43.9277864" lon="12.422353"><ele>263.0</ele><time>2026-04-12T06:00:45.309Z</time></trkpt><trkpt lat="43.9277338" lon="12.422268"><ele>263.0</ele><time>2026-04-12T06:00:46.282Z</time></trkpt><trkpt lat="43.9276998" lon="12.422154"><ele>262.2</ele><time>2026-04-12T06:00:47.294Z</time></trkpt><trkpt lat="43.9276788" lon="12.422037"><ele>261.4</ele><time>2026-04-12T06:00:48.302Z</time></trkpt><trkpt lat="43.9276626" lon="12.4219139"><ele>260.59999999999997</ele><time>2026-04-12T06:00:49.291Z</time></trkpt><trkpt lat="43.9276375" lon="12.4217886"><ele>259.8</ele><time>2026-04-12T06:00:50.295Z</time></trkpt><trkpt lat="43.9275855" lon="12.4216721"><ele>259.0</ele><time>2026-04-12T06:00:51.252Z</time></trkpt><trkpt lat="43.927536" lon="12.4215567"><ele>257.2</ele><time>2026-04-12T06:00:52.303Z</time></trkpt><trkpt lat="43.9274702" lon="12.4214637"><ele>255.39999999999998</ele><time>2026-04-12T06:00:53.3Z</time></trkpt><trkpt lat="43.9273845" lon="12.4214011"><ele>253.6</ele><time>2026-04-12T06:00:54.3Z</time></trkpt><trkpt lat="43.927269" lon="12.421338"><ele>251.8</ele><time>2026-04-12T06:00:55.303Z</time></trkpt><trkpt lat="43.9271581" lon="12.4212909"><ele>250.0</ele><time>2026-04-12T06:00:56.284Z</time></trkpt><trkpt lat="43.9270532" lon="12.4212524"><ele>250.0</ele><time>2026-04-12T06:00:57.301Z</time></trkpt><trkpt lat="43.9269472" lon="12.4212487"><ele>250.0</ele><time>2026-04-12T06:00:58.276Z</time></trkpt><trkpt lat="43.926865" lon="12.4212898"><ele>250.0</ele><time>2026-04-12T06:00:59.309Z</time></trkpt><trkpt lat="43.9268089" lon="12.4213662"><ele>250.0</ele><time>2026-04-12T06:01:00.307Z</time></trkpt><trkpt lat="43.92677" lon="12.4214669"><ele>250.0</ele><time>2026-04-12T06:01:01.299Z</time></trkpt><trkpt lat="43.9267646" lon="12.4216104"><ele>249.16666666666666</ele><time>2026-04-12T06:01:02.305Z</time></trkpt><trkpt lat="43.9267396" lon="12.4217455"><ele>248.33333333333331</ele><time>2026-04-12T06:01:03.269Z</time></trkpt><trkpt lat="43.9267038" lon="12.4218572"><ele>247.5</ele><time>2026-04-12T06:01:04.283Z</time></trkpt><trkpt lat="43.9266399" lon="12.4219464"><ele>246.66666666666669</ele><time>2026-04-12T06:01:05.298Z</time></trkpt><trkpt lat="43.9265624" lon="12.4219777"><ele>245.83333333333334</ele><time>2026-04-12T06:01:06.283Z</time></trkpt><trkpt lat="43.9264783" lon="12.4219429"><ele>245.0</ele><time>2026-04-12T06:01:07.308Z</time></trkpt><trkpt lat="43.9263788" lon="12.421882"><ele>243.4</ele><time>2026-04-12T06:01:08.267Z</time></trkpt><trkpt lat="43.9262873" lon="12.421819"><ele>241.8</ele><time>2026-04-12T06:01:09.295Z</time></trkpt><trkpt lat="43.9261816" lon="12.4217691"><ele>240.2</ele><time>2026-04-12T06:01:10.281Z</time></trkpt><trkpt lat="43.9260689" lon="12.4217259"><ele>238.6</ele><time>2026-04-12T06:01:11.252Z</time></trkpt><trkpt lat="43.925958" lon="12.4216789"><ele>237.0</ele><time>2026-04-12T06:01:12.299Z</time></trkpt><trkpt lat="43.9258461" lon="12.4216409"><ele>234.0</ele><time>2026-04-12T06:01:13.289Z</time></trkpt><trkpt lat="43.9257262" lon="12.4215921"><ele>231.0</ele><time>2026-04-12T06:01:14.304Z</time></trkpt><trkpt lat="43.9256121" lon="12.4215465"><ele>228.0</ele><time>2026-04-12T06:01:15.29Z</time></trkpt><trkpt lat="43.925497" lon="12.4215029"><ele>225.0</ele><time>2026-04-12T06:01:16.25Z</time></trkpt><trkpt lat="43.9253994" lon="12.4214585"><ele>225.0</ele><time>2026-04-12T06:01:17.299Z</time></trkpt><trkpt lat="43.9253132" lon="12.4214134"><ele>225.0</ele><time>2026-04-12T06:01:18.253Z</time></trkpt><trkpt lat="43.9252361" lon="12.4213734"><ele>225.0</ele><time>2026-04-12T06:01:19.29Z</time></trkpt><trkpt lat="43.925129" lon="12.4213375"><ele>225.0</ele><time>2026-04-12T06:01:21.263Z</time></trkpt><trkpt lat="43.9250605" lon="12.4213551"><ele>225.0</ele><time>2026-04-12T06:01:23.287Z</time></trkpt><trkpt lat="43.9249874" lon="12.4214264"><ele>225.0</ele><time>2026-04-12T06:01:25.289Z</time></trkpt><trkpt lat="43.9249512" lon="12.4215454"><ele>223.6</ele><time>2026-04-12T06:01:27.285Z</time></trkpt><trkpt lat="43.9249247" lon="12.4216711"><ele>222.2</ele><time>2026-04-12T06:01:29.298Z</time></trkpt><trkpt lat="43.9249025" lon="12.4218059"><ele>220.8</ele><time>2026-04-12T06:01:31.303Z</time></trkpt><trkpt lat="43.9248684" lon="12.4219481"><ele>219.4</ele><time>2026-04-12T06:01:33.291Z</time></trkpt><trkpt lat="43.9248177" lon="12.4220806"><ele>218.0</ele><time>2026-04-12T06:01:35.302Z</time></trkpt><trkpt lat="43.9247441" lon="12.4221978"><ele>218.00000000000003</ele><time>2026-04-12T06:01:37.281Z</time></trkpt><trkpt lat="43.9246442" lon="12.4222982"><ele>218.0</ele><time>2026-04-12T06:01:39.294Z</time></trkpt><trkpt lat="43.9245864" lon="12.4223391"><ele>218.0</ele><time>2026-04-12T06:01:40.299Z</time></trkpt><trkpt lat="43.9245259" lon="12.4223784"><ele>218.0</ele><time>2026-04-12T06:01:41.289Z</time></trkpt><trkpt lat="43.9244667" lon="12.4224092"><ele>218.00000000000003</ele><time>2026-04-12T06:01:42.295Z</time></trkpt><trkpt lat="43.9243497" lon="12.4224578"><ele>218.0</ele><time>2026-04-12T06:01:44.28Z</time></trkpt><trkpt lat="43.924238" lon="12.4224982"><ele>217.2</ele><time>2026-04-12T06:01:46.308Z</time></trkpt><trkpt lat="43.9241347" lon="12.4225285"><ele>216.4</ele><time>2026-04-12T06:01:48.319Z</time></trkpt><trkpt lat="43.9240532" lon="12.4224321"><ele>215.59999999999997</ele><time>2026-04-12T06:01:50.31Z</time></trkpt><trkpt lat="43.9240192" lon="12.4222648"><ele>214.79999999999998</ele><time>2026-04-12T06:01:52.295Z</time></trkpt><trkpt lat="43.9240041" lon="12.4221778"><ele>214.0</ele><time>2026-04-12T06:01:53.273Z</time></trkpt><trkpt lat="43.9239856" lon="12.4220859"><ele>214.00000000000003</ele><time>2026-04-12T06:01:54.292Z</time></trkpt><trkpt lat="43.9239634" lon="12.4219953"><ele>214.0</ele><time>2026-04-12T06:01:55.313Z</time></trkpt><trkpt lat="43.9239471" lon="12.4219006"><ele>214.0</ele><time>2026-04-12T06:01:56.306Z</time></trkpt><trkpt lat="43.9239308" lon="12.4218051"><ele>214.0</ele><time>2026-04-12T06:01:57.306Z</time></trkpt><trkpt lat="43.9239147" lon="12.4217118"><ele>214.0</ele><time>2026-04-12T06:01:58.298Z</time></trkpt><trkpt lat="43.9238919" lon="12.4216128"><ele>214.00000000000003</ele><time>2026-04-12T06:01:59.304Z</time></trkpt><trkpt lat="43.9238672" lon="12.4215091"><ele>214.0</ele><time>2026-04-12T06:02:00.308Z</time></trkpt><trkpt lat="43.9238423" lon="12.4214001"><ele>213.33333333333331</ele><time>2026-04-12T06:02:01.266Z</time></trkpt><trkpt lat="43.9238221" lon="12.4212886"><ele>212.66666666666666</ele><time>2026-04-12T06:02:02.283Z</time></trkpt><trkpt lat="43.9238016" lon="12.4211713"><ele>212.0</ele><time>2026-04-12T06:02:03.271Z</time></trkpt><trkpt lat="43.9237747" lon="12.4210596"><ele>211.33333333333331</ele><time>2026-04-12T06:02:04.262Z</time></trkpt><trkpt lat="43.9237521" lon="12.4209434"><ele>210.66666666666666</ele><time>2026-04-12T06:02:05.302Z</time></trkpt><trkpt lat="43.9237262" lon="12.4208436"><ele>210.0</ele><time>2026-04-12T06:02:06.296Z</time></trkpt><trkpt lat="43.9236965" lon="12.4207313"><ele>210.0</ele><time>2026-04-12T06:02:07.276Z</time></trkpt><trkpt lat="43.9236698" lon="12.4206188"><ele>210.0</ele><time>2026-04-12T06:02:08.291Z</time></trkpt><trkpt lat="43.9236395" lon="12.42051"><ele>210.0</ele><time>2026-04-12T06:02:09.296Z</time></trkpt><trkpt lat="43.9236159" lon="12.420403"><ele>210.0</ele><time>2026-04-12T06:02:10.268Z</time></trkpt><trkpt lat="43.923593" lon="12.4202965"><ele>210.0</ele><time>2026-04-12T06:02:11.287Z</time></trkpt><trkpt lat="43.9235781" lon="12.4201886"><ele>210.0</ele><time>2026-04-12T06:02:12.299Z</time></trkpt><trkpt lat="43.9235726" lon="12.4200796"><ele>209.83333333333334</ele><time>2026-04-12T06:02:13.299Z</time></trkpt><trkpt lat="43.9235744" lon="12.4199605"><ele>209.66666666666669</ele><time>2026-04-12T06:02:14.304Z</time></trkpt><trkpt lat="43.9235796" lon="12.4198511"><ele>209.5</ele><time>2026-04-12T06:02:15.301Z</time></trkpt><trkpt lat="43.9235884" lon="12.4197479"><ele>209.33333333333334</ele><time>2026-04-12T06:02:16.296Z</time></trkpt><trkpt lat="43.9236101" lon="12.4196467"><ele>209.16666666666669</ele><time>2026-04-12T06:02:17.294Z</time></trkpt><trkpt lat="43.9236232" lon="12.4195463"><ele>209.0</ele><time>2026-04-12T06:02:18.29Z</time></trkpt><trkpt lat="43.9236346" lon="12.4194434"><ele>208.83333333333334</ele><time>2026-04-12T06:02:19.304Z</time></trkpt><trkpt lat="43.9236444" lon="12.419348"><ele>208.66666666666669</ele><time>2026-04-12T06:02:20.301Z</time></trkpt><trkpt lat="43.9236577" lon="12.4192534"><ele>208.5</ele><time>2026-04-12T06:02:21.323Z</time></trkpt><trkpt lat="43.9236676" lon="12.4191643"><ele>208.33333333333331</ele><time>2026-04-12T06:02:22.309Z</time></trkpt><trkpt lat="43.9236759" lon="12.4190773"><ele>208.16666666666666</ele><time>2026-04-12T06:02:23.307Z</time></trkpt><trkpt lat="43.9236886" lon="12.4189898"><ele>208.0</ele><time>2026-04-12T06:02:24.31Z</time></trkpt><trkpt lat="43.9237155" lon="12.4188204"><ele>208.2</ele><time>2026-04-12T06:02:26.292Z</time></trkpt><trkpt lat="43.9237334" lon="12.4187341"><ele>208.4</ele><time>2026-04-12T06:02:27.299Z</time></trkpt><trkpt lat="43.923766" lon="12.418565"><ele>208.6</ele><time>2026-04-12T06:02:29.302Z</time></trkpt><trkpt lat="43.9238078" lon="12.4184179"><ele>208.79999999999998</ele><time>2026-04-12T06:02:31.308Z</time></trkpt><trkpt lat="43.9238645" lon="12.4182982"><ele>209.0</ele><time>2026-04-12T06:02:33.298Z</time></trkpt><trkpt lat="43.9239069" lon="12.4182239"><ele>209.00000000000003</ele><time>2026-04-12T06:02:35.289Z</time></trkpt><trkpt lat="43.9239367" lon="12.4181354"><ele>209.0</ele><time>2026-04-12T06:02:38.303Z</time></trkpt><trkpt lat="43.9239255" lon="12.4180276"><ele>209.0</ele><time>2026-04-12T06:02:42.308Z</time></trkpt><trkpt lat="43.9238653" lon="12.417989"><ele>209.0</ele><time>2026-04-12T06:02:45.238Z</time></trkpt><trkpt lat="43.9237851" lon="12.4179914"><ele>209.00000000000003</ele><time>2026-04-12T06:02:49.305Z</time></trkpt><trkpt lat="43.9237046" lon="12.4180146"><ele>209.0</ele><time>2026-04-12T06:02:53.297Z</time></trkpt><trkpt lat="43.9236338" lon="12.4180383"><ele>209.0</ele><time>2026-04-12T06:02:57.285Z</time></trkpt><trkpt lat="43.9235622" lon="12.4180277"><ele>209.0</ele><time>2026-04-12T06:03:01.307Z</time></trkpt><trkpt lat="43.9234958" lon="12.4179999"><ele>209.0</ele><time>2026-04-12T06:03:05.263Z</time></trkpt><trkpt lat="43.9234308" lon="12.4179552"><ele>209.0</ele><time>2026-04-12T06:03:09.302Z</time></trkpt><trkpt lat="43.9233606" lon="12.4179112"><ele>209.0</ele><time>2026-04-12T06:03:13.306Z</time></trkpt><trkpt lat="43.9232951" lon="12.4178735"><ele>209.0</ele><time>2026-04-12T06:03:17.287Z</time></trkpt><trkpt lat="43.9232437" lon="12.4178189"><ele>209.0</ele><time>2026-04-12T06:03:21.306Z</time></trkpt><trkpt lat="43.9231685" lon="12.4177824"><ele>212.00000000000003</ele><time>2026-04-12T06:03:25.283Z</time></trkpt><trkpt lat="43.9230995" lon="12.4177425"><ele>215.0</ele><time>2026-04-12T06:03:29.299Z</time></trkpt><trkpt lat="43.9230282" lon="12.4176965"><ele>218.0</ele><time>2026-04-12T06:03:33.299Z</time></trkpt><trkpt lat="43.9229539" lon="12.4176564"><ele>221.0</ele><time>2026-04-12T06:03:37.286Z</time></trkpt><trkpt lat="43.9228945" lon="12.4176204"><ele>224.00000000000003</ele><time>2026-04-12T06:03:40.304Z</time></trkpt><trkpt lat="43.9228181" lon="12.4176036"><ele>227.0</ele><time>2026-04-12T06:03:44.31Z</time></trkpt><trkpt lat="43.9227532" lon="12.4175419"><ele>227.0</ele><time>2026-04-12T06:03:49.296Z</time></trkpt><trkpt lat="43.9227508" lon="12.4174417"><ele>227.00000000000003</ele><time>2026-04-12T06:03:54.309Z</time></trkpt><trkpt lat="43.9228008" lon="12.4173731"><ele>227.0</ele><time>2026-04-12T06:03:59.278Z</time></trkpt><trkpt lat="43.9228509" lon="12.4173178"><ele>227.0</ele><time>2026-04-12T06:04:03.311Z</time></trkpt><trkpt lat="43.9229278" lon="12.4172717"><ele>227.00000000000003</ele><time>2026-04-12T06:04:08.262Z</time></trkpt><trkpt lat="43.9229988" lon="12.4172576"><ele>227.0</ele><time>2026-04-12T06:04:12.267Z</time></trkpt><trkpt lat="43.9230616" lon="12.4172314"><ele>227.0</ele><time>2026-04-12T06:04:16.298Z</time></trkpt><trkpt lat="43.9231353" lon="12.417197"><ele>228.71428571428572</ele><time>2026-04-12T06:04:20.309Z</time></trkpt><trkpt lat="43.9231949" lon="12.4171453"><ele>230.42857142857144</ele><time>2026-04-12T06:04:24.249Z</time></trkpt><trkpt lat="43.9232236" lon="12.4170586"><ele>232.14285714285717</ele><time>2026-04-12T06:04:27.307Z</time></trkpt><trkpt lat="43.923202" lon="12.4169654"><ele>233.8571428571429</ele><time>2026-04-12T06:04:31.302Z</time></trkpt><trkpt lat="43.9231524" lon="12.4169052"><ele>235.57142857142858</ele><time>2026-04-12T06:04:35.247Z</time></trkpt><trkpt lat="43.9231137" lon="12.4168293"><ele>237.28571428571433</ele><time>2026-04-12T06:04:39.3Z</time></trkpt><trkpt lat="43.9230547" lon="12.4167507"><ele>239.00000000000003</ele><time>2026-04-12T06:04:43.3Z</time></trkpt><trkpt lat="43.9230009" lon="12.4166855"><ele>239.00000000000003</ele><time>2026-04-12T06:04:47.282Z</time></trkpt><trkpt lat="43.9229397" lon="12.4166282"><ele>239.0</ele><time>2026-04-12T06:04:51.282Z</time></trkpt><trkpt lat="43.9228785" lon="12.4165638"><ele>239.0</ele><time>2026-04-12T06:04:55.289Z</time></trkpt><trkpt lat="43.9228245" lon="12.4164841"><ele>239.0</ele><time>2026-04-12T06:05:00.287Z</time></trkpt><trkpt lat="43.9227759" lon="12.4164138"><ele>239.00000000000003</ele><time>2026-04-12T06:05:04.319Z</time></trkpt><trkpt lat="43.9227405" lon="12.4163191"><ele>239.0</ele><time>2026-04-12T06:05:08.273Z</time></trkpt><trkpt lat="43.9227225" lon="12.4162163"><ele>241.00000000000003</ele><time>2026-04-12T06:05:12.297Z</time></trkpt><trkpt lat="43.9227213" lon="12.4161262"><ele>243.0</ele><time>2026-04-12T06:05:16.246Z</time></trkpt><trkpt lat="43.9227602" lon="12.4160427"><ele>245.00000000000003</ele><time>2026-04-12T06:05:21.288Z</time></trkpt><trkpt lat="43.9228214" lon="12.4159855"><ele>247.00000000000003</ele><time>2026-04-12T06:05:26.299Z</time></trkpt><trkpt lat="43.9228831" lon="12.4159558"><ele>249.0</ele><time>2026-04-12T06:05:30.282Z</time></trkpt><trkpt lat="43.9229389" lon="12.4159086"><ele>251.00000000000003</ele><time>2026-04-12T06:05:34.287Z</time></trkpt><trkpt lat="43.922993" lon="12.4158423"><ele>253.00000000000003</ele><time>2026-04-12T06:05:38.262Z</time></trkpt><trkpt lat="43.923016" lon="12.415745"><ele>253.00000000000003</ele><time>2026-04-12T06:05:42.298Z</time></trkpt><trkpt lat="43.9230137" lon="12.4156529"><ele>253.0</ele><time>2026-04-12T06:05:46.287Z</time></trkpt><trkpt lat="43.9229867" lon="12.4155537"><ele>253.00000000000003</ele><time>2026-04-12T06:05:52.289Z</time></trkpt><trkpt lat="43.9229524" lon="12.4154632"><ele>253.00000000000003</ele><time>2026-04-12T06:05:57.252Z</time></trkpt><trkpt lat="43.9229303" lon="12.4153769"><ele>253.0</ele><time>2026-04-12T06:06:02.247Z</time></trkpt><trkpt lat="43.9229348" lon="12.4152871"><ele>253.00000000000003</ele><time>2026-04-12T06:06:08.291Z</time></trkpt><trkpt lat="43.9229522" lon="12.4151924"><ele>253.00000000000003</ele><time>2026-04-12T06:06:13.318Z</time></trkpt><trkpt lat="43.9229772" lon="12.4151073"><ele>254.71428571428575</ele><time>2026-04-12T06:06:18.293Z</time></trkpt><trkpt lat="43.9230179" lon="12.4150159"><ele>256.42857142857144</ele><time>2026-04-12T06:06:24.306Z</time></trkpt><trkpt lat="43.923058" lon="12.4149419"><ele>258.1428571428571</ele><time>2026-04-12T06:06:29.301Z</time></trkpt><trkpt lat="43.9230975" lon="12.4148644"><ele>259.8571428571429</ele><time>2026-04-12T06:06:34.253Z</time></trkpt><trkpt lat="43.9231283" lon="12.4147828"><ele>261.57142857142856</ele><time>2026-04-12T06:06:39.295Z</time></trkpt><trkpt lat="43.9231435" lon="12.4146972"><ele>263.2857142857143</ele><time>2026-04-12T06:06:43.304Z</time></trkpt><trkpt lat="43.9231324" lon="12.4145995"><ele>265.0</ele><time>2026-04-12T06:06:49.319Z</time></trkpt><trkpt lat="43.9230738" lon="12.4145377"><ele>266.2857142857143</ele><time>2026-04-12T06:06:54.328Z</time></trkpt><trkpt lat="43.9230107" lon="12.4144983"><ele>267.57142857142856</ele><time>2026-04-12T06:06:58.275Z</time></trkpt><trkpt lat="43.9229399" lon="12.4144688"><ele>268.8571428571429</ele><time>2026-04-12T06:07:02.276Z</time></trkpt><trkpt lat="43.922871" lon="12.4144559"><ele>270.1428571428571</ele><time>2026-04-12T06:07:06.306Z</time></trkpt><trkpt lat="43.922802" lon="12.4144433"><ele>271.42857142857144</ele><time>2026-04-12T06:07:11.317Z</time></trkpt><trkpt lat="43.922729" lon="12.4144299"><ele>272.7142857142857</ele><time>2026-04-12T06:07:16.323Z</time></trkpt><trkpt lat="43.9226639" lon="12.4144227"><ele>274.0</ele><time>2026-04-12T06:07:20.298Z</time></trkpt><trkpt lat="43.9225915" lon="12.414401"><ele>275.00000000000006</ele><time>2026-04-12T06:07:25.315Z</time></trkpt><trkpt lat="43.9225246" lon="12.4143492"><ele>276.0</ele><time>2026-04-12T06:07:30.322Z</time></trkpt><trkpt lat="43.9224638" lon="12.414308"><ele>277.0</ele><time>2026-04-12T06:07:34.317Z</time></trkpt><trkpt lat="43.9223979" lon="12.4142626"><ele>278.0</ele><time>2026-04-12T06:07:39.292Z</time></trkpt><trkpt lat="43.9223396" lon="12.4142256"><ele>279.0</ele><time>2026-04-12T06:07:43.305Z</time></trkpt><trkpt lat="43.9222704" lon="12.414186"><ele>280.00000000000006</ele><time>2026-04-12T06:07:47.287Z</time></trkpt><trkpt lat="43.9222001" lon="12.4141277"><ele>281.0</ele><time>2026-04-12T06:07:52.296Z</time></trkpt><trkpt lat="43.9221361" lon="12.4140783"><ele>281.00000000000006</ele><time>2026-04-12T06:07:56.281Z</time></trkpt><trkpt lat="43.9220788" lon="12.4140167"><ele>281.0</ele><time>2026-04-12T06:08:00.312Z</time></trkpt><trkpt lat="43.9220169" lon="12.4139607"><ele>281.0</ele><time>2026-04-12T06:08:04.321Z</time></trkpt><trkpt lat="43.9219683" lon="12.4138883"><ele>281.0</ele><time>2026-04-12T06:08:08.259Z</time></trkpt><trkpt lat="43.9219244" lon="12.4138055"><ele>281.0</ele><time>2026-04-12T06:08:13.305Z</time></trkpt><trkpt lat="43.9219186" lon="12.413717"><ele>281.00000000000006</ele><time>2026-04-12T06:08:18.317Z</time></trkpt><trkpt lat="43.9219777" lon="12.4136588"><ele>281.0</ele><time>2026-04-12T06:08:24.295Z</time></trkpt><trkpt lat="43.9220424" lon="12.4136332"><ele>283.00000000000006</ele><time>2026-04-12T06:08:29.257Z</time></trkpt><trkpt lat="43.9221018" lon="12.4136032"><ele>285.0</ele><time>2026-04-12T06:08:33.256Z</time></trkpt><trkpt lat="43.9221618" lon="12.4135718"><ele>287.0</ele><time>2026-04-12T06:08:37.298Z</time></trkpt><trkpt lat="43.9222279" lon="12.4135471"><ele>289.0</ele><time>2026-04-12T06:08:42.299Z</time></trkpt><trkpt lat="43.9222851" lon="12.4135062"><ele>291.0</ele><time>2026-04-12T06:08:46.316Z</time></trkpt><trkpt lat="43.9223421" lon="12.413468"><ele>293.00000000000006</ele><time>2026-04-12T06:08:50.294Z</time></trkpt><trkpt lat="43.9224146" lon="12.4134217"><ele>295.0</ele><time>2026-04-12T06:08:55.297Z</time></trkpt><trkpt lat="43.9224719" lon="12.4133785"><ele>295.00000000000006</ele><time>2026-04-12T06:08:59.305Z</time></trkpt><trkpt lat="43.9225265" lon="12.4133234"><ele>295.0</ele><time>2026-04-12T06:09:04.3Z</time></trkpt><trkpt lat="43.9225509" lon="12.4132231"><ele>295.0</ele><time>2026-04-12T06:09:09.298Z</time></trkpt><trkpt lat="43.9225384" lon="12.4131338"><ele>295.0</ele><time>2026-04-12T06:09:13.304Z</time></trkpt><trkpt lat="43.9224884" lon="12.413057"><ele>295.0</ele><time>2026-04-12T06:09:18.293Z</time></trkpt><trkpt lat="43.9224237" lon="12.4130106"><ele>295.00000000000006</ele><time>2026-04-12T06:09:23.309Z</time></trkpt><trkpt lat="43.9223456" lon="12.4129757"><ele>295.0</ele><time>2026-04-12T06:09:28.306Z</time></trkpt><trkpt lat="43.9222795" lon="12.4129445"><ele>296.28571428571433</ele><time>2026-04-12T06:09:32.278Z</time></trkpt><trkpt lat="43.9222316" lon="12.4128695"><ele>297.57142857142856</ele><time>2026-04-12T06:09:37.276Z</time></trkpt><trkpt lat="43.9222259" lon="12.412765"><ele>298.8571428571429</ele><time>2026-04-12T06:09:43.314Z</time></trkpt><trkpt lat="43.9222533" lon="12.4126733"><ele>300.14285714285717</ele><time>2026-04-12T06:09:49.311Z</time></trkpt><trkpt lat="43.922283" lon="12.4125871"><ele>301.42857142857144</ele><time>2026-04-12T06:09:54.287Z</time></trkpt><trkpt lat="43.922287" lon="12.4124976"><ele>302.7142857142857</ele><time>2026-04-12T06:09:58.279Z</time></trkpt><trkpt lat="43.9222722" lon="12.4124058"><ele>304.0</ele><time>2026-04-12T06:10:03.309Z</time></trkpt><trkpt lat="43.9222611" lon="12.4123158"><ele>304.0</ele><time>2026-04-12T06:10:07.31Z</time></trkpt><trkpt lat="43.9222282" lon="12.4122198"><ele>304.0</ele><time>2026-04-12T06:10:12.312Z</time></trkpt><trkpt lat="43.9222086" lon="12.4121339"><ele>304.0</ele><time>2026-04-12T06:10:16.316Z</time></trkpt><trkpt lat="43.9221815" lon="12.4120427"><ele>304.0</ele><time>2026-04-12T06:10:21.313Z</time></trkpt><trkpt lat="43.9221345" lon="12.4119534"><ele>304.0</ele><time>2026-04-12T06:10:27.301Z</time></trkpt><trkpt lat="43.9220738" lon="12.4119109"><ele>304.0</ele><time>2026-04-12T06:10:32.279Z</time></trkpt><trkpt lat="43.922012" lon="12.4118873"><ele>304.0</ele><time>2026-04-12T06:10:36.283Z</time></trkpt><trkpt lat="43.9219427" lon="12.4118613"><ele>304.85714285714283</ele><time>2026-04-12T06:10:41.291Z</time></trkpt><trkpt lat="43.9218717" lon="12.4118347"><ele>305.7142857142857</ele><time>2026-04-12T06:10:46.29Z</time></trkpt><trkpt lat="43.9217998" lon="12.4118249"><ele>306.57142857142856</ele><time>2026-04-12T06:10:51.312Z</time></trkpt><trkpt lat="43.9217255" lon="12.4118021"><ele>307.42857142857144</ele><time>2026-04-12T06:10:56.314Z</time></trkpt><trkpt lat="43.9216574" lon="12.4117957"><ele>308.2857142857143</ele><time>2026-04-12T06:11:00.279Z</time></trkpt><trkpt lat="43.9215864" lon="12.4117747"><ele>309.14285714285717</ele><time>2026-04-12T06:11:05.316Z</time></trkpt><trkpt lat="43.9215223" lon="12.4117643"><ele>310.0</ele><time>2026-04-12T06:11:09.307Z</time></trkpt><trkpt lat="43.9214515" lon="12.4117397"><ele>312.57142857142856</ele><time>2026-04-12T06:11:14.307Z</time></trkpt><trkpt lat="43.921388" lon="12.4117242"><ele>315.1428571428571</ele><time>2026-04-12T06:11:19.309Z</time></trkpt><trkpt lat="43.9213204" lon="12.4117178"><ele>317.71428571428567</ele><time>2026-04-12T06:11:23.247Z</time></trkpt><trkpt lat="43.9212548" lon="12.4117065"><ele>320.2857142857143</ele><time>2026-04-12T06:11:27.298Z</time></trkpt><trkpt lat="43.9211903" lon="12.4116903"><ele>322.85714285714283</ele><time>2026-04-12T06:11:31.294Z</time></trkpt><trkpt lat="43.9211416" lon="12.4116328"><ele>325.4285714285714</ele><time>2026-04-12T06:11:35.289Z</time></trkpt><trkpt lat="43.9211166" lon="12.4115468"><ele>328.0</ele><time>2026-04-12T06:11:39.289Z</time></trkpt><trkpt lat="43.9211584" lon="12.411467"><ele>328.0</ele><time>2026-04-12T06:11:44.302Z</time></trkpt><trkpt lat="43.9212258" lon="12.4114025"><ele>328.0</ele><time>2026-04-12T06:11:48.289Z</time></trkpt><trkpt lat="43.921296" lon="12.4113539"><ele>328.0</ele><time>2026-04-12T06:11:52.294Z</time></trkpt><trkpt lat="43.9213633" lon="12.4113005"><ele>328.0</ele><time>2026-04-12T06:11:56.311Z</time></trkpt><trkpt lat="43.9214305" lon="12.4112391"><ele>328.0</ele><time>2026-04-12T06:12:00.302Z</time></trkpt><trkpt lat="43.921492" lon="12.4111832"><ele>328.0</ele><time>2026-04-12T06:12:04.296Z</time></trkpt><trkpt lat="43.9215524" lon="12.4111109"><ele>330.2857142857143</ele><time>2026-04-12T06:12:08.266Z</time></trkpt><trkpt lat="43.9215895" lon="12.4110195"><ele>332.57142857142856</ele><time>2026-04-12T06:12:12.276Z</time></trkpt><trkpt lat="43.9215889" lon="12.4109146"><ele>334.8571428571429</ele><time>2026-04-12T06:12:16.29Z</time></trkpt><trkpt lat="43.9215452" lon="12.4108173"><ele>337.1428571428571</ele><time>2026-04-12T06:12:20.289Z</time></trkpt><trkpt lat="43.9214776" lon="12.4107769"><ele>339.42857142857144</ele><time>2026-04-12T06:12:24.287Z</time></trkpt><trkpt lat="43.9214047" lon="12.4107707"><ele>341.7142857142857</ele><time>2026-04-12T06:12:28.309Z</time></trkpt><trkpt lat="43.9213356" lon="12.4107673"><ele>344.0</ele><time>2026-04-12T06:12:32.294Z</time></trkpt><trkpt lat="43.9212541" lon="12.4107723"><ele>344.00000000000006</ele><time>2026-04-12T06:12:36.312Z</time></trkpt><trkpt lat="43.9211756" lon="12.4107681"><ele>344.0</ele><time>2026-04-12T06:12:40.298Z</time></trkpt><trkpt lat="43.9210924" lon="12.41077"><ele>344.0</ele><time>2026-04-12T06:12:44.294Z</time></trkpt><trkpt lat="43.9210234" lon="12.4107592"><ele>344.0</ele><time>2026-04-12T06:12:47.311Z</time></trkpt><trkpt lat="43.9209491" lon="12.4107356"><ele>344.0</ele><time>2026-04-12T06:12:50.312Z</time></trkpt><trkpt lat="43.9208806" lon="12.4107169"><ele>344.00000000000006</ele><time>2026-04-12T06:12:53.27Z</time></trkpt><trkpt lat="43.9208171" lon="12.4107033"><ele>344.0</ele><time>2026-04-12T06:12:56.257Z</time></trkpt><trkpt lat="43.920748" lon="12.4106762"><ele>345.42857142857144</ele><time>2026-04-12T06:12:59.322Z</time></trkpt><trkpt lat="43.9206848" lon="12.4106527"><ele>346.8571428571429</ele><time>2026-04-12T06:13:02.295Z</time></trkpt><trkpt lat="43.9206206" lon="12.4106358"><ele>348.28571428571433</ele><time>2026-04-12T06:13:05.291Z</time></trkpt><trkpt lat="43.9205491" lon="12.4106168"><ele>349.7142857142857</ele><time>2026-04-12T06:13:08.317Z</time></trkpt><trkpt lat="43.9204858" lon="12.4106037"><ele>351.1428571428571</ele><time>2026-04-12T06:13:11.301Z</time></trkpt><trkpt lat="43.9204086" lon="12.4105844"><ele>352.5714285714286</ele><time>2026-04-12T06:13:14.301Z</time></trkpt><trkpt lat="43.9203412" lon="12.4105639"><ele>354.0</ele><time>2026-04-12T06:13:17.293Z</time></trkpt><trkpt lat="43.920256" lon="12.4105411"><ele>355.8571428571429</ele><time>2026-04-12T06:13:21.303Z</time></trkpt><trkpt lat="43.9202003" lon="12.4104597"><ele>357.71428571428567</ele><time>2026-04-12T06:13:25.289Z</time></trkpt><trkpt lat="43.9201982" lon="12.4103659"><ele>359.57142857142856</ele><time>2026-04-12T06:13:29.309Z</time></trkpt><trkpt lat="43.9202436" lon="12.4102967"><ele>361.42857142857144</ele><time>2026-04-12T06:13:34.31Z</time></trkpt><trkpt lat="43.920314" lon="12.4102668"><ele>363.28571428571433</ele><time>2026-04-12T06:13:40.254Z</time></trkpt><trkpt lat="43.9203831" lon="12.4102516"><ele>365.1428571428571</ele><time>2026-04-12T06:13:45.272Z</time></trkpt><trkpt lat="43.9204571" lon="12.4102713"><ele>367.0</ele><time>2026-04-12T06:13:50.272Z</time></trkpt><trkpt lat="43.9205246" lon="12.4102654"><ele>367.0</ele><time>2026-04-12T06:13:55.305Z</time></trkpt><trkpt lat="43.9205969" lon="12.410232"><ele>367.0</ele><time>2026-04-12T06:13:59.305Z</time></trkpt><trkpt lat="43.9206596" lon="12.4101339"><ele>367.0</ele><time>2026-04-12T06:14:02.288Z</time></trkpt><trkpt lat="43.9206941" lon="12.4100399"><ele>367.0</ele><time>2026-04-12T06:14:04.269Z</time></trkpt><trkpt lat="43.920729" lon="12.4099244"><ele>367.0</ele><time>2026-04-12T06:14:06.286Z</time></trkpt><trkpt lat="43.9207674" lon="12.4097957"><ele>367.0</ele><time>2026-04-12T06:14:08.282Z</time></trkpt><trkpt lat="43.920813" lon="12.4096999"><ele>367.3333333333333</ele><time>2026-04-12T06:14:10.301Z</time></trkpt><trkpt lat="43.9208446" lon="12.4095852"><ele>367.66666666666663</ele><time>2026-04-12T06:14:12.279Z</time></trkpt><trkpt lat="43.9208695" lon="12.40949"><ele>368.0</ele><time>2026-04-12T06:14:14.289Z</time></trkpt><trkpt lat="43.920914" lon="12.4093776"><ele>368.3333333333333</ele><time>2026-04-12T06:14:17.308Z</time></trkpt><trkpt lat="43.9209447" lon="12.4092699"><ele>368.6666666666667</ele><time>2026-04-12T06:14:20.286Z</time></trkpt><trkpt lat="43.9209676" lon="12.4091619"><ele>369.0</ele><time>2026-04-12T06:14:23.303Z</time></trkpt><trkpt lat="43.9209935" lon="12.4090521"><ele>367.6666666666667</ele><time>2026-04-12T06:14:26.311Z</time></trkpt><trkpt lat="43.9210148" lon="12.4089565"><ele>366.3333333333333</ele><time>2026-04-12T06:14:29.268Z</time></trkpt><trkpt lat="43.9210339" lon="12.4088457"><ele>365.0</ele><time>2026-04-12T06:14:32.305Z</time></trkpt><trkpt lat="43.9210321" lon="12.4087187"><ele>363.66666666666663</ele><time>2026-04-12T06:14:35.276Z</time></trkpt><trkpt lat="43.9210087" lon="12.4085992"><ele>362.3333333333333</ele><time>2026-04-12T06:14:38.269Z</time></trkpt><trkpt lat="43.9209978" lon="12.4084896"><ele>361.0</ele><time>2026-04-12T06:14:41.255Z</time></trkpt><trkpt lat="43.9209757" lon="12.4083863"><ele>360.8571428571429</ele><time>2026-04-12T06:14:44.296Z</time></trkpt><trkpt lat="43.9209402" lon="12.4082929"><ele>360.71428571428567</ele><time>2026-04-12T06:14:47.306Z</time></trkpt><trkpt lat="43.9209013" lon="12.4082234"><ele>360.57142857142856</ele><time>2026-04-12T06:14:50.282Z</time></trkpt><trkpt lat="43.9208528" lon="12.4081331"><ele>360.42857142857144</ele><time>2026-04-12T06:14:54.306Z</time></trkpt><trkpt lat="43.9208086" lon="12.4080517"><ele>360.28571428571433</ele><time>2026-04-12T06:14:58.29Z</time></trkpt><trkpt lat="43.9207733" lon="12.4079738"><ele>360.1428571428571</ele><time>2026-04-12T06:15:02.25Z</time></trkpt><trkpt lat="43.9207183" lon="12.4079084"><ele>360.0</ele><time>2026-04-12T06:15:07.292Z</time></trkpt><trkpt lat="43.9206531" lon="12.4078608"><ele>362.85714285714283</ele><time>2026-04-12T06:15:12.281Z</time></trkpt><trkpt lat="43.9205962" lon="12.4078017"><ele>365.7142857142857</ele><time>2026-04-12T06:15:17.28Z</time></trkpt><trkpt lat="43.9205371" lon="12.4077639"><ele>368.57142857142856</ele><time>2026-04-12T06:15:22.293Z</time></trkpt><trkpt lat="43.9204727" lon="12.4077262"><ele>371.42857142857144</ele><time>2026-04-12T06:15:27.293Z</time></trkpt><trkpt lat="43.9204008" lon="12.4077035"><ele>374.28571428571433</ele><time>2026-04-12T06:15:32.294Z</time></trkpt><trkpt lat="43.9203332" lon="12.4076719"><ele>377.14285714285717</ele><time>2026-04-12T06:15:38.273Z</time></trkpt><trkpt lat="43.9202589" lon="12.4076498"><ele>380.0</ele><time>2026-04-12T06:15:44.304Z</time></trkpt><trkpt lat="43.9201955" lon="12.4076264"><ele>380.0</ele><time>2026-04-12T06:15:49.262Z</time></trkpt><trkpt lat="43.9201239" lon="12.4075925"><ele>380.0</ele><time>2026-04-12T06:15:54.304Z</time></trkpt><trkpt lat="43.9200611" lon="12.4075671"><ele>380.0</ele><time>2026-04-12T06:15:58.3Z</time></trkpt><trkpt lat="43.9199887" lon="12.4075234"><ele>380.0</ele><time>2026-04-12T06:16:03.265Z</time></trkpt><trkpt lat="43.9199264" lon="12.4074611"><ele>380.0</ele><time>2026-04-12T06:16:08.3Z</time></trkpt><trkpt lat="43.9198825" lon="12.4073884"><ele>380.0</ele><time>2026-04-12T06:16:12.308Z</time></trkpt><trkpt lat="43.919859" lon="12.4072941"><ele>380.0</ele><time>2026-04-12T06:16:17.288Z</time></trkpt><trkpt lat="43.9198323" lon="12.4072077"><ele>382.0</ele><time>2026-04-12T06:16:22.313Z</time></trkpt><trkpt lat="43.9197931" lon="12.4071341"><ele>384.0</ele><time>2026-04-12T06:16:26.309Z</time></trkpt><trkpt lat="43.9197685" lon="12.4070424"><ele>386.0</ele><time>2026-04-12T06:16:30.309Z</time></trkpt><trkpt lat="43.9197267" lon="12.4069525"><ele>388.0</ele><time>2026-04-12T06:16:34.334Z</time></trkpt><trkpt lat="43.9196778" lon="12.4068699"><ele>390.0</ele><time>2026-04-12T06:16:38.293Z</time></trkpt><trkpt lat="43.9196354" lon="12.4067828"><ele>392.0</ele><time>2026-04-12T06:16:42.291Z</time></trkpt><trkpt lat="43.9195814" lon="12.4067007"><ele>394.0</ele><time>2026-04-12T06:16:46.292Z</time></trkpt><trkpt lat="43.9195358" lon="12.406617"><ele>394.0</ele><time>2026-04-12T06:16:50.275Z</time></trkpt><trkpt lat="43.9194924" lon="12.4065249"><ele>394.0</ele><time>2026-04-12T06:16:55.277Z</time></trkpt><trkpt lat="43.9194491" lon="12.4064322"><ele>394.0</ele><time>2026-04-12T06:16:59.268Z</time></trkpt><trkpt lat="43.919419" lon="12.4063381"><ele>394.0</ele><time>2026-04-12T06:17:02.294Z</time></trkpt><trkpt lat="43.9193817" lon="12.4062536"><ele>394.0</ele><time>2026-04-12T06:17:05.282Z</time></trkpt><trkpt lat="43.9193457" lon="12.4061618"><ele>394.0</ele><time>2026-04-12T06:17:08.308Z</time></trkpt><trkpt lat="43.9193128" lon="12.4060765"><ele>394.0</ele><time>2026-04-12T06:17:11.302Z</time></trkpt><trkpt lat="43.9192866" lon="12.4059841"><ele>394.33333333333337</ele><time>2026-04-12T06:17:14.312Z</time></trkpt><trkpt lat="43.9192537" lon="12.4058832"><ele>394.6666666666667</ele><time>2026-04-12T06:17:17.288Z</time></trkpt><trkpt lat="43.9192235" lon="12.4057927"><ele>395.0</ele><time>2026-04-12T06:17:20.301Z</time></trkpt><trkpt lat="43.9191993" lon="12.4057083"><ele>395.33333333333337</ele><time>2026-04-12T06:17:22.304Z</time></trkpt><trkpt lat="43.9191637" lon="12.4055975"><ele>395.6666666666667</ele><time>2026-04-12T06:17:24.257Z</time></trkpt><trkpt lat="43.9191265" lon="12.4054794"><ele>396.0</ele><time>2026-04-12T06:17:26.287Z</time></trkpt><trkpt lat="43.9190783" lon="12.4053739"><ele>398.42857142857144</ele><time>2026-04-12T06:17:28.321Z</time></trkpt><trkpt lat="43.9190413" lon="12.405292"><ele>400.85714285714283</ele><time>2026-04-12T06:17:30.293Z</time></trkpt><trkpt lat="43.918997" lon="12.4051991"><ele>403.2857142857143</ele><time>2026-04-12T06:17:33.262Z</time></trkpt><trkpt lat="43.9189532" lon="12.4051085"><ele>405.7142857142857</ele><time>2026-04-12T06:17:36.3Z</time></trkpt><trkpt lat="43.9189187" lon="12.4050291"><ele>408.1428571428571</ele><time>2026-04-12T06:17:38.315Z</time></trkpt><trkpt lat="43.9188827" lon="12.4049529"><ele>410.57142857142856</ele><time>2026-04-12T06:17:40.323Z</time></trkpt><trkpt lat="43.9188458" lon="12.4048668"><ele>413.0</ele><time>2026-04-12T06:17:42.275Z</time></trkpt><trkpt lat="43.9188005" lon="12.4047798"><ele>413.0</ele><time>2026-04-12T06:17:44.3Z</time></trkpt><trkpt lat="43.9187616" lon="12.4047054"><ele>413.0</ele><time>2026-04-12T06:17:46.284Z</time></trkpt><trkpt lat="43.9187253" lon="12.4046281"><ele>413.0</ele><time>2026-04-12T06:17:48.315Z</time></trkpt><trkpt lat="43.9186898" lon="12.4045543"><ele>413.0</ele><time>2026-04-12T06:17:50.317Z</time></trkpt><trkpt lat="43.918659" lon="12.404468"><ele>413.0</ele><time>2026-04-12T06:17:52.307Z</time></trkpt><trkpt lat="43.9186211" lon="12.4043602"><ele>413.0</ele><time>2026-04-12T06:17:54.259Z</time></trkpt><trkpt lat="43.9185805" lon="12.4042459"><ele>413.0</ele><time>2026-04-12T06:17:56.299Z</time></trkpt><trkpt lat="43.9185464" lon="12.4041195"><ele>412.66666666666663</ele><time>2026-04-12T06:17:58.295Z</time></trkpt><trkpt lat="43.9184993" lon="12.4039999"><ele>412.3333333333333</ele><time>2026-04-12T06:18:00.303Z</time></trkpt><trkpt lat="43.9184565" lon="12.4039054"><ele>412.0</ele><time>2026-04-12T06:18:02.303Z</time></trkpt><trkpt lat="43.918438" lon="12.4038054"><ele>411.66666666666663</ele><time>2026-04-12T06:18:05.295Z</time></trkpt><trkpt lat="43.9184016" lon="12.4037116"><ele>411.3333333333333</ele><time>2026-04-12T06:18:09.299Z</time></trkpt><trkpt lat="43.9183369" lon="12.4036556"><ele>411.0</ele><time>2026-04-12T06:18:13.313Z</time></trkpt><trkpt lat="43.9182655" lon="12.4036029"><ele>411.0</ele><time>2026-04-12T06:18:17.31Z</time></trkpt><trkpt lat="43.9182048" lon="12.403566"><ele>411.0</ele><time>2026-04-12T06:18:20.291Z</time></trkpt><trkpt lat="43.9181417" lon="12.4035498"><ele>411.0</ele><time>2026-04-12T06:18:23.291Z</time></trkpt><trkpt lat="43.9180789" lon="12.4035147"><ele>411.0</ele><time>2026-04-12T06:18:26.29Z</time></trkpt><trkpt lat="43.9180142" lon="12.4034957"><ele>411.0</ele><time>2026-04-12T06:18:29.3Z</time></trkpt><trkpt lat="43.9179497" lon="12.4034774"><ele>411.0</ele><time>2026-04-12T06:18:32.278Z</time></trkpt><trkpt lat="43.9178857" lon="12.4034604"><ele>411.0</ele><time>2026-04-12T06:18:35.302Z</time></trkpt><trkpt lat="43.9178031" lon="12.4034274"><ele>411.0</ele><time>2026-04-12T06:18:39.273Z</time></trkpt><trkpt lat="43.9177255" lon="12.4033983"><ele>411.0</ele><time>2026-04-12T06:18:42.307Z</time></trkpt><trkpt lat="43.917661" lon="12.403382"><ele>411.0</ele><time>2026-04-12T06:18:44.306Z</time></trkpt><trkpt lat="43.9175969" lon="12.4033491"><ele>411.0</ele><time>2026-04-12T06:18:46.266Z</time></trkpt><trkpt lat="43.9175314" lon="12.4033303"><ele>411.0</ele><time>2026-04-12T06:18:48.298Z</time></trkpt><trkpt lat="43.9174674" lon="12.4033004"><ele>411.0</ele><time>2026-04-12T06:18:50.282Z</time></trkpt><trkpt lat="43.9173868" lon="12.4032642"><ele>411.0</ele><time>2026-04-12T06:18:52.304Z</time></trkpt><trkpt lat="43.9173195" lon="12.4032521"><ele>412.1428571428571</ele><time>2026-04-12T06:18:54.331Z</time></trkpt><trkpt lat="43.9172381" lon="12.4032107"><ele>413.2857142857143</ele><time>2026-04-12T06:18:57.301Z</time></trkpt><trkpt lat="43.9171758" lon="12.4031682"><ele>414.42857142857144</ele><time>2026-04-12T06:19:00.24Z</time></trkpt><trkpt lat="43.9171028" lon="12.4031345"><ele>415.57142857142856</ele><time>2026-04-12T06:19:04.242Z</time></trkpt><trkpt lat="43.9170342" lon="12.4030993"><ele>416.7142857142857</ele><time>2026-04-12T06:19:07.253Z</time></trkpt><trkpt lat="43.9169768" lon="12.4030495"><ele>417.85714285714283</ele><time>2026-04-12T06:19:10.299Z</time></trkpt><trkpt lat="43.9169357" lon="12.4029678"><ele>419.0</ele><time>2026-04-12T06:19:13.285Z</time></trkpt><trkpt lat="43.9168959" lon="12.40288"><ele>418.99999999999994</ele><time>2026-04-12T06:19:16.303Z</time></trkpt><trkpt lat="43.9168661" lon="12.4027909"><ele>419.0</ele><time>2026-04-12T06:19:19.31Z</time></trkpt><trkpt lat="43.9168471" lon="12.4027064"><ele>419.0</ele><time>2026-04-12T06:19:22.306Z</time></trkpt><trkpt lat="43.9168109" lon="12.4025971"><ele>419.0</ele><time>2026-04-12T06:19:26.265Z</time></trkpt><trkpt lat="43.9167813" lon="12.4024895"><ele>419.0</ele><time>2026-04-12T06:19:30.271Z</time></trkpt><trkpt lat="43.9167493" lon="12.4024083"><ele>418.99999999999994</ele><time>2026-04-12T06:19:33.303Z</time></trkpt><trkpt lat="43.9167248" lon="12.4023254"><ele>419.0</ele><time>2026-04-12T06:19:36.3Z</time></trkpt><trkpt lat="43.916691" lon="12.4022194"><ele>421.1428571428571</ele><time>2026-04-12T06:19:40.31Z</time></trkpt><trkpt lat="43.9166604" lon="12.4021151"><ele>423.2857142857143</ele><time>2026-04-12T06:19:44.314Z</time></trkpt><trkpt lat="43.9166417" lon="12.4020315"><ele>425.42857142857144</ele><time>2026-04-12T06:19:47.304Z</time></trkpt><trkpt lat="43.9166155" lon="12.4019491"><ele>427.57142857142856</ele><time>2026-04-12T06:19:50.246Z</time></trkpt><trkpt lat="43.9165836" lon="12.4018514"><ele>429.7142857142857</ele><time>2026-04-12T06:19:54.305Z</time></trkpt><trkpt lat="43.916552" lon="12.4017577"><ele>431.85714285714283</ele><time>2026-04-12T06:19:58.304Z</time></trkpt><trkpt lat="43.9165207" lon="12.4016727"><ele>434.0</ele><time>2026-04-12T06:20:01.306Z</time></trkpt><trkpt lat="43.9164849" lon="12.401594"><ele>434.0</ele><time>2026-04-12T06:20:04.293Z</time></trkpt><trkpt lat="43.9164379" lon="12.4015111"><ele>434.0</ele><time>2026-04-12T06:20:07.3Z</time></trkpt><trkpt lat="43.9163956" lon="12.4014233"><ele>434.0</ele><time>2026-04-12T06:20:10.31Z</time></trkpt><trkpt lat="43.9163583" lon="12.4013343"><ele>434.0</ele><time>2026-04-12T06:20:13.313Z</time></trkpt><trkpt lat="43.9163239" lon="12.4012573"><ele>434.0</ele><time>2026-04-12T06:20:16.302Z</time></trkpt><trkpt lat="43.9162986" lon="12.4011625"><ele>434.0</ele><time>2026-04-12T06:20:20.298Z</time></trkpt><trkpt lat="43.9162506" lon="12.4010706"><ele>434.0</ele><time>2026-04-12T06:20:25.303Z</time></trkpt><trkpt lat="43.9162051" lon="12.4009734"><ele>433.85714285714283</ele><time>2026-04-12T06:20:29.305Z</time></trkpt><trkpt lat="43.9161601" lon="12.4008932"><ele>433.7142857142857</ele><time>2026-04-12T06:20:32.307Z</time></trkpt><trkpt lat="43.9161137" lon="12.4007974"><ele>433.57142857142856</ele><time>2026-04-12T06:20:35.296Z</time></trkpt><trkpt lat="43.9160724" lon="12.4007304"><ele>433.42857142857144</ele><time>2026-04-12T06:20:37.291Z</time></trkpt><trkpt lat="43.9160196" lon="12.4006372"><ele>433.2857142857143</ele><time>2026-04-12T06:20:40.291Z</time></trkpt><trkpt lat="43.915968" lon="12.4005791"><ele>433.1428571428571</ele><time>2026-04-12T06:20:43.266Z</time></trkpt><trkpt lat="43.9159114" lon="12.4005322"><ele>433.0</ele><time>2026-04-12T06:20:46.306Z</time></trkpt><trkpt lat="43.9158398" lon="12.4004849"><ele>435.4285714285714</ele><time>2026-04-12T06:20:50.304Z</time></trkpt><trkpt lat="43.9157612" lon="12.4004383"><ele>437.8571428571429</ele><time>2026-04-12T06:20:54.316Z</time></trkpt><trkpt lat="43.9156998" lon="12.4003929"><ele>440.28571428571433</ele><time>2026-04-12T06:20:57.302Z</time></trkpt><trkpt lat="43.9156475" lon="12.400333"><ele>442.7142857142857</ele><time>2026-04-12T06:21:00.297Z</time></trkpt><trkpt lat="43.9156001" lon="12.4002601"><ele>445.14285714285717</ele><time>2026-04-12T06:21:03.287Z</time></trkpt><trkpt lat="43.9155572" lon="12.4001813"><ele>447.5714285714286</ele><time>2026-04-12T06:21:06.309Z</time></trkpt><trkpt lat="43.9154961" lon="12.4001122"><ele>450.00000000000006</ele><time>2026-04-12T06:21:09.285Z</time></trkpt><trkpt lat="43.9154441" lon="12.4000435"><ele>450.00000000000006</ele><time>2026-04-12T06:21:12.304Z</time></trkpt><trkpt lat="43.9153915" lon="12.3999925"><ele>450.0</ele><time>2026-04-12T06:21:15.306Z</time></trkpt><trkpt lat="43.9153347" lon="12.3999337"><ele>450.00000000000006</ele><time>2026-04-12T06:21:19.317Z</time></trkpt><trkpt lat="43.9152791" lon="12.3998786"><ele>450.00000000000006</ele><time>2026-04-12T06:21:23.304Z</time></trkpt><trkpt lat="43.9152179" lon="12.3998295"><ele>450.0</ele><time>2026-04-12T06:21:27.297Z</time></trkpt><trkpt lat="43.9151541" lon="12.3997787"><ele>450.00000000000006</ele><time>2026-04-12T06:21:31.311Z</time></trkpt><trkpt lat="43.9150986" lon="12.399736"><ele>450.00000000000006</ele><time>2026-04-12T06:21:34.299Z</time></trkpt><trkpt lat="43.9150403" lon="12.3996918"><ele>451.57142857142867</ele><time>2026-04-12T06:21:37.303Z</time></trkpt><trkpt lat="43.9149802" lon="12.3996517"><ele>453.14285714285717</ele><time>2026-04-12T06:21:40.312Z</time></trkpt><trkpt lat="43.9149266" lon="12.3995955"><ele>454.7142857142858</ele><time>2026-04-12T06:21:43.32Z</time></trkpt><trkpt lat="43.9148711" lon="12.399523"><ele>456.28571428571433</ele><time>2026-04-12T06:21:47.321Z</time></trkpt><trkpt lat="43.9148296" lon="12.3994523"><ele>457.8571428571429</ele><time>2026-04-12T06:21:51.3Z</time></trkpt><trkpt lat="43.9147691" lon="12.3993713"><ele>459.42857142857144</ele><time>2026-04-12T06:21:56.301Z</time></trkpt><trkpt lat="43.9146919" lon="12.399374"><ele>461.0</ele><time>2026-04-12T06:21:59.306Z</time></trkpt><trkpt lat="43.9145953" lon="12.3993942"><ele>460.99999999999994</ele><time>2026-04-12T06:22:02.313Z</time></trkpt><trkpt lat="43.9144993" lon="12.3994021"><ele>461.0</ele><time>2026-04-12T06:22:05.291Z</time></trkpt><trkpt lat="43.9144161" lon="12.399392"><ele>461.0</ele><time>2026-04-12T06:22:08.302Z</time></trkpt><trkpt lat="43.9143307" lon="12.3993664"><ele>461.0</ele><time>2026-04-12T06:22:11.321Z</time></trkpt><trkpt lat="43.9142599" lon="12.3993368"><ele>460.99999999999994</ele><time>2026-04-12T06:22:14.29Z</time></trkpt><trkpt lat="43.9141823" lon="12.3993129"><ele>461.0</ele><time>2026-04-12T06:22:17.298Z</time></trkpt><trkpt lat="43.9140979" lon="12.3992894"><ele>461.8333333333333</ele><time>2026-04-12T06:22:20.31Z</time></trkpt><trkpt lat="43.9140177" lon="12.3992691"><ele>462.66666666666663</ele><time>2026-04-12T06:22:23.31Z</time></trkpt><trkpt lat="43.9139383" lon="12.3992516"><ele>463.5</ele><time>2026-04-12T06:22:26.33Z</time></trkpt><trkpt lat="43.9138602" lon="12.3992391"><ele>464.33333333333337</ele><time>2026-04-12T06:22:29.258Z</time></trkpt><trkpt lat="43.9137827" lon="12.3992115"><ele>465.1666666666667</ele><time>2026-04-12T06:22:32.286Z</time></trkpt><trkpt lat="43.9136995" lon="12.3991857"><ele>466.0</ele><time>2026-04-12T06:22:35.294Z</time></trkpt><trkpt lat="43.9136078" lon="12.3991711"><ele>466.00000000000006</ele><time>2026-04-12T06:22:38.312Z</time></trkpt><trkpt lat="43.9135437" lon="12.3991525"><ele>466.0</ele><time>2026-04-12T06:22:40.293Z</time></trkpt><trkpt lat="43.9134534" lon="12.3991355"><ele>466.0</ele><time>2026-04-12T06:22:43.309Z</time></trkpt><trkpt lat="43.9133639" lon="12.3991105"><ele>466.0</ele><time>2026-04-12T06:22:46.301Z</time></trkpt><trkpt lat="43.9132856" lon="12.3990915"><ele>466.00000000000006</ele><time>2026-04-12T06:22:49.308Z</time></trkpt><trkpt lat="43.9131998" lon="12.3990943"><ele>466.0</ele><time>2026-04-12T06:22:52.319Z</time></trkpt><trkpt lat="43.913126" lon="12.399106"><ele>467.1666666666667</ele><time>2026-04-12T06:22:55.29Z</time></trkpt><trkpt lat="43.9130515" lon="12.3991279"><ele>468.33333333333337</ele><time>2026-04-12T06:22:58.341Z</time></trkpt><trkpt lat="43.9129854" lon="12.399178"><ele>469.5</ele><time>2026-04-12T06:23:01.304Z</time></trkpt><trkpt lat="43.9129213" lon="12.3992586"><ele>470.66666666666663</ele><time>2026-04-12T06:23:04.28Z</time></trkpt><trkpt lat="43.912869" lon="12.3993605"><ele>471.8333333333333</ele><time>2026-04-12T06:23:07.294Z</time></trkpt><trkpt lat="43.9128341" lon="12.3994344"><ele>473.0</ele><time>2026-04-12T06:23:09.293Z</time></trkpt><trkpt lat="43.9127972" lon="12.3995405"><ele>472.99999999999994</ele><time>2026-04-12T06:23:12.328Z</time></trkpt><trkpt lat="43.9127501" lon="12.3996339"><ele>473.0</ele><time>2026-04-12T06:23:15.266Z</time></trkpt><trkpt lat="43.9126898" lon="12.3997164"><ele>473.0</ele><time>2026-04-12T06:23:18.297Z</time></trkpt><trkpt lat="43.9126338" lon="12.3997862"><ele>473.0</ele><time>2026-04-12T06:23:21.302Z</time></trkpt><trkpt lat="43.9125774" lon="12.3998585"><ele>472.99999999999994</ele><time>2026-04-12T06:23:24.297Z</time></trkpt><trkpt lat="43.9125148" lon="12.3999335"><ele>473.0</ele><time>2026-04-12T06:23:27.304Z</time></trkpt><trkpt lat="43.912449" lon="12.4000108"><ele>473.99999999999994</ele><time>2026-04-12T06:23:30.276Z</time></trkpt><trkpt lat="43.9123878" lon="12.4000901"><ele>475.0</ele><time>2026-04-12T06:23:33.265Z</time></trkpt><trkpt lat="43.9123268" lon="12.400154"><ele>476.0</ele><time>2026-04-12T06:23:36.299Z</time></trkpt><trkpt lat="43.9122687" lon="12.4002274"><ele>477.0</ele><time>2026-04-12T06:23:39.246Z</time></trkpt><trkpt lat="43.9122087" lon="12.4003016"><ele>477.99999999999994</ele><time>2026-04-12T06:23:42.309Z</time></trkpt><trkpt lat="43.9121516" lon="12.4003834"><ele>479.0</ele><time>2026-04-12T06:23:45.284Z</time></trkpt><trkpt lat="43.9120855" lon="12.4004507"><ele>477.99999999999994</ele><time>2026-04-12T06:23:48.237Z</time></trkpt><trkpt lat="43.9120196" lon="12.4005149"><ele>477.0</ele><time>2026-04-12T06:23:51.309Z</time></trkpt><trkpt lat="43.9119563" lon="12.4005766"><ele>476.0</ele><time>2026-04-12T06:23:54.294Z</time></trkpt><trkpt lat="43.9118922" lon="12.4006298"><ele>475.0</ele><time>2026-04-12T06:23:57.288Z</time></trkpt><trkpt lat="43.9118143" lon="12.4006797"><ele>473.99999999999994</ele><time>2026-04-12T06:24:00.306Z</time></trkpt><trkpt lat="43.911732" lon="12.4007245"><ele>473.0</ele><time>2026-04-12T06:24:03.305Z</time></trkpt><trkpt lat="43.9116504" lon="12.4007664"><ele>475.16666666666663</ele><time>2026-04-12T06:24:06.291Z</time></trkpt><trkpt lat="43.9115651" lon="12.4008049"><ele>477.3333333333333</ele><time>2026-04-12T06:24:09.298Z</time></trkpt><trkpt lat="43.9115024" lon="12.4008283"><ele>479.5</ele><time>2026-04-12T06:24:11.301Z</time></trkpt><trkpt lat="43.9114126" lon="12.4008617"><ele>481.66666666666663</ele><time>2026-04-12T06:24:14.321Z</time></trkpt><trkpt lat="43.9113212" lon="12.4008939"><ele>483.8333333333333</ele><time>2026-04-12T06:24:17.294Z</time></trkpt><trkpt lat="43.9112571" lon="12.4009123"><ele>486.0</ele><time>2026-04-12T06:24:19.247Z</time></trkpt><trkpt lat="43.9111684" lon="12.4009488"><ele>486.0</ele><time>2026-04-12T06:24:22.286Z</time></trkpt><trkpt lat="43.9110792" lon="12.4009909"><ele>486.0</ele><time>2026-04-12T06:24:25.307Z</time></trkpt><trkpt lat="43.910996" lon="12.40103"><ele>486.0</ele><time>2026-04-12T06:24:28.315Z</time></trkpt><trkpt lat="43.9109246" lon="12.4010407"><ele>486.0</ele><time>2026-04-12T06:24:31.296Z</time></trkpt><trkpt lat="43.9108405" lon="12.40108"><ele>486.0</ele><time>2026-04-12T06:24:34.32Z</time></trkpt><trkpt lat="43.910756" lon="12.4011068"><ele>486.0</ele><time>2026-04-12T06:24:37.249Z</time></trkpt><trkpt lat="43.9106925" lon="12.4011221"><ele>487.5</ele><time>2026-04-12T06:24:39.252Z</time></trkpt><trkpt lat="43.9106127" lon="12.4011384"><ele>489.0</ele><time>2026-04-12T06:24:42.257Z</time></trkpt><trkpt lat="43.9105297" lon="12.401136"><ele>490.5</ele><time>2026-04-12T06:24:45.303Z</time></trkpt><trkpt lat="43.9104365" lon="12.4011305"><ele>492.0</ele><time>2026-04-12T06:24:48.309Z</time></trkpt><trkpt lat="43.9103487" lon="12.4011242"><ele>493.5</ele><time>2026-04-12T06:24:51.284Z</time></trkpt><trkpt lat="43.9102683" lon="12.4011165"><ele>495.0</ele><time>2026-04-12T06:24:54.295Z</time></trkpt><trkpt lat="43.9101859" lon="12.4011061"><ele>495.0</ele><time>2026-04-12T06:24:57.269Z</time></trkpt><trkpt lat="43.9101129" lon="12.4010951"><ele>495.0</ele><time>2026-04-12T06:25:00.311Z</time></trkpt><trkpt lat="43.9100376" lon="12.4010849"><ele>495.0</ele><time>2026-04-12T06:25:03.299Z</time></trkpt><trkpt lat="43.909967" lon="12.4010873"><ele>495.0</ele><time>2026-04-12T06:25:06.293Z</time></trkpt><trkpt lat="43.90989" lon="12.4010768"><ele>495.0</ele><time>2026-04-12T06:25:09.303Z</time></trkpt><trkpt lat="43.9098071" lon="12.4010697"><ele>495.0</ele><time>2026-04-12T06:25:12.293Z</time></trkpt><trkpt lat="43.9097278" lon="12.4010602"><ele>495.8333333333333</ele><time>2026-04-12T06:25:15.311Z</time></trkpt><trkpt lat="43.9096527" lon="12.4010444"><ele>496.66666666666663</ele><time>2026-04-12T06:25:18.295Z</time></trkpt><trkpt lat="43.9095846" lon="12.4010462"><ele>497.5</ele><time>2026-04-12T06:25:20.297Z</time></trkpt><trkpt lat="43.9094974" lon="12.4010428"><ele>498.3333333333333</ele><time>2026-04-12T06:25:23.305Z</time></trkpt><trkpt lat="43.9094227" lon="12.4010524"><ele>499.16666666666663</ele><time>2026-04-12T06:25:26.321Z</time></trkpt><trkpt lat="43.9093354" lon="12.4010674"><ele>500.0</ele><time>2026-04-12T06:25:29.306Z</time></trkpt><trkpt lat="43.9092649" lon="12.401101"><ele>500.66666666666663</ele><time>2026-04-12T06:25:32.312Z</time></trkpt><trkpt lat="43.9091838" lon="12.4011275"><ele>501.3333333333333</ele><time>2026-04-12T06:25:35.295Z</time></trkpt><trkpt lat="43.9091124" lon="12.4011695"><ele>502.0</ele><time>2026-04-12T06:25:38.319Z</time></trkpt><trkpt lat="43.9090399" lon="12.4012319"><ele>502.66666666666663</ele><time>2026-04-12T06:25:41.29Z</time></trkpt><trkpt lat="43.90897" lon="12.4012946"><ele>503.3333333333333</ele><time>2026-04-12T06:25:44.299Z</time></trkpt><trkpt lat="43.9089033" lon="12.4013681"><ele>504.0</ele><time>2026-04-12T06:25:47.3Z</time></trkpt><trkpt lat="43.9088493" lon="12.4014626"><ele>504.0</ele><time>2026-04-12T06:25:50.3Z</time></trkpt><trkpt lat="43.9088024" lon="12.401557"><ele>504.0</ele><time>2026-04-12T06:25:53.293Z</time></trkpt><trkpt lat="43.9087589" lon="12.4016674"><ele>504.0</ele><time>2026-04-12T06:25:56.307Z</time></trkpt><trkpt lat="43.908726" lon="12.4017723"><ele>504.0</ele><time>2026-04-12T06:25:59.299Z</time></trkpt><trkpt lat="43.9086989" lon="12.4018856"><ele>504.0</ele><time>2026-04-12T06:26:02.303Z</time></trkpt><trkpt lat="43.9086747" lon="12.401994"><ele>504.0</ele><time>2026-04-12T06:26:05.305Z</time></trkpt><trkpt lat="43.9086604" lon="12.4021119"><ele>503.6666666666667</ele><time>2026-04-12T06:26:08.251Z</time></trkpt><trkpt lat="43.9086429" lon="12.4022249"><ele>503.33333333333337</ele><time>2026-04-12T06:26:11.286Z</time></trkpt><trkpt lat="43.9086303" lon="12.402334"><ele>503.0</ele><time>2026-04-12T06:26:14.298Z</time></trkpt><trkpt lat="43.9086074" lon="12.4024494"><ele>502.6666666666667</ele><time>2026-04-12T06:26:17.293Z</time></trkpt><trkpt lat="43.9085788" lon="12.4025708"><ele>502.33333333333337</ele><time>2026-04-12T06:26:20.299Z</time></trkpt><trkpt lat="43.9085433" lon="12.4026824"><ele>502.0</ele><time>2026-04-12T06:26:23.272Z</time></trkpt><trkpt lat="43.9085122" lon="12.4027691"><ele>501.99999999999994</ele><time>2026-04-12T06:26:25.305Z</time></trkpt><trkpt lat="43.9084822" lon="12.4028529"><ele>502.0</ele><time>2026-04-12T06:26:27.261Z</time></trkpt><trkpt lat="43.9084565" lon="12.4029387"><ele>501.99999999999994</ele><time>2026-04-12T06:26:29.307Z</time></trkpt><trkpt lat="43.9084288" lon="12.4030244"><ele>501.99999999999994</ele><time>2026-04-12T06:26:31.295Z</time></trkpt><trkpt lat="43.9084119" lon="12.4031189"><ele>502.0</ele><time>2026-04-12T06:26:33.281Z</time></trkpt><trkpt lat="43.9083892" lon="12.4032456"><ele>501.99999999999994</ele><time>2026-04-12T06:26:36.289Z</time></trkpt><trkpt lat="43.9083709" lon="12.4033332"><ele>501.99999999999994</ele><time>2026-04-12T06:26:38.285Z</time></trkpt><trkpt lat="43.9083576" lon="12.403457"><ele>504.8571428571428</ele><time>2026-04-12T06:26:41.261Z</time></trkpt><trkpt lat="43.908351" lon="12.4035751"><ele>507.71428571428567</ele><time>2026-04-12T06:26:44.296Z</time></trkpt><trkpt lat="43.9083458" lon="12.4036701"><ele>510.57142857142856</ele><time>2026-04-12T06:26:46.292Z</time></trkpt><trkpt lat="43.9083456" lon="12.4037628"><ele>513.4285714285713</ele><time>2026-04-12T06:26:48.279Z</time></trkpt><trkpt lat="43.9083504" lon="12.4038552"><ele>516.2857142857142</ele><time>2026-04-12T06:26:50.284Z</time></trkpt><trkpt lat="43.9083528" lon="12.4039518"><ele>519.1428571428571</ele><time>2026-04-12T06:26:52.299Z</time></trkpt><trkpt lat="43.9083644" lon="12.4040452"><ele>522.0</ele><time>2026-04-12T06:26:54.304Z</time></trkpt><trkpt lat="43.9083654" lon="12.404145"><ele>522.0</ele><time>2026-04-12T06:26:56.303Z</time></trkpt><trkpt lat="43.9083595" lon="12.4042411"><ele>522.0</ele><time>2026-04-12T06:26:58.306Z</time></trkpt><trkpt lat="43.9083494" lon="12.404328"><ele>522.0</ele><time>2026-04-12T06:27:00.271Z</time></trkpt><trkpt lat="43.9082993" lon="12.4044422"><ele>522.0</ele><time>2026-04-12T06:27:03.279Z</time></trkpt><trkpt lat="43.9082495" lon="12.4045007"><ele>522.0</ele><time>2026-04-12T06:27:05.294Z</time></trkpt><trkpt lat="43.9081695" lon="12.4045736"><ele>522.0</ele><time>2026-04-12T06:27:08.266Z</time></trkpt><trkpt lat="43.9081112" lon="12.4046274"><ele>520.1428571428571</ele><time>2026-04-12T06:27:10.267Z</time></trkpt><trkpt lat="43.9080455" lon="12.4046716"><ele>518.2857142857142</ele><time>2026-04-12T06:27:12.259Z</time></trkpt><trkpt lat="43.9079859" lon="12.4047075"><ele>516.4285714285713</ele><time>2026-04-12T06:27:14.303Z</time></trkpt><trkpt lat="43.9079289" lon="12.4047454"><ele>514.5714285714286</ele><time>2026-04-12T06:27:16.274Z</time></trkpt><trkpt lat="43.9078522" lon="12.4047759"><ele>512.7142857142857</ele><time>2026-04-12T06:27:18.285Z</time></trkpt><trkpt lat="43.9077694" lon="12.4048081"><ele>510.8571428571428</ele><time>2026-04-12T06:27:20.3Z</time></trkpt><trkpt lat="43.9076954" lon="12.4048351"><ele>508.99999999999994</ele><time>2026-04-12T06:27:22.303Z</time></trkpt><trkpt lat="43.9076185" lon="12.4048597"><ele>510.79999999999995</ele><time>2026-04-12T06:27:24.274Z</time></trkpt><trkpt lat="43.9075304" lon="12.4048798"><ele>512.5999999999999</ele><time>2026-04-12T06:27:27.288Z</time></trkpt><trkpt lat="43.9074354" lon="12.4048486"><ele>514.4</ele><time>2026-04-12T06:27:29.299Z</time></trkpt><trkpt lat="43.9073431" lon="12.4047819"><ele>516.1999999999999</ele><time>2026-04-12T06:27:31.292Z</time></trkpt><trkpt lat="43.9072384" lon="12.4046755"><ele>518.0</ele><time>2026-04-12T06:27:33.267Z</time></trkpt><trkpt lat="43.9071746" lon="12.4046086"><ele>520.6</ele><time>2026-04-12T06:27:34.303Z</time></trkpt><trkpt lat="43.9070907" lon="12.404544"><ele>523.1999999999999</ele><time>2026-04-12T06:27:35.29Z</time></trkpt><trkpt lat="43.9070096" lon="12.4044653"><ele>525.8</ele><time>2026-04-12T06:27:36.305Z</time></trkpt><trkpt lat="43.9069399" lon="12.4043808"><ele>528.4</ele><time>2026-04-12T06:27:37.242Z</time></trkpt><trkpt lat="43.9068704" lon="12.404272"><ele>531.0</ele><time>2026-04-12T06:27:38.252Z</time></trkpt><trkpt lat="43.9068166" lon="12.4041608"><ele>531.0</ele><time>2026-04-12T06:27:39.306Z</time></trkpt><trkpt lat="43.9067726" lon="12.4040427"><ele>531.0</ele><time>2026-04-12T06:27:40.297Z</time></trkpt><trkpt lat="43.9067314" lon="12.4039543"><ele>531.0</ele><time>2026-04-12T06:27:41.283Z</time></trkpt><trkpt lat="43.9066295" lon="12.4038707"><ele>531.0</ele><time>2026-04-12T06:27:43.268Z</time></trkpt><trkpt lat="43.9065545" lon="12.4038794"><ele>531.0</ele><time>2026-04-12T06:27:44.283Z</time></trkpt><trkpt lat="43.9064942" lon="12.4039455"><ele>531.0</ele><time>2026-04-12T06:27:45.297Z</time></trkpt><trkpt lat="43.9064497" lon="12.4040625"><ele>528.0</ele><time>2026-04-12T06:27:46.266Z</time></trkpt><trkpt lat="43.9064152" lon="12.4042006"><ele>525.0</ele><time>2026-04-12T06:27:47.24Z</time></trkpt><trkpt lat="43.9063973" lon="12.4043503"><ele>522.0</ele><time>2026-04-12T06:27:48.244Z</time></trkpt><trkpt lat="43.906377" lon="12.4044914"><ele>519.0</ele><time>2026-04-12T06:27:49.264Z</time></trkpt><trkpt lat="43.9063707" lon="12.40463"><ele>516.0</ele><time>2026-04-12T06:27:50.253Z</time></trkpt><trkpt lat="43.9063458" lon="12.4047754"><ele>514.2</ele><time>2026-04-12T06:27:51.244Z</time></trkpt><trkpt lat="43.9063102" lon="12.4049109"><ele>512.4000000000001</ele><time>2026-04-12T06:27:52.269Z</time></trkpt><trkpt lat="43.9062501" lon="12.4050448"><ele>510.6</ele><time>2026-04-12T06:27:53.242Z</time></trkpt><trkpt lat="43.9061771" lon="12.4051601"><ele>508.8</ele><time>2026-04-12T06:27:54.267Z</time></trkpt><trkpt lat="43.9060989" lon="12.4052731"><ele>507.0</ele><time>2026-04-12T06:27:55.274Z</time></trkpt><trkpt lat="43.9060157" lon="12.4053707"><ele>507.0</ele><time>2026-04-12T06:27:56.317Z</time></trkpt><trkpt lat="43.9059344" lon="12.4054616"><ele>507.00000000000006</ele><time>2026-04-12T06:27:57.305Z</time></trkpt><trkpt lat="43.9058513" lon="12.4055505"><ele>507.00000000000006</ele><time>2026-04-12T06:27:58.267Z</time></trkpt><trkpt lat="43.9057657" lon="12.4056303"><ele>507.0</ele><time>2026-04-12T06:27:59.265Z</time></trkpt><trkpt lat="43.9056725" lon="12.4057115"><ele>507.0</ele><time>2026-04-12T06:28:00.31Z</time></trkpt><trkpt lat="43.9055797" lon="12.4057748"><ele>505.0</ele><time>2026-04-12T06:28:01.244Z</time></trkpt><trkpt lat="43.9054841" lon="12.4058299"><ele>503.00000000000006</ele><time>2026-04-12T06:28:02.238Z</time></trkpt><trkpt lat="43.9053943" lon="12.4058686"><ele>501.00000000000006</ele><time>2026-04-12T06:28:03.309Z</time></trkpt><trkpt lat="43.9053047" lon="12.4059029"><ele>499.0</ele><time>2026-04-12T06:28:04.295Z</time></trkpt><trkpt lat="43.9052162" lon="12.4059272"><ele>497.0</ele><time>2026-04-12T06:28:05.302Z</time></trkpt><trkpt lat="43.9051321" lon="12.4059292"><ele>497.3333333333333</ele><time>2026-04-12T06:28:06.296Z</time></trkpt><trkpt lat="43.9050432" lon="12.4059284"><ele>497.66666666666663</ele><time>2026-04-12T06:28:07.313Z</time></trkpt><trkpt lat="43.9049552" lon="12.4059264"><ele>498.0</ele><time>2026-04-12T06:28:08.305Z</time></trkpt><trkpt lat="43.9048734" lon="12.4059264"><ele>498.33333333333337</ele><time>2026-04-12T06:28:09.3Z</time></trkpt><trkpt lat="43.9047868" lon="12.4059266"><ele>498.6666666666667</ele><time>2026-04-12T06:28:10.336Z</time></trkpt><trkpt lat="43.9047052" lon="12.4059176"><ele>499.0</ele><time>2026-04-12T06:28:11.267Z</time></trkpt><trkpt lat="43.9046306" lon="12.4059067"><ele>499.00000000000006</ele><time>2026-04-12T06:28:12.278Z</time></trkpt><trkpt lat="43.9045519" lon="12.4058826"><ele>499.0</ele><time>2026-04-12T06:28:13.271Z</time></trkpt><trkpt lat="43.9044805" lon="12.4058607"><ele>499.00000000000006</ele><time>2026-04-12T06:28:14.309Z</time></trkpt><trkpt lat="43.904415" lon="12.4058429"><ele>499.00000000000006</ele><time>2026-04-12T06:28:15.263Z</time></trkpt><trkpt lat="43.9043462" lon="12.4058314"><ele>499.0</ele><time>2026-04-12T06:28:16.292Z</time></trkpt><trkpt lat="43.9042747" lon="12.4058121"><ele>499.00000000000006</ele><time>2026-04-12T06:28:17.303Z</time></trkpt><trkpt lat="43.9042091" lon="12.405798"><ele>499.00000000000006</ele><time>2026-04-12T06:28:18.287Z</time></trkpt><trkpt lat="43.9041434" lon="12.4057779"><ele>499.4285714285715</ele><time>2026-04-12T06:28:19.305Z</time></trkpt><trkpt lat="43.9040777" lon="12.405769"><ele>499.8571428571429</ele><time>2026-04-12T06:28:20.311Z</time></trkpt><trkpt lat="43.9040118" lon="12.4057492"><ele>500.2857142857143</ele><time>2026-04-12T06:28:21.289Z</time></trkpt><trkpt lat="43.9039425" lon="12.405737"><ele>500.7142857142857</ele><time>2026-04-12T06:28:22.291Z</time></trkpt><trkpt lat="43.9038727" lon="12.40573"><ele>501.1428571428571</ele><time>2026-04-12T06:28:23.309Z</time></trkpt><trkpt lat="43.9038054" lon="12.4057235"><ele>501.5714285714285</ele><time>2026-04-12T06:28:24.292Z</time></trkpt><trkpt lat="43.9037346" lon="12.4057194"><ele>501.99999999999994</ele><time>2026-04-12T06:28:25.289Z</time></trkpt><trkpt lat="43.9036629" lon="12.4057142"><ele>501.99999999999994</ele><time>2026-04-12T06:28:26.29Z</time></trkpt><trkpt lat="43.9035872" lon="12.4057237"><ele>502.0</ele><time>2026-04-12T06:28:27.242Z</time></trkpt><trkpt lat="43.9035237" lon="12.4057434"><ele>501.99999999999994</ele><time>2026-04-12T06:28:28.268Z</time></trkpt><trkpt lat="43.9034527" lon="12.4057809"><ele>501.99999999999994</ele><time>2026-04-12T06:28:29.273Z</time></trkpt><trkpt lat="43.9033885" lon="12.4058317"><ele>502.0</ele><time>2026-04-12T06:28:30.305Z</time></trkpt><trkpt lat="43.9033261" lon="12.4058936"><ele>501.99999999999994</ele><time>2026-04-12T06:28:31.298Z</time></trkpt><trkpt lat="43.9032781" lon="12.4059662"><ele>501.99999999999994</ele><time>2026-04-12T06:28:32.295Z</time></trkpt><trkpt lat="43.9032304" lon="12.4060561"><ele>502.00000000000006</ele><time>2026-04-12T06:28:33.296Z</time></trkpt><trkpt lat="43.9031779" lon="12.4061426"><ele>502.0</ele><time>2026-04-12T06:28:34.295Z</time></trkpt><trkpt lat="43.9031194" lon="12.406226"><ele>502.0</ele><time>2026-04-12T06:28:35.324Z</time></trkpt><trkpt lat="43.9030525" lon="12.4063001"><ele>502.0</ele><time>2026-04-12T06:28:36.308Z</time></trkpt><trkpt lat="43.902979" lon="12.4063684"><ele>502.00000000000006</ele><time>2026-04-12T06:28:37.291Z</time></trkpt><trkpt lat="43.9029131" lon="12.4064338"><ele>502.0</ele><time>2026-04-12T06:28:38.305Z</time></trkpt><trkpt lat="43.9028435" lon="12.4064874"><ele>503.00000000000006</ele><time>2026-04-12T06:28:39.296Z</time></trkpt><trkpt lat="43.902781" lon="12.4065499"><ele>504.0</ele><time>2026-04-12T06:28:40.268Z</time></trkpt><trkpt lat="43.9027198" lon="12.4066336"><ele>505.0</ele><time>2026-04-12T06:28:41.26Z</time></trkpt><trkpt lat="43.902672" lon="12.4067323"><ele>506.0</ele><time>2026-04-12T06:28:42.279Z</time></trkpt><trkpt lat="43.9026341" lon="12.4068297"><ele>507.00000000000006</ele><time>2026-04-12T06:28:43.317Z</time></trkpt><trkpt lat="43.9026048" lon="12.4069419"><ele>508.0</ele><time>2026-04-12T06:28:44.306Z</time></trkpt><trkpt lat="43.9025722" lon="12.4070543"><ele>506.00000000000006</ele><time>2026-04-12T06:28:45.3Z</time></trkpt><trkpt lat="43.9025411" lon="12.4071633"><ele>504.0</ele><time>2026-04-12T06:28:46.296Z</time></trkpt><trkpt lat="43.9025078" lon="12.4072826"><ele>502.0</ele><time>2026-04-12T06:28:47.288Z</time></trkpt><trkpt lat="43.902471" lon="12.407401"><ele>500.0</ele><time>2026-04-12T06:28:48.3Z</time></trkpt><trkpt lat="43.9024391" lon="12.4075122"><ele>498.00000000000006</ele><time>2026-04-12T06:28:49.301Z</time></trkpt><trkpt lat="43.9024032" lon="12.4076215"><ele>496.0</ele><time>2026-04-12T06:28:50.286Z</time></trkpt><trkpt lat="43.9023645" lon="12.4077244"><ele>496.00000000000006</ele><time>2026-04-12T06:28:51.297Z</time></trkpt><trkpt lat="43.9023274" lon="12.4078315"><ele>496.0</ele><time>2026-04-12T06:28:52.296Z</time></trkpt><trkpt lat="43.9022948" lon="12.4079433"><ele>496.0</ele><time>2026-04-12T06:28:53.304Z</time></trkpt><trkpt lat="43.9022589" lon="12.40806"><ele>496.0</ele><time>2026-04-12T06:28:54.297Z</time></trkpt><trkpt lat="43.9022264" lon="12.4081657"><ele>496.00000000000006</ele><time>2026-04-12T06:28:55.306Z</time></trkpt><trkpt lat="43.9021963" lon="12.408281"><ele>496.0</ele><time>2026-04-12T06:28:56.279Z</time></trkpt><trkpt lat="43.9021715" lon="12.4083855"><ele>495.83333333333337</ele><time>2026-04-12T06:28:57.295Z</time></trkpt><trkpt lat="43.9021527" lon="12.4084974"><ele>495.6666666666667</ele><time>2026-04-12T06:28:58.316Z</time></trkpt><trkpt lat="43.9021346" lon="12.4086123"><ele>495.5</ele><time>2026-04-12T06:28:59.314Z</time></trkpt><trkpt lat="43.9021183" lon="12.4087352"><ele>495.33333333333337</ele><time>2026-04-12T06:29:00.325Z</time></trkpt><trkpt lat="43.9020971" lon="12.4088578"><ele>495.1666666666667</ele><time>2026-04-12T06:29:01.313Z</time></trkpt><trkpt lat="43.9020716" lon="12.408977"><ele>495.0</ele><time>2026-04-12T06:29:02.306Z</time></trkpt><trkpt lat="43.9020466" lon="12.4090854"><ele>494.71428571428567</ele><time>2026-04-12T06:29:03.308Z</time></trkpt><trkpt lat="43.9020143" lon="12.4091985"><ele>494.42857142857144</ele><time>2026-04-12T06:29:04.294Z</time></trkpt><trkpt lat="43.9019817" lon="12.4092945"><ele>494.1428571428571</ele><time>2026-04-12T06:29:05.244Z</time></trkpt><trkpt lat="43.9019496" lon="12.4093807"><ele>493.85714285714283</ele><time>2026-04-12T06:29:06.271Z</time></trkpt><trkpt lat="43.9019213" lon="12.4094636"><ele>493.57142857142856</ele><time>2026-04-12T06:29:07.301Z</time></trkpt><trkpt lat="43.9018844" lon="12.40955"><ele>493.2857142857143</ele><time>2026-04-12T06:29:08.3Z</time></trkpt><trkpt lat="43.9018493" lon="12.4096364"><ele>493.0</ele><time>2026-04-12T06:29:09.315Z</time></trkpt><trkpt lat="43.9018204" lon="12.4097148"><ele>492.57142857142856</ele><time>2026-04-12T06:29:10.303Z</time></trkpt><trkpt lat="43.9017853" lon="12.4097986"><ele>492.14285714285717</ele><time>2026-04-12T06:29:11.322Z</time></trkpt><trkpt lat="43.9017486" lon="12.4098729"><ele>491.7142857142857</ele><time>2026-04-12T06:29:12.278Z</time></trkpt><trkpt lat="43.9017116" lon="12.4099518"><ele>491.2857142857143</ele><time>2026-04-12T06:29:13.269Z</time></trkpt><trkpt lat="43.9016748" lon="12.4100249"><ele>490.8571428571429</ele><time>2026-04-12T06:29:14.306Z</time></trkpt><trkpt lat="43.9016296" lon="12.4100928"><ele>490.42857142857144</ele><time>2026-04-12T06:29:15.301Z</time></trkpt><trkpt lat="43.9015842" lon="12.4101675"><ele>490.0</ele><time>2026-04-12T06:29:16.274Z</time></trkpt><trkpt lat="43.9015396" lon="12.4102323"><ele>490.0</ele><time>2026-04-12T06:29:17.309Z</time></trkpt><trkpt lat="43.9014893" lon="12.4103004"><ele>490.0</ele><time>2026-04-12T06:29:18.3Z</time></trkpt><trkpt lat="43.9014358" lon="12.4103619"><ele>490.0</ele><time>2026-04-12T06:29:19.305Z</time></trkpt><trkpt lat="43.9013836" lon="12.4104203"><ele>490.0</ele><time>2026-04-12T06:29:20.302Z</time></trkpt><trkpt lat="43.9013309" lon="12.4104822"><ele>490.0</ele><time>2026-04-12T06:29:21.3Z</time></trkpt><trkpt lat="43.9012801" lon="12.4105357"><ele>490.0</ele><time>2026-04-12T06:29:22.25Z</time></trkpt><trkpt lat="43.9012251" lon="12.4105933"><ele>490.0</ele><time>2026-04-12T06:29:23.297Z</time></trkpt><trkpt lat="43.9011681" lon="12.4106467"><ele>490.6</ele><time>2026-04-12T06:29:24.296Z</time></trkpt><trkpt lat="43.9011147" lon="12.4106975"><ele>491.2</ele><time>2026-04-12T06:29:25.26Z</time></trkpt><trkpt lat="43.9010031" lon="12.4107676"><ele>491.79999999999995</ele><time>2026-04-12T06:29:27.309Z</time></trkpt><trkpt lat="43.9008851" lon="12.4108014"><ele>492.4</ele><time>2026-04-12T06:29:29.293Z</time></trkpt><trkpt lat="43.900823" lon="12.4108223"><ele>493.0</ele><time>2026-04-12T06:29:30.263Z</time></trkpt><trkpt lat="43.900705" lon="12.4108679"><ele>493.0</ele><time>2026-04-12T06:29:32.313Z</time></trkpt><trkpt lat="43.900595" lon="12.4109107"><ele>493.0</ele><time>2026-04-12T06:29:34.306Z</time></trkpt><trkpt lat="43.9004895" lon="12.4109689"><ele>493.0</ele><time>2026-04-12T06:29:36.287Z</time></trkpt><trkpt lat="43.9003837" lon="12.4110528"><ele>493.0</ele><time>2026-04-12T06:29:38.296Z</time></trkpt><trkpt lat="43.9002902" lon="12.4111605"><ele>493.00000000000006</ele><time>2026-04-12T06:29:40.3Z</time></trkpt><trkpt lat="43.9002206" lon="12.4112996"><ele>493.0</ele><time>2026-04-12T06:29:42.289Z</time></trkpt><trkpt lat="43.9001808" lon="12.4114646"><ele>493.0</ele><time>2026-04-12T06:29:44.297Z</time></trkpt><trkpt lat="43.9001717" lon="12.4115589"><ele>493.0</ele><time>2026-04-12T06:29:45.304Z</time></trkpt><trkpt lat="43.9001704" lon="12.4116532"><ele>493.00000000000006</ele><time>2026-04-12T06:29:46.276Z</time></trkpt><trkpt lat="43.9001723" lon="12.4117424"><ele>493.0</ele><time>2026-04-12T06:29:47.273Z</time></trkpt><trkpt lat="43.900184" lon="12.4119121"><ele>493.0</ele><time>2026-04-12T06:29:49.309Z</time></trkpt><trkpt lat="43.9002099" lon="12.4120095"><ele>493.0</ele><time>2026-04-12T06:29:50.248Z</time></trkpt><trkpt lat="43.9002337" lon="12.4120919"><ele>493.0</ele><time>2026-04-12T06:29:51.273Z</time></trkpt><trkpt lat="43.9002794" lon="12.4121788"><ele>493.0</ele><time>2026-04-12T06:29:52.311Z</time></trkpt><trkpt lat="43.9003131" lon="12.4122742"><ele>493.0</ele><time>2026-04-12T06:29:53.304Z</time></trkpt><trkpt lat="43.9003545" lon="12.4123674"><ele>493.0</ele><time>2026-04-12T06:29:54.314Z</time></trkpt><trkpt lat="43.9003906" lon="12.4124567"><ele>493.0</ele><time>2026-04-12T06:29:55.287Z</time></trkpt><trkpt lat="43.9004206" lon="12.4125418"><ele>493.00000000000006</ele><time>2026-04-12T06:29:56.287Z</time></trkpt><trkpt lat="43.9004527" lon="12.4126302"><ele>493.0</ele><time>2026-04-12T06:29:57.271Z</time></trkpt><trkpt lat="43.900481" lon="12.41272"><ele>493.0</ele><time>2026-04-12T06:29:58.268Z</time></trkpt><trkpt lat="43.9004963" lon="12.412811"><ele>493.0</ele><time>2026-04-12T06:29:59.309Z</time></trkpt><trkpt lat="43.9005084" lon="12.4128979"><ele>493.00000000000006</ele><time>2026-04-12T06:30:00.295Z</time></trkpt><trkpt lat="43.900513" lon="12.4130741"><ele>493.0</ele><time>2026-04-12T06:30:02.322Z</time></trkpt><trkpt lat="43.9005123" lon="12.4132492"><ele>492.79999999999995</ele><time>2026-04-12T06:30:04.305Z</time></trkpt><trkpt lat="43.9004815" lon="12.413401"><ele>492.59999999999997</ele><time>2026-04-12T06:30:06.242Z</time></trkpt><trkpt lat="43.9004267" lon="12.4135095"><ele>492.40000000000003</ele><time>2026-04-12T06:30:08.307Z</time></trkpt><trkpt lat="43.9003593" lon="12.4136067"><ele>492.20000000000005</ele><time>2026-04-12T06:30:10.307Z</time></trkpt><trkpt lat="43.9002655" lon="12.4136798"><ele>492.0</ele><time>2026-04-12T06:30:12.294Z</time></trkpt><trkpt lat="43.9001876" lon="12.4137317"><ele>492.0</ele><time>2026-04-12T06:30:14.297Z</time></trkpt><trkpt lat="43.9001147" lon="12.4137828"><ele>492.0</ele><time>2026-04-12T06:30:16.259Z</time></trkpt><trkpt lat="43.9000511" lon="12.4138247"><ele>492.0</ele><time>2026-04-12T06:30:18.309Z</time></trkpt><trkpt lat="43.8999824" lon="12.4138535"><ele>492.0</ele><time>2026-04-12T06:30:20.298Z</time></trkpt><trkpt lat="43.8999159" lon="12.4138893"><ele>492.0</ele><time>2026-04-12T06:30:22.279Z</time></trkpt><trkpt lat="43.8998411" lon="12.4139563"><ele>492.0</ele><time>2026-04-12T06:30:24.306Z</time></trkpt><trkpt lat="43.8997929" lon="12.4140557"><ele>492.5</ele><time>2026-04-12T06:30:26.321Z</time></trkpt><trkpt lat="43.8997626" lon="12.4141515"><ele>493.0</ele><time>2026-04-12T06:30:28.289Z</time></trkpt><trkpt lat="43.8997573" lon="12.4142483"><ele>493.5</ele><time>2026-04-12T06:30:30.302Z</time></trkpt><trkpt lat="43.8997656" lon="12.4143541"><ele>494.0</ele><time>2026-04-12T06:30:32.309Z</time></trkpt><trkpt lat="43.8997792" lon="12.4144543"><ele>494.5</ele><time>2026-04-12T06:30:34.317Z</time></trkpt><trkpt lat="43.8998011" lon="12.4145542"><ele>495.0</ele><time>2026-04-12T06:30:36.291Z</time></trkpt><trkpt lat="43.8998226" lon="12.4146601"><ele>495.71428571428567</ele><time>2026-04-12T06:30:38.289Z</time></trkpt><trkpt lat="43.899833" lon="12.4147556"><ele>496.42857142857144</ele><time>2026-04-12T06:30:40.322Z</time></trkpt><trkpt lat="43.899847" lon="12.4148589"><ele>497.1428571428571</ele><time>2026-04-12T06:30:42.308Z</time></trkpt><trkpt lat="43.8998645" lon="12.4149622"><ele>497.85714285714283</ele><time>2026-04-12T06:30:44.296Z</time></trkpt><trkpt lat="43.8998756" lon="12.4150814"><ele>498.57142857142856</ele><time>2026-04-12T06:30:46.317Z</time></trkpt><trkpt lat="43.8998846" lon="12.4151769"><ele>499.2857142857143</ele><time>2026-04-12T06:30:48.294Z</time></trkpt><trkpt lat="43.8998934" lon="12.4152703"><ele>500.0</ele><time>2026-04-12T06:30:50.284Z</time></trkpt><trkpt lat="43.8998917" lon="12.415396"><ele>500.0</ele><time>2026-04-12T06:30:53.31Z</time></trkpt><trkpt lat="43.8998835" lon="12.4154835"><ele>500.0</ele><time>2026-04-12T06:30:55.311Z</time></trkpt><trkpt lat="43.8998709" lon="12.4155694"><ele>500.0</ele><time>2026-04-12T06:30:57.3Z</time></trkpt><trkpt lat="43.8998604" lon="12.41566"><ele>500.0</ele><time>2026-04-12T06:30:59.308Z</time></trkpt><trkpt lat="43.8998338" lon="12.4157408"><ele>500.0</ele><time>2026-04-12T06:31:01.303Z</time></trkpt><trkpt lat="43.8997928" lon="12.4158532"><ele>500.0</ele><time>2026-04-12T06:31:04.295Z</time></trkpt><trkpt lat="43.8997479" lon="12.415969"><ele>500.0</ele><time>2026-04-12T06:31:07.285Z</time></trkpt><trkpt lat="43.8997162" lon="12.4160449"><ele>500.8333333333333</ele><time>2026-04-12T06:31:09.312Z</time></trkpt><trkpt lat="43.8996658" lon="12.4161531"><ele>501.66666666666663</ele><time>2026-04-12T06:31:12.295Z</time></trkpt><trkpt lat="43.8996056" lon="12.4162508"><ele>502.5</ele><time>2026-04-12T06:31:15.287Z</time></trkpt><trkpt lat="43.8995426" lon="12.4163514"><ele>503.33333333333337</ele><time>2026-04-12T06:31:18.303Z</time></trkpt><trkpt lat="43.8994948" lon="12.4164115"><ele>504.1666666666667</ele><time>2026-04-12T06:31:20.313Z</time></trkpt><trkpt lat="43.8994369" lon="12.4164687"><ele>505.0</ele><time>2026-04-12T06:31:22.261Z</time></trkpt><trkpt lat="43.8993774" lon="12.4165141"><ele>505.57142857142856</ele><time>2026-04-12T06:31:24.301Z</time></trkpt><trkpt lat="43.8993251" lon="12.4165631"><ele>506.1428571428571</ele><time>2026-04-12T06:31:26.308Z</time></trkpt><trkpt lat="43.8992669" lon="12.4166085"><ele>506.71428571428567</ele><time>2026-04-12T06:31:28.304Z</time></trkpt><trkpt lat="43.8992119" lon="12.4166537"><ele>507.2857142857142</ele><time>2026-04-12T06:31:30.306Z</time></trkpt><trkpt lat="43.899156" lon="12.4166961"><ele>507.85714285714283</ele><time>2026-04-12T06:31:32.296Z</time></trkpt><trkpt lat="43.8990761" lon="12.4167532"><ele>508.42857142857133</ele><time>2026-04-12T06:31:35.242Z</time></trkpt><trkpt lat="43.89902" lon="12.4167971"><ele>508.99999999999994</ele><time>2026-04-12T06:31:37.239Z</time></trkpt><trkpt lat="43.8989562" lon="12.4168632"><ele>508.99999999999994</ele><time>2026-04-12T06:31:40.302Z</time></trkpt><trkpt lat="43.8989067" lon="12.4169232"><ele>509.0</ele><time>2026-04-12T06:31:42.291Z</time></trkpt><trkpt lat="43.8988426" lon="12.4170158"><ele>509.0</ele><time>2026-04-12T06:31:45.291Z</time></trkpt><trkpt lat="43.8987994" lon="12.4170812"><ele>509.0</ele><time>2026-04-12T06:31:47.255Z</time></trkpt><trkpt lat="43.8987328" lon="12.4171569"><ele>508.99999999999994</ele><time>2026-04-12T06:31:50.254Z</time></trkpt><trkpt lat="43.8986579" lon="12.4172399"><ele>509.0</ele><time>2026-04-12T06:31:53.289Z</time></trkpt><trkpt lat="43.8985846" lon="12.4173242"><ele>510.16666666666663</ele><time>2026-04-12T06:31:56.283Z</time></trkpt><trkpt lat="43.8985147" lon="12.4174023"><ele>511.3333333333333</ele><time>2026-04-12T06:31:59.282Z</time></trkpt><trkpt lat="43.898441" lon="12.417479"><ele>512.5</ele><time>2026-04-12T06:32:02.27Z</time></trkpt><trkpt lat="43.8983606" lon="12.4175373"><ele>513.6666666666666</ele><time>2026-04-12T06:32:05.29Z</time></trkpt><trkpt lat="43.8982952" lon="12.4175679"><ele>514.8333333333334</ele><time>2026-04-12T06:32:07.27Z</time></trkpt><trkpt lat="43.8982163" lon="12.4176105"><ele>516.0</ele><time>2026-04-12T06:32:10.325Z</time></trkpt><trkpt lat="43.8981324" lon="12.4176582"><ele>516.0</ele><time>2026-04-12T06:32:13.321Z</time></trkpt><trkpt lat="43.8980481" lon="12.4176859"><ele>516.0</ele><time>2026-04-12T06:32:16.291Z</time></trkpt><trkpt lat="43.8979674" lon="12.4177255"><ele>516.0</ele><time>2026-04-12T06:32:19.279Z</time></trkpt><trkpt lat="43.897882" lon="12.4177609"><ele>516.0</ele><time>2026-04-12T06:32:22.302Z</time></trkpt><trkpt lat="43.8977971" lon="12.4177916"><ele>516.0</ele><time>2026-04-12T06:32:25.316Z</time></trkpt><trkpt lat="43.8977061" lon="12.4178413"><ele>516.0</ele><time>2026-04-12T06:32:28.277Z</time></trkpt><trkpt lat="43.8976399" lon="12.4178816"><ele>515.8333333333334</ele><time>2026-04-12T06:32:30.283Z</time></trkpt><trkpt lat="43.8975748" lon="12.4179253"><ele>515.6666666666666</ele><time>2026-04-12T06:32:32.317Z</time></trkpt><trkpt lat="43.8975141" lon="12.4179664"><ele>515.5</ele><time>2026-04-12T06:32:34.266Z</time></trkpt><trkpt lat="43.897431" lon="12.4180223"><ele>515.3333333333333</ele><time>2026-04-12T06:32:37.312Z</time></trkpt><trkpt lat="43.8973614" lon="12.4180768"><ele>515.1666666666666</ele><time>2026-04-12T06:32:40.263Z</time></trkpt><trkpt lat="43.8972839" lon="12.4181252"><ele>515.0</ele><time>2026-04-12T06:32:43.323Z</time></trkpt><trkpt lat="43.8972088" lon="12.4181728"><ele>516.3333333333333</ele><time>2026-04-12T06:32:46.305Z</time></trkpt><trkpt lat="43.8971164" lon="12.4182213"><ele>517.6666666666666</ele><time>2026-04-12T06:32:49.313Z</time></trkpt><trkpt lat="43.8970564" lon="12.418251"><ele>519.0</ele><time>2026-04-12T06:32:51.322Z</time></trkpt><trkpt lat="43.8969881" lon="12.4182843"><ele>520.3333333333334</ele><time>2026-04-12T06:32:53.3Z</time></trkpt><trkpt lat="43.8969016" lon="12.4183206"><ele>521.6666666666667</ele><time>2026-04-12T06:32:56.287Z</time></trkpt><trkpt lat="43.8968322" lon="12.4183338"><ele>523.0</ele><time>2026-04-12T06:32:58.278Z</time></trkpt><trkpt lat="43.8967648" lon="12.4183261"><ele>523.5</ele><time>2026-04-12T06:33:00.293Z</time></trkpt><trkpt lat="43.8966863" lon="12.4183262"><ele>524.0</ele><time>2026-04-12T06:33:02.29Z</time></trkpt><trkpt lat="43.896611" lon="12.4183121"><ele>524.5</ele><time>2026-04-12T06:33:04.3Z</time></trkpt><trkpt lat="43.8965324" lon="12.4182714"><ele>525.0</ele><time>2026-04-12T06:33:06.281Z</time></trkpt><trkpt lat="43.8964643" lon="12.4182102"><ele>525.5</ele><time>2026-04-12T06:33:08.304Z</time></trkpt><trkpt lat="43.8963973" lon="12.4181275"><ele>526.0</ele><time>2026-04-12T06:33:10.282Z</time></trkpt><trkpt lat="43.8963575" lon="12.4180168"><ele>524.0</ele><time>2026-04-12T06:33:12.25Z</time></trkpt><trkpt lat="43.8963336" lon="12.4179004"><ele>522.0</ele><time>2026-04-12T06:33:14.312Z</time></trkpt><trkpt lat="43.8963022" lon="12.4177851"><ele>520.0</ele><time>2026-04-12T06:33:16.286Z</time></trkpt><trkpt lat="43.8962718" lon="12.4176679"><ele>518.0</ele><time>2026-04-12T06:33:18.263Z</time></trkpt><trkpt lat="43.8962326" lon="12.4175372"><ele>516.0</ele><time>2026-04-12T06:33:20.309Z</time></trkpt><trkpt lat="43.8961693" lon="12.4173976"><ele>516.0</ele><time>2026-04-12T06:33:22.3Z</time></trkpt><trkpt lat="43.8960886" lon="12.4173066"><ele>516.0</ele><time>2026-04-12T06:33:24.26Z</time></trkpt><trkpt lat="43.8959822" lon="12.4172574"><ele>516.0</ele><time>2026-04-12T06:33:26.301Z</time></trkpt><trkpt lat="43.8958651" lon="12.4172556"><ele>516.0</ele><time>2026-04-12T06:33:28.26Z</time></trkpt><trkpt lat="43.8957416" lon="12.417272"><ele>517.3333333333334</ele><time>2026-04-12T06:33:30.26Z</time></trkpt><trkpt lat="43.8956778" lon="12.417294"><ele>518.6666666666666</ele><time>2026-04-12T06:33:31.262Z</time></trkpt><trkpt lat="43.8956156" lon="12.4173094"><ele>520.0</ele><time>2026-04-12T06:33:32.313Z</time></trkpt><trkpt lat="43.8954854" lon="12.4173137"><ele>521.3333333333333</ele><time>2026-04-12T06:33:34.246Z</time></trkpt><trkpt lat="43.8954196" lon="12.4173036"><ele>522.6666666666666</ele><time>2026-04-12T06:33:35.264Z</time></trkpt><trkpt lat="43.895352" lon="12.4172843"><ele>524.0</ele><time>2026-04-12T06:33:36.293Z</time></trkpt><trkpt lat="43.8952831" lon="12.417263"><ele>524.0</ele><time>2026-04-12T06:33:37.251Z</time></trkpt><trkpt lat="43.8952183" lon="12.4172293"><ele>524.0</ele><time>2026-04-12T06:33:38.249Z</time></trkpt><trkpt lat="43.8951519" lon="12.4171925"><ele>524.0</ele><time>2026-04-12T06:33:39.267Z</time></trkpt><trkpt lat="43.8950886" lon="12.4171477"><ele>524.0</ele><time>2026-04-12T06:33:40.262Z</time></trkpt><trkpt lat="43.8950231" lon="12.4171044"><ele>524.0</ele><time>2026-04-12T06:33:41.256Z</time></trkpt><trkpt lat="43.8949531" lon="12.4170602"><ele>524.0</ele><time>2026-04-12T06:33:42.244Z</time></trkpt><trkpt lat="43.8948874" lon="12.4170154"><ele>524.0</ele><time>2026-04-12T06:33:43.262Z</time></trkpt><trkpt lat="43.8948156" lon="12.4169603"><ele>522.1666666666666</ele><time>2026-04-12T06:33:44.256Z</time></trkpt><trkpt lat="43.8947479" lon="12.4169074"><ele>520.3333333333333</ele><time>2026-04-12T06:33:45.247Z</time></trkpt><trkpt lat="43.894681" lon="12.4168491"><ele>518.5</ele><time>2026-04-12T06:33:46.3Z</time></trkpt><trkpt lat="43.8946233" lon="12.4167791"><ele>516.6666666666666</ele><time>2026-04-12T06:33:47.271Z</time></trkpt><trkpt lat="43.8945642" lon="12.4167032"><ele>514.8333333333334</ele><time>2026-04-12T06:33:48.24Z</time></trkpt><trkpt lat="43.8945136" lon="12.4166145"><ele>513.0</ele><time>2026-04-12T06:33:49.244Z</time></trkpt><trkpt lat="43.894462" lon="12.4165282"><ele>513.0</ele><time>2026-04-12T06:33:50.263Z</time></trkpt><trkpt lat="43.8944081" lon="12.4164446"><ele>513.0</ele><time>2026-04-12T06:33:51.255Z</time></trkpt><trkpt lat="43.89436" lon="12.4163624"><ele>513.0</ele><time>2026-04-12T06:33:52.253Z</time></trkpt><trkpt lat="43.8943055" lon="12.4162842"><ele>513.0</ele><time>2026-04-12T06:33:53.308Z</time></trkpt><trkpt lat="43.8942482" lon="12.4162142"><ele>513.0</ele><time>2026-04-12T06:33:54.303Z</time></trkpt><trkpt lat="43.8941968" lon="12.4161398"><ele>513.0</ele><time>2026-04-12T06:33:55.309Z</time></trkpt><trkpt lat="43.8941381" lon="12.4160698"><ele>513.1666666666666</ele><time>2026-04-12T06:33:56.302Z</time></trkpt><trkpt lat="43.8940789" lon="12.4159998"><ele>513.3333333333334</ele><time>2026-04-12T06:33:57.245Z</time></trkpt><trkpt lat="43.8940256" lon="12.4159257"><ele>513.5</ele><time>2026-04-12T06:33:58.269Z</time></trkpt><trkpt lat="43.8939754" lon="12.415851"><ele>513.6666666666667</ele><time>2026-04-12T06:33:59.302Z</time></trkpt><trkpt lat="43.8939171" lon="12.4157771"><ele>513.8333333333334</ele><time>2026-04-12T06:34:00.264Z</time></trkpt><trkpt lat="43.8938607" lon="12.4156947"><ele>514.0</ele><time>2026-04-12T06:34:01.313Z</time></trkpt><trkpt lat="43.8938006" lon="12.4156133"><ele>514.0</ele><time>2026-04-12T06:34:02.308Z</time></trkpt><trkpt lat="43.893741" lon="12.4155414"><ele>514.0</ele><time>2026-04-12T06:34:03.271Z</time></trkpt><trkpt lat="43.893677" lon="12.4154629"><ele>514.0</ele><time>2026-04-12T06:34:04.272Z</time></trkpt><trkpt lat="43.8936148" lon="12.4153949"><ele>514.0</ele><time>2026-04-12T06:34:05.289Z</time></trkpt><trkpt lat="43.8935428" lon="12.4153252"><ele>514.0</ele><time>2026-04-12T06:34:06.268Z</time></trkpt><trkpt lat="43.893471" lon="12.4152442"><ele>514.0</ele><time>2026-04-12T06:34:07.292Z</time></trkpt><trkpt lat="43.8934001" lon="12.4151595"><ele>513.8333333333334</ele><time>2026-04-12T06:34:08.311Z</time></trkpt><trkpt lat="43.8933396" lon="12.4150637"><ele>513.6666666666667</ele><time>2026-04-12T06:34:09.313Z</time></trkpt><trkpt lat="43.8932762" lon="12.4149762"><ele>513.5</ele><time>2026-04-12T06:34:10.3Z</time></trkpt><trkpt lat="43.8932127" lon="12.414883"><ele>513.3333333333334</ele><time>2026-04-12T06:34:11.286Z</time></trkpt><trkpt lat="43.8931564" lon="12.414789"><ele>513.1666666666666</ele><time>2026-04-12T06:34:12.274Z</time></trkpt><trkpt lat="43.8930969" lon="12.4147031"><ele>513.0</ele><time>2026-04-12T06:34:13.285Z</time></trkpt><trkpt lat="43.8930397" lon="12.4146217"><ele>511.1666666666667</ele><time>2026-04-12T06:34:14.301Z</time></trkpt><trkpt lat="43.8929802" lon="12.4145414"><ele>509.33333333333337</ele><time>2026-04-12T06:34:15.31Z</time></trkpt><trkpt lat="43.8929109" lon="12.4144707"><ele>507.5</ele><time>2026-04-12T06:34:16.305Z</time></trkpt><trkpt lat="43.892841" lon="12.4143976"><ele>505.6666666666667</ele><time>2026-04-12T06:34:17.328Z</time></trkpt><trkpt lat="43.8927671" lon="12.4143224"><ele>503.83333333333337</ele><time>2026-04-12T06:34:18.318Z</time></trkpt><trkpt lat="43.8927077" lon="12.4142355"><ele>502.0</ele><time>2026-04-12T06:34:19.315Z</time></trkpt><trkpt lat="43.8926473" lon="12.4141417"><ele>501.50000000000006</ele><time>2026-04-12T06:34:20.312Z</time></trkpt><trkpt lat="43.8925863" lon="12.4140531"><ele>501.0</ele><time>2026-04-12T06:34:21.257Z</time></trkpt><trkpt lat="43.892533" lon="12.4139658"><ele>500.5</ele><time>2026-04-12T06:34:22.273Z</time></trkpt><trkpt lat="43.8924718" lon="12.4138799"><ele>500.0</ele><time>2026-04-12T06:34:23.273Z</time></trkpt><trkpt lat="43.8924012" lon="12.4138033"><ele>499.50000000000006</ele><time>2026-04-12T06:34:24.246Z</time></trkpt><trkpt lat="43.8923246" lon="12.4137471"><ele>499.0</ele><time>2026-04-12T06:34:25.269Z</time></trkpt><trkpt lat="43.8922366" lon="12.4137226"><ele>499.00000000000006</ele><time>2026-04-12T06:34:26.26Z</time></trkpt><trkpt lat="43.8921526" lon="12.4137116"><ele>499.0</ele><time>2026-04-12T06:34:27.246Z</time></trkpt><trkpt lat="43.8920663" lon="12.4137118"><ele>499.0</ele><time>2026-04-12T06:34:28.244Z</time></trkpt><trkpt lat="43.891983" lon="12.4137175"><ele>499.0</ele><time>2026-04-12T06:34:29.239Z</time></trkpt><trkpt lat="43.8918999" lon="12.4137321"><ele>499.00000000000006</ele><time>2026-04-12T06:34:30.247Z</time></trkpt><trkpt lat="43.8918102" lon="12.4137407"><ele>499.0</ele><time>2026-04-12T06:34:31.266Z</time></trkpt><trkpt lat="43.8917294" lon="12.4137011"><ele>500.0</ele><time>2026-04-12T06:34:32.305Z</time></trkpt><trkpt lat="43.8916614" lon="12.4136205"><ele>501.0</ele><time>2026-04-12T06:34:33.298Z</time></trkpt><trkpt lat="43.8916213" lon="12.4134916"><ele>502.0</ele><time>2026-04-12T06:34:34.29Z</time></trkpt><trkpt lat="43.8916101" lon="12.4133638"><ele>503.0</ele><time>2026-04-12T06:34:35.24Z</time></trkpt><trkpt lat="43.8916002" lon="12.4132342"><ele>504.0</ele><time>2026-04-12T06:34:36.267Z</time></trkpt><trkpt lat="43.8915738" lon="12.4131171"><ele>504.0</ele><time>2026-04-12T06:34:37.282Z</time></trkpt><trkpt lat="43.8915293" lon="12.4129948"><ele>504.0</ele><time>2026-04-12T06:34:38.254Z</time></trkpt><trkpt lat="43.8914786" lon="12.4128746"><ele>504.0</ele><time>2026-04-12T06:34:39.308Z</time></trkpt><trkpt lat="43.8914107" lon="12.4127657"><ele>504.0</ele><time>2026-04-12T06:34:40.317Z</time></trkpt><trkpt lat="43.8913365" lon="12.412664"><ele>504.0</ele><time>2026-04-12T06:34:41.314Z</time></trkpt><trkpt lat="43.8912511" lon="12.4125599"><ele>503.6</ele><time>2026-04-12T06:34:42.271Z</time></trkpt><trkpt lat="43.8911571" lon="12.4124823"><ele>503.2</ele><time>2026-04-12T06:34:43.261Z</time></trkpt><trkpt lat="43.8910448" lon="12.4124263"><ele>502.80000000000007</ele><time>2026-04-12T06:34:44.248Z</time></trkpt><trkpt lat="43.8909446" lon="12.4123668"><ele>502.40000000000003</ele><time>2026-04-12T06:34:45.26Z</time></trkpt><trkpt lat="43.8908437" lon="12.4123407"><ele>502.0</ele><time>2026-04-12T06:34:46.249Z</time></trkpt><trkpt lat="43.8907345" lon="12.4123694"><ele>499.5</ele><time>2026-04-12T06:34:47.242Z</time></trkpt><trkpt lat="43.8906361" lon="12.4124443"><ele>497.0</ele><time>2026-04-12T06:34:48.239Z</time></trkpt><trkpt lat="43.8905376" lon="12.4125424"><ele>494.5</ele><time>2026-04-12T06:34:49.292Z</time></trkpt><trkpt lat="43.8904412" lon="12.4126478"><ele>492.0</ele><time>2026-04-12T06:34:50.252Z</time></trkpt><trkpt lat="43.8903432" lon="12.4127282"><ele>492.0</ele><time>2026-04-12T06:34:51.268Z</time></trkpt><trkpt lat="43.8902487" lon="12.412822"><ele>492.0</ele><time>2026-04-12T06:34:52.244Z</time></trkpt><trkpt lat="43.8901476" lon="12.4129166"><ele>492.0</ele><time>2026-04-12T06:34:53.235Z</time></trkpt><trkpt lat="43.8900482" lon="12.4130087"><ele>492.0</ele><time>2026-04-12T06:34:54.266Z</time></trkpt><trkpt lat="43.88995" lon="12.4130866"><ele>490.0</ele><time>2026-04-12T06:34:55.267Z</time></trkpt><trkpt lat="43.8898585" lon="12.4131531"><ele>488.00000000000006</ele><time>2026-04-12T06:34:56.268Z</time></trkpt><trkpt lat="43.889775" lon="12.4132304"><ele>486.00000000000006</ele><time>2026-04-12T06:34:57.312Z</time></trkpt><trkpt lat="43.8896925" lon="12.4133092"><ele>484.0</ele><time>2026-04-12T06:34:58.288Z</time></trkpt><trkpt lat="43.8896221" lon="12.4133917"><ele>482.0</ele><time>2026-04-12T06:34:59.265Z</time></trkpt><trkpt lat="43.8895705" lon="12.4134906"><ele>481.99999999999994</ele><time>2026-04-12T06:35:00.266Z</time></trkpt><trkpt lat="43.8895294" lon="12.4135952"><ele>482.0</ele><time>2026-04-12T06:35:01.244Z</time></trkpt><trkpt lat="43.8895197" lon="12.4136887"><ele>482.0</ele><time>2026-04-12T06:35:02.271Z</time></trkpt><trkpt lat="43.8894951" lon="12.4137843"><ele>482.0</ele><time>2026-04-12T06:35:03.243Z</time></trkpt><trkpt lat="43.8894828" lon="12.4138954"><ele>481.99999999999994</ele><time>2026-04-12T06:35:04.247Z</time></trkpt><trkpt lat="43.8894598" lon="12.4140141"><ele>482.0</ele><time>2026-04-12T06:35:05.251Z</time></trkpt><trkpt lat="43.8894206" lon="12.4141335"><ele>482.0</ele><time>2026-04-12T06:35:06.249Z</time></trkpt><trkpt lat="43.8893771" lon="12.4142543"><ele>482.00000000000006</ele><time>2026-04-12T06:35:07.25Z</time></trkpt><trkpt lat="43.8893253" lon="12.4143784"><ele>482.00000000000006</ele><time>2026-04-12T06:35:08.269Z</time></trkpt><trkpt lat="43.889275" lon="12.4144971"><ele>482.0</ele><time>2026-04-12T06:35:09.27Z</time></trkpt><trkpt lat="43.8892236" lon="12.4146037"><ele>482.0</ele><time>2026-04-12T06:35:10.305Z</time></trkpt><trkpt lat="43.8891758" lon="12.4147008"><ele>481.99999999999994</ele><time>2026-04-12T06:35:11.307Z</time></trkpt><trkpt lat="43.8891251" lon="12.4147836"><ele>482.0</ele><time>2026-04-12T06:35:12.314Z</time></trkpt><trkpt lat="43.8890636" lon="12.4148614"><ele>482.0</ele><time>2026-04-12T06:35:13.242Z</time></trkpt><trkpt lat="43.889002" lon="12.4149295"><ele>482.0</ele><time>2026-04-12T06:35:14.271Z</time></trkpt><trkpt lat="43.8889269" lon="12.4149861"><ele>481.99999999999994</ele><time>2026-04-12T06:35:15.276Z</time></trkpt><trkpt lat="43.8888414" lon="12.4150261"><ele>482.0</ele><time>2026-04-12T06:35:16.269Z</time></trkpt><trkpt lat="43.8887502" lon="12.4150393"><ele>482.0</ele><time>2026-04-12T06:35:17.283Z</time></trkpt><trkpt lat="43.8886578" lon="12.4150612"><ele>482.00000000000006</ele><time>2026-04-12T06:35:18.293Z</time></trkpt><trkpt lat="43.8885609" lon="12.4150928"><ele>482.00000000000006</ele><time>2026-04-12T06:35:19.287Z</time></trkpt><trkpt lat="43.8884715" lon="12.4151354"><ele>482.0</ele><time>2026-04-12T06:35:20.302Z</time></trkpt><trkpt lat="43.8883688" lon="12.4151862"><ele>482.0</ele><time>2026-04-12T06:35:21.295Z</time></trkpt><trkpt lat="43.8882792" lon="12.415238"><ele>479.8</ele><time>2026-04-12T06:35:22.267Z</time></trkpt><trkpt lat="43.8881812" lon="12.4152898"><ele>477.6</ele><time>2026-04-12T06:35:23.276Z</time></trkpt><trkpt lat="43.8880968" lon="12.4153049"><ele>475.40000000000003</ele><time>2026-04-12T06:35:24.313Z</time></trkpt><trkpt lat="43.8880041" lon="12.415296"><ele>473.20000000000005</ele><time>2026-04-12T06:35:25.295Z</time></trkpt><trkpt lat="43.8879191" lon="12.4152291"><ele>471.0</ele><time>2026-04-12T06:35:26.29Z</time></trkpt><trkpt lat="43.8878476" lon="12.4151008"><ele>471.0</ele><time>2026-04-12T06:35:27.286Z</time></trkpt><trkpt lat="43.8877814" lon="12.4149575"><ele>471.0</ele><time>2026-04-12T06:35:28.293Z</time></trkpt><trkpt lat="43.8896925" lon="12.4133092"><ele>472.8333333333333</ele><time>2026-04-12T06:34:58.288Z</time></trkpt><trkpt lat="43.8896221" lon="12.4133917"><ele>474.66666666666663</ele><time>2026-04-12T06:34:59.265Z</time></trkpt><trkpt lat="43.8895705" lon="12.4134906"><ele>476.5</ele><time>2026-04-12T06:35:00.266Z</time></trkpt><trkpt lat="43.8895294" lon="12.4135952"><ele>478.3333333333333</ele><time>2026-04-12T06:35:01.244Z</time></trkpt><trkpt lat="43.8895197" lon="12.4136887"><ele>480.16666666666663</ele><time>2026-04-12T06:35:02.271Z</time></trkpt><trkpt lat="43.8894951" lon="12.4137843"><ele>482.0</ele><time>2026-04-12T06:35:03.243Z</time></trkpt><trkpt lat="43.8894828" lon="12.4138954"><ele>482.6</ele><time>2026-04-12T06:35:04.247Z</time></trkpt><trkpt lat="43.8894598" lon="12.4140141"><ele>483.20000000000005</ele><time>2026-04-12T06:35:05.251Z</time></trkpt><trkpt lat="43.8894206" lon="12.4141335"><ele>483.8</ele><time>2026-04-12T06:35:06.249Z</time></trkpt><trkpt lat="43.8893771" lon="12.4142543"><ele>484.4</ele><time>2026-04-12T06:35:07.25Z</time></trkpt><trkpt lat="43.8893253" lon="12.4143784"><ele>485.0</ele><time>2026-04-12T06:35:08.269Z</time></trkpt><trkpt lat="43.889275" lon="12.4144971"><ele>484.49999999999994</ele><time>2026-04-12T06:35:09.27Z</time></trkpt><trkpt lat="43.8892236" lon="12.4146037"><ele>484.0</ele><time>2026-04-12T06:35:10.305Z</time></trkpt><trkpt lat="43.8891758" lon="12.4147008"><ele>483.5</ele><time>2026-04-12T06:35:11.307Z</time></trkpt><trkpt lat="43.8891251" lon="12.4147836"><ele>483.0</ele><time>2026-04-12T06:35:12.314Z</time></trkpt><trkpt lat="43.8890636" lon="12.4148614"><ele>482.49999999999994</ele><time>2026-04-12T06:35:13.242Z</time></trkpt><trkpt lat="43.889002" lon="12.4149295"><ele>482.0</ele><time>2026-04-12T06:35:14.271Z</time></trkpt><trkpt lat="43.8889269" lon="12.4149861"><ele>482.0</ele><time>2026-04-12T06:35:15.276Z</time></trkpt><trkpt lat="43.8888414" lon="12.4150261"><ele>482.00000000000006</ele><time>2026-04-12T06:35:16.269Z</time></trkpt><trkpt lat="43.8887502" lon="12.4150393"><ele>482.00000000000006</ele><time>2026-04-12T06:35:17.283Z</time></trkpt><trkpt lat="43.8886578" lon="12.4150612"><ele>482.0</ele><time>2026-04-12T06:35:18.293Z</time></trkpt><trkpt lat="43.8885609" lon="12.4150928"><ele>482.0</ele><time>2026-04-12T06:35:19.287Z</time></trkpt><trkpt lat="43.8884715" lon="12.4151354"><ele>479.8</ele><time>2026-04-12T06:35:20.302Z</time></trkpt><trkpt lat="43.8883688" lon="12.4151862"><ele>477.6</ele><time>2026-04-12T06:35:21.295Z</time></trkpt><trkpt lat="43.8882792" lon="12.415238"><ele>475.40000000000003</ele><time>2026-04-12T06:35:22.267Z</time></trkpt><trkpt lat="43.8881812" lon="12.4152898"><ele>473.20000000000005</ele><time>2026-04-12T06:35:23.276Z</time></trkpt><trkpt lat="43.8880968" lon="12.4153049"><ele>471.0</ele><time>2026-04-12T06:35:24.313Z</time></trkpt><trkpt lat="43.8880041" lon="12.415296"><ele>471.0</ele><time>2026-04-12T06:35:25.295Z</time></trkpt><trkpt lat="43.8879191" lon="12.4152291"><ele>471.0</ele><time>2026-04-12T06:35:26.29Z</time></trkpt><trkpt lat="43.8878476" lon="12.4151008"><ele>471.0</ele><time>2026-04-12T06:35:27.286Z</time></trkpt><trkpt lat="43.8877814" lon="12.4149575"><ele>471.0</ele><time>2026-04-12T06:35:28.293Z</time></trkpt><trkpt lat="43.8877041" lon="12.4148603"><ele>471.0</ele><time>2026-04-12T06:35:29.296Z</time></trkpt><trkpt lat="43.8876046" lon="12.4147841"><ele>470.0</ele><time>2026-04-12T06:35:30.273Z</time></trkpt><trkpt lat="43.8875037" lon="12.414751"><ele>469.0</ele><time>2026-04-12T06:35:31.28Z</time></trkpt><trkpt lat="43.8873966" lon="12.4147176"><ele>468.0</ele><time>2026-04-12T06:35:32.245Z</time></trkpt><trkpt lat="43.8872977" lon="12.4146491"><ele>467.0</ele><time>2026-04-12T06:35:33.268Z</time></trkpt><trkpt lat="43.887221" lon="12.4145488"><ele>466.0</ele><time>2026-04-12T06:35:34.308Z</time></trkpt><trkpt lat="43.8871491" lon="12.41443"><ele>464.0</ele><time>2026-04-12T06:35:35.299Z</time></trkpt><trkpt lat="43.8870709" lon="12.4143195"><ele>462.0</ele><time>2026-04-12T06:35:36.303Z</time></trkpt><trkpt lat="43.8869847" lon="12.4142219"><ele>460.0</ele><time>2026-04-12T06:35:37.311Z</time></trkpt><trkpt lat="43.8868855" lon="12.414127"><ele>458.0</ele><time>2026-04-12T06:35:38.296Z</time></trkpt><trkpt lat="43.8867867" lon="12.4140303"><ele>458.25</ele><time>2026-04-12T06:35:39.311Z</time></trkpt><trkpt lat="43.8866864" lon="12.4139316"><ele>458.5</ele><time>2026-04-12T06:35:40.273Z</time></trkpt><trkpt lat="43.8865942" lon="12.4138186"><ele>458.75</ele><time>2026-04-12T06:35:41.271Z</time></trkpt><trkpt lat="43.8864991" lon="12.4136983"><ele>459.0</ele><time>2026-04-12T06:35:42.267Z</time></trkpt><trkpt lat="43.8863997" lon="12.4135921"><ele>456.5</ele><time>2026-04-12T06:35:43.303Z</time></trkpt><trkpt lat="43.8863001" lon="12.4134876"><ele>454.0</ele><time>2026-04-12T06:35:44.3Z</time></trkpt><trkpt lat="43.8861931" lon="12.4133909"><ele>451.5</ele><time>2026-04-12T06:35:45.291Z</time></trkpt><trkpt lat="43.8860869" lon="12.4133051"><ele>449.0</ele><time>2026-04-12T06:35:46.296Z</time></trkpt><trkpt lat="43.8859961" lon="12.4132342"><ele>449.16666666666663</ele><time>2026-04-12T06:35:47.289Z</time></trkpt><trkpt lat="43.8859133" lon="12.4131804"><ele>449.3333333333333</ele><time>2026-04-12T06:35:48.295Z</time></trkpt><trkpt lat="43.8858361" lon="12.4131269"><ele>449.5</ele><time>2026-04-12T06:35:49.3Z</time></trkpt><trkpt lat="43.8857698" lon="12.4130569"><ele>449.66666666666663</ele><time>2026-04-12T06:35:50.27Z</time></trkpt><trkpt lat="43.885714" lon="12.4129445"><ele>449.8333333333333</ele><time>2026-04-12T06:35:52.305Z</time></trkpt><trkpt lat="43.8856659" lon="12.4128559"><ele>450.0</ele><time>2026-04-12T06:35:54.281Z</time></trkpt><trkpt lat="43.8856307" lon="12.4127793"><ele>450.0</ele><time>2026-04-12T06:35:56.304Z</time></trkpt><trkpt lat="43.8855821" lon="12.4127082"><ele>450.0</ele><time>2026-04-12T06:35:58.298Z</time></trkpt><trkpt lat="43.8855298" lon="12.4126157"><ele>450.0</ele><time>2026-04-12T06:36:00.269Z</time></trkpt><trkpt lat="43.8854605" lon="12.4125297"><ele>450.0</ele><time>2026-04-12T06:36:02.311Z</time></trkpt><trkpt lat="43.8853695" lon="12.4123966"><ele>450.0</ele><time>2026-04-12T06:36:04.272Z</time></trkpt><trkpt lat="43.8853131" lon="12.4123143"><ele>450.00000000000006</ele><time>2026-04-12T06:36:05.253Z</time></trkpt><trkpt lat="43.8852593" lon="12.4122243"><ele>450.0</ele><time>2026-04-12T06:36:06.301Z</time></trkpt><trkpt lat="43.8852083" lon="12.4121469"><ele>450.00000000000006</ele><time>2026-04-12T06:36:07.248Z</time></trkpt><trkpt lat="43.8851605" lon="12.412067"><ele>450.00000000000006</ele><time>2026-04-12T06:36:08.271Z</time></trkpt><trkpt lat="43.8851143" lon="12.411986"><ele>450.0</ele><time>2026-04-12T06:36:09.272Z</time></trkpt><trkpt lat="43.8850723" lon="12.4119192"><ele>450.00000000000006</ele><time>2026-04-12T06:36:10.248Z</time></trkpt><trkpt lat="43.8850292" lon="12.4118523"><ele>450.00000000000006</ele><time>2026-04-12T06:36:11.275Z</time></trkpt><trkpt lat="43.8849524" lon="12.4117197"><ele>449.8</ele><time>2026-04-12T06:36:13.294Z</time></trkpt><trkpt lat="43.8848943" lon="12.4115864"><ele>449.6</ele><time>2026-04-12T06:36:15.277Z</time></trkpt><trkpt lat="43.8848458" lon="12.4114189"><ele>449.4</ele><time>2026-04-12T06:36:17.252Z</time></trkpt><trkpt lat="43.8848199" lon="12.4113084"><ele>449.2</ele><time>2026-04-12T06:36:18.272Z</time></trkpt><trkpt lat="43.8847877" lon="12.4111805"><ele>449.0</ele><time>2026-04-12T06:36:19.32Z</time></trkpt><trkpt lat="43.8847458" lon="12.4110662"><ele>447.0</ele><time>2026-04-12T06:36:20.305Z</time></trkpt><trkpt lat="43.8846952" lon="12.4109598"><ele>445.0</ele><time>2026-04-12T06:36:21.318Z</time></trkpt><trkpt lat="43.884649" lon="12.4108571"><ele>443.0</ele><time>2026-04-12T06:36:22.249Z</time></trkpt><trkpt lat="43.88462" lon="12.4107348"><ele>441.0</ele><time>2026-04-12T06:36:23.271Z</time></trkpt><trkpt lat="43.8846017" lon="12.4106125"><ele>439.0</ele><time>2026-04-12T06:36:24.269Z</time></trkpt><trkpt lat="43.884633" lon="12.410494"><ele>437.6</ele><time>2026-04-12T06:36:25.27Z</time></trkpt><trkpt lat="43.8846802" lon="12.4103581"><ele>436.2</ele><time>2026-04-12T06:36:26.249Z</time></trkpt><trkpt lat="43.8847397" lon="12.4102181"><ele>434.80000000000007</ele><time>2026-04-12T06:36:27.24Z</time></trkpt><trkpt lat="43.8847789" lon="12.4100851"><ele>433.40000000000003</ele><time>2026-04-12T06:36:28.25Z</time></trkpt><trkpt lat="43.8847857" lon="12.4099415"><ele>432.0</ele><time>2026-04-12T06:36:29.278Z</time></trkpt><trkpt lat="43.8847582" lon="12.40981"><ele>432.0</ele><time>2026-04-12T06:36:30.267Z</time></trkpt><trkpt lat="43.8846964" lon="12.4096752"><ele>432.0</ele><time>2026-04-12T06:36:31.244Z</time></trkpt><trkpt lat="43.8846124" lon="12.4095742"><ele>432.0</ele><time>2026-04-12T06:36:32.264Z</time></trkpt><trkpt lat="43.8844981" lon="12.4095071"><ele>432.0</ele><time>2026-04-12T06:36:33.271Z</time></trkpt><trkpt lat="43.8843909" lon="12.4094777"><ele>429.25</ele><time>2026-04-12T06:36:34.271Z</time></trkpt><trkpt lat="43.8842843" lon="12.4094381"><ele>426.5</ele><time>2026-04-12T06:36:35.266Z</time></trkpt><trkpt lat="43.8841696" lon="12.4093758"><ele>423.75</ele><time>2026-04-12T06:36:36.272Z</time></trkpt><trkpt lat="43.8840608" lon="12.4093125"><ele>421.0</ele><time>2026-04-12T06:36:37.272Z</time></trkpt><trkpt lat="43.8839504" lon="12.4092556"><ele>421.0</ele><time>2026-04-12T06:36:38.273Z</time></trkpt><trkpt lat="43.8838296" lon="12.4091812"><ele>421.0</ele><time>2026-04-12T06:36:39.319Z</time></trkpt><trkpt lat="43.8837085" lon="12.4091074"><ele>421.0</ele><time>2026-04-12T06:36:40.314Z</time></trkpt><trkpt lat="43.8835976" lon="12.4090474"><ele>421.0</ele><time>2026-04-12T06:36:41.308Z</time></trkpt><trkpt lat="43.8834937" lon="12.4089964"><ele>419.8</ele><time>2026-04-12T06:36:42.317Z</time></trkpt><trkpt lat="43.8833897" lon="12.4089608"><ele>418.6</ele><time>2026-04-12T06:36:43.328Z</time></trkpt><trkpt lat="43.8832806" lon="12.4089385"><ele>417.4</ele><time>2026-04-12T06:36:44.307Z</time></trkpt><trkpt lat="43.8831735" lon="12.4089262"><ele>416.2</ele><time>2026-04-12T06:36:45.284Z</time></trkpt><trkpt lat="43.8830641" lon="12.4089114"><ele>415.0</ele><time>2026-04-12T06:36:46.3Z</time></trkpt><trkpt lat="43.8829512" lon="12.4088947"><ele>415.0</ele><time>2026-04-12T06:36:47.276Z</time></trkpt><trkpt lat="43.8828473" lon="12.4088824"><ele>415.0</ele><time>2026-04-12T06:36:48.318Z</time></trkpt><trkpt lat="43.8827493" lon="12.4088822"><ele>415.0</ele><time>2026-04-12T06:36:49.317Z</time></trkpt><trkpt lat="43.8826491" lon="12.4088695"><ele>415.0</ele><time>2026-04-12T06:36:50.301Z</time></trkpt><trkpt lat="43.8825589" lon="12.4088568"><ele>415.0</ele><time>2026-04-12T06:36:51.298Z</time></trkpt><trkpt lat="43.8824768" lon="12.4088414"><ele>412.83333333333337</ele><time>2026-04-12T06:36:52.292Z</time></trkpt><trkpt lat="43.88241" lon="12.4088053"><ele>410.6666666666667</ele><time>2026-04-12T06:36:53.301Z</time></trkpt><trkpt lat="43.8823813" lon="12.4086643"><ele>408.5</ele><time>2026-04-12T06:36:55.3Z</time></trkpt><trkpt lat="43.8824837" lon="12.4085451"><ele>406.33333333333337</ele><time>2026-04-12T06:36:57.303Z</time></trkpt><trkpt lat="43.8825507" lon="12.4085069"><ele>404.1666666666667</ele><time>2026-04-12T06:36:58.293Z</time></trkpt><trkpt lat="43.8826082" lon="12.4084617"><ele>402.0</ele><time>2026-04-12T06:36:59.245Z</time></trkpt><trkpt lat="43.8826652" lon="12.40841"><ele>401.8</ele><time>2026-04-12T06:37:00.267Z</time></trkpt><trkpt lat="43.882717" lon="12.4083397"><ele>401.6</ele><time>2026-04-12T06:37:01.289Z</time></trkpt><trkpt lat="43.882768" lon="12.408239"><ele>401.40000000000003</ele><time>2026-04-12T06:37:02.251Z</time></trkpt><trkpt lat="43.8827978" lon="12.4081156"><ele>401.20000000000005</ele><time>2026-04-12T06:37:03.299Z</time></trkpt><trkpt lat="43.8828024" lon="12.407977"><ele>401.0</ele><time>2026-04-12T06:37:04.291Z</time></trkpt><trkpt lat="43.8827952" lon="12.4078339"><ele>398.6</ele><time>2026-04-12T06:37:05.26Z</time></trkpt><trkpt lat="43.8827949" lon="12.4076827"><ele>396.20000000000005</ele><time>2026-04-12T06:37:06.27Z</time></trkpt><trkpt lat="43.8827935" lon="12.4075376"><ele>393.79999999999995</ele><time>2026-04-12T06:37:07.259Z</time></trkpt><trkpt lat="43.8828143" lon="12.4073965"><ele>391.4</ele><time>2026-04-12T06:37:08.269Z</time></trkpt><trkpt lat="43.8828653" lon="12.4072781"><ele>389.0</ele><time>2026-04-12T06:37:09.309Z</time></trkpt><trkpt lat="43.8829241" lon="12.4071558"><ele>388.49999999999994</ele><time>2026-04-12T06:37:10.292Z</time></trkpt><trkpt lat="43.8829589" lon="12.4070575"><ele>388.0</ele><time>2026-04-12T06:37:11.318Z</time></trkpt><trkpt lat="43.8829353" lon="12.4069237"><ele>387.5</ele><time>2026-04-12T06:37:13.302Z</time></trkpt><trkpt lat="43.8828753" lon="12.4068807"><ele>387.0</ele><time>2026-04-12T06:37:15.311Z</time></trkpt><trkpt lat="43.8828226" lon="12.4068299"><ele>386.49999999999994</ele><time>2026-04-12T06:37:17.293Z</time></trkpt><trkpt lat="43.8827567" lon="12.4067875"><ele>386.0</ele><time>2026-04-12T06:37:19.242Z</time></trkpt><trkpt lat="43.8826965" lon="12.4067248"><ele>385.99999999999994</ele><time>2026-04-12T06:37:21.264Z</time></trkpt><trkpt lat="43.8826415" lon="12.4066651"><ele>386.0</ele><time>2026-04-12T06:37:23.259Z</time></trkpt><trkpt lat="43.8825779" lon="12.406595"><ele>386.0</ele><time>2026-04-12T06:37:25.293Z</time></trkpt><trkpt lat="43.8825173" lon="12.4065192"><ele>386.0</ele><time>2026-04-12T06:37:27.281Z</time></trkpt><trkpt lat="43.8824687" lon="12.4064504"><ele>385.99999999999994</ele><time>2026-04-12T06:37:29.291Z</time></trkpt><trkpt lat="43.8824169" lon="12.4063729"><ele>386.0</ele><time>2026-04-12T06:37:31.297Z</time></trkpt><trkpt lat="43.882365" lon="12.4062896"><ele>387.66666666666663</ele><time>2026-04-12T06:37:33.302Z</time></trkpt><trkpt lat="43.8823183" lon="12.4062101"><ele>389.3333333333333</ele><time>2026-04-12T06:37:35.302Z</time></trkpt><trkpt lat="43.8822652" lon="12.4061293"><ele>391.0</ele><time>2026-04-12T06:37:37.297Z</time></trkpt><trkpt lat="43.8822266" lon="12.4060571"><ele>392.66666666666663</ele><time>2026-04-12T06:37:39.25Z</time></trkpt><trkpt lat="43.8821826" lon="12.4059509"><ele>394.3333333333333</ele><time>2026-04-12T06:37:42.303Z</time></trkpt><trkpt lat="43.8821474" lon="12.4058459"><ele>396.0</ele><time>2026-04-12T06:37:46.298Z</time></trkpt><trkpt lat="43.8821359" lon="12.4057373"><ele>396.0</ele><time>2026-04-12T06:37:50.295Z</time></trkpt><trkpt lat="43.8821319" lon="12.4056457"><ele>396.0</ele><time>2026-04-12T06:37:53.295Z</time></trkpt><trkpt lat="43.8821314" lon="12.4055389"><ele>396.0</ele><time>2026-04-12T06:37:57.232Z</time></trkpt><trkpt lat="43.8821364" lon="12.4054509"><ele>396.0</ele><time>2026-04-12T06:38:00.299Z</time></trkpt><trkpt lat="43.8821319" lon="12.4053569"><ele>396.0</ele><time>2026-04-12T06:38:03.303Z</time></trkpt><trkpt lat="43.882124" lon="12.4052608"><ele>396.0</ele><time>2026-04-12T06:38:06.293Z</time></trkpt><trkpt lat="43.8821204" lon="12.405169"><ele>396.0</ele><time>2026-04-12T06:38:09.298Z</time></trkpt><trkpt lat="43.8821164" lon="12.4050807"><ele>396.42857142857144</ele><time>2026-04-12T06:38:12.302Z</time></trkpt><trkpt lat="43.8821092" lon="12.4049781"><ele>396.85714285714283</ele><time>2026-04-12T06:38:16.305Z</time></trkpt><trkpt lat="43.8820831" lon="12.4048802"><ele>397.2857142857143</ele><time>2026-04-12T06:38:20.307Z</time></trkpt><trkpt lat="43.8820251" lon="12.4048015"><ele>397.7142857142857</ele><time>2026-04-12T06:38:24.269Z</time></trkpt><trkpt lat="43.8819615" lon="12.4047656"><ele>398.1428571428571</ele><time>2026-04-12T06:38:28.258Z</time></trkpt><trkpt lat="43.8818944" lon="12.404727"><ele>398.57142857142856</ele><time>2026-04-12T06:38:32.275Z</time></trkpt><trkpt lat="43.8818189" lon="12.4047042"><ele>399.0</ele><time>2026-04-12T06:38:36.297Z</time></trkpt><trkpt lat="43.8817422" lon="12.4046677"><ele>401.0</ele><time>2026-04-12T06:38:40.296Z</time></trkpt><trkpt lat="43.8816747" lon="12.4046374"><ele>403.0</ele><time>2026-04-12T06:38:43.264Z</time></trkpt><trkpt lat="43.8816028" lon="12.4045973"><ele>405.0</ele><time>2026-04-12T06:38:46.305Z</time></trkpt><trkpt lat="43.8815291" lon="12.4045368"><ele>407.0</ele><time>2026-04-12T06:38:49.312Z</time></trkpt><trkpt lat="43.8814582" lon="12.4044773"><ele>409.0</ele><time>2026-04-12T06:38:52.303Z</time></trkpt><trkpt lat="43.8813864" lon="12.4044061"><ele>411.0</ele><time>2026-04-12T06:38:55.306Z</time></trkpt><trkpt lat="43.8813093" lon="12.4043349"><ele>411.0</ele><time>2026-04-12T06:38:58.292Z</time></trkpt><trkpt lat="43.88125" lon="12.4042755"><ele>411.0</ele><time>2026-04-12T06:39:00.288Z</time></trkpt><trkpt lat="43.8811724" lon="12.4042105"><ele>411.0</ele><time>2026-04-12T06:39:02.269Z</time></trkpt><trkpt lat="43.881109" lon="12.4041637"><ele>411.0</ele><time>2026-04-12T06:39:04.289Z</time></trkpt><trkpt lat="43.8810453" lon="12.4041308"><ele>411.0</ele><time>2026-04-12T06:39:06.263Z</time></trkpt><trkpt lat="43.8809553" lon="12.4041062"><ele>411.0</ele><time>2026-04-12T06:39:09.251Z</time></trkpt><trkpt lat="43.8808856" lon="12.4041018"><ele>411.5</ele><time>2026-04-12T06:39:11.276Z</time></trkpt><trkpt lat="43.8807962" lon="12.404097"><ele>412.0</ele><time>2026-04-12T06:39:14.249Z</time></trkpt><trkpt lat="43.880716" lon="12.4040859"><ele>412.5</ele><time>2026-04-12T06:39:17.3Z</time></trkpt><trkpt lat="43.8806513" lon="12.4040787"><ele>413.0</ele><time>2026-04-12T06:39:19.292Z</time></trkpt><trkpt lat="43.8805623" lon="12.4040457"><ele>413.5</ele><time>2026-04-12T06:39:21.246Z</time></trkpt><trkpt lat="43.8804937" lon="12.4040443"><ele>414.0</ele><time>2026-04-12T06:39:22.276Z</time></trkpt><trkpt lat="43.8804099" lon="12.4040506"><ele>414.0</ele><time>2026-04-12T06:39:23.284Z</time></trkpt><trkpt lat="43.8803253" lon="12.4040612"><ele>414.0</ele><time>2026-04-12T06:39:24.314Z</time></trkpt><trkpt lat="43.8802348" lon="12.4040736"><ele>414.0</ele><time>2026-04-12T06:39:25.252Z</time></trkpt><trkpt lat="43.8801411" lon="12.4040669"><ele>414.0</ele><time>2026-04-12T06:39:26.267Z</time></trkpt><trkpt lat="43.8800687" lon="12.4040416"><ele>414.0</ele><time>2026-04-12T06:39:27.248Z</time></trkpt><trkpt lat="43.8800074" lon="12.4040214"><ele>414.0</ele><time>2026-04-12T06:39:28.315Z</time></trkpt><trkpt lat="43.8799127" lon="12.4039872"><ele>414.0</ele><time>2026-04-12T06:39:30.296Z</time></trkpt><trkpt lat="43.8798466" lon="12.4039407"><ele>414.0</ele><time>2026-04-12T06:39:32.291Z</time></trkpt><trkpt lat="43.8797822" lon="12.4038941"><ele>414.0</ele><time>2026-04-12T06:39:34.304Z</time></trkpt><trkpt lat="43.8797234" lon="12.403838"><ele>414.0</ele><time>2026-04-12T06:39:36.253Z</time></trkpt><trkpt lat="43.8796623" lon="12.4037339"><ele>414.0</ele><time>2026-04-12T06:39:38.296Z</time></trkpt><trkpt lat="43.8795939" lon="12.40358"><ele>414.0</ele><time>2026-04-12T06:39:40.253Z</time></trkpt><trkpt lat="43.8795609" lon="12.4034821"><ele>411.79999999999995</ele><time>2026-04-12T06:39:41.287Z</time></trkpt><trkpt lat="43.8795164" lon="12.403375"><ele>409.59999999999997</ele><time>2026-04-12T06:39:42.305Z</time></trkpt><trkpt lat="43.8794675" lon="12.4032645"><ele>407.4</ele><time>2026-04-12T06:39:43.232Z</time></trkpt><trkpt lat="43.8794167" lon="12.403153"><ele>405.2</ele><time>2026-04-12T06:39:44.239Z</time></trkpt><trkpt lat="43.8793683" lon="12.4030339"><ele>403.0</ele><time>2026-04-12T06:39:45.255Z</time></trkpt><trkpt lat="43.8793191" lon="12.4029087"><ele>400.79999999999995</ele><time>2026-04-12T06:39:46.298Z</time></trkpt><trkpt lat="43.8792728" lon="12.402781"><ele>398.6</ele><time>2026-04-12T06:39:47.268Z</time></trkpt><trkpt lat="43.8792146" lon="12.4026507"><ele>396.4</ele><time>2026-04-12T06:39:48.266Z</time></trkpt><trkpt lat="43.8791698" lon="12.4025196"><ele>394.20000000000005</ele><time>2026-04-12T06:39:49.283Z</time></trkpt><trkpt lat="43.8791186" lon="12.4024021"><ele>392.0</ele><time>2026-04-12T06:39:50.297Z</time></trkpt><trkpt lat="43.8790681" lon="12.4022923"><ele>391.99999999999994</ele><time>2026-04-12T06:39:51.276Z</time></trkpt><trkpt lat="43.8790172" lon="12.4021857"><ele>392.0</ele><time>2026-04-12T06:39:52.3Z</time></trkpt><trkpt lat="43.8789551" lon="12.4020969"><ele>392.0</ele><time>2026-04-12T06:39:53.321Z</time></trkpt><trkpt lat="43.8788968" lon="12.402013"><ele>392.0</ele><time>2026-04-12T06:39:54.301Z</time></trkpt><trkpt lat="43.8788331" lon="12.4019457"><ele>391.99999999999994</ele><time>2026-04-12T06:39:55.304Z</time></trkpt><trkpt lat="43.8787651" lon="12.4018934"><ele>392.0</ele><time>2026-04-12T06:39:56.312Z</time></trkpt><trkpt lat="43.8786946" lon="12.4018665"><ele>390.16666666666663</ele><time>2026-04-12T06:39:57.305Z</time></trkpt><trkpt lat="43.8786049" lon="12.401868"><ele>388.3333333333333</ele><time>2026-04-12T06:39:58.294Z</time></trkpt><trkpt lat="43.8785174" lon="12.4018761"><ele>386.5</ele><time>2026-04-12T06:39:59.258Z</time></trkpt><trkpt lat="43.8784372" lon="12.4018543"><ele>384.66666666666663</ele><time>2026-04-12T06:40:00.302Z</time></trkpt><trkpt lat="43.8783565" lon="12.4018128"><ele>382.8333333333333</ele><time>2026-04-12T06:40:01.29Z</time></trkpt><trkpt lat="43.8782884" lon="12.4017514"><ele>381.0</ele><time>2026-04-12T06:40:02.295Z</time></trkpt><trkpt lat="43.8782115" lon="12.4016714"><ele>381.0</ele><time>2026-04-12T06:40:03.289Z</time></trkpt><trkpt lat="43.8781484" lon="12.4015748"><ele>381.0</ele><time>2026-04-12T06:40:04.294Z</time></trkpt><trkpt lat="43.8780792" lon="12.4014772"><ele>381.0</ele><time>2026-04-12T06:40:05.3Z</time></trkpt><trkpt lat="43.8780172" lon="12.4013923"><ele>381.0</ele><time>2026-04-12T06:40:06.235Z</time></trkpt><trkpt lat="43.8779568" lon="12.4013078"><ele>381.0</ele><time>2026-04-12T06:40:07.262Z</time></trkpt><trkpt lat="43.8779006" lon="12.4012314"><ele>381.0</ele><time>2026-04-12T06:40:08.239Z</time></trkpt><trkpt lat="43.8778259" lon="12.4011153"><ele>381.1428571428571</ele><time>2026-04-12T06:40:10.296Z</time></trkpt><trkpt lat="43.8777781" lon="12.4010458"><ele>381.28571428571433</ele><time>2026-04-12T06:40:12.251Z</time></trkpt><trkpt lat="43.8777285" lon="12.4009653"><ele>381.42857142857144</ele><time>2026-04-12T06:40:16.299Z</time></trkpt><trkpt lat="43.8776793" lon="12.4008921"><ele>381.57142857142856</ele><time>2026-04-12T06:40:21.272Z</time></trkpt><trkpt lat="43.877648" lon="12.4008059"><ele>381.71428571428567</ele><time>2026-04-12T06:40:27.283Z</time></trkpt><trkpt lat="43.8776105" lon="12.4007345"><ele>381.8571428571429</ele><time>2026-04-12T06:40:32.293Z</time></trkpt><trkpt lat="43.8775667" lon="12.4006641"><ele>382.0</ele><time>2026-04-12T06:40:37.286Z</time></trkpt><trkpt lat="43.8775159" lon="12.4006092"><ele>383.14285714285717</ele><time>2026-04-12T06:40:41.289Z</time></trkpt><trkpt lat="43.8774783" lon="12.4005235"><ele>384.2857142857143</ele><time>2026-04-12T06:40:47.293Z</time></trkpt><trkpt lat="43.8774612" lon="12.4004286"><ele>385.42857142857144</ele><time>2026-04-12T06:40:54.278Z</time></trkpt><trkpt lat="43.8774412" lon="12.4003395"><ele>386.57142857142856</ele><time>2026-04-12T06:41:00.238Z</time></trkpt><trkpt lat="43.8774335" lon="12.4002428"><ele>387.71428571428567</ele><time>2026-04-12T06:41:06.288Z</time></trkpt><trkpt lat="43.8774674" lon="12.4001688"><ele>388.85714285714283</ele><time>2026-04-12T06:41:11.293Z</time></trkpt><trkpt lat="43.8775004" lon="12.4000848"><ele>390.0</ele><time>2026-04-12T06:41:17.301Z</time></trkpt><trkpt lat="43.8775309" lon="12.3999916"><ele>391.42857142857144</ele><time>2026-04-12T06:41:23.301Z</time></trkpt><trkpt lat="43.8775422" lon="12.3998971"><ele>392.85714285714283</ele><time>2026-04-12T06:41:28.287Z</time></trkpt><trkpt lat="43.8775486" lon="12.3998063"><ele>394.28571428571433</ele><time>2026-04-12T06:41:33.281Z</time></trkpt><trkpt lat="43.8775391" lon="12.3997125"><ele>395.7142857142857</ele><time>2026-04-12T06:41:37.265Z</time></trkpt><trkpt lat="43.8775162" lon="12.3996162"><ele>397.14285714285717</ele><time>2026-04-12T06:41:42.296Z</time></trkpt><trkpt lat="43.8774683" lon="12.3995436"><ele>398.5714285714286</ele><time>2026-04-12T06:41:47.282Z</time></trkpt><trkpt lat="43.8774083" lon="12.3994919"><ele>400.0</ele><time>2026-04-12T06:41:52.304Z</time></trkpt><trkpt lat="43.877339" lon="12.3994489"><ele>401.5714285714286</ele><time>2026-04-12T06:41:56.276Z</time></trkpt><trkpt lat="43.8772753" lon="12.3994007"><ele>403.14285714285717</ele><time>2026-04-12T06:42:01.286Z</time></trkpt><trkpt lat="43.8772055" lon="12.3993974"><ele>404.7142857142857</ele><time>2026-04-12T06:42:06.299Z</time></trkpt><trkpt lat="43.8771355" lon="12.3994292"><ele>406.28571428571433</ele><time>2026-04-12T06:42:10.295Z</time></trkpt><trkpt lat="43.8770679" lon="12.3994777"><ele>407.85714285714283</ele><time>2026-04-12T06:42:15.303Z</time></trkpt><trkpt lat="43.8770074" lon="12.3995342"><ele>409.42857142857144</ele><time>2026-04-12T06:42:20.292Z</time></trkpt><trkpt lat="43.876932" lon="12.3995728"><ele>411.0</ele><time>2026-04-12T06:42:25.266Z</time></trkpt><trkpt lat="43.8768598" lon="12.3995797"><ele>411.0</ele><time>2026-04-12T06:42:30.273Z</time></trkpt><trkpt lat="43.8767921" lon="12.3995841"><ele>411.0</ele><time>2026-04-12T06:42:34.294Z</time></trkpt><trkpt lat="43.8767215" lon="12.3995828"><ele>411.0</ele><time>2026-04-12T06:42:38.306Z</time></trkpt><trkpt lat="43.8766494" lon="12.3995795"><ele>411.0</ele><time>2026-04-12T06:42:43.298Z</time></trkpt><trkpt lat="43.8765709" lon="12.3995711"><ele>411.0</ele><time>2026-04-12T06:42:49.303Z</time></trkpt><trkpt lat="43.8765006" lon="12.3995727"><ele>411.0</ele><time>2026-04-12T06:42:55.309Z</time></trkpt><trkpt lat="43.8764338" lon="12.3995742"><ele>411.0</ele><time>2026-04-12T06:43:00.289Z</time></trkpt><trkpt lat="43.8763617" lon="12.3995959"><ele>411.1428571428571</ele><time>2026-04-12T06:43:05.299Z</time></trkpt><trkpt lat="43.8763004" lon="12.3996173"><ele>411.2857142857143</ele><time>2026-04-12T06:43:09.293Z</time></trkpt><trkpt lat="43.8762298" lon="12.3996313"><ele>411.42857142857144</ele><time>2026-04-12T06:43:14.318Z</time></trkpt><trkpt lat="43.8761573" lon="12.3996602"><ele>411.57142857142856</ele><time>2026-04-12T06:43:19.327Z</time></trkpt><trkpt lat="43.8760941" lon="12.3996778"><ele>411.7142857142857</ele><time>2026-04-12T06:43:23.308Z</time></trkpt><trkpt lat="43.8760305" lon="12.3996922"><ele>411.85714285714283</ele><time>2026-04-12T06:43:28.31Z</time></trkpt><trkpt lat="43.8759587" lon="12.3996898"><ele>412.0</ele><time>2026-04-12T06:43:33.285Z</time></trkpt><trkpt lat="43.8758871" lon="12.3996858"><ele>413.85714285714283</ele><time>2026-04-12T06:43:38.294Z</time></trkpt><trkpt lat="43.8758179" lon="12.3997022"><ele>415.7142857142857</ele><time>2026-04-12T06:43:43.31Z</time></trkpt><trkpt lat="43.8757472" lon="12.3997047"><ele>417.57142857142856</ele><time>2026-04-12T06:43:48.307Z</time></trkpt><trkpt lat="43.8756852" lon="12.3996846"><ele>419.42857142857144</ele><time>2026-04-12T06:43:52.307Z</time></trkpt><trkpt lat="43.8756157" lon="12.399654"><ele>421.2857142857143</ele><time>2026-04-12T06:43:58.308Z</time></trkpt><trkpt lat="43.8755682" lon="12.3995915"><ele>423.1428571428571</ele><time>2026-04-12T06:44:03.294Z</time></trkpt><trkpt lat="43.8755082" lon="12.3995462"><ele>425.0</ele><time>2026-04-12T06:44:07.309Z</time></trkpt><trkpt lat="43.8754397" lon="12.399489"><ele>425.66666666666663</ele><time>2026-04-12T06:44:11.295Z</time></trkpt><trkpt lat="43.8753754" lon="12.3994447"><ele>426.3333333333333</ele><time>2026-04-12T06:44:14.303Z</time></trkpt><trkpt lat="43.8753044" lon="12.3994002"><ele>427.0</ele><time>2026-04-12T06:44:17.3Z</time></trkpt><trkpt lat="43.8752346" lon="12.3993476"><ele>427.66666666666663</ele><time>2026-04-12T06:44:20.303Z</time></trkpt><trkpt lat="43.8751597" lon="12.399292"><ele>428.3333333333333</ele><time>2026-04-12T06:44:23.297Z</time></trkpt><trkpt lat="43.8750908" lon="12.3992326"><ele>429.0</ele><time>2026-04-12T06:44:26.317Z</time></trkpt><trkpt lat="43.8750227" lon="12.3991628"><ele>429.8333333333333</ele><time>2026-04-12T06:44:29.301Z</time></trkpt><trkpt lat="43.8749615" lon="12.3991118"><ele>430.66666666666663</ele><time>2026-04-12T06:44:32.304Z</time></trkpt><trkpt lat="43.8748944" lon="12.3990422"><ele>431.5</ele><time>2026-04-12T06:44:35.291Z</time></trkpt><trkpt lat="43.8748103" lon="12.3989734"><ele>432.3333333333333</ele><time>2026-04-12T06:44:38.296Z</time></trkpt><trkpt lat="43.874744" lon="12.3989104"><ele>433.16666666666663</ele><time>2026-04-12T06:44:40.302Z</time></trkpt><trkpt lat="43.8746748" lon="12.3988589"><ele>434.0</ele><time>2026-04-12T06:44:42.284Z</time></trkpt><trkpt lat="43.8745885" lon="12.3988118"><ele>434.57142857142856</ele><time>2026-04-12T06:44:44.285Z</time></trkpt><trkpt lat="43.8745095" lon="12.3987667"><ele>435.1428571428571</ele><time>2026-04-12T06:44:46.293Z</time></trkpt><trkpt lat="43.8744481" lon="12.3987339"><ele>435.7142857142857</ele><time>2026-04-12T06:44:48.302Z</time></trkpt><trkpt lat="43.8743812" lon="12.3986972"><ele>436.2857142857143</ele><time>2026-04-12T06:44:51.302Z</time></trkpt><trkpt lat="43.8743186" lon="12.3986607"><ele>436.85714285714283</ele><time>2026-04-12T06:44:55.307Z</time></trkpt><trkpt lat="43.8742516" lon="12.3986371"><ele>437.42857142857144</ele><time>2026-04-12T06:44:59.299Z</time></trkpt><trkpt lat="43.8741801" lon="12.3986278"><ele>438.0</ele><time>2026-04-12T06:45:04.294Z</time></trkpt><trkpt lat="43.87411" lon="12.3986579"><ele>439.2857142857143</ele><time>2026-04-12T06:45:09.292Z</time></trkpt><trkpt lat="43.8740486" lon="12.398688"><ele>440.57142857142856</ele><time>2026-04-12T06:45:14.269Z</time></trkpt><trkpt lat="43.8739811" lon="12.3987128"><ele>441.85714285714283</ele><time>2026-04-12T06:45:18.312Z</time></trkpt><trkpt lat="43.8739145" lon="12.3987063"><ele>443.1428571428571</ele><time>2026-04-12T06:45:22.315Z</time></trkpt><trkpt lat="43.8738515" lon="12.3986788"><ele>444.42857142857144</ele><time>2026-04-12T06:45:26.261Z</time></trkpt><trkpt lat="43.87378" lon="12.3986606"><ele>445.71428571428567</ele><time>2026-04-12T06:45:30.282Z</time></trkpt><trkpt lat="43.87371" lon="12.3986295"><ele>447.0</ele><time>2026-04-12T06:45:34.297Z</time></trkpt><trkpt lat="43.8736414" lon="12.3986247"><ele>447.0</ele><time>2026-04-12T06:45:38.29Z</time></trkpt><trkpt lat="43.8735662" lon="12.398607"><ele>447.0</ele><time>2026-04-12T06:45:42.311Z</time></trkpt><trkpt lat="43.8734838" lon="12.3985885"><ele>447.0</ele><time>2026-04-12T06:45:46.289Z</time></trkpt><trkpt lat="43.8734083" lon="12.3985569"><ele>447.0</ele><time>2026-04-12T06:45:50.253Z</time></trkpt><trkpt lat="43.8733306" lon="12.3985198"><ele>447.0</ele><time>2026-04-12T06:45:54.272Z</time></trkpt><trkpt lat="43.8732502" lon="12.3984955"><ele>447.0</ele><time>2026-04-12T06:45:58.28Z</time></trkpt><trkpt lat="43.8731907" lon="12.3984652"><ele>448.1428571428571</ele><time>2026-04-12T06:46:01.307Z</time></trkpt><trkpt lat="43.8731194" lon="12.3984312"><ele>449.2857142857143</ele><time>2026-04-12T06:46:05.309Z</time></trkpt><trkpt lat="43.8730518" lon="12.3984066"><ele>450.42857142857144</ele><time>2026-04-12T06:46:09.318Z</time></trkpt><trkpt lat="43.8729805" lon="12.3983788"><ele>451.57142857142856</ele><time>2026-04-12T06:46:13.272Z</time></trkpt><trkpt lat="43.8728965" lon="12.3983568"><ele>452.7142857142857</ele><time>2026-04-12T06:46:17.293Z</time></trkpt><trkpt lat="43.8728256" lon="12.3983448"><ele>453.85714285714283</ele><time>2026-04-12T06:46:21.306Z</time></trkpt><trkpt lat="43.8727537" lon="12.3983352"><ele>455.0</ele><time>2026-04-12T06:46:25.261Z</time></trkpt><trkpt lat="43.8726837" lon="12.3983184"><ele>455.0</ele><time>2026-04-12T06:46:29.26Z</time></trkpt><trkpt lat="43.8726095" lon="12.3983277"><ele>455.0</ele><time>2026-04-12T06:46:33.313Z</time></trkpt><trkpt lat="43.8725462" lon="12.3983424"><ele>455.0</ele><time>2026-04-12T06:46:37.276Z</time></trkpt><trkpt lat="43.8724757" lon="12.3983627"><ele>455.0</ele><time>2026-04-12T06:46:41.299Z</time></trkpt><trkpt lat="43.8724012" lon="12.3983688"><ele>455.0</ele><time>2026-04-12T06:46:45.284Z</time></trkpt><trkpt lat="43.8723349" lon="12.398375"><ele>455.0</ele><time>2026-04-12T06:46:49.31Z</time></trkpt><trkpt lat="43.8722696" lon="12.3983875"><ele>455.0</ele><time>2026-04-12T06:46:53.287Z</time></trkpt><trkpt lat="43.8722071" lon="12.3983986"><ele>456.2857142857143</ele><time>2026-04-12T06:46:57.275Z</time></trkpt><trkpt lat="43.8721345" lon="12.3984325"><ele>457.57142857142856</ele><time>2026-04-12T06:47:01.296Z</time></trkpt><trkpt lat="43.8720673" lon="12.3984639"><ele>458.8571428571429</ele><time>2026-04-12T06:47:05.296Z</time></trkpt><trkpt lat="43.8720023" lon="12.3984831"><ele>460.14285714285717</ele><time>2026-04-12T06:47:09.293Z</time></trkpt><trkpt lat="43.8719343" lon="12.398489"><ele>461.42857142857144</ele><time>2026-04-12T06:47:13.301Z</time></trkpt><trkpt lat="43.8718606" lon="12.3985063"><ele>462.7142857142858</ele><time>2026-04-12T06:47:17.303Z</time></trkpt><trkpt lat="43.8717875" lon="12.3985201"><ele>464.00000000000006</ele><time>2026-04-12T06:47:21.272Z</time></trkpt><trkpt lat="43.8717181" lon="12.3985337"><ele>465.8571428571429</ele><time>2026-04-12T06:47:25.312Z</time></trkpt><trkpt lat="43.8716545" lon="12.398542"><ele>467.7142857142857</ele><time>2026-04-12T06:47:28.314Z</time></trkpt><trkpt lat="43.8715844" lon="12.3985536"><ele>469.57142857142856</ele><time>2026-04-12T06:47:32.312Z</time></trkpt><trkpt lat="43.8715155" lon="12.3985603"><ele>471.42857142857144</ele><time>2026-04-12T06:47:36.324Z</time></trkpt><trkpt lat="43.8714457" lon="12.3985745"><ele>473.2857142857142</ele><time>2026-04-12T06:47:40.3Z</time></trkpt><trkpt lat="43.8713726" lon="12.398593"><ele>475.1428571428571</ele><time>2026-04-12T06:47:44.295Z</time></trkpt><trkpt lat="43.8713069" lon="12.3986061"><ele>477.0</ele><time>2026-04-12T06:47:48.294Z</time></trkpt><trkpt lat="43.8712368" lon="12.3986193"><ele>477.0</ele><time>2026-04-12T06:47:52.3Z</time></trkpt><trkpt lat="43.8711658" lon="12.3986332"><ele>477.0</ele><time>2026-04-12T06:47:56.287Z</time></trkpt><trkpt lat="43.8710919" lon="12.3986628"><ele>477.0</ele><time>2026-04-12T06:48:00.287Z</time></trkpt><trkpt lat="43.8710112" lon="12.3986831"><ele>477.0</ele><time>2026-04-12T06:48:04.287Z</time></trkpt><trkpt lat="43.8709333" lon="12.3987"><ele>477.0</ele><time>2026-04-12T06:48:08.312Z</time></trkpt><trkpt lat="43.8708615" lon="12.398718"><ele>477.0</ele><time>2026-04-12T06:48:12.298Z</time></trkpt><trkpt lat="43.8707948" lon="12.3987422"><ele>478.1428571428571</ele><time>2026-04-12T06:48:16.295Z</time></trkpt><trkpt lat="43.8707318" lon="12.3987399"><ele>479.2857142857142</ele><time>2026-04-12T06:48:20.298Z</time></trkpt><trkpt lat="43.8706625" lon="12.3987454"><ele>480.42857142857144</ele><time>2026-04-12T06:48:24.283Z</time></trkpt><trkpt lat="43.8705877" lon="12.3987676"><ele>481.57142857142856</ele><time>2026-04-12T06:48:28.237Z</time></trkpt><trkpt lat="43.870515" lon="12.3987773"><ele>482.7142857142857</ele><time>2026-04-12T06:48:32.293Z</time></trkpt><trkpt lat="43.8704484" lon="12.3987964"><ele>483.8571428571429</ele><time>2026-04-12T06:48:36.318Z</time></trkpt><trkpt lat="43.8703726" lon="12.3988169"><ele>485.00000000000006</ele><time>2026-04-12T06:48:40.301Z</time></trkpt><trkpt lat="43.870293" lon="12.3988511"><ele>485.00000000000006</ele><time>2026-04-12T06:48:45.281Z</time></trkpt><trkpt lat="43.8702145" lon="12.39889"><ele>485.0</ele><time>2026-04-12T06:48:49.29Z</time></trkpt><trkpt lat="43.8701575" lon="12.3989284"><ele>485.00000000000006</ele><time>2026-04-12T06:48:52.305Z</time></trkpt><trkpt lat="43.8700872" lon="12.3989768"><ele>485.00000000000006</ele><time>2026-04-12T06:48:56.355Z</time></trkpt><trkpt lat="43.8700322" lon="12.3990361"><ele>485.0</ele><time>2026-04-12T06:48:59.283Z</time></trkpt><trkpt lat="43.8699722" lon="12.3991038"><ele>485.00000000000006</ele><time>2026-04-12T06:49:02.293Z</time></trkpt><trkpt lat="43.8699293" lon="12.3991692"><ele>485.00000000000006</ele><time>2026-04-12T06:49:04.288Z</time></trkpt><trkpt lat="43.8698957" lon="12.3992528"><ele>486.66666666666663</ele><time>2026-04-12T06:49:06.309Z</time></trkpt><trkpt lat="43.8698767" lon="12.3993407"><ele>488.3333333333333</ele><time>2026-04-12T06:49:08.309Z</time></trkpt><trkpt lat="43.869862" lon="12.3994321"><ele>490.0</ele><time>2026-04-12T06:49:10.293Z</time></trkpt><trkpt lat="43.8698691" lon="12.3995566"><ele>491.66666666666663</ele><time>2026-04-12T06:49:13.304Z</time></trkpt><trkpt lat="43.8698862" lon="12.3996651"><ele>493.3333333333333</ele><time>2026-04-12T06:49:16.301Z</time></trkpt><trkpt lat="43.8699042" lon="12.3997747"><ele>495.0</ele><time>2026-04-12T06:49:20.276Z</time></trkpt><trkpt lat="43.8699275" lon="12.3998645"><ele>495.5714285714285</ele><time>2026-04-12T06:49:24.296Z</time></trkpt><trkpt lat="43.8699624" lon="12.3999578"><ele>496.1428571428571</ele><time>2026-04-12T06:49:29.306Z</time></trkpt><trkpt lat="43.8699688" lon="12.4000467"><ele>496.7142857142857</ele><time>2026-04-12T06:49:33.301Z</time></trkpt><trkpt lat="43.8699773" lon="12.4001411"><ele>497.2857142857143</ele><time>2026-04-12T06:49:37.307Z</time></trkpt><trkpt lat="43.8699787" lon="12.4002459"><ele>497.8571428571429</ele><time>2026-04-12T06:49:42.298Z</time></trkpt><trkpt lat="43.8699828" lon="12.4003463"><ele>498.4285714285715</ele><time>2026-04-12T06:49:46.288Z</time></trkpt><trkpt lat="43.8699841" lon="12.4004493"><ele>499.00000000000006</ele><time>2026-04-12T06:49:50.296Z</time></trkpt><trkpt lat="43.8699795" lon="12.4005522"><ele>500.28571428571433</ele><time>2026-04-12T06:49:54.307Z</time></trkpt><trkpt lat="43.8699757" lon="12.4006539"><ele>501.57142857142856</ele><time>2026-04-12T06:49:58.3Z</time></trkpt><trkpt lat="43.8699667" lon="12.400747"><ele>502.8571428571429</ele><time>2026-04-12T06:50:03.304Z</time></trkpt><trkpt lat="43.8699566" lon="12.4008468"><ele>504.14285714285717</ele><time>2026-04-12T06:50:08.307Z</time></trkpt><trkpt lat="43.8699392" lon="12.4009448"><ele>505.42857142857144</ele><time>2026-04-12T06:50:14.29Z</time></trkpt><trkpt lat="43.8699154" lon="12.4010322"><ele>506.7142857142857</ele><time>2026-04-12T06:50:19.303Z</time></trkpt><trkpt lat="43.8698932" lon="12.4011257"><ele>508.0</ele><time>2026-04-12T06:50:24.303Z</time></trkpt><trkpt lat="43.8698589" lon="12.401207"><ele>508.0</ele><time>2026-04-12T06:50:29.293Z</time></trkpt><trkpt lat="43.8697988" lon="12.401265"><ele>508.0</ele><time>2026-04-12T06:50:33.307Z</time></trkpt><trkpt lat="43.8697259" lon="12.4012968"><ele>508.0</ele><time>2026-04-12T06:50:38.297Z</time></trkpt><trkpt lat="43.8696499" lon="12.4012804"><ele>508.0</ele><time>2026-04-12T06:50:43.235Z</time></trkpt><trkpt lat="43.8695809" lon="12.4012342"><ele>508.0</ele><time>2026-04-12T06:50:48.288Z</time></trkpt><trkpt lat="43.8695245" lon="12.4011779"><ele>508.0</ele><time>2026-04-12T06:50:52.292Z</time></trkpt><trkpt lat="43.8694593" lon="12.4011232"><ele>508.0</ele><time>2026-04-12T06:50:56.303Z</time></trkpt><trkpt lat="43.8693934" lon="12.4010687"><ele>508.0</ele><time>2026-04-12T06:51:00.289Z</time></trkpt><trkpt lat="43.8693229" lon="12.4010256"><ele>508.0</ele><time>2026-04-12T06:51:05.279Z</time></trkpt><trkpt lat="43.8692598" lon="12.4009894"><ele>508.0</ele><time>2026-04-12T06:51:09.253Z</time></trkpt><trkpt lat="43.8691946" lon="12.4009723"><ele>508.0</ele><time>2026-04-12T06:51:13.295Z</time></trkpt><trkpt lat="43.8691254" lon="12.4009545"><ele>508.0</ele><time>2026-04-12T06:51:17.299Z</time></trkpt><trkpt lat="43.8690547" lon="12.400938"><ele>508.0</ele><time>2026-04-12T06:51:21.293Z</time></trkpt><trkpt lat="43.868992" lon="12.4009481"><ele>508.0</ele><time>2026-04-12T06:51:25.286Z</time></trkpt><trkpt lat="43.8689142" lon="12.4009718"><ele>509.57142857142856</ele><time>2026-04-12T06:51:29.301Z</time></trkpt><trkpt lat="43.8688453" lon="12.4009901"><ele>511.1428571428571</ele><time>2026-04-12T06:51:32.285Z</time></trkpt><trkpt lat="43.8687693" lon="12.4009921"><ele>512.7142857142857</ele><time>2026-04-12T06:51:36.302Z</time></trkpt><trkpt lat="43.8686995" lon="12.4009764"><ele>514.2857142857142</ele><time>2026-04-12T06:51:40.308Z</time></trkpt><trkpt lat="43.8686226" lon="12.4009558"><ele>515.8571428571428</ele><time>2026-04-12T06:51:45.297Z</time></trkpt><trkpt lat="43.8685579" lon="12.4009221"><ele>517.4285714285714</ele><time>2026-04-12T06:51:49.278Z</time></trkpt><trkpt lat="43.8684993" lon="12.4008838"><ele>519.0</ele><time>2026-04-12T06:51:54.269Z</time></trkpt><trkpt lat="43.868438" lon="12.400841"><ele>520.5714285714286</ele><time>2026-04-12T06:51:59.307Z</time></trkpt><trkpt lat="43.8683773" lon="12.4008024"><ele>522.1428571428571</ele><time>2026-04-12T06:52:04.289Z</time></trkpt><trkpt lat="43.8683126" lon="12.4007907"><ele>523.7142857142857</ele><time>2026-04-12T06:52:09.301Z</time></trkpt><trkpt lat="43.8682455" lon="12.4007574"><ele>525.2857142857142</ele><time>2026-04-12T06:52:15.289Z</time></trkpt><trkpt lat="43.8681796" lon="12.4007329"><ele>526.8571428571429</ele><time>2026-04-12T06:52:22.306Z</time></trkpt><trkpt lat="43.8681104" lon="12.4007135"><ele>528.4285714285713</ele><time>2026-04-12T06:52:29.283Z</time></trkpt><trkpt lat="43.8680461" lon="12.4006935"><ele>530.0</ele><time>2026-04-12T06:52:34.278Z</time></trkpt><trkpt lat="43.8679799" lon="12.4007016"><ele>529.9999999999999</ele><time>2026-04-12T06:52:40.298Z</time></trkpt><trkpt lat="43.8679158" lon="12.4007064"><ele>530.0</ele><time>2026-04-12T06:52:46.308Z</time></trkpt><trkpt lat="43.8678501" lon="12.4006884"><ele>530.0</ele><time>2026-04-12T06:52:52.289Z</time></trkpt><trkpt lat="43.8677874" lon="12.4006699"><ele>530.0</ele><time>2026-04-12T06:52:58.295Z</time></trkpt><trkpt lat="43.8677115" lon="12.4006484"><ele>530.0</ele><time>2026-04-12T06:53:05.326Z</time></trkpt><trkpt lat="43.8676518" lon="12.4006097"><ele>529.9999999999999</ele><time>2026-04-12T06:53:12.313Z</time></trkpt><trkpt lat="43.8676051" lon="12.4005475"><ele>530.0</ele><time>2026-04-12T06:53:19.303Z</time></trkpt><trkpt lat="43.8675622" lon="12.4004737"><ele>532.7142857142857</ele><time>2026-04-12T06:53:24.293Z</time></trkpt><trkpt lat="43.8675086" lon="12.4003902"><ele>535.4285714285714</ele><time>2026-04-12T06:53:29.3Z</time></trkpt><trkpt lat="43.867457" lon="12.4003372"><ele>538.1428571428571</ele><time>2026-04-12T06:53:33.302Z</time></trkpt><trkpt lat="43.8673885" lon="12.4003114"><ele>540.8571428571429</ele><time>2026-04-12T06:53:37.298Z</time></trkpt><trkpt lat="43.8673172" lon="12.4002943"><ele>543.5714285714286</ele><time>2026-04-12T06:53:42.318Z</time></trkpt><trkpt lat="43.8672471" lon="12.400278"><ele>546.2857142857142</ele><time>2026-04-12T06:53:48.337Z</time></trkpt><trkpt lat="43.8671839" lon="12.4002811"><ele>549.0</ele><time>2026-04-12T06:53:52.291Z</time></trkpt><trkpt lat="43.867107" lon="12.4002836"><ele>549.0</ele><time>2026-04-12T06:53:57.267Z</time></trkpt><trkpt lat="43.8670403" lon="12.4002884"><ele>549.0</ele><time>2026-04-12T06:54:02.285Z</time></trkpt><trkpt lat="43.8669699" lon="12.4002931"><ele>549.0</ele><time>2026-04-12T06:54:07.302Z</time></trkpt><trkpt lat="43.8668972" lon="12.4002821"><ele>549.0</ele><time>2026-04-12T06:54:13.286Z</time></trkpt><trkpt lat="43.8668267" lon="12.4002835"><ele>549.0</ele><time>2026-04-12T06:54:19.301Z</time></trkpt><trkpt lat="43.8667606" lon="12.4003054"><ele>549.0</ele><time>2026-04-12T06:54:23.251Z</time></trkpt><trkpt lat="43.8666977" lon="12.4003114"><ele>549.0</ele><time>2026-04-12T06:54:29.302Z</time></trkpt><trkpt lat="43.866629" lon="12.4003186"><ele>551.2857142857142</ele><time>2026-04-12T06:54:34.258Z</time></trkpt><trkpt lat="43.8665581" lon="12.4003274"><ele>553.5714285714286</ele><time>2026-04-12T06:54:39.287Z</time></trkpt><trkpt lat="43.8664903" lon="12.4003255"><ele>555.8571428571429</ele><time>2026-04-12T06:54:44.289Z</time></trkpt><trkpt lat="43.8664103" lon="12.4003283"><ele>558.1428571428571</ele><time>2026-04-12T06:54:48.278Z</time></trkpt><trkpt lat="43.8663385" lon="12.4003209"><ele>560.4285714285714</ele><time>2026-04-12T06:54:52.3Z</time></trkpt><trkpt lat="43.8662686" lon="12.4003007"><ele>562.7142857142857</ele><time>2026-04-12T06:54:56.286Z</time></trkpt><trkpt lat="43.8661941" lon="12.400296"><ele>565.0</ele><time>2026-04-12T06:55:00.294Z</time></trkpt><trkpt lat="43.8661207" lon="12.400286"><ele>564.9999999999999</ele><time>2026-04-12T06:55:04.292Z</time></trkpt><trkpt lat="43.8660524" lon="12.4002817"><ele>565.0</ele><time>2026-04-12T06:55:08.297Z</time></trkpt><trkpt lat="43.8659883" lon="12.4002748"><ele>565.0</ele><time>2026-04-12T06:55:12.307Z</time></trkpt><trkpt lat="43.8659103" lon="12.4002603"><ele>565.0</ele><time>2026-04-12T06:55:16.231Z</time></trkpt><trkpt lat="43.8658362" lon="12.4002627"><ele>565.0</ele><time>2026-04-12T06:55:20.262Z</time></trkpt><trkpt lat="43.8657654" lon="12.4002414"><ele>564.9999999999999</ele><time>2026-04-12T06:55:24.289Z</time></trkpt><trkpt lat="43.8656951" lon="12.4002062"><ele>565.0</ele><time>2026-04-12T06:55:29.294Z</time></trkpt><trkpt lat="43.8656243" lon="12.4001538"><ele>566.7142857142857</ele><time>2026-04-12T06:55:33.293Z</time></trkpt><trkpt lat="43.8655738" lon="12.4000882"><ele>568.4285714285714</ele><time>2026-04-12T06:55:37.286Z</time></trkpt><trkpt lat="43.8655201" lon="12.400024"><ele>570.1428571428571</ele><time>2026-04-12T06:55:41.299Z</time></trkpt><trkpt lat="43.8654762" lon="12.3999585"><ele>571.8571428571429</ele><time>2026-04-12T06:55:45.296Z</time></trkpt><trkpt lat="43.8654126" lon="12.3999009"><ele>573.5714285714286</ele><time>2026-04-12T06:55:49.307Z</time></trkpt><trkpt lat="43.8653605" lon="12.3998363"><ele>575.2857142857142</ele><time>2026-04-12T06:55:53.301Z</time></trkpt><trkpt lat="43.8652915" lon="12.3997745"><ele>577.0</ele><time>2026-04-12T06:55:57.29Z</time></trkpt><trkpt lat="43.8652023" lon="12.3997466"><ele>577.0</ele><time>2026-04-12T06:56:00.296Z</time></trkpt><trkpt lat="43.8651283" lon="12.3997456"><ele>577.0</ele><time>2026-04-12T06:56:02.245Z</time></trkpt><trkpt lat="43.8650398" lon="12.3997728"><ele>577.0</ele><time>2026-04-12T06:56:04.298Z</time></trkpt><trkpt lat="43.8649628" lon="12.3998167"><ele>577.0</ele><time>2026-04-12T06:56:06.304Z</time></trkpt><trkpt lat="43.8649041" lon="12.3998689"><ele>577.0</ele><time>2026-04-12T06:56:08.3Z</time></trkpt><trkpt lat="43.8648449" lon="12.3999211"><ele>577.0</ele><time>2026-04-12T06:56:10.301Z</time></trkpt><trkpt lat="43.86477" lon="12.3999754"><ele>577.8333333333334</ele><time>2026-04-12T06:56:13.307Z</time></trkpt><trkpt lat="43.8646862" lon="12.3999937"><ele>578.6666666666667</ele><time>2026-04-12T06:56:16.307Z</time></trkpt><trkpt lat="43.8646056" lon="12.4000155"><ele>579.5</ele><time>2026-04-12T06:56:19.281Z</time></trkpt><trkpt lat="43.8645237" lon="12.4000123"><ele>580.3333333333334</ele><time>2026-04-12T06:56:22.277Z</time></trkpt><trkpt lat="43.8644347" lon="12.3999996"><ele>581.1666666666666</ele><time>2026-04-12T06:56:25.286Z</time></trkpt><trkpt lat="43.8643532" lon="12.4000006"><ele>582.0</ele><time>2026-04-12T06:56:28.289Z</time></trkpt><trkpt lat="43.864274" lon="12.3999867"><ele>582.7142857142857</ele><time>2026-04-12T06:56:32.276Z</time></trkpt><trkpt lat="43.8641977" lon="12.3999636"><ele>583.4285714285713</ele><time>2026-04-12T06:56:36.295Z</time></trkpt><trkpt lat="43.8641212" lon="12.3999374"><ele>584.1428571428571</ele><time>2026-04-12T06:56:40.302Z</time></trkpt><trkpt lat="43.8640571" lon="12.3998814"><ele>584.8571428571429</ele><time>2026-04-12T06:56:44.296Z</time></trkpt><trkpt lat="43.8639923" lon="12.3998459"><ele>585.5714285714287</ele><time>2026-04-12T06:56:48.262Z</time></trkpt><trkpt lat="43.8639279" lon="12.3998046"><ele>586.2857142857143</ele><time>2026-04-12T06:56:52.264Z</time></trkpt><trkpt lat="43.8638676" lon="12.3997638"><ele>587.0</ele><time>2026-04-12T06:56:56.298Z</time></trkpt><trkpt lat="43.8638119" lon="12.3997221"><ele>587.0</ele><time>2026-04-12T06:57:00.294Z</time></trkpt><trkpt lat="43.8637455" lon="12.3996745"><ele>587.0</ele><time>2026-04-12T06:57:05.288Z</time></trkpt><trkpt lat="43.8636859" lon="12.3996261"><ele>587.0</ele><time>2026-04-12T06:57:09.309Z</time></trkpt><trkpt lat="43.8636228" lon="12.3995799"><ele>587.0</ele><time>2026-04-12T06:57:13.298Z</time></trkpt><trkpt lat="43.8635556" lon="12.3995192"><ele>587.0</ele><time>2026-04-12T06:57:18.289Z</time></trkpt><trkpt lat="43.8634985" lon="12.3994596"><ele>587.0</ele><time>2026-04-12T06:57:22.285Z</time></trkpt><trkpt lat="43.8634436" lon="12.3994116"><ele>587.0</ele><time>2026-04-12T06:57:26.275Z</time></trkpt><trkpt lat="43.863376" lon="12.3993655"><ele>589.1428571428571</ele><time>2026-04-12T06:57:31.295Z</time></trkpt><trkpt lat="43.8633128" lon="12.3993131"><ele>591.2857142857143</ele><time>2026-04-12T06:57:35.296Z</time></trkpt><trkpt lat="43.86324" lon="12.3992681"><ele>593.4285714285714</ele><time>2026-04-12T06:57:39.305Z</time></trkpt><trkpt lat="43.8631649" lon="12.3992251"><ele>595.5714285714286</ele><time>2026-04-12T06:57:43.314Z</time></trkpt><trkpt lat="43.8630981" lon="12.3991986"><ele>597.7142857142858</ele><time>2026-04-12T06:57:47.299Z</time></trkpt><trkpt lat="43.8630352" lon="12.3991754"><ele>599.8571428571429</ele><time>2026-04-12T06:57:51.292Z</time></trkpt><trkpt lat="43.8629704" lon="12.3991556"><ele>602.0</ele><time>2026-04-12T06:57:55.309Z</time></trkpt><trkpt lat="43.8629057" lon="12.3991366"><ele>602.0</ele><time>2026-04-12T06:57:59.292Z</time></trkpt><trkpt lat="43.8628349" lon="12.399137"><ele>602.0</ele><time>2026-04-12T06:58:04.286Z</time></trkpt><trkpt lat="43.8627707" lon="12.3991513"><ele>602.0</ele><time>2026-04-12T06:58:08.281Z</time></trkpt><trkpt lat="43.8626979" lon="12.3991562"><ele>602.0</ele><time>2026-04-12T06:58:12.304Z</time></trkpt><trkpt lat="43.8626334" lon="12.3991626"><ele>602.0</ele><time>2026-04-12T06:58:15.287Z</time></trkpt><trkpt lat="43.8625656" lon="12.3991686"><ele>602.0</ele><time>2026-04-12T06:58:19.3Z</time></trkpt><trkpt lat="43.8624903" lon="12.3992018"><ele>602.0</ele><time>2026-04-12T06:58:24.298Z</time></trkpt><trkpt lat="43.8624173" lon="12.3992063"><ele>604.0</ele><time>2026-04-12T06:58:29.276Z</time></trkpt><trkpt lat="43.8623425" lon="12.3992127"><ele>606.0</ele><time>2026-04-12T06:58:35.295Z</time></trkpt><trkpt lat="43.8622689" lon="12.3992292"><ele>608.0</ele><time>2026-04-12T06:58:40.295Z</time></trkpt><trkpt lat="43.8621957" lon="12.3992361"><ele>610.0</ele><time>2026-04-12T06:58:45.286Z</time></trkpt><trkpt lat="43.8621294" lon="12.3992465"><ele>612.0</ele><time>2026-04-12T06:58:50.257Z</time></trkpt><trkpt lat="43.8620571" lon="12.3992497"><ele>614.0</ele><time>2026-04-12T06:58:55.298Z</time></trkpt><trkpt lat="43.8619782" lon="12.3992452"><ele>616.0</ele><time>2026-04-12T06:59:00.299Z</time></trkpt><trkpt lat="43.8619112" lon="12.3992479"><ele>616.0</ele><time>2026-04-12T06:59:05.298Z</time></trkpt><trkpt lat="43.8618357" lon="12.3992393"><ele>616.0</ele><time>2026-04-12T06:59:10.298Z</time></trkpt><trkpt lat="43.8617674" lon="12.3991966"><ele>616.0</ele><time>2026-04-12T06:59:15.227Z</time></trkpt><trkpt lat="43.8617044" lon="12.3991652"><ele>616.0</ele><time>2026-04-12T06:59:19.272Z</time></trkpt><trkpt lat="43.8616363" lon="12.3991212"><ele>616.0</ele><time>2026-04-12T06:59:24.292Z</time></trkpt><trkpt lat="43.8615677" lon="12.3990894"><ele>616.0</ele><time>2026-04-12T06:59:28.262Z</time></trkpt><trkpt lat="43.8615086" lon="12.3990546"><ele>616.0</ele><time>2026-04-12T06:59:32.29Z</time></trkpt><trkpt lat="43.8614276" lon="12.3990083"><ele>617.4285714285714</ele><time>2026-04-12T06:59:36.266Z</time></trkpt><trkpt lat="43.8613589" lon="12.3989636"><ele>618.8571428571429</ele><time>2026-04-12T06:59:40.297Z</time></trkpt><trkpt lat="43.8612937" lon="12.3989262"><ele>620.2857142857142</ele><time>2026-04-12T06:59:44.309Z</time></trkpt><trkpt lat="43.8612308" lon="12.3988947"><ele>621.7142857142858</ele><time>2026-04-12T06:59:48.309Z</time></trkpt><trkpt lat="43.8611595" lon="12.3988583"><ele>623.1428571428571</ele><time>2026-04-12T06:59:53.253Z</time></trkpt><trkpt lat="43.861089" lon="12.3988492"><ele>624.5714285714286</ele><time>2026-04-12T06:59:57.322Z</time></trkpt><trkpt lat="43.8610103" lon="12.3988226"><ele>626.0</ele><time>2026-04-12T07:00:01.297Z</time></trkpt><trkpt lat="43.860948" lon="12.3987799"><ele>628.6666666666666</ele><time>2026-04-12T07:00:04.27Z</time></trkpt><trkpt lat="43.8608974" lon="12.3987203"><ele>631.3333333333333</ele><time>2026-04-12T07:00:07.282Z</time></trkpt><trkpt lat="43.86083" lon="12.3986817"><ele>634.0</ele><time>2026-04-12T07:00:11.28Z</time></trkpt><trkpt lat="43.8607492" lon="12.3986817"><ele>636.6666666666666</ele><time>2026-04-12T07:00:14.302Z</time></trkpt><trkpt lat="43.860664" lon="12.3987114"><ele>639.3333333333334</ele><time>2026-04-12T07:00:17.262Z</time></trkpt><trkpt lat="43.8606017" lon="12.3987398"><ele>642.0</ele><time>2026-04-12T07:00:19.306Z</time></trkpt><trkpt lat="43.8605203" lon="12.3987675"><ele>642.0</ele><time>2026-04-12T07:00:22.288Z</time></trkpt><trkpt lat="43.8604441" lon="12.3988031"><ele>642.0</ele><time>2026-04-12T07:00:25.285Z</time></trkpt><trkpt lat="43.8603588" lon="12.3988375"><ele>642.0</ele><time>2026-04-12T07:00:28.252Z</time></trkpt><trkpt lat="43.8602791" lon="12.3988661"><ele>642.0</ele><time>2026-04-12T07:00:31.267Z</time></trkpt><trkpt lat="43.8601952" lon="12.3989083"><ele>642.0</ele><time>2026-04-12T07:00:34.282Z</time></trkpt><trkpt lat="43.860128" lon="12.3989329"><ele>642.0</ele><time>2026-04-12T07:00:37.278Z</time></trkpt><trkpt lat="43.8600556" lon="12.3989545"><ele>641.5714285714286</ele><time>2026-04-12T07:00:40.295Z</time></trkpt><trkpt lat="43.8599843" lon="12.3989862"><ele>641.1428571428571</ele><time>2026-04-12T07:00:43.308Z</time></trkpt><trkpt lat="43.8598923" lon="12.399009"><ele>640.7142857142858</ele><time>2026-04-12T07:00:46.304Z</time></trkpt><trkpt lat="43.8598309" lon="12.3990378"><ele>640.2857142857142</ele><time>2026-04-12T07:00:48.314Z</time></trkpt><trkpt lat="43.859767" lon="12.3990632"><ele>639.8571428571429</ele><time>2026-04-12T07:00:50.266Z</time></trkpt><trkpt lat="43.8597077" lon="12.3990928"><ele>639.4285714285714</ele><time>2026-04-12T07:00:52.286Z</time></trkpt><trkpt lat="43.8596341" lon="12.3991176"><ele>639.0</ele><time>2026-04-12T07:00:55.292Z</time></trkpt><trkpt lat="43.8595622" lon="12.3991376"><ele>639.0</ele><time>2026-04-12T07:00:58.281Z</time></trkpt><trkpt lat="43.8594864" lon="12.3991593"><ele>639.0</ele><time>2026-04-12T07:01:02.282Z</time></trkpt><trkpt lat="43.8594076" lon="12.3991753"><ele>639.0</ele><time>2026-04-12T07:01:06.294Z</time></trkpt><trkpt lat="43.8593437" lon="12.3991999"><ele>639.0</ele><time>2026-04-12T07:01:09.288Z</time></trkpt><trkpt lat="43.8592669" lon="12.3992519"><ele>639.0</ele><time>2026-04-12T07:01:13.285Z</time></trkpt><trkpt lat="43.8592052" lon="12.3992875"><ele>639.0</ele><time>2026-04-12T07:01:16.311Z</time></trkpt><trkpt lat="43.8591356" lon="12.3993422"><ele>640.6666666666666</ele><time>2026-04-12T07:01:20.265Z</time></trkpt><trkpt lat="43.8590786" lon="12.3994034"><ele>642.3333333333334</ele><time>2026-04-12T07:01:23.294Z</time></trkpt><trkpt lat="43.859023" lon="12.3994593"><ele>644.0</ele><time>2026-04-12T07:01:26.285Z</time></trkpt><trkpt lat="43.8589532" lon="12.39953"><ele>645.6666666666667</ele><time>2026-04-12T07:01:29.298Z</time></trkpt><trkpt lat="43.8588711" lon="12.3995807"><ele>647.3333333333334</ele><time>2026-04-12T07:01:32.31Z</time></trkpt><trkpt lat="43.8587889" lon="12.3996302"><ele>649.0</ele><time>2026-04-12T07:01:35.28Z</time></trkpt><trkpt lat="43.8587133" lon="12.3996657"><ele>649.0</ele><time>2026-04-12T07:01:38.301Z</time></trkpt><trkpt lat="43.8586387" lon="12.3996705"><ele>649.0</ele><time>2026-04-12T07:01:41.261Z</time></trkpt><trkpt lat="43.8585629" lon="12.3996265"><ele>649.0</ele><time>2026-04-12T07:01:44.305Z</time></trkpt><trkpt lat="43.8585146" lon="12.3995644"><ele>649.0</ele><time>2026-04-12T07:01:46.296Z</time></trkpt><trkpt lat="43.8584749" lon="12.3994755"><ele>649.0</ele><time>2026-04-12T07:01:49.288Z</time></trkpt><trkpt lat="43.8584511" lon="12.3993696"><ele>649.0</ele><time>2026-04-12T07:01:52.282Z</time></trkpt><trkpt lat="43.8584402" lon="12.3992558"><ele>648.9999999999999</ele><time>2026-04-12T07:01:55.282Z</time></trkpt><trkpt lat="43.8584492" lon="12.399138"><ele>649.0</ele><time>2026-04-12T07:01:59.294Z</time></trkpt><trkpt lat="43.8584622" lon="12.3990475"><ele>649.0</ele><time>2026-04-12T07:02:02.29Z</time></trkpt><trkpt lat="43.8584718" lon="12.3989437"><ele>649.0</ele><time>2026-04-12T07:02:06.289Z</time></trkpt><trkpt lat="43.8584787" lon="12.3988529"><ele>649.0</ele><time>2026-04-12T07:02:09.293Z</time></trkpt><trkpt lat="43.8584894" lon="12.3987659"><ele>648.9999999999999</ele><time>2026-04-12T07:02:13.301Z</time></trkpt><trkpt lat="43.8584995" lon="12.3986681"><ele>649.0</ele><time>2026-04-12T07:02:17.294Z</time></trkpt><trkpt lat="43.8585117" lon="12.3985686"><ele>650.3333333333334</ele><time>2026-04-12T07:02:21.307Z</time></trkpt><trkpt lat="43.8585337" lon="12.3984652"><ele>651.6666666666667</ele><time>2026-04-12T07:02:26.272Z</time></trkpt><trkpt lat="43.8585614" lon="12.3983621"><ele>653.0</ele><time>2026-04-12T07:02:31.299Z</time></trkpt><trkpt lat="43.8585786" lon="12.398266"><ele>654.3333333333334</ele><time>2026-04-12T07:02:35.313Z</time></trkpt><trkpt lat="43.8585994" lon="12.3981582"><ele>655.6666666666666</ele><time>2026-04-12T07:02:39.309Z</time></trkpt><trkpt lat="43.8586185" lon="12.3980503"><ele>657.0</ele><time>2026-04-12T07:02:43.262Z</time></trkpt><trkpt lat="43.8586395" lon="12.3979508"><ele>658.1428571428571</ele><time>2026-04-12T07:02:47.301Z</time></trkpt><trkpt lat="43.8586598" lon="12.3978489"><ele>659.2857142857143</ele><time>2026-04-12T07:02:51.272Z</time></trkpt><trkpt lat="43.8586887" lon="12.397768"><ele>660.4285714285714</ele><time>2026-04-12T07:02:55.301Z</time></trkpt><trkpt lat="43.8587034" lon="12.3976601"><ele>661.5714285714286</ele><time>2026-04-12T07:03:00.301Z</time></trkpt><trkpt lat="43.8587171" lon="12.3975568"><ele>662.7142857142858</ele><time>2026-04-12T07:03:04.299Z</time></trkpt><trkpt lat="43.8587258" lon="12.3974596"><ele>663.8571428571429</ele><time>2026-04-12T07:03:08.295Z</time></trkpt><trkpt lat="43.8587401" lon="12.397368"><ele>665.0</ele><time>2026-04-12T07:03:12.301Z</time></trkpt><trkpt lat="43.8587527" lon="12.3972796"><ele>665.0</ele><time>2026-04-12T07:03:16.281Z</time></trkpt><trkpt lat="43.8587565" lon="12.3971898"><ele>665.0</ele><time>2026-04-12T07:03:20.275Z</time></trkpt><trkpt lat="43.8587594" lon="12.3970997"><ele>665.0</ele><time>2026-04-12T07:03:24.3Z</time></trkpt><trkpt lat="43.8587589" lon="12.3969911"><ele>665.0</ele><time>2026-04-12T07:03:29.263Z</time></trkpt><trkpt lat="43.858756" lon="12.3968807"><ele>665.0</ele><time>2026-04-12T07:03:33.291Z</time></trkpt><trkpt lat="43.8587505" lon="12.3967773"><ele>665.0</ele><time>2026-04-12T07:03:37.268Z</time></trkpt><trkpt lat="43.8587386" lon="12.3966865"><ele>665.0</ele><time>2026-04-12T07:03:41.269Z</time></trkpt><trkpt lat="43.8587271" lon="12.3965896"><ele>666.0</ele><time>2026-04-12T07:03:45.274Z</time></trkpt><trkpt lat="43.8587287" lon="12.3964993"><ele>667.0</ele><time>2026-04-12T07:03:49.272Z</time></trkpt><trkpt lat="43.8587182" lon="12.3964102"><ele>668.0</ele><time>2026-04-12T07:03:53.308Z</time></trkpt><trkpt lat="43.8587014" lon="12.3963134"><ele>669.0</ele><time>2026-04-12T07:03:57.282Z</time></trkpt><trkpt lat="43.8586927" lon="12.3962167"><ele>670.0</ele><time>2026-04-12T07:04:02.306Z</time></trkpt><trkpt lat="43.8586706" lon="12.3961126"><ele>671.0</ele><time>2026-04-12T07:04:07.286Z</time></trkpt><trkpt lat="43.8586582" lon="12.3960144"><ele>672.0</ele><time>2026-04-12T07:04:12.286Z</time></trkpt><trkpt lat="43.8586428" lon="12.3959166"><ele>672.5714285714286</ele><time>2026-04-12T07:04:16.303Z</time></trkpt><trkpt lat="43.8586189" lon="12.395814"><ele>673.1428571428571</ele><time>2026-04-12T07:04:21.277Z</time></trkpt><trkpt lat="43.8586073" lon="12.3957107"><ele>673.7142857142858</ele><time>2026-04-12T07:04:26.291Z</time></trkpt><trkpt lat="43.8585996" lon="12.3956231"><ele>674.2857142857142</ele><time>2026-04-12T07:04:30.304Z</time></trkpt><trkpt lat="43.8585911" lon="12.395525"><ele>674.8571428571429</ele><time>2026-04-12T07:04:35.241Z</time></trkpt><trkpt lat="43.8585878" lon="12.395437"><ele>675.4285714285714</ele><time>2026-04-12T07:04:40.294Z</time></trkpt><trkpt lat="43.8585782" lon="12.3953484"><ele>676.0</ele><time>2026-04-12T07:04:45.289Z</time></trkpt><trkpt lat="43.8585824" lon="12.3952505"><ele>676.6666666666667</ele><time>2026-04-12T07:04:51.314Z</time></trkpt><trkpt lat="43.8585767" lon="12.3951414"><ele>677.3333333333334</ele><time>2026-04-12T07:04:57.32Z</time></trkpt><trkpt lat="43.8585704" lon="12.3950411"><ele>678.0</ele><time>2026-04-12T07:05:02.294Z</time></trkpt><trkpt lat="43.8585747" lon="12.3949443"><ele>678.6666666666666</ele><time>2026-04-12T07:05:06.304Z</time></trkpt><trkpt lat="43.8585782" lon="12.3948474"><ele>679.3333333333333</ele><time>2026-04-12T07:05:09.322Z</time></trkpt><trkpt lat="43.8585712" lon="12.3947325"><ele>680.0</ele><time>2026-04-12T07:05:12.284Z</time></trkpt><trkpt lat="43.8585717" lon="12.3946262"><ele>680.4285714285714</ele><time>2026-04-12T07:05:15.289Z</time></trkpt><trkpt lat="43.8585704" lon="12.3945221"><ele>680.8571428571428</ele><time>2026-04-12T07:05:18.289Z</time></trkpt><trkpt lat="43.858573" lon="12.394423"><ele>681.2857142857142</ele><time>2026-04-12T07:05:21.29Z</time></trkpt><trkpt lat="43.8585689" lon="12.394322"><ele>681.7142857142858</ele><time>2026-04-12T07:05:24.24Z</time></trkpt><trkpt lat="43.8585698" lon="12.3942237"><ele>682.1428571428571</ele><time>2026-04-12T07:05:27.291Z</time></trkpt><trkpt lat="43.8585613" lon="12.3941217"><ele>682.5714285714286</ele><time>2026-04-12T07:05:31.294Z</time></trkpt><trkpt lat="43.8585409" lon="12.3940331"><ele>683.0</ele><time>2026-04-12T07:05:35.278Z</time></trkpt><trkpt lat="43.8585276" lon="12.3939388"><ele>683.2857142857143</ele><time>2026-04-12T07:05:39.299Z</time></trkpt><trkpt lat="43.8585077" lon="12.3938328"><ele>683.5714285714286</ele><time>2026-04-12T07:05:44.298Z</time></trkpt><trkpt lat="43.8584919" lon="12.3937254"><ele>683.8571428571429</ele><time>2026-04-12T07:05:48.3Z</time></trkpt><trkpt lat="43.8584696" lon="12.3936352"><ele>684.1428571428571</ele><time>2026-04-12T07:05:52.297Z</time></trkpt><trkpt lat="43.8584383" lon="12.3935406"><ele>684.4285714285714</ele><time>2026-04-12T07:05:56.296Z</time></trkpt><trkpt lat="43.8584045" lon="12.3934401"><ele>684.7142857142857</ele><time>2026-04-12T07:06:00.288Z</time></trkpt><trkpt lat="43.8583704" lon="12.3933652"><ele>685.0</ele><time>2026-04-12T07:06:03.303Z</time></trkpt><trkpt lat="43.8583313" lon="12.3932732"><ele>687.7142857142857</ele><time>2026-04-12T07:06:07.303Z</time></trkpt><trkpt lat="43.8582944" lon="12.3931961"><ele>690.4285714285714</ele><time>2026-04-12T07:06:10.287Z</time></trkpt><trkpt lat="43.8582597" lon="12.3931229"><ele>693.1428571428571</ele><time>2026-04-12T07:06:13.285Z</time></trkpt><trkpt lat="43.8582257" lon="12.3930375"><ele>695.8571428571429</ele><time>2026-04-12T07:06:16.269Z</time></trkpt><trkpt lat="43.858192" lon="12.3929604"><ele>698.5714285714286</ele><time>2026-04-12T07:06:19.312Z</time></trkpt><trkpt lat="43.858171" lon="12.3928495"><ele>701.2857142857143</ele><time>2026-04-12T07:06:23.298Z</time></trkpt><trkpt lat="43.8581483" lon="12.3927397"><ele>704.0</ele><time>2026-04-12T07:06:27.293Z</time></trkpt><trkpt lat="43.858132" lon="12.3926541"><ele>704.5714285714286</ele><time>2026-04-12T07:06:30.297Z</time></trkpt><trkpt lat="43.858112" lon="12.3925521"><ele>705.1428571428571</ele><time>2026-04-12T07:06:34.302Z</time></trkpt><trkpt lat="43.8581154" lon="12.3924496"><ele>705.7142857142858</ele><time>2026-04-12T07:06:37.299Z</time></trkpt><trkpt lat="43.8581156" lon="12.3923615"><ele>706.2857142857142</ele><time>2026-04-12T07:06:40.299Z</time></trkpt><trkpt lat="43.8581181" lon="12.3922688"><ele>706.8571428571428</ele><time>2026-04-12T07:06:43.3Z</time></trkpt><trkpt lat="43.8581338" lon="12.3921693"><ele>707.4285714285714</ele><time>2026-04-12T07:06:47.302Z</time></trkpt><trkpt lat="43.8581296" lon="12.3920578"><ele>708.0</ele><time>2026-04-12T07:06:51.251Z</time></trkpt><trkpt lat="43.8581236" lon="12.3919501"><ele>707.8333333333334</ele><time>2026-04-12T07:06:55.307Z</time></trkpt><trkpt lat="43.8581067" lon="12.3918331"><ele>707.6666666666666</ele><time>2026-04-12T07:06:59.32Z</time></trkpt><trkpt lat="43.8580771" lon="12.3917252"><ele>707.5</ele><time>2026-04-12T07:07:03.299Z</time></trkpt><trkpt lat="43.8580304" lon="12.3916101"><ele>707.3333333333333</ele><time>2026-04-12T07:07:06.292Z</time></trkpt><trkpt lat="43.8579969" lon="12.3915205"><ele>707.1666666666666</ele><time>2026-04-12T07:07:08.277Z</time></trkpt><trkpt lat="43.8579419" lon="12.3914171"><ele>707.0</ele><time>2026-04-12T07:07:10.309Z</time></trkpt><trkpt lat="43.8578995" lon="12.391335"><ele>707.0</ele><time>2026-04-12T07:07:12.284Z</time></trkpt><trkpt lat="43.8578584" lon="12.3912529"><ele>707.0</ele><time>2026-04-12T07:07:14.292Z</time></trkpt><trkpt lat="43.8578198" lon="12.3911821"><ele>707.0</ele><time>2026-04-12T07:07:16.299Z</time></trkpt><trkpt lat="43.8577757" lon="12.3910809"><ele>707.0</ele><time>2026-04-12T07:07:19.296Z</time></trkpt><trkpt lat="43.8577349" lon="12.3909916"><ele>707.0</ele><time>2026-04-12T07:07:22.282Z</time></trkpt><trkpt lat="43.8576958" lon="12.3908958"><ele>707.0</ele><time>2026-04-12T07:07:26.301Z</time></trkpt><trkpt lat="43.8576582" lon="12.390824"><ele>707.0</ele><time>2026-04-12T07:07:30.261Z</time></trkpt><trkpt lat="43.8576284" lon="12.3907417"><ele>708.8333333333333</ele><time>2026-04-12T07:07:34.285Z</time></trkpt><trkpt lat="43.857587" lon="12.3906567"><ele>710.6666666666666</ele><time>2026-04-12T07:07:39.316Z</time></trkpt><trkpt lat="43.8575366" lon="12.3905741"><ele>712.5</ele><time>2026-04-12T07:07:44.311Z</time></trkpt><trkpt lat="43.8574888" lon="12.390497"><ele>714.3333333333334</ele><time>2026-04-12T07:07:48.295Z</time></trkpt><trkpt lat="43.8574379" lon="12.390422"><ele>716.1666666666667</ele><time>2026-04-12T07:07:51.283Z</time></trkpt><trkpt lat="43.8573718" lon="12.390337"><ele>718.0</ele><time>2026-04-12T07:07:54.317Z</time></trkpt><trkpt lat="43.8573095" lon="12.3902495"><ele>718.0</ele><time>2026-04-12T07:07:56.301Z</time></trkpt><trkpt lat="43.8572481" lon="12.3901662"><ele>718.0</ele><time>2026-04-12T07:07:58.292Z</time></trkpt><trkpt lat="43.8571628" lon="12.3900593"><ele>718.0</ele><time>2026-04-12T07:08:00.289Z</time></trkpt><trkpt lat="43.8570782" lon="12.3899501"><ele>718.0</ele><time>2026-04-12T07:08:02.304Z</time></trkpt><trkpt lat="43.8570301" lon="12.3898921"><ele>718.0</ele><time>2026-04-12T07:08:03.277Z</time></trkpt><trkpt lat="43.8569879" lon="12.3898267"><ele>718.0</ele><time>2026-04-12T07:08:04.293Z</time></trkpt><trkpt lat="43.8569441" lon="12.389759"><ele>718.0</ele><time>2026-04-12T07:08:05.27Z</time></trkpt><trkpt lat="43.8569004" lon="12.3896929"><ele>718.0</ele><time>2026-04-12T07:08:06.297Z</time></trkpt><trkpt lat="43.8568543" lon="12.389621"><ele>718.0</ele><time>2026-04-12T07:08:07.305Z</time></trkpt><trkpt lat="43.8568205" lon="12.3895394"><ele>718.0</ele><time>2026-04-12T07:08:08.305Z</time></trkpt><trkpt lat="43.8568" lon="12.3894518"><ele>718.0</ele><time>2026-04-12T07:08:09.298Z</time></trkpt><trkpt lat="43.856789" lon="12.3893645"><ele>718.0</ele><time>2026-04-12T07:08:10.305Z</time></trkpt><trkpt lat="43.8567812" lon="12.3892725"><ele>718.0</ele><time>2026-04-12T07:08:11.304Z</time></trkpt><trkpt lat="43.8567566" lon="12.389105"><ele>718.0</ele><time>2026-04-12T07:08:13.297Z</time></trkpt><trkpt lat="43.856736" lon="12.3890207"><ele>718.0</ele><time>2026-04-12T07:08:14.271Z</time></trkpt><trkpt lat="43.8567062" lon="12.3889307"><ele>718.0</ele><time>2026-04-12T07:08:15.276Z</time></trkpt><trkpt lat="43.8566736" lon="12.3888352"><ele>718.0</ele><time>2026-04-12T07:08:16.308Z</time></trkpt><trkpt lat="43.856647" lon="12.3887384"><ele>718.0</ele><time>2026-04-12T07:08:17.309Z</time></trkpt><trkpt lat="43.8566206" lon="12.3886244"><ele>718.0</ele><time>2026-04-12T07:08:18.256Z</time></trkpt><trkpt lat="43.8565912" lon="12.3884961"><ele>717.5</ele><time>2026-04-12T07:08:19.29Z</time></trkpt><trkpt lat="43.8565542" lon="12.3883719"><ele>717.0</ele><time>2026-04-12T07:08:20.288Z</time></trkpt><trkpt lat="43.8565166" lon="12.3882578"><ele>716.5</ele><time>2026-04-12T07:08:21.253Z</time></trkpt><trkpt lat="43.8564915" lon="12.3881358"><ele>716.0</ele><time>2026-04-12T07:08:22.293Z</time></trkpt><trkpt lat="43.8564578" lon="12.3880312"><ele>715.5</ele><time>2026-04-12T07:08:23.24Z</time></trkpt><trkpt lat="43.8564182" lon="12.3879403"><ele>715.0</ele><time>2026-04-12T07:08:24.285Z</time></trkpt><trkpt lat="43.8563795" lon="12.387847"><ele>714.0</ele><time>2026-04-12T07:08:25.286Z</time></trkpt><trkpt lat="43.85634" lon="12.3877612"><ele>713.0</ele><time>2026-04-12T07:08:26.299Z</time></trkpt><trkpt lat="43.8562947" lon="12.387689"><ele>712.0</ele><time>2026-04-12T07:08:27.292Z</time></trkpt><trkpt lat="43.8562451" lon="12.387626"><ele>711.0</ele><time>2026-04-12T07:08:28.274Z</time></trkpt><trkpt lat="43.8561852" lon="12.3875616"><ele>710.0</ele><time>2026-04-12T07:08:29.289Z</time></trkpt><trkpt lat="43.8561215" lon="12.3875052"><ele>709.0</ele><time>2026-04-12T07:08:30.299Z</time></trkpt><trkpt lat="43.856053" lon="12.387438"><ele>708.0</ele><time>2026-04-12T07:08:31.296Z</time></trkpt><trkpt lat="43.8559791" lon="12.3873723"><ele>709.3333333333334</ele><time>2026-04-12T07:08:32.301Z</time></trkpt><trkpt lat="43.8559069" lon="12.3873006"><ele>710.6666666666666</ele><time>2026-04-12T07:08:33.313Z</time></trkpt><trkpt lat="43.8558413" lon="12.3872161"><ele>712.0</ele><time>2026-04-12T07:08:34.288Z</time></trkpt><trkpt lat="43.8557915" lon="12.387129"><ele>713.3333333333333</ele><time>2026-04-12T07:08:35.303Z</time></trkpt><trkpt lat="43.8557503" lon="12.3870372"><ele>714.6666666666666</ele><time>2026-04-12T07:08:36.312Z</time></trkpt><trkpt lat="43.8557138" lon="12.3869404"><ele>716.0</ele><time>2026-04-12T07:08:37.297Z</time></trkpt><trkpt lat="43.855683" lon="12.3868505"><ele>716.0</ele><time>2026-04-12T07:08:38.311Z</time></trkpt><trkpt lat="43.8556593" lon="12.3867609"><ele>716.0</ele><time>2026-04-12T07:08:39.287Z</time></trkpt><trkpt lat="43.8556184" lon="12.3866147"><ele>716.0</ele><time>2026-04-12T07:08:41.308Z</time></trkpt><trkpt lat="43.8555944" lon="12.3864858"><ele>716.0</ele><time>2026-04-12T07:08:43.304Z</time></trkpt><trkpt lat="43.8555746" lon="12.3863816"><ele>716.0</ele><time>2026-04-12T07:08:45.275Z</time></trkpt><trkpt lat="43.8555551" lon="12.386282"><ele>716.0</ele><time>2026-04-12T07:08:47.315Z</time></trkpt><trkpt lat="43.855539" lon="12.3861781"><ele>715.2857142857143</ele><time>2026-04-12T07:08:49.305Z</time></trkpt><trkpt lat="43.8555191" lon="12.386077"><ele>714.5714285714286</ele><time>2026-04-12T07:08:51.295Z</time></trkpt><trkpt lat="43.8554981" lon="12.3859775"><ele>713.8571428571429</ele><time>2026-04-12T07:08:53.313Z</time></trkpt><trkpt lat="43.8554794" lon="12.3858895"><ele>713.1428571428571</ele><time>2026-04-12T07:08:55.312Z</time></trkpt><trkpt lat="43.8554637" lon="12.385803"><ele>712.4285714285714</ele><time>2026-04-12T07:08:57.307Z</time></trkpt><trkpt lat="43.8554356" lon="12.3857087"><ele>711.7142857142858</ele><time>2026-04-12T07:08:59.319Z</time></trkpt><trkpt lat="43.8553867" lon="12.3856109"><ele>711.0</ele><time>2026-04-12T07:09:01.289Z</time></trkpt><trkpt lat="43.8553364" lon="12.3854812"><ele>710.1999999999999</ele><time>2026-04-12T07:09:03.296Z</time></trkpt><trkpt lat="43.8552922" lon="12.3853544"><ele>709.4</ele><time>2026-04-12T07:09:05.303Z</time></trkpt><trkpt lat="43.8552685" lon="12.3852109"><ele>708.6</ele><time>2026-04-12T07:09:07.297Z</time></trkpt><trkpt lat="43.8552581" lon="12.3850683"><ele>707.8</ele><time>2026-04-12T07:09:09.264Z</time></trkpt><trkpt lat="43.8552377" lon="12.3849435"><ele>707.0</ele><time>2026-04-12T07:09:11.311Z</time></trkpt><trkpt lat="43.8552136" lon="12.3848333"><ele>707.0</ele><time>2026-04-12T07:09:13.296Z</time></trkpt><trkpt lat="43.8551855" lon="12.384736"><ele>707.0</ele><time>2026-04-12T07:09:15.289Z</time></trkpt><trkpt lat="43.8551571" lon="12.384643"><ele>707.0</ele><time>2026-04-12T07:09:17.3Z</time></trkpt><trkpt lat="43.8551353" lon="12.3845296"><ele>707.0</ele><time>2026-04-12T07:09:19.295Z</time></trkpt><trkpt lat="43.8551119" lon="12.384423"><ele>707.0</ele><time>2026-04-12T07:09:21.291Z</time></trkpt><trkpt lat="43.8550893" lon="12.3843269"><ele>707.0</ele><time>2026-04-12T07:09:23.267Z</time></trkpt><trkpt lat="43.8550732" lon="12.38423"><ele>709.7142857142857</ele><time>2026-04-12T07:09:25.309Z</time></trkpt><trkpt lat="43.8550544" lon="12.3841406"><ele>712.4285714285714</ele><time>2026-04-12T07:09:27.249Z</time></trkpt><trkpt lat="43.8550327" lon="12.3840396"><ele>715.1428571428571</ele><time>2026-04-12T07:09:30.259Z</time></trkpt><trkpt lat="43.8550117" lon="12.3839461"><ele>717.8571428571429</ele><time>2026-04-12T07:09:33.307Z</time></trkpt><trkpt lat="43.8550008" lon="12.3838592"><ele>720.5714285714286</ele><time>2026-04-12T07:09:37.296Z</time></trkpt><trkpt lat="43.8549925" lon="12.3837457"><ele>723.2857142857142</ele><time>2026-04-12T07:09:41.247Z</time></trkpt><trkpt lat="43.8549744" lon="12.3836554"><ele>726.0</ele><time>2026-04-12T07:09:45.299Z</time></trkpt><trkpt lat="43.8549412" lon="12.383579"><ele>726.5714285714286</ele><time>2026-04-12T07:09:50.272Z</time></trkpt><trkpt lat="43.8549206" lon="12.3834926"><ele>727.1428571428571</ele><time>2026-04-12T07:09:55.261Z</time></trkpt><trkpt lat="43.8549159" lon="12.3833949"><ele>727.7142857142858</ele><time>2026-04-12T07:10:00.284Z</time></trkpt><trkpt lat="43.8549017" lon="12.3833083"><ele>728.2857142857142</ele><time>2026-04-12T07:10:05.276Z</time></trkpt><trkpt lat="43.8548907" lon="12.3832061"><ele>728.8571428571429</ele><time>2026-04-12T07:10:11.312Z</time></trkpt><trkpt lat="43.8548774" lon="12.3831173"><ele>729.4285714285714</ele><time>2026-04-12T07:10:16.3Z</time></trkpt><trkpt lat="43.8548564" lon="12.3830285"><ele>730.0</ele><time>2026-04-12T07:10:21.253Z</time></trkpt><trkpt lat="43.8548235" lon="12.3829305"><ele>730.5714285714287</ele><time>2026-04-12T07:10:26.289Z</time></trkpt><trkpt lat="43.854798" lon="12.3828447"><ele>731.1428571428571</ele><time>2026-04-12T07:10:31.28Z</time></trkpt><trkpt lat="43.854773" lon="12.3827554"><ele>731.7142857142858</ele><time>2026-04-12T07:10:37.248Z</time></trkpt><trkpt lat="43.8547503" lon="12.3826549"><ele>732.2857142857143</ele><time>2026-04-12T07:10:42.289Z</time></trkpt><trkpt lat="43.8547264" lon="12.3825606"><ele>732.8571428571429</ele><time>2026-04-12T07:10:48.296Z</time></trkpt><trkpt lat="43.8546794" lon="12.3824737"><ele>733.4285714285714</ele><time>2026-04-12T07:10:54.301Z</time></trkpt><trkpt lat="43.854654" lon="12.3823901"><ele>734.0</ele><time>2026-04-12T07:11:00.276Z</time></trkpt><trkpt lat="43.854614" lon="12.3823106"><ele>734.0</ele><time>2026-04-12T07:11:05.288Z</time></trkpt><trkpt lat="43.8545599" lon="12.3822585"><ele>734.0</ele><time>2026-04-12T07:11:10.303Z</time></trkpt><trkpt lat="43.8544986" lon="12.3822017"><ele>734.0</ele><time>2026-04-12T07:11:14.289Z</time></trkpt><trkpt lat="43.8544363" lon="12.3821465"><ele>734.0</ele><time>2026-04-12T07:11:19.305Z</time></trkpt><trkpt lat="43.8543672" lon="12.382096"><ele>734.0</ele><time>2026-04-12T07:11:24.24Z</time></trkpt><trkpt lat="43.8542971" lon="12.3820631"><ele>734.0</ele><time>2026-04-12T07:11:28.287Z</time></trkpt><trkpt lat="43.8542272" lon="12.382046"><ele>734.0</ele><time>2026-04-12T07:11:32.296Z</time></trkpt><trkpt lat="43.8541622" lon="12.3820365"><ele>736.8571428571428</ele><time>2026-04-12T07:11:36.302Z</time></trkpt><trkpt lat="43.8540866" lon="12.3820262"><ele>739.7142857142858</ele><time>2026-04-12T07:11:41.247Z</time></trkpt><trkpt lat="43.8540202" lon="12.3820295"><ele>742.5714285714286</ele><time>2026-04-12T07:11:45.284Z</time></trkpt><trkpt lat="43.8539534" lon="12.3820427"><ele>745.4285714285713</ele><time>2026-04-12T07:11:50.299Z</time></trkpt><trkpt lat="43.8538886" lon="12.3820425"><ele>748.2857142857142</ele><time>2026-04-12T07:11:56.295Z</time></trkpt><trkpt lat="43.8538306" lon="12.3819935"><ele>751.1428571428571</ele><time>2026-04-12T07:12:03.317Z</time></trkpt><trkpt lat="43.8537867" lon="12.3819246"><ele>754.0</ele><time>2026-04-12T07:12:08.316Z</time></trkpt><trkpt lat="43.8537791" lon="12.3818177"><ele>753.9999999999999</ele><time>2026-04-12T07:12:13.236Z</time></trkpt><trkpt lat="43.8538037" lon="12.3817098"><ele>754.0</ele><time>2026-04-12T07:12:19.304Z</time></trkpt><trkpt lat="43.8538387" lon="12.3816171"><ele>754.0</ele><time>2026-04-12T07:12:23.288Z</time></trkpt><trkpt lat="43.8538653" lon="12.3815128"><ele>754.0</ele><time>2026-04-12T07:12:28.288Z</time></trkpt><trkpt lat="43.8538797" lon="12.3814161"><ele>754.0</ele><time>2026-04-12T07:12:32.314Z</time></trkpt><trkpt lat="43.853883" lon="12.3813158"><ele>753.9999999999999</ele><time>2026-04-12T07:12:37.309Z</time></trkpt><trkpt lat="43.8538741" lon="12.3812263"><ele>754.0</ele><time>2026-04-12T07:12:41.305Z</time></trkpt><trkpt lat="43.8538477" lon="12.3811403"><ele>755.1428571428571</ele><time>2026-04-12T07:12:45.276Z</time></trkpt><trkpt lat="43.8537938" lon="12.3810887"><ele>756.2857142857142</ele><time>2026-04-12T07:12:49.284Z</time></trkpt><trkpt lat="43.8537421" lon="12.3810379"><ele>757.4285714285713</ele><time>2026-04-12T07:12:53.303Z</time></trkpt><trkpt lat="43.8536722" lon="12.3809788"><ele>758.5714285714286</ele><time>2026-04-12T07:12:58.301Z</time></trkpt><trkpt lat="43.8536196" lon="12.3809289"><ele>759.7142857142858</ele><time>2026-04-12T07:13:02.283Z</time></trkpt><trkpt lat="43.8535598" lon="12.3808673"><ele>760.8571428571428</ele><time>2026-04-12T07:13:07.297Z</time></trkpt><trkpt lat="43.8535093" lon="12.3807988"><ele>762.0</ele><time>2026-04-12T07:13:12.274Z</time></trkpt><trkpt lat="43.8534574" lon="12.3807429"><ele>763.0</ele><time>2026-04-12T07:13:16.3Z</time></trkpt><trkpt lat="43.8534102" lon="12.3806798"><ele>764.0</ele><time>2026-04-12T07:13:20.299Z</time></trkpt><trkpt lat="43.8533611" lon="12.3806165"><ele>765.0</ele><time>2026-04-12T07:13:24.303Z</time></trkpt><trkpt lat="43.8533167" lon="12.3805323"><ele>766.0</ele><time>2026-04-12T07:13:29.298Z</time></trkpt><trkpt lat="43.8532731" lon="12.3804533"><ele>767.0</ele><time>2026-04-12T07:13:33.309Z</time></trkpt><trkpt lat="43.8532378" lon="12.3803671"><ele>768.0</ele><time>2026-04-12T07:13:37.297Z</time></trkpt><trkpt lat="43.8531914" lon="12.3802753"><ele>769.0</ele><time>2026-04-12T07:13:41.301Z</time></trkpt><trkpt lat="43.8531611" lon="12.380196"><ele>770.1428571428571</ele><time>2026-04-12T07:13:44.302Z</time></trkpt><trkpt lat="43.8531188" lon="12.3801087"><ele>771.2857142857143</ele><time>2026-04-12T07:13:48.301Z</time></trkpt><trkpt lat="43.8530827" lon="12.380031"><ele>772.4285714285714</ele><time>2026-04-12T07:13:51.263Z</time></trkpt><trkpt lat="43.8530424" lon="12.379962"><ele>773.5714285714286</ele><time>2026-04-12T07:13:54.302Z</time></trkpt><trkpt lat="43.8530039" lon="12.3798811"><ele>774.7142857142858</ele><time>2026-04-12T07:13:57.307Z</time></trkpt><trkpt lat="43.8529544" lon="12.3798039"><ele>775.8571428571429</ele><time>2026-04-12T07:14:00.301Z</time></trkpt><trkpt lat="43.8529215" lon="12.3797234"><ele>777.0</ele><time>2026-04-12T07:14:03.28Z</time></trkpt><trkpt lat="43.8528835" lon="12.3796368"><ele>778.3333333333334</ele><time>2026-04-12T07:14:06.309Z</time></trkpt><trkpt lat="43.8528545" lon="12.3795526"><ele>779.6666666666667</ele><time>2026-04-12T07:14:09.318Z</time></trkpt><trkpt lat="43.8528319" lon="12.3794363"><ele>781.0</ele><time>2026-04-12T07:14:13.26Z</time></trkpt><trkpt lat="43.8528113" lon="12.3793422"><ele>782.3333333333334</ele><time>2026-04-12T07:14:17.298Z</time></trkpt><trkpt lat="43.8527858" lon="12.3792322"><ele>783.6666666666667</ele><time>2026-04-12T07:14:21.298Z</time></trkpt><trkpt lat="43.8527695" lon="12.3791326"><ele>785.0</ele><time>2026-04-12T07:14:24.293Z</time></trkpt><trkpt lat="43.8527488" lon="12.3790266"><ele>785.0000000000001</ele><time>2026-04-12T07:14:28.308Z</time></trkpt><trkpt lat="43.8527398" lon="12.3789209"><ele>785.0</ele><time>2026-04-12T07:14:32.286Z</time></trkpt><trkpt lat="43.8527331" lon="12.3788041"><ele>785.0</ele><time>2026-04-12T07:14:36.311Z</time></trkpt><trkpt lat="43.8527147" lon="12.3786956"><ele>785.0</ele><time>2026-04-12T07:14:40.315Z</time></trkpt><trkpt lat="43.8526859" lon="12.3785966"><ele>785.0000000000001</ele><time>2026-04-12T07:14:44.308Z</time></trkpt><trkpt lat="43.8526439" lon="12.3785203"><ele>785.0</ele><time>2026-04-12T07:14:47.302Z</time></trkpt><trkpt lat="43.8525949" lon="12.3784483"><ele>785.7142857142858</ele><time>2026-04-12T07:14:50.278Z</time></trkpt><trkpt lat="43.8525332" lon="12.3783664"><ele>786.4285714285713</ele><time>2026-04-12T07:14:53.308Z</time></trkpt><trkpt lat="43.8524774" lon="12.3783068"><ele>787.1428571428571</ele><time>2026-04-12T07:14:55.271Z</time></trkpt><trkpt lat="43.8524208" lon="12.3782479"><ele>787.8571428571429</ele><time>2026-04-12T07:14:57.266Z</time></trkpt><trkpt lat="43.8523675" lon="12.378187"><ele>788.5714285714287</ele><time>2026-04-12T07:14:59.269Z</time></trkpt><trkpt lat="43.8523138" lon="12.3781237"><ele>789.2857142857142</ele><time>2026-04-12T07:15:01.247Z</time></trkpt><trkpt lat="43.8522545" lon="12.3780642"><ele>790.0</ele><time>2026-04-12T07:15:03.292Z</time></trkpt><trkpt lat="43.8521903" lon="12.3780012"><ele>790.5714285714286</ele><time>2026-04-12T07:15:05.303Z</time></trkpt><trkpt lat="43.8521412" lon="12.3779434"><ele>791.1428571428572</ele><time>2026-04-12T07:15:07.292Z</time></trkpt><trkpt lat="43.8520836" lon="12.3778633"><ele>791.7142857142858</ele><time>2026-04-12T07:15:10.301Z</time></trkpt><trkpt lat="43.8520303" lon="12.3778044"><ele>792.2857142857142</ele><time>2026-04-12T07:15:14.307Z</time></trkpt><trkpt lat="43.8519716" lon="12.3777432"><ele>792.8571428571429</ele><time>2026-04-12T07:15:18.274Z</time></trkpt><trkpt lat="43.8519148" lon="12.3776799"><ele>793.4285714285714</ele><time>2026-04-12T07:15:23.29Z</time></trkpt><trkpt lat="43.8518542" lon="12.3776114"><ele>794.0</ele><time>2026-04-12T07:15:27.308Z</time></trkpt><trkpt lat="43.8518022" lon="12.3775422"><ele>794.5000000000001</ele><time>2026-04-12T07:15:30.311Z</time></trkpt><trkpt lat="43.8517534" lon="12.3774803"><ele>795.0</ele><time>2026-04-12T07:15:33.275Z</time></trkpt><trkpt lat="43.8517166" lon="12.3773825"><ele>795.5</ele><time>2026-04-12T07:15:37.294Z</time></trkpt><trkpt lat="43.8516849" lon="12.3772869"><ele>796.0</ele><time>2026-04-12T07:15:40.296Z</time></trkpt><trkpt lat="43.8516563" lon="12.3771873"><ele>796.5000000000001</ele><time>2026-04-12T07:15:43.298Z</time></trkpt><trkpt lat="43.851613" lon="12.3770784"><ele>797.0</ele><time>2026-04-12T07:15:46.279Z</time></trkpt><trkpt lat="43.8515895" lon="12.3769903"><ele>797.8571428571428</ele><time>2026-04-12T07:15:48.295Z</time></trkpt><trkpt lat="43.8515523" lon="12.3769137"><ele>798.7142857142858</ele><time>2026-04-12T07:15:50.28Z</time></trkpt><trkpt lat="43.8515141" lon="12.3768405"><ele>799.5714285714286</ele><time>2026-04-12T07:15:52.305Z</time></trkpt><trkpt lat="43.8514771" lon="12.3767697"><ele>800.4285714285713</ele><time>2026-04-12T07:15:54.295Z</time></trkpt><trkpt lat="43.8514413" lon="12.3766878"><ele>801.2857142857142</ele><time>2026-04-12T07:15:56.272Z</time></trkpt><trkpt lat="43.8514005" lon="12.3766056"><ele>802.1428571428571</ele><time>2026-04-12T07:15:58.304Z</time></trkpt><trkpt lat="43.8513664" lon="12.3765122"><ele>803.0</ele><time>2026-04-12T07:16:00.287Z</time></trkpt><trkpt lat="43.8513315" lon="12.3764336"><ele>803.8333333333334</ele><time>2026-04-12T07:16:02.271Z</time></trkpt><trkpt lat="43.8512866" lon="12.3763185"><ele>804.6666666666667</ele><time>2026-04-12T07:16:05.288Z</time></trkpt><trkpt lat="43.8512504" lon="12.3762034"><ele>805.5</ele><time>2026-04-12T07:16:08.29Z</time></trkpt><trkpt lat="43.8512088" lon="12.376096"><ele>806.3333333333333</ele><time>2026-04-12T07:16:11.3Z</time></trkpt><trkpt lat="43.8511782" lon="12.376009"><ele>807.1666666666666</ele><time>2026-04-12T07:16:14.303Z</time></trkpt><trkpt lat="43.8511534" lon="12.3759277"><ele>808.0</ele><time>2026-04-12T07:16:17.312Z</time></trkpt><trkpt lat="43.8511297" lon="12.3758313"><ele>808.0</ele><time>2026-04-12T07:16:20.295Z</time></trkpt><trkpt lat="43.8510919" lon="12.3757387"><ele>808.0</ele><time>2026-04-12T07:16:23.295Z</time></trkpt><trkpt lat="43.8510637" lon="12.3756541"><ele>808.0</ele><time>2026-04-12T07:16:26.291Z</time></trkpt><trkpt lat="43.8510335" lon="12.3755764"><ele>808.0</ele><time>2026-04-12T07:16:29.24Z</time></trkpt><trkpt lat="43.8510122" lon="12.3754774"><ele>808.0</ele><time>2026-04-12T07:16:33.247Z</time></trkpt><trkpt lat="43.8509954" lon="12.3753919"><ele>808.0</ele><time>2026-04-12T07:16:36.235Z</time></trkpt><trkpt lat="43.8509772" lon="12.375287"><ele>808.0</ele><time>2026-04-12T07:16:40.281Z</time></trkpt><trkpt lat="43.8509443" lon="12.3751859"><ele>808.7142857142857</ele><time>2026-04-12T07:16:43.234Z</time></trkpt><trkpt lat="43.8509277" lon="12.3750957"><ele>809.4285714285713</ele><time>2026-04-12T07:16:46.294Z</time></trkpt><trkpt lat="43.8509267" lon="12.3750064"><ele>810.1428571428571</ele><time>2026-04-12T07:16:49.305Z</time></trkpt><trkpt lat="43.8509363" lon="12.3749145"><ele>810.8571428571429</ele><time>2026-04-12T07:16:52.295Z</time></trkpt><trkpt lat="43.8509286" lon="12.3748174"><ele>811.5714285714286</ele><time>2026-04-12T07:16:55.265Z</time></trkpt><trkpt lat="43.8509262" lon="12.3747195"><ele>812.2857142857143</ele><time>2026-04-12T07:16:59.292Z</time></trkpt><trkpt lat="43.8509181" lon="12.3746283"><ele>813.0</ele><time>2026-04-12T07:17:02.281Z</time></trkpt><trkpt lat="43.8509059" lon="12.3745295"><ele>814.1428571428572</ele><time>2026-04-12T07:17:05.277Z</time></trkpt><trkpt lat="43.8508989" lon="12.3744314"><ele>815.2857142857142</ele><time>2026-04-12T07:17:09.291Z</time></trkpt><trkpt lat="43.8508922" lon="12.37432"><ele>816.4285714285714</ele><time>2026-04-12T07:17:13.305Z</time></trkpt><trkpt lat="43.8508818" lon="12.3742135"><ele>817.5714285714287</ele><time>2026-04-12T07:17:17.295Z</time></trkpt><trkpt lat="43.8508789" lon="12.3741241"><ele>818.7142857142858</ele><time>2026-04-12T07:17:20.307Z</time></trkpt><trkpt lat="43.8508718" lon="12.3740304"><ele>819.8571428571429</ele><time>2026-04-12T07:17:23.306Z</time></trkpt><trkpt lat="43.8508513" lon="12.3739263"><ele>821.0</ele><time>2026-04-12T07:17:27.27Z</time></trkpt><trkpt lat="43.8508069" lon="12.3738311"><ele>822.0000000000001</ele><time>2026-04-12T07:17:32.301Z</time></trkpt><trkpt lat="43.8507488" lon="12.3737784"><ele>823.0</ele><time>2026-04-12T07:17:36.285Z</time></trkpt><trkpt lat="43.8506838" lon="12.3737612"><ele>824.0</ele><time>2026-04-12T07:17:40.308Z</time></trkpt><trkpt lat="43.8506153" lon="12.3737607"><ele>825.0</ele><time>2026-04-12T07:17:44.31Z</time></trkpt><trkpt lat="43.8505467" lon="12.3737516"><ele>826.0</ele><time>2026-04-12T07:17:48.304Z</time></trkpt><trkpt lat="43.850473" lon="12.3737577"><ele>827.0000000000001</ele><time>2026-04-12T07:17:53.304Z</time></trkpt><trkpt lat="43.850403" lon="12.3737653"><ele>828.0</ele><time>2026-04-12T07:17:57.289Z</time></trkpt><trkpt lat="43.8503264" lon="12.3737511"><ele>828.0</ele><time>2026-04-12T07:18:01.292Z</time></trkpt><trkpt lat="43.8502456" lon="12.3737417"><ele>828.0</ele><time>2026-04-12T07:18:04.272Z</time></trkpt><trkpt lat="43.8501662" lon="12.373711"><ele>828.0</ele><time>2026-04-12T07:18:07.306Z</time></trkpt><trkpt lat="43.8500985" lon="12.3736807"><ele>828.0</ele><time>2026-04-12T07:18:10.301Z</time></trkpt><trkpt lat="43.8500238" lon="12.3736657"><ele>828.0</ele><time>2026-04-12T07:18:13.292Z</time></trkpt><trkpt lat="43.8499533" lon="12.3736292"><ele>828.0</ele><time>2026-04-12T07:18:16.304Z</time></trkpt><trkpt lat="43.8498901" lon="12.3736011"><ele>829.6666666666666</ele><time>2026-04-12T07:18:19.282Z</time></trkpt><trkpt lat="43.8498181" lon="12.3735694"><ele>831.3333333333333</ele><time>2026-04-12T07:18:22.254Z</time></trkpt><trkpt lat="43.8497439" lon="12.3735299"><ele>833.0</ele><time>2026-04-12T07:18:25.246Z</time></trkpt><trkpt lat="43.8496651" lon="12.3734812"><ele>834.6666666666666</ele><time>2026-04-12T07:18:28.313Z</time></trkpt><trkpt lat="43.8495897" lon="12.3734425"><ele>836.3333333333333</ele><time>2026-04-12T07:18:30.288Z</time></trkpt><trkpt lat="43.8494905" lon="12.373408"><ele>838.0</ele><time>2026-04-12T07:18:32.232Z</time></trkpt><trkpt lat="43.8493947" lon="12.3733664"><ele>837.9999999999999</ele><time>2026-04-12T07:18:34.294Z</time></trkpt><trkpt lat="43.8493023" lon="12.3733262"><ele>838.0</ele><time>2026-04-12T07:18:36.301Z</time></trkpt><trkpt lat="43.8492049" lon="12.3732799"><ele>838.0</ele><time>2026-04-12T07:18:38.294Z</time></trkpt><trkpt lat="43.849137" lon="12.3732668"><ele>838.0</ele><time>2026-04-12T07:18:40.259Z</time></trkpt><trkpt lat="43.8490723" lon="12.3732642"><ele>837.9999999999999</ele><time>2026-04-12T07:18:42.304Z</time></trkpt><trkpt lat="43.8490071" lon="12.3732731"><ele>838.0</ele><time>2026-04-12T07:18:44.298Z</time></trkpt><trkpt lat="43.8489139" lon="12.3733065"><ele>837.9999999999999</ele><time>2026-04-12T07:18:47.285Z</time></trkpt><trkpt lat="43.8488525" lon="12.3733274"><ele>838.0</ele><time>2026-04-12T07:18:49.292Z</time></trkpt><trkpt lat="43.8487756" lon="12.3733631"><ele>838.0</ele><time>2026-04-12T07:18:52.297Z</time></trkpt><trkpt lat="43.8487031" lon="12.3733861"><ele>838.0</ele><time>2026-04-12T07:18:56.3Z</time></trkpt><trkpt lat="43.8486517" lon="12.3734369"><ele>838.0</ele><time>2026-04-12T07:19:00.295Z</time></trkpt><trkpt lat="43.848577" lon="12.373439"><ele>837.9999999999999</ele><time>2026-04-12T07:19:05.309Z</time></trkpt><trkpt lat="43.8484968" lon="12.3734485"><ele>838.0</ele><time>2026-04-12T07:19:09.268Z</time></trkpt><trkpt lat="43.8484237" lon="12.3734504"><ele>839.6666666666666</ele><time>2026-04-12T07:19:12.295Z</time></trkpt><trkpt lat="43.8483597" lon="12.373458"><ele>841.3333333333333</ele><time>2026-04-12T07:19:15.264Z</time></trkpt><trkpt lat="43.8482782" lon="12.3734581"><ele>843.0</ele><time>2026-04-12T07:19:18.304Z</time></trkpt><trkpt lat="43.8481983" lon="12.3734668"><ele>844.6666666666667</ele><time>2026-04-12T07:19:21.318Z</time></trkpt><trkpt lat="43.8481122" lon="12.373479"><ele>846.3333333333334</ele><time>2026-04-12T07:19:24.294Z</time></trkpt><trkpt lat="43.8480508" lon="12.3734984"><ele>848.0</ele><time>2026-04-12T07:19:26.242Z</time></trkpt><trkpt lat="43.8479621" lon="12.3735209"><ele>848.0000000000001</ele><time>2026-04-12T07:19:29.305Z</time></trkpt><trkpt lat="43.8478774" lon="12.3735386"><ele>848.0</ele><time>2026-04-12T07:19:32.251Z</time></trkpt><trkpt lat="43.8477865" lon="12.3735602"><ele>848.0</ele><time>2026-04-12T07:19:35.268Z</time></trkpt><trkpt lat="43.8477089" lon="12.3735926"><ele>848.0</ele><time>2026-04-12T07:19:38.316Z</time></trkpt><trkpt lat="43.8476289" lon="12.3736051"><ele>848.0000000000001</ele><time>2026-04-12T07:19:41.298Z</time></trkpt><trkpt lat="43.8475645" lon="12.3736417"><ele>848.0</ele><time>2026-04-12T07:19:44.325Z</time></trkpt><trkpt lat="43.8475382" lon="12.3737323"><ele>848.0</ele><time>2026-04-12T07:20:00.29Z</time></trkpt><trkpt lat="43.8474646" lon="12.3737342"><ele>848.0</ele><time>2026-04-12T07:23:03.293Z</time></trkpt><trkpt lat="43.8475333" lon="12.3737539"><ele>848.0</ele><time>2026-04-12T07:23:16.285Z</time></trkpt><trkpt lat="43.847473" lon="12.3737152"><ele>848.0</ele><time>2026-04-12T07:25:39.275Z</time></trkpt><trkpt lat="43.8473934" lon="12.3737228"><ele>848.0</ele><time>2026-04-12T07:25:42.315Z</time></trkpt><trkpt lat="43.8473224" lon="12.3737558"><ele>848.0</ele><time>2026-04-12T07:25:44.321Z</time></trkpt><trkpt lat="43.847245" lon="12.3737393"><ele>848.0</ele><time>2026-04-12T07:25:46.279Z</time></trkpt><trkpt lat="43.8471136" lon="12.3737397"><ele>848.0000000000001</ele><time>2026-04-12T07:25:48.285Z</time></trkpt><trkpt lat="43.8470222" lon="12.3737463"><ele>848.0</ele><time>2026-04-12T07:25:50.291Z</time></trkpt><trkpt lat="43.8469216" lon="12.3737338"><ele>848.0</ele><time>2026-04-12T07:25:52.317Z</time></trkpt><trkpt lat="43.8468634" lon="12.3736515"><ele>848.0</ele><time>2026-04-12T07:25:54.308Z</time></trkpt><trkpt lat="43.846844" lon="12.3735339"><ele>848.0000000000001</ele><time>2026-04-12T07:25:57.306Z</time></trkpt><trkpt lat="43.8468226" lon="12.3734375"><ele>848.0</ele><time>2026-04-12T07:26:00.286Z</time></trkpt><trkpt lat="43.8467934" lon="12.3733511"><ele>847.8571428571429</ele><time>2026-04-12T07:26:04.28Z</time></trkpt><trkpt lat="43.846769" lon="12.3732386"><ele>847.7142857142857</ele><time>2026-04-12T07:26:08.29Z</time></trkpt><trkpt lat="43.8467562" lon="12.3731444"><ele>847.5714285714286</ele><time>2026-04-12T07:26:12.278Z</time></trkpt><trkpt lat="43.8467327" lon="12.3730575"><ele>847.4285714285714</ele><time>2026-04-12T07:26:16.291Z</time></trkpt><trkpt lat="43.8466989" lon="12.3729714"><ele>847.2857142857142</ele><time>2026-04-12T07:26:20.315Z</time></trkpt><trkpt lat="43.8466746" lon="12.3728791"><ele>847.1428571428571</ele><time>2026-04-12T07:26:24.292Z</time></trkpt><trkpt lat="43.8466419" lon="12.3727848"><ele>847.0</ele><time>2026-04-12T07:26:28.27Z</time></trkpt><trkpt lat="43.8466094" lon="12.3727051"><ele>848.5714285714286</ele><time>2026-04-12T07:26:32.266Z</time></trkpt><trkpt lat="43.8466001" lon="12.372613"><ele>850.1428571428571</ele><time>2026-04-12T07:26:36.299Z</time></trkpt><trkpt lat="43.8465876" lon="12.3725237"><ele>851.7142857142858</ele><time>2026-04-12T07:26:40.287Z</time></trkpt><trkpt lat="43.8465637" lon="12.3724243"><ele>853.2857142857142</ele><time>2026-04-12T07:26:45.303Z</time></trkpt><trkpt lat="43.8465462" lon="12.3723266"><ele>854.8571428571429</ele><time>2026-04-12T07:26:49.313Z</time></trkpt><trkpt lat="43.8465643" lon="12.3722258"><ele>856.4285714285714</ele><time>2026-04-12T07:26:54.307Z</time></trkpt><trkpt lat="43.8466008" lon="12.3721491"><ele>858.0</ele><time>2026-04-12T07:26:58.307Z</time></trkpt><trkpt lat="43.8466461" lon="12.3720851"><ele>859.0</ele><time>2026-04-12T07:27:02.287Z</time></trkpt><trkpt lat="43.8467" lon="12.3720298"><ele>860.0</ele><time>2026-04-12T07:27:06.301Z</time></trkpt><trkpt lat="43.8467656" lon="12.372018"><ele>861.0</ele><time>2026-04-12T07:27:10.29Z</time></trkpt><trkpt lat="43.8468505" lon="12.3720253"><ele>862.0</ele><time>2026-04-12T07:27:14.267Z</time></trkpt><trkpt lat="43.8469352" lon="12.3720313"><ele>863.0</ele><time>2026-04-12T07:27:17.303Z</time></trkpt><trkpt lat="43.8470157" lon="12.3720209"><ele>864.0</ele><time>2026-04-12T07:27:20.311Z</time></trkpt><trkpt lat="43.8470784" lon="12.3719436"><ele>864.0</ele><time>2026-04-12T07:27:24.283Z</time></trkpt><trkpt lat="43.8471267" lon="12.3718539"><ele>864.0</ele><time>2026-04-12T07:27:28.298Z</time></trkpt><trkpt lat="43.8471529" lon="12.3717648"><ele>864.0</ele><time>2026-04-12T07:27:32.299Z</time></trkpt><trkpt lat="43.8471657" lon="12.3716618"><ele>864.0</ele><time>2026-04-12T07:27:36.281Z</time></trkpt><trkpt lat="43.8471655" lon="12.3715622"><ele>864.0</ele><time>2026-04-12T07:27:40.284Z</time></trkpt><trkpt lat="43.8471576" lon="12.3714541"><ele>864.0</ele><time>2026-04-12T07:27:45.266Z</time></trkpt><trkpt lat="43.8471408" lon="12.3713531"><ele>864.8333333333334</ele><time>2026-04-12T07:27:49.295Z</time></trkpt><trkpt lat="43.8471273" lon="12.3712526"><ele>865.6666666666667</ele><time>2026-04-12T07:27:54.297Z</time></trkpt><trkpt lat="43.8470861" lon="12.3711567"><ele>866.5</ele><time>2026-04-12T07:27:59.296Z</time></trkpt><trkpt lat="43.8470248" lon="12.37108"><ele>867.3333333333334</ele><time>2026-04-12T07:28:03.284Z</time></trkpt><trkpt lat="43.8469621" lon="12.3710154"><ele>868.1666666666667</ele><time>2026-04-12T07:28:07.262Z</time></trkpt><trkpt lat="43.8469038" lon="12.3709608"><ele>869.0</ele><time>2026-04-12T07:28:11.298Z</time></trkpt><trkpt lat="43.8468287" lon="12.3709191"><ele>869.5714285714286</ele><time>2026-04-12T07:28:15.275Z</time></trkpt><trkpt lat="43.8467591" lon="12.3708734"><ele>870.1428571428571</ele><time>2026-04-12T07:28:19.295Z</time></trkpt><trkpt lat="43.8466832" lon="12.3708437"><ele>870.7142857142857</ele><time>2026-04-12T07:28:24.282Z</time></trkpt><trkpt lat="43.8466121" lon="12.3708005"><ele>871.2857142857142</ele><time>2026-04-12T07:28:28.284Z</time></trkpt><trkpt lat="43.8465575" lon="12.3707522"><ele>871.8571428571429</ele><time>2026-04-12T07:28:31.285Z</time></trkpt><trkpt lat="43.8465093" lon="12.3706879"><ele>872.4285714285713</ele><time>2026-04-12T07:28:34.294Z</time></trkpt><trkpt lat="43.8464898" lon="12.3706003"><ele>873.0</ele><time>2026-04-12T07:28:37.294Z</time></trkpt><trkpt lat="43.8464946" lon="12.3705111"><ele>873.8571428571428</ele><time>2026-04-12T07:28:40.29Z</time></trkpt><trkpt lat="43.8464899" lon="12.3704096"><ele>874.7142857142857</ele><time>2026-04-12T07:28:45.289Z</time></trkpt><trkpt lat="43.8464829" lon="12.3703105"><ele>875.5714285714286</ele><time>2026-04-12T07:28:50.275Z</time></trkpt><trkpt lat="43.8464867" lon="12.3702198"><ele>876.4285714285713</ele><time>2026-04-12T07:28:55.277Z</time></trkpt><trkpt lat="43.8464966" lon="12.3701297"><ele>877.2857142857143</ele><time>2026-04-12T07:29:00.271Z</time></trkpt><trkpt lat="43.8464805" lon="12.3700389"><ele>878.1428571428571</ele><time>2026-04-12T07:29:06.268Z</time></trkpt><trkpt lat="43.8464884" lon="12.3699307"><ele>879.0</ele><time>2026-04-12T07:29:10.297Z</time></trkpt><trkpt lat="43.8465222" lon="12.3698411"><ele>879.0</ele><time>2026-04-12T07:29:13.308Z</time></trkpt><trkpt lat="43.8465808" lon="12.369759"><ele>879.0</ele><time>2026-04-12T07:29:16.299Z</time></trkpt><trkpt lat="43.8466428" lon="12.3696728"><ele>879.0</ele><time>2026-04-12T07:29:19.273Z</time></trkpt><trkpt lat="43.8466847" lon="12.3696027"><ele>879.0</ele><time>2026-04-12T07:29:21.289Z</time></trkpt><trkpt lat="43.8467378" lon="12.3695263"><ele>879.0</ele><time>2026-04-12T07:29:23.305Z</time></trkpt><trkpt lat="43.8467868" lon="12.369458"><ele>879.0</ele><time>2026-04-12T07:29:25.308Z</time></trkpt><trkpt lat="43.8468423" lon="12.3693556"><ele>879.7142857142858</ele><time>2026-04-12T07:29:28.3Z</time></trkpt><trkpt lat="43.8468996" lon="12.3692614"><ele>880.4285714285714</ele><time>2026-04-12T07:29:31.313Z</time></trkpt><trkpt lat="43.8469498" lon="12.3691776"><ele>881.1428571428571</ele><time>2026-04-12T07:29:34.238Z</time></trkpt><trkpt lat="43.8470054" lon="12.369112"><ele>881.8571428571429</ele><time>2026-04-12T07:29:37.293Z</time></trkpt><trkpt lat="43.8470558" lon="12.3690591"><ele>882.5714285714286</ele><time>2026-04-12T07:29:40.232Z</time></trkpt><trkpt lat="43.8471072" lon="12.3689945"><ele>883.2857142857143</ele><time>2026-04-12T07:29:43.236Z</time></trkpt><trkpt lat="43.8471664" lon="12.3689559"><ele>884.0</ele><time>2026-04-12T07:29:47.23Z</time></trkpt><trkpt lat="43.8472334" lon="12.3689249"><ele>884.0000000000001</ele><time>2026-04-12T07:29:52.301Z</time></trkpt><trkpt lat="43.8473099" lon="12.3689265"><ele>884.0</ele><time>2026-04-12T07:29:58.274Z</time></trkpt><trkpt lat="43.8473709" lon="12.3689039"><ele>884.0</ele><time>2026-04-12T07:30:03.266Z</time></trkpt><trkpt lat="43.8474204" lon="12.3688486"><ele>884.0</ele><time>2026-04-12T07:30:07.302Z</time></trkpt><trkpt lat="43.8474724" lon="12.3687873"><ele>884.0</ele><time>2026-04-12T07:30:12.281Z</time></trkpt><trkpt lat="43.8475228" lon="12.3687032"><ele>884.0000000000001</ele><time>2026-04-12T07:30:16.287Z</time></trkpt><trkpt lat="43.8475581" lon="12.3686275"><ele>884.0</ele><time>2026-04-12T07:30:19.302Z</time></trkpt><trkpt lat="43.8475819" lon="12.3685251"><ele>885.1428571428572</ele><time>2026-04-12T07:30:22.273Z</time></trkpt><trkpt lat="43.8475794" lon="12.3684307"><ele>886.2857142857143</ele><time>2026-04-12T07:30:25.288Z</time></trkpt><trkpt lat="43.847561" lon="12.368322"><ele>887.4285714285714</ele><time>2026-04-12T07:30:29.308Z</time></trkpt><trkpt lat="43.8475066" lon="12.3682437"><ele>888.5714285714287</ele><time>2026-04-12T07:30:33.299Z</time></trkpt><trkpt lat="43.8474634" lon="12.3681572"><ele>889.7142857142857</ele><time>2026-04-12T07:30:39.297Z</time></trkpt><trkpt lat="43.847412" lon="12.3680876"><ele>890.8571428571429</ele><time>2026-04-12T07:30:44.322Z</time></trkpt><trkpt lat="43.8473643" lon="12.368015"><ele>892.0</ele><time>2026-04-12T07:30:49.284Z</time></trkpt><trkpt lat="43.8473037" lon="12.3679467"><ele>892.5714285714286</ele><time>2026-04-12T07:30:54.285Z</time></trkpt><trkpt lat="43.8472502" lon="12.3678905"><ele>893.1428571428571</ele><time>2026-04-12T07:30:59.29Z</time></trkpt><trkpt lat="43.8471913" lon="12.3678373"><ele>893.7142857142858</ele><time>2026-04-12T07:31:05.267Z</time></trkpt><trkpt lat="43.8471444" lon="12.3677681"><ele>894.2857142857142</ele><time>2026-04-12T07:31:10.297Z</time></trkpt><trkpt lat="43.8471043" lon="12.3676859"><ele>894.8571428571429</ele><time>2026-04-12T07:31:15.267Z</time></trkpt><trkpt lat="43.8470666" lon="12.3676104"><ele>895.4285714285714</ele><time>2026-04-12T07:31:20.312Z</time></trkpt><trkpt lat="43.8470288" lon="12.3675213"><ele>896.0</ele><time>2026-04-12T07:31:25.271Z</time></trkpt><trkpt lat="43.8469985" lon="12.367434"><ele>896.0</ele><time>2026-04-12T07:31:30.317Z</time></trkpt><trkpt lat="43.846971" lon="12.3673498"><ele>896.0</ele><time>2026-04-12T07:31:35.292Z</time></trkpt><trkpt lat="43.8469616" lon="12.3672566"><ele>896.0</ele><time>2026-04-12T07:31:41.301Z</time></trkpt><trkpt lat="43.8469263" lon="12.367179"><ele>896.0</ele><time>2026-04-12T07:31:46.278Z</time></trkpt><trkpt lat="43.8469201" lon="12.3670903"><ele>896.0</ele><time>2026-04-12T07:31:51.251Z</time></trkpt><trkpt lat="43.8469121" lon="12.3669994"><ele>896.0</ele><time>2026-04-12T07:31:56.297Z</time></trkpt><trkpt lat="43.8469115" lon="12.3669069"><ele>896.0</ele><time>2026-04-12T07:32:01.285Z</time></trkpt><trkpt lat="43.8469377" lon="12.3668178"><ele>896.8571428571429</ele><time>2026-04-12T07:32:06.289Z</time></trkpt><trkpt lat="43.8469472" lon="12.3667199"><ele>897.7142857142858</ele><time>2026-04-12T07:32:11.322Z</time></trkpt><trkpt lat="43.84696" lon="12.366634"><ele>898.5714285714286</ele><time>2026-04-12T07:32:15.292Z</time></trkpt><trkpt lat="43.8469762" lon="12.3665342"><ele>899.4285714285714</ele><time>2026-04-12T07:32:19.298Z</time></trkpt><trkpt lat="43.8469837" lon="12.3664309"><ele>900.2857142857143</ele><time>2026-04-12T07:32:23.313Z</time></trkpt><trkpt lat="43.8469732" lon="12.3663327"><ele>901.1428571428571</ele><time>2026-04-12T07:32:27.292Z</time></trkpt><trkpt lat="43.8469571" lon="12.3662332"><ele>902.0</ele><time>2026-04-12T07:32:31.302Z</time></trkpt><trkpt lat="43.8469331" lon="12.3661411"><ele>903.0</ele><time>2026-04-12T07:32:35.258Z</time></trkpt><trkpt lat="43.8469119" lon="12.3660559"><ele>904.0</ele><time>2026-04-12T07:32:39.326Z</time></trkpt><trkpt lat="43.8468959" lon="12.3659605"><ele>905.0</ele><time>2026-04-12T07:32:43.325Z</time></trkpt><trkpt lat="43.8468621" lon="12.3658684"><ele>906.0</ele><time>2026-04-12T07:32:48.313Z</time></trkpt><trkpt lat="43.8468463" lon="12.3657808"><ele>907.0</ele><time>2026-04-12T07:32:52.314Z</time></trkpt><trkpt lat="43.8468353" lon="12.3656876"><ele>908.0</ele><time>2026-04-12T07:32:57.288Z</time></trkpt><trkpt lat="43.8468233" lon="12.3655984"><ele>909.0</ele><time>2026-04-12T07:33:02.302Z</time></trkpt><trkpt lat="43.8468033" lon="12.3655127"><ele>913.4285714285713</ele><time>2026-04-12T07:33:06.286Z</time></trkpt><trkpt lat="43.846786" lon="12.3654218"><ele>917.8571428571429</ele><time>2026-04-12T07:33:11.286Z</time></trkpt><trkpt lat="43.8467753" lon="12.3653283"><ele>922.2857142857142</ele><time>2026-04-12T07:33:17.288Z</time></trkpt><trkpt lat="43.8467335" lon="12.3652497"><ele>926.7142857142857</ele><time>2026-04-12T07:33:24.292Z</time></trkpt><trkpt lat="43.8466636" lon="12.3652327"><ele>931.1428571428571</ele><time>2026-04-12T07:33:29.311Z</time></trkpt><trkpt lat="43.846593" lon="12.3652435"><ele>935.5714285714286</ele><time>2026-04-12T07:33:34.263Z</time></trkpt><trkpt lat="43.8465199" lon="12.3652374"><ele>940.0</ele><time>2026-04-12T07:33:39.293Z</time></trkpt><trkpt lat="43.8464503" lon="12.3652268"><ele>940.0</ele><time>2026-04-12T07:33:45.294Z</time></trkpt><trkpt lat="43.8463818" lon="12.365209"><ele>939.9999999999999</ele><time>2026-04-12T07:33:51.294Z</time></trkpt><trkpt lat="43.8463179" lon="12.3651745"><ele>940.0</ele><time>2026-04-12T07:33:56.288Z</time></trkpt><trkpt lat="43.8462437" lon="12.3651476"><ele>940.0</ele><time>2026-04-12T07:34:01.279Z</time></trkpt><trkpt lat="43.8461796" lon="12.3651368"><ele>939.9999999999999</ele><time>2026-04-12T07:34:05.265Z</time></trkpt><trkpt lat="43.846108" lon="12.3651013"><ele>940.0</ele><time>2026-04-12T07:34:10.289Z</time></trkpt><trkpt lat="43.8460476" lon="12.3650708"><ele>940.0</ele><time>2026-04-12T07:34:15.273Z</time></trkpt><trkpt lat="43.8459859" lon="12.3650282"><ele>942.0</ele><time>2026-04-12T07:34:21.264Z</time></trkpt><trkpt lat="43.8459209" lon="12.3650034"><ele>943.9999999999999</ele><time>2026-04-12T07:34:27.286Z</time></trkpt><trkpt lat="43.8458424" lon="12.3649976"><ele>946.0</ele><time>2026-04-12T07:34:31.303Z</time></trkpt><trkpt lat="43.8457791" lon="12.3649862"><ele>948.0</ele><time>2026-04-12T07:34:35.29Z</time></trkpt><trkpt lat="43.8457138" lon="12.364981"><ele>949.9999999999999</ele><time>2026-04-12T07:34:40.259Z</time></trkpt><trkpt lat="43.8456406" lon="12.3649782"><ele>952.0</ele><time>2026-04-12T07:34:45.305Z</time></trkpt><trkpt lat="43.8455761" lon="12.3649608"><ele>954.0</ele><time>2026-04-12T07:34:50.262Z</time></trkpt><trkpt lat="43.8455112" lon="12.3649667"><ele>954.0</ele><time>2026-04-12T07:34:54.291Z</time></trkpt><trkpt lat="43.8454355" lon="12.3649679"><ele>953.9999999999999</ele><time>2026-04-12T07:34:59.278Z</time></trkpt><trkpt lat="43.8453622" lon="12.3649541"><ele>954.0</ele><time>2026-04-12T07:35:04.295Z</time></trkpt><trkpt lat="43.8452889" lon="12.3649624"><ele>954.0</ele><time>2026-04-12T07:35:10.28Z</time></trkpt><trkpt lat="43.8452177" lon="12.3649622"><ele>953.9999999999999</ele><time>2026-04-12T07:35:15.282Z</time></trkpt><trkpt lat="43.8451491" lon="12.3649618"><ele>954.0</ele><time>2026-04-12T07:35:21.29Z</time></trkpt><trkpt lat="43.8450816" lon="12.3649624"><ele>954.0</ele><time>2026-04-12T07:35:26.305Z</time></trkpt><trkpt lat="43.845016" lon="12.3649586"><ele>955.8571428571428</ele><time>2026-04-12T07:35:31.287Z</time></trkpt><trkpt lat="43.8449486" lon="12.3649613"><ele>957.7142857142856</ele><time>2026-04-12T07:35:36.244Z</time></trkpt><trkpt lat="43.8448788" lon="12.3649817"><ele>959.5714285714286</ele><time>2026-04-12T07:35:41.282Z</time></trkpt><trkpt lat="43.8448095" lon="12.3649846"><ele>961.4285714285713</ele><time>2026-04-12T07:35:47.285Z</time></trkpt><trkpt lat="43.8447455" lon="12.3650008"><ele>963.2857142857142</ele><time>2026-04-12T07:35:52.29Z</time></trkpt><trkpt lat="43.8446798" lon="12.3650021"><ele>965.1428571428571</ele><time>2026-04-12T07:35:57.289Z</time></trkpt><trkpt lat="43.8446049" lon="12.3650095"><ele>967.0</ele><time>2026-04-12T07:36:02.279Z</time></trkpt><trkpt lat="43.8445308" lon="12.3650164"><ele>967.0</ele><time>2026-04-12T07:36:07.309Z</time></trkpt><trkpt lat="43.8444577" lon="12.3650372"><ele>967.0</ele><time>2026-04-12T07:36:12.294Z</time></trkpt><trkpt lat="43.8443875" lon="12.3650581"><ele>967.0</ele><time>2026-04-12T07:36:17.28Z</time></trkpt><trkpt lat="43.8443216" lon="12.365087"><ele>967.0</ele><time>2026-04-12T07:36:21.283Z</time></trkpt><trkpt lat="43.8442563" lon="12.3651157"><ele>967.0</ele><time>2026-04-12T07:36:25.292Z</time></trkpt><trkpt lat="43.8441933" lon="12.3651638"><ele>967.0</ele><time>2026-04-12T07:36:29.299Z</time></trkpt><trkpt lat="43.8441341" lon="12.3652152"><ele>967.0</ele><time>2026-04-12T07:36:33.283Z</time></trkpt><trkpt lat="43.844083" lon="12.365282"><ele>966.1428571428571</ele><time>2026-04-12T07:36:37.294Z</time></trkpt><trkpt lat="43.8440356" lon="12.3653415"><ele>965.2857142857142</ele><time>2026-04-12T07:36:40.296Z</time></trkpt><trkpt lat="43.8439898" lon="12.365402"><ele>964.4285714285713</ele><time>2026-04-12T07:36:43.246Z</time></trkpt><trkpt lat="43.8439447" lon="12.3654682"><ele>963.5714285714286</ele><time>2026-04-12T07:36:46.252Z</time></trkpt><trkpt lat="43.8439039" lon="12.3655361"><ele>962.7142857142856</ele><time>2026-04-12T07:36:49.272Z</time></trkpt><trkpt lat="43.8438545" lon="12.3656322"><ele>961.8571428571428</ele><time>2026-04-12T07:36:53.294Z</time></trkpt><trkpt lat="43.8437969" lon="12.365687"><ele>961.0</ele><time>2026-04-12T07:36:58.301Z</time></trkpt><trkpt lat="43.8437331" lon="12.3657063"><ele>961.0</ele><time>2026-04-12T07:37:04.293Z</time></trkpt><trkpt lat="43.8436625" lon="12.3657277"><ele>960.9999999999999</ele><time>2026-04-12T07:37:10.296Z</time></trkpt><trkpt lat="43.8435992" lon="12.3657606"><ele>961.0</ele><time>2026-04-12T07:37:15.289Z</time></trkpt><trkpt lat="43.8435792" lon="12.3656778"><ele>961.0</ele><time>2026-04-12T07:37:23.308Z</time></trkpt><trkpt lat="43.8436048" lon="12.3655849"><ele>960.9999999999999</ele><time>2026-04-12T07:37:27.292Z</time></trkpt><trkpt lat="43.8436153" lon="12.3654816"><ele>961.0</ele><time>2026-04-12T07:37:37.288Z</time></trkpt><trkpt lat="43.8436205" lon="12.3653829"><ele>961.0</ele><time>2026-04-12T07:37:43.294Z</time></trkpt><trkpt lat="43.8436561" lon="12.3653011"><ele>964.8571428571428</ele><time>2026-04-12T07:37:49.281Z</time></trkpt><trkpt lat="43.8437252" lon="12.3652684"><ele>968.7142857142856</ele><time>2026-04-12T07:37:54.299Z</time></trkpt><trkpt lat="43.8437848" lon="12.3653001"><ele>972.5714285714286</ele><time>2026-04-12T07:37:56.306Z</time></trkpt><trkpt lat="43.8438499" lon="12.3652665"><ele>976.4285714285713</ele><time>2026-04-12T07:37:59.297Z</time></trkpt><trkpt lat="43.8439013" lon="12.365194"><ele>980.2857142857142</ele><time>2026-04-12T07:38:02.304Z</time></trkpt><trkpt lat="43.8439584" lon="12.3651536"><ele>984.1428571428571</ele><time>2026-04-12T07:38:04.282Z</time></trkpt><trkpt lat="43.8440252" lon="12.3651216"><ele>988.0</ele><time>2026-04-12T07:38:06.296Z</time></trkpt><trkpt lat="43.84409" lon="12.3650603"><ele>988.0</ele><time>2026-04-12T07:38:08.307Z</time></trkpt><trkpt lat="43.8441785" lon="12.3649934"><ele>988.0</ele><time>2026-04-12T07:38:10.291Z</time></trkpt><trkpt lat="43.8442599" lon="12.3649483"><ele>988.0</ele><time>2026-04-12T07:38:12.292Z</time></trkpt><trkpt lat="43.8443646" lon="12.3649331"><ele>988.0</ele><time>2026-04-12T07:38:14.296Z</time></trkpt><trkpt lat="43.8444676" lon="12.3649172"><ele>988.0</ele><time>2026-04-12T07:38:16.281Z</time></trkpt><trkpt lat="43.8445505" lon="12.3649121"><ele>984.4999999999999</ele><time>2026-04-12T07:38:18.291Z</time></trkpt><trkpt lat="43.8446188" lon="12.3649041"><ele>981.0</ele><time>2026-04-12T07:38:20.29Z</time></trkpt><trkpt lat="43.8446878" lon="12.3649097"><ele>977.5</ele><time>2026-04-12T07:38:22.297Z</time></trkpt><trkpt lat="43.8447574" lon="12.364879"><ele>974.0</ele><time>2026-04-12T07:38:24.309Z</time></trkpt><trkpt lat="43.8448284" lon="12.3648543"><ele>970.4999999999999</ele><time>2026-04-12T07:38:26.296Z</time></trkpt><trkpt lat="43.8449048" lon="12.3648458"><ele>967.0</ele><time>2026-04-12T07:38:28.287Z</time></trkpt><trkpt lat="43.8450015" lon="12.3648037"><ele>964.4000000000001</ele><time>2026-04-12T07:38:30.291Z</time></trkpt><trkpt lat="43.8451321" lon="12.3647583"><ele>961.8000000000001</ele><time>2026-04-12T07:38:32.293Z</time></trkpt><trkpt lat="43.8452003" lon="12.3647309"><ele>959.2</ele><time>2026-04-12T07:38:33.291Z</time></trkpt><trkpt lat="43.8453107" lon="12.3646816"><ele>956.6</ele><time>2026-04-12T07:38:35.293Z</time></trkpt><trkpt lat="43.8453884" lon="12.3646315"><ele>954.0</ele><time>2026-04-12T07:38:37.288Z</time></trkpt><trkpt lat="43.8454474" lon="12.3645826"><ele>958.5714285714286</ele><time>2026-04-12T07:38:39.286Z</time></trkpt><trkpt lat="43.8455097" lon="12.3645482"><ele>963.1428571428571</ele><time>2026-04-12T07:38:41.295Z</time></trkpt><trkpt lat="43.845569" lon="12.3645112"><ele>967.7142857142857</ele><time>2026-04-12T07:38:43.298Z</time></trkpt><trkpt lat="43.8456277" lon="12.3644671"><ele>972.2857142857142</ele><time>2026-04-12T07:38:45.274Z</time></trkpt><trkpt lat="43.8456825" lon="12.3644241"><ele>976.8571428571429</ele><time>2026-04-12T07:38:47.293Z</time></trkpt><trkpt lat="43.8457394" lon="12.3643667"><ele>981.4285714285713</ele><time>2026-04-12T07:38:49.279Z</time></trkpt><trkpt lat="43.8458117" lon="12.3643216"><ele>986.0</ele><time>2026-04-12T07:38:51.302Z</time></trkpt><trkpt lat="43.8458885" lon="12.3642662"><ele>986.0</ele><time>2026-04-12T07:38:53.305Z</time></trkpt><trkpt lat="43.8459547" lon="12.3642124"><ele>986.0</ele><time>2026-04-12T07:38:55.252Z</time></trkpt><trkpt lat="43.8460066" lon="12.3641616"><ele>986.0</ele><time>2026-04-12T07:38:57.293Z</time></trkpt><trkpt lat="43.8460553" lon="12.3640935"><ele>986.0</ele><time>2026-04-12T07:39:00.268Z</time></trkpt><trkpt lat="43.846128" lon="12.3640391"><ele>986.0</ele><time>2026-04-12T07:39:04.299Z</time></trkpt><trkpt lat="43.8461865" lon="12.3639985"><ele>986.0</ele><time>2026-04-12T07:39:07.302Z</time></trkpt><trkpt lat="43.846256" lon="12.3639315"><ele>986.0</ele><time>2026-04-12T07:39:11.299Z</time></trkpt><trkpt lat="43.8463284" lon="12.3638751"><ele>986.2857142857142</ele><time>2026-04-12T07:39:15.292Z</time></trkpt><trkpt lat="43.8463941" lon="12.3638529"><ele>986.5714285714287</ele><time>2026-04-12T07:39:18.292Z</time></trkpt><trkpt lat="43.8464583" lon="12.363815"><ele>986.8571428571429</ele><time>2026-04-12T07:39:21.273Z</time></trkpt><trkpt lat="43.8465267" lon="12.3637704"><ele>987.1428571428571</ele><time>2026-04-12T07:39:25.286Z</time></trkpt><trkpt lat="43.8465891" lon="12.3637471"><ele>987.4285714285713</ele><time>2026-04-12T07:39:28.287Z</time></trkpt><trkpt lat="43.846656" lon="12.3637251"><ele>987.7142857142858</ele><time>2026-04-12T07:39:31.279Z</time></trkpt><trkpt lat="43.8467186" lon="12.3636915"><ele>988.0</ele><time>2026-04-12T07:39:34.286Z</time></trkpt><trkpt lat="43.8467982" lon="12.3636588"><ele>987.9999999999999</ele><time>2026-04-12T07:39:38.284Z</time></trkpt><trkpt lat="43.8468607" lon="12.3636073"><ele>988.0</ele><time>2026-04-12T07:39:41.3Z</time></trkpt><trkpt lat="43.8469247" lon="12.3635604"><ele>988.0</ele><time>2026-04-12T07:39:44.285Z</time></trkpt><trkpt lat="43.846984" lon="12.3635202"><ele>988.0</ele><time>2026-04-12T07:39:47.287Z</time></trkpt><trkpt lat="43.8470518" lon="12.3634715"><ele>987.9999999999999</ele><time>2026-04-12T07:39:50.263Z</time></trkpt><trkpt lat="43.8471448" lon="12.3634255"><ele>988.0</ele><time>2026-04-12T07:39:53.291Z</time></trkpt><trkpt lat="43.8472256" lon="12.3634201"><ele>987.9999999999999</ele><time>2026-04-12T07:39:55.292Z</time></trkpt><trkpt lat="43.8473014" lon="12.3634168"><ele>988.0</ele><time>2026-04-12T07:39:57.289Z</time></trkpt><trkpt lat="43.8473771" lon="12.3634348"><ele>988.0</ele><time>2026-04-12T07:39:59.282Z</time></trkpt><trkpt lat="43.8474725" lon="12.3634355"><ele>988.0</ele><time>2026-04-12T07:40:01.265Z</time></trkpt><trkpt lat="43.8475644" lon="12.3634067"><ele>987.9999999999999</ele><time>2026-04-12T07:40:03.298Z</time></trkpt><trkpt lat="43.8476598" lon="12.363369"><ele>988.0</ele><time>2026-04-12T07:40:05.308Z</time></trkpt><trkpt lat="43.8477536" lon="12.3633172"><ele>988.3333333333333</ele><time>2026-04-12T07:40:07.31Z</time></trkpt><trkpt lat="43.847836" lon="12.3632648"><ele>988.6666666666666</ele><time>2026-04-12T07:40:09.287Z</time></trkpt><trkpt lat="43.8478839" lon="12.3631892"><ele>989.0</ele><time>2026-04-12T07:40:11.264Z</time></trkpt><trkpt lat="43.8479266" lon="12.3631145"><ele>989.3333333333333</ele><time>2026-04-12T07:40:13.305Z</time></trkpt><trkpt lat="43.8479748" lon="12.3630448"><ele>989.6666666666666</ele><time>2026-04-12T07:40:15.29Z</time></trkpt><trkpt lat="43.848031" lon="12.3629584"><ele>990.0</ele><time>2026-04-12T07:40:17.276Z</time></trkpt><trkpt lat="43.8480873" lon="12.3628848"><ele>990.0</ele><time>2026-04-12T07:40:19.295Z</time></trkpt><trkpt lat="43.8481492" lon="12.3627958"><ele>990.0</ele><time>2026-04-12T07:40:21.289Z</time></trkpt><trkpt lat="43.8482126" lon="12.3627123"><ele>990.0</ele><time>2026-04-12T07:40:23.271Z</time></trkpt><trkpt lat="43.8482675" lon="12.3626111"><ele>990.0</ele><time>2026-04-12T07:40:25.3Z</time></trkpt><trkpt lat="43.8483235" lon="12.3625188"><ele>990.0</ele><time>2026-04-12T07:40:27.294Z</time></trkpt><trkpt lat="43.8483582" lon="12.362444"><ele>990.0</ele><time>2026-04-12T07:40:29.297Z</time></trkpt><trkpt lat="43.8484017" lon="12.3623331"><ele>989.9999999999999</ele><time>2026-04-12T07:40:32.293Z</time></trkpt><trkpt lat="43.8484241" lon="12.3622508"><ele>990.0</ele><time>2026-04-12T07:40:34.308Z</time></trkpt><trkpt lat="43.8484408" lon="12.3621535"><ele>989.9999999999999</ele><time>2026-04-12T07:40:37.301Z</time></trkpt><trkpt lat="43.8484475" lon="12.3620648"><ele>989.9999999999999</ele><time>2026-04-12T07:40:40.291Z</time></trkpt><trkpt lat="43.8484624" lon="12.3619738"><ele>990.0</ele><time>2026-04-12T07:40:42.297Z</time></trkpt><trkpt lat="43.8484473" lon="12.361834"><ele>989.9999999999999</ele><time>2026-04-12T07:40:44.301Z</time></trkpt><trkpt lat="43.8484525" lon="12.3617432"><ele>989.9999999999999</ele><time>2026-04-12T07:40:45.273Z</time></trkpt><trkpt lat="43.8484476" lon="12.3616421"><ele>990.0</ele><time>2026-04-12T07:40:46.279Z</time></trkpt><trkpt lat="43.8484157" lon="12.3614824"><ele>990.0</ele><time>2026-04-12T07:40:48.279Z</time></trkpt><trkpt lat="43.8483594" lon="12.3613519"><ele>990.0</ele><time>2026-04-12T07:40:50.288Z</time></trkpt><trkpt lat="43.8483099" lon="12.3612146"><ele>990.0</ele><time>2026-04-12T07:40:52.276Z</time></trkpt><trkpt lat="43.8482714" lon="12.3610635"><ele>990.0</ele><time>2026-04-12T07:40:54.292Z</time></trkpt><trkpt lat="43.8482404" lon="12.360982"><ele>990.0</ele><time>2026-04-12T07:40:55.302Z</time></trkpt><trkpt lat="43.8482089" lon="12.3608613"><ele>990.0</ele><time>2026-04-12T07:40:57.298Z</time></trkpt><trkpt lat="43.848185" lon="12.3607674"><ele>990.0</ele><time>2026-04-12T07:40:59.303Z</time></trkpt><trkpt lat="43.8481383" lon="12.3606655"><ele>990.0</ele><time>2026-04-12T07:41:02.278Z</time></trkpt><trkpt lat="43.8481124" lon="12.3605803"><ele>990.0</ele><time>2026-04-12T07:41:04.311Z</time></trkpt><trkpt lat="43.8480828" lon="12.36048"><ele>989.3333333333334</ele><time>2026-04-12T07:41:06.309Z</time></trkpt><trkpt lat="43.8480517" lon="12.3603824"><ele>988.6666666666667</ele><time>2026-04-12T07:41:08.304Z</time></trkpt><trkpt lat="43.8480339" lon="12.3602749"><ele>988.0</ele><time>2026-04-12T07:41:10.282Z</time></trkpt><trkpt lat="43.8480083" lon="12.3601609"><ele>987.3333333333334</ele><time>2026-04-12T07:41:12.286Z</time></trkpt><trkpt lat="43.8479637" lon="12.3600503"><ele>986.6666666666667</ele><time>2026-04-12T07:41:14.299Z</time></trkpt><trkpt lat="43.8479255" lon="12.3599131"><ele>986.0</ele><time>2026-04-12T07:41:16.301Z</time></trkpt><trkpt lat="43.8479153" lon="12.3598128"><ele>986.0</ele><time>2026-04-12T07:41:18.283Z</time></trkpt><trkpt lat="43.8479155" lon="12.3597202"><ele>986.0</ele><time>2026-04-12T07:41:20.293Z</time></trkpt><trkpt lat="43.8479463" lon="12.3596223"><ele>986.0</ele><time>2026-04-12T07:41:23.274Z</time></trkpt><trkpt lat="43.8479465" lon="12.3595304"><ele>986.0</ele><time>2026-04-12T07:41:27.28Z</time></trkpt><trkpt lat="43.8479215" lon="12.3594357"><ele>986.0</ele><time>2026-04-12T07:41:33.285Z</time></trkpt><trkpt lat="43.8479333" lon="12.3593353"><ele>986.0</ele><time>2026-04-12T07:41:36.29Z</time></trkpt><trkpt lat="43.8479385" lon="12.3592269"><ele>986.0</ele><time>2026-04-12T07:41:39.294Z</time></trkpt><trkpt lat="43.8479528" lon="12.3591343"><ele>985.8571428571429</ele><time>2026-04-12T07:41:42.285Z</time></trkpt><trkpt lat="43.8479574" lon="12.3590293"><ele>985.7142857142858</ele><time>2026-04-12T07:41:45.296Z</time></trkpt><trkpt lat="43.8479689" lon="12.3589308"><ele>985.5714285714287</ele><time>2026-04-12T07:41:53.279Z</time></trkpt><trkpt lat="43.8479493" lon="12.3588478"><ele>985.4285714285714</ele><time>2026-04-12T07:42:06.287Z</time></trkpt><trkpt lat="43.8479463" lon="12.3587488"><ele>985.2857142857144</ele><time>2026-04-12T07:42:51.286Z</time></trkpt><trkpt lat="43.8479695" lon="12.3586339"><ele>985.1428571428572</ele><time>2026-04-12T07:42:56.268Z</time></trkpt><trkpt lat="43.8479779" lon="12.3585363"><ele>985.0</ele><time>2026-04-12T07:42:59.29Z</time></trkpt><trkpt lat="43.8479554" lon="12.3584489"><ele>984.9999999999999</ele><time>2026-04-12T07:43:01.268Z</time></trkpt><trkpt lat="43.8479303" lon="12.35834"><ele>985.0</ele><time>2026-04-12T07:43:03.284Z</time></trkpt><trkpt lat="43.8479095" lon="12.3582485"><ele>985.0</ele><time>2026-04-12T07:43:04.292Z</time></trkpt><trkpt lat="43.8478897" lon="12.358156"><ele>985.0</ele><time>2026-04-12T07:43:05.292Z</time></trkpt><trkpt lat="43.847874" lon="12.3580563"><ele>984.9999999999999</ele><time>2026-04-12T07:43:06.271Z</time></trkpt><trkpt lat="43.847855" lon="12.3579587"><ele>985.0</ele><time>2026-04-12T07:43:07.298Z</time></trkpt><trkpt lat="43.8478246" lon="12.3578167"><ele>983.2857142857143</ele><time>2026-04-12T07:43:09.307Z</time></trkpt><trkpt lat="43.8477864" lon="12.35771"><ele>981.5714285714287</ele><time>2026-04-12T07:43:11.282Z</time></trkpt><trkpt lat="43.8477557" lon="12.3576268"><ele>979.8571428571429</ele><time>2026-04-12T07:43:13.298Z</time></trkpt><trkpt lat="43.8477024" lon="12.3575657"><ele>978.1428571428571</ele><time>2026-04-12T07:43:15.255Z</time></trkpt><trkpt lat="43.8476274" lon="12.3575262"><ele>976.4285714285714</ele><time>2026-04-12T07:43:18.312Z</time></trkpt><trkpt lat="43.8475692" lon="12.3574683"><ele>974.7142857142858</ele><time>2026-04-12T07:43:21.309Z</time></trkpt><trkpt lat="43.8475281" lon="12.3573994"><ele>973.0</ele><time>2026-04-12T07:43:23.28Z</time></trkpt><trkpt lat="43.8474892" lon="12.3573098"><ele>974.2</ele><time>2026-04-12T07:43:25.279Z</time></trkpt><trkpt lat="43.8474603" lon="12.3571728"><ele>975.4</ele><time>2026-04-12T07:43:28.295Z</time></trkpt><trkpt lat="43.8474116" lon="12.3570289"><ele>976.6000000000001</ele><time>2026-04-12T07:43:30.294Z</time></trkpt><trkpt lat="43.8473817" lon="12.3569213"><ele>977.8000000000001</ele><time>2026-04-12T07:43:32.306Z</time></trkpt><trkpt lat="43.8473682" lon="12.3568252"><ele>979.0</ele><time>2026-04-12T07:43:34.289Z</time></trkpt><trkpt lat="43.8473547" lon="12.3567143"><ele>978.9999999999999</ele><time>2026-04-12T07:43:36.291Z</time></trkpt><trkpt lat="43.8473275" lon="12.3566072"><ele>979.0</ele><time>2026-04-12T07:43:38.297Z</time></trkpt><trkpt lat="43.8472746" lon="12.3565194"><ele>979.0</ele><time>2026-04-12T07:43:40.291Z</time></trkpt><trkpt lat="43.8472033" lon="12.3564641"><ele>979.0</ele><time>2026-04-12T07:43:42.267Z</time></trkpt><trkpt lat="43.8471277" lon="12.356419"><ele>978.9999999999999</ele><time>2026-04-12T07:43:44.289Z</time></trkpt><trkpt lat="43.8470368" lon="12.3563675"><ele>979.0</ele><time>2026-04-12T07:43:46.286Z</time></trkpt><trkpt lat="43.8469662" lon="12.356324"><ele>979.8000000000001</ele><time>2026-04-12T07:43:48.29Z</time></trkpt><trkpt lat="43.8468973" lon="12.3562611"><ele>980.6000000000001</ele><time>2026-04-12T07:43:50.277Z</time></trkpt><trkpt lat="43.8468134" lon="12.3561929"><ele>981.4</ele><time>2026-04-12T07:43:52.283Z</time></trkpt><trkpt lat="43.8467313" lon="12.3561161"><ele>982.2</ele><time>2026-04-12T07:43:54.284Z</time></trkpt><trkpt lat="43.8466347" lon="12.3560484"><ele>983.0</ele><time>2026-04-12T07:43:56.24Z</time></trkpt><trkpt lat="43.8465655" lon="12.3559868"><ele>983.0000000000001</ele><time>2026-04-12T07:43:58.268Z</time></trkpt><trkpt lat="43.8465241" lon="12.355919"><ele>983.0</ele><time>2026-04-12T07:44:00.288Z</time></trkpt><trkpt lat="43.8464881" lon="12.3558331"><ele>983.0</ele><time>2026-04-12T07:44:02.291Z</time></trkpt><trkpt lat="43.8464472" lon="12.3557308"><ele>983.0</ele><time>2026-04-12T07:44:04.297Z</time></trkpt><trkpt lat="43.8464053" lon="12.3556403"><ele>983.0000000000001</ele><time>2026-04-12T07:44:06.278Z</time></trkpt><trkpt lat="43.8463495" lon="12.3555392"><ele>983.0</ele><time>2026-04-12T07:44:08.279Z</time></trkpt><trkpt lat="43.8463061" lon="12.3554643"><ele>982.5000000000001</ele><time>2026-04-12T07:44:10.287Z</time></trkpt><trkpt lat="43.8462626" lon="12.3553544"><ele>982.0</ele><time>2026-04-12T07:44:13.273Z</time></trkpt><trkpt lat="43.8462299" lon="12.355233"><ele>981.5</ele><time>2026-04-12T07:44:16.285Z</time></trkpt><trkpt lat="43.8461955" lon="12.3551189"><ele>981.0</ele><time>2026-04-12T07:44:19.284Z</time></trkpt><trkpt lat="43.8461489" lon="12.3550065"><ele>980.5000000000001</ele><time>2026-04-12T07:44:22.283Z</time></trkpt><trkpt lat="43.8461443" lon="12.3549172"><ele>980.0</ele><time>2026-04-12T07:44:24.29Z</time></trkpt><trkpt lat="43.846129" lon="12.3548003"><ele>980.0000000000001</ele><time>2026-04-12T07:44:26.294Z</time></trkpt><trkpt lat="43.8461115" lon="12.3546957"><ele>980.0</ele><time>2026-04-12T07:44:28.282Z</time></trkpt><trkpt lat="43.8461222" lon="12.3546019"><ele>980.0</ele><time>2026-04-12T07:44:30.291Z</time></trkpt><trkpt lat="43.8461358" lon="12.354493"><ele>980.0</ele><time>2026-04-12T07:44:32.293Z</time></trkpt><trkpt lat="43.8461448" lon="12.3543804"><ele>980.0000000000001</ele><time>2026-04-12T07:44:34.262Z</time></trkpt><trkpt lat="43.8461577" lon="12.3542629"><ele>980.0</ele><time>2026-04-12T07:44:36.294Z</time></trkpt><trkpt lat="43.8461878" lon="12.3541578"><ele>980.0000000000001</ele><time>2026-04-12T07:44:38.292Z</time></trkpt><trkpt lat="43.8462282" lon="12.3540725"><ele>980.0</ele><time>2026-04-12T07:44:40.285Z</time></trkpt><trkpt lat="43.8462694" lon="12.3539785"><ele>980.0</ele><time>2026-04-12T07:44:42.311Z</time></trkpt><trkpt lat="43.8462987" lon="12.3538911"><ele>980.0</ele><time>2026-04-12T07:44:44.308Z</time></trkpt><trkpt lat="43.8463353" lon="12.3538101"><ele>980.0000000000001</ele><time>2026-04-12T07:44:46.297Z</time></trkpt><trkpt lat="43.8463881" lon="12.3537041"><ele>980.0</ele><time>2026-04-12T07:44:49.31Z</time></trkpt><trkpt lat="43.8464496" lon="12.3536056"><ele>980.1666666666667</ele><time>2026-04-12T07:44:52.3Z</time></trkpt><trkpt lat="43.8464975" lon="12.3535259"><ele>980.3333333333334</ele><time>2026-04-12T07:44:54.291Z</time></trkpt><trkpt lat="43.8465406" lon="12.3534481"><ele>980.5</ele><time>2026-04-12T07:44:56.258Z</time></trkpt><trkpt lat="43.8466076" lon="12.3533692"><ele>980.6666666666667</ele><time>2026-04-12T07:44:58.278Z</time></trkpt><trkpt lat="43.8466747" lon="12.3532822"><ele>980.8333333333334</ele><time>2026-04-12T07:45:00.279Z</time></trkpt><trkpt lat="43.8467425" lon="12.3532161"><ele>981.0</ele><time>2026-04-12T07:45:02.293Z</time></trkpt><trkpt lat="43.8468244" lon="12.353147"><ele>981.5999999999999</ele><time>2026-04-12T07:45:04.284Z</time></trkpt><trkpt lat="43.8469136" lon="12.3531035"><ele>982.1999999999999</ele><time>2026-04-12T07:45:06.285Z</time></trkpt><trkpt lat="43.8470036" lon="12.3530494"><ele>982.8000000000001</ele><time>2026-04-12T07:45:08.294Z</time></trkpt><trkpt lat="43.8470843" lon="12.3529649"><ele>983.4000000000001</ele><time>2026-04-12T07:45:10.275Z</time></trkpt><trkpt lat="43.8471216" lon="12.3528684"><ele>984.0</ele><time>2026-04-12T07:45:12.287Z</time></trkpt><trkpt lat="43.8471874" lon="12.3528042"><ele>984.0</ele><time>2026-04-12T07:46:18.289Z</time></trkpt><trkpt lat="43.8472838" lon="12.3527601"><ele>984.0000000000001</ele><time>2026-04-12T07:46:21.285Z</time></trkpt><trkpt lat="43.8473543" lon="12.3526763"><ele>984.0000000000001</ele><time>2026-04-12T07:46:23.293Z</time></trkpt><trkpt lat="43.8474481" lon="12.3526107"><ele>984.0</ele><time>2026-04-12T07:46:25.269Z</time></trkpt><trkpt lat="43.8475571" lon="12.3525535"><ele>984.0</ele><time>2026-04-12T07:46:27.277Z</time></trkpt><trkpt lat="43.8476623" lon="12.352503"><ele>982.6</ele><time>2026-04-12T07:46:29.278Z</time></trkpt><trkpt lat="43.8477749" lon="12.352483"><ele>981.2</ele><time>2026-04-12T07:46:31.267Z</time></trkpt><trkpt lat="43.8478447" lon="12.3524785"><ele>979.8000000000001</ele><time>2026-04-12T07:46:32.266Z</time></trkpt><trkpt lat="43.8479145" lon="12.3524711"><ele>978.4000000000001</ele><time>2026-04-12T07:46:33.303Z</time></trkpt><trkpt lat="43.8480415" lon="12.3524587"><ele>977.0</ele><time>2026-04-12T07:46:35.301Z</time></trkpt><trkpt lat="43.8481111" lon="12.3524528"><ele>977.0</ele><time>2026-04-12T07:46:36.27Z</time></trkpt><trkpt lat="43.8482475" lon="12.3524353"><ele>977.0</ele><time>2026-04-12T07:46:38.266Z</time></trkpt><trkpt lat="43.8483241" lon="12.3524211"><ele>977.0</ele><time>2026-04-12T07:46:39.293Z</time></trkpt><trkpt lat="43.8484011" lon="12.3524017"><ele>977.0</ele><time>2026-04-12T07:46:40.289Z</time></trkpt><trkpt lat="43.8484811" lon="12.3523833"><ele>977.0</ele><time>2026-04-12T07:46:41.301Z</time></trkpt><trkpt lat="43.8485629" lon="12.3523644"><ele>976.0000000000001</ele><time>2026-04-12T07:46:42.309Z</time></trkpt><trkpt lat="43.8486466" lon="12.3523391"><ele>975.0</ele><time>2026-04-12T07:46:43.291Z</time></trkpt><trkpt lat="43.8487248" lon="12.3523177"><ele>974.0</ele><time>2026-04-12T07:46:44.299Z</time></trkpt><trkpt lat="43.8488046" lon="12.3522991"><ele>973.0</ele><time>2026-04-12T07:46:45.263Z</time></trkpt><trkpt lat="43.8488901" lon="12.3522934"><ele>972.0000000000001</ele><time>2026-04-12T07:46:46.3Z</time></trkpt><trkpt lat="43.84898" lon="12.3523001"><ele>971.0</ele><time>2026-04-12T07:46:47.287Z</time></trkpt><trkpt lat="43.8490769" lon="12.3523216"><ele>971.0</ele><time>2026-04-12T07:46:48.293Z</time></trkpt><trkpt lat="43.8491696" lon="12.352349"><ele>970.9999999999999</ele><time>2026-04-12T07:46:49.283Z</time></trkpt><trkpt lat="43.849261" lon="12.3523823"><ele>970.9999999999999</ele><time>2026-04-12T07:46:50.271Z</time></trkpt><trkpt lat="43.8493558" lon="12.3524128"><ele>971.0</ele><time>2026-04-12T07:46:51.288Z</time></trkpt><trkpt lat="43.8494509" lon="12.3524251"><ele>971.0</ele><time>2026-04-12T07:46:52.286Z</time></trkpt><trkpt lat="43.8495432" lon="12.3524115"><ele>971.1999999999999</ele><time>2026-04-12T07:46:53.298Z</time></trkpt><trkpt lat="43.8496311" lon="12.3523673"><ele>971.3999999999999</ele><time>2026-04-12T07:46:54.306Z</time></trkpt><trkpt lat="43.8497001" lon="12.352296"><ele>971.6</ele><time>2026-04-12T07:46:55.299Z</time></trkpt><trkpt lat="43.8497674" lon="12.3522077"><ele>971.8</ele><time>2026-04-12T07:46:56.277Z</time></trkpt><trkpt lat="43.8498407" lon="12.3521217"><ele>972.0</ele><time>2026-04-12T07:46:57.289Z</time></trkpt><trkpt lat="43.8499108" lon="12.3520255"><ele>972.0</ele><time>2026-04-12T07:46:58.295Z</time></trkpt><trkpt lat="43.8499787" lon="12.3519259"><ele>972.0</ele><time>2026-04-12T07:46:59.291Z</time></trkpt><trkpt lat="43.8500602" lon="12.3518324"><ele>972.0</ele><time>2026-04-12T07:47:00.299Z</time></trkpt><trkpt lat="43.8501587" lon="12.3517585"><ele>972.0</ele><time>2026-04-12T07:47:01.247Z</time></trkpt><trkpt lat="43.8502527" lon="12.3516973"><ele>972.0</ele><time>2026-04-12T07:47:02.272Z</time></trkpt><trkpt lat="43.8503444" lon="12.3516344"><ele>972.4000000000001</ele><time>2026-04-12T07:47:03.307Z</time></trkpt><trkpt lat="43.8504369" lon="12.3515734"><ele>972.8000000000001</ele><time>2026-04-12T07:47:04.237Z</time></trkpt><trkpt lat="43.8505345" lon="12.35152"><ele>973.2</ele><time>2026-04-12T07:47:05.249Z</time></trkpt><trkpt lat="43.8506358" lon="12.351463"><ele>973.6</ele><time>2026-04-12T07:47:06.231Z</time></trkpt><trkpt lat="43.8507345" lon="12.3514034"><ele>974.0</ele><time>2026-04-12T07:47:07.257Z</time></trkpt><trkpt lat="43.8508203" lon="12.351338"><ele>974.0</ele><time>2026-04-12T07:47:08.259Z</time></trkpt><trkpt lat="43.8509062" lon="12.3512792"><ele>974.0000000000001</ele><time>2026-04-12T07:47:09.248Z</time></trkpt><trkpt lat="43.8509912" lon="12.351206"><ele>974.0000000000001</ele><time>2026-04-12T07:47:10.237Z</time></trkpt><trkpt lat="43.8510687" lon="12.3511265"><ele>974.0</ele><time>2026-04-12T07:47:11.239Z</time></trkpt><trkpt lat="43.8511498" lon="12.3510406"><ele>974.0</ele><time>2026-04-12T07:47:12.24Z</time></trkpt><trkpt lat="43.851238" lon="12.3509585"><ele>970.4000000000001</ele><time>2026-04-12T07:47:13.275Z</time></trkpt><trkpt lat="43.8513277" lon="12.3508791"><ele>966.8000000000001</ele><time>2026-04-12T07:47:14.299Z</time></trkpt><trkpt lat="43.8514164" lon="12.3508036"><ele>963.1999999999999</ele><time>2026-04-12T07:47:15.302Z</time></trkpt><trkpt lat="43.8515064" lon="12.350725"><ele>959.5999999999999</ele><time>2026-04-12T07:47:16.252Z</time></trkpt><trkpt lat="43.8515879" lon="12.3506592"><ele>956.0</ele><time>2026-04-12T07:47:17.233Z</time></trkpt><trkpt lat="43.8516787" lon="12.3505948"><ele>955.8</ele><time>2026-04-12T07:47:18.24Z</time></trkpt><trkpt lat="43.8517669" lon="12.3505231"><ele>955.5999999999999</ele><time>2026-04-12T07:47:19.235Z</time></trkpt><trkpt lat="43.8518563" lon="12.3504609"><ele>955.4</ele><time>2026-04-12T07:47:20.284Z</time></trkpt><trkpt lat="43.8519448" lon="12.3503925"><ele>955.2</ele><time>2026-04-12T07:47:21.293Z</time></trkpt><trkpt lat="43.8520378" lon="12.3503193"><ele>955.0</ele><time>2026-04-12T07:47:22.314Z</time></trkpt><trkpt lat="43.8521277" lon="12.3502477"><ele>955.0</ele><time>2026-04-12T07:47:23.29Z</time></trkpt><trkpt lat="43.8522257" lon="12.3501747"><ele>955.0</ele><time>2026-04-12T07:47:24.292Z</time></trkpt><trkpt lat="43.8523213" lon="12.3501085"><ele>955.0</ele><time>2026-04-12T07:47:25.25Z</time></trkpt><trkpt lat="43.8524088" lon="12.3500364"><ele>955.0</ele><time>2026-04-12T07:47:26.29Z</time></trkpt><trkpt lat="43.8524881" lon="12.3499595"><ele>955.0</ele><time>2026-04-12T07:47:27.29Z</time></trkpt><trkpt lat="43.8525649" lon="12.3498758"><ele>954.4</ele><time>2026-04-12T07:47:28.267Z</time></trkpt><trkpt lat="43.8526361" lon="12.3497894"><ele>953.8</ele><time>2026-04-12T07:47:29.301Z</time></trkpt><trkpt lat="43.8527134" lon="12.3496986"><ele>953.2</ele><time>2026-04-12T07:47:30.279Z</time></trkpt><trkpt lat="43.8527894" lon="12.3496065"><ele>952.6</ele><time>2026-04-12T07:47:31.279Z</time></trkpt><trkpt lat="43.8528723" lon="12.3495163"><ele>952.0</ele><time>2026-04-12T07:47:32.267Z</time></trkpt><trkpt lat="43.8529542" lon="12.3494276"><ele>952.0</ele><time>2026-04-12T07:47:33.281Z</time></trkpt><trkpt lat="43.8530326" lon="12.3493468"><ele>952.0</ele><time>2026-04-12T07:47:34.304Z</time></trkpt><trkpt lat="43.8531222" lon="12.3492739"><ele>952.0</ele><time>2026-04-12T07:47:35.29Z</time></trkpt><trkpt lat="43.8532197" lon="12.34922"><ele>952.0</ele><time>2026-04-12T07:47:36.289Z</time></trkpt><trkpt lat="43.8533213" lon="12.3491878"><ele>952.0</ele><time>2026-04-12T07:47:37.29Z</time></trkpt><trkpt lat="43.8534273" lon="12.349187"><ele>952.0</ele><time>2026-04-12T07:47:38.276Z</time></trkpt><trkpt lat="43.8535315" lon="12.3492086"><ele>952.0</ele><time>2026-04-12T07:47:39.287Z</time></trkpt><trkpt lat="43.8536289" lon="12.3492474"><ele>952.0</ele><time>2026-04-12T07:47:40.283Z</time></trkpt><trkpt lat="43.8537272" lon="12.3493101"><ele>952.0</ele><time>2026-04-12T07:47:41.281Z</time></trkpt><trkpt lat="43.8538175" lon="12.3493803"><ele>952.0</ele><time>2026-04-12T07:47:42.301Z</time></trkpt><trkpt lat="43.8538962" lon="12.3494728"><ele>952.0</ele><time>2026-04-12T07:47:43.294Z</time></trkpt><trkpt lat="43.85398" lon="12.3495671"><ele>952.0</ele><time>2026-04-12T07:47:44.305Z</time></trkpt><trkpt lat="43.8540759" lon="12.3496388"><ele>952.0</ele><time>2026-04-12T07:47:45.296Z</time></trkpt><trkpt lat="43.8541684" lon="12.3496952"><ele>952.0</ele><time>2026-04-12T07:47:46.256Z</time></trkpt><trkpt lat="43.8542614" lon="12.3497235"><ele>952.0</ele><time>2026-04-12T07:47:47.301Z</time></trkpt><trkpt lat="43.8543667" lon="12.3497109"><ele>950.6</ele><time>2026-04-12T07:47:48.284Z</time></trkpt><trkpt lat="43.8544725" lon="12.3496791"><ele>949.2</ele><time>2026-04-12T07:47:49.294Z</time></trkpt><trkpt lat="43.8545696" lon="12.3496382"><ele>947.8</ele><time>2026-04-12T07:47:50.257Z</time></trkpt><trkpt lat="43.8546588" lon="12.3495866"><ele>946.4</ele><time>2026-04-12T07:47:51.278Z</time></trkpt><trkpt lat="43.8547469" lon="12.3495313"><ele>945.0</ele><time>2026-04-12T07:47:52.316Z</time></trkpt><trkpt lat="43.854826" lon="12.3494686"><ele>945.0</ele><time>2026-04-12T07:47:53.298Z</time></trkpt><trkpt lat="43.8548985" lon="12.3494126"><ele>945.0</ele><time>2026-04-12T07:47:54.252Z</time></trkpt><trkpt lat="43.8549558" lon="12.349354"><ele>945.0</ele><time>2026-04-12T07:47:55.29Z</time></trkpt><trkpt lat="43.8550264" lon="12.3492952"><ele>945.0</ele><time>2026-04-12T07:47:56.288Z</time></trkpt><trkpt lat="43.8550817" lon="12.3492183"><ele>945.0</ele><time>2026-04-12T07:47:57.3Z</time></trkpt><trkpt lat="43.8551326" lon="12.3491351"><ele>945.0</ele><time>2026-04-12T07:47:58.267Z</time></trkpt><trkpt lat="43.8551792" lon="12.3490354"><ele>942.8</ele><time>2026-04-12T07:47:59.294Z</time></trkpt><trkpt lat="43.8552312" lon="12.3489292"><ele>940.6</ele><time>2026-04-12T07:48:00.278Z</time></trkpt><trkpt lat="43.8552951" lon="12.3488314"><ele>938.4000000000001</ele><time>2026-04-12T07:48:01.262Z</time></trkpt><trkpt lat="43.8553598" lon="12.3487288"><ele>936.2</ele><time>2026-04-12T07:48:02.259Z</time></trkpt><trkpt lat="43.8554292" lon="12.348627"><ele>934.0</ele><time>2026-04-12T07:48:03.302Z</time></trkpt><trkpt lat="43.8555176" lon="12.3485431"><ele>934.0</ele><time>2026-04-12T07:48:04.286Z</time></trkpt><trkpt lat="43.8556084" lon="12.3484705"><ele>934.0000000000001</ele><time>2026-04-12T07:48:05.304Z</time></trkpt><trkpt lat="43.8556917" lon="12.3484013"><ele>934.0000000000001</ele><time>2026-04-12T07:48:06.286Z</time></trkpt><trkpt lat="43.8557776" lon="12.3483322"><ele>934.0</ele><time>2026-04-12T07:48:07.306Z</time></trkpt><trkpt lat="43.8558706" lon="12.3482514"><ele>934.0</ele><time>2026-04-12T07:48:08.309Z</time></trkpt><trkpt lat="43.8559591" lon="12.348168"><ele>932.25</ele><time>2026-04-12T07:48:09.304Z</time></trkpt><trkpt lat="43.8560518" lon="12.3480906"><ele>930.5</ele><time>2026-04-12T07:48:10.311Z</time></trkpt><trkpt lat="43.8561609" lon="12.348034"><ele>928.75</ele><time>2026-04-12T07:48:11.312Z</time></trkpt><trkpt lat="43.8562796" lon="12.3480241"><ele>927.0</ele><time>2026-04-12T07:48:12.31Z</time></trkpt><trkpt lat="43.856404" lon="12.3480685"><ele>927.0</ele><time>2026-04-12T07:48:13.316Z</time></trkpt><trkpt lat="43.8565197" lon="12.3481708"><ele>927.0</ele><time>2026-04-12T07:48:14.293Z</time></trkpt><trkpt lat="43.856614" lon="12.3482697"><ele>927.0</ele><time>2026-04-12T07:48:15.274Z</time></trkpt><trkpt lat="43.8567067" lon="12.3483713"><ele>927.0</ele><time>2026-04-12T07:48:16.295Z</time></trkpt><trkpt lat="43.8567986" lon="12.3484628"><ele>926.0</ele><time>2026-04-12T07:48:17.292Z</time></trkpt><trkpt lat="43.8569035" lon="12.3485306"><ele>925.0</ele><time>2026-04-12T07:48:18.288Z</time></trkpt><trkpt lat="43.8570213" lon="12.3485511"><ele>924.0</ele><time>2026-04-12T07:48:19.289Z</time></trkpt><trkpt lat="43.8571558" lon="12.3485404"><ele>923.0</ele><time>2026-04-12T07:48:20.278Z</time></trkpt><trkpt lat="43.8572738" lon="12.348494"><ele>923.0</ele><time>2026-04-12T07:48:21.299Z</time></trkpt><trkpt lat="43.8573894" lon="12.3484137"><ele>923.0</ele><time>2026-04-12T07:48:22.295Z</time></trkpt><trkpt lat="43.8575064" lon="12.3483525"><ele>923.0</ele><time>2026-04-12T07:48:23.293Z</time></trkpt><trkpt lat="43.8576325" lon="12.3483387"><ele>923.0</ele><time>2026-04-12T07:48:24.281Z</time></trkpt><trkpt lat="43.8577634" lon="12.3483635"><ele>923.0</ele><time>2026-04-12T07:48:25.309Z</time></trkpt><trkpt lat="43.8578809" lon="12.3484229"><ele>923.0</ele><time>2026-04-12T07:48:26.293Z</time></trkpt><trkpt lat="43.857989" lon="12.3485109"><ele>923.0</ele><time>2026-04-12T07:48:27.289Z</time></trkpt><trkpt lat="43.8580999" lon="12.3485979"><ele>923.0</ele><time>2026-04-12T07:48:28.294Z</time></trkpt><trkpt lat="43.8582062" lon="12.3486994"><ele>923.0</ele><time>2026-04-12T07:48:29.275Z</time></trkpt><trkpt lat="43.8583164" lon="12.3487791"><ele>923.0</ele><time>2026-04-12T07:48:30.296Z</time></trkpt><trkpt lat="43.8584283" lon="12.3488574"><ele>923.0</ele><time>2026-04-12T07:48:31.257Z</time></trkpt><trkpt lat="43.8585337" lon="12.3489503"><ele>923.0</ele><time>2026-04-12T07:48:32.285Z</time></trkpt><trkpt lat="43.8586495" lon="12.3490241"><ele>920.5</ele><time>2026-04-12T07:48:33.289Z</time></trkpt><trkpt lat="43.8587595" lon="12.3490543"><ele>918.0</ele><time>2026-04-12T07:48:34.285Z</time></trkpt><trkpt lat="43.8588704" lon="12.3490104"><ele>915.5</ele><time>2026-04-12T07:48:35.285Z</time></trkpt><trkpt lat="43.8589804" lon="12.3489345"><ele>913.0</ele><time>2026-04-12T07:48:36.29Z</time></trkpt><trkpt lat="43.8590824" lon="12.3488375"><ele>913.0</ele><time>2026-04-12T07:48:37.3Z</time></trkpt><trkpt lat="43.8591993" lon="12.3487501"><ele>913.0</ele><time>2026-04-12T07:48:38.259Z</time></trkpt><trkpt lat="43.8593222" lon="12.3487159"><ele>913.0</ele><time>2026-04-12T07:48:39.298Z</time></trkpt><trkpt lat="43.8594538" lon="12.3487378"><ele>913.0</ele><time>2026-04-12T07:48:40.297Z</time></trkpt><trkpt lat="43.8595788" lon="12.3487959"><ele>908.5</ele><time>2026-04-12T07:48:41.299Z</time></trkpt><trkpt lat="43.8596809" lon="12.3488922"><ele>904.0</ele><time>2026-04-12T07:48:42.307Z</time></trkpt><trkpt lat="43.8597633" lon="12.3490188"><ele>899.5</ele><time>2026-04-12T07:48:43.303Z</time></trkpt><trkpt lat="43.8598256" lon="12.349162"><ele>895.0</ele><time>2026-04-12T07:48:44.291Z</time></trkpt><trkpt lat="43.859888" lon="12.3493056"><ele>895.0</ele><time>2026-04-12T07:48:45.283Z</time></trkpt><trkpt lat="43.8599472" lon="12.3494593"><ele>895.0</ele><time>2026-04-12T07:48:46.303Z</time></trkpt><trkpt lat="43.8600141" lon="12.3496023"><ele>895.0</ele><time>2026-04-12T07:48:47.281Z</time></trkpt><trkpt lat="43.8600865" lon="12.3497382"><ele>895.0</ele><time>2026-04-12T07:48:48.302Z</time></trkpt><trkpt lat="43.8601519" lon="12.3498823"><ele>893.75</ele><time>2026-04-12T07:48:49.303Z</time></trkpt><trkpt lat="43.8602384" lon="12.349984"><ele>892.5</ele><time>2026-04-12T07:48:50.299Z</time></trkpt><trkpt lat="43.8603457" lon="12.3500579"><ele>891.25</ele><time>2026-04-12T07:48:51.288Z</time></trkpt><trkpt lat="43.8604618" lon="12.3501256"><ele>890.0</ele><time>2026-04-12T07:48:52.311Z</time></trkpt><trkpt lat="43.8605854" lon="12.3501625"><ele>890.0</ele><time>2026-04-12T07:48:53.291Z</time></trkpt><trkpt lat="43.8607" lon="12.3501994"><ele>890.0</ele><time>2026-04-12T07:48:54.291Z</time></trkpt><trkpt lat="43.860822" lon="12.3502361"><ele>890.0</ele><time>2026-04-12T07:48:55.284Z</time></trkpt><trkpt lat="43.8609429" lon="12.3502704"><ele>890.0</ele><time>2026-04-12T07:48:56.277Z</time></trkpt><trkpt lat="43.8610572" lon="12.3503216"><ele>889.5</ele><time>2026-04-12T07:48:57.3Z</time></trkpt><trkpt lat="43.8611677" lon="12.3503943"><ele>889.0</ele><time>2026-04-12T07:48:58.285Z</time></trkpt><trkpt lat="43.8612677" lon="12.3504918"><ele>888.5</ele><time>2026-04-12T07:48:59.304Z</time></trkpt><trkpt lat="43.8613624" lon="12.3505897"><ele>888.0</ele><time>2026-04-12T07:49:00.303Z</time></trkpt><trkpt lat="43.8614562" lon="12.3506772"><ele>885.2</ele><time>2026-04-12T07:49:01.294Z</time></trkpt><trkpt lat="43.8615582" lon="12.3507585"><ele>882.4</ele><time>2026-04-12T07:49:02.302Z</time></trkpt><trkpt lat="43.8616625" lon="12.3508269"><ele>879.6000000000001</ele><time>2026-04-12T07:49:03.275Z</time></trkpt><trkpt lat="43.8617559" lon="12.3508425"><ele>876.8000000000001</ele><time>2026-04-12T07:49:04.315Z</time></trkpt><trkpt lat="43.8618482" lon="12.3508146"><ele>874.0</ele><time>2026-04-12T07:49:05.26Z</time></trkpt><trkpt lat="43.8619353" lon="12.3507627"><ele>874.6</ele><time>2026-04-12T07:49:06.291Z</time></trkpt><trkpt lat="43.862012" lon="12.3506745"><ele>875.2</ele><time>2026-04-12T07:49:07.305Z</time></trkpt><trkpt lat="43.8620852" lon="12.3505836"><ele>875.8000000000001</ele><time>2026-04-12T07:49:08.274Z</time></trkpt><trkpt lat="43.862149" lon="12.3504691"><ele>876.4000000000001</ele><time>2026-04-12T07:49:09.304Z</time></trkpt><trkpt lat="43.8622166" lon="12.350341"><ele>877.0</ele><time>2026-04-12T07:49:10.293Z</time></trkpt><trkpt lat="43.8622922" lon="12.3502331"><ele>877.0</ele><time>2026-04-12T07:49:11.274Z</time></trkpt><trkpt lat="43.8623829" lon="12.3501429"><ele>877.0</ele><time>2026-04-12T07:49:12.298Z</time></trkpt><trkpt lat="43.8624731" lon="12.350065"><ele>877.0</ele><time>2026-04-12T07:49:13.297Z</time></trkpt><trkpt lat="43.862566" lon="12.3500083"><ele>877.0</ele><time>2026-04-12T07:49:14.296Z</time></trkpt><trkpt lat="43.8626635" lon="12.3499577"><ele>877.0</ele><time>2026-04-12T07:49:15.298Z</time></trkpt><trkpt lat="43.8627624" lon="12.3499186"><ele>877.0</ele><time>2026-04-12T07:49:16.309Z</time></trkpt><trkpt lat="43.8628609" lon="12.3498888"><ele>877.0</ele><time>2026-04-12T07:49:17.284Z</time></trkpt><trkpt lat="43.8629677" lon="12.3498764"><ele>877.0</ele><time>2026-04-12T07:49:18.272Z</time></trkpt><trkpt lat="43.863069" lon="12.3498808"><ele>877.0</ele><time>2026-04-12T07:49:19.301Z</time></trkpt><trkpt lat="43.8631715" lon="12.3498941"><ele>877.0</ele><time>2026-04-12T07:49:20.287Z</time></trkpt><trkpt lat="43.8632696" lon="12.3499401"><ele>877.0</ele><time>2026-04-12T07:49:21.287Z</time></trkpt><trkpt lat="43.8633543" lon="12.3500148"><ele>877.0</ele><time>2026-04-12T07:49:22.309Z</time></trkpt><trkpt lat="43.8634274" lon="12.3501086"><ele>877.0</ele><time>2026-04-12T07:49:23.293Z</time></trkpt><trkpt lat="43.8634977" lon="12.3502037"><ele>877.0</ele><time>2026-04-12T07:49:24.292Z</time></trkpt><trkpt lat="43.8635642" lon="12.3502959"><ele>877.0</ele><time>2026-04-12T07:49:25.272Z</time></trkpt><trkpt lat="43.8636348" lon="12.3503843"><ele>878.0</ele><time>2026-04-12T07:49:26.286Z</time></trkpt><trkpt lat="43.8637106" lon="12.3504631"><ele>879.0</ele><time>2026-04-12T07:49:27.264Z</time></trkpt><trkpt lat="43.8637816" lon="12.3505442"><ele>880.0</ele><time>2026-04-12T07:49:28.303Z</time></trkpt><trkpt lat="43.8638508" lon="12.3506254"><ele>881.0</ele><time>2026-04-12T07:49:29.291Z</time></trkpt><trkpt lat="43.8639285" lon="12.3507139"><ele>882.0</ele><time>2026-04-12T07:49:30.285Z</time></trkpt><trkpt lat="43.8640077" lon="12.3508015"><ele>879.6</ele><time>2026-04-12T07:49:31.284Z</time></trkpt><trkpt lat="43.8640791" lon="12.3509007"><ele>877.2</ele><time>2026-04-12T07:49:32.295Z</time></trkpt><trkpt lat="43.8641467" lon="12.351001"><ele>874.8</ele><time>2026-04-12T07:49:33.292Z</time></trkpt><trkpt lat="43.8642141" lon="12.3511016"><ele>872.4</ele><time>2026-04-12T07:49:34.248Z</time></trkpt><trkpt lat="43.8642762" lon="12.3512062"><ele>870.0</ele><time>2026-04-12T07:49:35.289Z</time></trkpt><trkpt lat="43.8643421" lon="12.3513101"><ele>869.0</ele><time>2026-04-12T07:49:36.291Z</time></trkpt><trkpt lat="43.8644048" lon="12.3514015"><ele>868.0</ele><time>2026-04-12T07:49:37.294Z</time></trkpt><trkpt lat="43.8644651" lon="12.3515025"><ele>867.0</ele><time>2026-04-12T07:49:38.303Z</time></trkpt><trkpt lat="43.8645314" lon="12.3516085"><ele>866.0</ele><time>2026-04-12T07:49:39.308Z</time></trkpt><trkpt lat="43.8645906" lon="12.351706"><ele>865.0</ele><time>2026-04-12T07:49:40.279Z</time></trkpt><trkpt lat="43.8646516" lon="12.3517981"><ele>865.0</ele><time>2026-04-12T07:49:41.299Z</time></trkpt><trkpt lat="43.8647187" lon="12.3518982"><ele>865.0</ele><time>2026-04-12T07:49:42.289Z</time></trkpt><trkpt lat="43.8647874" lon="12.3519809"><ele>865.0</ele><time>2026-04-12T07:49:43.305Z</time></trkpt><trkpt lat="43.8648614" lon="12.3520589"><ele>865.0</ele><time>2026-04-12T07:49:44.317Z</time></trkpt><trkpt lat="43.8649396" lon="12.3521253"><ele>865.0</ele><time>2026-04-12T07:49:45.261Z</time></trkpt><trkpt lat="43.8650259" lon="12.3521826"><ele>862.8</ele><time>2026-04-12T07:49:46.287Z</time></trkpt><trkpt lat="43.8651154" lon="12.3522354"><ele>860.6</ele><time>2026-04-12T07:49:47.314Z</time></trkpt><trkpt lat="43.8652052" lon="12.3522805"><ele>858.4000000000001</ele><time>2026-04-12T07:49:48.302Z</time></trkpt><trkpt lat="43.86531" lon="12.3523215"><ele>856.2</ele><time>2026-04-12T07:49:49.303Z</time></trkpt><trkpt lat="43.8654177" lon="12.3523542"><ele>854.0</ele><time>2026-04-12T07:49:50.29Z</time></trkpt><trkpt lat="43.86552" lon="12.352387"><ele>854.0</ele><time>2026-04-12T07:49:51.286Z</time></trkpt><trkpt lat="43.8656186" lon="12.3524292"><ele>854.0000000000001</ele><time>2026-04-12T07:49:52.262Z</time></trkpt><trkpt lat="43.8657191" lon="12.3524713"><ele>854.0000000000001</ele><time>2026-04-12T07:49:53.318Z</time></trkpt><trkpt lat="43.8658225" lon="12.35252"><ele>854.0</ele><time>2026-04-12T07:49:54.316Z</time></trkpt><trkpt lat="43.8659263" lon="12.3525685"><ele>854.0</ele><time>2026-04-12T07:49:55.304Z</time></trkpt><trkpt lat="43.8660283" lon="12.3526342"><ele>851.75</ele><time>2026-04-12T07:49:56.316Z</time></trkpt><trkpt lat="43.8661235" lon="12.3527213"><ele>849.5</ele><time>2026-04-12T07:49:57.309Z</time></trkpt><trkpt lat="43.86621" lon="12.3528258"><ele>847.25</ele><time>2026-04-12T07:49:58.298Z</time></trkpt><trkpt lat="43.8663024" lon="12.3529332"><ele>845.0</ele><time>2026-04-12T07:49:59.268Z</time></trkpt><trkpt lat="43.8663891" lon="12.3530542"><ele>845.0</ele><time>2026-04-12T07:50:00.272Z</time></trkpt><trkpt lat="43.8664725" lon="12.3531716"><ele>845.0</ele><time>2026-04-12T07:50:01.252Z</time></trkpt><trkpt lat="43.8665575" lon="12.3532877"><ele>845.0</ele><time>2026-04-12T07:50:02.298Z</time></trkpt><trkpt lat="43.8666397" lon="12.3534047"><ele>845.0</ele><time>2026-04-12T07:50:03.305Z</time></trkpt><trkpt lat="43.8667245" lon="12.3535299"><ele>844.5</ele><time>2026-04-12T07:50:04.301Z</time></trkpt><trkpt lat="43.8668073" lon="12.3536593"><ele>844.0</ele><time>2026-04-12T07:50:05.291Z</time></trkpt><trkpt lat="43.8668879" lon="12.3537999"><ele>843.5</ele><time>2026-04-12T07:50:06.294Z</time></trkpt><trkpt lat="43.8669647" lon="12.353937"><ele>843.0</ele><time>2026-04-12T07:50:07.292Z</time></trkpt><trkpt lat="43.8670379" lon="12.3540745"><ele>843.0</ele><time>2026-04-12T07:50:08.301Z</time></trkpt><trkpt lat="43.86711" lon="12.354216"><ele>843.0</ele><time>2026-04-12T07:50:09.291Z</time></trkpt><trkpt lat="43.8671812" lon="12.3543554"><ele>843.0</ele><time>2026-04-12T07:50:10.307Z</time></trkpt><trkpt lat="43.8672619" lon="12.3544862"><ele>843.0</ele><time>2026-04-12T07:50:11.298Z</time></trkpt><trkpt lat="43.8673429" lon="12.3545974"><ele>843.25</ele><time>2026-04-12T07:50:12.29Z</time></trkpt><trkpt lat="43.8674354" lon="12.3547067"><ele>843.5</ele><time>2026-04-12T07:50:13.298Z</time></trkpt><trkpt lat="43.8675194" lon="12.3548223"><ele>843.75</ele><time>2026-04-12T07:50:14.307Z</time></trkpt><trkpt lat="43.8676043" lon="12.3549412"><ele>844.0</ele><time>2026-04-12T07:50:15.306Z</time></trkpt><trkpt lat="43.8676834" lon="12.3550786"><ele>844.0</ele><time>2026-04-12T07:50:16.287Z</time></trkpt><trkpt lat="43.8677495" lon="12.3552243"><ele>844.0</ele><time>2026-04-12T07:50:17.273Z</time></trkpt><trkpt lat="43.8678024" lon="12.3553687"><ele>844.0</ele><time>2026-04-12T07:50:18.283Z</time></trkpt><trkpt lat="43.8678545" lon="12.3555169"><ele>844.0</ele><time>2026-04-12T07:50:19.276Z</time></trkpt><trkpt lat="43.8678941" lon="12.3556754"><ele>843.5</ele><time>2026-04-12T07:50:20.283Z</time></trkpt><trkpt lat="43.8679109" lon="12.3558279"><ele>843.0</ele><time>2026-04-12T07:50:21.294Z</time></trkpt><trkpt lat="43.8679244" lon="12.3559949"><ele>842.5</ele><time>2026-04-12T07:50:22.3Z</time></trkpt><trkpt lat="43.8679423" lon="12.3561521"><ele>842.0</ele><time>2026-04-12T07:50:23.31Z</time></trkpt><trkpt lat="43.8679702" lon="12.3563177"><ele>839.25</ele><time>2026-04-12T07:50:24.283Z</time></trkpt><trkpt lat="43.8680101" lon="12.3564704"><ele>836.5</ele><time>2026-04-12T07:50:25.287Z</time></trkpt><trkpt lat="43.8680717" lon="12.3566169"><ele>833.75</ele><time>2026-04-12T07:50:26.296Z</time></trkpt><trkpt lat="43.8681515" lon="12.3567623"><ele>831.0</ele><time>2026-04-12T07:50:27.306Z</time></trkpt><trkpt lat="43.8682392" lon="12.3568803"><ele>831.0</ele><time>2026-04-12T07:50:28.288Z</time></trkpt><trkpt lat="43.8683304" lon="12.3569654"><ele>831.0</ele><time>2026-04-12T07:50:29.295Z</time></trkpt><trkpt lat="43.8684357" lon="12.3570179"><ele>831.0</ele><time>2026-04-12T07:50:30.309Z</time></trkpt><trkpt lat="43.868559" lon="12.3570441"><ele>831.0</ele><time>2026-04-12T07:50:31.266Z</time></trkpt><trkpt lat="43.8686766" lon="12.3570711"><ele>830.0</ele><time>2026-04-12T07:50:32.295Z</time></trkpt><trkpt lat="43.8687994" lon="12.3571082"><ele>829.0</ele><time>2026-04-12T07:50:33.278Z</time></trkpt><trkpt lat="43.8689234" lon="12.3571445"><ele>828.0</ele><time>2026-04-12T07:50:34.293Z</time></trkpt><trkpt lat="43.8690446" lon="12.357189"><ele>827.0</ele><time>2026-04-12T07:50:35.299Z</time></trkpt><trkpt lat="43.8691702" lon="12.3572539"><ele>823.5</ele><time>2026-04-12T07:50:36.294Z</time></trkpt><trkpt lat="43.8692884" lon="12.3573222"><ele>820.0</ele><time>2026-04-12T07:50:37.299Z</time></trkpt><trkpt lat="43.8693907" lon="12.3574144"><ele>816.5</ele><time>2026-04-12T07:50:38.312Z</time></trkpt><trkpt lat="43.8694881" lon="12.357525"><ele>813.0</ele><time>2026-04-12T07:50:39.286Z</time></trkpt><trkpt lat="43.8695803" lon="12.3576437"><ele>813.0</ele><time>2026-04-12T07:50:40.296Z</time></trkpt><trkpt lat="43.869677" lon="12.3577564"><ele>813.0</ele><time>2026-04-12T07:50:41.291Z</time></trkpt><trkpt lat="43.8697749" lon="12.3578666"><ele>813.0</ele><time>2026-04-12T07:50:42.303Z</time></trkpt><trkpt lat="43.8698757" lon="12.3579698"><ele>813.0</ele><time>2026-04-12T07:50:43.267Z</time></trkpt><trkpt lat="43.8699679" lon="12.3580864"><ele>810.75</ele><time>2026-04-12T07:50:44.303Z</time></trkpt><trkpt lat="43.8700556" lon="12.3581927"><ele>808.5</ele><time>2026-04-12T07:50:45.321Z</time></trkpt><trkpt lat="43.8701492" lon="12.3582914"><ele>806.25</ele><time>2026-04-12T07:50:46.302Z</time></trkpt><trkpt lat="43.8702447" lon="12.3583661"><ele>804.0</ele><time>2026-04-12T07:50:47.307Z</time></trkpt><trkpt lat="43.8703552" lon="12.3584163"><ele>803.6</ele><time>2026-04-12T07:50:48.293Z</time></trkpt><trkpt lat="43.8704589" lon="12.3584315"><ele>803.2</ele><time>2026-04-12T07:50:49.295Z</time></trkpt><trkpt lat="43.8705528" lon="12.3584238"><ele>802.8000000000001</ele><time>2026-04-12T07:50:50.295Z</time></trkpt><trkpt lat="43.8706472" lon="12.3583574"><ele>802.4000000000001</ele><time>2026-04-12T07:50:51.311Z</time></trkpt><trkpt lat="43.8707325" lon="12.358271"><ele>802.0</ele><time>2026-04-12T07:50:52.29Z</time></trkpt><trkpt lat="43.8707942" lon="12.3581569"><ele>802.6</ele><time>2026-04-12T07:50:53.304Z</time></trkpt><trkpt lat="43.8708435" lon="12.3580315"><ele>803.2</ele><time>2026-04-12T07:50:54.303Z</time></trkpt><trkpt lat="43.870882" lon="12.3579029"><ele>803.8</ele><time>2026-04-12T07:50:55.288Z</time></trkpt><trkpt lat="43.8709116" lon="12.3577713"><ele>804.4</ele><time>2026-04-12T07:50:56.3Z</time></trkpt><trkpt lat="43.8709462" lon="12.3576371"><ele>805.0</ele><time>2026-04-12T07:50:57.306Z</time></trkpt><trkpt lat="43.8709923" lon="12.3575098"><ele>803.2</ele><time>2026-04-12T07:50:58.289Z</time></trkpt><trkpt lat="43.8710475" lon="12.3573897"><ele>801.4</ele><time>2026-04-12T07:50:59.304Z</time></trkpt><trkpt lat="43.8711105" lon="12.3572787"><ele>799.5999999999999</ele><time>2026-04-12T07:51:00.299Z</time></trkpt><trkpt lat="43.8711968" lon="12.3571929"><ele>797.8</ele><time>2026-04-12T07:51:01.296Z</time></trkpt><trkpt lat="43.871287" lon="12.3571131"><ele>796.0</ele><time>2026-04-12T07:51:02.293Z</time></trkpt><trkpt lat="43.8713834" lon="12.3570546"><ele>796.0</ele><time>2026-04-12T07:51:03.307Z</time></trkpt><trkpt lat="43.8714851" lon="12.3570101"><ele>796.0</ele><time>2026-04-12T07:51:04.3Z</time></trkpt><trkpt lat="43.8715903" lon="12.3569724"><ele>796.0</ele><time>2026-04-12T07:51:05.296Z</time></trkpt><trkpt lat="43.8716933" lon="12.3569284"><ele>796.0</ele><time>2026-04-12T07:51:06.299Z</time></trkpt><trkpt lat="43.8717857" lon="12.356909"><ele>796.0</ele><time>2026-04-12T07:51:07.3Z</time></trkpt><trkpt lat="43.8718557" lon="12.3569047"><ele>795.4999999999999</ele><time>2026-04-12T07:51:08.307Z</time></trkpt><trkpt lat="43.8719438" lon="12.3569669"><ele>795.0</ele><time>2026-04-12T07:51:10.265Z</time></trkpt><trkpt lat="43.8719191" lon="12.3570658"><ele>794.5</ele><time>2026-04-12T07:51:12.296Z</time></trkpt><trkpt lat="43.8718616" lon="12.3571409"><ele>794.0</ele><time>2026-04-12T07:51:14.294Z</time></trkpt><trkpt lat="43.871774" lon="12.3571746"><ele>793.4999999999999</ele><time>2026-04-12T07:51:16.299Z</time></trkpt><trkpt lat="43.8717204" lon="12.3572482"><ele>793.0</ele><time>2026-04-12T07:51:18.287Z</time></trkpt><trkpt lat="43.87166" lon="12.3572996"><ele>793.0</ele><time>2026-04-12T07:51:20.3Z</time></trkpt><trkpt lat="43.8716007" lon="12.3573506"><ele>793.0</ele><time>2026-04-12T07:51:22.303Z</time></trkpt><trkpt lat="43.8715374" lon="12.3574392"><ele>793.0</ele><time>2026-04-12T07:51:24.298Z</time></trkpt><trkpt lat="43.8715033" lon="12.3575743"><ele>793.0</ele><time>2026-04-12T07:51:26.293Z</time></trkpt><trkpt lat="43.8714724" lon="12.3577326"><ele>793.0</ele><time>2026-04-12T07:51:28.293Z</time></trkpt><trkpt lat="43.8714378" lon="12.3579091"><ele>792.9999999999999</ele><time>2026-04-12T07:51:30.276Z</time></trkpt><trkpt lat="43.8714209" lon="12.3580011"><ele>793.0</ele><time>2026-04-12T07:51:31.265Z</time></trkpt><trkpt lat="43.8714" lon="12.358098"><ele>793.0</ele><time>2026-04-12T07:51:32.295Z</time></trkpt><trkpt lat="43.8713747" lon="12.3581969"><ele>793.0</ele><time>2026-04-12T07:51:33.311Z</time></trkpt><trkpt lat="43.8713426" lon="12.3583715"><ele>792.9999999999999</ele><time>2026-04-12T07:51:35.312Z</time></trkpt><trkpt lat="43.8713264" lon="12.3584597"><ele>793.0</ele><time>2026-04-12T07:51:36.298Z</time></trkpt><trkpt lat="43.8713083" lon="12.3585473"><ele>792.4285714285714</ele><time>2026-04-12T07:51:37.297Z</time></trkpt><trkpt lat="43.8712965" lon="12.3586331"><ele>791.8571428571429</ele><time>2026-04-12T07:51:38.316Z</time></trkpt><trkpt lat="43.8712798" lon="12.3587194"><ele>791.2857142857142</ele><time>2026-04-12T07:51:39.295Z</time></trkpt><trkpt lat="43.8712535" lon="12.3588021"><ele>790.7142857142858</ele><time>2026-04-12T07:51:40.311Z</time></trkpt><trkpt lat="43.8712203" lon="12.3588912"><ele>790.1428571428571</ele><time>2026-04-12T07:51:41.307Z</time></trkpt><trkpt lat="43.8711749" lon="12.3589719"><ele>789.5714285714286</ele><time>2026-04-12T07:51:42.316Z</time></trkpt><trkpt lat="43.8711223" lon="12.3590372"><ele>789.0</ele><time>2026-04-12T07:51:43.307Z</time></trkpt><trkpt lat="43.8710577" lon="12.3591022"><ele>788.8333333333334</ele><time>2026-04-12T07:51:44.302Z</time></trkpt><trkpt lat="43.8709947" lon="12.3591617"><ele>788.6666666666667</ele><time>2026-04-12T07:51:45.29Z</time></trkpt><trkpt lat="43.8709195" lon="12.3592204"><ele>788.5</ele><time>2026-04-12T07:51:46.311Z</time></trkpt><trkpt lat="43.8708442" lon="12.3592672"><ele>788.3333333333334</ele><time>2026-04-12T07:51:47.298Z</time></trkpt><trkpt lat="43.8707592" lon="12.359303"><ele>788.1666666666667</ele><time>2026-04-12T07:51:48.303Z</time></trkpt><trkpt lat="43.870669" lon="12.3593356"><ele>788.0</ele><time>2026-04-12T07:51:49.309Z</time></trkpt><trkpt lat="43.8705726" lon="12.3593712"><ele>788.0</ele><time>2026-04-12T07:51:50.279Z</time></trkpt><trkpt lat="43.8704723" lon="12.359413"><ele>788.0</ele><time>2026-04-12T07:51:51.308Z</time></trkpt><trkpt lat="43.8703765" lon="12.3594654"><ele>788.0</ele><time>2026-04-12T07:51:52.305Z</time></trkpt><trkpt lat="43.8702861" lon="12.359529"><ele>788.0</ele><time>2026-04-12T07:51:53.3Z</time></trkpt><trkpt lat="43.8702091" lon="12.3596261"><ele>788.0</ele><time>2026-04-12T07:51:54.278Z</time></trkpt><trkpt lat="43.8701408" lon="12.3597439"><ele>785.2</ele><time>2026-04-12T07:51:55.307Z</time></trkpt><trkpt lat="43.8700758" lon="12.3598636"><ele>782.4</ele><time>2026-04-12T07:51:56.314Z</time></trkpt><trkpt lat="43.8700128" lon="12.3599934"><ele>779.6</ele><time>2026-04-12T07:51:57.308Z</time></trkpt><trkpt lat="43.8699493" lon="12.3601236"><ele>776.8000000000001</ele><time>2026-04-12T07:51:58.295Z</time></trkpt><trkpt lat="43.8698859" lon="12.3602562"><ele>774.0</ele><time>2026-04-12T07:51:59.238Z</time></trkpt><trkpt lat="43.869832" lon="12.3603698"><ele>774.0</ele><time>2026-04-12T07:52:00.316Z</time></trkpt><trkpt lat="43.8697919" lon="12.3604831"><ele>774.0</ele><time>2026-04-12T07:52:01.285Z</time></trkpt><trkpt lat="43.8697493" lon="12.3605964"><ele>774.0</ele><time>2026-04-12T07:52:02.322Z</time></trkpt><trkpt lat="43.8696888" lon="12.360709"><ele>774.0</ele><time>2026-04-12T07:52:03.286Z</time></trkpt><trkpt lat="43.8696191" lon="12.3608048"><ele>774.0</ele><time>2026-04-12T07:52:04.275Z</time></trkpt><trkpt lat="43.8695455" lon="12.3609017"><ele>773.0</ele><time>2026-04-12T07:52:05.302Z</time></trkpt><trkpt lat="43.8694753" lon="12.3609987"><ele>772.0</ele><time>2026-04-12T07:52:06.299Z</time></trkpt><trkpt lat="43.8694104" lon="12.3610888"><ele>771.0</ele><time>2026-04-12T07:52:07.317Z</time></trkpt><trkpt lat="43.8693471" lon="12.361169"><ele>770.0</ele><time>2026-04-12T07:52:08.294Z</time></trkpt><trkpt lat="43.8692816" lon="12.3612549"><ele>769.0</ele><time>2026-04-12T07:52:09.308Z</time></trkpt><trkpt lat="43.8692186" lon="12.3613402"><ele>768.4285714285714</ele><time>2026-04-12T07:52:10.292Z</time></trkpt><trkpt lat="43.8691638" lon="12.3614269"><ele>767.8571428571429</ele><time>2026-04-12T07:52:11.31Z</time></trkpt><trkpt lat="43.8691104" lon="12.3615147"><ele>767.2857142857143</ele><time>2026-04-12T07:52:12.302Z</time></trkpt><trkpt lat="43.8690642" lon="12.3615909"><ele>766.7142857142858</ele><time>2026-04-12T07:52:13.3Z</time></trkpt><trkpt lat="43.8690262" lon="12.3616726"><ele>766.1428571428571</ele><time>2026-04-12T07:52:14.313Z</time></trkpt><trkpt lat="43.8689908" lon="12.3617535"><ele>765.5714285714287</ele><time>2026-04-12T07:52:15.277Z</time></trkpt><trkpt lat="43.8689541" lon="12.3618269"><ele>765.0</ele><time>2026-04-12T07:52:16.295Z</time></trkpt><trkpt lat="43.8689201" lon="12.3619056"><ele>765.0000000000001</ele><time>2026-04-12T07:52:17.315Z</time></trkpt><trkpt lat="43.8688847" lon="12.3619851"><ele>765.0</ele><time>2026-04-12T07:52:18.328Z</time></trkpt><trkpt lat="43.8688422" lon="12.3620596"><ele>765.0</ele><time>2026-04-12T07:52:19.321Z</time></trkpt><trkpt lat="43.8688009" lon="12.3621306"><ele>765.0</ele><time>2026-04-12T07:52:20.312Z</time></trkpt><trkpt lat="43.8687605" lon="12.3622077"><ele>765.0</ele><time>2026-04-12T07:52:21.311Z</time></trkpt><trkpt lat="43.8687224" lon="12.3622872"><ele>765.0000000000001</ele><time>2026-04-12T07:52:22.3Z</time></trkpt><trkpt lat="43.8686781" lon="12.3623671"><ele>765.0</ele><time>2026-04-12T07:52:23.322Z</time></trkpt><trkpt lat="43.8686354" lon="12.3624537"><ele>765.0</ele><time>2026-04-12T07:52:24.312Z</time></trkpt><trkpt lat="43.8685844" lon="12.3625312"><ele>765.0</ele><time>2026-04-12T07:52:25.309Z</time></trkpt><trkpt lat="43.8685305" lon="12.3626039"><ele>765.0</ele><time>2026-04-12T07:52:26.295Z</time></trkpt><trkpt lat="43.8684802" lon="12.3626858"><ele>765.0</ele><time>2026-04-12T07:52:27.302Z</time></trkpt><trkpt lat="43.868431" lon="12.3627735"><ele>765.0</ele><time>2026-04-12T07:52:28.283Z</time></trkpt><trkpt lat="43.8683731" lon="12.3628589"><ele>765.0</ele><time>2026-04-12T07:52:29.291Z</time></trkpt><trkpt lat="43.8683143" lon="12.3629421"><ele>765.0</ele><time>2026-04-12T07:52:30.288Z</time></trkpt><trkpt lat="43.8682545" lon="12.3630288"><ele>765.0</ele><time>2026-04-12T07:52:31.309Z</time></trkpt><trkpt lat="43.8681948" lon="12.3631084"><ele>765.0</ele><time>2026-04-12T07:52:32.293Z</time></trkpt><trkpt lat="43.8681389" lon="12.3631846"><ele>765.0</ele><time>2026-04-12T07:52:33.286Z</time></trkpt><trkpt lat="43.8680812" lon="12.3632515"><ele>765.0</ele><time>2026-04-12T07:52:34.285Z</time></trkpt><trkpt lat="43.8680226" lon="12.3633152"><ele>765.0</ele><time>2026-04-12T07:52:35.304Z</time></trkpt><trkpt lat="43.8679687" lon="12.363373"><ele>764.8333333333334</ele><time>2026-04-12T07:52:36.3Z</time></trkpt><trkpt lat="43.8679159" lon="12.3634268"><ele>764.6666666666666</ele><time>2026-04-12T07:52:37.299Z</time></trkpt><trkpt lat="43.8678599" lon="12.3634726"><ele>764.5</ele><time>2026-04-12T07:52:38.31Z</time></trkpt><trkpt lat="43.86776" lon="12.3635427"><ele>764.3333333333333</ele><time>2026-04-12T07:52:40.306Z</time></trkpt><trkpt lat="43.8676789" lon="12.3636096"><ele>764.1666666666666</ele><time>2026-04-12T07:52:42.284Z</time></trkpt><trkpt lat="43.8676003" lon="12.363674"><ele>764.0</ele><time>2026-04-12T07:52:44.322Z</time></trkpt><trkpt lat="43.8675263" lon="12.3637671"><ele>763.0</ele><time>2026-04-12T07:52:46.296Z</time></trkpt><trkpt lat="43.8674459" lon="12.3638884"><ele>762.0</ele><time>2026-04-12T07:52:48.302Z</time></trkpt><trkpt lat="43.8674024" lon="12.3639613"><ele>761.0</ele><time>2026-04-12T07:52:49.325Z</time></trkpt><trkpt lat="43.8673589" lon="12.3640501"><ele>760.0</ele><time>2026-04-12T07:52:50.291Z</time></trkpt><trkpt lat="43.8673184" lon="12.3641439"><ele>759.0</ele><time>2026-04-12T07:52:51.279Z</time></trkpt><trkpt lat="43.8672865" lon="12.3642601"><ele>758.0</ele><time>2026-04-12T07:52:52.29Z</time></trkpt><trkpt lat="43.8672642" lon="12.3643907"><ele>758.0</ele><time>2026-04-12T07:52:53.307Z</time></trkpt><trkpt lat="43.8672398" lon="12.3645278"><ele>758.0</ele><time>2026-04-12T07:52:54.286Z</time></trkpt><trkpt lat="43.867216" lon="12.3646742"><ele>758.0</ele><time>2026-04-12T07:52:55.308Z</time></trkpt><trkpt lat="43.8671977" lon="12.3648108"><ele>758.0</ele><time>2026-04-12T07:52:56.302Z</time></trkpt><trkpt lat="43.8671826" lon="12.3649504"><ele>758.0</ele><time>2026-04-12T07:52:57.311Z</time></trkpt><trkpt lat="43.8671637" lon="12.3650903"><ele>756.8</ele><time>2026-04-12T07:52:58.305Z</time></trkpt><trkpt lat="43.8671583" lon="12.3652265"><ele>755.5999999999999</ele><time>2026-04-12T07:52:59.317Z</time></trkpt><trkpt lat="43.8671708" lon="12.3653581"><ele>754.4000000000001</ele><time>2026-04-12T07:53:00.281Z</time></trkpt><trkpt lat="43.8671888" lon="12.3654753"><ele>753.2</ele><time>2026-04-12T07:53:01.274Z</time></trkpt><trkpt lat="43.8672331" lon="12.3655633"><ele>752.0</ele><time>2026-04-12T07:53:02.307Z</time></trkpt><trkpt lat="43.8673353" lon="12.3656273"><ele>750.5</ele><time>2026-04-12T07:53:04.245Z</time></trkpt><trkpt lat="43.8674461" lon="12.3656734"><ele>749.0</ele><time>2026-04-12T07:53:06.307Z</time></trkpt><trkpt lat="43.8675138" lon="12.3656923"><ele>747.5</ele><time>2026-04-12T07:53:07.287Z</time></trkpt><trkpt lat="43.8675896" lon="12.3657192"><ele>746.0</ele><time>2026-04-12T07:53:08.302Z</time></trkpt><trkpt lat="43.8676737" lon="12.3657575"><ele>744.5</ele><time>2026-04-12T07:53:09.3Z</time></trkpt><trkpt lat="43.8677522" lon="12.3658216"><ele>743.0</ele><time>2026-04-12T07:53:10.31Z</time></trkpt><trkpt lat="43.8678167" lon="12.3659186"><ele>741.8</ele><time>2026-04-12T07:53:11.305Z</time></trkpt><trkpt lat="43.8678718" lon="12.3660306"><ele>740.5999999999999</ele><time>2026-04-12T07:53:12.319Z</time></trkpt><trkpt lat="43.8679199" lon="12.3661482"><ele>739.4000000000001</ele><time>2026-04-12T07:53:13.284Z</time></trkpt><trkpt lat="43.8679656" lon="12.3662531"><ele>738.2</ele><time>2026-04-12T07:53:14.297Z</time></trkpt><trkpt lat="43.8680058" lon="12.3663361"><ele>737.0</ele><time>2026-04-12T07:53:15.316Z</time></trkpt><trkpt lat="43.8680311" lon="12.366485"><ele>735.8333333333333</ele><time>2026-04-12T07:53:17.319Z</time></trkpt><trkpt lat="43.8680231" lon="12.3665788"><ele>734.6666666666666</ele><time>2026-04-12T07:53:18.31Z</time></trkpt><trkpt lat="43.8680296" lon="12.3666702"><ele>733.5</ele><time>2026-04-12T07:53:19.325Z</time></trkpt><trkpt lat="43.8680606" lon="12.3667679"><ele>732.3333333333334</ele><time>2026-04-12T07:53:20.307Z</time></trkpt><trkpt lat="43.8680933" lon="12.3668787"><ele>731.1666666666667</ele><time>2026-04-12T07:53:21.32Z</time></trkpt><trkpt lat="43.8681262" lon="12.3669798"><ele>730.0</ele><time>2026-04-12T07:53:22.324Z</time></trkpt><trkpt lat="43.8681728" lon="12.3670867"><ele>729.4</ele><time>2026-04-12T07:53:23.321Z</time></trkpt><trkpt lat="43.8682259" lon="12.3671947"><ele>728.8</ele><time>2026-04-12T07:53:24.288Z</time></trkpt><trkpt lat="43.8682798" lon="12.3673069"><ele>728.2</ele><time>2026-04-12T07:53:25.29Z</time></trkpt><trkpt lat="43.8683424" lon="12.3674188"><ele>727.6</ele><time>2026-04-12T07:53:26.297Z</time></trkpt><trkpt lat="43.8684162" lon="12.3675159"><ele>727.0</ele><time>2026-04-12T07:53:27.256Z</time></trkpt><trkpt lat="43.8684992" lon="12.3676031"><ele>725.2</ele><time>2026-04-12T07:53:28.304Z</time></trkpt><trkpt lat="43.868584" lon="12.3676855"><ele>723.4000000000001</ele><time>2026-04-12T07:53:29.291Z</time></trkpt><trkpt lat="43.8686597" lon="12.3677785"><ele>721.5999999999999</ele><time>2026-04-12T07:53:30.309Z</time></trkpt><trkpt lat="43.868731" lon="12.3678783"><ele>719.8</ele><time>2026-04-12T07:53:31.296Z</time></trkpt><trkpt lat="43.8687967" lon="12.3679818"><ele>718.0</ele><time>2026-04-12T07:53:32.302Z</time></trkpt><trkpt lat="43.8688473" lon="12.3680906"><ele>718.0</ele><time>2026-04-12T07:53:33.304Z</time></trkpt><trkpt lat="43.8688676" lon="12.3682046"><ele>718.0</ele><time>2026-04-12T07:53:34.313Z</time></trkpt><trkpt lat="43.8688617" lon="12.3683088"><ele>718.0</ele><time>2026-04-12T07:53:35.302Z</time></trkpt><trkpt lat="43.8688423" lon="12.3684149"><ele>718.0</ele><time>2026-04-12T07:53:36.299Z</time></trkpt><trkpt lat="43.8688277" lon="12.3685042"><ele>718.0</ele><time>2026-04-12T07:53:37.289Z</time></trkpt><trkpt lat="43.8688154" lon="12.3685934"><ele>718.0</ele><time>2026-04-12T07:53:38.284Z</time></trkpt><trkpt lat="43.8688112" lon="12.3686884"><ele>718.0</ele><time>2026-04-12T07:53:39.281Z</time></trkpt><trkpt lat="43.8688311" lon="12.3688017"><ele>717.2</ele><time>2026-04-12T07:53:40.301Z</time></trkpt><trkpt lat="43.8688548" lon="12.3689055"><ele>716.4</ele><time>2026-04-12T07:53:41.301Z</time></trkpt><trkpt lat="43.8689089" lon="12.3690133"><ele>715.6</ele><time>2026-04-12T07:53:42.284Z</time></trkpt><trkpt lat="43.8689864" lon="12.3690849"><ele>714.8000000000001</ele><time>2026-04-12T07:53:43.302Z</time></trkpt><trkpt lat="43.8690819" lon="12.3691477"><ele>714.0</ele><time>2026-04-12T07:53:44.306Z</time></trkpt><trkpt lat="43.8691728" lon="12.369173"><ele>714.0</ele><time>2026-04-12T07:53:45.299Z</time></trkpt><trkpt lat="43.8692702" lon="12.3691943"><ele>714.0</ele><time>2026-04-12T07:53:46.309Z</time></trkpt><trkpt lat="43.8693665" lon="12.3692271"><ele>714.0</ele><time>2026-04-12T07:53:47.269Z</time></trkpt><trkpt lat="43.8694515" lon="12.3692808"><ele>714.0</ele><time>2026-04-12T07:53:48.297Z</time></trkpt><trkpt lat="43.8695296" lon="12.3693631"><ele>714.0</ele><time>2026-04-12T07:53:49.312Z</time></trkpt><trkpt lat="43.8695948" lon="12.3694798"><ele>710.75</ele><time>2026-04-12T07:53:50.291Z</time></trkpt><trkpt lat="43.8696482" lon="12.3696162"><ele>707.5</ele><time>2026-04-12T07:53:51.316Z</time></trkpt><trkpt lat="43.8696859" lon="12.3697642"><ele>704.25</ele><time>2026-04-12T07:53:52.299Z</time></trkpt><trkpt lat="43.8697198" lon="12.3699174"><ele>701.0</ele><time>2026-04-12T07:53:53.319Z</time></trkpt><trkpt lat="43.8697556" lon="12.3700822"><ele>699.0</ele><time>2026-04-12T07:53:54.308Z</time></trkpt><trkpt lat="43.8697887" lon="12.3702462"><ele>697.0</ele><time>2026-04-12T07:53:55.307Z</time></trkpt><trkpt lat="43.8698248" lon="12.3704075"><ele>695.0</ele><time>2026-04-12T07:53:56.297Z</time></trkpt><trkpt lat="43.869867" lon="12.3705838"><ele>693.0</ele><time>2026-04-12T07:53:57.292Z</time></trkpt><trkpt lat="43.8699117" lon="12.3707558"><ele>692.75</ele><time>2026-04-12T07:53:58.29Z</time></trkpt><trkpt lat="43.869961" lon="12.3709273"><ele>692.5</ele><time>2026-04-12T07:53:59.304Z</time></trkpt><trkpt lat="43.8700084" lon="12.3710904"><ele>692.25</ele><time>2026-04-12T07:54:00.293Z</time></trkpt><trkpt lat="43.8700515" lon="12.3712479"><ele>692.0</ele><time>2026-04-12T07:54:01.285Z</time></trkpt><trkpt lat="43.8700977" lon="12.3713914"><ele>690.8</ele><time>2026-04-12T07:54:02.272Z</time></trkpt><trkpt lat="43.8701617" lon="12.3715378"><ele>689.6</ele><time>2026-04-12T07:54:03.307Z</time></trkpt><trkpt lat="43.8702241" lon="12.3716684"><ele>688.4</ele><time>2026-04-12T07:54:04.311Z</time></trkpt><trkpt lat="43.8702894" lon="12.3717869"><ele>687.1999999999999</ele><time>2026-04-12T07:54:05.267Z</time></trkpt><trkpt lat="43.8703429" lon="12.3719071"><ele>686.0</ele><time>2026-04-12T07:54:06.308Z</time></trkpt><trkpt lat="43.8703808" lon="12.3720377"><ele>686.0</ele><time>2026-04-12T07:54:07.294Z</time></trkpt><trkpt lat="43.870414" lon="12.3721679"><ele>686.0</ele><time>2026-04-12T07:54:08.298Z</time></trkpt><trkpt lat="43.8704386" lon="12.372307"><ele>686.0</ele><time>2026-04-12T07:54:09.306Z</time></trkpt><trkpt lat="43.8704701" lon="12.3724741"><ele>686.0</ele><time>2026-04-12T07:54:10.3Z</time></trkpt><trkpt lat="43.8705116" lon="12.3726455"><ele>684.25</ele><time>2026-04-12T07:54:11.304Z</time></trkpt><trkpt lat="43.870567" lon="12.3728115"><ele>682.5</ele><time>2026-04-12T07:54:12.302Z</time></trkpt><trkpt lat="43.8706323" lon="12.3729706"><ele>680.75</ele><time>2026-04-12T07:54:13.312Z</time></trkpt><trkpt lat="43.8707047" lon="12.3731207"><ele>679.0</ele><time>2026-04-12T07:54:14.289Z</time></trkpt><trkpt lat="43.8707735" lon="12.3732752"><ele>676.75</ele><time>2026-04-12T07:54:15.309Z</time></trkpt><trkpt lat="43.8708367" lon="12.3734215"><ele>674.5</ele><time>2026-04-12T07:54:16.312Z</time></trkpt><trkpt lat="43.8709151" lon="12.3735696"><ele>672.25</ele><time>2026-04-12T07:54:17.314Z</time></trkpt><trkpt lat="43.8709999" lon="12.3737162"><ele>670.0</ele><time>2026-04-12T07:54:18.304Z</time></trkpt><trkpt lat="43.8710752" lon="12.3738492"><ele>668.4</ele><time>2026-04-12T07:54:19.322Z</time></trkpt><trkpt lat="43.8711332" lon="12.3739781"><ele>666.8</ele><time>2026-04-12T07:54:20.324Z</time></trkpt><trkpt lat="43.8711679" lon="12.3741016"><ele>665.2</ele><time>2026-04-12T07:54:21.31Z</time></trkpt><trkpt lat="43.8711836" lon="12.3742419"><ele>663.6</ele><time>2026-04-12T07:54:22.311Z</time></trkpt><trkpt lat="43.8711612" lon="12.3743549"><ele>662.0</ele><time>2026-04-12T07:54:23.304Z</time></trkpt><trkpt lat="43.8711156" lon="12.3744636"><ele>662.0</ele><time>2026-04-12T07:54:24.304Z</time></trkpt><trkpt lat="43.8710659" lon="12.3745819"><ele>662.0</ele><time>2026-04-12T07:54:25.291Z</time></trkpt><trkpt lat="43.87103" lon="12.3747019"><ele>662.0</ele><time>2026-04-12T07:54:26.293Z</time></trkpt><trkpt lat="43.870993" lon="12.3748303"><ele>662.0</ele><time>2026-04-12T07:54:27.279Z</time></trkpt><trkpt lat="43.870961" lon="12.3749666"><ele>662.0</ele><time>2026-04-12T07:54:28.285Z</time></trkpt><trkpt lat="43.8709173" lon="12.3751095"><ele>661.2</ele><time>2026-04-12T07:54:29.316Z</time></trkpt><trkpt lat="43.8708825" lon="12.3752412"><ele>660.4000000000001</ele><time>2026-04-12T07:54:30.272Z</time></trkpt><trkpt lat="43.8708469" lon="12.3753567"><ele>659.5999999999999</ele><time>2026-04-12T07:54:31.303Z</time></trkpt><trkpt lat="43.8708075" lon="12.375466"><ele>658.8</ele><time>2026-04-12T07:54:32.285Z</time></trkpt><trkpt lat="43.8707836" lon="12.3755526"><ele>658.0</ele><time>2026-04-12T07:54:33.28Z</time></trkpt><trkpt lat="43.8707618" lon="12.3757049"><ele>656.6666666666667</ele><time>2026-04-12T07:54:35.282Z</time></trkpt><trkpt lat="43.8708651" lon="12.375822"><ele>655.3333333333334</ele><time>2026-04-12T07:54:37.276Z</time></trkpt><trkpt lat="43.8709308" lon="12.3758473"><ele>654.0</ele><time>2026-04-12T07:54:38.292Z</time></trkpt><trkpt lat="43.8710077" lon="12.3758814"><ele>652.6666666666666</ele><time>2026-04-12T07:54:39.298Z</time></trkpt><trkpt lat="43.8710792" lon="12.3759112"><ele>651.3333333333333</ele><time>2026-04-12T07:54:40.299Z</time></trkpt><trkpt lat="43.8711414" lon="12.3759371"><ele>650.0</ele><time>2026-04-12T07:54:41.286Z</time></trkpt><trkpt lat="43.8712114" lon="12.3759747"><ele>649.6666666666666</ele><time>2026-04-12T07:54:42.305Z</time></trkpt><trkpt lat="43.8712791" lon="12.3760219"><ele>649.3333333333333</ele><time>2026-04-12T07:54:43.302Z</time></trkpt><trkpt lat="43.8713285" lon="12.3760854"><ele>649.0</ele><time>2026-04-12T07:54:44.305Z</time></trkpt><trkpt lat="43.8713639" lon="12.3761627"><ele>648.6666666666666</ele><time>2026-04-12T07:54:45.286Z</time></trkpt><trkpt lat="43.8713866" lon="12.3762476"><ele>648.3333333333334</ele><time>2026-04-12T07:54:46.299Z</time></trkpt><trkpt lat="43.8714035" lon="12.3763636"><ele>648.0</ele><time>2026-04-12T07:54:47.293Z</time></trkpt><trkpt lat="43.8714" lon="12.3764912"><ele>646.8333333333334</ele><time>2026-04-12T07:54:48.288Z</time></trkpt><trkpt lat="43.871379" lon="12.3766217"><ele>645.6666666666666</ele><time>2026-04-12T07:54:49.317Z</time></trkpt><trkpt lat="43.8713387" lon="12.3767412"><ele>644.5</ele><time>2026-04-12T07:54:50.292Z</time></trkpt><trkpt lat="43.8712906" lon="12.3768502"><ele>643.3333333333333</ele><time>2026-04-12T07:54:51.308Z</time></trkpt><trkpt lat="43.8712502" lon="12.3769485"><ele>642.1666666666666</ele><time>2026-04-12T07:54:52.31Z</time></trkpt><trkpt lat="43.8712264" lon="12.377037"><ele>641.0</ele><time>2026-04-12T07:54:53.26Z</time></trkpt><trkpt lat="43.8712231" lon="12.3771285"><ele>639.0</ele><time>2026-04-12T07:54:54.29Z</time></trkpt><trkpt lat="43.8712295" lon="12.3772263"><ele>637.0</ele><time>2026-04-12T07:54:55.296Z</time></trkpt><trkpt lat="43.871243" lon="12.3773262"><ele>635.0</ele><time>2026-04-12T07:54:56.269Z</time></trkpt><trkpt lat="43.8712774" lon="12.377447"><ele>633.0</ele><time>2026-04-12T07:54:57.293Z</time></trkpt><trkpt lat="43.871317" lon="12.3775832"><ele>631.0</ele><time>2026-04-12T07:54:58.293Z</time></trkpt><trkpt lat="43.8713601" lon="12.377712"><ele>629.0</ele><time>2026-04-12T07:54:59.302Z</time></trkpt><trkpt lat="43.8714018" lon="12.3778406"><ele>629.0</ele><time>2026-04-12T07:55:00.314Z</time></trkpt><trkpt lat="43.8714541" lon="12.3779597"><ele>629.0</ele><time>2026-04-12T07:55:01.294Z</time></trkpt><trkpt lat="43.8715086" lon="12.3780831"><ele>629.0</ele><time>2026-04-12T07:55:02.288Z</time></trkpt><trkpt lat="43.8715526" lon="12.3782087"><ele>629.0</ele><time>2026-04-12T07:55:03.302Z</time></trkpt><trkpt lat="43.8715823" lon="12.378352"><ele>629.0</ele><time>2026-04-12T07:55:04.29Z</time></trkpt><trkpt lat="43.8716019" lon="12.3785132"><ele>626.0</ele><time>2026-04-12T07:55:05.303Z</time></trkpt><trkpt lat="43.8716262" lon="12.3786861"><ele>623.0</ele><time>2026-04-12T07:55:06.303Z</time></trkpt><trkpt lat="43.8716567" lon="12.378853"><ele>620.0</ele><time>2026-04-12T07:55:07.28Z</time></trkpt><trkpt lat="43.8716887" lon="12.3790175"><ele>617.0</ele><time>2026-04-12T07:55:08.297Z</time></trkpt><trkpt lat="43.8717177" lon="12.379181"><ele>615.0</ele><time>2026-04-12T07:55:09.291Z</time></trkpt><trkpt lat="43.8717502" lon="12.3793356"><ele>613.0</ele><time>2026-04-12T07:55:10.298Z</time></trkpt><trkpt lat="43.8717919" lon="12.3794835"><ele>611.0</ele><time>2026-04-12T07:55:11.287Z</time></trkpt><trkpt lat="43.8718262" lon="12.3796254"><ele>609.0</ele><time>2026-04-12T07:55:12.313Z</time></trkpt><trkpt lat="43.8718565" lon="12.3797767"><ele>605.75</ele><time>2026-04-12T07:55:13.309Z</time></trkpt><trkpt lat="43.8718812" lon="12.3799339"><ele>602.5</ele><time>2026-04-12T07:55:14.31Z</time></trkpt><trkpt lat="43.8718891" lon="12.380092"><ele>599.25</ele><time>2026-04-12T07:55:15.309Z</time></trkpt><trkpt lat="43.8718881" lon="12.3802547"><ele>596.0</ele><time>2026-04-12T07:55:16.299Z</time></trkpt><trkpt lat="43.8719016" lon="12.3804227"><ele>593.25</ele><time>2026-04-12T07:55:17.317Z</time></trkpt><trkpt lat="43.8719319" lon="12.3805679"><ele>590.5</ele><time>2026-04-12T07:55:18.288Z</time></trkpt><trkpt lat="43.8719833" lon="12.3807055"><ele>587.75</ele><time>2026-04-12T07:55:19.315Z</time></trkpt><trkpt lat="43.8720394" lon="12.3808381"><ele>585.0</ele><time>2026-04-12T07:55:20.28Z</time></trkpt><trkpt lat="43.8720975" lon="12.381002"><ele>585.0</ele><time>2026-04-12T07:55:21.309Z</time></trkpt><trkpt lat="43.8721546" lon="12.3811662"><ele>585.0</ele><time>2026-04-12T07:55:22.3Z</time></trkpt><trkpt lat="43.8722212" lon="12.3813346"><ele>585.0</ele><time>2026-04-12T07:55:23.294Z</time></trkpt><trkpt lat="43.8722816" lon="12.3815118"><ele>585.0</ele><time>2026-04-12T07:55:24.305Z</time></trkpt><trkpt lat="43.8723501" lon="12.3816853"><ele>582.25</ele><time>2026-04-12T07:55:25.301Z</time></trkpt><trkpt lat="43.8724207" lon="12.381859"><ele>579.5</ele><time>2026-04-12T07:55:26.306Z</time></trkpt><trkpt lat="43.872492" lon="12.3820399"><ele>576.75</ele><time>2026-04-12T07:55:27.291Z</time></trkpt><trkpt lat="43.8725545" lon="12.3822174"><ele>574.0</ele><time>2026-04-12T07:55:28.301Z</time></trkpt><trkpt lat="43.8726199" lon="12.3823924"><ele>568.75</ele><time>2026-04-12T07:55:29.29Z</time></trkpt><trkpt lat="43.8726869" lon="12.3825553"><ele>563.5</ele><time>2026-04-12T07:55:30.291Z</time></trkpt><trkpt lat="43.8727514" lon="12.3827156"><ele>558.25</ele><time>2026-04-12T07:55:31.293Z</time></trkpt><trkpt lat="43.8728085" lon="12.3828722"><ele>553.0</ele><time>2026-04-12T07:55:32.291Z</time></trkpt><trkpt lat="43.8728509" lon="12.3830222"><ele>551.4</ele><time>2026-04-12T07:55:33.292Z</time></trkpt><trkpt lat="43.8728623" lon="12.3831585"><ele>549.8</ele><time>2026-04-12T07:55:34.298Z</time></trkpt><trkpt lat="43.8728577" lon="12.3833043"><ele>548.2</ele><time>2026-04-12T07:55:35.294Z</time></trkpt><trkpt lat="43.872839" lon="12.3834581"><ele>546.6</ele><time>2026-04-12T07:55:36.295Z</time></trkpt><trkpt lat="43.8727945" lon="12.3836107"><ele>545.0</ele><time>2026-04-12T07:55:37.295Z</time></trkpt><trkpt lat="43.8727435" lon="12.3837588"><ele>544.0</ele><time>2026-04-12T07:55:38.297Z</time></trkpt><trkpt lat="43.8726916" lon="12.3838961"><ele>543.0</ele><time>2026-04-12T07:55:39.299Z</time></trkpt><trkpt lat="43.8726345" lon="12.3840166"><ele>542.0</ele><time>2026-04-12T07:55:40.278Z</time></trkpt><trkpt lat="43.8725836" lon="12.3841238"><ele>541.0</ele><time>2026-04-12T07:55:41.264Z</time></trkpt><trkpt lat="43.8725427" lon="12.3842346"><ele>540.0</ele><time>2026-04-12T07:55:42.295Z</time></trkpt><trkpt lat="43.8725332" lon="12.3843212"><ele>540.0</ele><time>2026-04-12T07:55:43.298Z</time></trkpt><trkpt lat="43.872581" lon="12.3844903"><ele>540.0</ele><time>2026-04-12T07:55:45.291Z</time></trkpt><trkpt lat="43.8726083" lon="12.3845702"><ele>540.0</ele><time>2026-04-12T07:55:46.291Z</time></trkpt><trkpt lat="43.8726547" lon="12.3846351"><ele>540.0</ele><time>2026-04-12T07:55:47.293Z</time></trkpt><trkpt lat="43.8727651" lon="12.3846874"><ele>540.0</ele><time>2026-04-12T07:55:49.304Z</time></trkpt><trkpt lat="43.8728351" lon="12.3846783"><ele>540.0</ele><time>2026-04-12T07:55:50.285Z</time></trkpt><trkpt lat="43.8729071" lon="12.3846798"><ele>538.5</ele><time>2026-04-12T07:55:51.286Z</time></trkpt><trkpt lat="43.8729843" lon="12.3846876"><ele>537.0</ele><time>2026-04-12T07:55:52.282Z</time></trkpt><trkpt lat="43.8730595" lon="12.3847165"><ele>535.5</ele><time>2026-04-12T07:55:53.313Z</time></trkpt><trkpt lat="43.8731351" lon="12.3847698"><ele>534.0</ele><time>2026-04-12T07:55:54.304Z</time></trkpt><trkpt lat="43.8732206" lon="12.384799"><ele>532.5</ele><time>2026-04-12T07:55:55.297Z</time></trkpt><trkpt lat="43.8733125" lon="12.3848024"><ele>531.0</ele><time>2026-04-12T07:55:56.306Z</time></trkpt><trkpt lat="43.8734085" lon="12.3847902"><ele>531.2</ele><time>2026-04-12T07:55:57.293Z</time></trkpt><trkpt lat="43.8735006" lon="12.38477"><ele>531.4000000000001</ele><time>2026-04-12T07:55:58.296Z</time></trkpt><trkpt lat="43.8735975" lon="12.3847364"><ele>531.6</ele><time>2026-04-12T07:55:59.29Z</time></trkpt><trkpt lat="43.8736822" lon="12.3846478"><ele>531.8000000000001</ele><time>2026-04-12T07:56:00.31Z</time></trkpt><trkpt lat="43.8737619" lon="12.3845448"><ele>532.0</ele><time>2026-04-12T07:56:01.291Z</time></trkpt><trkpt lat="43.8738462" lon="12.3844276"><ele>532.0</ele><time>2026-04-12T07:56:02.296Z</time></trkpt><trkpt lat="43.8739335" lon="12.3843498"><ele>532.0</ele><time>2026-04-12T07:56:03.299Z</time></trkpt><trkpt lat="43.8740374" lon="12.3843318"><ele>532.0</ele><time>2026-04-12T07:56:04.291Z</time></trkpt><trkpt lat="43.8741312" lon="12.3843627"><ele>532.0</ele><time>2026-04-12T07:56:05.276Z</time></trkpt><trkpt lat="43.8741985" lon="12.3844304"><ele>532.0</ele><time>2026-04-12T07:56:06.272Z</time></trkpt><trkpt lat="43.8742605" lon="12.3845039"><ele>531.6</ele><time>2026-04-12T07:56:07.299Z</time></trkpt><trkpt lat="43.874324" lon="12.3845742"><ele>531.2</ele><time>2026-04-12T07:56:08.253Z</time></trkpt><trkpt lat="43.8743731" lon="12.3846355"><ele>530.8</ele><time>2026-04-12T07:56:09.301Z</time></trkpt><trkpt lat="43.8744509" lon="12.384755"><ele>530.4</ele><time>2026-04-12T07:56:11.291Z</time></trkpt><trkpt lat="43.8745162" lon="12.3848783"><ele>530.0</ele><time>2026-04-12T07:56:13.296Z</time></trkpt><trkpt lat="43.8745637" lon="12.3849908"><ele>530.0</ele><time>2026-04-12T07:56:15.296Z</time></trkpt><trkpt lat="43.8746083" lon="12.3851031"><ele>530.0</ele><time>2026-04-12T07:56:17.284Z</time></trkpt><trkpt lat="43.8746594" lon="12.3852097"><ele>530.0</ele><time>2026-04-12T07:56:19.298Z</time></trkpt><trkpt lat="43.8747015" lon="12.3853358"><ele>530.0</ele><time>2026-04-12T07:56:21.285Z</time></trkpt><trkpt lat="43.8747523" lon="12.3854806"><ele>530.0</ele><time>2026-04-12T07:56:23.293Z</time></trkpt><trkpt lat="43.8747813" lon="12.3855627"><ele>528.6</ele><time>2026-04-12T07:56:24.297Z</time></trkpt><trkpt lat="43.8748046" lon="12.3856656"><ele>527.2</ele><time>2026-04-12T07:56:25.268Z</time></trkpt><trkpt lat="43.8748185" lon="12.3857874"><ele>525.8</ele><time>2026-04-12T07:56:26.232Z</time></trkpt><trkpt lat="43.8748319" lon="12.3859195"><ele>524.4</ele><time>2026-04-12T07:56:27.23Z</time></trkpt><trkpt lat="43.874846" lon="12.3860508"><ele>523.0</ele><time>2026-04-12T07:56:28.236Z</time></trkpt><trkpt lat="43.8748665" lon="12.3861921"><ele>523.0</ele><time>2026-04-12T07:56:29.268Z</time></trkpt><trkpt lat="43.8749085" lon="12.3863142"><ele>523.0</ele><time>2026-04-12T07:56:30.278Z</time></trkpt><trkpt lat="43.8749647" lon="12.3863917"><ele>523.0</ele><time>2026-04-12T07:56:31.277Z</time></trkpt><trkpt lat="43.8750324" lon="12.3864701"><ele>523.0</ele><time>2026-04-12T07:56:32.289Z</time></trkpt><trkpt lat="43.8751055" lon="12.3865266"><ele>523.0</ele><time>2026-04-12T07:56:33.261Z</time></trkpt><trkpt lat="43.8751855" lon="12.3865646"><ele>523.0</ele><time>2026-04-12T07:56:34.296Z</time></trkpt><trkpt lat="43.8752775" lon="12.3865988"><ele>521.0</ele><time>2026-04-12T07:56:35.296Z</time></trkpt><trkpt lat="43.8753737" lon="12.3866292"><ele>519.0</ele><time>2026-04-12T07:56:36.273Z</time></trkpt><trkpt lat="43.8754669" lon="12.386664"><ele>517.0</ele><time>2026-04-12T07:56:37.305Z</time></trkpt><trkpt lat="43.8755577" lon="12.3867038"><ele>515.0</ele><time>2026-04-12T07:56:38.276Z</time></trkpt><trkpt lat="43.8756496" lon="12.3867444"><ele>513.0</ele><time>2026-04-12T07:56:39.303Z</time></trkpt><trkpt lat="43.8757515" lon="12.3867876"><ele>513.0</ele><time>2026-04-12T07:56:40.259Z</time></trkpt><trkpt lat="43.8758576" lon="12.3868211"><ele>513.0</ele><time>2026-04-12T07:56:41.256Z</time></trkpt><trkpt lat="43.8759649" lon="12.386851"><ele>513.0</ele><time>2026-04-12T07:56:42.278Z</time></trkpt><trkpt lat="43.8760722" lon="12.3868885"><ele>513.0</ele><time>2026-04-12T07:56:43.259Z</time></trkpt><trkpt lat="43.8761781" lon="12.3869238"><ele>513.0</ele><time>2026-04-12T07:56:44.293Z</time></trkpt><trkpt lat="43.8762927" lon="12.3869635"><ele>511.25</ele><time>2026-04-12T07:56:45.266Z</time></trkpt><trkpt lat="43.876404" lon="12.3870058"><ele>509.5</ele><time>2026-04-12T07:56:46.284Z</time></trkpt><trkpt lat="43.8765129" lon="12.3870586"><ele>507.75</ele><time>2026-04-12T07:56:47.301Z</time></trkpt><trkpt lat="43.8766146" lon="12.387111"><ele>506.0</ele><time>2026-04-12T07:56:48.29Z</time></trkpt><trkpt lat="43.876718" lon="12.387169"><ele>505.4</ele><time>2026-04-12T07:56:49.285Z</time></trkpt><trkpt lat="43.8768153" lon="12.3872249"><ele>504.8</ele><time>2026-04-12T07:56:50.299Z</time></trkpt><trkpt lat="43.8769114" lon="12.3872853"><ele>504.19999999999993</ele><time>2026-04-12T07:56:51.275Z</time></trkpt><trkpt lat="43.8770112" lon="12.387343"><ele>503.59999999999997</ele><time>2026-04-12T07:56:52.294Z</time></trkpt><trkpt lat="43.8771084" lon="12.3874024"><ele>503.0</ele><time>2026-04-12T07:56:53.299Z</time></trkpt><trkpt lat="43.8772026" lon="12.387454"><ele>503.0</ele><time>2026-04-12T07:56:54.28Z</time></trkpt><trkpt lat="43.8772946" lon="12.3875119"><ele>502.99999999999994</ele><time>2026-04-12T07:56:55.292Z</time></trkpt><trkpt lat="43.8773871" lon="12.3875696"><ele>502.99999999999994</ele><time>2026-04-12T07:56:56.297Z</time></trkpt><trkpt lat="43.877481" lon="12.3876173"><ele>503.0</ele><time>2026-04-12T07:56:57.293Z</time></trkpt><trkpt lat="43.8775721" lon="12.3876771"><ele>503.0</ele><time>2026-04-12T07:56:58.245Z</time></trkpt><trkpt lat="43.8776555" lon="12.3877558"><ele>502.2</ele><time>2026-04-12T07:56:59.299Z</time></trkpt><trkpt lat="43.8777331" lon="12.3878378"><ele>501.4</ele><time>2026-04-12T07:57:00.299Z</time></trkpt><trkpt lat="43.8777966" lon="12.3879348"><ele>500.59999999999997</ele><time>2026-04-12T07:57:01.251Z</time></trkpt><trkpt lat="43.8778706" lon="12.3880354"><ele>499.79999999999995</ele><time>2026-04-12T07:57:02.293Z</time></trkpt><trkpt lat="43.8779482" lon="12.3881244"><ele>499.0</ele><time>2026-04-12T07:57:03.285Z</time></trkpt><trkpt lat="43.8780212" lon="12.3882013"><ele>499.00000000000006</ele><time>2026-04-12T07:57:04.299Z</time></trkpt><trkpt lat="43.8780969" lon="12.3882627"><ele>499.0</ele><time>2026-04-12T07:57:05.291Z</time></trkpt><trkpt lat="43.8781575" lon="12.3883145"><ele>499.0</ele><time>2026-04-12T07:57:06.282Z</time></trkpt><trkpt lat="43.878221" lon="12.3883624"><ele>499.0</ele><time>2026-04-12T07:57:07.288Z</time></trkpt><trkpt lat="43.8782786" lon="12.3884213"><ele>499.00000000000006</ele><time>2026-04-12T07:57:08.294Z</time></trkpt><trkpt lat="43.8783307" lon="12.3885013"><ele>499.0</ele><time>2026-04-12T07:57:09.297Z</time></trkpt><trkpt lat="43.8783747" lon="12.3885823"><ele>499.00000000000006</ele><time>2026-04-12T07:57:10.294Z</time></trkpt><trkpt lat="43.8784168" lon="12.3886912"><ele>499.0</ele><time>2026-04-12T07:57:11.311Z</time></trkpt><trkpt lat="43.8784588" lon="12.3887795"><ele>499.0</ele><time>2026-04-12T07:57:12.295Z</time></trkpt><trkpt lat="43.8784952" lon="12.3888632"><ele>499.0</ele><time>2026-04-12T07:57:13.292Z</time></trkpt><trkpt lat="43.878535" lon="12.3889513"><ele>499.00000000000006</ele><time>2026-04-12T07:57:14.288Z</time></trkpt><trkpt lat="43.8785734" lon="12.3890463"><ele>499.0</ele><time>2026-04-12T07:57:15.285Z</time></trkpt><trkpt lat="43.8786104" lon="12.3891381"><ele>499.00000000000006</ele><time>2026-04-12T07:57:16.292Z</time></trkpt><trkpt lat="43.8786501" lon="12.3892265"><ele>499.0</ele><time>2026-04-12T07:57:17.308Z</time></trkpt><trkpt lat="43.8786914" lon="12.3893248"><ele>499.0</ele><time>2026-04-12T07:57:18.285Z</time></trkpt><trkpt lat="43.8787329" lon="12.3894163"><ele>499.0</ele><time>2026-04-12T07:57:19.281Z</time></trkpt><trkpt lat="43.8787731" lon="12.3895091"><ele>499.00000000000006</ele><time>2026-04-12T07:57:20.286Z</time></trkpt><trkpt lat="43.8788058" lon="12.3895974"><ele>499.0</ele><time>2026-04-12T07:57:21.254Z</time></trkpt><trkpt lat="43.8788458" lon="12.3896885"><ele>499.00000000000006</ele><time>2026-04-12T07:57:22.289Z</time></trkpt><trkpt lat="43.8789012" lon="12.3898215"><ele>499.0</ele><time>2026-04-12T07:57:24.282Z</time></trkpt><trkpt lat="43.8789499" lon="12.3899156"><ele>499.0</ele><time>2026-04-12T07:57:26.283Z</time></trkpt><trkpt lat="43.8789881" lon="12.3900187"><ele>499.0</ele><time>2026-04-12T07:57:28.285Z</time></trkpt><trkpt lat="43.8790243" lon="12.3901074"><ele>499.00000000000006</ele><time>2026-04-12T07:57:30.288Z</time></trkpt><trkpt lat="43.879057" lon="12.3901848"><ele>499.0</ele><time>2026-04-12T07:57:32.292Z</time></trkpt><trkpt lat="43.8790831" lon="12.3902828"><ele>499.0</ele><time>2026-04-12T07:57:34.289Z</time></trkpt><trkpt lat="43.8791124" lon="12.3904292"><ele>499.0</ele><time>2026-04-12T07:57:36.268Z</time></trkpt><trkpt lat="43.8791307" lon="12.3905811"><ele>499.0</ele><time>2026-04-12T07:57:38.259Z</time></trkpt><trkpt lat="43.8791558" lon="12.3906839"><ele>499.0</ele><time>2026-04-12T07:57:39.292Z</time></trkpt><trkpt lat="43.8792029" lon="12.3907964"><ele>499.0</ele><time>2026-04-12T07:57:40.284Z</time></trkpt><trkpt lat="43.8792675" lon="12.390916"><ele>497.6</ele><time>2026-04-12T07:57:41.289Z</time></trkpt><trkpt lat="43.8793432" lon="12.3910222"><ele>496.2</ele><time>2026-04-12T07:57:42.279Z</time></trkpt><trkpt lat="43.8794045" lon="12.3911427"><ele>494.80000000000007</ele><time>2026-04-12T07:57:43.294Z</time></trkpt><trkpt lat="43.8794631" lon="12.3912688"><ele>493.40000000000003</ele><time>2026-04-12T07:57:44.277Z</time></trkpt><trkpt lat="43.8795177" lon="12.3913919"><ele>492.0</ele><time>2026-04-12T07:57:45.305Z</time></trkpt><trkpt lat="43.8795738" lon="12.3914946"><ele>490.6</ele><time>2026-04-12T07:57:46.312Z</time></trkpt><trkpt lat="43.8796655" lon="12.3915662"><ele>489.20000000000005</ele><time>2026-04-12T07:57:47.305Z</time></trkpt><trkpt lat="43.8797573" lon="12.3916188"><ele>487.8</ele><time>2026-04-12T07:57:48.3Z</time></trkpt><trkpt lat="43.8798534" lon="12.3916768"><ele>486.4</ele><time>2026-04-12T07:57:49.289Z</time></trkpt><trkpt lat="43.8799408" lon="12.3917207"><ele>485.0</ele><time>2026-04-12T07:57:50.29Z</time></trkpt><trkpt lat="43.8800322" lon="12.3917655"><ele>483.4</ele><time>2026-04-12T07:57:51.292Z</time></trkpt><trkpt lat="43.8801303" lon="12.3918212"><ele>481.8</ele><time>2026-04-12T07:57:52.305Z</time></trkpt><trkpt lat="43.8802184" lon="12.3918686"><ele>480.20000000000005</ele><time>2026-04-12T07:57:53.296Z</time></trkpt><trkpt lat="43.8803001" lon="12.3919381"><ele>478.6</ele><time>2026-04-12T07:57:54.303Z</time></trkpt><trkpt lat="43.8803694" lon="12.3920148"><ele>477.0</ele><time>2026-04-12T07:57:55.272Z</time></trkpt><trkpt lat="43.8804395" lon="12.3920842"><ele>477.0</ele><time>2026-04-12T07:57:56.29Z</time></trkpt><trkpt lat="43.8805066" lon="12.3921545"><ele>477.00000000000006</ele><time>2026-04-12T07:57:57.304Z</time></trkpt><trkpt lat="43.8805656" lon="12.3922346"><ele>477.00000000000006</ele><time>2026-04-12T07:57:58.278Z</time></trkpt><trkpt lat="43.8806153" lon="12.3923473"><ele>477.0</ele><time>2026-04-12T07:57:59.291Z</time></trkpt><trkpt lat="43.8806528" lon="12.39249"><ele>477.0</ele><time>2026-04-12T07:58:00.305Z</time></trkpt><trkpt lat="43.8807035" lon="12.39264"><ele>475.75</ele><time>2026-04-12T07:58:01.284Z</time></trkpt><trkpt lat="43.8807529" lon="12.3927863"><ele>474.5</ele><time>2026-04-12T07:58:02.285Z</time></trkpt><trkpt lat="43.8808083" lon="12.3929264"><ele>473.25</ele><time>2026-04-12T07:58:03.29Z</time></trkpt><trkpt lat="43.8808642" lon="12.393067"><ele>472.0</ele><time>2026-04-12T07:58:04.294Z</time></trkpt><trkpt lat="43.8809071" lon="12.3932151"><ele>469.25</ele><time>2026-04-12T07:58:05.291Z</time></trkpt><trkpt lat="43.8809464" lon="12.3933713"><ele>466.5</ele><time>2026-04-12T07:58:06.321Z</time></trkpt><trkpt lat="43.8809844" lon="12.3935229"><ele>463.75</ele><time>2026-04-12T07:58:07.28Z</time></trkpt><trkpt lat="43.8810157" lon="12.3936718"><ele>461.0</ele><time>2026-04-12T07:58:08.311Z</time></trkpt><trkpt lat="43.8810502" lon="12.3938067"><ele>459.99999999999994</ele><time>2026-04-12T07:58:09.28Z</time></trkpt><trkpt lat="43.8810738" lon="12.3939282"><ele>459.0</ele><time>2026-04-12T07:58:10.3Z</time></trkpt><trkpt lat="43.8810934" lon="12.3940161"><ele>458.0</ele><time>2026-04-12T07:58:11.31Z</time></trkpt><trkpt lat="43.8811414" lon="12.3941467"><ele>457.0</ele><time>2026-04-12T07:58:13.27Z</time></trkpt><trkpt lat="43.8812215" lon="12.3942118"><ele>455.99999999999994</ele><time>2026-04-12T07:58:15.286Z</time></trkpt><trkpt lat="43.8812986" lon="12.3941994"><ele>455.0</ele><time>2026-04-12T07:58:17.304Z</time></trkpt><trkpt lat="43.8813804" lon="12.3942056"><ele>454.99999999999994</ele><time>2026-04-12T07:58:19.288Z</time></trkpt><trkpt lat="43.8814726" lon="12.3942296"><ele>455.0</ele><time>2026-04-12T07:58:21.278Z</time></trkpt><trkpt lat="43.8815664" lon="12.3942585"><ele>455.0</ele><time>2026-04-12T07:58:23.297Z</time></trkpt><trkpt lat="43.8816336" lon="12.3942712"><ele>455.0</ele><time>2026-04-12T07:58:24.283Z</time></trkpt><trkpt lat="43.8817216" lon="12.3942666"><ele>454.99999999999994</ele><time>2026-04-12T07:58:25.291Z</time></trkpt><trkpt lat="43.8818016" lon="12.3942529"><ele>455.0</ele><time>2026-04-12T07:58:26.279Z</time></trkpt><trkpt lat="43.8818791" lon="12.394234"><ele>453.99999999999994</ele><time>2026-04-12T07:58:27.295Z</time></trkpt><trkpt lat="43.881962" lon="12.3942192"><ele>453.0</ele><time>2026-04-12T07:58:28.277Z</time></trkpt><trkpt lat="43.8820513" lon="12.3941949"><ele>452.0</ele><time>2026-04-12T07:58:29.26Z</time></trkpt><trkpt lat="43.8821392" lon="12.3941729"><ele>451.0</ele><time>2026-04-12T07:58:30.289Z</time></trkpt><trkpt lat="43.882224" lon="12.394162"><ele>449.99999999999994</ele><time>2026-04-12T07:58:31.3Z</time></trkpt><trkpt lat="43.8823108" lon="12.3941614"><ele>449.0</ele><time>2026-04-12T07:58:32.279Z</time></trkpt><trkpt lat="43.8823972" lon="12.3941717"><ele>448.99999999999994</ele><time>2026-04-12T07:58:33.293Z</time></trkpt><trkpt lat="43.8824834" lon="12.394186"><ele>449.0</ele><time>2026-04-12T07:58:34.264Z</time></trkpt><trkpt lat="43.8825635" lon="12.3942122"><ele>449.0</ele><time>2026-04-12T07:58:35.291Z</time></trkpt><trkpt lat="43.8826422" lon="12.39426"><ele>449.0</ele><time>2026-04-12T07:58:36.297Z</time></trkpt><trkpt lat="43.8827177" lon="12.3943211"><ele>448.99999999999994</ele><time>2026-04-12T07:58:37.278Z</time></trkpt><trkpt lat="43.8827977" lon="12.3943917"><ele>449.0</ele><time>2026-04-12T07:58:38.312Z</time></trkpt><trkpt lat="43.8828784" lon="12.3944537"><ele>447.79999999999995</ele><time>2026-04-12T07:58:39.3Z</time></trkpt><trkpt lat="43.8829562" lon="12.3945178"><ele>446.59999999999997</ele><time>2026-04-12T07:58:40.307Z</time></trkpt><trkpt lat="43.8830304" lon="12.3945884"><ele>445.4</ele><time>2026-04-12T07:58:41.294Z</time></trkpt><trkpt lat="43.8831136" lon="12.394678"><ele>444.2</ele><time>2026-04-12T07:58:42.315Z</time></trkpt><trkpt lat="43.8831966" lon="12.3947793"><ele>443.0</ele><time>2026-04-12T07:58:43.31Z</time></trkpt><trkpt lat="43.8832759" lon="12.3948676"><ele>441.4</ele><time>2026-04-12T07:58:44.294Z</time></trkpt><trkpt lat="43.8833555" lon="12.3949577"><ele>439.79999999999995</ele><time>2026-04-12T07:58:45.292Z</time></trkpt><trkpt lat="43.8834283" lon="12.3950476"><ele>438.2</ele><time>2026-04-12T07:58:46.293Z</time></trkpt><trkpt lat="43.883509" lon="12.3951357"><ele>436.6</ele><time>2026-04-12T07:58:47.288Z</time></trkpt><trkpt lat="43.883578" lon="12.3952333"><ele>435.0</ele><time>2026-04-12T07:58:48.267Z</time></trkpt><trkpt lat="43.8836591" lon="12.3953339"><ele>434.0</ele><time>2026-04-12T07:58:49.29Z</time></trkpt><trkpt lat="43.8837383" lon="12.3954405"><ele>433.0</ele><time>2026-04-12T07:58:50.286Z</time></trkpt><trkpt lat="43.8838268" lon="12.3955498"><ele>432.0</ele><time>2026-04-12T07:58:51.286Z</time></trkpt><trkpt lat="43.883925" lon="12.3956596"><ele>431.0</ele><time>2026-04-12T07:58:52.3Z</time></trkpt><trkpt lat="43.8840227" lon="12.3957845"><ele>428.0</ele><time>2026-04-12T07:58:53.308Z</time></trkpt><trkpt lat="43.8841189" lon="12.3959087"><ele>425.0</ele><time>2026-04-12T07:58:54.295Z</time></trkpt><trkpt lat="43.8842153" lon="12.3960246"><ele>422.0</ele><time>2026-04-12T07:58:55.272Z</time></trkpt><trkpt lat="43.8843089" lon="12.3961321"><ele>419.0</ele><time>2026-04-12T07:58:56.306Z</time></trkpt><trkpt lat="43.8844009" lon="12.396246"><ele>417.6</ele><time>2026-04-12T07:58:57.307Z</time></trkpt><trkpt lat="43.8844955" lon="12.3963487"><ele>416.2</ele><time>2026-04-12T07:58:58.308Z</time></trkpt><trkpt lat="43.8845893" lon="12.396446"><ele>414.8</ele><time>2026-04-12T07:58:59.295Z</time></trkpt><trkpt lat="43.8846767" lon="12.3965147"><ele>413.40000000000003</ele><time>2026-04-12T07:59:00.318Z</time></trkpt><trkpt lat="43.8847673" lon="12.3965656"><ele>412.0</ele><time>2026-04-12T07:59:01.283Z</time></trkpt><trkpt lat="43.8848568" lon="12.3966033"><ele>412.0</ele><time>2026-04-12T07:59:02.257Z</time></trkpt><trkpt lat="43.8849411" lon="12.3966233"><ele>412.0</ele><time>2026-04-12T07:59:03.266Z</time></trkpt><trkpt lat="43.8850158" lon="12.3966478"><ele>412.0</ele><time>2026-04-12T07:59:04.295Z</time></trkpt><trkpt lat="43.8851344" lon="12.3966729"><ele>412.0</ele><time>2026-04-12T07:59:06.279Z</time></trkpt><trkpt lat="43.885253" lon="12.3967078"><ele>412.0</ele><time>2026-04-12T07:59:08.3Z</time></trkpt><trkpt lat="43.8853178" lon="12.3967457"><ele>411.75</ele><time>2026-04-12T07:59:09.25Z</time></trkpt><trkpt lat="43.885428" lon="12.3968222"><ele>411.5</ele><time>2026-04-12T07:59:11.281Z</time></trkpt><trkpt lat="43.885537" lon="12.3969008"><ele>411.25</ele><time>2026-04-12T07:59:13.304Z</time></trkpt><trkpt lat="43.8856414" lon="12.3969472"><ele>411.0</ele><time>2026-04-12T07:59:15.306Z</time></trkpt><trkpt lat="43.8857502" lon="12.3969799"><ele>411.0</ele><time>2026-04-12T07:59:17.31Z</time></trkpt><trkpt lat="43.8858592" lon="12.3970091"><ele>411.0</ele><time>2026-04-12T07:59:19.281Z</time></trkpt><trkpt lat="43.8859825" lon="12.3970132"><ele>411.0</ele><time>2026-04-12T07:59:21.289Z</time></trkpt><trkpt lat="43.8860506" lon="12.3970209"><ele>411.0</ele><time>2026-04-12T07:59:22.284Z</time></trkpt><trkpt lat="43.8861178" lon="12.3970219"><ele>411.0</ele><time>2026-04-12T07:59:23.313Z</time></trkpt><trkpt lat="43.8862003" lon="12.3970339"><ele>409.4</ele><time>2026-04-12T07:59:24.297Z</time></trkpt><trkpt lat="43.8862963" lon="12.3970597"><ele>407.8</ele><time>2026-04-12T07:59:25.3Z</time></trkpt><trkpt lat="43.8863996" lon="12.3970806"><ele>406.2</ele><time>2026-04-12T07:59:26.287Z</time></trkpt><trkpt lat="43.8865125" lon="12.3971044"><ele>404.59999999999997</ele><time>2026-04-12T07:59:27.279Z</time></trkpt><trkpt lat="43.8866244" lon="12.3971288"><ele>403.0</ele><time>2026-04-12T07:59:28.28Z</time></trkpt><trkpt lat="43.8867392" lon="12.3971509"><ele>401.75</ele><time>2026-04-12T07:59:29.284Z</time></trkpt><trkpt lat="43.8868558" lon="12.3971681"><ele>400.5</ele><time>2026-04-12T07:59:30.289Z</time></trkpt><trkpt lat="43.8869702" lon="12.3971938"><ele>399.25</ele><time>2026-04-12T07:59:31.311Z</time></trkpt><trkpt lat="43.8870805" lon="12.3972283"><ele>398.0</ele><time>2026-04-12T07:59:32.308Z</time></trkpt><trkpt lat="43.8871832" lon="12.3972625"><ele>396.49999999999994</ele><time>2026-04-12T07:59:33.281Z</time></trkpt><trkpt lat="43.8872708" lon="12.3972857"><ele>395.0</ele><time>2026-04-12T07:59:34.289Z</time></trkpt><trkpt lat="43.8873451" lon="12.3972989"><ele>393.5</ele><time>2026-04-12T07:59:35.301Z</time></trkpt><trkpt lat="43.8874074" lon="12.3973204"><ele>392.0</ele><time>2026-04-12T07:59:36.29Z</time></trkpt><trkpt lat="43.8874794" lon="12.3974172"><ele>390.49999999999994</ele><time>2026-04-12T07:59:38.299Z</time></trkpt><trkpt lat="43.8874982" lon="12.3975436"><ele>389.0</ele><time>2026-04-12T07:59:40.283Z</time></trkpt><trkpt lat="43.887448" lon="12.3977126"><ele>388.99999999999994</ele><time>2026-04-12T07:59:42.276Z</time></trkpt><trkpt lat="43.8874246" lon="12.3978091"><ele>389.0</ele><time>2026-04-12T07:59:43.244Z</time></trkpt><trkpt lat="43.8874147" lon="12.3979174"><ele>389.0</ele><time>2026-04-12T07:59:44.288Z</time></trkpt><trkpt lat="43.8874174" lon="12.3980291"><ele>389.0</ele><time>2026-04-12T07:59:45.272Z</time></trkpt><trkpt lat="43.887434" lon="12.398148"><ele>388.99999999999994</ele><time>2026-04-12T07:59:46.257Z</time></trkpt><trkpt lat="43.8874644" lon="12.3982633"><ele>389.0</ele><time>2026-04-12T07:59:47.297Z</time></trkpt><trkpt lat="43.8874927" lon="12.3983733"><ele>386.99999999999994</ele><time>2026-04-12T07:59:48.297Z</time></trkpt><trkpt lat="43.8875186" lon="12.3984847"><ele>385.0</ele><time>2026-04-12T07:59:49.294Z</time></trkpt><trkpt lat="43.8875414" lon="12.3986088"><ele>383.0</ele><time>2026-04-12T07:59:50.287Z</time></trkpt><trkpt lat="43.887562" lon="12.3987243"><ele>381.0</ele><time>2026-04-12T07:59:51.277Z</time></trkpt><trkpt lat="43.887564" lon="12.398825"><ele>379.0</ele><time>2026-04-12T07:59:52.267Z</time></trkpt><trkpt lat="43.8875467" lon="12.398922"><ele>377.0</ele><time>2026-04-12T07:59:53.293Z</time></trkpt><trkpt lat="43.8875125" lon="12.3990132"><ele>374.6666666666667</ele><time>2026-04-12T07:59:54.295Z</time></trkpt><trkpt lat="43.8874586" lon="12.3990954"><ele>372.33333333333337</ele><time>2026-04-12T07:59:55.295Z</time></trkpt><trkpt lat="43.887379" lon="12.3991427"><ele>370.0</ele><time>2026-04-12T07:59:56.298Z</time></trkpt><trkpt lat="43.8873009" lon="12.3991712"><ele>367.6666666666667</ele><time>2026-04-12T07:59:57.298Z</time></trkpt><trkpt lat="43.887228" lon="12.3992018"><ele>365.3333333333333</ele><time>2026-04-12T07:59:58.264Z</time></trkpt><trkpt lat="43.8871493" lon="12.3992252"><ele>363.0</ele><time>2026-04-12T07:59:59.295Z</time></trkpt><trkpt lat="43.8870691" lon="12.3992543"><ele>362.99999999999994</ele><time>2026-04-12T08:00:00.3Z</time></trkpt><trkpt lat="43.8869957" lon="12.3992818"><ele>363.0</ele><time>2026-04-12T08:00:01.285Z</time></trkpt><trkpt lat="43.8869246" lon="12.3993106"><ele>363.0</ele><time>2026-04-12T08:00:02.308Z</time></trkpt><trkpt lat="43.8868613" lon="12.3993432"><ele>363.0</ele><time>2026-04-12T08:00:03.313Z</time></trkpt><trkpt lat="43.8868001" lon="12.3993909"><ele>363.0</ele><time>2026-04-12T08:00:04.318Z</time></trkpt><trkpt lat="43.8867444" lon="12.3994386"><ele>362.99999999999994</ele><time>2026-04-12T08:00:05.295Z</time></trkpt><trkpt lat="43.8867064" lon="12.3995109"><ele>363.0</ele><time>2026-04-12T08:00:06.272Z</time></trkpt><trkpt lat="43.8867142" lon="12.3995976"><ele>361.71428571428567</ele><time>2026-04-12T08:00:07.315Z</time></trkpt><trkpt lat="43.8867387" lon="12.3996944"><ele>360.42857142857144</ele><time>2026-04-12T08:00:08.282Z</time></trkpt><trkpt lat="43.8867815" lon="12.3997804"><ele>359.1428571428571</ele><time>2026-04-12T08:00:09.296Z</time></trkpt><trkpt lat="43.8868296" lon="12.3998387"><ele>357.85714285714283</ele><time>2026-04-12T08:00:10.282Z</time></trkpt><trkpt lat="43.8868949" lon="12.3998856"><ele>356.57142857142856</ele><time>2026-04-12T08:00:11.289Z</time></trkpt><trkpt lat="43.8869614" lon="12.399918"><ele>355.2857142857143</ele><time>2026-04-12T08:00:12.277Z</time></trkpt><trkpt lat="43.8870239" lon="12.399943"><ele>354.0</ele><time>2026-04-12T08:00:13.26Z</time></trkpt><trkpt lat="43.8871041" lon="12.4000356"><ele>354.0</ele><time>2026-04-12T08:00:15.286Z</time></trkpt><trkpt lat="43.8870817" lon="12.4001788"><ele>354.0</ele><time>2026-04-12T08:00:17.291Z</time></trkpt><trkpt lat="43.8870032" lon="12.4002761"><ele>354.0</ele><time>2026-04-12T08:00:19.293Z</time></trkpt><trkpt lat="43.886887" lon="12.4003065"><ele>354.0</ele><time>2026-04-12T08:00:21.268Z</time></trkpt><trkpt lat="43.886752" lon="12.4003"><ele>354.0</ele><time>2026-04-12T08:00:23.251Z</time></trkpt><trkpt lat="43.88668" lon="12.4002733"><ele>354.0</ele><time>2026-04-12T08:00:24.297Z</time></trkpt><trkpt lat="43.886611" lon="12.4002633"><ele>354.0</ele><time>2026-04-12T08:00:25.29Z</time></trkpt><trkpt lat="43.8865118" lon="12.4003414"><ele>354.0</ele><time>2026-04-12T08:00:27.289Z</time></trkpt><trkpt lat="43.8864867" lon="12.4004831"><ele>354.0</ele><time>2026-04-12T08:00:29.279Z</time></trkpt><trkpt lat="43.8865235" lon="12.4006279"><ele>351.0</ele><time>2026-04-12T08:00:31.3Z</time></trkpt><trkpt lat="43.8866143" lon="12.4007152"><ele>348.0</ele><time>2026-04-12T08:00:33.281Z</time></trkpt><trkpt lat="43.88674" lon="12.4007325"><ele>345.0</ele><time>2026-04-12T08:00:35.295Z</time></trkpt><trkpt lat="43.8868077" lon="12.4007226"><ele>342.0</ele><time>2026-04-12T08:00:36.273Z</time></trkpt><trkpt lat="43.8869297" lon="12.4006868"><ele>339.0</ele><time>2026-04-12T08:00:38.287Z</time></trkpt><trkpt lat="43.8869993" lon="12.4007133"><ele>338.0</ele><time>2026-04-12T08:00:39.274Z</time></trkpt><trkpt lat="43.8870633" lon="12.4007733"><ele>337.0</ele><time>2026-04-12T08:00:40.273Z</time></trkpt><trkpt lat="43.8871172" lon="12.4008597"><ele>336.0</ele><time>2026-04-12T08:00:41.282Z</time></trkpt><trkpt lat="43.8871562" lon="12.4009634"><ele>335.0</ele><time>2026-04-12T08:00:42.288Z</time></trkpt><trkpt lat="43.8871792" lon="12.401065"><ele>334.0</ele><time>2026-04-12T08:00:43.291Z</time></trkpt><trkpt lat="43.8872056" lon="12.4011614"><ele>333.0</ele><time>2026-04-12T08:00:44.248Z</time></trkpt><trkpt lat="43.8872387" lon="12.4012517"><ele>333.14285714285717</ele><time>2026-04-12T08:00:45.296Z</time></trkpt><trkpt lat="43.8872667" lon="12.4013475"><ele>333.2857142857143</ele><time>2026-04-12T08:00:46.296Z</time></trkpt><trkpt lat="43.8872915" lon="12.4014433"><ele>333.42857142857144</ele><time>2026-04-12T08:00:47.291Z</time></trkpt><trkpt lat="43.8873228" lon="12.4015297"><ele>333.57142857142856</ele><time>2026-04-12T08:00:48.295Z</time></trkpt><trkpt lat="43.8873537" lon="12.4016216"><ele>333.7142857142857</ele><time>2026-04-12T08:00:49.293Z</time></trkpt><trkpt lat="43.8873808" lon="12.4017126"><ele>333.85714285714283</ele><time>2026-04-12T08:00:50.268Z</time></trkpt><trkpt lat="43.8874029" lon="12.4018046"><ele>334.0</ele><time>2026-04-12T08:00:51.289Z</time></trkpt><trkpt lat="43.8874317" lon="12.401898"><ele>334.0</ele><time>2026-04-12T08:00:52.293Z</time></trkpt><trkpt lat="43.8874816" lon="12.4020539"><ele>334.0</ele><time>2026-04-12T08:00:54.292Z</time></trkpt><trkpt lat="43.887514" lon="12.4021966"><ele>334.0</ele><time>2026-04-12T08:00:56.309Z</time></trkpt><trkpt lat="43.8875316" lon="12.4023055"><ele>334.0</ele><time>2026-04-12T08:00:58.3Z</time></trkpt><trkpt lat="43.8875479" lon="12.4024103"><ele>334.0</ele><time>2026-04-12T08:01:01.293Z</time></trkpt><trkpt lat="43.887533" lon="12.4024969"><ele>335.2857142857143</ele><time>2026-04-12T08:01:05.289Z</time></trkpt><trkpt lat="43.8875093" lon="12.402592"><ele>336.57142857142856</ele><time>2026-04-12T08:01:11.281Z</time></trkpt><trkpt lat="43.8874822" lon="12.4026817"><ele>337.8571428571429</ele><time>2026-04-12T08:01:16.262Z</time></trkpt><trkpt lat="43.8874563" lon="12.4027651"><ele>339.1428571428571</ele><time>2026-04-12T08:01:20.291Z</time></trkpt><trkpt lat="43.8874236" lon="12.4028538"><ele>340.42857142857144</ele><time>2026-04-12T08:01:24.295Z</time></trkpt><trkpt lat="43.8874057" lon="12.4029384"><ele>341.7142857142857</ele><time>2026-04-12T08:01:29.291Z</time></trkpt><trkpt lat="43.8873643" lon="12.4030217"><ele>343.0</ele><time>2026-04-12T08:02:29.277Z</time></trkpt><trkpt lat="43.8873297" lon="12.403104"><ele>344.57142857142856</ele><time>2026-04-12T08:02:35.289Z</time></trkpt><trkpt lat="43.8872911" lon="12.4031839"><ele>346.1428571428571</ele><time>2026-04-12T08:02:40.288Z</time></trkpt><trkpt lat="43.8872573" lon="12.4032685"><ele>347.7142857142857</ele><time>2026-04-12T08:02:46.285Z</time></trkpt><trkpt lat="43.8872184" lon="12.4033438"><ele>349.2857142857143</ele><time>2026-04-12T08:02:52.286Z</time></trkpt><trkpt lat="43.887181" lon="12.4034257"><ele>350.85714285714283</ele><time>2026-04-12T08:02:58.284Z</time></trkpt><trkpt lat="43.8871566" lon="12.4035076"><ele>352.42857142857144</ele><time>2026-04-12T08:03:03.267Z</time></trkpt><trkpt lat="43.8871341" lon="12.403596"><ele>354.0</ele><time>2026-04-12T08:03:08.306Z</time></trkpt><trkpt lat="43.8871047" lon="12.4036941"><ele>354.0</ele><time>2026-04-12T08:03:13.289Z</time></trkpt><trkpt lat="43.887089" lon="12.4038033"><ele>354.0</ele><time>2026-04-12T08:03:18.286Z</time></trkpt><trkpt lat="43.8871028" lon="12.4039062"><ele>354.0</ele><time>2026-04-12T08:03:22.283Z</time></trkpt><trkpt lat="43.8871229" lon="12.4039977"><ele>354.0</ele><time>2026-04-12T08:03:26.264Z</time></trkpt><trkpt lat="43.8871698" lon="12.4040694"><ele>354.0</ele><time>2026-04-12T08:03:30.244Z</time></trkpt><trkpt lat="43.8872256" lon="12.4041253"><ele>354.0</ele><time>2026-04-12T08:03:34.28Z</time></trkpt><trkpt lat="43.887296" lon="12.4041763"><ele>354.0</ele><time>2026-04-12T08:03:39.256Z</time></trkpt><trkpt lat="43.8873633" lon="12.4042011"><ele>355.6666666666667</ele><time>2026-04-12T08:03:44.263Z</time></trkpt><trkpt lat="43.8874291" lon="12.4042093"><ele>357.3333333333333</ele><time>2026-04-12T08:03:49.287Z</time></trkpt><trkpt lat="43.8874972" lon="12.404239"><ele>359.0</ele><time>2026-04-12T08:03:54.286Z</time></trkpt><trkpt lat="43.8875737" lon="12.4042701"><ele>360.66666666666663</ele><time>2026-04-12T08:03:59.274Z</time></trkpt><trkpt lat="43.8876567" lon="12.4042951"><ele>362.3333333333333</ele><time>2026-04-12T08:04:03.298Z</time></trkpt><trkpt lat="43.8877239" lon="12.4043007"><ele>364.0</ele><time>2026-04-12T08:04:05.295Z</time></trkpt><trkpt lat="43.8878152" lon="12.4043242"><ele>364.0</ele><time>2026-04-12T08:04:07.305Z</time></trkpt><trkpt lat="43.8879211" lon="12.4043745"><ele>364.0</ele><time>2026-04-12T08:04:09.294Z</time></trkpt><trkpt lat="43.8880179" lon="12.4044432"><ele>364.0</ele><time>2026-04-12T08:04:11.287Z</time></trkpt><trkpt lat="43.8881088" lon="12.4045081"><ele>364.0</ele><time>2026-04-12T08:04:13.285Z</time></trkpt><trkpt lat="43.8881872" lon="12.4045576"><ele>364.0</ele><time>2026-04-12T08:04:15.295Z</time></trkpt><trkpt lat="43.8882591" lon="12.4045973"><ele>364.0</ele><time>2026-04-12T08:04:17.257Z</time></trkpt><trkpt lat="43.8883533" lon="12.4046343"><ele>364.0</ele><time>2026-04-12T08:04:19.315Z</time></trkpt><trkpt lat="43.8884549" lon="12.4046696"><ele>364.0</ele><time>2026-04-12T08:04:21.309Z</time></trkpt><trkpt lat="43.8885167" lon="12.404687"><ele>364.0</ele><time>2026-04-12T08:04:22.287Z</time></trkpt><trkpt lat="43.8886336" lon="12.4047037"><ele>364.0</ele><time>2026-04-12T08:04:24.295Z</time></trkpt><trkpt lat="43.8887366" lon="12.4047241"><ele>364.66666666666663</ele><time>2026-04-12T08:04:26.279Z</time></trkpt><trkpt lat="43.8888171" lon="12.4047363"><ele>365.3333333333333</ele><time>2026-04-12T08:04:29.295Z</time></trkpt><trkpt lat="43.8888947" lon="12.4047611"><ele>366.0</ele><time>2026-04-12T08:04:32.29Z</time></trkpt><trkpt lat="43.8875737" lon="12.4042701"><ele>365.6</ele><time>2026-04-12T08:03:59.274Z</time></trkpt><trkpt lat="43.8876567" lon="12.4042951"><ele>365.20000000000005</ele><time>2026-04-12T08:04:03.298Z</time></trkpt><trkpt lat="43.8877239" lon="12.4043007"><ele>364.79999999999995</ele><time>2026-04-12T08:04:05.295Z</time></trkpt><trkpt lat="43.8878152" lon="12.4043242"><ele>364.4</ele><time>2026-04-12T08:04:07.305Z</time></trkpt><trkpt lat="43.8879211" lon="12.4043745"><ele>364.0</ele><time>2026-04-12T08:04:09.294Z</time></trkpt><trkpt lat="43.8880179" lon="12.4044432"><ele>364.0</ele><time>2026-04-12T08:04:11.287Z</time></trkpt><trkpt lat="43.8881088" lon="12.4045081"><ele>364.0</ele><time>2026-04-12T08:04:13.285Z</time></trkpt><trkpt lat="43.8881872" lon="12.4045576"><ele>364.0</ele><time>2026-04-12T08:04:15.295Z</time></trkpt><trkpt lat="43.8882591" lon="12.4045973"><ele>364.0</ele><time>2026-04-12T08:04:17.257Z</time></trkpt><trkpt lat="43.8883533" lon="12.4046343"><ele>364.0</ele><time>2026-04-12T08:04:19.315Z</time></trkpt><trkpt lat="43.8884549" lon="12.4046696"><ele>366.3333333333333</ele><time>2026-04-12T08:04:21.309Z</time></trkpt><trkpt lat="43.8885167" lon="12.404687"><ele>368.66666666666663</ele><time>2026-04-12T08:04:22.287Z</time></trkpt><trkpt lat="43.8886336" lon="12.4047037"><ele>371.0</ele><time>2026-04-12T08:04:24.295Z</time></trkpt><trkpt lat="43.8887366" lon="12.4047241"><ele>373.3333333333333</ele><time>2026-04-12T08:04:26.279Z</time></trkpt><trkpt lat="43.8888171" lon="12.4047363"><ele>375.6666666666667</ele><time>2026-04-12T08:04:29.295Z</time></trkpt><trkpt lat="43.8888947" lon="12.4047611"><ele>378.0</ele><time>2026-04-12T08:04:32.29Z</time></trkpt><trkpt lat="43.888966" lon="12.4047781"><ele>378.0</ele><time>2026-04-12T08:04:35.3Z</time></trkpt><trkpt lat="43.889035" lon="12.4047712"><ele>378.0</ele><time>2026-04-12T08:04:38.293Z</time></trkpt><trkpt lat="43.8890994" lon="12.4047639"><ele>378.0</ele><time>2026-04-12T08:04:41.27Z</time></trkpt><trkpt lat="43.8891815" lon="12.4047709"><ele>378.0</ele><time>2026-04-12T08:04:45.26Z</time></trkpt><trkpt lat="43.8892457" lon="12.404794"><ele>378.0</ele><time>2026-04-12T08:04:47.264Z</time></trkpt><trkpt lat="43.8893307" lon="12.4047801"><ele>378.0</ele><time>2026-04-12T08:04:49.291Z</time></trkpt><trkpt lat="43.8894011" lon="12.404753"><ele>378.0</ele><time>2026-04-12T08:04:50.287Z</time></trkpt><trkpt lat="43.8894696" lon="12.4047261"><ele>378.1666666666667</ele><time>2026-04-12T08:04:51.294Z</time></trkpt><trkpt lat="43.8895421" lon="12.4046881"><ele>378.3333333333333</ele><time>2026-04-12T08:04:52.291Z</time></trkpt><trkpt lat="43.8896224" lon="12.4046538"><ele>378.5</ele><time>2026-04-12T08:04:53.288Z</time></trkpt><trkpt lat="43.8897068" lon="12.4046329"><ele>378.66666666666663</ele><time>2026-04-12T08:04:54.287Z</time></trkpt><trkpt lat="43.8897875" lon="12.4046189"><ele>378.8333333333333</ele><time>2026-04-12T08:04:55.269Z</time></trkpt><trkpt lat="43.8898609" lon="12.4046309"><ele>379.0</ele><time>2026-04-12T08:04:56.276Z</time></trkpt><trkpt lat="43.8899201" lon="12.4046662"><ele>379.0</ele><time>2026-04-12T08:04:57.29Z</time></trkpt><trkpt lat="43.8899596" lon="12.4047579"><ele>379.0</ele><time>2026-04-12T08:04:59.246Z</time></trkpt><trkpt lat="43.8899457" lon="12.4048765"><ele>379.0</ele><time>2026-04-12T08:05:01.278Z</time></trkpt><trkpt lat="43.8899283" lon="12.4049859"><ele>379.0</ele><time>2026-04-12T08:05:03.28Z</time></trkpt><trkpt lat="43.8899076" lon="12.4050906"><ele>379.0</ele><time>2026-04-12T08:05:05.295Z</time></trkpt><trkpt lat="43.8898864" lon="12.4051873"><ele>379.0</ele><time>2026-04-12T08:05:07.29Z</time></trkpt><trkpt lat="43.8898753" lon="12.4052783"><ele>379.00000000000006</ele><time>2026-04-12T08:05:10.258Z</time></trkpt><trkpt lat="43.8898731" lon="12.4053742"><ele>379.0</ele><time>2026-04-12T08:05:14.286Z</time></trkpt><trkpt lat="43.889866" lon="12.4054799"><ele>379.0</ele><time>2026-04-12T08:05:19.296Z</time></trkpt><trkpt lat="43.8898449" lon="12.4055712"><ele>379.0</ele><time>2026-04-12T08:05:24.29Z</time></trkpt><trkpt lat="43.8898369" lon="12.4056728"><ele>379.0</ele><time>2026-04-12T08:05:28.275Z</time></trkpt><trkpt lat="43.8898357" lon="12.4057737"><ele>379.00000000000006</ele><time>2026-04-12T08:05:32.277Z</time></trkpt><trkpt lat="43.8898784" lon="12.4058616"><ele>379.0</ele><time>2026-04-12T08:05:36.279Z</time></trkpt><trkpt lat="43.8899297" lon="12.40593"><ele>380.42857142857144</ele><time>2026-04-12T08:05:40.281Z</time></trkpt><trkpt lat="43.8899989" lon="12.4059651"><ele>381.8571428571429</ele><time>2026-04-12T08:05:45.282Z</time></trkpt><trkpt lat="43.890066" lon="12.4059416"><ele>383.28571428571433</ele><time>2026-04-12T08:05:49.26Z</time></trkpt><trkpt lat="43.8901328" lon="12.4058973"><ele>384.7142857142857</ele><time>2026-04-12T08:05:53.284Z</time></trkpt><trkpt lat="43.8901926" lon="12.4058538"><ele>386.1428571428571</ele><time>2026-04-12T08:05:57.278Z</time></trkpt><trkpt lat="43.8902559" lon="12.4057791"><ele>387.5714285714286</ele><time>2026-04-12T08:06:01.271Z</time></trkpt><trkpt lat="43.8903168" lon="12.4057288"><ele>389.0</ele><time>2026-04-12T08:06:05.288Z</time></trkpt><trkpt lat="43.8903734" lon="12.4056822"><ele>391.0</ele><time>2026-04-12T08:06:09.28Z</time></trkpt><trkpt lat="43.8904336" lon="12.4056169"><ele>393.0</ele><time>2026-04-12T08:06:13.293Z</time></trkpt><trkpt lat="43.8904855" lon="12.4055671"><ele>395.0</ele><time>2026-04-12T08:06:16.288Z</time></trkpt><trkpt lat="43.8905502" lon="12.4055229"><ele>397.0</ele><time>2026-04-12T08:06:20.284Z</time></trkpt><trkpt lat="43.8906164" lon="12.4055355"><ele>399.0</ele><time>2026-04-12T08:06:25.286Z</time></trkpt><trkpt lat="43.8906735" lon="12.4055826"><ele>401.0</ele><time>2026-04-12T08:06:33.281Z</time></trkpt><trkpt lat="43.8906555" lon="12.4056844"><ele>403.0</ele><time>2026-04-12T08:06:40.242Z</time></trkpt><trkpt lat="43.8906201" lon="12.4057577"><ele>403.0</ele><time>2026-04-12T08:06:46.274Z</time></trkpt><trkpt lat="43.8905889" lon="12.4058459"><ele>403.0</ele><time>2026-04-12T08:06:52.281Z</time></trkpt><trkpt lat="43.8905632" lon="12.4059494"><ele>403.0</ele><time>2026-04-12T08:06:58.284Z</time></trkpt><trkpt lat="43.8905477" lon="12.4060408"><ele>403.0</ele><time>2026-04-12T08:07:02.275Z</time></trkpt><trkpt lat="43.8905668" lon="12.40614"><ele>403.0</ele><time>2026-04-12T08:07:07.284Z</time></trkpt><trkpt lat="43.8906156" lon="12.4062001"><ele>403.0</ele><time>2026-04-12T08:07:11.28Z</time></trkpt><trkpt lat="43.8906873" lon="12.4062383"><ele>403.0</ele><time>2026-04-12T08:07:18.268Z</time></trkpt><trkpt lat="43.8907547" lon="12.4062175"><ele>403.0</ele><time>2026-04-12T08:07:23.285Z</time></trkpt><trkpt lat="43.8908284" lon="12.4062002"><ele>403.0</ele><time>2026-04-12T08:07:28.273Z</time></trkpt><trkpt lat="43.8909014" lon="12.406175"><ele>403.0</ele><time>2026-04-12T08:07:33.28Z</time></trkpt><trkpt lat="43.8909748" lon="12.4061647"><ele>403.0</ele><time>2026-04-12T08:07:38.267Z</time></trkpt><trkpt lat="43.891036" lon="12.4061894"><ele>403.0</ele><time>2026-04-12T08:07:43.28Z</time></trkpt><trkpt lat="43.8910953" lon="12.4062438"><ele>403.0</ele><time>2026-04-12T08:07:49.278Z</time></trkpt><trkpt lat="43.8911206" lon="12.4063256"><ele>403.0</ele><time>2026-04-12T08:07:55.295Z</time></trkpt><trkpt lat="43.8911089" lon="12.4064171"><ele>405.2857142857143</ele><time>2026-04-12T08:08:00.261Z</time></trkpt><trkpt lat="43.891066" lon="12.4065065"><ele>407.57142857142856</ele><time>2026-04-12T08:08:06.282Z</time></trkpt><trkpt lat="43.8910216" lon="12.4065831"><ele>409.85714285714283</ele><time>2026-04-12T08:08:12.276Z</time></trkpt><trkpt lat="43.8909911" lon="12.4066747"><ele>412.1428571428571</ele><time>2026-04-12T08:08:18.273Z</time></trkpt><trkpt lat="43.8909642" lon="12.4067615"><ele>414.42857142857144</ele><time>2026-04-12T08:08:24.285Z</time></trkpt><trkpt lat="43.8909388" lon="12.4068518"><ele>416.71428571428567</ele><time>2026-04-12T08:08:30.26Z</time></trkpt><trkpt lat="43.8909046" lon="12.4069399"><ele>419.0</ele><time>2026-04-12T08:08:36.276Z</time></trkpt><trkpt lat="43.890873" lon="12.40703"><ele>418.99999999999994</ele><time>2026-04-12T08:08:43.281Z</time></trkpt><trkpt lat="43.8908321" lon="12.4071102"><ele>419.0</ele><time>2026-04-12T08:08:49.287Z</time></trkpt><trkpt lat="43.8908011" lon="12.4072002"><ele>419.0</ele><time>2026-04-12T08:08:54.292Z</time></trkpt><trkpt lat="43.8907767" lon="12.4072819"><ele>419.0</ele><time>2026-04-12T08:08:59.265Z</time></trkpt><trkpt lat="43.8907524" lon="12.4073783"><ele>419.0</ele><time>2026-04-12T08:09:05.283Z</time></trkpt><trkpt lat="43.8907391" lon="12.4074696"><ele>418.99999999999994</ele><time>2026-04-12T08:09:11.299Z</time></trkpt><trkpt lat="43.8907129" lon="12.4075598"><ele>419.0</ele><time>2026-04-12T08:09:17.269Z</time></trkpt><trkpt lat="43.8906943" lon="12.4076516"><ele>421.99999999999994</ele><time>2026-04-12T08:09:23.284Z</time></trkpt><trkpt lat="43.8906811" lon="12.4077505"><ele>425.0</ele><time>2026-04-12T08:09:30.254Z</time></trkpt><trkpt lat="43.8906592" lon="12.4078342"><ele>428.0</ele><time>2026-04-12T08:09:36.28Z</time></trkpt><trkpt lat="43.8906593" lon="12.4079247"><ele>431.0</ele><time>2026-04-12T08:09:41.292Z</time></trkpt><trkpt lat="43.8906666" lon="12.4080267"><ele>434.0</ele><time>2026-04-12T08:09:46.263Z</time></trkpt><trkpt lat="43.8906938" lon="12.4081302"><ele>436.99999999999994</ele><time>2026-04-12T08:09:51.28Z</time></trkpt><trkpt lat="43.8907333" lon="12.4082043"><ele>440.0</ele><time>2026-04-12T08:09:55.291Z</time></trkpt><trkpt lat="43.8907904" lon="12.4082457"><ele>441.57142857142856</ele><time>2026-04-12T08:10:00.286Z</time></trkpt><trkpt lat="43.8908585" lon="12.408252"><ele>443.1428571428571</ele><time>2026-04-12T08:10:04.301Z</time></trkpt><trkpt lat="43.8908679" lon="12.4083568"><ele>444.71428571428567</ele><time>2026-04-12T08:10:11.275Z</time></trkpt><trkpt lat="43.8908265" lon="12.4084256"><ele>446.2857142857143</ele><time>2026-04-12T08:10:15.284Z</time></trkpt><trkpt lat="43.8907772" lon="12.4084927"><ele>447.8571428571429</ele><time>2026-04-12T08:10:19.279Z</time></trkpt><trkpt lat="43.8907434" lon="12.4085727"><ele>449.4285714285714</ele><time>2026-04-12T08:10:23.268Z</time></trkpt><trkpt lat="43.8907134" lon="12.408675"><ele>451.0</ele><time>2026-04-12T08:10:28.262Z</time></trkpt><trkpt lat="43.890677" lon="12.4087648"><ele>452.57142857142856</ele><time>2026-04-12T08:10:33.286Z</time></trkpt><trkpt lat="43.8906645" lon="12.4088529"><ele>454.14285714285717</ele><time>2026-04-12T08:10:37.263Z</time></trkpt><trkpt lat="43.8906405" lon="12.408938"><ele>455.7142857142857</ele><time>2026-04-12T08:10:41.279Z</time></trkpt><trkpt lat="43.8906226" lon="12.4090301"><ele>457.2857142857143</ele><time>2026-04-12T08:10:46.286Z</time></trkpt><trkpt lat="43.8906055" lon="12.4091288"><ele>458.8571428571429</ele><time>2026-04-12T08:10:51.259Z</time></trkpt><trkpt lat="43.8905819" lon="12.409227"><ele>460.42857142857144</ele><time>2026-04-12T08:10:56.274Z</time></trkpt><trkpt lat="43.8905495" lon="12.4093129"><ele>462.0</ele><time>2026-04-12T08:11:02.275Z</time></trkpt><trkpt lat="43.8905173" lon="12.409396"><ele>462.0</ele><time>2026-04-12T08:11:07.289Z</time></trkpt><trkpt lat="43.890482" lon="12.4094779"><ele>462.0</ele><time>2026-04-12T08:11:11.284Z</time></trkpt><trkpt lat="43.8904509" lon="12.409563"><ele>462.0</ele><time>2026-04-12T08:11:19.28Z</time></trkpt><trkpt lat="43.8904186" lon="12.4096511"><ele>462.0</ele><time>2026-04-12T08:11:24.295Z</time></trkpt><trkpt lat="43.8903941" lon="12.4097384"><ele>462.0</ele><time>2026-04-12T08:11:29.262Z</time></trkpt><trkpt lat="43.8903688" lon="12.4098303"><ele>462.0</ele><time>2026-04-12T08:11:35.287Z</time></trkpt><trkpt lat="43.8903428" lon="12.4099285"><ele>462.0</ele><time>2026-04-12T08:11:40.261Z</time></trkpt><trkpt lat="43.8903301" lon="12.4100141"><ele>464.2857142857143</ele><time>2026-04-12T08:11:44.279Z</time></trkpt><trkpt lat="43.8903143" lon="12.4101037"><ele>466.57142857142856</ele><time>2026-04-12T08:11:50.244Z</time></trkpt><trkpt lat="43.8902952" lon="12.4101888"><ele>468.8571428571429</ele><time>2026-04-12T08:11:55.279Z</time></trkpt><trkpt lat="43.8902726" lon="12.4102768"><ele>471.14285714285717</ele><time>2026-04-12T08:12:00.275Z</time></trkpt><trkpt lat="43.8902587" lon="12.410365"><ele>473.42857142857144</ele><time>2026-04-12T08:12:05.28Z</time></trkpt><trkpt lat="43.8902382" lon="12.4104574"><ele>475.7142857142858</ele><time>2026-04-12T08:12:10.279Z</time></trkpt><trkpt lat="43.890224" lon="12.410549"><ele>478.00000000000006</ele><time>2026-04-12T08:12:14.3Z</time></trkpt><trkpt lat="43.8902069" lon="12.4106592"><ele>479.33333333333337</ele><time>2026-04-12T08:12:17.28Z</time></trkpt><trkpt lat="43.8902019" lon="12.4107796"><ele>480.6666666666667</ele><time>2026-04-12T08:12:20.312Z</time></trkpt><trkpt lat="43.8902072" lon="12.410877"><ele>482.0</ele><time>2026-04-12T08:12:23.283Z</time></trkpt><trkpt lat="43.8902358" lon="12.410985"><ele>483.33333333333337</ele><time>2026-04-12T08:12:27.264Z</time></trkpt><trkpt lat="43.8902598" lon="12.4110942"><ele>484.6666666666667</ele><time>2026-04-12T08:12:31.287Z</time></trkpt><trkpt lat="43.8902884" lon="12.4112002"><ele>486.0</ele><time>2026-04-12T08:12:35.289Z</time></trkpt><trkpt lat="43.8903109" lon="12.4112911"><ele>486.85714285714283</ele><time>2026-04-12T08:12:38.315Z</time></trkpt><trkpt lat="43.8903416" lon="12.4113954"><ele>487.7142857142858</ele><time>2026-04-12T08:12:41.289Z</time></trkpt><trkpt lat="43.8903601" lon="12.4114845"><ele>488.5714285714286</ele><time>2026-04-12T08:12:44.267Z</time></trkpt><trkpt lat="43.8903874" lon="12.4115905"><ele>489.42857142857144</ele><time>2026-04-12T08:12:48.267Z</time></trkpt><trkpt lat="43.8904157" lon="12.4116753"><ele>490.28571428571433</ele><time>2026-04-12T08:12:52.295Z</time></trkpt><trkpt lat="43.8904429" lon="12.4117562"><ele>491.1428571428572</ele><time>2026-04-12T08:12:56.269Z</time></trkpt><trkpt lat="43.890486" lon="12.4118588"><ele>492.00000000000006</ele><time>2026-04-12T08:13:00.28Z</time></trkpt><trkpt lat="43.8905138" lon="12.4119393"><ele>492.00000000000006</ele><time>2026-04-12T08:13:03.29Z</time></trkpt><trkpt lat="43.8905459" lon="12.4120411"><ele>492.0</ele><time>2026-04-12T08:13:07.297Z</time></trkpt><trkpt lat="43.8905795" lon="12.4121254"><ele>492.00000000000006</ele><time>2026-04-12T08:13:11.3Z</time></trkpt><trkpt lat="43.8906301" lon="12.4122144"><ele>492.00000000000006</ele><time>2026-04-12T08:13:16.29Z</time></trkpt><trkpt lat="43.8906843" lon="12.4122777"><ele>492.0</ele><time>2026-04-12T08:13:21.284Z</time></trkpt><trkpt lat="43.8907385" lon="12.4123404"><ele>492.00000000000006</ele><time>2026-04-12T08:13:27.259Z</time></trkpt><trkpt lat="43.8908017" lon="12.4123918"><ele>492.00000000000006</ele><time>2026-04-12T08:13:33.292Z</time></trkpt><trkpt lat="43.8908587" lon="12.4124296"><ele>493.4285714285715</ele><time>2026-04-12T08:13:37.293Z</time></trkpt><trkpt lat="43.8909272" lon="12.4124601"><ele>494.8571428571429</ele><time>2026-04-12T08:13:42.291Z</time></trkpt><trkpt lat="43.8909932" lon="12.4124919"><ele>496.2857142857143</ele><time>2026-04-12T08:13:48.284Z</time></trkpt><trkpt lat="43.8910577" lon="12.4125217"><ele>497.7142857142857</ele><time>2026-04-12T08:13:54.28Z</time></trkpt><trkpt lat="43.8911204" lon="12.4125605"><ele>499.1428571428571</ele><time>2026-04-12T08:13:59.251Z</time></trkpt><trkpt lat="43.8911751" lon="12.4126054"><ele>500.5714285714285</ele><time>2026-04-12T08:14:04.293Z</time></trkpt><trkpt lat="43.8912322" lon="12.4126583"><ele>501.99999999999994</ele><time>2026-04-12T08:14:09.288Z</time></trkpt><trkpt lat="43.8912904" lon="12.4127168"><ele>501.99999999999994</ele><time>2026-04-12T08:14:14.292Z</time></trkpt><trkpt lat="43.891347" lon="12.4127921"><ele>502.0</ele><time>2026-04-12T08:14:19.287Z</time></trkpt><trkpt lat="43.8914021" lon="12.4128438"><ele>501.99999999999994</ele><time>2026-04-12T08:14:23.304Z</time></trkpt><trkpt lat="43.8914412" lon="12.4129138"><ele>501.99999999999994</ele><time>2026-04-12T08:14:27.281Z</time></trkpt><trkpt lat="43.8914861" lon="12.4129801"><ele>502.0</ele><time>2026-04-12T08:14:31.294Z</time></trkpt><trkpt lat="43.8915299" lon="12.4130601"><ele>501.99999999999994</ele><time>2026-04-12T08:14:36.312Z</time></trkpt><trkpt lat="43.8915721" lon="12.4131491"><ele>501.99999999999994</ele><time>2026-04-12T08:14:41.287Z</time></trkpt><trkpt lat="43.8916029" lon="12.4132398"><ele>502.2857142857142</ele><time>2026-04-12T08:14:46.284Z</time></trkpt><trkpt lat="43.8916076" lon="12.413344"><ele>502.57142857142856</ele><time>2026-04-12T08:14:50.313Z</time></trkpt><trkpt lat="43.8916121" lon="12.4134387"><ele>502.85714285714283</ele><time>2026-04-12T08:14:53.295Z</time></trkpt><trkpt lat="43.8916143" lon="12.4135301"><ele>503.1428571428571</ele><time>2026-04-12T08:14:56.309Z</time></trkpt><trkpt lat="43.8916467" lon="12.4136319"><ele>503.42857142857144</ele><time>2026-04-12T08:14:59.297Z</time></trkpt><trkpt lat="43.8916904" lon="12.4137084"><ele>503.7142857142857</ele><time>2026-04-12T08:15:02.3Z</time></trkpt><trkpt lat="43.8917632" lon="12.4137644"><ele>504.0</ele><time>2026-04-12T08:15:05.315Z</time></trkpt><trkpt lat="43.8918331" lon="12.4137829"><ele>503.1666666666667</ele><time>2026-04-12T08:15:08.308Z</time></trkpt><trkpt lat="43.8919088" lon="12.4137879"><ele>502.33333333333337</ele><time>2026-04-12T08:15:11.284Z</time></trkpt><trkpt lat="43.8919949" lon="12.4137844"><ele>501.5</ele><time>2026-04-12T08:15:14.29Z</time></trkpt><trkpt lat="43.8920831" lon="12.4137751"><ele>500.6666666666667</ele><time>2026-04-12T08:15:17.309Z</time></trkpt><trkpt lat="43.8921727" lon="12.4137738"><ele>499.83333333333337</ele><time>2026-04-12T08:15:20.291Z</time></trkpt><trkpt lat="43.8922634" lon="12.4137881"><ele>499.0</ele><time>2026-04-12T08:15:23.306Z</time></trkpt><trkpt lat="43.892348" lon="12.4138228"><ele>499.50000000000006</ele><time>2026-04-12T08:15:26.283Z</time></trkpt><trkpt lat="43.8924239" lon="12.4138797"><ele>500.0</ele><time>2026-04-12T08:15:29.297Z</time></trkpt><trkpt lat="43.8924841" lon="12.4139578"><ele>500.5</ele><time>2026-04-12T08:15:32.315Z</time></trkpt><trkpt lat="43.8925439" lon="12.4140495"><ele>501.0</ele><time>2026-04-12T08:15:35.308Z</time></trkpt><trkpt lat="43.8926141" lon="12.4141345"><ele>501.50000000000006</ele><time>2026-04-12T08:15:38.26Z</time></trkpt><trkpt lat="43.8926671" lon="12.4142225"><ele>502.0</ele><time>2026-04-12T08:15:41.31Z</time></trkpt><trkpt lat="43.8927228" lon="12.4143026"><ele>502.00000000000006</ele><time>2026-04-12T08:15:44.289Z</time></trkpt><trkpt lat="43.8927898" lon="12.4143969"><ele>502.0</ele><time>2026-04-12T08:15:47.306Z</time></trkpt><trkpt lat="43.8928351" lon="12.4144713"><ele>502.0</ele><time>2026-04-12T08:15:49.305Z</time></trkpt><trkpt lat="43.8928937" lon="12.4145349"><ele>502.0</ele><time>2026-04-12T08:15:52.279Z</time></trkpt><trkpt lat="43.892962" lon="12.414609"><ele>502.00000000000006</ele><time>2026-04-12T08:15:55.277Z</time></trkpt><trkpt lat="43.8930321" lon="12.4146945"><ele>502.0</ele><time>2026-04-12T08:15:58.297Z</time></trkpt><trkpt lat="43.8930843" lon="12.4147476"><ele>503.5714285714285</ele><time>2026-04-12T08:16:00.301Z</time></trkpt><trkpt lat="43.8931287" lon="12.4148157"><ele>505.1428571428571</ele><time>2026-04-12T08:16:02.301Z</time></trkpt><trkpt lat="43.8931748" lon="12.414884"><ele>506.7142857142857</ele><time>2026-04-12T08:16:04.31Z</time></trkpt><trkpt lat="43.8932136" lon="12.4149587"><ele>508.2857142857143</ele><time>2026-04-12T08:16:06.273Z</time></trkpt><trkpt lat="43.8932718" lon="12.4150627"><ele>509.8571428571429</ele><time>2026-04-12T08:16:09.313Z</time></trkpt><trkpt lat="43.8933099" lon="12.4151373"><ele>511.4285714285715</ele><time>2026-04-12T08:16:11.301Z</time></trkpt><trkpt lat="43.893356" lon="12.4152056"><ele>513.0</ele><time>2026-04-12T08:16:13.282Z</time></trkpt><trkpt lat="43.8934107" lon="12.4152798"><ele>513.1666666666666</ele><time>2026-04-12T08:16:15.306Z</time></trkpt><trkpt lat="43.8934677" lon="12.4153393"><ele>513.3333333333334</ele><time>2026-04-12T08:16:17.275Z</time></trkpt><trkpt lat="43.8935238" lon="12.4153893"><ele>513.5</ele><time>2026-04-12T08:16:19.296Z</time></trkpt><trkpt lat="43.8935781" lon="12.4154378"><ele>513.6666666666667</ele><time>2026-04-12T08:16:21.307Z</time></trkpt><trkpt lat="43.8936545" lon="12.4155142"><ele>513.8333333333334</ele><time>2026-04-12T08:16:24.3Z</time></trkpt><trkpt lat="43.8937266" lon="12.415587"><ele>514.0</ele><time>2026-04-12T08:16:27.292Z</time></trkpt><trkpt lat="43.8937962" lon="12.4156633"><ele>514.0</ele><time>2026-04-12T08:16:30.281Z</time></trkpt><trkpt lat="43.8938636" lon="12.4157528"><ele>514.0</ele><time>2026-04-12T08:16:33.284Z</time></trkpt><trkpt lat="43.8939085" lon="12.4158162"><ele>514.0</ele><time>2026-04-12T08:16:35.288Z</time></trkpt><trkpt lat="43.8939746" lon="12.4159035"><ele>514.0</ele><time>2026-04-12T08:16:38.297Z</time></trkpt><trkpt lat="43.8940336" lon="12.415992"><ele>514.0</ele><time>2026-04-12T08:16:41.297Z</time></trkpt><trkpt lat="43.8940877" lon="12.416066"><ele>514.0</ele><time>2026-04-12T08:16:43.282Z</time></trkpt><trkpt lat="43.8941383" lon="12.4161311"><ele>514.0</ele><time>2026-04-12T08:16:45.259Z</time></trkpt><trkpt lat="43.8941941" lon="12.4161957"><ele>514.0</ele><time>2026-04-12T08:16:47.303Z</time></trkpt><trkpt lat="43.894247" lon="12.4162685"><ele>514.0</ele><time>2026-04-12T08:16:49.296Z</time></trkpt><trkpt lat="43.8942955" lon="12.4163351"><ele>514.0</ele><time>2026-04-12T08:16:51.287Z</time></trkpt><trkpt lat="43.8943475" lon="12.4163946"><ele>514.0</ele><time>2026-04-12T08:16:53.297Z</time></trkpt><trkpt lat="43.8944139" lon="12.4164634"><ele>514.0</ele><time>2026-04-12T08:16:55.296Z</time></trkpt><trkpt lat="43.8944689" lon="12.4165435"><ele>514.0</ele><time>2026-04-12T08:16:57.312Z</time></trkpt><trkpt lat="43.8945179" lon="12.4166359"><ele>513.8333333333334</ele><time>2026-04-12T08:16:59.301Z</time></trkpt><trkpt lat="43.8945668" lon="12.4167261"><ele>513.6666666666667</ele><time>2026-04-12T08:17:01.281Z</time></trkpt><trkpt lat="43.8946273" lon="12.4168174"><ele>513.5</ele><time>2026-04-12T08:17:03.292Z</time></trkpt><trkpt lat="43.8946749" lon="12.4168845"><ele>513.3333333333334</ele><time>2026-04-12T08:17:05.305Z</time></trkpt><trkpt lat="43.8947413" lon="12.416928"><ele>513.1666666666666</ele><time>2026-04-12T08:17:07.295Z</time></trkpt><trkpt lat="43.8948003" lon="12.4169752"><ele>513.0</ele><time>2026-04-12T08:17:09.275Z</time></trkpt><trkpt lat="43.8948732" lon="12.4170448"><ele>513.0</ele><time>2026-04-12T08:17:11.303Z</time></trkpt><trkpt lat="43.8949409" lon="12.4170923"><ele>513.0</ele><time>2026-04-12T08:17:13.316Z</time></trkpt><trkpt lat="43.8949993" lon="12.4171462"><ele>513.0</ele><time>2026-04-12T08:17:15.292Z</time></trkpt><trkpt lat="43.8950693" lon="12.4171998"><ele>513.0</ele><time>2026-04-12T08:17:17.294Z</time></trkpt><trkpt lat="43.8951349" lon="12.4172461"><ele>513.0</ele><time>2026-04-12T08:17:19.315Z</time></trkpt><trkpt lat="43.895211" lon="12.4172924"><ele>513.0</ele><time>2026-04-12T08:17:21.323Z</time></trkpt><trkpt lat="43.895283" lon="12.4173243"><ele>514.8333333333334</ele><time>2026-04-12T08:17:23.279Z</time></trkpt><trkpt lat="43.8953455" lon="12.4173642"><ele>516.6666666666666</ele><time>2026-04-12T08:17:25.29Z</time></trkpt><trkpt lat="43.8954253" lon="12.4173845"><ele>518.5</ele><time>2026-04-12T08:17:27.292Z</time></trkpt><trkpt lat="43.8955097" lon="12.4174126"><ele>520.3333333333333</ele><time>2026-04-12T08:17:29.3Z</time></trkpt><trkpt lat="43.8955945" lon="12.4174009"><ele>522.1666666666666</ele><time>2026-04-12T08:17:31.319Z</time></trkpt><trkpt lat="43.8956825" lon="12.4173704"><ele>524.0</ele><time>2026-04-12T08:17:33.304Z</time></trkpt><trkpt lat="43.8957584" lon="12.4173598"><ele>524.0</ele><time>2026-04-12T08:17:35.291Z</time></trkpt><trkpt lat="43.8958346" lon="12.4173466"><ele>524.0</ele><time>2026-04-12T08:17:37.308Z</time></trkpt><trkpt lat="43.8959225" lon="12.4173282"><ele>524.0</ele><time>2026-04-12T08:17:39.281Z</time></trkpt><trkpt lat="43.8960068" lon="12.4173353"><ele>524.0</ele><time>2026-04-12T08:17:41.273Z</time></trkpt><trkpt lat="43.8960846" lon="12.4173807"><ele>524.0</ele><time>2026-04-12T08:17:43.3Z</time></trkpt><trkpt lat="43.8961559" lon="12.4174445"><ele>524.0</ele><time>2026-04-12T08:17:45.232Z</time></trkpt><trkpt lat="43.8962056" lon="12.417552"><ele>524.4</ele><time>2026-04-12T08:17:47.306Z</time></trkpt><trkpt lat="43.8962507" lon="12.4176674"><ele>524.8</ele><time>2026-04-12T08:17:49.31Z</time></trkpt><trkpt lat="43.8962821" lon="12.4177863"><ele>525.2</ele><time>2026-04-12T08:17:51.294Z</time></trkpt><trkpt lat="43.8963033" lon="12.4179113"><ele>525.6</ele><time>2026-04-12T08:17:53.246Z</time></trkpt><trkpt lat="43.8963322" lon="12.4180354"><ele>526.0</ele><time>2026-04-12T08:17:55.317Z</time></trkpt><trkpt lat="43.8963781" lon="12.418164"><ele>526.0</ele><time>2026-04-12T08:17:57.304Z</time></trkpt><trkpt lat="43.8964493" lon="12.4182577"><ele>526.0</ele><time>2026-04-12T08:17:59.301Z</time></trkpt><trkpt lat="43.8965377" lon="12.4183221"><ele>526.0</ele><time>2026-04-12T08:18:01.298Z</time></trkpt><trkpt lat="43.8966236" lon="12.4183622"><ele>526.0</ele><time>2026-04-12T08:18:03.307Z</time></trkpt><trkpt lat="43.8967225" lon="12.4183937"><ele>526.0</ele><time>2026-04-12T08:18:05.29Z</time></trkpt><trkpt lat="43.8968089" lon="12.4184018"><ele>525.4</ele><time>2026-04-12T08:18:07.295Z</time></trkpt><trkpt lat="43.8969042" lon="12.418376"><ele>524.8</ele><time>2026-04-12T08:18:09.261Z</time></trkpt><trkpt lat="43.896998" lon="12.4183343"><ele>524.1999999999999</ele><time>2026-04-12T08:18:11.308Z</time></trkpt><trkpt lat="43.8970935" lon="12.4182904"><ele>523.6</ele><time>2026-04-12T08:18:13.28Z</time></trkpt><trkpt lat="43.8971942" lon="12.4182415"><ele>523.0</ele><time>2026-04-12T08:18:15.297Z</time></trkpt><trkpt lat="43.8973039" lon="12.4181856"><ele>522.9999999999999</ele><time>2026-04-12T08:18:17.276Z</time></trkpt><trkpt lat="43.897362" lon="12.4181516"><ele>523.0</ele><time>2026-04-12T08:18:18.288Z</time></trkpt><trkpt lat="43.8974269" lon="12.4181117"><ele>523.0</ele><time>2026-04-12T08:18:19.294Z</time></trkpt><trkpt lat="43.8974874" lon="12.4180744"><ele>523.0</ele><time>2026-04-12T08:18:20.291Z</time></trkpt><trkpt lat="43.8975522" lon="12.4180341"><ele>523.0</ele><time>2026-04-12T08:18:21.306Z</time></trkpt><trkpt lat="43.89762" lon="12.4179922"><ele>522.9999999999999</ele><time>2026-04-12T08:18:22.244Z</time></trkpt><trkpt lat="43.8976929" lon="12.417942"><ele>523.0</ele><time>2026-04-12T08:18:23.293Z</time></trkpt><trkpt lat="43.8977684" lon="12.4178983"><ele>521.8333333333334</ele><time>2026-04-12T08:18:24.306Z</time></trkpt><trkpt lat="43.8978483" lon="12.4178564"><ele>520.6666666666667</ele><time>2026-04-12T08:18:25.308Z</time></trkpt><trkpt lat="43.8979236" lon="12.4178169"><ele>519.5</ele><time>2026-04-12T08:18:26.304Z</time></trkpt><trkpt lat="43.8980006" lon="12.417778"><ele>518.3333333333334</ele><time>2026-04-12T08:18:27.313Z</time></trkpt><trkpt lat="43.8980825" lon="12.4177372"><ele>517.1666666666666</ele><time>2026-04-12T08:18:28.296Z</time></trkpt><trkpt lat="43.898168" lon="12.4176959"><ele>516.0</ele><time>2026-04-12T08:18:29.304Z</time></trkpt><trkpt lat="43.8982602" lon="12.4176582"><ele>516.0</ele><time>2026-04-12T08:18:30.278Z</time></trkpt><trkpt lat="43.8983514" lon="12.4176161"><ele>516.0</ele><time>2026-04-12T08:18:31.302Z</time></trkpt><trkpt lat="43.8984303" lon="12.4175637"><ele>516.0</ele><time>2026-04-12T08:18:32.289Z</time></trkpt><trkpt lat="43.8985056" lon="12.4174948"><ele>516.0</ele><time>2026-04-12T08:18:33.294Z</time></trkpt><trkpt lat="43.8985793" lon="12.4174113"><ele>516.0</ele><time>2026-04-12T08:18:34.309Z</time></trkpt><trkpt lat="43.8986525" lon="12.4173213"><ele>516.2</ele><time>2026-04-12T08:18:35.277Z</time></trkpt><trkpt lat="43.8987255" lon="12.4172301"><ele>516.4000000000001</ele><time>2026-04-12T08:18:36.267Z</time></trkpt><trkpt lat="43.8987975" lon="12.4171311"><ele>516.6</ele><time>2026-04-12T08:18:37.304Z</time></trkpt><trkpt lat="43.8988731" lon="12.4170274"><ele>516.8000000000001</ele><time>2026-04-12T08:18:38.282Z</time></trkpt><trkpt lat="43.8989501" lon="12.416927"><ele>517.0</ele><time>2026-04-12T08:18:39.293Z</time></trkpt><trkpt lat="43.8990336" lon="12.4168315"><ele>515.4</ele><time>2026-04-12T08:18:40.288Z</time></trkpt><trkpt lat="43.8991171" lon="12.4167444"><ele>513.8000000000001</ele><time>2026-04-12T08:18:41.299Z</time></trkpt><trkpt lat="43.8992149" lon="12.4166731"><ele>512.2</ele><time>2026-04-12T08:18:42.295Z</time></trkpt><trkpt lat="43.899311" lon="12.4166017"><ele>510.6</ele><time>2026-04-12T08:18:43.302Z</time></trkpt><trkpt lat="43.8994041" lon="12.4165251"><ele>509.0</ele><time>2026-04-12T08:18:44.303Z</time></trkpt><trkpt lat="43.8994883" lon="12.4164382"><ele>509.0</ele><time>2026-04-12T08:18:45.283Z</time></trkpt><trkpt lat="43.8995679" lon="12.4163446"><ele>509.0</ele><time>2026-04-12T08:18:46.298Z</time></trkpt><trkpt lat="43.8996455" lon="12.4162371"><ele>509.0</ele><time>2026-04-12T08:18:47.296Z</time></trkpt><trkpt lat="43.8997114" lon="12.4161219"><ele>509.0</ele><time>2026-04-12T08:18:48.292Z</time></trkpt><trkpt lat="43.8997609" lon="12.4159899"><ele>509.0</ele><time>2026-04-12T08:18:49.293Z</time></trkpt><trkpt lat="43.8998112" lon="12.4158571"><ele>508.2</ele><time>2026-04-12T08:18:50.286Z</time></trkpt><trkpt lat="43.8998522" lon="12.4157245"><ele>507.4</ele><time>2026-04-12T08:18:51.295Z</time></trkpt><trkpt lat="43.8998958" lon="12.4155911"><ele>506.6</ele><time>2026-04-12T08:18:52.287Z</time></trkpt><trkpt lat="43.899925" lon="12.415459"><ele>505.8</ele><time>2026-04-12T08:18:53.27Z</time></trkpt><trkpt lat="43.8999417" lon="12.41532"><ele>505.0</ele><time>2026-04-12T08:18:54.312Z</time></trkpt><trkpt lat="43.8999449" lon="12.4151766"><ele>504.0</ele><time>2026-04-12T08:18:55.303Z</time></trkpt><trkpt lat="43.8999335" lon="12.4150345"><ele>503.0</ele><time>2026-04-12T08:18:56.319Z</time></trkpt><trkpt lat="43.8999215" lon="12.4148835"><ele>502.0</ele><time>2026-04-12T08:18:57.303Z</time></trkpt><trkpt lat="43.8998986" lon="12.4147319"><ele>501.0</ele><time>2026-04-12T08:18:58.302Z</time></trkpt><trkpt lat="43.8998726" lon="12.4145841"><ele>500.0</ele><time>2026-04-12T08:18:59.317Z</time></trkpt><trkpt lat="43.8998449" lon="12.4144356"><ele>499.0</ele><time>2026-04-12T08:19:00.301Z</time></trkpt><trkpt lat="43.8998317" lon="12.4142882"><ele>498.0</ele><time>2026-04-12T08:19:01.282Z</time></trkpt><trkpt lat="43.8998353" lon="12.4141542"><ele>497.0</ele><time>2026-04-12T08:19:02.295Z</time></trkpt><trkpt lat="43.8998794" lon="12.4140406"><ele>496.0</ele><time>2026-04-12T08:19:03.231Z</time></trkpt><trkpt lat="43.899953" lon="12.4139431"><ele>495.0</ele><time>2026-04-12T08:19:04.234Z</time></trkpt><trkpt lat="43.9000387" lon="12.4138622"><ele>494.5</ele><time>2026-04-12T08:19:05.232Z</time></trkpt><trkpt lat="43.9001257" lon="12.4138069"><ele>494.0</ele><time>2026-04-12T08:19:06.269Z</time></trkpt><trkpt lat="43.9002185" lon="12.4137599"><ele>493.5</ele><time>2026-04-12T08:19:07.247Z</time></trkpt><trkpt lat="43.9002988" lon="12.413702"><ele>493.0</ele><time>2026-04-12T08:19:08.23Z</time></trkpt><trkpt lat="43.9003702" lon="12.4136311"><ele>492.5</ele><time>2026-04-12T08:19:09.23Z</time></trkpt><trkpt lat="43.9004289" lon="12.4135632"><ele>492.0</ele><time>2026-04-12T08:19:10.264Z</time></trkpt><trkpt lat="43.9004898" lon="12.4135292"><ele>492.0</ele><time>2026-04-12T08:19:11.244Z</time></trkpt><trkpt lat="43.9006068" lon="12.4135724"><ele>492.00000000000006</ele><time>2026-04-12T08:19:13.229Z</time></trkpt><trkpt lat="43.9007138" lon="12.4136728"><ele>492.00000000000006</ele><time>2026-04-12T08:19:15.227Z</time></trkpt><trkpt lat="43.90077" lon="12.4137248"><ele>492.0</ele><time>2026-04-12T08:19:16.237Z</time></trkpt><trkpt lat="43.9008295" lon="12.4137675"><ele>492.0</ele><time>2026-04-12T08:19:17.234Z</time></trkpt><trkpt lat="43.9008929" lon="12.4138285"><ele>491.0</ele><time>2026-04-12T08:19:18.238Z</time></trkpt><trkpt lat="43.9009641" lon="12.4138948"><ele>490.0</ele><time>2026-04-12T08:19:19.237Z</time></trkpt><trkpt lat="43.9010369" lon="12.4139516"><ele>489.0</ele><time>2026-04-12T08:19:20.232Z</time></trkpt><trkpt lat="43.9011151" lon="12.4140018"><ele>488.0</ele><time>2026-04-12T08:19:21.244Z</time></trkpt><trkpt lat="43.9011882" lon="12.4140531"><ele>487.0</ele><time>2026-04-12T08:19:22.233Z</time></trkpt><trkpt lat="43.9012662" lon="12.4141163"><ele>486.0</ele><time>2026-04-12T08:19:23.235Z</time></trkpt><trkpt lat="43.9013476" lon="12.4141708"><ele>486.0</ele><time>2026-04-12T08:19:24.242Z</time></trkpt><trkpt lat="43.9014363" lon="12.4142266"><ele>486.0</ele><time>2026-04-12T08:19:25.267Z</time></trkpt><trkpt lat="43.901516" lon="12.4142825"><ele>486.0</ele><time>2026-04-12T08:19:26.246Z</time></trkpt><trkpt lat="43.9015924" lon="12.4143365"><ele>486.0</ele><time>2026-04-12T08:19:27.271Z</time></trkpt><trkpt lat="43.9016742" lon="12.4143975"><ele>486.0</ele><time>2026-04-12T08:19:28.268Z</time></trkpt><trkpt lat="43.9017543" lon="12.4144604"><ele>484.4</ele><time>2026-04-12T08:19:29.248Z</time></trkpt><trkpt lat="43.9018372" lon="12.4145154"><ele>482.8</ele><time>2026-04-12T08:19:30.234Z</time></trkpt><trkpt lat="43.9019187" lon="12.4145781"><ele>481.19999999999993</ele><time>2026-04-12T08:19:31.296Z</time></trkpt><trkpt lat="43.9020062" lon="12.4146396"><ele>479.59999999999997</ele><time>2026-04-12T08:19:32.331Z</time></trkpt><trkpt lat="43.9020986" lon="12.4147036"><ele>478.0</ele><time>2026-04-12T08:19:33.246Z</time></trkpt><trkpt lat="43.9021927" lon="12.4147643"><ele>478.0</ele><time>2026-04-12T08:19:34.281Z</time></trkpt><trkpt lat="43.9022845" lon="12.4148353"><ele>477.99999999999994</ele><time>2026-04-12T08:19:35.294Z</time></trkpt><trkpt lat="43.9023805" lon="12.4149022"><ele>477.99999999999994</ele><time>2026-04-12T08:19:36.275Z</time></trkpt><trkpt lat="43.9024663" lon="12.4149645"><ele>478.0</ele><time>2026-04-12T08:19:37.304Z</time></trkpt><trkpt lat="43.9025491" lon="12.4150282"><ele>478.0</ele><time>2026-04-12T08:19:38.305Z</time></trkpt><trkpt lat="43.9026364" lon="12.4150956"><ele>475.79999999999995</ele><time>2026-04-12T08:19:39.305Z</time></trkpt><trkpt lat="43.9027165" lon="12.4151759"><ele>473.59999999999997</ele><time>2026-04-12T08:19:40.295Z</time></trkpt><trkpt lat="43.9027801" lon="12.4152823"><ele>471.40000000000003</ele><time>2026-04-12T08:19:41.3Z</time></trkpt><trkpt lat="43.9028378" lon="12.4153989"><ele>469.20000000000005</ele><time>2026-04-12T08:19:42.289Z</time></trkpt><trkpt lat="43.9028775" lon="12.4155354"><ele>467.0</ele><time>2026-04-12T08:19:43.279Z</time></trkpt><trkpt lat="43.9028846" lon="12.4156724"><ele>466.8</ele><time>2026-04-12T08:19:44.307Z</time></trkpt><trkpt lat="43.9028791" lon="12.4158022"><ele>466.6</ele><time>2026-04-12T08:19:45.263Z</time></trkpt><trkpt lat="43.9028608" lon="12.4159447"><ele>466.40000000000003</ele><time>2026-04-12T08:19:46.303Z</time></trkpt><trkpt lat="43.902822" lon="12.4160814"><ele>466.20000000000005</ele><time>2026-04-12T08:19:47.305Z</time></trkpt><trkpt lat="43.9027761" lon="12.4162166"><ele>466.0</ele><time>2026-04-12T08:19:48.298Z</time></trkpt><trkpt lat="43.9027264" lon="12.4163463"><ele>465.0</ele><time>2026-04-12T08:19:49.296Z</time></trkpt><trkpt lat="43.9026779" lon="12.4164702"><ele>464.0</ele><time>2026-04-12T08:19:50.269Z</time></trkpt><trkpt lat="43.9026338" lon="12.4165971"><ele>463.0</ele><time>2026-04-12T08:19:51.303Z</time></trkpt><trkpt lat="43.9026021" lon="12.4167354"><ele>462.0</ele><time>2026-04-12T08:19:52.278Z</time></trkpt><trkpt lat="43.9025916" lon="12.4168861"><ele>461.0</ele><time>2026-04-12T08:19:53.299Z</time></trkpt><trkpt lat="43.9026125" lon="12.4170252"><ele>460.8</ele><time>2026-04-12T08:19:54.315Z</time></trkpt><trkpt lat="43.9026432" lon="12.4171723"><ele>460.6</ele><time>2026-04-12T08:19:55.303Z</time></trkpt><trkpt lat="43.9026758" lon="12.4173027"><ele>460.4</ele><time>2026-04-12T08:19:56.313Z</time></trkpt><trkpt lat="43.9027136" lon="12.4174351"><ele>460.2</ele><time>2026-04-12T08:19:57.281Z</time></trkpt><trkpt lat="43.9027471" lon="12.4175616"><ele>460.0</ele><time>2026-04-12T08:19:58.319Z</time></trkpt><trkpt lat="43.9027825" lon="12.4176966"><ele>460.0</ele><time>2026-04-12T08:19:59.267Z</time></trkpt><trkpt lat="43.9028232" lon="12.4178368"><ele>460.0</ele><time>2026-04-12T08:20:00.304Z</time></trkpt><trkpt lat="43.9028603" lon="12.4179716"><ele>460.0</ele><time>2026-04-12T08:20:01.268Z</time></trkpt><trkpt lat="43.9028921" lon="12.418107"><ele>460.0</ele><time>2026-04-12T08:20:02.281Z</time></trkpt><trkpt lat="43.9029235" lon="12.4182446"><ele>460.0</ele><time>2026-04-12T08:20:03.27Z</time></trkpt><trkpt lat="43.9029565" lon="12.4183785"><ele>460.6</ele><time>2026-04-12T08:20:04.263Z</time></trkpt><trkpt lat="43.9029869" lon="12.4185075"><ele>461.2</ele><time>2026-04-12T08:20:05.3Z</time></trkpt><trkpt lat="43.9030209" lon="12.4186356"><ele>461.79999999999995</ele><time>2026-04-12T08:20:06.271Z</time></trkpt><trkpt lat="43.9030547" lon="12.4187735"><ele>462.4</ele><time>2026-04-12T08:20:07.305Z</time></trkpt><trkpt lat="43.9030864" lon="12.418896"><ele>463.0</ele><time>2026-04-12T08:20:08.278Z</time></trkpt><trkpt lat="43.9031208" lon="12.4190192"><ele>463.4</ele><time>2026-04-12T08:20:09.291Z</time></trkpt><trkpt lat="43.9031633" lon="12.4191405"><ele>463.79999999999995</ele><time>2026-04-12T08:20:10.303Z</time></trkpt><trkpt lat="43.9032084" lon="12.4192601"><ele>464.2</ele><time>2026-04-12T08:20:11.272Z</time></trkpt><trkpt lat="43.9032744" lon="12.4193618"><ele>464.6</ele><time>2026-04-12T08:20:12.276Z</time></trkpt><trkpt lat="43.9033499" lon="12.4194448"><ele>465.0</ele><time>2026-04-12T08:20:13.283Z</time></trkpt><trkpt lat="43.9034306" lon="12.4195248"><ele>464.2</ele><time>2026-04-12T08:20:14.281Z</time></trkpt><trkpt lat="43.9035177" lon="12.4195938"><ele>463.4</ele><time>2026-04-12T08:20:15.297Z</time></trkpt><trkpt lat="43.9036066" lon="12.4196652"><ele>462.6</ele><time>2026-04-12T08:20:16.282Z</time></trkpt><trkpt lat="43.9036899" lon="12.4197207"><ele>461.8</ele><time>2026-04-12T08:20:17.308Z</time></trkpt><trkpt lat="43.9037753" lon="12.4197733"><ele>461.0</ele><time>2026-04-12T08:20:18.298Z</time></trkpt><trkpt lat="43.9038629" lon="12.419827"><ele>461.0</ele><time>2026-04-12T08:20:19.299Z</time></trkpt><trkpt lat="43.9039582" lon="12.4198688"><ele>461.0</ele><time>2026-04-12T08:20:20.294Z</time></trkpt><trkpt lat="43.9040573" lon="12.4198963"><ele>461.0</ele><time>2026-04-12T08:20:21.308Z</time></trkpt><trkpt lat="43.9041646" lon="12.4199085"><ele>461.0</ele><time>2026-04-12T08:20:22.301Z</time></trkpt><trkpt lat="43.904284" lon="12.4199051"><ele>461.0</ele><time>2026-04-12T08:20:23.265Z</time></trkpt><trkpt lat="43.9044071" lon="12.4198975"><ele>458.25</ele><time>2026-04-12T08:20:24.235Z</time></trkpt><trkpt lat="43.9045363" lon="12.4198967"><ele>455.5</ele><time>2026-04-12T08:20:25.28Z</time></trkpt><trkpt lat="43.9046738" lon="12.4198996"><ele>452.75</ele><time>2026-04-12T08:20:26.292Z</time></trkpt><trkpt lat="43.9048023" lon="12.4198885"><ele>450.0</ele><time>2026-04-12T08:20:27.244Z</time></trkpt><trkpt lat="43.9049318" lon="12.4198678"><ele>450.0</ele><time>2026-04-12T08:20:28.226Z</time></trkpt><trkpt lat="43.9050544" lon="12.4198242"><ele>450.0</ele><time>2026-04-12T08:20:29.224Z</time></trkpt><trkpt lat="43.9051905" lon="12.4197657"><ele>450.0</ele><time>2026-04-12T08:20:30.23Z</time></trkpt><trkpt lat="43.9053354" lon="12.4197268"><ele>450.0</ele><time>2026-04-12T08:20:31.233Z</time></trkpt><trkpt lat="43.9054822" lon="12.4197264"><ele>447.75</ele><time>2026-04-12T08:20:32.283Z</time></trkpt><trkpt lat="43.9056262" lon="12.4197564"><ele>445.5</ele><time>2026-04-12T08:20:33.281Z</time></trkpt><trkpt lat="43.9057597" lon="12.4198108"><ele>443.25</ele><time>2026-04-12T08:20:34.248Z</time></trkpt><trkpt lat="43.9058913" lon="12.419847"><ele>441.0</ele><time>2026-04-12T08:20:35.28Z</time></trkpt><trkpt lat="43.9060168" lon="12.4198862"><ele>437.75</ele><time>2026-04-12T08:20:36.276Z</time></trkpt><trkpt lat="43.906155" lon="12.4199157"><ele>434.5</ele><time>2026-04-12T08:20:37.277Z</time></trkpt><trkpt lat="43.9062892" lon="12.4199375"><ele>431.25</ele><time>2026-04-12T08:20:38.286Z</time></trkpt><trkpt lat="43.9064222" lon="12.4199538"><ele>428.0</ele><time>2026-04-12T08:20:39.319Z</time></trkpt><trkpt lat="43.9065498" lon="12.4199681"><ele>428.0</ele><time>2026-04-12T08:20:40.31Z</time></trkpt><trkpt lat="43.9066795" lon="12.4199732"><ele>428.0</ele><time>2026-04-12T08:20:41.275Z</time></trkpt><trkpt lat="43.9068108" lon="12.4199807"><ele>428.0</ele><time>2026-04-12T08:20:42.293Z</time></trkpt><trkpt lat="43.9069419" lon="12.4200007"><ele>428.0</ele><time>2026-04-12T08:20:43.302Z</time></trkpt><trkpt lat="43.9070663" lon="12.4200372"><ele>427.0</ele><time>2026-04-12T08:20:44.323Z</time></trkpt><trkpt lat="43.907183" lon="12.4200863"><ele>425.99999999999994</ele><time>2026-04-12T08:20:45.257Z</time></trkpt><trkpt lat="43.9072914" lon="12.4201463"><ele>425.0</ele><time>2026-04-12T08:20:46.303Z</time></trkpt><trkpt lat="43.9073858" lon="12.4202172"><ele>424.0</ele><time>2026-04-12T08:20:47.309Z</time></trkpt><trkpt lat="43.9074559" lon="12.4202661"><ele>423.0</ele><time>2026-04-12T08:20:48.297Z</time></trkpt><trkpt lat="43.9075606" lon="12.4202327"><ele>421.1666666666667</ele><time>2026-04-12T08:20:50.287Z</time></trkpt><trkpt lat="43.9076281" lon="12.4202203"><ele>419.33333333333337</ele><time>2026-04-12T08:20:51.255Z</time></trkpt><trkpt lat="43.9077132" lon="12.4202319"><ele>417.5</ele><time>2026-04-12T08:20:52.268Z</time></trkpt><trkpt lat="43.9077919" lon="12.4202588"><ele>415.6666666666667</ele><time>2026-04-12T08:20:53.259Z</time></trkpt><trkpt lat="43.907868" lon="12.4203123"><ele>413.83333333333337</ele><time>2026-04-12T08:20:54.292Z</time></trkpt><trkpt lat="43.9079463" lon="12.4203758"><ele>412.0</ele><time>2026-04-12T08:20:55.245Z</time></trkpt><trkpt lat="43.908026" lon="12.4204288"><ele>412.0</ele><time>2026-04-12T08:20:56.274Z</time></trkpt><trkpt lat="43.9081179" lon="12.4204778"><ele>412.0</ele><time>2026-04-12T08:20:57.286Z</time></trkpt><trkpt lat="43.9082095" lon="12.4205262"><ele>412.0</ele><time>2026-04-12T08:20:58.267Z</time></trkpt><trkpt lat="43.9083148" lon="12.4205529"><ele>412.0</ele><time>2026-04-12T08:20:59.293Z</time></trkpt><trkpt lat="43.9084198" lon="12.4205733"><ele>412.0</ele><time>2026-04-12T08:21:00.288Z</time></trkpt><trkpt lat="43.9085255" lon="12.4205754"><ele>412.40000000000003</ele><time>2026-04-12T08:21:01.291Z</time></trkpt><trkpt lat="43.9086351" lon="12.4205847"><ele>412.8</ele><time>2026-04-12T08:21:02.292Z</time></trkpt><trkpt lat="43.9087461" lon="12.4205998"><ele>413.2</ele><time>2026-04-12T08:21:03.289Z</time></trkpt><trkpt lat="43.9088524" lon="12.4206288"><ele>413.6</ele><time>2026-04-12T08:21:04.281Z</time></trkpt><trkpt lat="43.9089506" lon="12.4206827"><ele>414.0</ele><time>2026-04-12T08:21:05.28Z</time></trkpt><trkpt lat="43.9090333" lon="12.4207579"><ele>414.0</ele><time>2026-04-12T08:21:06.285Z</time></trkpt><trkpt lat="43.9091103" lon="12.4208432"><ele>414.0</ele><time>2026-04-12T08:21:07.298Z</time></trkpt><trkpt lat="43.9091695" lon="12.4209339"><ele>414.0</ele><time>2026-04-12T08:21:08.279Z</time></trkpt><trkpt lat="43.9092315" lon="12.4210198"><ele>414.0</ele><time>2026-04-12T08:21:09.29Z</time></trkpt><trkpt lat="43.9092943" lon="12.421093"><ele>414.0</ele><time>2026-04-12T08:21:10.292Z</time></trkpt><trkpt lat="43.9093583" lon="12.4211408"><ele>414.0</ele><time>2026-04-12T08:21:11.303Z</time></trkpt><trkpt lat="43.9094208" lon="12.4211871"><ele>414.14285714285717</ele><time>2026-04-12T08:21:12.291Z</time></trkpt><trkpt lat="43.9094813" lon="12.4212351"><ele>414.2857142857143</ele><time>2026-04-12T08:21:13.304Z</time></trkpt><trkpt lat="43.9095378" lon="12.4212832"><ele>414.42857142857144</ele><time>2026-04-12T08:21:14.273Z</time></trkpt><trkpt lat="43.9095931" lon="12.4213291"><ele>414.57142857142856</ele><time>2026-04-12T08:21:15.292Z</time></trkpt><trkpt lat="43.9096456" lon="12.4213941"><ele>414.7142857142857</ele><time>2026-04-12T08:21:16.267Z</time></trkpt><trkpt lat="43.9096979" lon="12.4214565"><ele>414.8571428571429</ele><time>2026-04-12T08:21:17.285Z</time></trkpt><trkpt lat="43.9097434" lon="12.421519"><ele>415.0</ele><time>2026-04-12T08:21:18.293Z</time></trkpt><trkpt lat="43.9097816" lon="12.4215907"><ele>415.00000000000006</ele><time>2026-04-12T08:21:19.306Z</time></trkpt><trkpt lat="43.9098216" lon="12.421663"><ele>415.0</ele><time>2026-04-12T08:21:20.293Z</time></trkpt><trkpt lat="43.9099055" lon="12.4217993"><ele>415.0</ele><time>2026-04-12T08:21:22.291Z</time></trkpt><trkpt lat="43.9099523" lon="12.4218614"><ele>415.0</ele><time>2026-04-12T08:21:23.298Z</time></trkpt><trkpt lat="43.9100096" lon="12.4219119"><ele>415.00000000000006</ele><time>2026-04-12T08:21:24.286Z</time></trkpt><trkpt lat="43.9100661" lon="12.4219539"><ele>415.0</ele><time>2026-04-12T08:21:25.291Z</time></trkpt><trkpt lat="43.910123" lon="12.4219973"><ele>413.5</ele><time>2026-04-12T08:21:26.287Z</time></trkpt><trkpt lat="43.910234" lon="12.4220441"><ele>412.0</ele><time>2026-04-12T08:21:28.282Z</time></trkpt><trkpt lat="43.9103572" lon="12.4220787"><ele>410.5</ele><time>2026-04-12T08:21:30.287Z</time></trkpt><trkpt lat="43.9104646" lon="12.4221404"><ele>409.0</ele><time>2026-04-12T08:21:32.303Z</time></trkpt><trkpt lat="43.9105624" lon="12.4222103"><ele>409.0</ele><time>2026-04-12T08:21:34.295Z</time></trkpt><trkpt lat="43.9106534" lon="12.4223116"><ele>409.0</ele><time>2026-04-12T08:21:36.301Z</time></trkpt><trkpt lat="43.9106944" lon="12.4223891"><ele>409.0</ele><time>2026-04-12T08:21:37.294Z</time></trkpt><trkpt lat="43.9107408" lon="12.4224848"><ele>409.0</ele><time>2026-04-12T08:21:38.305Z</time></trkpt><trkpt lat="43.9107862" lon="12.4225935"><ele>409.0</ele><time>2026-04-12T08:21:39.286Z</time></trkpt><trkpt lat="43.9108444" lon="12.4227071"><ele>401.75</ele><time>2026-04-12T08:21:40.3Z</time></trkpt><trkpt lat="43.9109143" lon="12.4228425"><ele>394.5</ele><time>2026-04-12T08:21:41.303Z</time></trkpt><trkpt lat="43.9109843" lon="12.4229817"><ele>387.25</ele><time>2026-04-12T08:21:42.296Z</time></trkpt><trkpt lat="43.9110676" lon="12.4231256"><ele>380.0</ele><time>2026-04-12T08:21:43.294Z</time></trkpt><trkpt lat="43.9111468" lon="12.4232772"><ele>380.0</ele><time>2026-04-12T08:21:44.307Z</time></trkpt><trkpt lat="43.9112255" lon="12.4234409"><ele>380.0</ele><time>2026-04-12T08:21:45.305Z</time></trkpt><trkpt lat="43.9113065" lon="12.4235816"><ele>380.0</ele><time>2026-04-12T08:21:46.298Z</time></trkpt><trkpt lat="43.9113919" lon="12.4237177"><ele>380.0</ele><time>2026-04-12T08:21:47.322Z</time></trkpt><trkpt lat="43.9114883" lon="12.4238326"><ele>380.5</ele><time>2026-04-12T08:21:48.266Z</time></trkpt><trkpt lat="43.9116055" lon="12.4239312"><ele>381.0</ele><time>2026-04-12T08:21:49.302Z</time></trkpt><trkpt lat="43.9117221" lon="12.423972"><ele>381.5</ele><time>2026-04-12T08:21:50.274Z</time></trkpt><trkpt lat="43.9118568" lon="12.4240189"><ele>382.0</ele><time>2026-04-12T08:21:51.289Z</time></trkpt><trkpt lat="43.9120063" lon="12.4240304"><ele>378.0</ele><time>2026-04-12T08:21:52.315Z</time></trkpt><trkpt lat="43.9121415" lon="12.424045"><ele>374.0</ele><time>2026-04-12T08:21:53.293Z</time></trkpt><trkpt lat="43.9122955" lon="12.4240336"><ele>370.0</ele><time>2026-04-12T08:21:54.301Z</time></trkpt><trkpt lat="43.9124542" lon="12.4240326"><ele>366.0</ele><time>2026-04-12T08:21:55.276Z</time></trkpt><trkpt lat="43.9126166" lon="12.4240352"><ele>361.0</ele><time>2026-04-12T08:21:56.284Z</time></trkpt><trkpt lat="43.912781" lon="12.4240188"><ele>356.0</ele><time>2026-04-12T08:21:57.273Z</time></trkpt><trkpt lat="43.9129434" lon="12.4239693"><ele>351.0</ele><time>2026-04-12T08:21:58.276Z</time></trkpt><trkpt lat="43.9131132" lon="12.4239115"><ele>351.0</ele><time>2026-04-12T08:21:59.292Z</time></trkpt><trkpt lat="43.9132757" lon="12.4238651"><ele>351.0</ele><time>2026-04-12T08:22:00.281Z</time></trkpt><trkpt lat="43.9134493" lon="12.4238507"><ele>351.0</ele><time>2026-04-12T08:22:01.31Z</time></trkpt><trkpt lat="43.9136234" lon="12.4238745"><ele>347.0</ele><time>2026-04-12T08:22:02.3Z</time></trkpt><trkpt lat="43.9137978" lon="12.4239067"><ele>343.0</ele><time>2026-04-12T08:22:03.289Z</time></trkpt><trkpt lat="43.9139678" lon="12.4239472"><ele>339.0</ele><time>2026-04-12T08:22:04.271Z</time></trkpt><trkpt lat="43.9141352" lon="12.4239701"><ele>336.0</ele><time>2026-04-12T08:22:05.31Z</time></trkpt><trkpt lat="43.9143079" lon="12.4240051"><ele>333.0</ele><time>2026-04-12T08:22:06.311Z</time></trkpt><trkpt lat="43.914473" lon="12.4240196"><ele>330.0</ele><time>2026-04-12T08:22:07.299Z</time></trkpt><trkpt lat="43.914636" lon="12.4240142"><ele>330.0</ele><time>2026-04-12T08:22:08.311Z</time></trkpt><trkpt lat="43.9147977" lon="12.4239912"><ele>330.0</ele><time>2026-04-12T08:22:09.291Z</time></trkpt><trkpt lat="43.9149555" lon="12.4239579"><ele>330.0</ele><time>2026-04-12T08:22:10.261Z</time></trkpt><trkpt lat="43.9151061" lon="12.4239129"><ele>329.0</ele><time>2026-04-12T08:22:11.277Z</time></trkpt><trkpt lat="43.9152582" lon="12.4238646"><ele>328.0</ele><time>2026-04-12T08:22:12.281Z</time></trkpt><trkpt lat="43.9153997" lon="12.423822"><ele>327.0</ele><time>2026-04-12T08:22:13.297Z</time></trkpt><trkpt lat="43.9155404" lon="12.4237856"><ele>326.0</ele><time>2026-04-12T08:22:14.293Z</time></trkpt><trkpt lat="43.9156758" lon="12.4237483"><ele>326.0</ele><time>2026-04-12T08:22:15.297Z</time></trkpt><trkpt lat="43.9158087" lon="12.4237157"><ele>326.0</ele><time>2026-04-12T08:22:16.307Z</time></trkpt><trkpt lat="43.9159365" lon="12.4236934"><ele>326.0</ele><time>2026-04-12T08:22:17.251Z</time></trkpt><trkpt lat="43.9160546" lon="12.4236757"><ele>326.0</ele><time>2026-04-12T08:22:18.3Z</time></trkpt><trkpt lat="43.9161659" lon="12.4236641"><ele>326.0</ele><time>2026-04-12T08:22:19.294Z</time></trkpt><trkpt lat="43.9162697" lon="12.4236609"><ele>326.0</ele><time>2026-04-12T08:22:20.305Z</time></trkpt><trkpt lat="43.9163658" lon="12.423642"><ele>326.0</ele><time>2026-04-12T08:22:21.293Z</time></trkpt><trkpt lat="43.9164532" lon="12.4236185"><ele>326.0</ele><time>2026-04-12T08:22:22.291Z</time></trkpt><trkpt lat="43.9165385" lon="12.4235941"><ele>326.0</ele><time>2026-04-12T08:22:23.31Z</time></trkpt><trkpt lat="43.9166225" lon="12.4235577"><ele>326.0</ele><time>2026-04-12T08:22:24.326Z</time></trkpt><trkpt lat="43.9167012" lon="12.4234965"><ele>326.0</ele><time>2026-04-12T08:22:25.301Z</time></trkpt><trkpt lat="43.9167795" lon="12.4234264"><ele>326.0</ele><time>2026-04-12T08:22:26.3Z</time></trkpt><trkpt lat="43.9168575" lon="12.4233499"><ele>326.0</ele><time>2026-04-12T08:22:27.267Z</time></trkpt><trkpt lat="43.9169406" lon="12.4232749"><ele>326.0</ele><time>2026-04-12T08:22:28.286Z</time></trkpt><trkpt lat="43.9170219" lon="12.4232033"><ele>324.2</ele><time>2026-04-12T08:22:29.299Z</time></trkpt><trkpt lat="43.9171142" lon="12.4231364"><ele>322.40000000000003</ele><time>2026-04-12T08:22:30.293Z</time></trkpt><trkpt lat="43.9172072" lon="12.4230847"><ele>320.6</ele><time>2026-04-12T08:22:31.305Z</time></trkpt><trkpt lat="43.9173075" lon="12.4230601"><ele>318.8</ele><time>2026-04-12T08:22:32.299Z</time></trkpt><trkpt lat="43.9174056" lon="12.4230517"><ele>317.0</ele><time>2026-04-12T08:22:33.311Z</time></trkpt><trkpt lat="43.9175052" lon="12.4230498"><ele>315.0</ele><time>2026-04-12T08:22:34.306Z</time></trkpt><trkpt lat="43.9176117" lon="12.423056"><ele>313.0</ele><time>2026-04-12T08:22:35.297Z</time></trkpt><trkpt lat="43.9177235" lon="12.4230707"><ele>311.0</ele><time>2026-04-12T08:22:36.295Z</time></trkpt><trkpt lat="43.9178288" lon="12.4230826"><ele>309.0</ele><time>2026-04-12T08:22:37.305Z</time></trkpt><trkpt lat="43.9179352" lon="12.4231013"><ele>307.0</ele><time>2026-04-12T08:22:38.293Z</time></trkpt><trkpt lat="43.9180449" lon="12.4231073"><ele>307.0</ele><time>2026-04-12T08:22:39.276Z</time></trkpt><trkpt lat="43.918157" lon="12.4231018"><ele>307.0</ele><time>2026-04-12T08:22:40.308Z</time></trkpt><trkpt lat="43.9182755" lon="12.4230866"><ele>307.0</ele><time>2026-04-12T08:22:41.291Z</time></trkpt><trkpt lat="43.9183929" lon="12.4230831"><ele>307.0</ele><time>2026-04-12T08:22:42.286Z</time></trkpt><trkpt lat="43.9185101" lon="12.4230995"><ele>307.0</ele><time>2026-04-12T08:22:43.297Z</time></trkpt><trkpt lat="43.9186262" lon="12.4231359"><ele>307.0</ele><time>2026-04-12T08:22:44.292Z</time></trkpt><trkpt lat="43.9187313" lon="12.4231767"><ele>307.0</ele><time>2026-04-12T08:22:45.283Z</time></trkpt><trkpt lat="43.9188313" lon="12.4232115"><ele>307.0</ele><time>2026-04-12T08:22:46.295Z</time></trkpt><trkpt lat="43.9189316" lon="12.4232214"><ele>307.0</ele><time>2026-04-12T08:22:47.295Z</time></trkpt><trkpt lat="43.9190253" lon="12.423219"><ele>307.0</ele><time>2026-04-12T08:22:48.294Z</time></trkpt><trkpt lat="43.9191193" lon="12.423203"><ele>307.0</ele><time>2026-04-12T08:22:49.306Z</time></trkpt><trkpt lat="43.9192144" lon="12.4231813"><ele>307.0</ele><time>2026-04-12T08:22:50.293Z</time></trkpt><trkpt lat="43.9193043" lon="12.4231592"><ele>307.0</ele><time>2026-04-12T08:22:51.309Z</time></trkpt><trkpt lat="43.9193934" lon="12.4231368"><ele>307.0</ele><time>2026-04-12T08:22:52.298Z</time></trkpt><trkpt lat="43.9194781" lon="12.4231272"><ele>306.5</ele><time>2026-04-12T08:22:53.291Z</time></trkpt><trkpt lat="43.919566" lon="12.4231085"><ele>306.0</ele><time>2026-04-12T08:22:54.296Z</time></trkpt><trkpt lat="43.9196448" lon="12.4230971"><ele>305.5</ele><time>2026-04-12T08:22:55.27Z</time></trkpt><trkpt lat="43.9197317" lon="12.4230851"><ele>305.0</ele><time>2026-04-12T08:22:56.319Z</time></trkpt><trkpt lat="43.9198155" lon="12.4230797"><ele>304.5</ele><time>2026-04-12T08:22:57.295Z</time></trkpt><trkpt lat="43.9199021" lon="12.4230763"><ele>304.0</ele><time>2026-04-12T08:22:58.294Z</time></trkpt><trkpt lat="43.9199884" lon="12.4230827"><ele>302.2</ele><time>2026-04-12T08:22:59.255Z</time></trkpt><trkpt lat="43.9200724" lon="12.4231284"><ele>300.4</ele><time>2026-04-12T08:23:00.298Z</time></trkpt><trkpt lat="43.9201508" lon="12.4232053"><ele>298.6</ele><time>2026-04-12T08:23:01.26Z</time></trkpt><trkpt lat="43.9202189" lon="12.4233012"><ele>296.8</ele><time>2026-04-12T08:23:02.297Z</time></trkpt><trkpt lat="43.9202851" lon="12.4234167"><ele>295.0</ele><time>2026-04-12T08:23:03.302Z</time></trkpt><trkpt lat="43.9203612" lon="12.4234794"><ele>295.0</ele><time>2026-04-12T08:23:04.283Z</time></trkpt><trkpt lat="43.9204422" lon="12.4234995"><ele>295.0</ele><time>2026-04-12T08:23:05.289Z</time></trkpt><trkpt lat="43.9205378" lon="12.4234462"><ele>295.0</ele><time>2026-04-12T08:23:06.29Z</time></trkpt><trkpt lat="43.9206256" lon="12.4233604"><ele>295.0</ele><time>2026-04-12T08:23:07.3Z</time></trkpt><trkpt lat="43.9207024" lon="12.4232499"><ele>295.0</ele><time>2026-04-12T08:23:08.289Z</time></trkpt><trkpt lat="43.9207865" lon="12.4231493"><ele>295.0</ele><time>2026-04-12T08:23:09.307Z</time></trkpt><trkpt lat="43.9208622" lon="12.4230418"><ele>295.0</ele><time>2026-04-12T08:23:10.31Z</time></trkpt><trkpt lat="43.9209405" lon="12.4229466"><ele>295.0</ele><time>2026-04-12T08:23:11.287Z</time></trkpt><trkpt lat="43.9210105" lon="12.4229128"><ele>295.0</ele><time>2026-04-12T08:23:12.298Z</time></trkpt><trkpt lat="43.9210856" lon="12.4229484"><ele>295.0</ele><time>2026-04-12T08:23:13.273Z</time></trkpt><trkpt lat="43.9211494" lon="12.4230217"><ele>295.0</ele><time>2026-04-12T08:23:14.316Z</time></trkpt><trkpt lat="43.9211943" lon="12.4231502"><ele>289.5</ele><time>2026-04-12T08:23:15.29Z</time></trkpt><trkpt lat="43.9212275" lon="12.423293"><ele>284.0</ele><time>2026-04-12T08:23:16.288Z</time></trkpt><trkpt lat="43.9212775" lon="12.4234384"><ele>278.5</ele><time>2026-04-12T08:23:17.3Z</time></trkpt><trkpt lat="43.9213587" lon="12.4235643"><ele>273.0</ele><time>2026-04-12T08:23:18.284Z</time></trkpt><trkpt lat="43.9214625" lon="12.4236842"><ele>273.0</ele><time>2026-04-12T08:23:19.29Z</time></trkpt><trkpt lat="43.9215786" lon="12.4238038"><ele>273.0</ele><time>2026-04-12T08:23:20.283Z</time></trkpt><trkpt lat="43.9217091" lon="12.4239126"><ele>273.0</ele><time>2026-04-12T08:23:21.296Z</time></trkpt><trkpt lat="43.9218338" lon="12.4240279"><ele>273.0</ele><time>2026-04-12T08:23:22.305Z</time></trkpt><trkpt lat="43.9219531" lon="12.4241429"><ele>268.0</ele><time>2026-04-12T08:23:23.301Z</time></trkpt><trkpt lat="43.9220608" lon="12.4242385"><ele>263.0</ele><time>2026-04-12T08:23:24.289Z</time></trkpt><trkpt lat="43.9221688" lon="12.4242881"><ele>258.0</ele><time>2026-04-12T08:23:25.291Z</time></trkpt><trkpt lat="43.9222848" lon="12.4242963"><ele>253.0</ele><time>2026-04-12T08:23:26.299Z</time></trkpt><trkpt lat="43.9224013" lon="12.4242636"><ele>253.0</ele><time>2026-04-12T08:23:27.244Z</time></trkpt><trkpt lat="43.9224961" lon="12.4241958"><ele>253.0</ele><time>2026-04-12T08:23:28.277Z</time></trkpt><trkpt lat="43.9225824" lon="12.4240874"><ele>253.0</ele><time>2026-04-12T08:23:29.248Z</time></trkpt><trkpt lat="43.9226373" lon="12.4239425"><ele>253.0</ele><time>2026-04-12T08:23:30.3Z</time></trkpt><trkpt lat="43.9226586" lon="12.4237788"><ele>248.5</ele><time>2026-04-12T08:23:31.316Z</time></trkpt><trkpt lat="43.9226556" lon="12.4235969"><ele>244.0</ele><time>2026-04-12T08:23:32.246Z</time></trkpt><trkpt lat="43.9226366" lon="12.4234193"><ele>239.5</ele><time>2026-04-12T08:23:33.236Z</time></trkpt><trkpt lat="43.9226125" lon="12.4232385"><ele>235.0</ele><time>2026-04-12T08:23:34.284Z</time></trkpt><trkpt lat="43.9225907" lon="12.4230453"><ele>233.25</ele><time>2026-04-12T08:23:35.289Z</time></trkpt><trkpt lat="43.922586" lon="12.4228514"><ele>231.5</ele><time>2026-04-12T08:23:36.288Z</time></trkpt><trkpt lat="43.9225945" lon="12.4226516"><ele>229.75</ele><time>2026-04-12T08:23:37.239Z</time></trkpt><trkpt lat="43.9226214" lon="12.4224621"><ele>228.0</ele><time>2026-04-12T08:23:38.284Z</time></trkpt><trkpt lat="43.9226592" lon="12.4222787"><ele>226.8</ele><time>2026-04-12T08:23:39.29Z</time></trkpt><trkpt lat="43.922704" lon="12.4221269"><ele>225.60000000000002</ele><time>2026-04-12T08:23:40.292Z</time></trkpt><trkpt lat="43.9227593" lon="12.4220115"><ele>224.39999999999998</ele><time>2026-04-12T08:23:41.282Z</time></trkpt><trkpt lat="43.9228518" lon="12.4219407"><ele>223.2</ele><time>2026-04-12T08:23:42.255Z</time></trkpt><trkpt lat="43.9229577" lon="12.4219243"><ele>222.0</ele><time>2026-04-12T08:23:43.285Z</time></trkpt><trkpt lat="43.9230805" lon="12.4219571"><ele>222.0</ele><time>2026-04-12T08:23:44.316Z</time></trkpt><trkpt lat="43.9231876" lon="12.4220288"><ele>222.0</ele><time>2026-04-12T08:23:45.283Z</time></trkpt><trkpt lat="43.9232832" lon="12.4221257"><ele>222.0</ele><time>2026-04-12T08:23:46.243Z</time></trkpt><trkpt lat="43.9233668" lon="12.4222399"><ele>222.0</ele><time>2026-04-12T08:23:47.296Z</time></trkpt><trkpt lat="43.9234554" lon="12.4223469"><ele>220.0</ele><time>2026-04-12T08:23:48.302Z</time></trkpt><trkpt lat="43.9235568" lon="12.422449"><ele>218.0</ele><time>2026-04-12T08:23:49.317Z</time></trkpt><trkpt lat="43.923655" lon="12.4225503"><ele>216.0</ele><time>2026-04-12T08:23:50.291Z</time></trkpt><trkpt lat="43.92376" lon="12.4226282"><ele>214.0</ele><time>2026-04-12T08:23:51.296Z</time></trkpt><trkpt lat="43.9238617" lon="12.4226835"><ele>214.0</ele><time>2026-04-12T08:23:52.301Z</time></trkpt><trkpt lat="43.9239659" lon="12.4226873"><ele>213.99999999999997</ele><time>2026-04-12T08:23:53.277Z</time></trkpt><trkpt lat="43.9240688" lon="12.4226477"><ele>213.99999999999997</ele><time>2026-04-12T08:23:54.297Z</time></trkpt><trkpt lat="43.9241684" lon="12.4226035"><ele>214.0</ele><time>2026-04-12T08:23:55.308Z</time></trkpt><trkpt lat="43.9242652" lon="12.422554"><ele>214.0</ele><time>2026-04-12T08:23:56.269Z</time></trkpt><trkpt lat="43.9243598" lon="12.4225102"><ele>214.66666666666666</ele><time>2026-04-12T08:23:57.301Z</time></trkpt><trkpt lat="43.9244522" lon="12.4224695"><ele>215.33333333333331</ele><time>2026-04-12T08:23:58.291Z</time></trkpt><trkpt lat="43.9245452" lon="12.4224286"><ele>216.0</ele><time>2026-04-12T08:23:59.304Z</time></trkpt><trkpt lat="43.9246356" lon="12.4223951"><ele>216.66666666666669</ele><time>2026-04-12T08:24:00.292Z</time></trkpt><trkpt lat="43.9247081" lon="12.422359"><ele>217.33333333333334</ele><time>2026-04-12T08:24:01.31Z</time></trkpt><trkpt lat="43.9247729" lon="12.4223133"><ele>218.0</ele><time>2026-04-12T08:24:02.297Z</time></trkpt><trkpt lat="43.924834" lon="12.4222631"><ele>218.0</ele><time>2026-04-12T08:24:03.297Z</time></trkpt><trkpt lat="43.9248889" lon="12.4221896"><ele>218.0</ele><time>2026-04-12T08:24:04.314Z</time></trkpt><trkpt lat="43.924926" lon="12.4221121"><ele>218.0</ele><time>2026-04-12T08:24:05.302Z</time></trkpt><trkpt lat="43.9249643" lon="12.4219677"><ele>218.0</ele><time>2026-04-12T08:24:07.28Z</time></trkpt><trkpt lat="43.9249955" lon="12.4218104"><ele>218.0</ele><time>2026-04-12T08:24:09.293Z</time></trkpt><trkpt lat="43.9250237" lon="12.4216466"><ele>217.8</ele><time>2026-04-12T08:24:11.3Z</time></trkpt><trkpt lat="43.9250485" lon="12.4214816"><ele>217.60000000000002</ele><time>2026-04-12T08:24:13.296Z</time></trkpt><trkpt lat="43.9251092" lon="12.4213639"><ele>217.39999999999998</ele><time>2026-04-12T08:24:15.279Z</time></trkpt><trkpt lat="43.925206" lon="12.4213991"><ele>217.2</ele><time>2026-04-12T08:24:17.272Z</time></trkpt><trkpt lat="43.9252685" lon="12.4214524"><ele>217.0</ele><time>2026-04-12T08:24:19.286Z</time></trkpt><trkpt lat="43.9253515" lon="12.4214956"><ele>218.33333333333331</ele><time>2026-04-12T08:24:22.277Z</time></trkpt><trkpt lat="43.9254271" lon="12.4215345"><ele>219.66666666666666</ele><time>2026-04-12T08:24:25.3Z</time></trkpt><trkpt lat="43.9254971" lon="12.4215674"><ele>221.0</ele><time>2026-04-12T08:24:28.304Z</time></trkpt><trkpt lat="43.925577" lon="12.421587"><ele>222.33333333333331</ele><time>2026-04-12T08:24:31.291Z</time></trkpt><trkpt lat="43.9256564" lon="12.4216059"><ele>223.66666666666666</ele><time>2026-04-12T08:24:35.303Z</time></trkpt><trkpt lat="43.9257274" lon="12.4216292"><ele>225.0</ele><time>2026-04-12T08:24:39.265Z</time></trkpt><trkpt lat="43.9257856" lon="12.4216637"><ele>225.00000000000003</ele><time>2026-04-12T08:24:42.294Z</time></trkpt><trkpt lat="43.9258612" lon="12.4216877"><ele>225.0</ele><time>2026-04-12T08:24:46.243Z</time></trkpt><trkpt lat="43.9259403" lon="12.421715"><ele>225.00000000000003</ele><time>2026-04-12T08:24:50.297Z</time></trkpt><trkpt lat="43.9260112" lon="12.4217486"><ele>225.00000000000003</ele><time>2026-04-12T08:24:54.311Z</time></trkpt><trkpt lat="43.9260782" lon="12.4217853"><ele>225.0</ele><time>2026-04-12T08:24:58.28Z</time></trkpt><trkpt lat="43.92615" lon="12.4218103"><ele>225.00000000000003</ele><time>2026-04-12T08:25:02.291Z</time></trkpt><trkpt lat="43.9262121" lon="12.4218396"><ele>225.00000000000003</ele><time>2026-04-12T08:25:06.3Z</time></trkpt><trkpt lat="43.926284" lon="12.421873"><ele>227.0</ele><time>2026-04-12T08:25:10.3Z</time></trkpt><trkpt lat="43.9263566" lon="12.4219009"><ele>229.0</ele><time>2026-04-12T08:25:14.273Z</time></trkpt><trkpt lat="43.9264354" lon="12.4219326"><ele>231.0</ele><time>2026-04-12T08:25:18.303Z</time></trkpt><trkpt lat="43.9265153" lon="12.421959"><ele>233.0</ele><time>2026-04-12T08:25:22.298Z</time></trkpt><trkpt lat="43.926591" lon="12.4219751"><ele>235.0</ele><time>2026-04-12T08:25:26.275Z</time></trkpt><trkpt lat="43.9266729" lon="12.4219471"><ele>237.0</ele><time>2026-04-12T08:25:30.299Z</time></trkpt><trkpt lat="43.9267251" lon="12.4218865"><ele>238.1428571428571</ele><time>2026-04-12T08:25:34.294Z</time></trkpt><trkpt lat="43.9267605" lon="12.4217895"><ele>239.28571428571428</ele><time>2026-04-12T08:25:38.32Z</time></trkpt><trkpt lat="43.9267814" lon="12.4217002"><ele>240.42857142857142</ele><time>2026-04-12T08:25:41.312Z</time></trkpt><trkpt lat="43.9267985" lon="12.4216087"><ele>241.57142857142856</ele><time>2026-04-12T08:25:44.292Z</time></trkpt><trkpt lat="43.9268137" lon="12.4215172"><ele>242.71428571428572</ele><time>2026-04-12T08:25:47.305Z</time></trkpt><trkpt lat="43.9268329" lon="12.4214283"><ele>243.85714285714286</ele><time>2026-04-12T08:25:50.297Z</time></trkpt><trkpt lat="43.9268811" lon="12.421347"><ele>245.0</ele><time>2026-04-12T08:25:54.321Z</time></trkpt><trkpt lat="43.9269441" lon="12.4213002"><ele>245.0</ele><time>2026-04-12T08:25:57.296Z</time></trkpt><trkpt lat="43.927013" lon="12.421275"><ele>245.0</ele><time>2026-04-12T08:26:00.264Z</time></trkpt><trkpt lat="43.9270911" lon="12.4212864"><ele>245.0</ele><time>2026-04-12T08:26:04.331Z</time></trkpt><trkpt lat="43.9271565" lon="12.4213136"><ele>245.0</ele><time>2026-04-12T08:26:07.307Z</time></trkpt><trkpt lat="43.9272225" lon="12.4213385"><ele>245.0</ele><time>2026-04-12T08:26:10.293Z</time></trkpt><trkpt lat="43.9272959" lon="12.4213695"><ele>245.0</ele><time>2026-04-12T08:26:13.28Z</time></trkpt><trkpt lat="43.927356" lon="12.4214064"><ele>245.0</ele><time>2026-04-12T08:26:16.294Z</time></trkpt><trkpt lat="43.9274145" lon="12.4214543"><ele>245.00000000000003</ele><time>2026-04-12T08:26:20.304Z</time></trkpt><trkpt lat="43.9274797" lon="12.421526"><ele>245.0</ele><time>2026-04-12T08:26:24.312Z</time></trkpt><trkpt lat="43.9275231" lon="12.4216115"><ele>245.0</ele><time>2026-04-12T08:26:28.285Z</time></trkpt><trkpt lat="43.9275548" lon="12.4216923"><ele>245.0</ele><time>2026-04-12T08:26:31.285Z</time></trkpt><trkpt lat="43.9275845" lon="12.4217756"><ele>245.00000000000003</ele><time>2026-04-12T08:26:34.277Z</time></trkpt><trkpt lat="43.9276108" lon="12.4218816"><ele>245.0</ele><time>2026-04-12T08:26:38.299Z</time></trkpt><trkpt lat="43.9276392" lon="12.4219896"><ele>247.33333333333334</ele><time>2026-04-12T08:26:42.309Z</time></trkpt><trkpt lat="43.9276585" lon="12.422101"><ele>249.66666666666669</ele><time>2026-04-12T08:26:46.287Z</time></trkpt><trkpt lat="43.9276834" lon="12.4222118"><ele>252.0</ele><time>2026-04-12T08:26:50.289Z</time></trkpt><trkpt lat="43.9277065" lon="12.4222939"><ele>254.33333333333331</ele><time>2026-04-12T08:26:53.302Z</time></trkpt><trkpt lat="43.9277436" lon="12.4223869"><ele>256.66666666666663</ele><time>2026-04-12T08:26:57.289Z</time></trkpt><trkpt lat="43.9278096" lon="12.4224523"><ele>259.0</ele><time>2026-04-12T08:27:01.3Z</time></trkpt><trkpt lat="43.9278819" lon="12.4224869"><ele>259.57142857142856</ele><time>2026-04-12T08:27:05.291Z</time></trkpt><trkpt lat="43.9279535" lon="12.4224786"><ele>260.1428571428571</ele><time>2026-04-12T08:27:09.317Z</time></trkpt><trkpt lat="43.9280148" lon="12.4224494"><ele>260.7142857142857</ele><time>2026-04-12T08:27:12.292Z</time></trkpt><trkpt lat="43.9280824" lon="12.4224774"><ele>261.2857142857143</ele><time>2026-04-12T08:27:17.305Z</time></trkpt><trkpt lat="43.9280325" lon="12.4225674"><ele>261.85714285714283</ele><time>2026-04-12T08:27:22.279Z</time></trkpt><trkpt lat="43.9279636" lon="12.4226081"><ele>262.42857142857144</ele><time>2026-04-12T08:27:27.29Z</time></trkpt><trkpt lat="43.9279049" lon="12.4226509"><ele>263.0</ele><time>2026-04-12T08:27:31.308Z</time></trkpt><trkpt lat="43.9278388" lon="12.4226774"><ele>263.0</ele><time>2026-04-12T08:27:35.261Z</time></trkpt><trkpt lat="43.9277786" lon="12.4227279"><ele>263.0</ele><time>2026-04-12T08:27:39.299Z</time></trkpt><trkpt lat="43.9277199" lon="12.422821"><ele>263.0</ele><time>2026-04-12T08:27:43.265Z</time></trkpt><trkpt lat="43.9276787" lon="12.4229323"><ele>263.0</ele><time>2026-04-12T08:27:46.286Z</time></trkpt><trkpt lat="43.9276574" lon="12.423041"><ele>263.0</ele><time>2026-04-12T08:27:48.302Z</time></trkpt><trkpt lat="43.9276529" lon="12.4231892"><ele>263.0</ele><time>2026-04-12T08:27:50.271Z</time></trkpt><trkpt lat="43.9276575" lon="12.4233592"><ele>264.2</ele><time>2026-04-12T08:27:52.277Z</time></trkpt><trkpt lat="43.9276796" lon="12.4235134"><ele>265.4</ele><time>2026-04-12T08:27:54.305Z</time></trkpt><trkpt lat="43.9277069" lon="12.4236453"><ele>266.59999999999997</ele><time>2026-04-12T08:27:56.284Z</time></trkpt><trkpt lat="43.9277312" lon="12.4237731"><ele>267.8</ele><time>2026-04-12T08:27:58.299Z</time></trkpt><trkpt lat="43.9277311" lon="12.423899"><ele>269.0</ele><time>2026-04-12T08:28:00.268Z</time></trkpt><trkpt lat="43.9276931" lon="12.4240058"><ele>269.57142857142856</ele><time>2026-04-12T08:28:02.309Z</time></trkpt><trkpt lat="43.9276204" lon="12.4240734"><ele>270.14285714285717</ele><time>2026-04-12T08:28:04.241Z</time></trkpt><trkpt lat="43.9275353" lon="12.4241028"><ele>270.7142857142857</ele><time>2026-04-12T08:28:06.237Z</time></trkpt><trkpt lat="43.9274694" lon="12.4241353"><ele>271.2857142857143</ele><time>2026-04-12T08:28:09.279Z</time></trkpt><trkpt lat="43.9274118" lon="12.4241791"><ele>271.8571428571429</ele><time>2026-04-12T08:28:13.305Z</time></trkpt><trkpt lat="43.9273437" lon="12.4242073"><ele>272.42857142857144</ele><time>2026-04-12T08:28:18.301Z</time></trkpt><trkpt lat="43.9272877" lon="12.4242494"><ele>273.0</ele><time>2026-04-12T08:28:22.278Z</time></trkpt><trkpt lat="43.9272461" lon="12.4243284"><ele>273.57142857142856</ele><time>2026-04-12T08:28:26.289Z</time></trkpt><trkpt lat="43.9272103" lon="12.4244325"><ele>274.1428571428571</ele><time>2026-04-12T08:28:30.289Z</time></trkpt><trkpt lat="43.9271942" lon="12.4245394"><ele>274.7142857142857</ele><time>2026-04-12T08:28:35.234Z</time></trkpt><trkpt lat="43.9271756" lon="12.4246303"><ele>275.2857142857143</ele><time>2026-04-12T08:28:40.284Z</time></trkpt><trkpt lat="43.9271628" lon="12.4247195"><ele>275.85714285714283</ele><time>2026-04-12T08:28:44.291Z</time></trkpt><trkpt lat="43.9271457" lon="12.4248047"><ele>276.42857142857144</ele><time>2026-04-12T08:28:48.249Z</time></trkpt><trkpt lat="43.9271206" lon="12.4248967"><ele>277.0</ele><time>2026-04-12T08:28:54.297Z</time></trkpt><trkpt lat="43.927094" lon="12.4249883"><ele>277.0</ele><time>2026-04-12T08:28:59.307Z</time></trkpt><trkpt lat="43.9270573" lon="12.4250809"><ele>277.0</ele><time>2026-04-12T08:29:04.285Z</time></trkpt><trkpt lat="43.9270233" lon="12.4251644"><ele>277.0</ele><time>2026-04-12T08:29:09.283Z</time></trkpt><trkpt lat="43.9269787" lon="12.4252284"><ele>277.0</ele><time>2026-04-12T08:29:13.301Z</time></trkpt><trkpt lat="43.9269168" lon="12.4252793"><ele>277.0</ele><time>2026-04-12T08:29:18.295Z</time></trkpt><trkpt lat="43.9268503" lon="12.4253191"><ele>277.0</ele><time>2026-04-12T08:29:23.285Z</time></trkpt><trkpt lat="43.9267846" lon="12.4253538"><ele>277.0</ele><time>2026-04-12T08:29:27.263Z</time></trkpt><trkpt lat="43.9267095" lon="12.4253573"><ele>277.57142857142856</ele><time>2026-04-12T08:29:32.277Z</time></trkpt><trkpt lat="43.926644" lon="12.4253859"><ele>278.1428571428571</ele><time>2026-04-12T08:29:37.302Z</time></trkpt><trkpt lat="43.9265725" lon="12.4254206"><ele>278.7142857142857</ele><time>2026-04-12T08:29:43.28Z</time></trkpt><trkpt lat="43.9265279" lon="12.4254913"><ele>279.2857142857143</ele><time>2026-04-12T08:29:48.234Z</time></trkpt><trkpt lat="43.9265516" lon="12.4255853"><ele>279.8571428571429</ele><time>2026-04-12T08:29:53.293Z</time></trkpt><trkpt lat="43.9266069" lon="12.4256355"><ele>280.42857142857144</ele><time>2026-04-12T08:29:58.269Z</time></trkpt><trkpt lat="43.9266718" lon="12.4256606"><ele>281.0</ele><time>2026-04-12T08:30:03.312Z</time></trkpt><trkpt lat="43.9267373" lon="12.4256707"><ele>283.14285714285717</ele><time>2026-04-12T08:30:08.309Z</time></trkpt><trkpt lat="43.9268083" lon="12.4257068"><ele>285.2857142857143</ele><time>2026-04-12T08:30:13.288Z</time></trkpt><trkpt lat="43.9268607" lon="12.4257637"><ele>287.42857142857144</ele><time>2026-04-12T08:30:17.304Z</time></trkpt><trkpt lat="43.9269213" lon="12.4258062"><ele>289.57142857142856</ele><time>2026-04-12T08:30:21.301Z</time></trkpt><trkpt lat="43.9269905" lon="12.4258479"><ele>291.7142857142857</ele><time>2026-04-12T08:30:26.304Z</time></trkpt><trkpt lat="43.9270523" lon="12.4258879"><ele>293.8571428571429</ele><time>2026-04-12T08:30:32.291Z</time></trkpt><trkpt lat="43.9271083" lon="12.4259342"><ele>296.0</ele><time>2026-04-12T08:30:37.301Z</time></trkpt><trkpt lat="43.9271773" lon="12.4259196"><ele>296.0</ele><time>2026-04-12T08:30:42.302Z</time></trkpt><trkpt lat="43.9272493" lon="12.4259255"><ele>296.0</ele><time>2026-04-12T08:30:47.292Z</time></trkpt><trkpt lat="43.9273171" lon="12.4259276"><ele>296.0</ele><time>2026-04-12T08:30:52.304Z</time></trkpt><trkpt lat="43.9273868" lon="12.4259168"><ele>296.0</ele><time>2026-04-12T08:30:57.268Z</time></trkpt><trkpt lat="43.9274522" lon="12.425943"><ele>296.0</ele><time>2026-04-12T08:31:03.281Z</time></trkpt><trkpt lat="43.927516" lon="12.4259648"><ele>296.0</ele><time>2026-04-12T08:31:09.291Z</time></trkpt><trkpt lat="43.9275889" lon="12.425991"><ele>296.0</ele><time>2026-04-12T08:31:16.306Z</time></trkpt><trkpt lat="43.9276558" lon="12.4259969"><ele>298.2857142857143</ele><time>2026-04-12T08:31:22.229Z</time></trkpt><trkpt lat="43.9277279" lon="12.4260048"><ele>300.57142857142856</ele><time>2026-04-12T08:31:29.27Z</time></trkpt><trkpt lat="43.9277903" lon="12.4260315"><ele>302.8571428571429</ele><time>2026-04-12T08:31:37.283Z</time></trkpt><trkpt lat="43.9278579" lon="12.4260392"><ele>305.1428571428571</ele><time>2026-04-12T08:31:43.287Z</time></trkpt><trkpt lat="43.9279294" lon="12.426049"><ele>307.4285714285714</ele><time>2026-04-12T08:31:48.284Z</time></trkpt><trkpt lat="43.9279932" lon="12.426027"><ele>309.7142857142857</ele><time>2026-04-12T08:31:53.296Z</time></trkpt><trkpt lat="43.9280582" lon="12.4260535"><ele>312.0</ele><time>2026-04-12T08:31:57.281Z</time></trkpt><trkpt lat="43.9281386" lon="12.4260903"><ele>312.0</ele><time>2026-04-12T08:32:02.285Z</time></trkpt><trkpt lat="43.9282087" lon="12.4260557"><ele>312.0</ele><time>2026-04-12T08:32:07.292Z</time></trkpt><trkpt lat="43.928267" lon="12.4260148"><ele>312.0</ele><time>2026-04-12T08:32:10.293Z</time></trkpt><trkpt lat="43.9283219" lon="12.4259615"><ele>312.0</ele><time>2026-04-12T08:32:12.3Z</time></trkpt><trkpt lat="43.9283852" lon="12.4258948"><ele>312.0</ele><time>2026-04-12T08:32:15.297Z</time></trkpt><trkpt lat="43.928441" lon="12.4258448"><ele>312.0</ele><time>2026-04-12T08:32:19.301Z</time></trkpt><trkpt lat="43.9285096" lon="12.4258386"><ele>312.0</ele><time>2026-04-12T08:32:23.3Z</time></trkpt><trkpt lat="43.9285738" lon="12.4258525"><ele>314.14285714285717</ele><time>2026-04-12T08:32:27.293Z</time></trkpt><trkpt lat="43.928631" lon="12.4259031"><ele>316.2857142857143</ele><time>2026-04-12T08:32:31.288Z</time></trkpt><trkpt lat="43.9286924" lon="12.4259512"><ele>318.42857142857144</ele><time>2026-04-12T08:32:35.288Z</time></trkpt><trkpt lat="43.928744" lon="12.4260218"><ele>320.57142857142856</ele><time>2026-04-12T08:32:40.296Z</time></trkpt><trkpt lat="43.9287805" lon="12.4261048"><ele>322.7142857142857</ele><time>2026-04-12T08:32:46.28Z</time></trkpt><trkpt lat="43.9288185" lon="12.4261889"><ele>324.85714285714283</ele><time>2026-04-12T08:32:51.3Z</time></trkpt><trkpt lat="43.92886" lon="12.4262724"><ele>327.0</ele><time>2026-04-12T08:32:56.308Z</time></trkpt><trkpt lat="43.9289153" lon="12.4263283"><ele>327.0</ele><time>2026-04-12T08:33:01.306Z</time></trkpt><trkpt lat="43.9289944" lon="12.4263626"><ele>327.0</ele><time>2026-04-12T08:33:07.306Z</time></trkpt><trkpt lat="43.9290647" lon="12.4263584"><ele>327.0</ele><time>2026-04-12T08:33:11.308Z</time></trkpt><trkpt lat="43.9291331" lon="12.4263474"><ele>327.0</ele><time>2026-04-12T08:33:16.304Z</time></trkpt><trkpt lat="43.9292034" lon="12.4263507"><ele>327.0</ele><time>2026-04-12T08:33:21.29Z</time></trkpt><trkpt lat="43.9292691" lon="12.4263513"><ele>327.0</ele><time>2026-04-12T08:33:27.305Z</time></trkpt><trkpt lat="43.9293413" lon="12.4263403"><ele>327.0</ele><time>2026-04-12T08:33:32.296Z</time></trkpt><trkpt lat="43.9294135" lon="12.4263057"><ele>329.2857142857143</ele><time>2026-04-12T08:33:37.297Z</time></trkpt><trkpt lat="43.9294794" lon="12.4262397"><ele>331.57142857142856</ele><time>2026-04-12T08:33:41.287Z</time></trkpt><trkpt lat="43.9295348" lon="12.42619"><ele>333.8571428571429</ele><time>2026-04-12T08:33:46.295Z</time></trkpt><trkpt lat="43.9295987" lon="12.42616"><ele>336.1428571428571</ele><time>2026-04-12T08:33:50.291Z</time></trkpt><trkpt lat="43.929666" lon="12.4261279"><ele>338.42857142857144</ele><time>2026-04-12T08:33:54.317Z</time></trkpt><trkpt lat="43.9297365" lon="12.4260924"><ele>340.7142857142857</ele><time>2026-04-12T08:33:57.301Z</time></trkpt><trkpt lat="43.9298074" lon="12.4260731"><ele>343.0</ele><time>2026-04-12T08:34:00.319Z</time></trkpt><trkpt lat="43.9298731" lon="12.426045"><ele>343.0</ele><time>2026-04-12T08:34:03.297Z</time></trkpt><trkpt lat="43.9299416" lon="12.4260173"><ele>343.0</ele><time>2026-04-12T08:34:06.304Z</time></trkpt><trkpt lat="43.9300142" lon="12.4259983"><ele>343.0</ele><time>2026-04-12T08:34:10.269Z</time></trkpt><trkpt lat="43.9300877" lon="12.4259996"><ele>343.0</ele><time>2026-04-12T08:34:16.296Z</time></trkpt><trkpt lat="43.9301596" lon="12.4259763"><ele>343.0</ele><time>2026-04-12T08:34:22.304Z</time></trkpt><trkpt lat="43.930219" lon="12.4259363"><ele>343.0</ele><time>2026-04-12T08:34:26.306Z</time></trkpt><trkpt lat="43.9302776" lon="12.425903"><ele>343.0</ele><time>2026-04-12T08:34:30.299Z</time></trkpt><trkpt lat="43.9303459" lon="12.4258798"><ele>344.2857142857143</ele><time>2026-04-12T08:34:34.287Z</time></trkpt><trkpt lat="43.9304131" lon="12.425856"><ele>345.57142857142856</ele><time>2026-04-12T08:34:39.301Z</time></trkpt><trkpt lat="43.9304855" lon="12.4258369"><ele>346.8571428571429</ele><time>2026-04-12T08:34:44.291Z</time></trkpt><trkpt lat="43.9305445" lon="12.4258001"><ele>348.1428571428571</ele><time>2026-04-12T08:34:48.269Z</time></trkpt><trkpt lat="43.9306113" lon="12.4257669"><ele>349.42857142857144</ele><time>2026-04-12T08:34:53.298Z</time></trkpt><trkpt lat="43.9306819" lon="12.4257454"><ele>350.7142857142857</ele><time>2026-04-12T08:34:58.297Z</time></trkpt><trkpt lat="43.9307545" lon="12.4257153"><ele>352.0</ele><time>2026-04-12T08:35:03.3Z</time></trkpt><trkpt lat="43.9308302" lon="12.4257115"><ele>352.8571428571429</ele><time>2026-04-12T08:35:08.292Z</time></trkpt><trkpt lat="43.9309036" lon="12.4256756"><ele>353.7142857142857</ele><time>2026-04-12T08:35:14.3Z</time></trkpt><trkpt lat="43.9309646" lon="12.4256391"><ele>354.57142857142856</ele><time>2026-04-12T08:35:18.297Z</time></trkpt><trkpt lat="43.9310363" lon="12.425607"><ele>355.42857142857144</ele><time>2026-04-12T08:35:23.296Z</time></trkpt><trkpt lat="43.9310986" lon="12.4255533"><ele>356.2857142857143</ele><time>2026-04-12T08:35:29.276Z</time></trkpt><trkpt lat="43.9311664" lon="12.4255161"><ele>357.14285714285717</ele><time>2026-04-12T08:35:34.296Z</time></trkpt><trkpt lat="43.9312397" lon="12.425519"><ele>358.0</ele><time>2026-04-12T08:35:40.284Z</time></trkpt><trkpt lat="43.9313084" lon="12.4255451"><ele>358.0</ele><time>2026-04-12T08:35:45.282Z</time></trkpt><trkpt lat="43.931375" lon="12.4255541"><ele>358.0</ele><time>2026-04-12T08:35:49.232Z</time></trkpt><trkpt lat="43.9314545" lon="12.4255799"><ele>358.0</ele><time>2026-04-12T08:35:53.297Z</time></trkpt><trkpt lat="43.9315155" lon="12.4256331"><ele>358.0</ele><time>2026-04-12T08:35:56.304Z</time></trkpt><trkpt lat="43.9315741" lon="12.4256816"><ele>358.0</ele><time>2026-04-12T08:35:58.294Z</time></trkpt><trkpt lat="43.931644" lon="12.4257722"><ele>358.0</ele><time>2026-04-12T08:36:00.28Z</time></trkpt><trkpt lat="43.9317012" lon="12.4258707"><ele>358.16666666666663</ele><time>2026-04-12T08:36:02.266Z</time></trkpt><trkpt lat="43.9317675" lon="12.4259668"><ele>358.3333333333333</ele><time>2026-04-12T08:36:04.298Z</time></trkpt><trkpt lat="43.9318315" lon="12.4260679"><ele>358.5</ele><time>2026-04-12T08:36:06.311Z</time></trkpt><trkpt lat="43.9318585" lon="12.4261585"><ele>358.6666666666667</ele><time>2026-04-12T08:36:08.319Z</time></trkpt><trkpt lat="43.9318686" lon="12.4262471"><ele>358.83333333333337</ele><time>2026-04-12T08:36:10.289Z</time></trkpt><trkpt lat="43.9318863" lon="12.4263622"><ele>359.0</ele><time>2026-04-12T08:36:12.298Z</time></trkpt><trkpt lat="43.931919" lon="12.4264612"><ele>359.0</ele><time>2026-04-12T08:36:14.305Z</time></trkpt><trkpt lat="43.9319369" lon="12.4265703"><ele>359.0</ele><time>2026-04-12T08:36:16.304Z</time></trkpt><trkpt lat="43.9319664" lon="12.4266755"><ele>359.0</ele><time>2026-04-12T08:36:18.274Z</time></trkpt><trkpt lat="43.9319997" lon="12.4267617"><ele>359.0</ele><time>2026-04-12T08:36:20.3Z</time></trkpt><trkpt lat="43.9320551" lon="12.426862"><ele>359.0</ele><time>2026-04-12T08:36:22.305Z</time></trkpt><trkpt lat="43.9321192" lon="12.4269413"><ele>359.0</ele><time>2026-04-12T08:36:24.255Z</time></trkpt><trkpt lat="43.9322166" lon="12.4269914"><ele>359.0</ele><time>2026-04-12T08:36:26.291Z</time></trkpt><trkpt lat="43.9323261" lon="12.4270326"><ele>359.0</ele><time>2026-04-12T08:36:28.277Z</time></trkpt><trkpt lat="43.9324375" lon="12.4270666"><ele>359.0</ele><time>2026-04-12T08:36:30.258Z</time></trkpt><trkpt lat="43.9325543" lon="12.4271047"><ele>359.0</ele><time>2026-04-12T08:36:32.292Z</time></trkpt><trkpt lat="43.9326178" lon="12.427124"><ele>359.0</ele><time>2026-04-12T08:36:33.298Z</time></trkpt><trkpt lat="43.9327228" lon="12.4271743"><ele>358.0</ele><time>2026-04-12T08:36:35.296Z</time></trkpt><trkpt lat="43.9327865" lon="12.4271896"><ele>357.0</ele><time>2026-04-12T08:36:36.277Z</time></trkpt><trkpt lat="43.9329117" lon="12.427214"><ele>356.0</ele><time>2026-04-12T08:36:38.3Z</time></trkpt><trkpt lat="43.933031" lon="12.4272051"><ele>355.0</ele><time>2026-04-12T08:36:40.272Z</time></trkpt><trkpt lat="43.9331419" lon="12.4272054"><ele>354.0</ele><time>2026-04-12T08:36:42.304Z</time></trkpt><trkpt lat="43.9332613" lon="12.4271919"><ele>354.0</ele><time>2026-04-12T08:36:44.307Z</time></trkpt><trkpt lat="43.9333698" lon="12.4271707"><ele>354.0</ele><time>2026-04-12T08:36:46.3Z</time></trkpt><trkpt lat="43.9334707" lon="12.4271583"><ele>354.0</ele><time>2026-04-12T08:36:48.311Z</time></trkpt><trkpt lat="43.9335765" lon="12.4271499"><ele>354.0</ele><time>2026-04-12T08:36:50.299Z</time></trkpt><trkpt lat="43.933698" lon="12.427153"><ele>354.0</ele><time>2026-04-12T08:36:52.297Z</time></trkpt><trkpt lat="43.9338078" lon="12.4271612"><ele>354.0</ele><time>2026-04-12T08:36:54.305Z</time></trkpt><trkpt lat="43.9339101" lon="12.4271917"><ele>354.0</ele><time>2026-04-12T08:36:56.308Z</time></trkpt><trkpt lat="43.9340119" lon="12.4272329"><ele>354.0</ele><time>2026-04-12T08:36:58.295Z</time></trkpt><trkpt lat="43.9341077" lon="12.4272661"><ele>354.0</ele><time>2026-04-12T08:37:00.257Z</time></trkpt><trkpt lat="43.9341911" lon="12.4272949"><ele>354.0</ele><time>2026-04-12T08:37:02.249Z</time></trkpt><trkpt lat="43.9342698" lon="12.4273345"><ele>354.0</ele><time>2026-04-12T08:37:04.285Z</time></trkpt><trkpt lat="43.9343491" lon="12.427374"><ele>354.0</ele><time>2026-04-12T08:37:06.299Z</time></trkpt><trkpt lat="43.9344173" lon="12.4274114"><ele>354.0</ele><time>2026-04-12T08:37:08.289Z</time></trkpt><trkpt lat="43.9344842" lon="12.4274502"><ele>354.0</ele><time>2026-04-12T08:37:10.283Z</time></trkpt><trkpt lat="43.9345479" lon="12.4274979"><ele>354.0</ele><time>2026-04-12T08:37:12.263Z</time></trkpt><trkpt lat="43.9345902" lon="12.4275757"><ele>354.0</ele><time>2026-04-12T08:37:14.3Z</time></trkpt><trkpt lat="43.9346179" lon="12.4276545"><ele>354.0</ele><time>2026-04-12T08:37:16.245Z</time></trkpt><trkpt lat="43.9346357" lon="12.4277387"><ele>354.0</ele><time>2026-04-12T08:37:18.3Z</time></trkpt><trkpt lat="43.934642" lon="12.4278563"><ele>354.0</ele><time>2026-04-12T08:37:21.288Z</time></trkpt><trkpt lat="43.9346523" lon="12.4279643"><ele>354.0</ele><time>2026-04-12T08:37:24.302Z</time></trkpt><trkpt lat="43.9346718" lon="12.4280659"><ele>354.0</ele><time>2026-04-12T08:37:27.306Z</time></trkpt><trkpt lat="43.9346909" lon="12.4281807"><ele>354.0</ele><time>2026-04-12T08:37:30.279Z</time></trkpt><trkpt lat="43.9347032" lon="12.4283039"><ele>354.0</ele><time>2026-04-12T08:37:33.291Z</time></trkpt><trkpt lat="43.9347145" lon="12.4284043"><ele>355.5714285714286</ele><time>2026-04-12T08:37:36.301Z</time></trkpt><trkpt lat="43.9347097" lon="12.4284941"><ele>357.1428571428571</ele><time>2026-04-12T08:37:39.287Z</time></trkpt><trkpt lat="43.9347254" lon="12.4285843"><ele>358.7142857142857</ele><time>2026-04-12T08:38:13.296Z</time></trkpt><trkpt lat="43.934744" lon="12.4286819"><ele>360.28571428571433</ele><time>2026-04-12T08:38:16.299Z</time></trkpt><trkpt lat="43.93477" lon="12.4287742"><ele>361.8571428571429</ele><time>2026-04-12T08:38:19.29Z</time></trkpt><trkpt lat="43.9348017" lon="12.4288505"><ele>363.42857142857144</ele><time>2026-04-12T08:38:22.264Z</time></trkpt><trkpt lat="43.9348371" lon="12.4289299"><ele>365.0</ele><time>2026-04-12T08:38:25.297Z</time></trkpt><trkpt lat="43.9348922" lon="12.4289821"><ele>366.14285714285717</ele><time>2026-04-12T08:38:28.323Z</time></trkpt><trkpt lat="43.9349431" lon="12.4290371"><ele>367.2857142857143</ele><time>2026-04-12T08:38:31.298Z</time></trkpt><trkpt lat="43.9350003" lon="12.4290794"><ele>368.42857142857144</ele><time>2026-04-12T08:38:34.296Z</time></trkpt><trkpt lat="43.9350738" lon="12.4291189"><ele>369.57142857142856</ele><time>2026-04-12T08:38:38.269Z</time></trkpt><trkpt lat="43.9351448" lon="12.4291354"><ele>370.7142857142857</ele><time>2026-04-12T08:38:41.309Z</time></trkpt><trkpt lat="43.9352146" lon="12.4291539"><ele>371.8571428571429</ele><time>2026-04-12T08:38:44.299Z</time></trkpt><trkpt lat="43.9352882" lon="12.4291735"><ele>373.0</ele><time>2026-04-12T08:38:47.261Z</time></trkpt><trkpt lat="43.9353672" lon="12.4291831"><ele>374.42857142857144</ele><time>2026-04-12T08:38:51.308Z</time></trkpt><trkpt lat="43.935443" lon="12.4291864"><ele>375.8571428571429</ele><time>2026-04-12T08:38:54.299Z</time></trkpt><trkpt lat="43.9355066" lon="12.429198"><ele>377.2857142857143</ele><time>2026-04-12T08:38:57.297Z</time></trkpt><trkpt lat="43.9355869" lon="12.4292118"><ele>378.7142857142857</ele><time>2026-04-12T08:39:01.31Z</time></trkpt><trkpt lat="43.9356598" lon="12.4292192"><ele>380.1428571428571</ele><time>2026-04-12T08:39:05.298Z</time></trkpt><trkpt lat="43.9357373" lon="12.4292223"><ele>381.57142857142856</ele><time>2026-04-12T08:39:09.315Z</time></trkpt><trkpt lat="43.9358052" lon="12.4292311"><ele>383.0</ele><time>2026-04-12T08:39:12.307Z</time></trkpt><trkpt lat="43.935871" lon="12.4292448"><ele>384.33333333333337</ele><time>2026-04-12T08:39:15.295Z</time></trkpt><trkpt lat="43.9359507" lon="12.4292552"><ele>385.6666666666667</ele><time>2026-04-12T08:39:19.267Z</time></trkpt><trkpt lat="43.9360331" lon="12.4292625"><ele>387.0</ele><time>2026-04-12T08:39:23.3Z</time></trkpt><trkpt lat="43.9361082" lon="12.4292736"><ele>388.33333333333337</ele><time>2026-04-12T08:39:27.27Z</time></trkpt><trkpt lat="43.9361849" lon="12.4292863"><ele>389.6666666666667</ele><time>2026-04-12T08:39:31.286Z</time></trkpt><trkpt lat="43.9362515" lon="12.4293345"><ele>391.0</ele><time>2026-04-12T08:39:35.3Z</time></trkpt><trkpt lat="43.9362967" lon="12.42941"><ele>391.00000000000006</ele><time>2026-04-12T08:39:39.277Z</time></trkpt><trkpt lat="43.936292" lon="12.4295077"><ele>391.0</ele><time>2026-04-12T08:39:43.291Z</time></trkpt><trkpt lat="43.9362554" lon="12.4295852"><ele>391.0</ele><time>2026-04-12T08:39:47.259Z</time></trkpt><trkpt lat="43.936203" lon="12.4296711"><ele>391.0</ele><time>2026-04-12T08:39:51.296Z</time></trkpt><trkpt lat="43.9361418" lon="12.429749"><ele>391.00000000000006</ele><time>2026-04-12T08:39:55.305Z</time></trkpt><trkpt lat="43.9360879" lon="12.4298085"><ele>391.0</ele><time>2026-04-12T08:39:58.303Z</time></trkpt><trkpt lat="43.9360292" lon="12.4298835"><ele>391.71428571428567</ele><time>2026-04-12T08:40:02.322Z</time></trkpt><trkpt lat="43.9359692" lon="12.429952"><ele>392.42857142857144</ele><time>2026-04-12T08:40:06.251Z</time></trkpt><trkpt lat="43.9359102" lon="12.4300244"><ele>393.1428571428571</ele><time>2026-04-12T08:40:10.28Z</time></trkpt><trkpt lat="43.9358537" lon="12.4300792"><ele>393.85714285714283</ele><time>2026-04-12T08:40:13.306Z</time></trkpt><trkpt lat="43.935802" lon="12.4301388"><ele>394.57142857142856</ele><time>2026-04-12T08:40:16.306Z</time></trkpt><trkpt lat="43.9357479" lon="12.4302082"><ele>395.2857142857143</ele><time>2026-04-12T08:40:19.32Z</time></trkpt><trkpt lat="43.9356999" lon="12.4302689"><ele>396.0</ele><time>2026-04-12T08:40:22.246Z</time></trkpt><trkpt lat="43.9356532" lon="12.4303283"><ele>396.0</ele><time>2026-04-12T08:40:25.307Z</time></trkpt><trkpt lat="43.9355977" lon="12.4304115"><ele>396.0</ele><time>2026-04-12T08:40:29.292Z</time></trkpt><trkpt lat="43.935557" lon="12.4304834"><ele>396.0</ele><time>2026-04-12T08:40:32.309Z</time></trkpt><trkpt lat="43.9355234" lon="12.4305597"><ele>396.0</ele><time>2026-04-12T08:40:35.285Z</time></trkpt><trkpt lat="43.9355004" lon="12.4306472"><ele>396.0</ele><time>2026-04-12T08:40:38.277Z</time></trkpt><trkpt lat="43.9354898" lon="12.4307356"><ele>396.0</ele><time>2026-04-12T08:40:41.288Z</time></trkpt><trkpt lat="43.9354882" lon="12.4308237"><ele>396.0</ele><time>2026-04-12T08:40:44.265Z</time></trkpt><trkpt lat="43.9354991" lon="12.4309111"><ele>397.2857142857143</ele><time>2026-04-12T08:40:47.285Z</time></trkpt><trkpt lat="43.9355275" lon="12.4309982"><ele>398.57142857142856</ele><time>2026-04-12T08:40:50.27Z</time></trkpt><trkpt lat="43.9355636" lon="12.4310791"><ele>399.85714285714283</ele><time>2026-04-12T08:40:53.292Z</time></trkpt><trkpt lat="43.9356167" lon="12.4311696"><ele>401.1428571428571</ele><time>2026-04-12T08:40:57.287Z</time></trkpt><trkpt lat="43.9356721" lon="12.4312288"><ele>402.42857142857144</ele><time>2026-04-12T08:41:00.307Z</time></trkpt><trkpt lat="43.9357307" lon="12.4312763"><ele>403.71428571428567</ele><time>2026-04-12T08:41:03.281Z</time></trkpt><trkpt lat="43.9357931" lon="12.4313189"><ele>405.0</ele><time>2026-04-12T08:41:06.278Z</time></trkpt><trkpt lat="43.9358866" lon="12.4313575"><ele>406.71428571428567</ele><time>2026-04-12T08:41:10.273Z</time></trkpt><trkpt lat="43.9359505" lon="12.4313782"><ele>408.42857142857144</ele><time>2026-04-12T08:41:13.261Z</time></trkpt><trkpt lat="43.9360186" lon="12.4314031"><ele>410.1428571428571</ele><time>2026-04-12T08:41:16.263Z</time></trkpt><trkpt lat="43.9360795" lon="12.4314314"><ele>411.85714285714283</ele><time>2026-04-12T08:41:19.301Z</time></trkpt><trkpt lat="43.9361445" lon="12.4314638"><ele>413.57142857142856</ele><time>2026-04-12T08:41:22.315Z</time></trkpt><trkpt lat="43.9362003" lon="12.4315066"><ele>415.2857142857143</ele><time>2026-04-12T08:41:25.316Z</time></trkpt><trkpt lat="43.936258" lon="12.4315469"><ele>417.0</ele><time>2026-04-12T08:41:28.301Z</time></trkpt><trkpt lat="43.9363154" lon="12.4315965"><ele>417.0</ele><time>2026-04-12T08:41:31.291Z</time></trkpt><trkpt lat="43.9363864" lon="12.4316706"><ele>417.0</ele><time>2026-04-12T08:41:35.295Z</time></trkpt><trkpt lat="43.93644" lon="12.4317346"><ele>417.0</ele><time>2026-04-12T08:41:38.298Z</time></trkpt><trkpt lat="43.9364878" lon="12.4317977"><ele>417.0</ele><time>2026-04-12T08:41:41.305Z</time></trkpt><trkpt lat="43.936536" lon="12.4318649"><ele>417.0</ele><time>2026-04-12T08:41:44.305Z</time></trkpt><trkpt lat="43.9366006" lon="12.4319266"><ele>417.0</ele><time>2026-04-12T08:41:47.305Z</time></trkpt><trkpt lat="43.9366474" lon="12.4319953"><ele>417.0</ele><time>2026-04-12T08:41:50.246Z</time></trkpt><trkpt lat="43.9367007" lon="12.4320672"><ele>418.2857142857143</ele><time>2026-04-12T08:41:53.28Z</time></trkpt><trkpt lat="43.9367493" lon="12.4321398"><ele>419.57142857142856</ele><time>2026-04-12T08:41:56.28Z</time></trkpt><trkpt lat="43.9368" lon="12.4322033"><ele>420.85714285714283</ele><time>2026-04-12T08:41:59.306Z</time></trkpt><trkpt lat="43.9368538" lon="12.4322677"><ele>422.1428571428571</ele><time>2026-04-12T08:42:02.288Z</time></trkpt><trkpt lat="43.9369006" lon="12.4323364"><ele>423.42857142857144</ele><time>2026-04-12T08:42:05.288Z</time></trkpt><trkpt lat="43.9369534" lon="12.4324122"><ele>424.71428571428567</ele><time>2026-04-12T08:42:08.305Z</time></trkpt><trkpt lat="43.9370018" lon="12.4324723"><ele>426.0</ele><time>2026-04-12T08:42:11.303Z</time></trkpt><trkpt lat="43.9370452" lon="12.4325381"><ele>425.99999999999994</ele><time>2026-04-12T08:42:14.294Z</time></trkpt><trkpt lat="43.9370839" lon="12.4326132"><ele>426.0</ele><time>2026-04-12T08:42:17.306Z</time></trkpt><trkpt lat="43.9371319" lon="12.4326804"><ele>426.0</ele><time>2026-04-12T08:42:20.305Z</time></trkpt><trkpt lat="43.9371769" lon="12.4327481"><ele>426.0</ele><time>2026-04-12T08:42:23.295Z</time></trkpt><trkpt lat="43.93722" lon="12.4328243"><ele>426.0</ele><time>2026-04-12T08:42:26.285Z</time></trkpt><trkpt lat="43.9372771" lon="12.4328952"><ele>425.99999999999994</ele><time>2026-04-12T08:42:29.299Z</time></trkpt><trkpt lat="43.9373217" lon="12.432964"><ele>426.0</ele><time>2026-04-12T08:42:32.268Z</time></trkpt><trkpt lat="43.9373683" lon="12.4330322"><ele>426.0</ele><time>2026-04-12T08:42:35.308Z</time></trkpt><trkpt lat="43.9374212" lon="12.433092"><ele>426.0</ele><time>2026-04-12T08:42:38.295Z</time></trkpt><trkpt lat="43.937489" lon="12.4331529"><ele>426.0</ele><time>2026-04-12T08:42:42.282Z</time></trkpt><trkpt lat="43.9375514" lon="12.4331112"><ele>426.0</ele><time>2026-04-12T08:42:46.294Z</time></trkpt><trkpt lat="43.9375943" lon="12.4330168"><ele>426.0</ele><time>2026-04-12T08:42:49.302Z</time></trkpt><trkpt lat="43.9376185" lon="12.432928"><ele>426.0</ele><time>2026-04-12T08:42:51.297Z</time></trkpt><trkpt lat="43.9376581" lon="12.4328064"><ele>425.1666666666667</ele><time>2026-04-12T08:42:54.294Z</time></trkpt><trkpt lat="43.9376876" lon="12.4327187"><ele>424.33333333333337</ele><time>2026-04-12T08:42:56.313Z</time></trkpt><trkpt lat="43.9377205" lon="12.4326236"><ele>423.5</ele><time>2026-04-12T08:42:58.309Z</time></trkpt><trkpt lat="43.9377423" lon="12.4325277"><ele>422.6666666666667</ele><time>2026-04-12T08:43:00.277Z</time></trkpt><trkpt lat="43.9377751" lon="12.4324274"><ele>421.83333333333337</ele><time>2026-04-12T08:43:02.296Z</time></trkpt><trkpt lat="43.9378166" lon="12.4323259"><ele>421.0</ele><time>2026-04-12T08:43:04.278Z</time></trkpt><trkpt lat="43.937875" lon="12.4322441"><ele>421.00000000000006</ele><time>2026-04-12T08:43:06.302Z</time></trkpt><trkpt lat="43.9379405" lon="12.432156"><ele>421.0</ele><time>2026-04-12T08:43:08.305Z</time></trkpt><trkpt lat="43.9380078" lon="12.4320914"><ele>421.0</ele><time>2026-04-12T08:43:10.286Z</time></trkpt><trkpt lat="43.9380767" lon="12.43202"><ele>421.0</ele><time>2026-04-12T08:43:12.263Z</time></trkpt><trkpt lat="43.9381401" lon="12.4319561"><ele>421.00000000000006</ele><time>2026-04-12T08:43:14.248Z</time></trkpt><trkpt lat="43.9382194" lon="12.4318862"><ele>421.0</ele><time>2026-04-12T08:43:16.296Z</time></trkpt><trkpt lat="43.9382891" lon="12.4318023"><ele>422.4</ele><time>2026-04-12T08:43:18.261Z</time></trkpt><trkpt lat="43.9383644" lon="12.4317305"><ele>423.8</ele><time>2026-04-12T08:43:20.301Z</time></trkpt><trkpt lat="43.9384493" lon="12.4316677"><ele>425.19999999999993</ele><time>2026-04-12T08:43:22.279Z</time></trkpt><trkpt lat="43.9385325" lon="12.4315983"><ele>426.59999999999997</ele><time>2026-04-12T08:43:24.27Z</time></trkpt><trkpt lat="43.938612" lon="12.4315245"><ele>428.0</ele><time>2026-04-12T08:43:26.286Z</time></trkpt><trkpt lat="43.9386807" lon="12.4314517"><ele>427.8333333333333</ele><time>2026-04-12T08:43:28.271Z</time></trkpt><trkpt lat="43.938756" lon="12.4313897"><ele>427.66666666666663</ele><time>2026-04-12T08:43:30.291Z</time></trkpt><trkpt lat="43.9388478" lon="12.4313278"><ele>427.5</ele><time>2026-04-12T08:43:32.253Z</time></trkpt><trkpt lat="43.9389259" lon="12.4312665"><ele>427.33333333333337</ele><time>2026-04-12T08:43:34.29Z</time></trkpt><trkpt lat="43.9389844" lon="12.4312249"><ele>427.1666666666667</ele><time>2026-04-12T08:43:36.296Z</time></trkpt><trkpt lat="43.9390444" lon="12.4311904"><ele>427.0</ele><time>2026-04-12T08:43:38.293Z</time></trkpt><trkpt lat="43.9391252" lon="12.4311267"><ele>427.00000000000006</ele><time>2026-04-12T08:43:41.299Z</time></trkpt><trkpt lat="43.9392005" lon="12.4310849"><ele>427.0</ele><time>2026-04-12T08:43:44.297Z</time></trkpt><trkpt lat="43.9392791" lon="12.4310244"><ele>427.0</ele><time>2026-04-12T08:43:47.294Z</time></trkpt><trkpt lat="43.9393603" lon="12.4309569"><ele>427.0</ele><time>2026-04-12T08:43:50.237Z</time></trkpt><trkpt lat="43.9394427" lon="12.4309014"><ele>427.00000000000006</ele><time>2026-04-12T08:43:53.29Z</time></trkpt><trkpt lat="43.9395023" lon="12.430873"><ele>427.0</ele><time>2026-04-12T08:43:55.287Z</time></trkpt><trkpt lat="43.9395692" lon="12.4308299"><ele>429.00000000000006</ele><time>2026-04-12T08:43:57.314Z</time></trkpt><trkpt lat="43.9396241" lon="12.4307859"><ele>431.0</ele><time>2026-04-12T08:43:59.3Z</time></trkpt><trkpt lat="43.9397136" lon="12.4307702"><ele>433.0</ele><time>2026-04-12T08:44:02.311Z</time></trkpt><trkpt lat="43.9397975" lon="12.4307661"><ele>435.0</ele><time>2026-04-12T08:44:05.319Z</time></trkpt><trkpt lat="43.9398774" lon="12.4307608"><ele>437.00000000000006</ele><time>2026-04-12T08:44:07.297Z</time></trkpt><trkpt lat="43.9399539" lon="12.4307257"><ele>439.0</ele><time>2026-04-12T08:44:09.31Z</time></trkpt><trkpt lat="43.940028" lon="12.4306839"><ele>439.1666666666667</ele><time>2026-04-12T08:44:11.303Z</time></trkpt><trkpt lat="43.9401051" lon="12.4306402"><ele>439.33333333333337</ele><time>2026-04-12T08:44:13.297Z</time></trkpt><trkpt lat="43.940172" lon="12.4305998"><ele>439.5</ele><time>2026-04-12T08:44:15.291Z</time></trkpt><trkpt lat="43.9402494" lon="12.4305476"><ele>439.66666666666663</ele><time>2026-04-12T08:44:17.3Z</time></trkpt><trkpt lat="43.9403251" lon="12.4304794"><ele>439.8333333333333</ele><time>2026-04-12T08:44:19.294Z</time></trkpt><trkpt lat="43.9403916" lon="12.4304248"><ele>440.0</ele><time>2026-04-12T08:44:21.298Z</time></trkpt><trkpt lat="43.9404755" lon="12.4303679"><ele>440.0</ele><time>2026-04-12T08:44:23.258Z</time></trkpt><trkpt lat="43.9405553" lon="12.43031"><ele>440.0</ele><time>2026-04-12T08:44:25.263Z</time></trkpt><trkpt lat="43.9406325" lon="12.4302539"><ele>440.0</ele><time>2026-04-12T08:44:27.281Z</time></trkpt><trkpt lat="43.9407188" lon="12.4302139"><ele>440.0</ele><time>2026-04-12T08:44:29.287Z</time></trkpt><trkpt lat="43.9408319" lon="12.4301375"><ele>440.0</ele><time>2026-04-12T08:44:32.297Z</time></trkpt><trkpt lat="43.9408935" lon="12.4301052"><ele>441.16666666666663</ele><time>2026-04-12T08:44:34.3Z</time></trkpt><trkpt lat="43.9409609" lon="12.4300768"><ele>442.3333333333333</ele><time>2026-04-12T08:44:36.292Z</time></trkpt><trkpt lat="43.9410474" lon="12.4300251"><ele>443.5</ele><time>2026-04-12T08:44:39.263Z</time></trkpt><trkpt lat="43.9411077" lon="12.429981"><ele>444.66666666666663</ele><time>2026-04-12T08:44:41.303Z</time></trkpt><trkpt lat="43.9411713" lon="12.4299411"><ele>445.8333333333333</ele><time>2026-04-12T08:44:43.276Z</time></trkpt><trkpt lat="43.9412516" lon="12.4298991"><ele>447.0</ele><time>2026-04-12T08:44:46.302Z</time></trkpt><trkpt lat="43.9413122" lon="12.4298624"><ele>447.0</ele><time>2026-04-12T08:44:48.304Z</time></trkpt><trkpt lat="43.941367" lon="12.4298183"><ele>447.0</ele><time>2026-04-12T08:44:50.253Z</time></trkpt><trkpt lat="43.9414261" lon="12.4297775"><ele>447.0</ele><time>2026-04-12T08:44:52.307Z</time></trkpt><trkpt lat="43.9415106" lon="12.429717"><ele>447.0</ele><time>2026-04-12T08:44:55.298Z</time></trkpt><trkpt lat="43.9415698" lon="12.4296691"><ele>447.0</ele><time>2026-04-12T08:44:57.267Z</time></trkpt><trkpt lat="43.9416343" lon="12.429616"><ele>447.0</ele><time>2026-04-12T08:44:59.288Z</time></trkpt><trkpt lat="43.9417003" lon="12.4295422"><ele>446.57142857142856</ele><time>2026-04-12T08:45:01.305Z</time></trkpt><trkpt lat="43.9417659" lon="12.4294847"><ele>446.1428571428571</ele><time>2026-04-12T08:45:03.301Z</time></trkpt><trkpt lat="43.9418305" lon="12.4294445"><ele>445.71428571428567</ele><time>2026-04-12T08:45:05.283Z</time></trkpt><trkpt lat="43.9418933" lon="12.4294113"><ele>445.2857142857143</ele><time>2026-04-12T08:45:07.284Z</time></trkpt><trkpt lat="43.9419646" lon="12.4293503"><ele>444.8571428571429</ele><time>2026-04-12T08:45:10.278Z</time></trkpt><trkpt lat="43.942025" lon="12.4292824"><ele>444.4285714285714</ele><time>2026-04-12T08:45:12.294Z</time></trkpt><trkpt lat="43.9420835" lon="12.4292358"><ele>444.0</ele><time>2026-04-12T08:45:14.276Z</time></trkpt><trkpt lat="43.942149" lon="12.429188"><ele>444.0</ele><time>2026-04-12T08:45:16.293Z</time></trkpt><trkpt lat="43.9422056" lon="12.4291366"><ele>444.0</ele><time>2026-04-12T08:45:18.273Z</time></trkpt><trkpt lat="43.9422574" lon="12.4290863"><ele>444.0</ele><time>2026-04-12T08:45:20.311Z</time></trkpt><trkpt lat="43.9423307" lon="12.4290101"><ele>444.0</ele><time>2026-04-12T08:45:23.3Z</time></trkpt><trkpt lat="43.9423813" lon="12.4289272"><ele>444.0</ele><time>2026-04-12T08:45:26.294Z</time></trkpt><trkpt lat="43.9424088" lon="12.4288451"><ele>444.0</ele><time>2026-04-12T08:45:28.309Z</time></trkpt><trkpt lat="43.9424191" lon="12.4287125"><ele>444.6666666666667</ele><time>2026-04-12T08:45:30.255Z</time></trkpt><trkpt lat="43.9424263" lon="12.4286205"><ele>445.33333333333337</ele><time>2026-04-12T08:45:31.262Z</time></trkpt><trkpt lat="43.9424453" lon="12.4285334"><ele>446.0</ele><time>2026-04-12T08:45:32.303Z</time></trkpt><trkpt lat="43.9425202" lon="12.4283785"><ele>446.6666666666667</ele><time>2026-04-12T08:45:34.293Z</time></trkpt><trkpt lat="43.9425603" lon="12.4282912"><ele>447.33333333333337</ele><time>2026-04-12T08:45:35.301Z</time></trkpt><trkpt lat="43.9425855" lon="12.4282065"><ele>448.0</ele><time>2026-04-12T08:45:36.301Z</time></trkpt><trkpt lat="43.9425816" lon="12.4280834"><ele>448.00000000000006</ele><time>2026-04-12T08:45:38.304Z</time></trkpt><trkpt lat="43.9425159" lon="12.4280516"><ele>448.0</ele><time>2026-04-12T08:45:40.291Z</time></trkpt><trkpt lat="43.942428" lon="12.4280446"><ele>448.0</ele><time>2026-04-12T08:45:42.294Z</time></trkpt><trkpt lat="43.9423046" lon="12.4280829"><ele>448.0</ele><time>2026-04-12T08:45:44.295Z</time></trkpt><trkpt lat="43.942232" lon="12.4281125"><ele>448.00000000000006</ele><time>2026-04-12T08:45:45.288Z</time></trkpt><trkpt lat="43.9421601" lon="12.4281524"><ele>448.0</ele><time>2026-04-12T08:45:46.3Z</time></trkpt><trkpt lat="43.9420887" lon="12.428203"><ele>448.00000000000006</ele><time>2026-04-12T08:45:47.273Z</time></trkpt><trkpt lat="43.9420247" lon="12.4282656"><ele>448.0</ele><time>2026-04-12T08:45:48.292Z</time></trkpt><trkpt lat="43.9419768" lon="12.4283248"><ele>448.0</ele><time>2026-04-12T08:45:49.295Z</time></trkpt><trkpt lat="43.9419226" lon="12.4283981"><ele>448.0</ele><time>2026-04-12T08:45:50.294Z</time></trkpt><trkpt lat="43.9418774" lon="12.4284605"><ele>448.00000000000006</ele><time>2026-04-12T08:45:51.297Z</time></trkpt><trkpt lat="43.9417843" lon="12.4285678"><ele>448.0</ele><time>2026-04-12T08:45:53.308Z</time></trkpt><trkpt lat="43.9417398" lon="12.4286313"><ele>447.6666666666667</ele><time>2026-04-12T08:45:54.267Z</time></trkpt><trkpt lat="43.9416877" lon="12.4286968"><ele>447.33333333333337</ele><time>2026-04-12T08:45:55.295Z</time></trkpt><trkpt lat="43.941591" lon="12.4288125"><ele>447.0</ele><time>2026-04-12T08:45:57.293Z</time></trkpt><trkpt lat="43.9415397" lon="12.4288708"><ele>446.66666666666663</ele><time>2026-04-12T08:45:58.278Z</time></trkpt><trkpt lat="43.9414901" lon="12.4289397"><ele>446.3333333333333</ele><time>2026-04-12T08:45:59.289Z</time></trkpt><trkpt lat="43.9414455" lon="12.429004"><ele>446.0</ele><time>2026-04-12T08:46:00.259Z</time></trkpt><trkpt lat="43.9413821" lon="12.4290673"><ele>445.99999999999994</ele><time>2026-04-12T08:46:02.306Z</time></trkpt><trkpt lat="43.9413126" lon="12.4290688"><ele>446.0</ele><time>2026-04-12T08:46:04.26Z</time></trkpt><trkpt lat="43.9412598" lon="12.428989"><ele>446.0</ele><time>2026-04-12T08:46:07.29Z</time></trkpt><trkpt lat="43.9412971" lon="12.4288983"><ele>446.0</ele><time>2026-04-12T08:46:09.289Z</time></trkpt><trkpt lat="43.9413347" lon="12.4287673"><ele>445.99999999999994</ele><time>2026-04-12T08:46:11.29Z</time></trkpt><trkpt lat="43.941373" lon="12.4286861"><ele>446.0</ele><time>2026-04-12T08:46:12.293Z</time></trkpt><trkpt lat="43.9414096" lon="12.4286015"><ele>443.66666666666663</ele><time>2026-04-12T08:46:13.292Z</time></trkpt><trkpt lat="43.9414551" lon="12.4285005"><ele>441.3333333333333</ele><time>2026-04-12T08:46:14.268Z</time></trkpt><trkpt lat="43.9415" lon="12.4284012"><ele>439.0</ele><time>2026-04-12T08:46:15.264Z</time></trkpt><trkpt lat="43.9415449" lon="12.4282953"><ele>436.66666666666663</ele><time>2026-04-12T08:46:16.286Z</time></trkpt><trkpt lat="43.9415903" lon="12.4281993"><ele>434.3333333333333</ele><time>2026-04-12T08:46:17.287Z</time></trkpt><trkpt lat="43.9416262" lon="12.4281058"><ele>432.0</ele><time>2026-04-12T08:46:18.3Z</time></trkpt><trkpt lat="43.9416448" lon="12.4280099"><ele>432.8</ele><time>2026-04-12T08:46:19.288Z</time></trkpt><trkpt lat="43.9416638" lon="12.4278332"><ele>433.6</ele><time>2026-04-12T08:46:21.303Z</time></trkpt><trkpt lat="43.9416834" lon="12.4277277"><ele>434.40000000000003</ele><time>2026-04-12T08:46:22.27Z</time></trkpt><trkpt lat="43.9417013" lon="12.4276058"><ele>435.20000000000005</ele><time>2026-04-12T08:46:23.311Z</time></trkpt><trkpt lat="43.9417287" lon="12.4274872"><ele>436.0</ele><time>2026-04-12T08:46:24.31Z</time></trkpt><trkpt lat="43.9417532" lon="12.4273754"><ele>436.00000000000006</ele><time>2026-04-12T08:46:25.305Z</time></trkpt><trkpt lat="43.9417832" lon="12.4272683"><ele>436.0</ele><time>2026-04-12T08:46:26.299Z</time></trkpt><trkpt lat="43.9418206" lon="12.4271729"><ele>436.0</ele><time>2026-04-12T08:46:27.301Z</time></trkpt><trkpt lat="43.9418545" lon="12.4270699"><ele>436.0</ele><time>2026-04-12T08:46:28.295Z</time></trkpt><trkpt lat="43.9418904" lon="12.426959"><ele>436.00000000000006</ele><time>2026-04-12T08:46:29.248Z</time></trkpt><trkpt lat="43.9419304" lon="12.4268542"><ele>436.0</ele><time>2026-04-12T08:46:30.282Z</time></trkpt><trkpt lat="43.9419699" lon="12.426745"><ele>434.0</ele><time>2026-04-12T08:46:31.299Z</time></trkpt><trkpt lat="43.942004" lon="12.4266404"><ele>432.0</ele><time>2026-04-12T08:46:32.292Z</time></trkpt><trkpt lat="43.9420431" lon="12.4265494"><ele>430.0</ele><time>2026-04-12T08:46:33.278Z</time></trkpt><trkpt lat="43.9420752" lon="12.4264661"><ele>428.0</ele><time>2026-04-12T08:46:34.285Z</time></trkpt><trkpt lat="43.9421063" lon="12.4263799"><ele>426.0</ele><time>2026-04-12T08:46:35.304Z</time></trkpt><trkpt lat="43.9421332" lon="12.4262941"><ele>424.0</ele><time>2026-04-12T08:46:36.29Z</time></trkpt><trkpt lat="43.9421578" lon="12.4262113"><ele>422.0</ele><time>2026-04-12T08:46:37.287Z</time></trkpt><trkpt lat="43.9421802" lon="12.426129"><ele>420.66666666666663</ele><time>2026-04-12T08:46:38.283Z</time></trkpt><trkpt lat="43.9422039" lon="12.4260388"><ele>419.3333333333333</ele><time>2026-04-12T08:46:39.291Z</time></trkpt><trkpt lat="43.9422269" lon="12.4259565"><ele>418.0</ele><time>2026-04-12T08:46:40.277Z</time></trkpt><trkpt lat="43.9422666" lon="12.4257964"><ele>416.66666666666663</ele><time>2026-04-12T08:46:42.295Z</time></trkpt><trkpt lat="43.9422927" lon="12.4257142"><ele>415.3333333333333</ele><time>2026-04-12T08:46:43.294Z</time></trkpt><trkpt lat="43.9423399" lon="12.4255607"><ele>414.0</ele><time>2026-04-12T08:46:45.311Z</time></trkpt><trkpt lat="43.9423826" lon="12.4254257"><ele>412.6666666666667</ele><time>2026-04-12T08:46:47.287Z</time></trkpt><trkpt lat="43.9424176" lon="12.4253056"><ele>411.33333333333337</ele><time>2026-04-12T08:46:49.286Z</time></trkpt><trkpt lat="43.9424571" lon="12.4251697"><ele>410.0</ele><time>2026-04-12T08:46:51.29Z</time></trkpt><trkpt lat="43.9424777" lon="12.4250852"><ele>408.6666666666667</ele><time>2026-04-12T08:46:52.283Z</time></trkpt><trkpt lat="43.942501" lon="12.4249935"><ele>407.33333333333337</ele><time>2026-04-12T08:46:53.287Z</time></trkpt><trkpt lat="43.942517" lon="12.4248966"><ele>406.0</ele><time>2026-04-12T08:46:54.282Z</time></trkpt><trkpt lat="43.9425335" lon="12.4247909"><ele>406.00000000000006</ele><time>2026-04-12T08:46:55.301Z</time></trkpt><trkpt lat="43.9425401" lon="12.4246734"><ele>406.0</ele><time>2026-04-12T08:46:56.287Z</time></trkpt><trkpt lat="43.942547" lon="12.4245682"><ele>406.0</ele><time>2026-04-12T08:46:57.289Z</time></trkpt><trkpt lat="43.9425519" lon="12.4244504"><ele>406.0</ele><time>2026-04-12T08:46:58.25Z</time></trkpt><trkpt lat="43.9425522" lon="12.4243365"><ele>406.00000000000006</ele><time>2026-04-12T08:46:59.292Z</time></trkpt><trkpt lat="43.9425521" lon="12.4242221"><ele>406.0</ele><time>2026-04-12T08:47:00.294Z</time></trkpt><trkpt lat="43.9425419" lon="12.4241154"><ele>404.50000000000006</ele><time>2026-04-12T08:47:01.28Z</time></trkpt><trkpt lat="43.9425375" lon="12.42401"><ele>403.0</ele><time>2026-04-12T08:47:02.306Z</time></trkpt><trkpt lat="43.9425538" lon="12.4238998"><ele>401.5</ele><time>2026-04-12T08:47:03.299Z</time></trkpt><trkpt lat="43.9425895" lon="12.423793"><ele>400.0</ele><time>2026-04-12T08:47:04.296Z</time></trkpt><trkpt lat="43.9426201" lon="12.4236908"><ele>398.50000000000006</ele><time>2026-04-12T08:47:05.308Z</time></trkpt><trkpt lat="43.9426603" lon="12.4235761"><ele>397.0</ele><time>2026-04-12T08:47:06.271Z</time></trkpt><trkpt lat="43.9426985" lon="12.4234649"><ele>397.83333333333337</ele><time>2026-04-12T08:47:07.288Z</time></trkpt><trkpt lat="43.9427357" lon="12.4233683"><ele>398.6666666666667</ele><time>2026-04-12T08:47:08.285Z</time></trkpt><trkpt lat="43.9427678" lon="12.4232813"><ele>399.5</ele><time>2026-04-12T08:47:09.295Z</time></trkpt><trkpt lat="43.9427983" lon="12.4231861"><ele>400.33333333333337</ele><time>2026-04-12T08:47:10.293Z</time></trkpt><trkpt lat="43.9428226" lon="12.4230832"><ele>401.1666666666667</ele><time>2026-04-12T08:47:11.285Z</time></trkpt><trkpt lat="43.9428509" lon="12.4229867"><ele>402.0</ele><time>2026-04-12T08:47:12.296Z</time></trkpt><trkpt lat="43.9428768" lon="12.4228805"><ele>402.0</ele><time>2026-04-12T08:47:13.279Z</time></trkpt><trkpt lat="43.942899" lon="12.4227722"><ele>402.0</ele><time>2026-04-12T08:47:14.297Z</time></trkpt><trkpt lat="43.9429227" lon="12.4226648"><ele>402.0</ele><time>2026-04-12T08:47:15.297Z</time></trkpt><trkpt lat="43.9429524" lon="12.422551"><ele>402.0</ele><time>2026-04-12T08:47:16.305Z</time></trkpt><trkpt lat="43.9429801" lon="12.4224401"><ele>402.0</ele><time>2026-04-12T08:47:17.287Z</time></trkpt><trkpt lat="43.9430103" lon="12.4223264"><ele>402.0</ele><time>2026-04-12T08:47:18.292Z</time></trkpt><trkpt lat="43.9430418" lon="12.4222171"><ele>399.8333333333333</ele><time>2026-04-12T08:47:19.305Z</time></trkpt><trkpt lat="43.9430658" lon="12.4221112"><ele>397.66666666666663</ele><time>2026-04-12T08:47:20.311Z</time></trkpt><trkpt lat="43.943096" lon="12.422003"><ele>395.5</ele><time>2026-04-12T08:47:21.284Z</time></trkpt><trkpt lat="43.9431263" lon="12.4219109"><ele>393.3333333333333</ele><time>2026-04-12T08:47:22.295Z</time></trkpt><trkpt lat="43.9431587" lon="12.4218259"><ele>391.16666666666663</ele><time>2026-04-12T08:47:23.292Z</time></trkpt><trkpt lat="43.9432298" lon="12.4216838"><ele>389.0</ele><time>2026-04-12T08:47:25.303Z</time></trkpt><trkpt lat="43.9432899" lon="12.4215449"><ele>389.0</ele><time>2026-04-12T08:47:27.283Z</time></trkpt><trkpt lat="43.9433523" lon="12.4214218"><ele>389.0</ele><time>2026-04-12T08:47:29.284Z</time></trkpt><trkpt lat="43.9434012" lon="12.4213168"><ele>389.0</ele><time>2026-04-12T08:47:31.283Z</time></trkpt><trkpt lat="43.9434461" lon="12.4212514"><ele>389.0</ele><time>2026-04-12T08:47:34.285Z</time></trkpt><trkpt lat="43.9435497" lon="12.4212528"><ele>389.0</ele><time>2026-04-12T08:47:39.314Z</time></trkpt><trkpt lat="43.9436702" lon="12.4212908"><ele>389.79999999999995</ele><time>2026-04-12T08:47:41.28Z</time></trkpt><trkpt lat="43.9437412" lon="12.4213141"><ele>390.59999999999997</ele><time>2026-04-12T08:47:42.305Z</time></trkpt><trkpt lat="43.9438038" lon="12.4213337"><ele>391.4</ele><time>2026-04-12T08:47:43.316Z</time></trkpt><trkpt lat="43.9439072" lon="12.4213631"><ele>392.2</ele><time>2026-04-12T08:47:45.245Z</time></trkpt><trkpt lat="43.9439955" lon="12.4213532"><ele>393.0</ele><time>2026-04-12T08:47:47.267Z</time></trkpt><trkpt lat="43.9441129" lon="12.4213965"><ele>393.0</ele><time>2026-04-12T08:47:49.31Z</time></trkpt><trkpt lat="43.9441856" lon="12.4214305"><ele>393.0</ele><time>2026-04-12T08:47:50.295Z</time></trkpt><trkpt lat="43.9442695" lon="12.4214705"><ele>393.0</ele><time>2026-04-12T08:47:51.266Z</time></trkpt><trkpt lat="43.9443619" lon="12.4215114"><ele>393.0</ele><time>2026-04-12T08:47:52.273Z</time></trkpt><trkpt lat="43.9444656" lon="12.4215455"><ele>393.0</ele><time>2026-04-12T08:47:53.311Z</time></trkpt><trkpt lat="43.9445718" lon="12.4215313"><ele>388.59999999999997</ele><time>2026-04-12T08:47:54.287Z</time></trkpt><trkpt lat="43.9446583" lon="12.421494"><ele>384.2</ele><time>2026-04-12T08:47:55.277Z</time></trkpt><trkpt lat="43.9447481" lon="12.4214544"><ele>379.8</ele><time>2026-04-12T08:47:56.308Z</time></trkpt><trkpt lat="43.9448249" lon="12.4214379"><ele>375.4</ele><time>2026-04-12T08:47:57.293Z</time></trkpt><trkpt lat="43.9448927" lon="12.4214403"><ele>371.0</ele><time>2026-04-12T08:47:58.261Z</time></trkpt><trkpt lat="43.945009" lon="12.4214773"><ele>362.8</ele><time>2026-04-12T08:48:00.3Z</time></trkpt><trkpt lat="43.9450724" lon="12.4215499"><ele>354.6</ele><time>2026-04-12T08:48:02.291Z</time></trkpt><trkpt lat="43.9451202" lon="12.4216865"><ele>346.4</ele><time>2026-04-12T08:48:04.282Z</time></trkpt><trkpt lat="43.945196" lon="12.4217963"><ele>338.2</ele><time>2026-04-12T08:48:06.299Z</time></trkpt><trkpt lat="43.9452117" lon="12.4219124"><ele>330.0</ele><time>2026-04-12T08:48:08.289Z</time></trkpt><trkpt lat="43.945186" lon="12.4220749"><ele>333.4</ele><time>2026-04-12T08:48:10.292Z</time></trkpt><trkpt lat="43.9452251" lon="12.4222156"><ele>336.8</ele><time>2026-04-12T08:48:12.281Z</time></trkpt><trkpt lat="43.9453006" lon="12.4223181"><ele>340.20000000000005</ele><time>2026-04-12T08:48:14.289Z</time></trkpt><trkpt lat="43.9453972" lon="12.4224026"><ele>343.6</ele><time>2026-04-12T08:48:16.288Z</time></trkpt><trkpt lat="43.9454824" lon="12.4224953"><ele>347.0</ele><time>2026-04-12T08:48:18.281Z</time></trkpt><trkpt lat="43.9455937" lon="12.4225035"><ele>347.0</ele><time>2026-04-12T08:48:20.253Z</time></trkpt><trkpt lat="43.9456667" lon="12.422469"><ele>347.0</ele><time>2026-04-12T08:48:21.295Z</time></trkpt><trkpt lat="43.9457265" lon="12.4224189"><ele>347.0</ele><time>2026-04-12T08:48:22.249Z</time></trkpt><trkpt lat="43.945792" lon="12.4223856"><ele>347.0</ele><time>2026-04-12T08:48:23.268Z</time></trkpt><trkpt lat="43.9459142" lon="12.4223907"><ele>347.0</ele><time>2026-04-12T08:48:25.281Z</time></trkpt><trkpt lat="43.9459793" lon="12.4224105"><ele>347.0</ele><time>2026-04-12T08:48:26.282Z</time></trkpt><trkpt lat="43.9460498" lon="12.4224522"><ele>342.6666666666667</ele><time>2026-04-12T08:48:27.311Z</time></trkpt><trkpt lat="43.9461268" lon="12.4225035"><ele>338.33333333333337</ele><time>2026-04-12T08:48:28.293Z</time></trkpt><trkpt lat="43.9461947" lon="12.4225513"><ele>334.0</ele><time>2026-04-12T08:48:29.295Z</time></trkpt><trkpt lat="43.9462565" lon="12.4225909"><ele>329.6666666666667</ele><time>2026-04-12T08:48:30.285Z</time></trkpt><trkpt lat="43.9463359" lon="12.4226598"><ele>325.3333333333333</ele><time>2026-04-12T08:48:32.297Z</time></trkpt><trkpt lat="43.9463926" lon="12.4227205"><ele>321.0</ele><time>2026-04-12T08:48:35.252Z</time></trkpt><trkpt lat="43.9464511" lon="12.4228066"><ele>321.0</ele><time>2026-04-12T08:48:40.292Z</time></trkpt><trkpt lat="43.9465355" lon="12.4228655"><ele>321.0</ele><time>2026-04-12T08:48:42.297Z</time></trkpt><trkpt lat="43.9465891" lon="12.4229114"><ele>321.0</ele><time>2026-04-12T08:48:43.301Z</time></trkpt><trkpt lat="43.9466469" lon="12.4229752"><ele>321.0</ele><time>2026-04-12T08:48:44.292Z</time></trkpt><trkpt lat="43.9467046" lon="12.4230329"><ele>321.0</ele><time>2026-04-12T08:48:45.279Z</time></trkpt><trkpt lat="43.9467691" lon="12.4230826"><ele>321.0</ele><time>2026-04-12T08:48:46.291Z</time></trkpt><trkpt lat="43.9468321" lon="12.423139"><ele>319.6666666666667</ele><time>2026-04-12T08:48:47.276Z</time></trkpt><trkpt lat="43.9468724" lon="12.423223"><ele>318.3333333333333</ele><time>2026-04-12T08:48:48.282Z</time></trkpt><trkpt lat="43.9468938" lon="12.423325"><ele>317.0</ele><time>2026-04-12T08:48:49.279Z</time></trkpt><trkpt lat="43.9468906" lon="12.4234211"><ele>315.66666666666663</ele><time>2026-04-12T08:48:50.312Z</time></trkpt><trkpt lat="43.9468763" lon="12.4235193"><ele>314.3333333333333</ele><time>2026-04-12T08:48:51.298Z</time></trkpt><trkpt lat="43.9468209" lon="12.4236832"><ele>313.0</ele><time>2026-04-12T08:48:53.297Z</time></trkpt><trkpt lat="43.9468127" lon="12.4238227"><ele>313.0</ele><time>2026-04-12T08:48:55.3Z</time></trkpt><trkpt lat="43.9468581" lon="12.4239538"><ele>313.0</ele><time>2026-04-12T08:48:57.263Z</time></trkpt><trkpt lat="43.9469264" lon="12.4240184"><ele>313.0</ele><time>2026-04-12T08:48:59.306Z</time></trkpt><trkpt lat="43.9469829" lon="12.4240943"><ele>313.0</ele><time>2026-04-12T08:49:02.303Z</time></trkpt><trkpt lat="43.9470395" lon="12.4241518"><ele>313.0</ele><time>2026-04-12T08:49:04.277Z</time></trkpt><trkpt lat="43.9471258" lon="12.4242028"><ele>313.0</ele><time>2026-04-12T08:49:06.29Z</time></trkpt><trkpt lat="43.947244" lon="12.4242794"><ele>313.0</ele><time>2026-04-12T08:49:08.293Z</time></trkpt><trkpt lat="43.9473075" lon="12.424329"><ele>313.0</ele><time>2026-04-12T08:49:09.303Z</time></trkpt><trkpt lat="43.9473841" lon="12.4243613"><ele>313.0</ele><time>2026-04-12T08:49:10.283Z</time></trkpt><trkpt lat="43.9474729" lon="12.4243496"><ele>313.0</ele><time>2026-04-12T08:49:11.286Z</time></trkpt><trkpt lat="43.9475601" lon="12.4243106"><ele>313.0</ele><time>2026-04-12T08:49:12.303Z</time></trkpt><trkpt lat="43.9476563" lon="12.4242869"><ele>313.0</ele><time>2026-04-12T08:49:13.307Z</time></trkpt><trkpt lat="43.9477517" lon="12.4242733"><ele>309.6</ele><time>2026-04-12T08:49:14.307Z</time></trkpt><trkpt lat="43.9478485" lon="12.4242806"><ele>306.20000000000005</ele><time>2026-04-12T08:49:15.284Z</time></trkpt><trkpt lat="43.9479412" lon="12.4242895"><ele>302.8</ele><time>2026-04-12T08:49:16.264Z</time></trkpt><trkpt lat="43.9480344" lon="12.4243061"><ele>299.40000000000003</ele><time>2026-04-12T08:49:17.313Z</time></trkpt><trkpt lat="43.9481251" lon="12.424316"><ele>296.0</ele><time>2026-04-12T08:49:18.285Z</time></trkpt><trkpt lat="43.9482126" lon="12.4243268"><ele>296.0</ele><time>2026-04-12T08:49:19.299Z</time></trkpt><trkpt lat="43.9482966" lon="12.424333"><ele>296.0</ele><time>2026-04-12T08:49:20.295Z</time></trkpt><trkpt lat="43.9483842" lon="12.4243408"><ele>296.0</ele><time>2026-04-12T08:49:21.307Z</time></trkpt><trkpt lat="43.9484616" lon="12.4243378"><ele>296.0</ele><time>2026-04-12T08:49:22.302Z</time></trkpt><trkpt lat="43.948528" lon="12.4243365"><ele>296.0</ele><time>2026-04-12T08:49:23.299Z</time></trkpt><trkpt lat="43.9486274" lon="12.42439"><ele>296.0</ele><time>2026-04-12T08:49:25.307Z</time></trkpt><trkpt lat="43.9486622" lon="12.4245342"><ele>293.0</ele><time>2026-04-12T08:49:27.303Z</time></trkpt><trkpt lat="43.9486459" lon="12.4246929"><ele>290.0</ele><time>2026-04-12T08:49:29.293Z</time></trkpt><trkpt lat="43.9485949" lon="12.4248224"><ele>287.0</ele><time>2026-04-12T08:49:31.279Z</time></trkpt><trkpt lat="43.9485635" lon="12.4249341"><ele>284.0</ele><time>2026-04-12T08:49:33.295Z</time></trkpt><trkpt lat="43.9485983" lon="12.4250424"><ele>281.0</ele><time>2026-04-12T08:49:35.295Z</time></trkpt><trkpt lat="43.9486672" lon="12.4251733"><ele>281.0</ele><time>2026-04-12T08:49:37.292Z</time></trkpt><trkpt lat="43.9487181" lon="12.4253019"><ele>281.0</ele><time>2026-04-12T08:49:39.291Z</time></trkpt><trkpt lat="43.9488167" lon="12.4253297"><ele>281.0</ele><time>2026-04-12T08:49:42.302Z</time></trkpt><trkpt lat="43.948935" lon="12.4252773"><ele>281.0</ele><time>2026-04-12T08:49:44.234Z</time></trkpt><trkpt lat="43.9490083" lon="12.425259"><ele>281.0</ele><time>2026-04-12T08:49:45.309Z</time></trkpt><trkpt lat="43.9490824" lon="12.425275"><ele>281.0</ele><time>2026-04-12T08:49:46.293Z</time></trkpt><trkpt lat="43.9491659" lon="12.4253302"><ele>281.0</ele><time>2026-04-12T08:49:47.313Z</time></trkpt><trkpt lat="43.9492262" lon="12.4254052"><ele>281.0</ele><time>2026-04-12T08:49:48.295Z</time></trkpt><trkpt lat="43.9492874" lon="12.4255058"><ele>281.0</ele><time>2026-04-12T08:49:49.298Z</time></trkpt><trkpt lat="43.9493116" lon="12.4256242"><ele>281.0</ele><time>2026-04-12T08:49:50.3Z</time></trkpt><trkpt lat="43.9493071" lon="12.4257577"><ele>279.8</ele><time>2026-04-12T08:49:51.255Z</time></trkpt><trkpt lat="43.9492886" lon="12.4258891"><ele>278.6</ele><time>2026-04-12T08:49:52.244Z</time></trkpt><trkpt lat="43.9492647" lon="12.4260218"><ele>277.4</ele><time>2026-04-12T08:49:53.292Z</time></trkpt><trkpt lat="43.9492462" lon="12.4261571"><ele>276.2</ele><time>2026-04-12T08:49:54.272Z</time></trkpt><trkpt lat="43.9492187" lon="12.426274"><ele>275.0</ele><time>2026-04-12T08:49:55.301Z</time></trkpt><trkpt lat="43.949191" lon="12.4264031"><ele>275.0</ele><time>2026-04-12T08:49:56.282Z</time></trkpt><trkpt lat="43.9491619" lon="12.4265153"><ele>275.0</ele><time>2026-04-12T08:49:57.295Z</time></trkpt><trkpt lat="43.9491361" lon="12.4266346"><ele>275.0</ele><time>2026-04-12T08:49:58.29Z</time></trkpt><trkpt lat="43.9491036" lon="12.4267407"><ele>275.0</ele><time>2026-04-12T08:49:59.318Z</time></trkpt><trkpt lat="43.949081" lon="12.4268537"><ele>275.0</ele><time>2026-04-12T08:50:00.313Z</time></trkpt><trkpt lat="43.9490629" lon="12.4269635"><ele>275.0</ele><time>2026-04-12T08:50:01.289Z</time></trkpt><trkpt lat="43.9490409" lon="12.4270821"><ele>275.1666666666667</ele><time>2026-04-12T08:50:02.297Z</time></trkpt><trkpt lat="43.9490439" lon="12.4271946"><ele>275.33333333333337</ele><time>2026-04-12T08:50:03.295Z</time></trkpt><trkpt lat="43.9490575" lon="12.4272929"><ele>275.5</ele><time>2026-04-12T08:50:04.3Z</time></trkpt><trkpt lat="43.9490986" lon="12.427378"><ele>275.6666666666667</ele><time>2026-04-12T08:50:05.254Z</time></trkpt><trkpt lat="43.9491931" lon="12.4274987"><ele>275.8333333333333</ele><time>2026-04-12T08:50:07.296Z</time></trkpt><trkpt lat="43.9492584" lon="12.4275855"><ele>276.0</ele><time>2026-04-12T08:50:08.315Z</time></trkpt><trkpt lat="43.9493318" lon="12.4276692"><ele>273.8</ele><time>2026-04-12T08:50:09.297Z</time></trkpt><trkpt lat="43.9494258" lon="12.4277319"><ele>271.6</ele><time>2026-04-12T08:50:10.299Z</time></trkpt><trkpt lat="43.9495237" lon="12.4277633"><ele>269.4</ele><time>2026-04-12T08:50:11.297Z</time></trkpt><trkpt lat="43.9496274" lon="12.427779"><ele>267.2</ele><time>2026-04-12T08:50:12.305Z</time></trkpt><trkpt lat="43.9497241" lon="12.4277642"><ele>265.0</ele><time>2026-04-12T08:50:13.317Z</time></trkpt><trkpt lat="43.9497944" lon="12.427715"><ele>265.0</ele><time>2026-04-12T08:50:14.29Z</time></trkpt><trkpt lat="43.94986" lon="12.4276431"><ele>265.0</ele><time>2026-04-12T08:50:15.303Z</time></trkpt><trkpt lat="43.9499186" lon="12.4275731"><ele>265.0</ele><time>2026-04-12T08:50:16.303Z</time></trkpt><trkpt lat="43.9499855" lon="12.4275035"><ele>265.0</ele><time>2026-04-12T08:50:17.333Z</time></trkpt><trkpt lat="43.9500547" lon="12.4274411"><ele>265.0</ele><time>2026-04-12T08:50:18.304Z</time></trkpt><trkpt lat="43.9501339" lon="12.4274073"><ele>265.0</ele><time>2026-04-12T08:50:19.308Z</time></trkpt><trkpt lat="43.9502129" lon="12.4273873"><ele>264.66666666666663</ele><time>2026-04-12T08:50:20.305Z</time></trkpt><trkpt lat="43.9502914" lon="12.427386"><ele>264.3333333333333</ele><time>2026-04-12T08:50:21.309Z</time></trkpt><trkpt lat="43.9503714" lon="12.4273991"><ele>264.0</ele><time>2026-04-12T08:50:22.298Z</time></trkpt><trkpt lat="43.9504615" lon="12.4274064"><ele>263.6666666666667</ele><time>2026-04-12T08:50:23.306Z</time></trkpt><trkpt lat="43.9505489" lon="12.4274024"><ele>263.33333333333337</ele><time>2026-04-12T08:50:24.294Z</time></trkpt><trkpt lat="43.9506343" lon="12.4273694"><ele>263.0</ele><time>2026-04-12T08:50:25.284Z</time></trkpt><trkpt lat="43.9507219" lon="12.4273273"><ele>263.0</ele><time>2026-04-12T08:50:26.295Z</time></trkpt><trkpt lat="43.9508055" lon="12.4272899"><ele>263.0</ele><time>2026-04-12T08:50:27.305Z</time></trkpt><trkpt lat="43.9508988" lon="12.4272766"><ele>263.0</ele><time>2026-04-12T08:50:28.32Z</time></trkpt><trkpt lat="43.9509963" lon="12.4272774"><ele>263.0</ele><time>2026-04-12T08:50:29.315Z</time></trkpt><trkpt lat="43.951088" lon="12.4272843"><ele>263.0</ele><time>2026-04-12T08:50:30.277Z</time></trkpt><trkpt lat="43.9511801" lon="12.4272965"><ele>261.6</ele><time>2026-04-12T08:50:31.301Z</time></trkpt><trkpt lat="43.95127" lon="12.4273083"><ele>260.20000000000005</ele><time>2026-04-12T08:50:32.317Z</time></trkpt><trkpt lat="43.9513582" lon="12.4273085"><ele>258.8</ele><time>2026-04-12T08:50:33.305Z</time></trkpt><trkpt lat="43.9514541" lon="12.4273084"><ele>257.40000000000003</ele><time>2026-04-12T08:50:34.251Z</time></trkpt><trkpt lat="43.9515592" lon="12.4272905"><ele>256.0</ele><time>2026-04-12T08:50:35.271Z</time></trkpt><trkpt lat="43.9516642" lon="12.4272757"><ele>255.4</ele><time>2026-04-12T08:50:36.293Z</time></trkpt><trkpt lat="43.9517678" lon="12.4272396"><ele>254.8</ele><time>2026-04-12T08:50:37.24Z</time></trkpt><trkpt lat="43.9518669" lon="12.4271789"><ele>254.20000000000002</ele><time>2026-04-12T08:50:38.257Z</time></trkpt><trkpt lat="43.9519463" lon="12.4270962"><ele>253.60000000000002</ele><time>2026-04-12T08:50:39.288Z</time></trkpt><trkpt lat="43.951993" lon="12.4270009"><ele>253.0</ele><time>2026-04-12T08:50:40.294Z</time></trkpt><trkpt lat="43.9520288" lon="12.4269122"><ele>253.00000000000003</ele><time>2026-04-12T08:50:41.313Z</time></trkpt><trkpt lat="43.9520562" lon="12.4268167"><ele>253.0</ele><time>2026-04-12T08:50:42.285Z</time></trkpt><trkpt lat="43.9520801" lon="12.4267288"><ele>253.00000000000003</ele><time>2026-04-12T08:50:43.297Z</time></trkpt><trkpt lat="43.952111" lon="12.426645"><ele>253.00000000000003</ele><time>2026-04-12T08:50:44.285Z</time></trkpt><trkpt lat="43.9521318" lon="12.4265525"><ele>253.0</ele><time>2026-04-12T08:50:45.276Z</time></trkpt><trkpt lat="43.9521429" lon="12.426457"><ele>253.00000000000003</ele><time>2026-04-12T08:50:46.288Z</time></trkpt><trkpt lat="43.9521594" lon="12.4263543"><ele>253.00000000000003</ele><time>2026-04-12T08:50:47.32Z</time></trkpt><trkpt lat="43.9521705" lon="12.4262259"><ele>250.2</ele><time>2026-04-12T08:50:48.281Z</time></trkpt><trkpt lat="43.9521862" lon="12.4260852"><ele>247.4</ele><time>2026-04-12T08:50:49.275Z</time></trkpt><trkpt lat="43.9521979" lon="12.4259275"><ele>244.59999999999997</ele><time>2026-04-12T08:50:50.259Z</time></trkpt><trkpt lat="43.9522104" lon="12.4257636"><ele>241.79999999999998</ele><time>2026-04-12T08:50:51.289Z</time></trkpt><trkpt lat="43.9522156" lon="12.4256053"><ele>239.0</ele><time>2026-04-12T08:50:52.286Z</time></trkpt><trkpt lat="43.9522324" lon="12.4254576"><ele>237.0</ele><time>2026-04-12T08:50:53.291Z</time></trkpt><trkpt lat="43.9522472" lon="12.4253074"><ele>234.99999999999997</ele><time>2026-04-12T08:50:54.292Z</time></trkpt><trkpt lat="43.9522598" lon="12.4251611"><ele>232.99999999999997</ele><time>2026-04-12T08:50:55.288Z</time></trkpt><trkpt lat="43.9522787" lon="12.4250101"><ele>231.0</ele><time>2026-04-12T08:50:56.312Z</time></trkpt><trkpt lat="43.9523105" lon="12.4248799"><ele>229.0</ele><time>2026-04-12T08:50:57.305Z</time></trkpt><trkpt lat="43.9523585" lon="12.4247633"><ele>229.0</ele><time>2026-04-12T08:50:58.307Z</time></trkpt><trkpt lat="43.9524254" lon="12.4246657"><ele>228.99999999999997</ele><time>2026-04-12T08:50:59.299Z</time></trkpt><trkpt lat="43.9525" lon="12.4245996"><ele>228.99999999999997</ele><time>2026-04-12T08:51:00.291Z</time></trkpt><trkpt lat="43.9525956" lon="12.4245535"><ele>229.0</ele><time>2026-04-12T08:51:01.307Z</time></trkpt><trkpt lat="43.9526983" lon="12.4244962"><ele>229.0</ele><time>2026-04-12T08:51:02.296Z</time></trkpt><trkpt lat="43.9527997" lon="12.4244463"><ele>227.79999999999998</ele><time>2026-04-12T08:51:03.308Z</time></trkpt><trkpt lat="43.9528978" lon="12.4244038"><ele>226.59999999999997</ele><time>2026-04-12T08:51:04.297Z</time></trkpt><trkpt lat="43.952997" lon="12.4243613"><ele>225.4</ele><time>2026-04-12T08:51:05.292Z</time></trkpt><trkpt lat="43.9530821" lon="12.4243125"><ele>224.2</ele><time>2026-04-12T08:51:06.291Z</time></trkpt><trkpt lat="43.953151" lon="12.4242553"><ele>223.0</ele><time>2026-04-12T08:51:07.293Z</time></trkpt><trkpt lat="43.9532019" lon="12.4241807"><ele>222.99999999999997</ele><time>2026-04-12T08:51:08.29Z</time></trkpt><trkpt lat="43.9532336" lon="12.4240888"><ele>223.0</ele><time>2026-04-12T08:51:09.289Z</time></trkpt><trkpt lat="43.9532442" lon="12.4239707"><ele>223.0</ele><time>2026-04-12T08:51:10.254Z</time></trkpt><trkpt lat="43.9532478" lon="12.4238453"><ele>223.0</ele><time>2026-04-12T08:51:11.298Z</time></trkpt><trkpt lat="43.9532318" lon="12.4237264"><ele>222.99999999999997</ele><time>2026-04-12T08:51:12.303Z</time></trkpt><trkpt lat="43.9532223" lon="12.423604"><ele>223.0</ele><time>2026-04-12T08:51:13.294Z</time></trkpt><trkpt lat="43.9532031" lon="12.4234985"><ele>222.66666666666666</ele><time>2026-04-12T08:51:14.309Z</time></trkpt><trkpt lat="43.9531643" lon="12.4233917"><ele>222.33333333333331</ele><time>2026-04-12T08:51:15.297Z</time></trkpt><trkpt lat="43.9531044" lon="12.4233076"><ele>222.0</ele><time>2026-04-12T08:51:16.288Z</time></trkpt><trkpt lat="43.9530344" lon="12.4232369"><ele>221.66666666666669</ele><time>2026-04-12T08:51:17.292Z</time></trkpt><trkpt lat="43.9529677" lon="12.4231624"><ele>221.33333333333334</ele><time>2026-04-12T08:51:18.275Z</time></trkpt><trkpt lat="43.952898" lon="12.4230798"><ele>221.0</ele><time>2026-04-12T08:51:19.312Z</time></trkpt><trkpt lat="43.9528229" lon="12.4230023"><ele>221.83333333333334</ele><time>2026-04-12T08:51:20.248Z</time></trkpt><trkpt lat="43.952747" lon="12.4229278"><ele>222.66666666666669</ele><time>2026-04-12T08:51:21.3Z</time></trkpt><trkpt lat="43.9526754" lon="12.4228661"><ele>223.5</ele><time>2026-04-12T08:51:22.302Z</time></trkpt><trkpt lat="43.9526034" lon="12.4228234"><ele>224.33333333333331</ele><time>2026-04-12T08:51:23.298Z</time></trkpt><trkpt lat="43.952516" lon="12.4228132"><ele>225.16666666666666</ele><time>2026-04-12T08:51:24.251Z</time></trkpt><trkpt lat="43.9524318" lon="12.4228224"><ele>226.0</ele><time>2026-04-12T08:51:25.297Z</time></trkpt><trkpt lat="43.9523517" lon="12.4228321"><ele>223.16666666666666</ele><time>2026-04-12T08:51:26.293Z</time></trkpt><trkpt lat="43.952272" lon="12.4228337"><ele>220.33333333333331</ele><time>2026-04-12T08:51:27.287Z</time></trkpt><trkpt lat="43.9521952" lon="12.4228213"><ele>217.5</ele><time>2026-04-12T08:51:28.293Z</time></trkpt><trkpt lat="43.95212" lon="12.4228016"><ele>214.66666666666669</ele><time>2026-04-12T08:51:29.293Z</time></trkpt><trkpt lat="43.9520438" lon="12.4227671"><ele>211.83333333333334</ele><time>2026-04-12T08:51:30.295Z</time></trkpt><trkpt lat="43.9519691" lon="12.4227274"><ele>209.0</ele><time>2026-04-12T08:51:31.276Z</time></trkpt><trkpt lat="43.9519007" lon="12.4226751"><ele>209.0</ele><time>2026-04-12T08:51:32.29Z</time></trkpt><trkpt lat="43.9518181" lon="12.4226179"><ele>209.0</ele><time>2026-04-12T08:51:33.29Z</time></trkpt><trkpt lat="43.9517456" lon="12.4225495"><ele>209.0</ele><time>2026-04-12T08:51:34.266Z</time></trkpt><trkpt lat="43.9516625" lon="12.4224657"><ele>209.0</ele><time>2026-04-12T08:51:35.299Z</time></trkpt><trkpt lat="43.9515873" lon="12.4223629"><ele>209.0</ele><time>2026-04-12T08:51:36.287Z</time></trkpt><trkpt lat="43.9515279" lon="12.4222447"><ele>205.79999999999998</ele><time>2026-04-12T08:51:37.286Z</time></trkpt><trkpt lat="43.9514763" lon="12.422116"><ele>202.6</ele><time>2026-04-12T08:51:38.302Z</time></trkpt><trkpt lat="43.951442" lon="12.4219743"><ele>199.4</ele><time>2026-04-12T08:51:39.304Z</time></trkpt><trkpt lat="43.9514034" lon="12.4218339"><ele>196.2</ele><time>2026-04-12T08:51:40.297Z</time></trkpt><trkpt lat="43.9513684" lon="12.421691"><ele>193.0</ele><time>2026-04-12T08:51:41.291Z</time></trkpt><trkpt lat="43.9513376" lon="12.421557"><ele>193.0</ele><time>2026-04-12T08:51:42.298Z</time></trkpt><trkpt lat="43.9513045" lon="12.4214152"><ele>193.0</ele><time>2026-04-12T08:51:43.297Z</time></trkpt><trkpt lat="43.9512829" lon="12.4212548"><ele>193.0</ele><time>2026-04-12T08:51:44.306Z</time></trkpt><trkpt lat="43.9512758" lon="12.4210985"><ele>193.0</ele><time>2026-04-12T08:51:45.297Z</time></trkpt><trkpt lat="43.9512791" lon="12.4209411"><ele>192.25</ele><time>2026-04-12T08:51:46.305Z</time></trkpt><trkpt lat="43.9512826" lon="12.4207775"><ele>191.5</ele><time>2026-04-12T08:51:47.301Z</time></trkpt><trkpt lat="43.9512966" lon="12.420619"><ele>190.75</ele><time>2026-04-12T08:51:48.287Z</time></trkpt><trkpt lat="43.9513222" lon="12.4204643"><ele>190.0</ele><time>2026-04-12T08:51:49.306Z</time></trkpt><trkpt lat="43.9513665" lon="12.4203221"><ele>190.8</ele><time>2026-04-12T08:51:50.294Z</time></trkpt><trkpt lat="43.9514263" lon="12.4201989"><ele>191.6</ele><time>2026-04-12T08:51:51.299Z</time></trkpt><trkpt lat="43.9514989" lon="12.4200904"><ele>192.39999999999998</ele><time>2026-04-12T08:51:52.256Z</time></trkpt><trkpt lat="43.9515683" lon="12.419999"><ele>193.2</ele><time>2026-04-12T08:51:53.255Z</time></trkpt><trkpt lat="43.9516467" lon="12.4199297"><ele>194.0</ele><time>2026-04-12T08:51:54.298Z</time></trkpt><trkpt lat="43.9517293" lon="12.4198593"><ele>194.0</ele><time>2026-04-12T08:51:55.32Z</time></trkpt><trkpt lat="43.9518018" lon="12.4197593"><ele>194.0</ele><time>2026-04-12T08:51:56.301Z</time></trkpt><trkpt lat="43.9518788" lon="12.4196522"><ele>194.0</ele><time>2026-04-12T08:51:57.291Z</time></trkpt><trkpt lat="43.9519321" lon="12.4195255"><ele>194.0</ele><time>2026-04-12T08:51:58.297Z</time></trkpt><trkpt lat="43.9519732" lon="12.4194037"><ele>194.0</ele><time>2026-04-12T08:51:59.316Z</time></trkpt><trkpt lat="43.9520021" lon="12.4192757"><ele>192.0</ele><time>2026-04-12T08:52:00.308Z</time></trkpt><trkpt lat="43.9520316" lon="12.4191394"><ele>190.0</ele><time>2026-04-12T08:52:01.311Z</time></trkpt><trkpt lat="43.9520637" lon="12.4190043"><ele>188.0</ele><time>2026-04-12T08:52:02.31Z</time></trkpt><trkpt lat="43.9520926" lon="12.4188873"><ele>186.0</ele><time>2026-04-12T08:52:03.311Z</time></trkpt><trkpt lat="43.9521228" lon="12.4187583"><ele>184.0</ele><time>2026-04-12T08:52:04.283Z</time></trkpt><trkpt lat="43.9521514" lon="12.4186396"><ele>183.42857142857144</ele><time>2026-04-12T08:52:05.243Z</time></trkpt><trkpt lat="43.9521813" lon="12.4185302"><ele>182.85714285714283</ele><time>2026-04-12T08:52:06.304Z</time></trkpt><trkpt lat="43.9522014" lon="12.4184288"><ele>182.28571428571428</ele><time>2026-04-12T08:52:07.288Z</time></trkpt><trkpt lat="43.9522331" lon="12.4183249"><ele>181.71428571428572</ele><time>2026-04-12T08:52:08.302Z</time></trkpt><trkpt lat="43.9522603" lon="12.4182359"><ele>181.14285714285717</ele><time>2026-04-12T08:52:09.31Z</time></trkpt><trkpt lat="43.9522931" lon="12.4181518"><ele>180.57142857142856</ele><time>2026-04-12T08:52:10.289Z</time></trkpt><trkpt lat="43.9523209" lon="12.4180715"><ele>180.0</ele><time>2026-04-12T08:52:11.307Z</time></trkpt><trkpt lat="43.9523556" lon="12.4179895"><ele>180.33333333333334</ele><time>2026-04-12T08:52:12.298Z</time></trkpt><trkpt lat="43.9523852" lon="12.4179079"><ele>180.66666666666666</ele><time>2026-04-12T08:52:13.291Z</time></trkpt><trkpt lat="43.9524261" lon="12.4178279"><ele>181.0</ele><time>2026-04-12T08:52:14.289Z</time></trkpt><trkpt lat="43.9524617" lon="12.4177442"><ele>181.33333333333331</ele><time>2026-04-12T08:52:15.292Z</time></trkpt><trkpt lat="43.9524998" lon="12.4176444"><ele>181.66666666666666</ele><time>2026-04-12T08:52:16.308Z</time></trkpt><trkpt lat="43.9525437" lon="12.4175434"><ele>182.0</ele><time>2026-04-12T08:52:17.279Z</time></trkpt><trkpt lat="43.9525939" lon="12.4174387"><ele>182.0</ele><time>2026-04-12T08:52:18.29Z</time></trkpt><trkpt lat="43.9526503" lon="12.4173255"><ele>182.0</ele><time>2026-04-12T08:52:19.283Z</time></trkpt><trkpt lat="43.9527094" lon="12.4172156"><ele>182.0</ele><time>2026-04-12T08:52:20.277Z</time></trkpt><trkpt lat="43.9527638" lon="12.4171038"><ele>182.0</ele><time>2026-04-12T08:52:21.278Z</time></trkpt><trkpt lat="43.9528168" lon="12.4169772"><ele>182.0</ele><time>2026-04-12T08:52:22.258Z</time></trkpt><trkpt lat="43.952866" lon="12.4168382"><ele>180.6</ele><time>2026-04-12T08:52:23.273Z</time></trkpt><trkpt lat="43.9529078" lon="12.4166921"><ele>179.2</ele><time>2026-04-12T08:52:24.268Z</time></trkpt><trkpt lat="43.9529459" lon="12.4165568"><ele>177.8</ele><time>2026-04-12T08:52:25.315Z</time></trkpt><trkpt lat="43.9529829" lon="12.4164396"><ele>176.4</ele><time>2026-04-12T08:52:26.297Z</time></trkpt><trkpt lat="43.9530373" lon="12.4163293"><ele>175.0</ele><time>2026-04-12T08:52:27.305Z</time></trkpt><trkpt lat="43.9531029" lon="12.4162352"><ele>173.83333333333334</ele><time>2026-04-12T08:52:28.291Z</time></trkpt><trkpt lat="43.953173" lon="12.4161605"><ele>172.66666666666669</ele><time>2026-04-12T08:52:29.289Z</time></trkpt><trkpt lat="43.9532303" lon="12.4160892"><ele>171.5</ele><time>2026-04-12T08:52:30.296Z</time></trkpt><trkpt lat="43.953271" lon="12.4160166"><ele>170.33333333333334</ele><time>2026-04-12T08:52:31.318Z</time></trkpt><trkpt lat="43.9532817" lon="12.4159142"><ele>169.16666666666666</ele><time>2026-04-12T08:52:32.288Z</time></trkpt><trkpt lat="43.9532776" lon="12.4157957"><ele>168.0</ele><time>2026-04-12T08:52:33.279Z</time></trkpt><trkpt lat="43.9532542" lon="12.4156752"><ele>168.0</ele><time>2026-04-12T08:52:34.291Z</time></trkpt><trkpt lat="43.9532226" lon="12.4155501"><ele>168.0</ele><time>2026-04-12T08:52:35.253Z</time></trkpt><trkpt lat="43.9531943" lon="12.4154377"><ele>168.0</ele><time>2026-04-12T08:52:36.29Z</time></trkpt><trkpt lat="43.9531756" lon="12.4153148"><ele>168.0</ele><time>2026-04-12T08:52:37.269Z</time></trkpt><trkpt lat="43.9531769" lon="12.4151886"><ele>168.0</ele><time>2026-04-12T08:52:38.298Z</time></trkpt><trkpt lat="43.9531817" lon="12.4150595"><ele>166.8</ele><time>2026-04-12T08:52:39.307Z</time></trkpt><trkpt lat="43.9531738" lon="12.4149249"><ele>165.60000000000002</ele><time>2026-04-12T08:52:40.296Z</time></trkpt><trkpt lat="43.953173" lon="12.4147985"><ele>164.39999999999998</ele><time>2026-04-12T08:52:41.276Z</time></trkpt><trkpt lat="43.9531797" lon="12.4146752"><ele>163.2</ele><time>2026-04-12T08:52:42.286Z</time></trkpt><trkpt lat="43.9531839" lon="12.4145543"><ele>162.0</ele><time>2026-04-12T08:52:43.312Z</time></trkpt><trkpt lat="43.9532068" lon="12.414433"><ele>161.66666666666666</ele><time>2026-04-12T08:52:44.288Z</time></trkpt><trkpt lat="43.9532345" lon="12.4143305"><ele>161.33333333333334</ele><time>2026-04-12T08:52:45.268Z</time></trkpt><trkpt lat="43.9532535" lon="12.4142391"><ele>161.0</ele><time>2026-04-12T08:52:46.278Z</time></trkpt><trkpt lat="43.953227" lon="12.4141515"><ele>160.66666666666669</ele><time>2026-04-12T08:52:47.297Z</time></trkpt><trkpt lat="43.9531607" lon="12.4140774"><ele>160.33333333333334</ele><time>2026-04-12T08:52:48.288Z</time></trkpt><trkpt lat="43.9530896" lon="12.4140403"><ele>160.0</ele><time>2026-04-12T08:52:49.285Z</time></trkpt><trkpt lat="43.9530175" lon="12.4140205"><ele>160.0</ele><time>2026-04-12T08:52:50.298Z</time></trkpt><trkpt lat="43.9529444" lon="12.4139996"><ele>160.0</ele><time>2026-04-12T08:52:51.285Z</time></trkpt><trkpt lat="43.95287" lon="12.4139609"><ele>160.0</ele><time>2026-04-12T08:52:52.258Z</time></trkpt><trkpt lat="43.952811" lon="12.4139153"><ele>160.0</ele><time>2026-04-12T08:52:53.307Z</time></trkpt><trkpt lat="43.9527949" lon="12.4137929"><ele>160.0</ele><time>2026-04-12T08:52:54.288Z</time></trkpt><trkpt lat="43.9527887" lon="12.4136703"><ele>160.0</ele><time>2026-04-12T08:52:55.299Z</time></trkpt><trkpt lat="43.9527945" lon="12.4135444"><ele>160.33333333333334</ele><time>2026-04-12T08:52:56.293Z</time></trkpt><trkpt lat="43.9527971" lon="12.4134271"><ele>160.66666666666669</ele><time>2026-04-12T08:52:57.295Z</time></trkpt><trkpt lat="43.9527989" lon="12.4133078"><ele>161.0</ele><time>2026-04-12T08:52:58.287Z</time></trkpt><trkpt lat="43.9528066" lon="12.4131865"><ele>161.33333333333334</ele><time>2026-04-12T08:52:59.292Z</time></trkpt><trkpt lat="43.9528094" lon="12.4130678"><ele>161.66666666666666</ele><time>2026-04-12T08:53:00.281Z</time></trkpt><trkpt lat="43.9528146" lon="12.4129584"><ele>162.0</ele><time>2026-04-12T08:53:01.278Z</time></trkpt><trkpt lat="43.9528143" lon="12.4128493"><ele>162.0</ele><time>2026-04-12T08:53:02.285Z</time></trkpt><trkpt lat="43.9528029" lon="12.4127498"><ele>162.0</ele><time>2026-04-12T08:53:03.288Z</time></trkpt><trkpt lat="43.9527952" lon="12.4126437"><ele>162.0</ele><time>2026-04-12T08:53:04.302Z</time></trkpt><trkpt lat="43.9527711" lon="12.4125387"><ele>162.0</ele><time>2026-04-12T08:53:05.302Z</time></trkpt><trkpt lat="43.9527424" lon="12.4124316"><ele>162.0</ele><time>2026-04-12T08:53:06.293Z</time></trkpt><trkpt lat="43.9526985" lon="12.4123219"><ele>162.0</ele><time>2026-04-12T08:53:07.296Z</time></trkpt><trkpt lat="43.9526555" lon="12.4122129"><ele>161.6</ele><time>2026-04-12T08:53:08.299Z</time></trkpt><trkpt lat="43.9526205" lon="12.4121053"><ele>161.2</ele><time>2026-04-12T08:53:09.296Z</time></trkpt><trkpt lat="43.952585" lon="12.411992"><ele>160.8</ele><time>2026-04-12T08:53:10.308Z</time></trkpt><trkpt lat="43.9525461" lon="12.4118788"><ele>160.4</ele><time>2026-04-12T08:53:11.304Z</time></trkpt><trkpt lat="43.952522" lon="12.4117488"><ele>160.0</ele><time>2026-04-12T08:53:12.282Z</time></trkpt><trkpt lat="43.9525326" lon="12.4116224"><ele>160.0</ele><time>2026-04-12T08:53:13.298Z</time></trkpt><trkpt lat="43.9525708" lon="12.4115007"><ele>160.0</ele><time>2026-04-12T08:53:14.292Z</time></trkpt><trkpt lat="43.95264" lon="12.4113979"><ele>160.0</ele><time>2026-04-12T08:53:15.283Z</time></trkpt><trkpt lat="43.9527076" lon="12.4113155"><ele>160.0</ele><time>2026-04-12T08:53:16.294Z</time></trkpt><trkpt lat="43.9527725" lon="12.4112285"><ele>160.0</ele><time>2026-04-12T08:53:17.298Z</time></trkpt><trkpt lat="43.9528321" lon="12.4111436"><ele>158.83333333333334</ele><time>2026-04-12T08:53:18.298Z</time></trkpt><trkpt lat="43.9528927" lon="12.4110559"><ele>157.66666666666669</ele><time>2026-04-12T08:53:19.317Z</time></trkpt><trkpt lat="43.9529395" lon="12.4109474"><ele>156.5</ele><time>2026-04-12T08:53:20.302Z</time></trkpt><trkpt lat="43.9529781" lon="12.4108306"><ele>155.33333333333334</ele><time>2026-04-12T08:53:21.3Z</time></trkpt><trkpt lat="43.9530229" lon="12.4107238"><ele>154.16666666666666</ele><time>2026-04-12T08:53:22.314Z</time></trkpt><trkpt lat="43.9530639" lon="12.4106135"><ele>153.0</ele><time>2026-04-12T08:53:23.299Z</time></trkpt><trkpt lat="43.9531033" lon="12.4105113"><ele>152.16666666666666</ele><time>2026-04-12T08:53:24.309Z</time></trkpt><trkpt lat="43.9531478" lon="12.4104089"><ele>151.33333333333334</ele><time>2026-04-12T08:53:25.288Z</time></trkpt><trkpt lat="43.9531854" lon="12.410311"><ele>150.5</ele><time>2026-04-12T08:53:26.286Z</time></trkpt><trkpt lat="43.9532246" lon="12.4102095"><ele>149.66666666666669</ele><time>2026-04-12T08:53:27.295Z</time></trkpt><trkpt lat="43.9532618" lon="12.410107"><ele>148.83333333333334</ele><time>2026-04-12T08:53:28.294Z</time></trkpt><trkpt lat="43.9532809" lon="12.4099999"><ele>148.0</ele><time>2026-04-12T08:53:29.317Z</time></trkpt><trkpt lat="43.9532839" lon="12.4098892"><ele>148.0</ele><time>2026-04-12T08:53:30.309Z</time></trkpt><trkpt lat="43.9532938" lon="12.4097752"><ele>148.0</ele><time>2026-04-12T08:53:31.293Z</time></trkpt><trkpt lat="43.9533089" lon="12.4096683"><ele>148.0</ele><time>2026-04-12T08:53:32.299Z</time></trkpt><trkpt lat="43.9533229" lon="12.4095481"><ele>148.0</ele><time>2026-04-12T08:53:33.3Z</time></trkpt><trkpt lat="43.9533388" lon="12.4094348"><ele>148.0</ele><time>2026-04-12T08:53:34.315Z</time></trkpt><trkpt lat="43.9533499" lon="12.409315"><ele>148.0</ele><time>2026-04-12T08:53:35.294Z</time></trkpt><trkpt lat="43.9533602" lon="12.4092003"><ele>148.33333333333334</ele><time>2026-04-12T08:53:36.294Z</time></trkpt><trkpt lat="43.953371" lon="12.4090943"><ele>148.66666666666669</ele><time>2026-04-12T08:53:37.288Z</time></trkpt><trkpt lat="43.9533942" lon="12.4089915"><ele>149.0</ele><time>2026-04-12T08:53:38.261Z</time></trkpt><trkpt lat="43.9534085" lon="12.4088782"><ele>149.33333333333334</ele><time>2026-04-12T08:53:39.298Z</time></trkpt><trkpt lat="43.9534224" lon="12.4087626"><ele>149.66666666666666</ele><time>2026-04-12T08:53:40.295Z</time></trkpt><trkpt lat="43.9534383" lon="12.4086503"><ele>150.0</ele><time>2026-04-12T08:53:41.296Z</time></trkpt><trkpt lat="43.9534582" lon="12.4085403"><ele>150.0</ele><time>2026-04-12T08:53:42.276Z</time></trkpt><trkpt lat="43.9534916" lon="12.4084335"><ele>150.0</ele><time>2026-04-12T08:53:43.271Z</time></trkpt><trkpt lat="43.9535269" lon="12.4083271"><ele>150.0</ele><time>2026-04-12T08:53:44.304Z</time></trkpt><trkpt lat="43.9535535" lon="12.4082226"><ele>150.0</ele><time>2026-04-12T08:53:45.286Z</time></trkpt><trkpt lat="43.9535766" lon="12.4081164"><ele>150.0</ele><time>2026-04-12T08:53:46.309Z</time></trkpt><trkpt lat="43.9536033" lon="12.4080151"><ele>150.0</ele><time>2026-04-12T08:53:47.291Z</time></trkpt><trkpt lat="43.95363" lon="12.4079177"><ele>148.83333333333334</ele><time>2026-04-12T08:53:48.243Z</time></trkpt><trkpt lat="43.9536648" lon="12.4078208"><ele>147.66666666666666</ele><time>2026-04-12T08:53:49.289Z</time></trkpt><trkpt lat="43.9536988" lon="12.4077213"><ele>146.5</ele><time>2026-04-12T08:53:50.251Z</time></trkpt><trkpt lat="43.953732" lon="12.4076154"><ele>145.33333333333331</ele><time>2026-04-12T08:53:51.278Z</time></trkpt><trkpt lat="43.9537752" lon="12.4075238"><ele>144.16666666666666</ele><time>2026-04-12T08:53:52.314Z</time></trkpt><trkpt lat="43.9538301" lon="12.407444"><ele>143.0</ele><time>2026-04-12T08:53:53.282Z</time></trkpt><trkpt lat="43.9538818" lon="12.4073661"><ele>143.0</ele><time>2026-04-12T08:53:54.297Z</time></trkpt><trkpt lat="43.9539315" lon="12.4072805"><ele>143.0</ele><time>2026-04-12T08:53:55.306Z</time></trkpt><trkpt lat="43.9539878" lon="12.4071953"><ele>143.0</ele><time>2026-04-12T08:53:56.309Z</time></trkpt><trkpt lat="43.9540354" lon="12.4071077"><ele>143.0</ele><time>2026-04-12T08:53:57.295Z</time></trkpt><trkpt lat="43.9540917" lon="12.4070167"><ele>143.0</ele><time>2026-04-12T08:53:58.289Z</time></trkpt><trkpt lat="43.9541417" lon="12.406915"><ele>143.0</ele><time>2026-04-12T08:53:59.258Z</time></trkpt><trkpt lat="43.9541871" lon="12.4068113"><ele>142.33333333333331</ele><time>2026-04-12T08:54:00.256Z</time></trkpt><trkpt lat="43.9542322" lon="12.4067184"><ele>141.66666666666666</ele><time>2026-04-12T08:54:01.308Z</time></trkpt><trkpt lat="43.9542793" lon="12.4066149"><ele>141.0</ele><time>2026-04-12T08:54:02.294Z</time></trkpt><trkpt lat="43.9543175" lon="12.4065215"><ele>140.33333333333334</ele><time>2026-04-12T08:54:03.301Z</time></trkpt><trkpt lat="43.9543536" lon="12.4064236"><ele>139.66666666666669</ele><time>2026-04-12T08:54:04.295Z</time></trkpt><trkpt lat="43.9543899" lon="12.4063207"><ele>139.0</ele><time>2026-04-12T08:54:05.304Z</time></trkpt><trkpt lat="43.9544232" lon="12.4062167"><ele>138.83333333333334</ele><time>2026-04-12T08:54:06.263Z</time></trkpt><trkpt lat="43.9544492" lon="12.4061094"><ele>138.66666666666669</ele><time>2026-04-12T08:54:07.316Z</time></trkpt><trkpt lat="43.954474" lon="12.4060091"><ele>138.5</ele><time>2026-04-12T08:54:08.305Z</time></trkpt><trkpt lat="43.9544932" lon="12.4059061"><ele>138.33333333333334</ele><time>2026-04-12T08:54:09.3Z</time></trkpt><trkpt lat="43.9545176" lon="12.4058102"><ele>138.16666666666666</ele><time>2026-04-12T08:54:10.275Z</time></trkpt><trkpt lat="43.9545442" lon="12.4057143"><ele>138.0</ele><time>2026-04-12T08:54:11.293Z</time></trkpt><trkpt lat="43.9545647" lon="12.4056189"><ele>138.0</ele><time>2026-04-12T08:54:12.303Z</time></trkpt><trkpt lat="43.9545868" lon="12.4055272"><ele>138.0</ele><time>2026-04-12T08:54:13.296Z</time></trkpt><trkpt lat="43.954611" lon="12.4054432"><ele>138.0</ele><time>2026-04-12T08:54:14.249Z</time></trkpt><trkpt lat="43.9546482" lon="12.4053489"><ele>138.0</ele><time>2026-04-12T08:54:16.294Z</time></trkpt><trkpt lat="43.9547274" lon="12.4053159"><ele>138.0</ele><time>2026-04-12T08:54:19.291Z</time></trkpt><trkpt lat="43.9548148" lon="12.4053314"><ele>138.0</ele><time>2026-04-12T08:54:21.296Z</time></trkpt><trkpt lat="43.9549236" lon="12.4053076"><ele>138.25</ele><time>2026-04-12T08:54:23.295Z</time></trkpt><trkpt lat="43.9550351" lon="12.4052909"><ele>138.5</ele><time>2026-04-12T08:54:25.282Z</time></trkpt><trkpt lat="43.9551561" lon="12.4052692"><ele>138.75</ele><time>2026-04-12T08:54:27.294Z</time></trkpt><trkpt lat="43.9552802" lon="12.405247"><ele>139.0</ele><time>2026-04-12T08:54:29.292Z</time></trkpt><trkpt lat="43.9554074" lon="12.4052189"><ele>138.42857142857142</ele><time>2026-04-12T08:54:31.29Z</time></trkpt><trkpt lat="43.9554746" lon="12.4052081"><ele>137.85714285714286</ele><time>2026-04-12T08:54:32.278Z</time></trkpt><trkpt lat="43.955547" lon="12.4051967"><ele>137.28571428571428</ele><time>2026-04-12T08:54:33.298Z</time></trkpt><trkpt lat="43.9556165" lon="12.405187"><ele>136.71428571428572</ele><time>2026-04-12T08:54:34.295Z</time></trkpt><trkpt lat="43.955687" lon="12.4051796"><ele>136.14285714285714</ele><time>2026-04-12T08:54:35.26Z</time></trkpt><trkpt lat="43.9557564" lon="12.4051667"><ele>135.57142857142856</ele><time>2026-04-12T08:54:36.269Z</time></trkpt><trkpt lat="43.955828" lon="12.4051538"><ele>135.0</ele><time>2026-04-12T08:54:37.274Z</time></trkpt><trkpt lat="43.9558986" lon="12.4051428"><ele>134.71428571428572</ele><time>2026-04-12T08:54:38.25Z</time></trkpt><trkpt lat="43.9559685" lon="12.4051349"><ele>134.42857142857142</ele><time>2026-04-12T08:54:39.289Z</time></trkpt><trkpt lat="43.9560409" lon="12.4051232"><ele>134.14285714285714</ele><time>2026-04-12T08:54:40.298Z</time></trkpt><trkpt lat="43.9561128" lon="12.4051113"><ele>133.85714285714286</ele><time>2026-04-12T08:54:41.287Z</time></trkpt><trkpt lat="43.9561876" lon="12.4051033"><ele>133.57142857142856</ele><time>2026-04-12T08:54:42.304Z</time></trkpt><trkpt lat="43.9562596" lon="12.4050922"><ele>133.28571428571428</ele><time>2026-04-12T08:54:43.279Z</time></trkpt><trkpt lat="43.9563304" lon="12.4050791"><ele>133.0</ele><time>2026-04-12T08:54:44.305Z</time></trkpt><trkpt lat="43.9563999" lon="12.4050698"><ele>133.0</ele><time>2026-04-12T08:54:45.272Z</time></trkpt><trkpt lat="43.9564708" lon="12.4050593"><ele>133.0</ele><time>2026-04-12T08:54:46.289Z</time></trkpt><trkpt lat="43.956538" lon="12.4050459"><ele>133.0</ele><time>2026-04-12T08:54:47.29Z</time></trkpt><trkpt lat="43.9566057" lon="12.4050406"><ele>133.0</ele><time>2026-04-12T08:54:48.279Z</time></trkpt><trkpt lat="43.9566746" lon="12.405028"><ele>133.0</ele><time>2026-04-12T08:54:49.301Z</time></trkpt><trkpt lat="43.9567455" lon="12.4050214"><ele>133.0</ele><time>2026-04-12T08:54:50.288Z</time></trkpt><trkpt lat="43.956811" lon="12.405016"><ele>133.0</ele><time>2026-04-12T08:54:51.269Z</time></trkpt><trkpt lat="43.9568791" lon="12.4050021"><ele>132.85714285714286</ele><time>2026-04-12T08:54:52.264Z</time></trkpt><trkpt lat="43.9569471" lon="12.4049824"><ele>132.71428571428572</ele><time>2026-04-12T08:54:53.291Z</time></trkpt><trkpt lat="43.9570215" lon="12.4049729"><ele>132.57142857142856</ele><time>2026-04-12T08:54:54.292Z</time></trkpt><trkpt lat="43.9570908" lon="12.4049691"><ele>132.42857142857144</ele><time>2026-04-12T08:54:55.29Z</time></trkpt><trkpt lat="43.9571632" lon="12.4049577"><ele>132.28571428571428</ele><time>2026-04-12T08:54:56.284Z</time></trkpt><trkpt lat="43.9572353" lon="12.4049466"><ele>132.14285714285714</ele><time>2026-04-12T08:54:57.284Z</time></trkpt><trkpt lat="43.957304" lon="12.4049364"><ele>132.0</ele><time>2026-04-12T08:54:58.282Z</time></trkpt><trkpt lat="43.9573726" lon="12.4049202"><ele>132.0</ele><time>2026-04-12T08:54:59.279Z</time></trkpt><trkpt lat="43.9574405" lon="12.4048989"><ele>132.0</ele><time>2026-04-12T08:55:00.295Z</time></trkpt><trkpt lat="43.9575145" lon="12.4048731"><ele>132.0</ele><time>2026-04-12T08:55:01.288Z</time></trkpt><trkpt lat="43.95758" lon="12.4048579"><ele>132.0</ele><time>2026-04-12T08:55:02.241Z</time></trkpt><trkpt lat="43.9576436" lon="12.4048342"><ele>132.0</ele><time>2026-04-12T08:55:03.3Z</time></trkpt><trkpt lat="43.9577076" lon="12.4047999"><ele>132.0</ele><time>2026-04-12T08:55:04.292Z</time></trkpt><trkpt lat="43.9577702" lon="12.404763"><ele>132.0</ele><time>2026-04-12T08:55:05.292Z</time></trkpt><trkpt lat="43.9578328" lon="12.4047304"><ele>132.0</ele><time>2026-04-12T08:55:06.282Z</time></trkpt><trkpt lat="43.9579494" lon="12.4046564"><ele>132.0</ele><time>2026-04-12T08:55:08.289Z</time></trkpt><trkpt lat="43.9580099" lon="12.4046084"><ele>132.0</ele><time>2026-04-12T08:55:09.296Z</time></trkpt><trkpt lat="43.9580718" lon="12.4045581"><ele>132.0</ele><time>2026-04-12T08:55:10.299Z</time></trkpt><trkpt lat="43.9581299" lon="12.4045004"><ele>132.0</ele><time>2026-04-12T08:55:11.299Z</time></trkpt><trkpt lat="43.9581859" lon="12.4044386"><ele>132.0</ele><time>2026-04-12T08:55:12.296Z</time></trkpt><trkpt lat="43.958242" lon="12.4043887"><ele>132.0</ele><time>2026-04-12T08:55:13.256Z</time></trkpt><trkpt lat="43.9583037" lon="12.4043358"><ele>132.0</ele><time>2026-04-12T08:55:14.28Z</time></trkpt><trkpt lat="43.9583598" lon="12.4042635"><ele>132.0</ele><time>2026-04-12T08:55:15.301Z</time></trkpt><trkpt lat="43.958412" lon="12.4041988"><ele>132.0</ele><time>2026-04-12T08:55:16.306Z</time></trkpt><trkpt lat="43.958462" lon="12.4041301"><ele>132.0</ele><time>2026-04-12T08:55:17.297Z</time></trkpt><trkpt lat="43.9585142" lon="12.4040587"><ele>132.0</ele><time>2026-04-12T08:55:18.294Z</time></trkpt><trkpt lat="43.9585617" lon="12.4039865"><ele>132.0</ele><time>2026-04-12T08:55:19.294Z</time></trkpt><trkpt lat="43.9586113" lon="12.4039123"><ele>133.0</ele><time>2026-04-12T08:55:20.281Z</time></trkpt><trkpt lat="43.9586594" lon="12.4038358"><ele>134.0</ele><time>2026-04-12T08:55:21.263Z</time></trkpt><trkpt lat="43.958707" lon="12.403756"><ele>135.0</ele><time>2026-04-12T08:55:22.301Z</time></trkpt><trkpt lat="43.9587493" lon="12.4036836"><ele>136.0</ele><time>2026-04-12T08:55:23.291Z</time></trkpt><trkpt lat="43.9587937" lon="12.403598"><ele>137.0</ele><time>2026-04-12T08:55:24.296Z</time></trkpt><trkpt lat="43.9588322" lon="12.4035181"><ele>138.0</ele><time>2026-04-12T08:55:25.307Z</time></trkpt><trkpt lat="43.9588668" lon="12.4034374"><ele>139.0</ele><time>2026-04-12T08:55:26.304Z</time></trkpt><trkpt lat="43.9588946" lon="12.4033518"><ele>139.0</ele><time>2026-04-12T08:55:27.276Z</time></trkpt><trkpt lat="43.9589516" lon="12.4031937"><ele>139.0</ele><time>2026-04-12T08:55:29.302Z</time></trkpt><trkpt lat="43.9589991" lon="12.4030448"><ele>139.0</ele><time>2026-04-12T08:55:31.311Z</time></trkpt><trkpt lat="43.9590434" lon="12.4028881"><ele>139.0</ele><time>2026-04-12T08:55:33.305Z</time></trkpt><trkpt lat="43.9590908" lon="12.4027372"><ele>138.75</ele><time>2026-04-12T08:55:35.287Z</time></trkpt><trkpt lat="43.9591465" lon="12.4025847"><ele>138.5</ele><time>2026-04-12T08:55:37.29Z</time></trkpt><trkpt lat="43.9591996" lon="12.402431"><ele>138.25</ele><time>2026-04-12T08:55:39.274Z</time></trkpt><trkpt lat="43.9592453" lon="12.402293"><ele>138.0</ele><time>2026-04-12T08:55:41.271Z</time></trkpt><trkpt lat="43.9593041" lon="12.4021844"><ele>138.0</ele><time>2026-04-12T08:55:43.301Z</time></trkpt><trkpt lat="43.9593997" lon="12.4021137"><ele>138.0</ele><time>2026-04-12T08:55:45.284Z</time></trkpt><trkpt lat="43.9595167" lon="12.4021116"><ele>138.0</ele><time>2026-04-12T08:55:47.286Z</time></trkpt><trkpt lat="43.9596228" lon="12.4021498"><ele>138.0</ele><time>2026-04-12T08:55:49.302Z</time></trkpt><trkpt lat="43.9597255" lon="12.4022113"><ele>138.0</ele><time>2026-04-12T08:55:51.294Z</time></trkpt><trkpt lat="43.9598389" lon="12.4022342"><ele>138.0</ele><time>2026-04-12T08:55:53.288Z</time></trkpt><trkpt lat="43.959954" lon="12.4022569"><ele>138.0</ele><time>2026-04-12T08:55:55.269Z</time></trkpt><trkpt lat="43.960067" lon="12.4022592"><ele>138.0</ele><time>2026-04-12T08:55:57.288Z</time></trkpt><trkpt lat="43.9601913" lon="12.402257"><ele>138.0</ele><time>2026-04-12T08:55:59.3Z</time></trkpt><trkpt lat="43.9603043" lon="12.4022422"><ele>138.4</ele><time>2026-04-12T08:56:01.317Z</time></trkpt><trkpt lat="43.9604257" lon="12.4022143"><ele>138.8</ele><time>2026-04-12T08:56:03.309Z</time></trkpt><trkpt lat="43.9605419" lon="12.402185"><ele>139.2</ele><time>2026-04-12T08:56:05.297Z</time></trkpt><trkpt lat="43.9606579" lon="12.402141"><ele>139.6</ele><time>2026-04-12T08:56:07.309Z</time></trkpt><trkpt lat="43.9607188" lon="12.4021147"><ele>140.0</ele><time>2026-04-12T08:56:08.309Z</time></trkpt><trkpt lat="43.9608326" lon="12.40206"><ele>139.71428571428572</ele><time>2026-04-12T08:56:10.308Z</time></trkpt><trkpt lat="43.9609238" lon="12.4020426"><ele>139.42857142857144</ele><time>2026-04-12T08:56:12.313Z</time></trkpt><trkpt lat="43.9609714" lon="12.4021165"><ele>139.14285714285714</ele><time>2026-04-12T08:56:14.315Z</time></trkpt><trkpt lat="43.9609653" lon="12.4022083"><ele>138.85714285714286</ele><time>2026-04-12T08:56:17.288Z</time></trkpt><trkpt lat="43.9609603" lon="12.402298"><ele>138.57142857142858</ele><time>2026-04-12T08:56:21.307Z</time></trkpt><trkpt lat="43.9609441" lon="12.4024024"><ele>138.28571428571428</ele><time>2026-04-12T08:56:26.279Z</time></trkpt><trkpt lat="43.9609421" lon="12.4025038"><ele>138.0</ele><time>2026-04-12T08:56:30.293Z</time></trkpt><trkpt lat="43.9609303" lon="12.4026169"><ele>138.0</ele><time>2026-04-12T08:56:34.316Z</time></trkpt><trkpt lat="43.9609403" lon="12.402727"><ele>138.0</ele><time>2026-04-12T08:56:38.282Z</time></trkpt><trkpt lat="43.9609362" lon="12.4028182"><ele>138.0</ele><time>2026-04-12T08:56:41.307Z</time></trkpt><trkpt lat="43.960939" lon="12.4029117"><ele>138.0</ele><time>2026-04-12T08:56:44.269Z</time></trkpt><trkpt lat="43.9609557" lon="12.4030229"><ele>138.0</ele><time>2026-04-12T08:56:49.288Z</time></trkpt><trkpt lat="43.9609633" lon="12.4031279"><ele>138.0</ele><time>2026-04-12T08:56:53.286Z</time></trkpt><trkpt lat="43.960959" lon="12.4032314"><ele>138.0</ele><time>2026-04-12T08:56:57.294Z</time></trkpt><trkpt lat="43.960945" lon="12.4033317"><ele>138.71428571428572</ele><time>2026-04-12T08:57:01.281Z</time></trkpt><trkpt lat="43.9609247" lon="12.4034348"><ele>139.42857142857144</ele><time>2026-04-12T08:57:05.305Z</time></trkpt><trkpt lat="43.9609011" lon="12.4035273"><ele>140.14285714285714</ele><time>2026-04-12T08:57:09.299Z</time></trkpt><trkpt lat="43.9608999" lon="12.4036315"><ele>140.85714285714286</ele><time>2026-04-12T08:57:13.301Z</time></trkpt><trkpt lat="43.9608918" lon="12.4037422"><ele>141.57142857142856</ele><time>2026-04-12T08:57:17.311Z</time></trkpt><trkpt lat="43.9608919" lon="12.4038388"><ele>142.28571428571428</ele><time>2026-04-12T08:57:21.3Z</time></trkpt><trkpt lat="43.9608945" lon="12.4039431"><ele>143.0</ele><time>2026-04-12T08:57:25.288Z</time></trkpt><trkpt lat="43.9608893" lon="12.4040448"><ele>144.14285714285714</ele><time>2026-04-12T08:57:29.308Z</time></trkpt><trkpt lat="43.9608745" lon="12.4041304"><ele>145.28571428571428</ele><time>2026-04-12T08:57:32.318Z</time></trkpt><trkpt lat="43.960869" lon="12.4042222"><ele>146.42857142857144</ele><time>2026-04-12T08:57:35.26Z</time></trkpt><trkpt lat="43.9608707" lon="12.404328"><ele>147.57142857142856</ele><time>2026-04-12T08:57:39.297Z</time></trkpt><trkpt lat="43.9608739" lon="12.4044211"><ele>148.71428571428572</ele><time>2026-04-12T08:57:42.264Z</time></trkpt><trkpt lat="43.9609109" lon="12.4045002"><ele>149.85714285714286</ele><time>2026-04-12T08:57:45.268Z</time></trkpt><trkpt lat="43.9609256" lon="12.4046081"><ele>151.0</ele><time>2026-04-12T08:57:50.304Z</time></trkpt><trkpt lat="43.960923" lon="12.404716"><ele>151.83333333333334</ele><time>2026-04-12T08:57:54.304Z</time></trkpt><trkpt lat="43.9609168" lon="12.4048053"><ele>152.66666666666669</ele><time>2026-04-12T08:57:57.283Z</time></trkpt><trkpt lat="43.9609014" lon="12.4049157"><ele>153.5</ele><time>2026-04-12T08:58:01.304Z</time></trkpt><trkpt lat="43.9608975" lon="12.4050204"><ele>154.33333333333334</ele><time>2026-04-12T08:58:05.307Z</time></trkpt><trkpt lat="43.9608847" lon="12.4051289"><ele>155.16666666666666</ele><time>2026-04-12T08:58:09.241Z</time></trkpt><trkpt lat="43.9608642" lon="12.4052294"><ele>156.0</ele><time>2026-04-12T08:58:13.303Z</time></trkpt><trkpt lat="43.9608394" lon="12.4053283"><ele>156.85714285714286</ele><time>2026-04-12T08:58:17.304Z</time></trkpt><trkpt lat="43.9608318" lon="12.4054222"><ele>157.7142857142857</ele><time>2026-04-12T08:58:20.308Z</time></trkpt><trkpt lat="43.9608348" lon="12.4055357"><ele>158.57142857142856</ele><time>2026-04-12T08:58:24.265Z</time></trkpt><trkpt lat="43.9608218" lon="12.4056414"><ele>159.42857142857144</ele><time>2026-04-12T08:58:28.282Z</time></trkpt><trkpt lat="43.9608202" lon="12.40574"><ele>160.28571428571428</ele><time>2026-04-12T08:58:32.288Z</time></trkpt><trkpt lat="43.9608262" lon="12.4058395"><ele>161.14285714285714</ele><time>2026-04-12T08:58:36.256Z</time></trkpt><trkpt lat="43.9608224" lon="12.4059313"><ele>162.0</ele><time>2026-04-12T08:58:40.29Z</time></trkpt><trkpt lat="43.9608226" lon="12.4060223"><ele>162.71428571428572</ele><time>2026-04-12T08:58:44.294Z</time></trkpt><trkpt lat="43.9608151" lon="12.4061142"><ele>163.42857142857142</ele><time>2026-04-12T08:58:47.308Z</time></trkpt><trkpt lat="43.9608119" lon="12.4062239"><ele>164.14285714285714</ele><time>2026-04-12T08:58:50.261Z</time></trkpt><trkpt lat="43.9608006" lon="12.4063364"><ele>164.85714285714286</ele><time>2026-04-12T08:58:53.293Z</time></trkpt><trkpt lat="43.9607795" lon="12.4064235"><ele>165.57142857142858</ele><time>2026-04-12T08:58:56.285Z</time></trkpt><trkpt lat="43.9607458" lon="12.4065255"><ele>166.28571428571428</ele><time>2026-04-12T08:59:00.277Z</time></trkpt><trkpt lat="43.9606966" lon="12.4065919"><ele>167.0</ele><time>2026-04-12T08:59:04.291Z</time></trkpt><trkpt lat="43.9606589" lon="12.406671"><ele>168.0</ele><time>2026-04-12T08:59:08.294Z</time></trkpt><trkpt lat="43.9606211" lon="12.4067514"><ele>169.0</ele><time>2026-04-12T08:59:12.297Z</time></trkpt><trkpt lat="43.9606046" lon="12.4068419"><ele>170.0</ele><time>2026-04-12T08:59:16.296Z</time></trkpt><trkpt lat="43.960603" lon="12.4069356"><ele>171.0</ele><time>2026-04-12T08:59:20.308Z</time></trkpt><trkpt lat="43.9606039" lon="12.4070473"><ele>172.0</ele><time>2026-04-12T08:59:24.284Z</time></trkpt><trkpt lat="43.9606067" lon="12.4071445"><ele>173.0</ele><time>2026-04-12T08:59:28.294Z</time></trkpt><trkpt lat="43.9606142" lon="12.4072405"><ele>174.0</ele><time>2026-04-12T08:59:32.303Z</time></trkpt><trkpt lat="43.9606388" lon="12.4073373"><ele>175.28571428571428</ele><time>2026-04-12T08:59:36.263Z</time></trkpt><trkpt lat="43.9606485" lon="12.4074371"><ele>176.57142857142858</ele><time>2026-04-12T08:59:41.307Z</time></trkpt><trkpt lat="43.9606536" lon="12.4075321"><ele>177.85714285714286</ele><time>2026-04-12T08:59:46.296Z</time></trkpt><trkpt lat="43.9606544" lon="12.4076303"><ele>179.14285714285714</ele><time>2026-04-12T08:59:52.286Z</time></trkpt><trkpt lat="43.9606496" lon="12.4077188"><ele>180.42857142857144</ele><time>2026-04-12T08:59:58.297Z</time></trkpt><trkpt lat="43.9606449" lon="12.4078074"><ele>181.71428571428572</ele><time>2026-04-12T09:00:03.284Z</time></trkpt><trkpt lat="43.9606393" lon="12.4079126"><ele>183.0</ele><time>2026-04-12T09:00:09.323Z</time></trkpt><trkpt lat="43.9606459" lon="12.408009"><ele>184.0</ele><time>2026-04-12T09:00:15.298Z</time></trkpt><trkpt lat="43.9606707" lon="12.4081008"><ele>185.0</ele><time>2026-04-12T09:00:20.287Z</time></trkpt><trkpt lat="43.960709" lon="12.4081908"><ele>186.0</ele><time>2026-04-12T09:00:25.285Z</time></trkpt><trkpt lat="43.9607356" lon="12.4082784"><ele>187.0</ele><time>2026-04-12T09:00:29.295Z</time></trkpt><trkpt lat="43.9607609" lon="12.4083772"><ele>188.0</ele><time>2026-04-12T09:00:35.271Z</time></trkpt><trkpt lat="43.9607964" lon="12.4084612"><ele>189.0</ele><time>2026-04-12T09:00:39.299Z</time></trkpt><trkpt lat="43.9608458" lon="12.4085314"><ele>190.0</ele><time>2026-04-12T09:00:44.302Z</time></trkpt><trkpt lat="43.9608868" lon="12.4086145"><ele>190.0</ele><time>2026-04-12T09:00:50.29Z</time></trkpt><trkpt lat="43.9609102" lon="12.408696"><ele>190.0</ele><time>2026-04-12T09:00:55.305Z</time></trkpt><trkpt lat="43.9609326" lon="12.4087952"><ele>190.0</ele><time>2026-04-12T09:01:00.306Z</time></trkpt><trkpt lat="43.960945" lon="12.4088942"><ele>190.0</ele><time>2026-04-12T09:01:05.296Z</time></trkpt><trkpt lat="43.9609514" lon="12.4089833"><ele>190.0</ele><time>2026-04-12T09:01:10.287Z</time></trkpt><trkpt lat="43.9609569" lon="12.4090723"><ele>190.0</ele><time>2026-04-12T09:01:15.292Z</time></trkpt><trkpt lat="43.9609714" lon="12.4091751"><ele>190.0</ele><time>2026-04-12T09:01:21.289Z</time></trkpt><trkpt lat="43.9609779" lon="12.409273"><ele>191.42857142857144</ele><time>2026-04-12T09:01:27.267Z</time></trkpt><trkpt lat="43.9609902" lon="12.4093733"><ele>192.85714285714286</ele><time>2026-04-12T09:01:33.298Z</time></trkpt><trkpt lat="43.9610082" lon="12.409475"><ele>194.28571428571428</ele><time>2026-04-12T09:01:39.301Z</time></trkpt><trkpt lat="43.9610288" lon="12.4095641"><ele>195.71428571428572</ele><time>2026-04-12T09:01:44.293Z</time></trkpt><trkpt lat="43.9610416" lon="12.4096524"><ele>197.14285714285714</ele><time>2026-04-12T09:01:49.279Z</time></trkpt><trkpt lat="43.9610436" lon="12.4097521"><ele>198.57142857142858</ele><time>2026-04-12T09:01:53.295Z</time></trkpt><trkpt lat="43.9610433" lon="12.4098501"><ele>200.0</ele><time>2026-04-12T09:01:57.304Z</time></trkpt><trkpt lat="43.9610332" lon="12.4099592"><ele>200.42857142857144</ele><time>2026-04-12T09:02:02.297Z</time></trkpt><trkpt lat="43.9610183" lon="12.410059"><ele>200.85714285714286</ele><time>2026-04-12T09:02:06.308Z</time></trkpt><trkpt lat="43.9609857" lon="12.4101492"><ele>201.28571428571428</ele><time>2026-04-12T09:02:10.298Z</time></trkpt><trkpt lat="43.9609755" lon="12.410253"><ele>201.71428571428572</ele><time>2026-04-12T09:02:14.298Z</time></trkpt><trkpt lat="43.9609697" lon="12.4103427"><ele>202.14285714285714</ele><time>2026-04-12T09:02:18.273Z</time></trkpt><trkpt lat="43.9609579" lon="12.4104504"><ele>202.57142857142858</ele><time>2026-04-12T09:02:23.288Z</time></trkpt><trkpt lat="43.9609537" lon="12.4105446"><ele>203.0</ele><time>2026-04-12T09:02:28.311Z</time></trkpt><trkpt lat="43.9609421" lon="12.4106366"><ele>203.42857142857142</ele><time>2026-04-12T09:02:33.297Z</time></trkpt><trkpt lat="43.9609458" lon="12.4107339"><ele>203.85714285714286</ele><time>2026-04-12T09:02:38.287Z</time></trkpt><trkpt lat="43.9609498" lon="12.4108218"><ele>204.28571428571428</ele><time>2026-04-12T09:02:42.294Z</time></trkpt><trkpt lat="43.9609535" lon="12.4109329"><ele>204.71428571428572</ele><time>2026-04-12T09:02:46.295Z</time></trkpt><trkpt lat="43.9609644" lon="12.4110313"><ele>205.14285714285714</ele><time>2026-04-12T09:02:50.286Z</time></trkpt><trkpt lat="43.9609696" lon="12.4111249"><ele>205.57142857142856</ele><time>2026-04-12T09:02:54.29Z</time></trkpt><trkpt lat="43.9609512" lon="12.4112185"><ele>206.0</ele><time>2026-04-12T09:02:59.245Z</time></trkpt><trkpt lat="43.9609274" lon="12.4112998"><ele>206.14285714285714</ele><time>2026-04-12T09:03:03.274Z</time></trkpt><trkpt lat="43.9608914" lon="12.4114151"><ele>206.28571428571428</ele><time>2026-04-12T09:03:07.281Z</time></trkpt><trkpt lat="43.960854" lon="12.4114878"><ele>206.42857142857144</ele><time>2026-04-12T09:03:09.287Z</time></trkpt><trkpt lat="43.9608245" lon="12.4115658"><ele>206.57142857142856</ele><time>2026-04-12T09:03:11.31Z</time></trkpt><trkpt lat="43.9608074" lon="12.4116641"><ele>206.71428571428572</ele><time>2026-04-12T09:03:13.302Z</time></trkpt><trkpt lat="43.9607828" lon="12.4117721"><ele>206.85714285714286</ele><time>2026-04-12T09:03:15.293Z</time></trkpt><trkpt lat="43.9607597" lon="12.4118577"><ele>207.0</ele><time>2026-04-12T09:03:17.272Z</time></trkpt><trkpt lat="43.9607383" lon="12.4119695"><ele>210.0</ele><time>2026-04-12T09:03:20.268Z</time></trkpt><trkpt lat="43.9607343" lon="12.4120684"><ele>213.0</ele><time>2026-04-12T09:03:23.297Z</time></trkpt><trkpt lat="43.9607355" lon="12.4121779"><ele>216.0</ele><time>2026-04-12T09:03:26.296Z</time></trkpt><trkpt lat="43.9607401" lon="12.412297"><ele>219.0</ele><time>2026-04-12T09:03:29.284Z</time></trkpt><trkpt lat="43.9607487" lon="12.4124162"><ele>222.0</ele><time>2026-04-12T09:03:32.305Z</time></trkpt><trkpt lat="43.9607415" lon="12.41254"><ele>225.0</ele><time>2026-04-12T09:03:35.289Z</time></trkpt><trkpt lat="43.9607347" lon="12.4126741"><ele>225.28571428571433</ele><time>2026-04-12T09:03:38.253Z</time></trkpt><trkpt lat="43.9607191" lon="12.4127619"><ele>225.57142857142858</ele><time>2026-04-12T09:03:40.252Z</time></trkpt><trkpt lat="43.9606914" lon="12.4128535"><ele>225.8571428571429</ele><time>2026-04-12T09:03:42.273Z</time></trkpt><trkpt lat="43.9606586" lon="12.4129678"><ele>226.14285714285717</ele><time>2026-04-12T09:03:45.292Z</time></trkpt><trkpt lat="43.9606207" lon="12.4130477"><ele>226.42857142857144</ele><time>2026-04-12T09:03:48.307Z</time></trkpt><trkpt lat="43.9605801" lon="12.413144"><ele>226.71428571428572</ele><time>2026-04-12T09:03:53.263Z</time></trkpt><trkpt lat="43.9605492" lon="12.4132358"><ele>227.0</ele><time>2026-04-12T09:03:57.289Z</time></trkpt><trkpt lat="43.9605147" lon="12.4133113"><ele>227.42857142857144</ele><time>2026-04-12T09:04:00.299Z</time></trkpt><trkpt lat="43.960494" lon="12.4134011"><ele>227.8571428571429</ele><time>2026-04-12T09:04:03.302Z</time></trkpt><trkpt lat="43.960477" lon="12.4134885"><ele>228.28571428571428</ele><time>2026-04-12T09:04:06.297Z</time></trkpt><trkpt lat="43.9604527" lon="12.4135756"><ele>228.71428571428572</ele><time>2026-04-12T09:04:10.289Z</time></trkpt><trkpt lat="43.9604208" lon="12.413676"><ele>229.14285714285714</ele><time>2026-04-12T09:04:15.295Z</time></trkpt><trkpt lat="43.9603866" lon="12.4137566"><ele>229.57142857142856</ele><time>2026-04-12T09:04:20.309Z</time></trkpt><trkpt lat="43.9603392" lon="12.4138191"><ele>229.99999999999997</ele><time>2026-04-12T09:04:25.292Z</time></trkpt><trkpt lat="43.9603091" lon="12.4139102"><ele>230.85714285714283</ele><time>2026-04-12T09:04:31.31Z</time></trkpt><trkpt lat="43.9602929" lon="12.4139985"><ele>231.71428571428572</ele><time>2026-04-12T09:04:36.29Z</time></trkpt><trkpt lat="43.9602882" lon="12.4140938"><ele>232.57142857142856</ele><time>2026-04-12T09:04:41.272Z</time></trkpt><trkpt lat="43.9602672" lon="12.41418"><ele>233.42857142857142</ele><time>2026-04-12T09:04:47.291Z</time></trkpt><trkpt lat="43.9602498" lon="12.4142757"><ele>234.28571428571428</ele><time>2026-04-12T09:04:52.301Z</time></trkpt><trkpt lat="43.9602104" lon="12.4143614"><ele>235.14285714285714</ele><time>2026-04-12T09:04:56.3Z</time></trkpt><trkpt lat="43.9601556" lon="12.4144517"><ele>236.0</ele><time>2026-04-12T09:05:00.297Z</time></trkpt><trkpt lat="43.9601139" lon="12.4145259"><ele>236.0</ele><time>2026-04-12T09:05:04.302Z</time></trkpt><trkpt lat="43.9600693" lon="12.4145991"><ele>236.0</ele><time>2026-04-12T09:05:08.282Z</time></trkpt><trkpt lat="43.9600153" lon="12.4146715"><ele>236.0</ele><time>2026-04-12T09:05:13.3Z</time></trkpt><trkpt lat="43.9599818" lon="12.4147639"><ele>236.0</ele><time>2026-04-12T09:05:18.244Z</time></trkpt><trkpt lat="43.9599506" lon="12.4148458"><ele>236.0</ele><time>2026-04-12T09:05:22.287Z</time></trkpt><trkpt lat="43.9599372" lon="12.4149372"><ele>236.0</ele><time>2026-04-12T09:05:26.294Z</time></trkpt><trkpt lat="43.9599317" lon="12.4150382"><ele>236.0</ele><time>2026-04-12T09:05:31.28Z</time></trkpt><trkpt lat="43.9599333" lon="12.4151368"><ele>239.0</ele><time>2026-04-12T09:05:36.28Z</time></trkpt><trkpt lat="43.9599384" lon="12.415231"><ele>242.0</ele><time>2026-04-12T09:05:41.295Z</time></trkpt><trkpt lat="43.9599524" lon="12.4153302"><ele>245.0</ele><time>2026-04-12T09:05:46.302Z</time></trkpt><trkpt lat="43.9599626" lon="12.415431"><ele>248.0</ele><time>2026-04-12T09:05:52.291Z</time></trkpt><trkpt lat="43.9599849" lon="12.4155255"><ele>251.0</ele><time>2026-04-12T09:05:58.321Z</time></trkpt><trkpt lat="43.9600162" lon="12.415605"><ele>254.0</ele><time>2026-04-12T09:06:02.271Z</time></trkpt><trkpt lat="43.9600358" lon="12.4156911"><ele>257.0</ele><time>2026-04-12T09:06:07.23Z</time></trkpt><trkpt lat="43.9600691" lon="12.415771"><ele>257.2857142857143</ele><time>2026-04-12T09:06:11.234Z</time></trkpt><trkpt lat="43.9600815" lon="12.4158695"><ele>257.57142857142856</ele><time>2026-04-12T09:06:15.264Z</time></trkpt><trkpt lat="43.9600792" lon="12.415963"><ele>257.8571428571429</ele><time>2026-04-12T09:06:19.279Z</time></trkpt><trkpt lat="43.9600894" lon="12.4160567"><ele>258.1428571428571</ele><time>2026-04-12T09:06:24.299Z</time></trkpt><trkpt lat="43.9601037" lon="12.4161464"><ele>258.42857142857144</ele><time>2026-04-12T09:06:28.304Z</time></trkpt><trkpt lat="43.9601309" lon="12.4162304"><ele>258.7142857142857</ele><time>2026-04-12T09:06:33.305Z</time></trkpt><trkpt lat="43.9601492" lon="12.4163278"><ele>259.0</ele><time>2026-04-12T09:06:38.292Z</time></trkpt><trkpt lat="43.9601685" lon="12.4164227"><ele>260.0</ele><time>2026-04-12T09:06:43.296Z</time></trkpt><trkpt lat="43.9601646" lon="12.4165174"><ele>261.0</ele><time>2026-04-12T09:06:48.299Z</time></trkpt><trkpt lat="43.9601463" lon="12.4166078"><ele>262.0</ele><time>2026-04-12T09:06:53.309Z</time></trkpt><trkpt lat="43.9601298" lon="12.4166976"><ele>263.0</ele><time>2026-04-12T09:06:59.289Z</time></trkpt><trkpt lat="43.9601008" lon="12.4167843"><ele>264.0</ele><time>2026-04-12T09:07:04.307Z</time></trkpt><trkpt lat="43.9600656" lon="12.4168603"><ele>265.0</ele><time>2026-04-12T09:07:08.293Z</time></trkpt><trkpt lat="43.9600274" lon="12.416958"><ele>266.0</ele><time>2026-04-12T09:07:13.301Z</time></trkpt><trkpt lat="43.9599856" lon="12.417037"><ele>267.42857142857144</ele><time>2026-04-12T09:07:17.313Z</time></trkpt><trkpt lat="43.9599402" lon="12.4171165"><ele>268.8571428571429</ele><time>2026-04-12T09:07:21.298Z</time></trkpt><trkpt lat="43.9598898" lon="12.4171824"><ele>270.2857142857143</ele><time>2026-04-12T09:07:25.285Z</time></trkpt><trkpt lat="43.9598329" lon="12.417241"><ele>271.7142857142857</ele><time>2026-04-12T09:07:29.292Z</time></trkpt><trkpt lat="43.9597727" lon="12.4172961"><ele>273.14285714285717</ele><time>2026-04-12T09:07:34.271Z</time></trkpt><trkpt lat="43.9597111" lon="12.4173582"><ele>274.57142857142856</ele><time>2026-04-12T09:07:39.297Z</time></trkpt><trkpt lat="43.959654" lon="12.4174347"><ele>276.0</ele><time>2026-04-12T09:07:44.306Z</time></trkpt><trkpt lat="43.9596185" lon="12.4175115"><ele>276.57142857142856</ele><time>2026-04-12T09:07:48.261Z</time></trkpt><trkpt lat="43.9595818" lon="12.4175939"><ele>277.14285714285717</ele><time>2026-04-12T09:07:52.253Z</time></trkpt><trkpt lat="43.9595453" lon="12.4176881"><ele>277.7142857142857</ele><time>2026-04-12T09:07:56.248Z</time></trkpt><trkpt lat="43.9595113" lon="12.4177716"><ele>278.2857142857143</ele><time>2026-04-12T09:08:00.279Z</time></trkpt><trkpt lat="43.9594794" lon="12.4178683"><ele>278.8571428571429</ele><time>2026-04-12T09:08:04.248Z</time></trkpt><trkpt lat="43.9594526" lon="12.4179712"><ele>279.42857142857144</ele><time>2026-04-12T09:08:08.29Z</time></trkpt><trkpt lat="43.959416" lon="12.4180671"><ele>280.0</ele><time>2026-04-12T09:08:12.3Z</time></trkpt><trkpt lat="43.9593651" lon="12.4181509"><ele>280.0</ele><time>2026-04-12T09:08:15.306Z</time></trkpt><trkpt lat="43.9592933" lon="12.4182257"><ele>280.0</ele><time>2026-04-12T09:08:18.304Z</time></trkpt><trkpt lat="43.9592301" lon="12.4183086"><ele>280.0</ele><time>2026-04-12T09:08:21.262Z</time></trkpt><trkpt lat="43.9591654" lon="12.4183788"><ele>280.0</ele><time>2026-04-12T09:08:24.297Z</time></trkpt><trkpt lat="43.9591012" lon="12.4184372"><ele>280.0</ele><time>2026-04-12T09:08:27.301Z</time></trkpt><trkpt lat="43.9590313" lon="12.418469"><ele>280.0</ele><time>2026-04-12T09:08:31.284Z</time></trkpt><trkpt lat="43.9589694" lon="12.4184872"><ele>282.16666666666663</ele><time>2026-04-12T09:08:34.287Z</time></trkpt><trkpt lat="43.9588864" lon="12.4184993"><ele>284.3333333333333</ele><time>2026-04-12T09:08:38.28Z</time></trkpt><trkpt lat="43.9588067" lon="12.4185084"><ele>286.5</ele><time>2026-04-12T09:08:42.289Z</time></trkpt><trkpt lat="43.9587383" lon="12.4185516"><ele>288.6666666666667</ele><time>2026-04-12T09:08:46.304Z</time></trkpt><trkpt lat="43.9586615" lon="12.418587"><ele>290.83333333333337</ele><time>2026-04-12T09:08:50.3Z</time></trkpt><trkpt lat="43.9585961" lon="12.4186114"><ele>293.0</ele><time>2026-04-12T09:08:53.3Z</time></trkpt><trkpt lat="43.9585329" lon="12.4186315"><ele>293.0</ele><time>2026-04-12T09:08:56.244Z</time></trkpt><trkpt lat="43.9584467" lon="12.4186444"><ele>293.0</ele><time>2026-04-12T09:09:00.239Z</time></trkpt><trkpt lat="43.95838" lon="12.4186638"><ele>293.0</ele><time>2026-04-12T09:09:03.274Z</time></trkpt><trkpt lat="43.9583116" lon="12.4186795"><ele>293.0</ele><time>2026-04-12T09:09:06.271Z</time></trkpt><trkpt lat="43.9582384" lon="12.418733"><ele>293.0</ele><time>2026-04-12T09:09:10.294Z</time></trkpt><trkpt lat="43.9581787" lon="12.4188179"><ele>293.0</ele><time>2026-04-12T09:09:14.257Z</time></trkpt><trkpt lat="43.9581408" lon="12.4189196"><ele>294.1666666666667</ele><time>2026-04-12T09:09:17.299Z</time></trkpt><trkpt lat="43.9581057" lon="12.4190137"><ele>295.33333333333337</ele><time>2026-04-12T09:09:20.287Z</time></trkpt><trkpt lat="43.9580773" lon="12.4191224"><ele>296.5</ele><time>2026-04-12T09:09:23.276Z</time></trkpt><trkpt lat="43.9580425" lon="12.4192353"><ele>297.6666666666667</ele><time>2026-04-12T09:09:26.303Z</time></trkpt><trkpt lat="43.9580217" lon="12.4193232"><ele>298.8333333333333</ele><time>2026-04-12T09:09:28.303Z</time></trkpt><trkpt lat="43.9579851" lon="12.4194394"><ele>300.0</ele><time>2026-04-12T09:09:31.296Z</time></trkpt><trkpt lat="43.957939" lon="12.4195427"><ele>300.0</ele><time>2026-04-12T09:09:34.291Z</time></trkpt><trkpt lat="43.9578967" lon="12.4196482"><ele>300.0</ele><time>2026-04-12T09:09:37.327Z</time></trkpt><trkpt lat="43.9578556" lon="12.4197362"><ele>300.0</ele><time>2026-04-12T09:09:40.294Z</time></trkpt><trkpt lat="43.9578145" lon="12.4198434"><ele>300.0</ele><time>2026-04-12T09:09:43.283Z</time></trkpt><trkpt lat="43.9577884" lon="12.4199606"><ele>300.0</ele><time>2026-04-12T09:09:46.299Z</time></trkpt><trkpt lat="43.9577744" lon="12.4200462"><ele>300.0</ele><time>2026-04-12T09:09:48.289Z</time></trkpt><trkpt lat="43.9577529" lon="12.420133"><ele>299.99999999999994</ele><time>2026-04-12T09:09:50.301Z</time></trkpt><trkpt lat="43.9577355" lon="12.4202428"><ele>300.0</ele><time>2026-04-12T09:09:52.278Z</time></trkpt><trkpt lat="43.9577391" lon="12.420361"><ele>300.0</ele><time>2026-04-12T09:09:54.293Z</time></trkpt><trkpt lat="43.9577392" lon="12.4204664"><ele>300.0</ele><time>2026-04-12T09:09:56.306Z</time></trkpt><trkpt lat="43.9577404" lon="12.4205666"><ele>300.0</ele><time>2026-04-12T09:09:58.276Z</time></trkpt><trkpt lat="43.957743" lon="12.4206639"><ele>299.99999999999994</ele><time>2026-04-12T09:10:00.306Z</time></trkpt><trkpt lat="43.9577455" lon="12.4207526"><ele>300.0</ele><time>2026-04-12T09:10:02.293Z</time></trkpt><trkpt lat="43.9577477" lon="12.4208428"><ele>300.4285714285714</ele><time>2026-04-12T09:10:04.303Z</time></trkpt><trkpt lat="43.9577409" lon="12.4209384"><ele>300.85714285714283</ele><time>2026-04-12T09:10:06.307Z</time></trkpt><trkpt lat="43.9577404" lon="12.4210261"><ele>301.2857142857143</ele><time>2026-04-12T09:10:08.299Z</time></trkpt><trkpt lat="43.9577271" lon="12.4211512"><ele>301.71428571428567</ele><time>2026-04-12T09:10:11.298Z</time></trkpt><trkpt lat="43.9577175" lon="12.4212416"><ele>302.1428571428571</ele><time>2026-04-12T09:10:13.286Z</time></trkpt><trkpt lat="43.9577063" lon="12.4213372"><ele>302.57142857142856</ele><time>2026-04-12T09:10:15.296Z</time></trkpt><trkpt lat="43.9576939" lon="12.4214605"><ele>303.0</ele><time>2026-04-12T09:10:18.288Z</time></trkpt><trkpt lat="43.9576827" lon="12.4215509"><ele>303.0</ele><time>2026-04-12T09:10:20.297Z</time></trkpt><trkpt lat="43.9576792" lon="12.4216425"><ele>303.0</ele><time>2026-04-12T09:10:22.293Z</time></trkpt><trkpt lat="43.9576642" lon="12.4217679"><ele>303.0</ele><time>2026-04-12T09:10:25.283Z</time></trkpt><trkpt lat="43.957651" lon="12.4218537"><ele>303.0</ele><time>2026-04-12T09:10:27.293Z</time></trkpt><trkpt lat="43.9576407" lon="12.4219479"><ele>303.0</ele><time>2026-04-12T09:10:29.286Z</time></trkpt><trkpt lat="43.9576294" lon="12.4220393"><ele>303.0</ele><time>2026-04-12T09:10:31.291Z</time></trkpt><trkpt lat="43.957614" lon="12.4221372"><ele>303.0</ele><time>2026-04-12T09:10:33.283Z</time></trkpt><trkpt lat="43.9575875" lon="12.4222631"><ele>303.0</ele><time>2026-04-12T09:10:35.267Z</time></trkpt><trkpt lat="43.95757" lon="12.4224029"><ele>303.0</ele><time>2026-04-12T09:10:37.296Z</time></trkpt><trkpt lat="43.9575652" lon="12.4225728"><ele>303.0</ele><time>2026-04-12T09:10:39.288Z</time></trkpt><trkpt lat="43.9575598" lon="12.4226682"><ele>303.0</ele><time>2026-04-12T09:10:40.303Z</time></trkpt><trkpt lat="43.9575533" lon="12.422762"><ele>303.0</ele><time>2026-04-12T09:10:41.319Z</time></trkpt><trkpt lat="43.9575466" lon="12.4228649"><ele>303.0</ele><time>2026-04-12T09:10:42.3Z</time></trkpt><trkpt lat="43.9575435" lon="12.4229687"><ele>303.8333333333333</ele><time>2026-04-12T09:10:43.275Z</time></trkpt><trkpt lat="43.9575304" lon="12.4230759"><ele>304.6666666666667</ele><time>2026-04-12T09:10:44.296Z</time></trkpt><trkpt lat="43.9575167" lon="12.4231869"><ele>305.5</ele><time>2026-04-12T09:10:45.308Z</time></trkpt><trkpt lat="43.9575018" lon="12.4232933"><ele>306.33333333333337</ele><time>2026-04-12T09:10:46.3Z</time></trkpt><trkpt lat="43.9574838" lon="12.423388"><ele>307.1666666666667</ele><time>2026-04-12T09:10:47.289Z</time></trkpt><trkpt lat="43.957458" lon="12.4234852"><ele>308.0</ele><time>2026-04-12T09:10:48.306Z</time></trkpt><trkpt lat="43.9574365" lon="12.423589"><ele>308.0</ele><time>2026-04-12T09:10:49.308Z</time></trkpt><trkpt lat="43.9574135" lon="12.4236886"><ele>308.0</ele><time>2026-04-12T09:10:50.305Z</time></trkpt><trkpt lat="43.9573912" lon="12.4237866"><ele>308.0</ele><time>2026-04-12T09:10:51.292Z</time></trkpt><trkpt lat="43.9573666" lon="12.4238827"><ele>308.0</ele><time>2026-04-12T09:10:52.298Z</time></trkpt><trkpt lat="43.9573431" lon="12.4239772"><ele>308.0</ele><time>2026-04-12T09:10:53.256Z</time></trkpt><trkpt lat="43.957324" lon="12.4240654"><ele>308.0</ele><time>2026-04-12T09:10:54.302Z</time></trkpt><trkpt lat="43.9573044" lon="12.4241511"><ele>308.0</ele><time>2026-04-12T09:10:55.303Z</time></trkpt><trkpt lat="43.9572667" lon="12.4243087"><ele>307.8</ele><time>2026-04-12T09:10:57.257Z</time></trkpt><trkpt lat="43.9572324" lon="12.4244668"><ele>307.6</ele><time>2026-04-12T09:10:59.311Z</time></trkpt><trkpt lat="43.957208" lon="12.4246211"><ele>307.4</ele><time>2026-04-12T09:11:01.315Z</time></trkpt><trkpt lat="43.9571817" lon="12.4247604"><ele>307.2</ele><time>2026-04-12T09:11:03.309Z</time></trkpt><trkpt lat="43.9571472" lon="12.4248977"><ele>307.0</ele><time>2026-04-12T09:11:05.312Z</time></trkpt><trkpt lat="43.9571226" lon="12.4250298"><ele>306.2</ele><time>2026-04-12T09:11:07.295Z</time></trkpt><trkpt lat="43.9571017" lon="12.4251691"><ele>305.4</ele><time>2026-04-12T09:11:09.294Z</time></trkpt><trkpt lat="43.9570819" lon="12.4253193"><ele>304.6</ele><time>2026-04-12T09:11:11.291Z</time></trkpt><trkpt lat="43.9570704" lon="12.4254713"><ele>303.8</ele><time>2026-04-12T09:11:13.306Z</time></trkpt><trkpt lat="43.9570596" lon="12.4256296"><ele>303.0</ele><time>2026-04-12T09:11:15.289Z</time></trkpt><trkpt lat="43.9570462" lon="12.4257811"><ele>303.0</ele><time>2026-04-12T09:11:17.291Z</time></trkpt><trkpt lat="43.9570265" lon="12.4259415"><ele>303.0</ele><time>2026-04-12T09:11:19.297Z</time></trkpt><trkpt lat="43.9570223" lon="12.4260342"><ele>303.0</ele><time>2026-04-12T09:11:20.315Z</time></trkpt><trkpt lat="43.9570224" lon="12.4261217"><ele>303.0</ele><time>2026-04-12T09:11:21.27Z</time></trkpt><trkpt lat="43.9570466" lon="12.4262077"><ele>303.0</ele><time>2026-04-12T09:11:22.301Z</time></trkpt><trkpt lat="43.9571032" lon="12.4263466"><ele>303.0</ele><time>2026-04-12T09:11:24.291Z</time></trkpt><trkpt lat="43.9571754" lon="12.4264805"><ele>304.1666666666667</ele><time>2026-04-12T09:11:26.307Z</time></trkpt><trkpt lat="43.9572328" lon="12.4265959"><ele>305.3333333333333</ele><time>2026-04-12T09:11:28.266Z</time></trkpt><trkpt lat="43.9572826" lon="12.4266956"><ele>306.5</ele><time>2026-04-12T09:11:30.277Z</time></trkpt><trkpt lat="43.9573242" lon="12.4267812"><ele>307.66666666666663</ele><time>2026-04-12T09:11:32.311Z</time></trkpt><trkpt lat="43.9573642" lon="12.426862"><ele>308.8333333333333</ele><time>2026-04-12T09:11:34.313Z</time></trkpt><trkpt lat="43.9574117" lon="12.4269359"><ele>310.0</ele><time>2026-04-12T09:11:36.292Z</time></trkpt><trkpt lat="43.9574677" lon="12.4270231"><ele>311.16666666666663</ele><time>2026-04-12T09:11:39.303Z</time></trkpt><trkpt lat="43.957538" lon="12.4270835"><ele>312.3333333333333</ele><time>2026-04-12T09:11:42.267Z</time></trkpt><trkpt lat="43.9576116" lon="12.4271011"><ele>313.5</ele><time>2026-04-12T09:11:45.27Z</time></trkpt><trkpt lat="43.9576989" lon="12.4271088"><ele>314.6666666666667</ele><time>2026-04-12T09:11:48.297Z</time></trkpt><trkpt lat="43.95778" lon="12.4271014"><ele>315.83333333333337</ele><time>2026-04-12T09:11:51.292Z</time></trkpt><trkpt lat="43.9578557" lon="12.4270554"><ele>317.0</ele><time>2026-04-12T09:11:54.268Z</time></trkpt><trkpt lat="43.9579353" lon="12.4270144"><ele>317.0</ele><time>2026-04-12T09:11:57.298Z</time></trkpt><trkpt lat="43.9580158" lon="12.4269667"><ele>317.0</ele><time>2026-04-12T09:12:00.294Z</time></trkpt><trkpt lat="43.9580904" lon="12.4269102"><ele>317.0</ele><time>2026-04-12T09:12:03.301Z</time></trkpt><trkpt lat="43.9581671" lon="12.4268682"><ele>317.0</ele><time>2026-04-12T09:12:06.271Z</time></trkpt><trkpt lat="43.9582451" lon="12.4268148"><ele>317.0</ele><time>2026-04-12T09:12:09.296Z</time></trkpt><trkpt lat="43.9583196" lon="12.4267791"><ele>317.0</ele><time>2026-04-12T09:12:12.346Z</time></trkpt><trkpt lat="43.9584075" lon="12.4267741"><ele>317.0</ele><time>2026-04-12T09:12:15.3Z</time></trkpt><trkpt lat="43.958479" lon="12.4268522"><ele>317.0</ele><time>2026-04-12T09:12:18.311Z</time></trkpt><trkpt lat="43.9584819" lon="12.4269727"><ele>317.0</ele><time>2026-04-12T09:12:21.299Z</time></trkpt><trkpt lat="43.9584141" lon="12.4270541"><ele>317.0</ele><time>2026-04-12T09:12:24.265Z</time></trkpt><trkpt lat="43.9583557" lon="12.4270931"><ele>317.0</ele><time>2026-04-12T09:12:26.265Z</time></trkpt><trkpt lat="43.9582814" lon="12.4271478"><ele>317.0</ele><time>2026-04-12T09:12:29.305Z</time></trkpt><trkpt lat="43.9582039" lon="12.427216"><ele>318.42857142857144</ele><time>2026-04-12T09:12:32.298Z</time></trkpt><trkpt lat="43.9581783" lon="12.4273305"><ele>319.85714285714283</ele><time>2026-04-12T09:12:35.287Z</time></trkpt><trkpt lat="43.9582015" lon="12.4274387"><ele>321.2857142857143</ele><time>2026-04-12T09:12:38.258Z</time></trkpt><trkpt lat="43.9582547" lon="12.427493"><ele>322.7142857142857</ele><time>2026-04-12T09:12:41.277Z</time></trkpt><trkpt lat="43.9583189" lon="12.4275105"><ele>324.14285714285717</ele><time>2026-04-12T09:12:44.307Z</time></trkpt><trkpt lat="43.9583881" lon="12.4275032"><ele>325.57142857142856</ele><time>2026-04-12T09:12:47.295Z</time></trkpt><trkpt lat="43.9584624" lon="12.427477"><ele>327.0</ele><time>2026-04-12T09:12:50.28Z</time></trkpt><trkpt lat="43.9585441" lon="12.4274271"><ele>327.3333333333333</ele><time>2026-04-12T09:12:53.263Z</time></trkpt><trkpt lat="43.9586096" lon="12.4273977"><ele>327.6666666666667</ele><time>2026-04-12T09:12:55.295Z</time></trkpt><trkpt lat="43.9587002" lon="12.4273748"><ele>328.0</ele><time>2026-04-12T09:12:58.298Z</time></trkpt><trkpt lat="43.9587887" lon="12.427366"><ele>328.33333333333337</ele><time>2026-04-12T09:13:01.3Z</time></trkpt><trkpt lat="43.958854" lon="12.4273635"><ele>328.6666666666667</ele><time>2026-04-12T09:13:03.297Z</time></trkpt><trkpt lat="43.9589169" lon="12.4273678"><ele>329.0</ele><time>2026-04-12T09:13:05.292Z</time></trkpt><trkpt lat="43.9590027" lon="12.4273811"><ele>329.0</ele><time>2026-04-12T09:13:08.309Z</time></trkpt><trkpt lat="43.9590694" lon="12.4274086"><ele>329.0</ele><time>2026-04-12T09:13:10.308Z</time></trkpt><trkpt lat="43.95913" lon="12.427437"><ele>329.0</ele><time>2026-04-12T09:13:12.309Z</time></trkpt><trkpt lat="43.9592032" lon="12.4275006"><ele>329.0</ele><time>2026-04-12T09:13:15.293Z</time></trkpt><trkpt lat="43.9592749" lon="12.4275748"><ele>329.0</ele><time>2026-04-12T09:13:18.319Z</time></trkpt><trkpt lat="43.9593335" lon="12.4276286"><ele>329.0</ele><time>2026-04-12T09:13:21.291Z</time></trkpt><trkpt lat="43.9593353" lon="12.4275266"><ele>328.83333333333337</ele><time>2026-04-12T09:13:24.271Z</time></trkpt><trkpt lat="43.95934" lon="12.4276438"><ele>328.6666666666667</ele><time>2026-04-12T09:13:33.285Z</time></trkpt><trkpt lat="43.959375" lon="12.4277249"><ele>328.5</ele><time>2026-04-12T09:13:35.305Z</time></trkpt><trkpt lat="43.9594235" lon="12.4278283"><ele>328.3333333333333</ele><time>2026-04-12T09:13:38.285Z</time></trkpt><trkpt lat="43.9594618" lon="12.4279115"><ele>328.16666666666663</ele><time>2026-04-12T09:13:40.259Z</time></trkpt><trkpt lat="43.9595096" lon="12.4280159"><ele>328.0</ele><time>2026-04-12T09:13:43.251Z</time></trkpt><trkpt lat="43.959548" lon="12.4281228"><ele>328.0</ele><time>2026-04-12T09:13:46.287Z</time></trkpt><trkpt lat="43.9595844" lon="12.4282319"><ele>328.0</ele><time>2026-04-12T09:13:49.295Z</time></trkpt><trkpt lat="43.9596092" lon="12.4283451"><ele>328.0</ele><time>2026-04-12T09:13:52.307Z</time></trkpt><trkpt lat="43.9596286" lon="12.4284761"><ele>328.0</ele><time>2026-04-12T09:13:55.292Z</time></trkpt><trkpt lat="43.9596519" lon="12.4285619"><ele>328.0</ele><time>2026-04-12T09:13:57.272Z</time></trkpt><trkpt lat="43.9596697" lon="12.4286464"><ele>328.0</ele><time>2026-04-12T09:13:59.283Z</time></trkpt><trkpt lat="43.9596893" lon="12.4287765"><ele>329.2857142857143</ele><time>2026-04-12T09:14:02.297Z</time></trkpt><trkpt lat="43.9597102" lon="12.4288638"><ele>330.57142857142856</ele><time>2026-04-12T09:14:04.293Z</time></trkpt><trkpt lat="43.9597365" lon="12.4289813"><ele>331.8571428571429</ele><time>2026-04-12T09:14:07.3Z</time></trkpt><trkpt lat="43.9597579" lon="12.4290897"><ele>333.1428571428571</ele><time>2026-04-12T09:14:10.297Z</time></trkpt><trkpt lat="43.9597637" lon="12.4291902"><ele>334.42857142857144</ele><time>2026-04-12T09:14:13.284Z</time></trkpt><trkpt lat="43.9597529" lon="12.4292796"><ele>335.7142857142857</ele><time>2026-04-12T09:14:17.29Z</time></trkpt><trkpt lat="43.9598147" lon="12.4293191"><ele>337.0</ele><time>2026-04-12T09:14:21.3Z</time></trkpt><trkpt lat="43.9597487" lon="12.4292816"><ele>337.0</ele><time>2026-04-12T09:14:30.297Z</time></trkpt><trkpt lat="43.9596606" lon="12.4293012"><ele>337.0</ele><time>2026-04-12T09:14:33.296Z</time></trkpt><trkpt lat="43.9595828" lon="12.4292782"><ele>337.0</ele><time>2026-04-12T09:14:36.282Z</time></trkpt><trkpt lat="43.9595233" lon="12.4292084"><ele>337.0</ele><time>2026-04-12T09:14:39.288Z</time></trkpt><trkpt lat="43.9594905" lon="12.4291044"><ele>337.0</ele><time>2026-04-12T09:14:42.296Z</time></trkpt><trkpt lat="43.9594669" lon="12.4289893"><ele>337.0</ele><time>2026-04-12T09:14:45.271Z</time></trkpt><trkpt lat="43.9594288" lon="12.4288791"><ele>337.5714285714286</ele><time>2026-04-12T09:14:48.304Z</time></trkpt><trkpt lat="43.9593969" lon="12.4288004"><ele>338.14285714285717</ele><time>2026-04-12T09:14:50.278Z</time></trkpt><trkpt lat="43.9593571" lon="12.4287164"><ele>338.7142857142857</ele><time>2026-04-12T09:14:52.293Z</time></trkpt><trkpt lat="43.9593271" lon="12.4286347"><ele>339.28571428571433</ele><time>2026-04-12T09:14:54.294Z</time></trkpt><trkpt lat="43.9592924" lon="12.4285592"><ele>339.8571428571429</ele><time>2026-04-12T09:14:56.284Z</time></trkpt><trkpt lat="43.9592258" lon="12.4284612"><ele>340.42857142857144</ele><time>2026-04-12T09:14:59.301Z</time></trkpt><trkpt lat="43.9591828" lon="12.4283923"><ele>341.0</ele><time>2026-04-12T09:15:01.26Z</time></trkpt><trkpt lat="43.959106" lon="12.4283312"><ele>341.0</ele><time>2026-04-12T09:15:04.284Z</time></trkpt><trkpt lat="43.9590268" lon="12.4282917"><ele>341.0</ele><time>2026-04-12T09:15:07.256Z</time></trkpt><trkpt lat="43.9589375" lon="12.4282939"><ele>341.0</ele><time>2026-04-12T09:15:10.307Z</time></trkpt><trkpt lat="43.9588763" lon="12.4283269"><ele>341.0</ele><time>2026-04-12T09:15:12.288Z</time></trkpt><trkpt lat="43.9588193" lon="12.4283675"><ele>341.0</ele><time>2026-04-12T09:15:14.307Z</time></trkpt><trkpt lat="43.958774" lon="12.4284319"><ele>341.0</ele><time>2026-04-12T09:15:16.311Z</time></trkpt><trkpt lat="43.9587312" lon="12.4285367"><ele>341.0</ele><time>2026-04-12T09:15:19.289Z</time></trkpt><trkpt lat="43.9587455" lon="12.4286959"><ele>341.0</ele><time>2026-04-12T09:15:23.285Z</time></trkpt><trkpt lat="43.9587955" lon="12.4288031"><ele>341.0</ele><time>2026-04-12T09:15:26.307Z</time></trkpt><trkpt lat="43.9588391" lon="12.4288796"><ele>341.0</ele><time>2026-04-12T09:15:28.282Z</time></trkpt><trkpt lat="43.9588851" lon="12.4289487"><ele>341.0</ele><time>2026-04-12T09:15:30.282Z</time></trkpt><trkpt lat="43.9589428" lon="12.4290494"><ele>341.0</ele><time>2026-04-12T09:15:33.284Z</time></trkpt><trkpt lat="43.9589942" lon="12.4291562"><ele>341.6666666666667</ele><time>2026-04-12T09:15:36.265Z</time></trkpt><trkpt lat="43.9590185" lon="12.4292402"><ele>342.33333333333337</ele><time>2026-04-12T09:15:38.285Z</time></trkpt><trkpt lat="43.9590529" lon="12.4293568"><ele>343.0</ele><time>2026-04-12T09:15:41.274Z</time></trkpt><trkpt lat="43.959055" lon="12.4294855"><ele>343.6666666666667</ele><time>2026-04-12T09:15:44.299Z</time></trkpt><trkpt lat="43.9590562" lon="12.4296095"><ele>344.3333333333333</ele><time>2026-04-12T09:15:47.298Z</time></trkpt><trkpt lat="43.9590545" lon="12.4297064"><ele>345.0</ele><time>2026-04-12T09:15:50.247Z</time></trkpt><trkpt lat="43.9590394" lon="12.4297992"><ele>346.42857142857144</ele><time>2026-04-12T09:15:53.317Z</time></trkpt><trkpt lat="43.9590137" lon="12.4299069"><ele>347.85714285714283</ele><time>2026-04-12T09:15:57.255Z</time></trkpt><trkpt lat="43.9589949" lon="12.430012"><ele>349.2857142857143</ele><time>2026-04-12T09:16:01.293Z</time></trkpt><trkpt lat="43.9589958" lon="12.4301022"><ele>350.7142857142857</ele><time>2026-04-12T09:16:05.245Z</time></trkpt><trkpt lat="43.9590387" lon="12.4301798"><ele>352.14285714285717</ele><time>2026-04-12T09:16:10.293Z</time></trkpt><trkpt lat="43.9590666" lon="12.4302614"><ele>353.57142857142856</ele><time>2026-04-12T09:16:15.299Z</time></trkpt><trkpt lat="43.9591071" lon="12.4303484"><ele>355.0</ele><time>2026-04-12T09:16:21.282Z</time></trkpt><trkpt lat="43.9591494" lon="12.4304208"><ele>355.5</ele><time>2026-04-12T09:16:25.297Z</time></trkpt><trkpt lat="43.9591975" lon="12.430517"><ele>356.0</ele><time>2026-04-12T09:16:29.293Z</time></trkpt><trkpt lat="43.959239" lon="12.4305946"><ele>356.5</ele><time>2026-04-12T09:16:32.294Z</time></trkpt><trkpt lat="43.9592872" lon="12.4306792"><ele>357.0</ele><time>2026-04-12T09:16:35.295Z</time></trkpt><trkpt lat="43.9593443" lon="12.4307663"><ele>357.5</ele><time>2026-04-12T09:16:38.273Z</time></trkpt><trkpt lat="43.9593973" lon="12.4308454"><ele>358.0</ele><time>2026-04-12T09:16:41.291Z</time></trkpt><trkpt lat="43.9594387" lon="12.43092"><ele>358.00000000000006</ele><time>2026-04-12T09:16:44.274Z</time></trkpt><trkpt lat="43.9594755" lon="12.4310028"><ele>358.0</ele><time>2026-04-12T09:16:49.286Z</time></trkpt><trkpt lat="43.9594477" lon="12.4310873"><ele>358.0</ele><time>2026-04-12T09:16:56.285Z</time></trkpt><trkpt lat="43.959371" lon="12.4311227"><ele>358.0</ele><time>2026-04-12T09:17:00.3Z</time></trkpt><trkpt lat="43.9593101" lon="12.4311552"><ele>358.0</ele><time>2026-04-12T09:17:03.285Z</time></trkpt><trkpt lat="43.9592498" lon="12.4311858"><ele>358.00000000000006</ele><time>2026-04-12T09:17:06.281Z</time></trkpt><trkpt lat="43.9591792" lon="12.4312262"><ele>358.0</ele><time>2026-04-12T09:17:11.295Z</time></trkpt><trkpt lat="43.9591092" lon="12.431264"><ele>359.28571428571433</ele><time>2026-04-12T09:17:16.307Z</time></trkpt><trkpt lat="43.9590488" lon="12.4313018"><ele>360.57142857142856</ele><time>2026-04-12T09:17:21.285Z</time></trkpt><trkpt lat="43.9589855" lon="12.4313359"><ele>361.8571428571429</ele><time>2026-04-12T09:17:25.305Z</time></trkpt><trkpt lat="43.9589133" lon="12.4313868"><ele>363.14285714285717</ele><time>2026-04-12T09:17:30.258Z</time></trkpt><trkpt lat="43.9588346" lon="12.4314134"><ele>364.42857142857144</ele><time>2026-04-12T09:17:35.295Z</time></trkpt><trkpt lat="43.9587701" lon="12.4314652"><ele>365.7142857142857</ele><time>2026-04-12T09:17:40.298Z</time></trkpt><trkpt lat="43.9587066" lon="12.431518"><ele>367.0</ele><time>2026-04-12T09:17:44.307Z</time></trkpt><trkpt lat="43.9586501" lon="12.4315885"><ele>367.7142857142857</ele><time>2026-04-12T09:17:48.302Z</time></trkpt><trkpt lat="43.9586066" lon="12.4316521"><ele>368.42857142857144</ele><time>2026-04-12T09:17:51.305Z</time></trkpt><trkpt lat="43.9585568" lon="12.431731"><ele>369.14285714285717</ele><time>2026-04-12T09:17:55.302Z</time></trkpt><trkpt lat="43.9585057" lon="12.4318055"><ele>369.8571428571429</ele><time>2026-04-12T09:17:58.284Z</time></trkpt><trkpt lat="43.9584495" lon="12.4318944"><ele>370.57142857142856</ele><time>2026-04-12T09:18:02.299Z</time></trkpt><trkpt lat="43.9584062" lon="12.4319582"><ele>371.28571428571433</ele><time>2026-04-12T09:18:05.303Z</time></trkpt><trkpt lat="43.958359" lon="12.4320237"><ele>372.0</ele><time>2026-04-12T09:18:08.303Z</time></trkpt><trkpt lat="43.9583156" lon="12.4320959"><ele>373.14285714285717</ele><time>2026-04-12T09:18:11.272Z</time></trkpt><trkpt lat="43.9582838" lon="12.4321888"><ele>374.2857142857143</ele><time>2026-04-12T09:18:14.292Z</time></trkpt><trkpt lat="43.9582853" lon="12.4322933"><ele>375.42857142857144</ele><time>2026-04-12T09:18:18.323Z</time></trkpt><trkpt lat="43.958286" lon="12.4324015"><ele>376.57142857142856</ele><time>2026-04-12T09:18:22.28Z</time></trkpt><trkpt lat="43.9582792" lon="12.4324921"><ele>377.7142857142857</ele><time>2026-04-12T09:18:25.294Z</time></trkpt><trkpt lat="43.9582799" lon="12.43259"><ele>378.8571428571429</ele><time>2026-04-12T09:18:29.262Z</time></trkpt><trkpt lat="43.9582841" lon="12.4326832"><ele>380.0</ele><time>2026-04-12T09:18:33.281Z</time></trkpt><trkpt lat="43.95829" lon="12.432775"><ele>380.0</ele><time>2026-04-12T09:18:37.31Z</time></trkpt><trkpt lat="43.9583076" lon="12.4328694"><ele>380.0</ele><time>2026-04-12T09:18:41.253Z</time></trkpt><trkpt lat="43.958337" lon="12.4329688"><ele>380.0</ele><time>2026-04-12T09:18:46.294Z</time></trkpt><trkpt lat="43.9583603" lon="12.4330512"><ele>380.0</ele><time>2026-04-12T09:18:50.289Z</time></trkpt><trkpt lat="43.9583842" lon="12.433133"><ele>380.0</ele><time>2026-04-12T09:18:56.301Z</time></trkpt><trkpt lat="43.9584092" lon="12.4332178"><ele>380.0</ele><time>2026-04-12T09:19:01.269Z</time></trkpt><trkpt lat="43.9584376" lon="12.4333036"><ele>380.0</ele><time>2026-04-12T09:19:06.292Z</time></trkpt><trkpt lat="43.9584733" lon="12.4333795"><ele>380.8571428571429</ele><time>2026-04-12T09:19:11.305Z</time></trkpt><trkpt lat="43.9584967" lon="12.433478"><ele>381.7142857142857</ele><time>2026-04-12T09:19:17.306Z</time></trkpt><trkpt lat="43.9585245" lon="12.433578"><ele>382.57142857142856</ele><time>2026-04-12T09:19:23.291Z</time></trkpt><trkpt lat="43.9585621" lon="12.4336695"><ele>383.42857142857144</ele><time>2026-04-12T09:19:28.286Z</time></trkpt><trkpt lat="43.9585944" lon="12.4337604"><ele>384.2857142857143</ele><time>2026-04-12T09:19:33.288Z</time></trkpt><trkpt lat="43.9586235" lon="12.433853"><ele>385.14285714285717</ele><time>2026-04-12T09:19:38.295Z</time></trkpt><trkpt lat="43.9586466" lon="12.4339406"><ele>386.0</ele><time>2026-04-12T09:19:42.274Z</time></trkpt><trkpt lat="43.9586624" lon="12.4340473"><ele>386.14285714285717</ele><time>2026-04-12T09:19:47.303Z</time></trkpt><trkpt lat="43.9586474" lon="12.4341448"><ele>386.2857142857143</ele><time>2026-04-12T09:19:52.311Z</time></trkpt><trkpt lat="43.9586159" lon="12.4342301"><ele>386.42857142857144</ele><time>2026-04-12T09:19:57.303Z</time></trkpt><trkpt lat="43.9585819" lon="12.4343068"><ele>386.57142857142856</ele><time>2026-04-12T09:20:02.291Z</time></trkpt><trkpt lat="43.9585405" lon="12.4343756"><ele>386.7142857142857</ele><time>2026-04-12T09:20:06.26Z</time></trkpt><trkpt lat="43.9584964" lon="12.4344534"><ele>386.8571428571429</ele><time>2026-04-12T09:20:11.314Z</time></trkpt><trkpt lat="43.9584464" lon="12.4345193"><ele>387.0</ele><time>2026-04-12T09:20:15.277Z</time></trkpt><trkpt lat="43.958381" lon="12.4345796"><ele>388.8571428571429</ele><time>2026-04-12T09:20:19.302Z</time></trkpt><trkpt lat="43.9583181" lon="12.4346392"><ele>390.7142857142857</ele><time>2026-04-12T09:20:23.306Z</time></trkpt><trkpt lat="43.958269" lon="12.4346948"><ele>392.57142857142856</ele><time>2026-04-12T09:20:26.279Z</time></trkpt><trkpt lat="43.9582101" lon="12.4347518"><ele>394.42857142857144</ele><time>2026-04-12T09:20:30.288Z</time></trkpt><trkpt lat="43.9581562" lon="12.4348222"><ele>396.2857142857143</ele><time>2026-04-12T09:20:34.298Z</time></trkpt><trkpt lat="43.9581081" lon="12.4348875"><ele>398.14285714285717</ele><time>2026-04-12T09:20:37.293Z</time></trkpt><trkpt lat="43.9580513" lon="12.4349481"><ele>400.0</ele><time>2026-04-12T09:20:40.312Z</time></trkpt><trkpt lat="43.9581149" lon="12.4348851"><ele>400.0</ele><time>2026-04-12T09:20:48.289Z</time></trkpt><trkpt lat="43.9581704" lon="12.4348158"><ele>400.0</ele><time>2026-04-12T09:20:51.287Z</time></trkpt><trkpt lat="43.9582435" lon="12.4347432"><ele>400.0</ele><time>2026-04-12T09:20:54.3Z</time></trkpt><trkpt lat="43.9583059" lon="12.434689"><ele>400.0</ele><time>2026-04-12T09:20:56.302Z</time></trkpt><trkpt lat="43.9583866" lon="12.4345957"><ele>400.0</ele><time>2026-04-12T09:20:58.276Z</time></trkpt><trkpt lat="43.9584774" lon="12.4344953"><ele>397.83333333333337</ele><time>2026-04-12T09:21:00.262Z</time></trkpt><trkpt lat="43.9585304" lon="12.4344271"><ele>395.6666666666667</ele><time>2026-04-12T09:21:01.308Z</time></trkpt><trkpt lat="43.958575" lon="12.4343561"><ele>393.5</ele><time>2026-04-12T09:21:02.298Z</time></trkpt><trkpt lat="43.9586151" lon="12.4342708"><ele>391.33333333333337</ele><time>2026-04-12T09:21:03.285Z</time></trkpt><trkpt lat="43.9586498" lon="12.434163"><ele>389.1666666666667</ele><time>2026-04-12T09:21:04.289Z</time></trkpt><trkpt lat="43.9586515" lon="12.4340669"><ele>387.0</ele><time>2026-04-12T09:21:05.295Z</time></trkpt><trkpt lat="43.9586433" lon="12.4339497"><ele>387.0</ele><time>2026-04-12T09:21:06.291Z</time></trkpt><trkpt lat="43.9586171" lon="12.4338227"><ele>387.0</ele><time>2026-04-12T09:21:07.301Z</time></trkpt><trkpt lat="43.9585766" lon="12.4336987"><ele>387.0</ele><time>2026-04-12T09:21:08.301Z</time></trkpt><trkpt lat="43.9585344" lon="12.4335809"><ele>387.0</ele><time>2026-04-12T09:21:09.319Z</time></trkpt><trkpt lat="43.9584958" lon="12.4334491"><ele>387.0</ele><time>2026-04-12T09:21:10.291Z</time></trkpt><trkpt lat="43.9584536" lon="12.43331"><ele>386.75</ele><time>2026-04-12T09:21:11.299Z</time></trkpt><trkpt lat="43.9584098" lon="12.4331755"><ele>386.5</ele><time>2026-04-12T09:21:12.299Z</time></trkpt><trkpt lat="43.9583578" lon="12.4330336"><ele>386.25</ele><time>2026-04-12T09:21:13.276Z</time></trkpt><trkpt lat="43.9583127" lon="12.4328869"><ele>386.0</ele><time>2026-04-12T09:21:14.301Z</time></trkpt><trkpt lat="43.9582796" lon="12.4327239"><ele>384.8</ele><time>2026-04-12T09:21:15.301Z</time></trkpt><trkpt lat="43.9582644" lon="12.4325618"><ele>383.6</ele><time>2026-04-12T09:21:16.295Z</time></trkpt><trkpt lat="43.9582678" lon="12.4324005"><ele>382.4</ele><time>2026-04-12T09:21:17.307Z</time></trkpt><trkpt lat="43.9582785" lon="12.4322572"><ele>381.2</ele><time>2026-04-12T09:21:18.31Z</time></trkpt><trkpt lat="43.9582891" lon="12.4321437"><ele>380.0</ele><time>2026-04-12T09:21:19.306Z</time></trkpt><trkpt lat="43.9583172" lon="12.4320444"><ele>378.4</ele><time>2026-04-12T09:21:20.299Z</time></trkpt><trkpt lat="43.9583825" lon="12.4319525"><ele>376.8</ele><time>2026-04-12T09:21:21.293Z</time></trkpt><trkpt lat="43.9584492" lon="12.431859"><ele>375.20000000000005</ele><time>2026-04-12T09:21:22.305Z</time></trkpt><trkpt lat="43.9585091" lon="12.4317654"><ele>373.6</ele><time>2026-04-12T09:21:23.287Z</time></trkpt><trkpt lat="43.9585662" lon="12.4316669"><ele>372.0</ele><time>2026-04-12T09:21:24.295Z</time></trkpt><trkpt lat="43.9586207" lon="12.4315686"><ele>372.0</ele><time>2026-04-12T09:21:25.309Z</time></trkpt><trkpt lat="43.9586953" lon="12.4314878"><ele>372.0</ele><time>2026-04-12T09:21:26.304Z</time></trkpt><trkpt lat="43.9587829" lon="12.4314222"><ele>372.0</ele><time>2026-04-12T09:21:27.32Z</time></trkpt><trkpt lat="43.9588735" lon="12.4313749"><ele>372.0</ele><time>2026-04-12T09:21:28.309Z</time></trkpt><trkpt lat="43.9589682" lon="12.4313369"><ele>372.0</ele><time>2026-04-12T09:21:29.314Z</time></trkpt><trkpt lat="43.959071" lon="12.431292"><ele>371.0</ele><time>2026-04-12T09:21:30.311Z</time></trkpt><trkpt lat="43.9591812" lon="12.4312324"><ele>370.0</ele><time>2026-04-12T09:21:31.313Z</time></trkpt><trkpt lat="43.9592913" lon="12.4311679"><ele>369.0</ele><time>2026-04-12T09:21:32.304Z</time></trkpt><trkpt lat="43.9593927" lon="12.4311167"><ele>368.0</ele><time>2026-04-12T09:21:33.297Z</time></trkpt><trkpt lat="43.9594682" lon="12.4310827"><ele>367.0</ele><time>2026-04-12T09:21:34.306Z</time></trkpt><trkpt lat="43.9595118" lon="12.4309884"><ele>365.5</ele><time>2026-04-12T09:21:36.319Z</time></trkpt><trkpt lat="43.9594794" lon="12.4309029"><ele>364.0</ele><time>2026-04-12T09:21:37.298Z</time></trkpt><trkpt lat="43.9594374" lon="12.4308199"><ele>362.5</ele><time>2026-04-12T09:21:38.288Z</time></trkpt><trkpt lat="43.9593869" lon="12.4307289"><ele>361.0</ele><time>2026-04-12T09:21:39.255Z</time></trkpt><trkpt lat="43.959339" lon="12.4306456"><ele>359.5</ele><time>2026-04-12T09:21:40.232Z</time></trkpt><trkpt lat="43.9592869" lon="12.4305611"><ele>358.0</ele><time>2026-04-12T09:21:41.24Z</time></trkpt><trkpt lat="43.9592361" lon="12.4304779"><ele>357.5</ele><time>2026-04-12T09:21:42.271Z</time></trkpt><trkpt lat="43.9591824" lon="12.4303933"><ele>357.0</ele><time>2026-04-12T09:21:43.232Z</time></trkpt><trkpt lat="43.9591268" lon="12.4303054"><ele>356.5</ele><time>2026-04-12T09:21:44.243Z</time></trkpt><trkpt lat="43.9590674" lon="12.4302053"><ele>356.0</ele><time>2026-04-12T09:21:45.276Z</time></trkpt><trkpt lat="43.9590237" lon="12.4301053"><ele>355.5</ele><time>2026-04-12T09:21:46.289Z</time></trkpt><trkpt lat="43.9590063" lon="12.4299869"><ele>355.0</ele><time>2026-04-12T09:21:47.298Z</time></trkpt><trkpt lat="43.9590139" lon="12.4298676"><ele>355.0</ele><time>2026-04-12T09:21:48.288Z</time></trkpt><trkpt lat="43.9590485" lon="12.4297493"><ele>355.0</ele><time>2026-04-12T09:21:49.299Z</time></trkpt><trkpt lat="43.9590801" lon="12.4296254"><ele>355.0</ele><time>2026-04-12T09:21:50.283Z</time></trkpt><trkpt lat="43.9590918" lon="12.4295012"><ele>355.0</ele><time>2026-04-12T09:21:51.284Z</time></trkpt><trkpt lat="43.9590884" lon="12.4293732"><ele>355.0</ele><time>2026-04-12T09:21:52.291Z</time></trkpt><trkpt lat="43.9590764" lon="12.4292449"><ele>353.0</ele><time>2026-04-12T09:21:53.29Z</time></trkpt><trkpt lat="43.9590482" lon="12.4291112"><ele>351.0</ele><time>2026-04-12T09:21:54.245Z</time></trkpt><trkpt lat="43.9589987" lon="12.4289978"><ele>349.0</ele><time>2026-04-12T09:21:55.299Z</time></trkpt><trkpt lat="43.9589314" lon="12.428899"><ele>347.0</ele><time>2026-04-12T09:21:56.288Z</time></trkpt><trkpt lat="43.9588616" lon="12.4288037"><ele>345.0</ele><time>2026-04-12T09:21:57.291Z</time></trkpt><trkpt lat="43.9587957" lon="12.4287074"><ele>344.3333333333333</ele><time>2026-04-12T09:21:58.298Z</time></trkpt><trkpt lat="43.9587617" lon="12.4286153"><ele>343.6666666666667</ele><time>2026-04-12T09:21:59.287Z</time></trkpt><trkpt lat="43.9587574" lon="12.4285271"><ele>343.0</ele><time>2026-04-12T09:22:00.285Z</time></trkpt><trkpt lat="43.9588472" lon="12.4283947"><ele>342.33333333333337</ele><time>2026-04-12T09:22:02.295Z</time></trkpt><trkpt lat="43.9589281" lon="12.4283578"><ele>341.6666666666667</ele><time>2026-04-12T09:22:03.309Z</time></trkpt><trkpt lat="43.9590071" lon="12.4283482"><ele>341.0</ele><time>2026-04-12T09:22:04.299Z</time></trkpt><trkpt lat="43.9590876" lon="12.4283737"><ele>341.0</ele><time>2026-04-12T09:22:05.295Z</time></trkpt><trkpt lat="43.9591566" lon="12.4284371"><ele>341.0</ele><time>2026-04-12T09:22:06.307Z</time></trkpt><trkpt lat="43.9592159" lon="12.4285238"><ele>341.0</ele><time>2026-04-12T09:22:07.291Z</time></trkpt><trkpt lat="43.9592664" lon="12.428617"><ele>341.0</ele><time>2026-04-12T09:22:08.298Z</time></trkpt><trkpt lat="43.9593101" lon="12.4287162"><ele>341.0</ele><time>2026-04-12T09:22:09.304Z</time></trkpt><trkpt lat="43.9593486" lon="12.4288312"><ele>341.0</ele><time>2026-04-12T09:22:10.306Z</time></trkpt><trkpt lat="43.9593894" lon="12.4289418"><ele>340.33333333333337</ele><time>2026-04-12T09:22:11.259Z</time></trkpt><trkpt lat="43.9594283" lon="12.4290518"><ele>339.6666666666667</ele><time>2026-04-12T09:22:12.294Z</time></trkpt><trkpt lat="43.9594599" lon="12.4291607"><ele>339.0</ele><time>2026-04-12T09:22:13.292Z</time></trkpt><trkpt lat="43.9594917" lon="12.4292661"><ele>338.3333333333333</ele><time>2026-04-12T09:22:14.296Z</time></trkpt><trkpt lat="43.959537" lon="12.4293401"><ele>337.66666666666663</ele><time>2026-04-12T09:22:15.283Z</time></trkpt><trkpt lat="43.9596108" lon="12.4293641"><ele>337.0</ele><time>2026-04-12T09:22:16.289Z</time></trkpt><trkpt lat="43.959678" lon="12.4293469"><ele>337.0</ele><time>2026-04-12T09:22:17.323Z</time></trkpt><trkpt lat="43.959737" lon="12.4292962"><ele>337.0</ele><time>2026-04-12T09:22:18.297Z</time></trkpt><trkpt lat="43.9597724" lon="12.4291696"><ele>337.0</ele><time>2026-04-12T09:22:19.295Z</time></trkpt><trkpt lat="43.9597813" lon="12.4290387"><ele>337.0</ele><time>2026-04-12T09:22:20.243Z</time></trkpt><trkpt lat="43.9597551" lon="12.4289133"><ele>337.0</ele><time>2026-04-12T09:22:21.29Z</time></trkpt><trkpt lat="43.9597282" lon="12.4288009"><ele>337.0</ele><time>2026-04-12T09:22:22.29Z</time></trkpt><trkpt lat="43.9596998" lon="12.4286823"><ele>335.5</ele><time>2026-04-12T09:22:23.315Z</time></trkpt><trkpt lat="43.9596751" lon="12.4285552"><ele>334.0</ele><time>2026-04-12T09:22:24.318Z</time></trkpt><trkpt lat="43.9596539" lon="12.4284369"><ele>332.5</ele><time>2026-04-12T09:22:25.307Z</time></trkpt><trkpt lat="43.9596312" lon="12.4283192"><ele>331.0</ele><time>2026-04-12T09:22:26.317Z</time></trkpt><trkpt lat="43.959606" lon="12.4282093"><ele>329.5</ele><time>2026-04-12T09:22:27.321Z</time></trkpt><trkpt lat="43.9595802" lon="12.4280959"><ele>328.0</ele><time>2026-04-12T09:22:28.289Z</time></trkpt><trkpt lat="43.9595475" lon="12.4279878"><ele>325.79999999999995</ele><time>2026-04-12T09:22:29.301Z</time></trkpt><trkpt lat="43.9594941" lon="12.4278811"><ele>323.59999999999997</ele><time>2026-04-12T09:22:30.299Z</time></trkpt><trkpt lat="43.9594441" lon="12.4277669"><ele>321.4</ele><time>2026-04-12T09:22:31.287Z</time></trkpt><trkpt lat="43.9593893" lon="12.4276479"><ele>319.2</ele><time>2026-04-12T09:22:32.287Z</time></trkpt><trkpt lat="43.9593311" lon="12.4275466"><ele>317.0</ele><time>2026-04-12T09:22:33.308Z</time></trkpt><trkpt lat="43.9592645" lon="12.4274623"><ele>319.4</ele><time>2026-04-12T09:22:34.293Z</time></trkpt><trkpt lat="43.9591911" lon="12.4273862"><ele>321.79999999999995</ele><time>2026-04-12T09:22:35.265Z</time></trkpt><trkpt lat="43.9591039" lon="12.4273443"><ele>324.2</ele><time>2026-04-12T09:22:36.303Z</time></trkpt><trkpt lat="43.9590089" lon="12.4273089"><ele>326.59999999999997</ele><time>2026-04-12T09:22:37.298Z</time></trkpt><trkpt lat="43.9589118" lon="12.427302"><ele>329.0</ele><time>2026-04-12T09:22:38.308Z</time></trkpt><trkpt lat="43.9588191" lon="12.4272991"><ele>329.0</ele><time>2026-04-12T09:22:39.303Z</time></trkpt><trkpt lat="43.9587251" lon="12.427299"><ele>329.0</ele><time>2026-04-12T09:22:40.28Z</time></trkpt><trkpt lat="43.9586292" lon="12.4273261"><ele>329.0</ele><time>2026-04-12T09:22:41.264Z</time></trkpt><trkpt lat="43.9585398" lon="12.4273732"><ele>329.0</ele><time>2026-04-12T09:22:42.299Z</time></trkpt><trkpt lat="43.9584519" lon="12.4274293"><ele>329.0</ele><time>2026-04-12T09:22:43.279Z</time></trkpt><trkpt lat="43.9583689" lon="12.4274827"><ele>328.6666666666667</ele><time>2026-04-12T09:22:44.308Z</time></trkpt><trkpt lat="43.95829" lon="12.4274961"><ele>328.33333333333337</ele><time>2026-04-12T09:22:45.266Z</time></trkpt><trkpt lat="43.9582158" lon="12.4274666"><ele>328.0</ele><time>2026-04-12T09:22:46.296Z</time></trkpt><trkpt lat="43.9581678" lon="12.4273539"><ele>327.6666666666667</ele><time>2026-04-12T09:22:47.287Z</time></trkpt><trkpt lat="43.9581817" lon="12.427213"><ele>327.3333333333333</ele><time>2026-04-12T09:22:48.293Z</time></trkpt><trkpt lat="43.9582448" lon="12.4271298"><ele>327.0</ele><time>2026-04-12T09:22:49.304Z</time></trkpt><trkpt lat="43.9583302" lon="12.4270997"><ele>325.1666666666667</ele><time>2026-04-12T09:22:50.267Z</time></trkpt><trkpt lat="43.9584108" lon="12.4270601"><ele>323.3333333333333</ele><time>2026-04-12T09:22:51.302Z</time></trkpt><trkpt lat="43.9584734" lon="12.4270051"><ele>321.5</ele><time>2026-04-12T09:22:52.317Z</time></trkpt><trkpt lat="43.9585087" lon="12.4269107"><ele>319.66666666666663</ele><time>2026-04-12T09:22:53.306Z</time></trkpt><trkpt lat="43.9584915" lon="12.4268079"><ele>317.8333333333333</ele><time>2026-04-12T09:22:54.297Z</time></trkpt><trkpt lat="43.9584393" lon="12.4267262"><ele>316.0</ele><time>2026-04-12T09:22:55.3Z</time></trkpt><trkpt lat="43.9583727" lon="12.4266981"><ele>316.16666666666663</ele><time>2026-04-12T09:22:56.299Z</time></trkpt><trkpt lat="43.9582969" lon="12.4267256"><ele>316.3333333333333</ele><time>2026-04-12T09:22:57.312Z</time></trkpt><trkpt lat="43.9582207" lon="12.4267669"><ele>316.5</ele><time>2026-04-12T09:22:58.293Z</time></trkpt><trkpt lat="43.9581493" lon="12.4268183"><ele>316.6666666666667</ele><time>2026-04-12T09:22:59.252Z</time></trkpt><trkpt lat="43.9580791" lon="12.4268685"><ele>316.83333333333337</ele><time>2026-04-12T09:23:00.321Z</time></trkpt><trkpt lat="43.9580091" lon="12.4269195"><ele>317.0</ele><time>2026-04-12T09:23:01.306Z</time></trkpt><trkpt lat="43.957934" lon="12.4269778"><ele>317.0</ele><time>2026-04-12T09:23:02.298Z</time></trkpt><trkpt lat="43.9578517" lon="12.4270278"><ele>317.0</ele><time>2026-04-12T09:23:03.314Z</time></trkpt><trkpt lat="43.9577669" lon="12.4270698"><ele>317.0</ele><time>2026-04-12T09:23:04.281Z</time></trkpt><trkpt lat="43.9576816" lon="12.4270861"><ele>317.0</ele><time>2026-04-12T09:23:05.297Z</time></trkpt><trkpt lat="43.9575941" lon="12.4270648"><ele>317.0</ele><time>2026-04-12T09:23:06.3Z</time></trkpt><trkpt lat="43.9575127" lon="12.4270034"><ele>317.0</ele><time>2026-04-12T09:23:07.297Z</time></trkpt><trkpt lat="43.957434" lon="12.4269102"><ele>315.6</ele><time>2026-04-12T09:23:08.293Z</time></trkpt><trkpt lat="43.9573622" lon="12.42679"><ele>314.2</ele><time>2026-04-12T09:23:09.283Z</time></trkpt><trkpt lat="43.9573125" lon="12.4266739"><ele>312.8</ele><time>2026-04-12T09:23:10.304Z</time></trkpt><trkpt lat="43.9572599" lon="12.4265595"><ele>311.4</ele><time>2026-04-12T09:23:11.289Z</time></trkpt><trkpt lat="43.9571996" lon="12.4264463"><ele>310.0</ele><time>2026-04-12T09:23:12.284Z</time></trkpt><trkpt lat="43.9571422" lon="12.4263292"><ele>308.6</ele><time>2026-04-12T09:23:13.28Z</time></trkpt><trkpt lat="43.9570883" lon="12.4262086"><ele>307.2</ele><time>2026-04-12T09:23:14.302Z</time></trkpt><trkpt lat="43.9570539" lon="12.4260736"><ele>305.8</ele><time>2026-04-12T09:23:15.296Z</time></trkpt><trkpt lat="43.9570444" lon="12.4259469"><ele>304.4</ele><time>2026-04-12T09:23:16.261Z</time></trkpt><trkpt lat="43.9570553" lon="12.4258285"><ele>303.0</ele><time>2026-04-12T09:23:17.311Z</time></trkpt><trkpt lat="43.9570726" lon="12.4257084"><ele>303.0</ele><time>2026-04-12T09:23:18.29Z</time></trkpt><trkpt lat="43.9570897" lon="12.4255922"><ele>303.0</ele><time>2026-04-12T09:23:19.287Z</time></trkpt><trkpt lat="43.9570983" lon="12.4254783"><ele>303.0</ele><time>2026-04-12T09:23:20.278Z</time></trkpt><trkpt lat="43.957112" lon="12.425375"><ele>303.0</ele><time>2026-04-12T09:23:21.296Z</time></trkpt><trkpt lat="43.957121" lon="12.4252706"><ele>303.0</ele><time>2026-04-12T09:23:22.298Z</time></trkpt><trkpt lat="43.9571307" lon="12.4251636"><ele>303.0</ele><time>2026-04-12T09:23:23.311Z</time></trkpt><trkpt lat="43.9571409" lon="12.4250614"><ele>303.0</ele><time>2026-04-12T09:23:24.311Z</time></trkpt><trkpt lat="43.9571531" lon="12.4249584"><ele>303.0</ele><time>2026-04-12T09:23:25.312Z</time></trkpt><trkpt lat="43.9571659" lon="12.4248557"><ele>303.0</ele><time>2026-04-12T09:23:26.301Z</time></trkpt><trkpt lat="43.9571785" lon="12.4247595"><ele>303.0</ele><time>2026-04-12T09:23:27.295Z</time></trkpt><trkpt lat="43.9572012" lon="12.4246548"><ele>303.0</ele><time>2026-04-12T09:23:28.287Z</time></trkpt><trkpt lat="43.9572233" lon="12.4245508"><ele>303.0</ele><time>2026-04-12T09:23:29.289Z</time></trkpt><trkpt lat="43.9572461" lon="12.42445"><ele>303.6666666666667</ele><time>2026-04-12T09:23:30.293Z</time></trkpt><trkpt lat="43.957271" lon="12.4243581"><ele>304.3333333333333</ele><time>2026-04-12T09:23:31.279Z</time></trkpt><trkpt lat="43.957295" lon="12.4242599"><ele>305.0</ele><time>2026-04-12T09:23:32.301Z</time></trkpt><trkpt lat="43.9573178" lon="12.4241561"><ele>305.66666666666663</ele><time>2026-04-12T09:23:33.268Z</time></trkpt><trkpt lat="43.9573441" lon="12.4240575"><ele>306.3333333333333</ele><time>2026-04-12T09:23:34.304Z</time></trkpt><trkpt lat="43.9573679" lon="12.423957"><ele>307.0</ele><time>2026-04-12T09:23:35.311Z</time></trkpt><trkpt lat="43.9573887" lon="12.4238579"><ele>307.16666666666663</ele><time>2026-04-12T09:23:36.299Z</time></trkpt><trkpt lat="43.957411" lon="12.4237621"><ele>307.3333333333333</ele><time>2026-04-12T09:23:37.304Z</time></trkpt><trkpt lat="43.9574376" lon="12.4236631"><ele>307.5</ele><time>2026-04-12T09:23:38.308Z</time></trkpt><trkpt lat="43.9574611" lon="12.4235679"><ele>307.6666666666667</ele><time>2026-04-12T09:23:39.309Z</time></trkpt><trkpt lat="43.9574795" lon="12.4234742"><ele>307.83333333333337</ele><time>2026-04-12T09:23:40.305Z</time></trkpt><trkpt lat="43.9574967" lon="12.4233838"><ele>308.0</ele><time>2026-04-12T09:23:41.293Z</time></trkpt><trkpt lat="43.9575228" lon="12.4232193"><ele>307.0</ele><time>2026-04-12T09:23:43.316Z</time></trkpt><trkpt lat="43.9575439" lon="12.4230651"><ele>306.0</ele><time>2026-04-12T09:23:45.303Z</time></trkpt><trkpt lat="43.9575686" lon="12.4229369"><ele>305.0</ele><time>2026-04-12T09:23:47.301Z</time></trkpt><trkpt lat="43.9575794" lon="12.4228098"><ele>304.0</ele><time>2026-04-12T09:23:49.311Z</time></trkpt><trkpt lat="43.9575896" lon="12.4226961"><ele>303.0</ele><time>2026-04-12T09:23:51.315Z</time></trkpt><trkpt lat="43.9575942" lon="12.422586"><ele>303.0</ele><time>2026-04-12T09:23:53.262Z</time></trkpt><trkpt lat="43.9576036" lon="12.4224878"><ele>303.0</ele><time>2026-04-12T09:23:55.314Z</time></trkpt><trkpt lat="43.9576123" lon="12.4223935"><ele>303.0</ele><time>2026-04-12T09:23:57.308Z</time></trkpt><trkpt lat="43.9576193" lon="12.4222919"><ele>303.0</ele><time>2026-04-12T09:23:59.295Z</time></trkpt><trkpt lat="43.9576278" lon="12.4221946"><ele>303.0</ele><time>2026-04-12T09:24:01.276Z</time></trkpt><trkpt lat="43.9576493" lon="12.4220916"><ele>303.0</ele><time>2026-04-12T09:24:03.308Z</time></trkpt><trkpt lat="43.9576546" lon="12.4219734"><ele>303.0</ele><time>2026-04-12T09:24:05.266Z</time></trkpt><trkpt lat="43.9576704" lon="12.421858"><ele>303.0</ele><time>2026-04-12T09:24:07.322Z</time></trkpt><trkpt lat="43.9576897" lon="12.4217271"><ele>303.0</ele><time>2026-04-12T09:24:09.304Z</time></trkpt><trkpt lat="43.9577121" lon="12.4215733"><ele>303.0</ele><time>2026-04-12T09:24:11.327Z</time></trkpt><trkpt lat="43.9577362" lon="12.4214018"><ele>303.0</ele><time>2026-04-12T09:24:13.294Z</time></trkpt><trkpt lat="43.9577484" lon="12.4213112"><ele>303.0</ele><time>2026-04-12T09:24:14.276Z</time></trkpt><trkpt lat="43.9577574" lon="12.4212208"><ele>303.0</ele><time>2026-04-12T09:24:15.3Z</time></trkpt><trkpt lat="43.9577631" lon="12.4211292"><ele>303.0</ele><time>2026-04-12T09:24:16.302Z</time></trkpt><trkpt lat="43.9577678" lon="12.421038"><ele>303.0</ele><time>2026-04-12T09:24:17.297Z</time></trkpt><trkpt lat="43.9577767" lon="12.4209365"><ele>303.0</ele><time>2026-04-12T09:24:18.299Z</time></trkpt><trkpt lat="43.9577788" lon="12.4208359"><ele>303.0</ele><time>2026-04-12T09:24:19.321Z</time></trkpt><trkpt lat="43.9577747" lon="12.4207282"><ele>303.0</ele><time>2026-04-12T09:24:20.307Z</time></trkpt><trkpt lat="43.9577681" lon="12.4206236"><ele>303.0</ele><time>2026-04-12T09:24:21.299Z</time></trkpt><trkpt lat="43.9577649" lon="12.4205186"><ele>302.5</ele><time>2026-04-12T09:24:22.301Z</time></trkpt><trkpt lat="43.957759" lon="12.4204102"><ele>302.0</ele><time>2026-04-12T09:24:23.316Z</time></trkpt><trkpt lat="43.9577589" lon="12.4202937"><ele>301.5</ele><time>2026-04-12T09:24:24.306Z</time></trkpt><trkpt lat="43.9577642" lon="12.4201921"><ele>301.0</ele><time>2026-04-12T09:24:25.315Z</time></trkpt><trkpt lat="43.9577762" lon="12.4200897"><ele>300.5</ele><time>2026-04-12T09:24:26.314Z</time></trkpt><trkpt lat="43.9577851" lon="12.4199805"><ele>300.0</ele><time>2026-04-12T09:24:27.302Z</time></trkpt><trkpt lat="43.9578063" lon="12.4198751"><ele>300.0</ele><time>2026-04-12T09:24:28.301Z</time></trkpt><trkpt lat="43.9578417" lon="12.4197728"><ele>300.0</ele><time>2026-04-12T09:24:29.314Z</time></trkpt><trkpt lat="43.9578856" lon="12.4196677"><ele>300.0</ele><time>2026-04-12T09:24:30.31Z</time></trkpt><trkpt lat="43.9579292" lon="12.4195596"><ele>300.0</ele><time>2026-04-12T09:24:31.307Z</time></trkpt><trkpt lat="43.9579641" lon="12.4194524"><ele>300.0</ele><time>2026-04-12T09:24:32.3Z</time></trkpt><trkpt lat="43.9580055" lon="12.4193533"><ele>300.0</ele><time>2026-04-12T09:24:33.317Z</time></trkpt><trkpt lat="43.9580412" lon="12.4192451"><ele>300.0</ele><time>2026-04-12T09:24:34.303Z</time></trkpt><trkpt lat="43.9580658" lon="12.4191407"><ele>300.0</ele><time>2026-04-12T09:24:35.265Z</time></trkpt><trkpt lat="43.9580995" lon="12.4190281"><ele>300.0</ele><time>2026-04-12T09:24:36.298Z</time></trkpt><trkpt lat="43.9581299" lon="12.4189274"><ele>300.0</ele><time>2026-04-12T09:24:37.31Z</time></trkpt><trkpt lat="43.9581616" lon="12.4188292"><ele>300.0</ele><time>2026-04-12T09:24:38.305Z</time></trkpt><trkpt lat="43.9581979" lon="12.4187449"><ele>300.0</ele><time>2026-04-12T09:24:39.295Z</time></trkpt><trkpt lat="43.9582516" lon="12.4186844"><ele>300.1666666666667</ele><time>2026-04-12T09:24:40.285Z</time></trkpt><trkpt lat="43.9583217" lon="12.4186468"><ele>300.3333333333333</ele><time>2026-04-12T09:24:41.291Z</time></trkpt><trkpt lat="43.9583991" lon="12.4186325"><ele>300.5</ele><time>2026-04-12T09:24:42.261Z</time></trkpt><trkpt lat="43.9584772" lon="12.418631"><ele>300.66666666666663</ele><time>2026-04-12T09:24:43.296Z</time></trkpt><trkpt lat="43.9585527" lon="12.4186261"><ele>300.8333333333333</ele><time>2026-04-12T09:24:44.308Z</time></trkpt><trkpt lat="43.9586277" lon="12.4186136"><ele>301.0</ele><time>2026-04-12T09:24:45.284Z</time></trkpt><trkpt lat="43.9586988" lon="12.4185861"><ele>299.40000000000003</ele><time>2026-04-12T09:24:46.284Z</time></trkpt><trkpt lat="43.9587597" lon="12.4185428"><ele>297.8</ele><time>2026-04-12T09:24:47.292Z</time></trkpt><trkpt lat="43.958868" lon="12.418509"><ele>296.20000000000005</ele><time>2026-04-12T09:24:49.303Z</time></trkpt><trkpt lat="43.9589829" lon="12.4184883"><ele>294.6</ele><time>2026-04-12T09:24:51.31Z</time></trkpt><trkpt lat="43.9590978" lon="12.4184668"><ele>293.0</ele><time>2026-04-12T09:24:53.329Z</time></trkpt><trkpt lat="43.9591558" lon="12.4184319"><ele>291.1428571428571</ele><time>2026-04-12T09:24:54.295Z</time></trkpt><trkpt lat="43.9592148" lon="12.4183801"><ele>289.2857142857143</ele><time>2026-04-12T09:24:55.256Z</time></trkpt><trkpt lat="43.9592747" lon="12.4183083"><ele>287.42857142857144</ele><time>2026-04-12T09:24:56.305Z</time></trkpt><trkpt lat="43.9593314" lon="12.4182319"><ele>285.57142857142856</ele><time>2026-04-12T09:24:57.238Z</time></trkpt><trkpt lat="43.959383" lon="12.4181687"><ele>283.7142857142857</ele><time>2026-04-12T09:24:58.29Z</time></trkpt><trkpt lat="43.9594218" lon="12.4180926"><ele>281.85714285714283</ele><time>2026-04-12T09:24:59.293Z</time></trkpt><trkpt lat="43.9594492" lon="12.4180081"><ele>280.0</ele><time>2026-04-12T09:25:00.293Z</time></trkpt><trkpt lat="43.9595" lon="12.4178391"><ele>280.0</ele><time>2026-04-12T09:25:02.308Z</time></trkpt><trkpt lat="43.9595282" lon="12.4177456"><ele>280.0</ele><time>2026-04-12T09:25:03.292Z</time></trkpt><trkpt lat="43.9595633" lon="12.4176445"><ele>280.0</ele><time>2026-04-12T09:25:04.315Z</time></trkpt><trkpt lat="43.9596023" lon="12.4175435"><ele>280.0</ele><time>2026-04-12T09:25:05.323Z</time></trkpt><trkpt lat="43.9596477" lon="12.4174526"><ele>280.0</ele><time>2026-04-12T09:25:06.302Z</time></trkpt><trkpt lat="43.9597077" lon="12.4173658"><ele>280.0</ele><time>2026-04-12T09:25:07.298Z</time></trkpt><trkpt lat="43.9597882" lon="12.4172887"><ele>280.0</ele><time>2026-04-12T09:25:08.32Z</time></trkpt><trkpt lat="43.959867" lon="12.4172113"><ele>280.0</ele><time>2026-04-12T09:25:09.278Z</time></trkpt><trkpt lat="43.9599439" lon="12.4171142"><ele>280.0</ele><time>2026-04-12T09:25:10.308Z</time></trkpt><trkpt lat="43.9600109" lon="12.4170019"><ele>280.0</ele><time>2026-04-12T09:25:11.315Z</time></trkpt><trkpt lat="43.9600763" lon="12.4168799"><ele>280.0</ele><time>2026-04-12T09:25:12.314Z</time></trkpt><trkpt lat="43.960132" lon="12.4167633"><ele>277.66666666666663</ele><time>2026-04-12T09:25:13.315Z</time></trkpt><trkpt lat="43.9601721" lon="12.4166681"><ele>275.3333333333333</ele><time>2026-04-12T09:25:14.285Z</time></trkpt><trkpt lat="43.9601991" lon="12.4165585"><ele>273.0</ele><time>2026-04-12T09:25:15.296Z</time></trkpt><trkpt lat="43.9602085" lon="12.4164461"><ele>270.6666666666667</ele><time>2026-04-12T09:25:16.285Z</time></trkpt><trkpt lat="43.9601935" lon="12.4163191"><ele>268.33333333333337</ele><time>2026-04-12T09:25:17.299Z</time></trkpt><trkpt lat="43.9601617" lon="12.4161822"><ele>266.0</ele><time>2026-04-12T09:25:18.28Z</time></trkpt><trkpt lat="43.9601193" lon="12.4160479"><ele>264.6</ele><time>2026-04-12T09:25:19.305Z</time></trkpt><trkpt lat="43.9600905" lon="12.4158919"><ele>263.20000000000005</ele><time>2026-04-12T09:25:20.303Z</time></trkpt><trkpt lat="43.9600694" lon="12.415737"><ele>261.79999999999995</ele><time>2026-04-12T09:25:21.291Z</time></trkpt><trkpt lat="43.9600412" lon="12.41559"><ele>260.4</ele><time>2026-04-12T09:25:22.294Z</time></trkpt><trkpt lat="43.9600118" lon="12.4154492"><ele>259.0</ele><time>2026-04-12T09:25:23.306Z</time></trkpt><trkpt lat="43.9599849" lon="12.415305"><ele>258.66666666666663</ele><time>2026-04-12T09:25:24.303Z</time></trkpt><trkpt lat="43.959966" lon="12.415174"><ele>258.3333333333333</ele><time>2026-04-12T09:25:25.312Z</time></trkpt><trkpt lat="43.9599548" lon="12.4150479"><ele>258.0</ele><time>2026-04-12T09:25:26.285Z</time></trkpt><trkpt lat="43.9599618" lon="12.4149359"><ele>257.6666666666667</ele><time>2026-04-12T09:25:27.301Z</time></trkpt><trkpt lat="43.96" lon="12.4148481"><ele>257.33333333333337</ele><time>2026-04-12T09:25:28.299Z</time></trkpt><trkpt lat="43.96006" lon="12.4147576"><ele>257.0</ele><time>2026-04-12T09:25:29.301Z</time></trkpt><trkpt lat="43.9601295" lon="12.4146614"><ele>252.8</ele><time>2026-04-12T09:25:30.294Z</time></trkpt><trkpt lat="43.9602022" lon="12.4145576"><ele>248.6</ele><time>2026-04-12T09:25:31.284Z</time></trkpt><trkpt lat="43.9602698" lon="12.414445"><ele>244.40000000000003</ele><time>2026-04-12T09:25:32.314Z</time></trkpt><trkpt lat="43.9603189" lon="12.4143323"><ele>240.20000000000002</ele><time>2026-04-12T09:25:33.303Z</time></trkpt><trkpt lat="43.9603419" lon="12.4142207"><ele>236.0</ele><time>2026-04-12T09:25:34.304Z</time></trkpt><trkpt lat="43.9603426" lon="12.4140942"><ele>236.0</ele><time>2026-04-12T09:25:35.313Z</time></trkpt><trkpt lat="43.9603408" lon="12.4139588"><ele>236.00000000000003</ele><time>2026-04-12T09:25:36.312Z</time></trkpt><trkpt lat="43.9603622" lon="12.4138284"><ele>236.00000000000003</ele><time>2026-04-12T09:25:37.306Z</time></trkpt><trkpt lat="43.9604019" lon="12.4137072"><ele>236.0</ele><time>2026-04-12T09:25:38.313Z</time></trkpt><trkpt lat="43.9604527" lon="12.4135792"><ele>236.0</ele><time>2026-04-12T09:25:39.318Z</time></trkpt><trkpt lat="43.9605104" lon="12.4134273"><ele>234.5</ele><time>2026-04-12T09:25:40.297Z</time></trkpt><trkpt lat="43.9605616" lon="12.4132661"><ele>233.0</ele><time>2026-04-12T09:25:41.314Z</time></trkpt><trkpt lat="43.960598" lon="12.4131092"><ele>231.5</ele><time>2026-04-12T09:25:42.296Z</time></trkpt><trkpt lat="43.9606397" lon="12.412951"><ele>230.0</ele><time>2026-04-12T09:25:43.295Z</time></trkpt><trkpt lat="43.9606905" lon="12.4127954"><ele>229.25</ele><time>2026-04-12T09:25:44.276Z</time></trkpt><trkpt lat="43.9607437" lon="12.4126259"><ele>228.5</ele><time>2026-04-12T09:25:45.304Z</time></trkpt><trkpt lat="43.9607643" lon="12.4124613"><ele>227.75</ele><time>2026-04-12T09:25:46.301Z</time></trkpt><trkpt lat="43.9607554" lon="12.4123031"><ele>227.0</ele><time>2026-04-12T09:25:47.259Z</time></trkpt><trkpt lat="43.9607479" lon="12.4121522"><ele>226.6</ele><time>2026-04-12T09:25:48.281Z</time></trkpt><trkpt lat="43.9607482" lon="12.4120024"><ele>226.2</ele><time>2026-04-12T09:25:49.283Z</time></trkpt><trkpt lat="43.9607638" lon="12.4118568"><ele>225.8</ele><time>2026-04-12T09:25:50.249Z</time></trkpt><trkpt lat="43.9607915" lon="12.4117203"><ele>225.4</ele><time>2026-04-12T09:25:51.324Z</time></trkpt><trkpt lat="43.9608264" lon="12.41158"><ele>225.0</ele><time>2026-04-12T09:25:52.28Z</time></trkpt><trkpt lat="43.9608698" lon="12.4114548"><ele>222.0</ele><time>2026-04-12T09:25:53.293Z</time></trkpt><trkpt lat="43.9609147" lon="12.4113472"><ele>219.0</ele><time>2026-04-12T09:25:54.308Z</time></trkpt><trkpt lat="43.9609505" lon="12.4112533"><ele>216.0</ele><time>2026-04-12T09:25:55.291Z</time></trkpt><trkpt lat="43.9609574" lon="12.4111652"><ele>213.0</ele><time>2026-04-12T09:25:56.309Z</time></trkpt><trkpt lat="43.9609599" lon="12.4110602"><ele>210.0</ele><time>2026-04-12T09:25:57.29Z</time></trkpt><trkpt lat="43.9609544" lon="12.4109348"><ele>207.0</ele><time>2026-04-12T09:25:58.307Z</time></trkpt><trkpt lat="43.9609402" lon="12.4108132"><ele>206.8</ele><time>2026-04-12T09:25:59.294Z</time></trkpt><trkpt lat="43.9609264" lon="12.4106882"><ele>206.6</ele><time>2026-04-12T09:26:00.294Z</time></trkpt><trkpt lat="43.9609302" lon="12.4105545"><ele>206.4</ele><time>2026-04-12T09:26:01.304Z</time></trkpt><trkpt lat="43.9609391" lon="12.4104248"><ele>206.20000000000002</ele><time>2026-04-12T09:26:02.294Z</time></trkpt><trkpt lat="43.9609657" lon="12.4102822"><ele>206.0</ele><time>2026-04-12T09:26:03.309Z</time></trkpt><trkpt lat="43.9609865" lon="12.4101418"><ele>205.4</ele><time>2026-04-12T09:26:04.311Z</time></trkpt><trkpt lat="43.9610156" lon="12.4100045"><ele>204.8</ele><time>2026-04-12T09:26:05.281Z</time></trkpt><trkpt lat="43.9610395" lon="12.4098809"><ele>204.20000000000002</ele><time>2026-04-12T09:26:06.321Z</time></trkpt><trkpt lat="43.9610503" lon="12.4097505"><ele>203.60000000000002</ele><time>2026-04-12T09:26:07.305Z</time></trkpt><trkpt lat="43.9610563" lon="12.4096293"><ele>203.0</ele><time>2026-04-12T09:26:08.316Z</time></trkpt><trkpt lat="43.9610581" lon="12.4095254"><ele>202.4</ele><time>2026-04-12T09:26:09.303Z</time></trkpt><trkpt lat="43.9610376" lon="12.4093957"><ele>201.8</ele><time>2026-04-12T09:26:10.297Z</time></trkpt><trkpt lat="43.9610115" lon="12.4092665"><ele>201.2</ele><time>2026-04-12T09:26:11.3Z</time></trkpt><trkpt lat="43.9609898" lon="12.4091248"><ele>200.6</ele><time>2026-04-12T09:26:12.316Z</time></trkpt><trkpt lat="43.9609753" lon="12.4089708"><ele>200.0</ele><time>2026-04-12T09:26:13.307Z</time></trkpt><trkpt lat="43.9609701" lon="12.40883"><ele>198.83333333333334</ele><time>2026-04-12T09:26:14.298Z</time></trkpt><trkpt lat="43.9609646" lon="12.4087035"><ele>197.66666666666669</ele><time>2026-04-12T09:26:15.306Z</time></trkpt><trkpt lat="43.9609496" lon="12.4085871"><ele>196.5</ele><time>2026-04-12T09:26:16.302Z</time></trkpt><trkpt lat="43.9609093" lon="12.4084923"><ele>195.33333333333331</ele><time>2026-04-12T09:26:17.283Z</time></trkpt><trkpt lat="43.9608565" lon="12.4083934"><ele>194.16666666666666</ele><time>2026-04-12T09:26:18.297Z</time></trkpt><trkpt lat="43.9608044" lon="12.4082994"><ele>193.0</ele><time>2026-04-12T09:26:19.3Z</time></trkpt><trkpt lat="43.9607523" lon="12.4081981"><ele>192.99999999999997</ele><time>2026-04-12T09:26:20.303Z</time></trkpt><trkpt lat="43.9607123" lon="12.4080924"><ele>193.0</ele><time>2026-04-12T09:26:21.301Z</time></trkpt><trkpt lat="43.9606929" lon="12.4079975"><ele>193.0</ele><time>2026-04-12T09:26:22.256Z</time></trkpt><trkpt lat="43.9606806" lon="12.4078296"><ele>193.0</ele><time>2026-04-12T09:26:24.246Z</time></trkpt><trkpt lat="43.9606773" lon="12.4077365"><ele>192.99999999999997</ele><time>2026-04-12T09:26:25.278Z</time></trkpt><trkpt lat="43.9606791" lon="12.4076396"><ele>193.0</ele><time>2026-04-12T09:26:26.308Z</time></trkpt><trkpt lat="43.9606819" lon="12.4075127"><ele>191.0</ele><time>2026-04-12T09:26:27.287Z</time></trkpt><trkpt lat="43.9606763" lon="12.4073881"><ele>189.0</ele><time>2026-04-12T09:26:28.313Z</time></trkpt><trkpt lat="43.9606536" lon="12.4072526"><ele>187.0</ele><time>2026-04-12T09:26:29.31Z</time></trkpt><trkpt lat="43.9606365" lon="12.4071209"><ele>185.0</ele><time>2026-04-12T09:26:30.273Z</time></trkpt><trkpt lat="43.9606321" lon="12.4069859"><ele>183.0</ele><time>2026-04-12T09:26:31.289Z</time></trkpt><trkpt lat="43.9606373" lon="12.4068388"><ele>181.2</ele><time>2026-04-12T09:26:32.305Z</time></trkpt><trkpt lat="43.9606645" lon="12.4067043"><ele>179.4</ele><time>2026-04-12T09:26:33.298Z</time></trkpt><trkpt lat="43.9607139" lon="12.4065874"><ele>177.6</ele><time>2026-04-12T09:26:34.287Z</time></trkpt><trkpt lat="43.9607676" lon="12.4064724"><ele>175.79999999999998</ele><time>2026-04-12T09:26:35.288Z</time></trkpt><trkpt lat="43.9608173" lon="12.406355"><ele>174.0</ele><time>2026-04-12T09:26:36.315Z</time></trkpt><trkpt lat="43.9608582" lon="12.4062158"><ele>172.6</ele><time>2026-04-12T09:26:37.291Z</time></trkpt><trkpt lat="43.9608556" lon="12.4060608"><ele>171.2</ele><time>2026-04-12T09:26:38.291Z</time></trkpt><trkpt lat="43.9608548" lon="12.4059202"><ele>169.79999999999998</ele><time>2026-04-12T09:26:39.304Z</time></trkpt><trkpt lat="43.9608559" lon="12.4057885"><ele>168.39999999999998</ele><time>2026-04-12T09:26:40.245Z</time></trkpt><trkpt lat="43.9608545" lon="12.4056564"><ele>167.0</ele><time>2026-04-12T09:26:41.288Z</time></trkpt><trkpt lat="43.9608606" lon="12.4055196"><ele>164.79999999999998</ele><time>2026-04-12T09:26:42.298Z</time></trkpt><trkpt lat="43.9608671" lon="12.405375"><ele>162.6</ele><time>2026-04-12T09:26:43.305Z</time></trkpt><trkpt lat="43.9608717" lon="12.405218"><ele>160.39999999999998</ele><time>2026-04-12T09:26:44.297Z</time></trkpt><trkpt lat="43.9608808" lon="12.4050626"><ele>158.2</ele><time>2026-04-12T09:26:45.296Z</time></trkpt><trkpt lat="43.9608839" lon="12.4049119"><ele>156.0</ele><time>2026-04-12T09:26:46.306Z</time></trkpt><trkpt lat="43.9608974" lon="12.4047639"><ele>155.0</ele><time>2026-04-12T09:26:47.3Z</time></trkpt><trkpt lat="43.9609121" lon="12.4046224"><ele>154.0</ele><time>2026-04-12T09:26:48.302Z</time></trkpt><trkpt lat="43.9609155" lon="12.4044839"><ele>153.0</ele><time>2026-04-12T09:26:49.304Z</time></trkpt><trkpt lat="43.960911" lon="12.4043451"><ele>152.0</ele><time>2026-04-12T09:26:50.315Z</time></trkpt><trkpt lat="43.9609097" lon="12.4042117"><ele>151.0</ele><time>2026-04-12T09:26:51.304Z</time></trkpt><trkpt lat="43.9609067" lon="12.4040963"><ele>151.0</ele><time>2026-04-12T09:26:52.275Z</time></trkpt><trkpt lat="43.9609117" lon="12.4039884"><ele>151.0</ele><time>2026-04-12T09:26:53.316Z</time></trkpt><trkpt lat="43.9609148" lon="12.4038683"><ele>151.0</ele><time>2026-04-12T09:26:54.306Z</time></trkpt><trkpt lat="43.9609195" lon="12.4037468"><ele>151.0</ele><time>2026-04-12T09:26:55.29Z</time></trkpt><trkpt lat="43.9609264" lon="12.4036276"><ele>151.0</ele><time>2026-04-12T09:26:56.265Z</time></trkpt><trkpt lat="43.9609318" lon="12.4035022"><ele>151.0</ele><time>2026-04-12T09:26:57.297Z</time></trkpt><trkpt lat="43.9609331" lon="12.403385"><ele>149.85714285714286</ele><time>2026-04-12T09:26:58.311Z</time></trkpt><trkpt lat="43.960943" lon="12.4032872"><ele>148.71428571428572</ele><time>2026-04-12T09:26:59.248Z</time></trkpt><trkpt lat="43.9609531" lon="12.4031908"><ele>147.57142857142856</ele><time>2026-04-12T09:27:00.305Z</time></trkpt><trkpt lat="43.9609617" lon="12.4030907"><ele>146.42857142857144</ele><time>2026-04-12T09:27:01.317Z</time></trkpt><trkpt lat="43.9609587" lon="12.4029999"><ele>145.28571428571428</ele><time>2026-04-12T09:27:02.307Z</time></trkpt><trkpt lat="43.9609513" lon="12.4029008"><ele>144.14285714285714</ele><time>2026-04-12T09:27:03.277Z</time></trkpt><trkpt lat="43.9609432" lon="12.4027954"><ele>143.0</ele><time>2026-04-12T09:27:04.288Z</time></trkpt><trkpt lat="43.9609451" lon="12.4026864"><ele>142.16666666666666</ele><time>2026-04-12T09:27:05.249Z</time></trkpt><trkpt lat="43.960953" lon="12.4025895"><ele>141.33333333333331</ele><time>2026-04-12T09:27:06.289Z</time></trkpt><trkpt lat="43.9609689" lon="12.4025034"><ele>140.5</ele><time>2026-04-12T09:27:07.309Z</time></trkpt><trkpt lat="43.9609945" lon="12.4023425"><ele>139.66666666666666</ele><time>2026-04-12T09:27:09.293Z</time></trkpt><trkpt lat="43.9610011" lon="12.4021896"><ele>138.83333333333334</ele><time>2026-04-12T09:27:11.305Z</time></trkpt><trkpt lat="43.9609946" lon="12.4020865"><ele>138.0</ele><time>2026-04-12T09:27:13.28Z</time></trkpt><trkpt lat="43.9610299" lon="12.4020021"><ele>138.0</ele><time>2026-04-12T09:27:16.304Z</time></trkpt><trkpt lat="43.9609653" lon="12.4020415"><ele>138.0</ele><time>2026-04-12T09:27:21.298Z</time></trkpt><trkpt lat="43.9609666" lon="12.4021441"><ele>138.0</ele><time>2026-04-12T09:27:26.294Z</time></trkpt><trkpt lat="43.960989" lon="12.4020442"><ele>138.0</ele><time>2026-04-12T09:27:31.237Z</time></trkpt><trkpt lat="43.9609515" lon="12.4021161"><ele>138.0</ele><time>2026-04-12T09:27:44.31Z</time></trkpt><trkpt lat="43.9609557" lon="12.4022198"><ele>138.0</ele><time>2026-04-12T09:27:49.304Z</time></trkpt><trkpt lat="43.9609409" lon="12.4023138"><ele>138.0</ele><time>2026-04-12T09:27:54.303Z</time></trkpt><trkpt lat="43.9609366" lon="12.4024109"><ele>138.0</ele><time>2026-04-12T09:27:59.314Z</time></trkpt><trkpt lat="43.9609331" lon="12.4025041"><ele>138.0</ele><time>2026-04-12T09:28:04.315Z</time></trkpt><trkpt lat="43.9609259" lon="12.4025934"><ele>138.0</ele><time>2026-04-12T09:28:08.297Z</time></trkpt><trkpt lat="43.9609245" lon="12.4026894"><ele>138.0</ele><time>2026-04-12T09:28:12.288Z</time></trkpt><trkpt lat="43.9609172" lon="12.4027799"><ele>138.0</ele><time>2026-04-12T09:28:16.311Z</time></trkpt><trkpt lat="43.9609253" lon="12.4028719"><ele>138.0</ele><time>2026-04-12T09:28:20.297Z</time></trkpt><trkpt lat="43.9609256" lon="12.4029662"><ele>138.0</ele><time>2026-04-12T09:28:24.306Z</time></trkpt><trkpt lat="43.960945" lon="12.4030661"><ele>138.71428571428572</ele><time>2026-04-12T09:28:28.297Z</time></trkpt><trkpt lat="43.9609499" lon="12.4031678"><ele>139.42857142857144</ele><time>2026-04-12T09:28:32.304Z</time></trkpt><trkpt lat="43.960936" lon="12.4032751"><ele>140.14285714285714</ele><time>2026-04-12T09:28:37.313Z</time></trkpt><trkpt lat="43.9609191" lon="12.4033742"><ele>140.85714285714286</ele><time>2026-04-12T09:28:41.307Z</time></trkpt><trkpt lat="43.9609039" lon="12.4034706"><ele>141.57142857142856</ele><time>2026-04-12T09:28:45.28Z</time></trkpt><trkpt lat="43.9608827" lon="12.4035572"><ele>142.28571428571428</ele><time>2026-04-12T09:28:49.262Z</time></trkpt><trkpt lat="43.9608832" lon="12.4036523"><ele>143.0</ele><time>2026-04-12T09:28:53.293Z</time></trkpt><trkpt lat="43.9608888" lon="12.4037561"><ele>144.14285714285714</ele><time>2026-04-12T09:28:57.297Z</time></trkpt><trkpt lat="43.9608787" lon="12.4038432"><ele>145.28571428571428</ele><time>2026-04-12T09:29:01.297Z</time></trkpt><trkpt lat="43.9608683" lon="12.4039391"><ele>146.42857142857144</ele><time>2026-04-12T09:29:06.306Z</time></trkpt><trkpt lat="43.9608588" lon="12.4040376"><ele>147.57142857142856</ele><time>2026-04-12T09:29:10.274Z</time></trkpt><trkpt lat="43.9608407" lon="12.4041312"><ele>148.71428571428572</ele><time>2026-04-12T09:29:14.299Z</time></trkpt><trkpt lat="43.9608518" lon="12.4042263"><ele>149.85714285714286</ele><time>2026-04-12T09:29:18.302Z</time></trkpt><trkpt lat="43.9608542" lon="12.4043173"><ele>151.0</ele><time>2026-04-12T09:29:22.301Z</time></trkpt><trkpt lat="43.9608645" lon="12.4044224"><ele>151.00000000000003</ele><time>2026-04-12T09:29:26.291Z</time></trkpt><trkpt lat="43.9608852" lon="12.4045145"><ele>151.0</ele><time>2026-04-12T09:29:29.277Z</time></trkpt><trkpt lat="43.9608904" lon="12.4046146"><ele>151.0</ele><time>2026-04-12T09:29:33.298Z</time></trkpt><trkpt lat="43.9609003" lon="12.4047193"><ele>151.0</ele><time>2026-04-12T09:29:38.292Z</time></trkpt><trkpt lat="43.9608945" lon="12.4048253"><ele>151.0</ele><time>2026-04-12T09:29:43.301Z</time></trkpt><trkpt lat="43.9608893" lon="12.4049311"><ele>151.00000000000003</ele><time>2026-04-12T09:29:48.3Z</time></trkpt><trkpt lat="43.9608848" lon="12.4050333"><ele>151.0</ele><time>2026-04-12T09:29:52.306Z</time></trkpt><trkpt lat="43.9608697" lon="12.4051315"><ele>152.57142857142858</ele><time>2026-04-12T09:29:56.307Z</time></trkpt><trkpt lat="43.9608641" lon="12.4052278"><ele>154.14285714285714</ele><time>2026-04-12T09:30:00.254Z</time></trkpt><trkpt lat="43.9608521" lon="12.4053218"><ele>155.71428571428572</ele><time>2026-04-12T09:30:04.308Z</time></trkpt><trkpt lat="43.9608427" lon="12.4054299"><ele>157.28571428571428</ele><time>2026-04-12T09:30:08.31Z</time></trkpt><trkpt lat="43.9608437" lon="12.4055229"><ele>158.85714285714286</ele><time>2026-04-12T09:30:12.299Z</time></trkpt><trkpt lat="43.9608297" lon="12.4056231"><ele>160.42857142857144</ele><time>2026-04-12T09:30:17.242Z</time></trkpt><trkpt lat="43.9608185" lon="12.4057337"><ele>162.0</ele><time>2026-04-12T09:30:22.294Z</time></trkpt><trkpt lat="43.9608106" lon="12.405822"><ele>162.71428571428572</ele><time>2026-04-12T09:30:26.296Z</time></trkpt><trkpt lat="43.9608053" lon="12.4059126"><ele>163.42857142857142</ele><time>2026-04-12T09:30:30.267Z</time></trkpt><trkpt lat="43.9607996" lon="12.4060154"><ele>164.14285714285714</ele><time>2026-04-12T09:30:34.299Z</time></trkpt><trkpt lat="43.9608028" lon="12.4061058"><ele>164.85714285714286</ele><time>2026-04-12T09:30:37.263Z</time></trkpt><trkpt lat="43.9608037" lon="12.4062013"><ele>165.57142857142858</ele><time>2026-04-12T09:30:40.301Z</time></trkpt><trkpt lat="43.960807" lon="12.4062891"><ele>166.28571428571428</ele><time>2026-04-12T09:30:43.304Z</time></trkpt><trkpt lat="43.9607846" lon="12.4063712"><ele>167.0</ele><time>2026-04-12T09:30:46.303Z</time></trkpt><trkpt lat="43.9607624" lon="12.4064531"><ele>168.0</ele><time>2026-04-12T09:30:49.313Z</time></trkpt><trkpt lat="43.9607219" lon="12.4065352"><ele>169.0</ele><time>2026-04-12T09:30:53.311Z</time></trkpt><trkpt lat="43.9606745" lon="12.4065995"><ele>170.0</ele><time>2026-04-12T09:30:57.316Z</time></trkpt><trkpt lat="43.9606421" lon="12.4066835"><ele>171.0</ele><time>2026-04-12T09:31:01.305Z</time></trkpt><trkpt lat="43.9606039" lon="12.4067725"><ele>172.0</ele><time>2026-04-12T09:31:06.306Z</time></trkpt><trkpt lat="43.9605884" lon="12.4068588"><ele>173.0</ele><time>2026-04-12T09:31:10.304Z</time></trkpt><trkpt lat="43.9605865" lon="12.4069522"><ele>174.0</ele><time>2026-04-12T09:31:14.313Z</time></trkpt><trkpt lat="43.9605936" lon="12.4070557"><ele>175.28571428571428</ele><time>2026-04-12T09:31:18.302Z</time></trkpt><trkpt lat="43.960594" lon="12.4071662"><ele>176.57142857142858</ele><time>2026-04-12T09:31:23.318Z</time></trkpt><trkpt lat="43.9606093" lon="12.4072666"><ele>177.85714285714286</ele><time>2026-04-12T09:31:27.296Z</time></trkpt><trkpt lat="43.9606196" lon="12.4073718"><ele>179.14285714285714</ele><time>2026-04-12T09:31:32.303Z</time></trkpt><trkpt lat="43.9606326" lon="12.4074777"><ele>180.42857142857144</ele><time>2026-04-12T09:31:38.315Z</time></trkpt><trkpt lat="43.9606321" lon="12.4075777"><ele>181.71428571428572</ele><time>2026-04-12T09:31:45.314Z</time></trkpt><trkpt lat="43.9606334" lon="12.4076675"><ele>183.0</ele><time>2026-04-12T09:31:50.283Z</time></trkpt><trkpt lat="43.9606277" lon="12.4077701"><ele>183.0</ele><time>2026-04-12T09:31:56.309Z</time></trkpt><trkpt lat="43.9606248" lon="12.4078685"><ele>183.0</ele><time>2026-04-12T09:32:02.281Z</time></trkpt><trkpt lat="43.9606386" lon="12.4079603"><ele>183.0</ele><time>2026-04-12T09:32:08.308Z</time></trkpt><trkpt lat="43.9606578" lon="12.4080495"><ele>183.0</ele><time>2026-04-12T09:32:14.301Z</time></trkpt><trkpt lat="43.9606831" lon="12.4081421"><ele>183.0</ele><time>2026-04-12T09:32:19.307Z</time></trkpt><trkpt lat="43.9607063" lon="12.4082316"><ele>183.0</ele><time>2026-04-12T09:32:24.316Z</time></trkpt><trkpt lat="43.9607249" lon="12.408326"><ele>183.0</ele><time>2026-04-12T09:32:29.295Z</time></trkpt><trkpt lat="43.9607657" lon="12.4084039"><ele>184.0</ele><time>2026-04-12T09:32:34.284Z</time></trkpt><trkpt lat="43.9608107" lon="12.4084841"><ele>185.0</ele><time>2026-04-12T09:32:39.302Z</time></trkpt><trkpt lat="43.9608491" lon="12.4085706"><ele>186.0</ele><time>2026-04-12T09:32:44.314Z</time></trkpt><trkpt lat="43.9608867" lon="12.4086475"><ele>187.0</ele><time>2026-04-12T09:32:49.29Z</time></trkpt><trkpt lat="43.9609091" lon="12.4087349"><ele>188.0</ele><time>2026-04-12T09:32:54.326Z</time></trkpt><trkpt lat="43.9609272" lon="12.4088305"><ele>189.0</ele><time>2026-04-12T09:33:00.303Z</time></trkpt><trkpt lat="43.960939" lon="12.4089207"><ele>190.0</ele><time>2026-04-12T09:33:05.247Z</time></trkpt><trkpt lat="43.9609579" lon="12.4090166"><ele>191.42857142857144</ele><time>2026-04-12T09:33:10.278Z</time></trkpt><trkpt lat="43.9609583" lon="12.4091132"><ele>192.85714285714286</ele><time>2026-04-12T09:33:15.295Z</time></trkpt><trkpt lat="43.9609568" lon="12.4092068"><ele>194.28571428571428</ele><time>2026-04-12T09:33:21.286Z</time></trkpt><trkpt lat="43.9609666" lon="12.4093048"><ele>195.71428571428572</ele><time>2026-04-12T09:33:27.315Z</time></trkpt><trkpt lat="43.9609888" lon="12.4093991"><ele>197.14285714285714</ele><time>2026-04-12T09:33:32.309Z</time></trkpt><trkpt lat="43.9610111" lon="12.4094948"><ele>198.57142857142858</ele><time>2026-04-12T09:33:39.301Z</time></trkpt><trkpt lat="43.9610281" lon="12.4095978"><ele>200.0</ele><time>2026-04-12T09:33:45.295Z</time></trkpt><trkpt lat="43.9610319" lon="12.4096897"><ele>200.42857142857144</ele><time>2026-04-12T09:33:49.295Z</time></trkpt><trkpt lat="43.961029" lon="12.409797"><ele>200.85714285714286</ele><time>2026-04-12T09:33:53.294Z</time></trkpt><trkpt lat="43.9610228" lon="12.4098885"><ele>201.28571428571428</ele><time>2026-04-12T09:33:57.317Z</time></trkpt><trkpt lat="43.9610098" lon="12.4099757"><ele>201.71428571428572</ele><time>2026-04-12T09:34:01.272Z</time></trkpt><trkpt lat="43.9609929" lon="12.4100727"><ele>202.14285714285714</ele><time>2026-04-12T09:34:05.26Z</time></trkpt><trkpt lat="43.9609702" lon="12.4101545"><ele>202.57142857142858</ele><time>2026-04-12T09:34:09.298Z</time></trkpt><trkpt lat="43.9609666" lon="12.4102449"><ele>203.0</ele><time>2026-04-12T09:34:13.305Z</time></trkpt><trkpt lat="43.9609485" lon="12.4103352"><ele>203.0</ele><time>2026-04-12T09:34:18.307Z</time></trkpt><trkpt lat="43.9609424" lon="12.4104386"><ele>203.0</ele><time>2026-04-12T09:34:23.3Z</time></trkpt><trkpt lat="43.9609372" lon="12.4105289"><ele>203.0</ele><time>2026-04-12T09:34:28.304Z</time></trkpt><trkpt lat="43.9609287" lon="12.4106291"><ele>203.0</ele><time>2026-04-12T09:34:34.291Z</time></trkpt><trkpt lat="43.9609313" lon="12.4107217"><ele>203.0</ele><time>2026-04-12T09:34:39.307Z</time></trkpt><trkpt lat="43.9609345" lon="12.4108163"><ele>203.0</ele><time>2026-04-12T09:34:43.311Z</time></trkpt><trkpt lat="43.9609448" lon="12.4109145"><ele>203.0</ele><time>2026-04-12T09:34:47.318Z</time></trkpt><trkpt lat="43.9609521" lon="12.411021"><ele>203.42857142857142</ele><time>2026-04-12T09:34:52.276Z</time></trkpt><trkpt lat="43.9609513" lon="12.4111278"><ele>203.85714285714286</ele><time>2026-04-12T09:34:57.296Z</time></trkpt><trkpt lat="43.960926" lon="12.4112095"><ele>204.28571428571428</ele><time>2026-04-12T09:35:02.308Z</time></trkpt><trkpt lat="43.9609095" lon="12.4112992"><ele>204.71428571428572</ele><time>2026-04-12T09:35:06.301Z</time></trkpt><trkpt lat="43.960876" lon="12.4113908"><ele>205.14285714285714</ele><time>2026-04-12T09:35:09.309Z</time></trkpt><trkpt lat="43.9608236" lon="12.4114805"><ele>205.57142857142856</ele><time>2026-04-12T09:35:12.305Z</time></trkpt><trkpt lat="43.9608" lon="12.4115702"><ele>206.0</ele><time>2026-04-12T09:35:14.294Z</time></trkpt><trkpt lat="43.9607672" lon="12.4116918"><ele>209.16666666666669</ele><time>2026-04-12T09:35:17.304Z</time></trkpt><trkpt lat="43.9607536" lon="12.4117785"><ele>212.33333333333334</ele><time>2026-04-12T09:35:19.297Z</time></trkpt><trkpt lat="43.9607334" lon="12.4118921"><ele>215.5</ele><time>2026-04-12T09:35:22.304Z</time></trkpt><trkpt lat="43.9607246" lon="12.4119844"><ele>218.66666666666669</ele><time>2026-04-12T09:35:25.308Z</time></trkpt><trkpt lat="43.9607224" lon="12.4121097"><ele>221.83333333333334</ele><time>2026-04-12T09:35:29.299Z</time></trkpt><trkpt lat="43.9607331" lon="12.4122172"><ele>225.0</ele><time>2026-04-12T09:35:32.293Z</time></trkpt><trkpt lat="43.9607375" lon="12.4123263"><ele>225.33333333333334</ele><time>2026-04-12T09:35:35.273Z</time></trkpt><trkpt lat="43.9607307" lon="12.412438"><ele>225.66666666666669</ele><time>2026-04-12T09:35:38.286Z</time></trkpt><trkpt lat="43.960722" lon="12.4125684"><ele>226.0</ele><time>2026-04-12T09:35:41.291Z</time></trkpt><trkpt lat="43.9607155" lon="12.4126578"><ele>226.33333333333334</ele><time>2026-04-12T09:35:43.3Z</time></trkpt><trkpt lat="43.9606934" lon="12.4127816"><ele>226.66666666666669</ele><time>2026-04-12T09:35:46.313Z</time></trkpt><trkpt lat="43.9606703" lon="12.4128917"><ele>227.0</ele><time>2026-04-12T09:35:49.305Z</time></trkpt><trkpt lat="43.9606345" lon="12.4129746"><ele>227.42857142857144</ele><time>2026-04-12T09:35:52.279Z</time></trkpt><trkpt lat="43.9605961" lon="12.4130701"><ele>227.8571428571429</ele><time>2026-04-12T09:35:56.307Z</time></trkpt><trkpt lat="43.9605695" lon="12.41316"><ele>228.28571428571428</ele><time>2026-04-12T09:36:00.308Z</time></trkpt><trkpt lat="43.9605528" lon="12.4132545"><ele>228.71428571428572</ele><time>2026-04-12T09:36:04.303Z</time></trkpt><trkpt lat="43.9605167" lon="12.4133445"><ele>229.14285714285714</ele><time>2026-04-12T09:36:08.273Z</time></trkpt><trkpt lat="43.9604783" lon="12.4134398"><ele>229.57142857142856</ele><time>2026-04-12T09:36:12.314Z</time></trkpt><trkpt lat="43.9604556" lon="12.4135229"><ele>229.99999999999997</ele><time>2026-04-12T09:36:16.282Z</time></trkpt><trkpt lat="43.9604282" lon="12.4136081"><ele>229.99999999999997</ele><time>2026-04-12T09:36:21.264Z</time></trkpt><trkpt lat="43.9604061" lon="12.4136916"><ele>230.0</ele><time>2026-04-12T09:36:27.293Z</time></trkpt><trkpt lat="43.9603595" lon="12.4137709"><ele>229.99999999999997</ele><time>2026-04-12T09:36:32.276Z</time></trkpt><trkpt lat="43.9603311" lon="12.4138648"><ele>229.99999999999997</ele><time>2026-04-12T09:36:37.301Z</time></trkpt><trkpt lat="43.9603042" lon="12.4139588"><ele>230.0</ele><time>2026-04-12T09:36:43.31Z</time></trkpt><trkpt lat="43.9602988" lon="12.4140596"><ele>229.99999999999997</ele><time>2026-04-12T09:36:48.284Z</time></trkpt><trkpt lat="43.9602918" lon="12.4141483"><ele>229.99999999999997</ele><time>2026-04-12T09:36:53.296Z</time></trkpt><trkpt lat="43.9602765" lon="12.4142412"><ele>230.85714285714283</ele><time>2026-04-12T09:36:58.313Z</time></trkpt><trkpt lat="43.9602468" lon="12.4143412"><ele>231.71428571428572</ele><time>2026-04-12T09:37:02.318Z</time></trkpt><trkpt lat="43.9602123" lon="12.4144369"><ele>232.57142857142856</ele><time>2026-04-12T09:37:06.326Z</time></trkpt><trkpt lat="43.9601655" lon="12.4145074"><ele>233.42857142857142</ele><time>2026-04-12T09:37:10.316Z</time></trkpt><trkpt lat="43.9601213" lon="12.4145851"><ele>234.28571428571428</ele><time>2026-04-12T09:37:15.31Z</time></trkpt><trkpt lat="43.9600713" lon="12.4146385"><ele>235.14285714285714</ele><time>2026-04-12T09:37:20.327Z</time></trkpt><trkpt lat="43.9600209" lon="12.4147079"><ele>236.0</ele><time>2026-04-12T09:37:25.32Z</time></trkpt><trkpt lat="43.9599815" lon="12.4148016"><ele>239.0</ele><time>2026-04-12T09:37:30.323Z</time></trkpt><trkpt lat="43.9599531" lon="12.4149047"><ele>242.0</ele><time>2026-04-12T09:37:35.279Z</time></trkpt><trkpt lat="43.9599317" lon="12.4150057"><ele>245.0</ele><time>2026-04-12T09:37:40.303Z</time></trkpt><trkpt lat="43.9599308" lon="12.4150952"><ele>248.0</ele><time>2026-04-12T09:37:44.297Z</time></trkpt><trkpt lat="43.9599279" lon="12.4151957"><ele>251.0</ele><time>2026-04-12T09:37:50.296Z</time></trkpt><trkpt lat="43.9599366" lon="12.4152901"><ele>254.0</ele><time>2026-04-12T09:37:56.236Z</time></trkpt><trkpt lat="43.959944" lon="12.4153953"><ele>257.0</ele><time>2026-04-12T09:38:02.237Z</time></trkpt><trkpt lat="43.9599482" lon="12.415499"><ele>257.2857142857143</ele><time>2026-04-12T09:38:08.275Z</time></trkpt><trkpt lat="43.9599841" lon="12.4155775"><ele>257.57142857142856</ele><time>2026-04-12T09:38:14.292Z</time></trkpt><trkpt lat="43.9599849" lon="12.415685"><ele>257.8571428571429</ele><time>2026-04-12T09:38:20.257Z</time></trkpt><trkpt lat="43.9600177" lon="12.4157689"><ele>258.1428571428571</ele><time>2026-04-12T09:38:24.289Z</time></trkpt><trkpt lat="43.9600377" lon="12.4158625"><ele>258.42857142857144</ele><time>2026-04-12T09:38:28.286Z</time></trkpt><trkpt lat="43.9600469" lon="12.4159674"><ele>258.7142857142857</ele><time>2026-04-12T09:38:34.3Z</time></trkpt><trkpt lat="43.9600611" lon="12.4160703"><ele>259.0</ele><time>2026-04-12T09:38:39.309Z</time></trkpt><trkpt lat="43.9600804" lon="12.4161611"><ele>259.0</ele><time>2026-04-12T09:38:43.306Z</time></trkpt><trkpt lat="43.960119" lon="12.4162433"><ele>259.0</ele><time>2026-04-12T09:38:48.308Z</time></trkpt><trkpt lat="43.9601506" lon="12.4163305"><ele>259.0</ele><time>2026-04-12T09:38:53.31Z</time></trkpt><trkpt lat="43.9601729" lon="12.4164179"><ele>259.0</ele><time>2026-04-12T09:38:58.292Z</time></trkpt><trkpt lat="43.9601605" lon="12.4165176"><ele>259.0</ele><time>2026-04-12T09:39:04.285Z</time></trkpt><trkpt lat="43.960146" lon="12.4166151"><ele>259.0</ele><time>2026-04-12T09:39:10.284Z</time></trkpt><trkpt lat="43.9601161" lon="12.4167069"><ele>259.0</ele><time>2026-04-12T09:39:15.298Z</time></trkpt><trkpt lat="43.9600792" lon="12.4167868"><ele>260.0</ele><time>2026-04-12T09:39:20.283Z</time></trkpt><trkpt lat="43.9600383" lon="12.4168733"><ele>261.0</ele><time>2026-04-12T09:39:25.235Z</time></trkpt><trkpt lat="43.9600003" lon="12.4169529"><ele>262.0</ele><time>2026-04-12T09:39:29.263Z</time></trkpt><trkpt lat="43.959966" lon="12.4170343"><ele>263.0</ele><time>2026-04-12T09:39:33.313Z</time></trkpt><trkpt lat="43.959919" lon="12.4171024"><ele>264.0</ele><time>2026-04-12T09:39:37.26Z</time></trkpt><trkpt lat="43.9598714" lon="12.417169"><ele>265.0</ele><time>2026-04-12T09:39:41.301Z</time></trkpt><trkpt lat="43.9598149" lon="12.4172321"><ele>266.0</ele><time>2026-04-12T09:39:45.306Z</time></trkpt><trkpt lat="43.9597543" lon="12.4172977"><ele>268.0</ele><time>2026-04-12T09:39:50.275Z</time></trkpt><trkpt lat="43.9597009" lon="12.4173611"><ele>270.0</ele><time>2026-04-12T09:39:55.291Z</time></trkpt><trkpt lat="43.9596489" lon="12.4174182"><ele>272.0</ele><time>2026-04-12T09:39:59.311Z</time></trkpt><trkpt lat="43.9596078" lon="12.4174862"><ele>274.0</ele><time>2026-04-12T09:40:03.253Z</time></trkpt><trkpt lat="43.9595678" lon="12.4175712"><ele>276.0</ele><time>2026-04-12T09:40:07.295Z</time></trkpt><trkpt lat="43.9595321" lon="12.4176584"><ele>278.0</ele><time>2026-04-12T09:40:11.292Z</time></trkpt><trkpt lat="43.9594995" lon="12.4177402"><ele>280.0</ele><time>2026-04-12T09:40:15.292Z</time></trkpt><trkpt lat="43.9594645" lon="12.41782"><ele>280.0</ele><time>2026-04-12T09:40:19.291Z</time></trkpt><trkpt lat="43.9594354" lon="12.4179098"><ele>280.0</ele><time>2026-04-12T09:40:23.308Z</time></trkpt><trkpt lat="43.9594076" lon="12.4180087"><ele>280.0</ele><time>2026-04-12T09:40:27.294Z</time></trkpt><trkpt lat="43.9593793" lon="12.4180901"><ele>280.0</ele><time>2026-04-12T09:40:30.256Z</time></trkpt><trkpt lat="43.9593312" lon="12.4181624"><ele>280.0</ele><time>2026-04-12T09:40:33.306Z</time></trkpt><trkpt lat="43.9592828" lon="12.418239"><ele>280.0</ele><time>2026-04-12T09:40:36.292Z</time></trkpt><trkpt lat="43.9592304" lon="12.418318"><ele>280.0</ele><time>2026-04-12T09:40:39.291Z</time></trkpt><trkpt lat="43.9591654" lon="12.4183835"><ele>281.85714285714283</ele><time>2026-04-12T09:40:42.305Z</time></trkpt><trkpt lat="43.9591056" lon="12.4184267"><ele>283.7142857142857</ele><time>2026-04-12T09:40:45.25Z</time></trkpt><trkpt lat="43.9590318" lon="12.4184536"><ele>285.57142857142856</ele><time>2026-04-12T09:40:49.302Z</time></trkpt><trkpt lat="43.958958" lon="12.4184723"><ele>287.42857142857144</ele><time>2026-04-12T09:40:53.324Z</time></trkpt><trkpt lat="43.9588801" lon="12.418484"><ele>289.2857142857143</ele><time>2026-04-12T09:40:57.297Z</time></trkpt><trkpt lat="43.9588037" lon="12.4185081"><ele>291.1428571428571</ele><time>2026-04-12T09:41:01.311Z</time></trkpt><trkpt lat="43.9587372" lon="12.4185374"><ele>293.0</ele><time>2026-04-12T09:41:05.312Z</time></trkpt><trkpt lat="43.9586676" lon="12.4185626"><ele>293.0</ele><time>2026-04-12T09:41:09.301Z</time></trkpt><trkpt lat="43.9586045" lon="12.4185906"><ele>293.0</ele><time>2026-04-12T09:41:12.303Z</time></trkpt><trkpt lat="43.9585373" lon="12.418622"><ele>293.0</ele><time>2026-04-12T09:41:15.303Z</time></trkpt><trkpt lat="43.9584544" lon="12.4186365"><ele>293.0</ele><time>2026-04-12T09:41:19.306Z</time></trkpt><trkpt lat="43.958375" lon="12.4186419"><ele>293.0</ele><time>2026-04-12T09:41:23.281Z</time></trkpt><trkpt lat="43.9583029" lon="12.4186627"><ele>293.0</ele><time>2026-04-12T09:41:27.297Z</time></trkpt><trkpt lat="43.9582328" lon="12.4187208"><ele>294.1666666666667</ele><time>2026-04-12T09:41:31.306Z</time></trkpt><trkpt lat="43.9581834" lon="12.4187857"><ele>295.33333333333337</ele><time>2026-04-12T09:41:34.31Z</time></trkpt><trkpt lat="43.9581405" lon="12.4188693"><ele>296.5</ele><time>2026-04-12T09:41:37.306Z</time></trkpt><trkpt lat="43.9581109" lon="12.418965"><ele>297.6666666666667</ele><time>2026-04-12T09:41:40.309Z</time></trkpt><trkpt lat="43.9580884" lon="12.419071"><ele>298.8333333333333</ele><time>2026-04-12T09:41:43.296Z</time></trkpt><trkpt lat="43.958063" lon="12.4191733"><ele>300.0</ele><time>2026-04-12T09:41:46.309Z</time></trkpt><trkpt lat="43.9580325" lon="12.4192709"><ele>300.0</ele><time>2026-04-12T09:41:49.308Z</time></trkpt><trkpt lat="43.9580067" lon="12.4193805"><ele>300.0</ele><time>2026-04-12T09:41:52.296Z</time></trkpt><trkpt lat="43.9579744" lon="12.4194777"><ele>300.0</ele><time>2026-04-12T09:41:55.308Z</time></trkpt><trkpt lat="43.9579375" lon="12.4195688"><ele>300.0</ele><time>2026-04-12T09:41:58.3Z</time></trkpt><trkpt lat="43.9579077" lon="12.4196536"><ele>300.0</ele><time>2026-04-12T09:42:01.276Z</time></trkpt><trkpt lat="43.9578633" lon="12.4197557"><ele>300.0</ele><time>2026-04-12T09:42:04.3Z</time></trkpt><trkpt lat="43.9578277" lon="12.4198457"><ele>300.0</ele><time>2026-04-12T09:42:07.25Z</time></trkpt><trkpt lat="43.9577875" lon="12.4199347"><ele>300.0</ele><time>2026-04-12T09:42:10.268Z</time></trkpt><trkpt lat="43.957754" lon="12.4200626"><ele>300.0</ele><time>2026-04-12T09:42:14.249Z</time></trkpt><trkpt lat="43.9577479" lon="12.4201745"><ele>300.0</ele><time>2026-04-12T09:42:17.236Z</time></trkpt><trkpt lat="43.9577354" lon="12.4202883"><ele>300.0</ele><time>2026-04-12T09:42:20.241Z</time></trkpt><trkpt lat="43.9577314" lon="12.4204076"><ele>300.0</ele><time>2026-04-12T09:42:23.238Z</time></trkpt><trkpt lat="43.9577347" lon="12.4205179"><ele>300.5</ele><time>2026-04-12T09:42:26.237Z</time></trkpt><trkpt lat="43.9577436" lon="12.4206246"><ele>301.0</ele><time>2026-04-12T09:42:29.262Z</time></trkpt><trkpt lat="43.9577453" lon="12.4207223"><ele>301.5</ele><time>2026-04-12T09:42:32.246Z</time></trkpt><trkpt lat="43.9577491" lon="12.4208296"><ele>302.0</ele><time>2026-04-12T09:42:35.261Z</time></trkpt><trkpt lat="43.9577437" lon="12.4209406"><ele>302.5</ele><time>2026-04-12T09:42:38.287Z</time></trkpt><trkpt lat="43.9577388" lon="12.4210383"><ele>303.0</ele><time>2026-04-12T09:42:41.313Z</time></trkpt><trkpt lat="43.9577225" lon="12.4211427"><ele>303.0</ele><time>2026-04-12T09:42:44.28Z</time></trkpt><trkpt lat="43.9577086" lon="12.4212554"><ele>303.0</ele><time>2026-04-12T09:42:47.263Z</time></trkpt><trkpt lat="43.9577005" lon="12.4213759"><ele>303.0</ele><time>2026-04-12T09:42:50.289Z</time></trkpt><trkpt lat="43.9576864" lon="12.4214882"><ele>303.0</ele><time>2026-04-12T09:42:53.284Z</time></trkpt><trkpt lat="43.9576824" lon="12.4215938"><ele>303.0</ele><time>2026-04-12T09:42:56.256Z</time></trkpt><trkpt lat="43.9576734" lon="12.4216979"><ele>303.0</ele><time>2026-04-12T09:42:59.269Z</time></trkpt><trkpt lat="43.9576568" lon="12.4218028"><ele>303.0</ele><time>2026-04-12T09:43:02.285Z</time></trkpt><trkpt lat="43.9576499" lon="12.4219243"><ele>303.0</ele><time>2026-04-12T09:43:05.287Z</time></trkpt><trkpt lat="43.9576467" lon="12.4220479"><ele>303.0</ele><time>2026-04-12T09:43:08.308Z</time></trkpt><trkpt lat="43.9576385" lon="12.4221715"><ele>303.0</ele><time>2026-04-12T09:43:11.293Z</time></trkpt><trkpt lat="43.9576197" lon="12.4223035"><ele>303.0</ele><time>2026-04-12T09:43:14.296Z</time></trkpt><trkpt lat="43.9576108" lon="12.4224117"><ele>303.0</ele><time>2026-04-12T09:43:16.268Z</time></trkpt><trkpt lat="43.9575994" lon="12.4225444"><ele>303.0</ele><time>2026-04-12T09:43:18.295Z</time></trkpt><trkpt lat="43.9575884" lon="12.4226963"><ele>303.0</ele><time>2026-04-12T09:43:20.311Z</time></trkpt><trkpt lat="43.9575808" lon="12.4228581"><ele>303.0</ele><time>2026-04-12T09:43:22.293Z</time></trkpt><trkpt lat="43.9575747" lon="12.4229468"><ele>303.0</ele><time>2026-04-12T09:43:23.307Z</time></trkpt><trkpt lat="43.9575686" lon="12.4230402"><ele>303.0</ele><time>2026-04-12T09:43:24.284Z</time></trkpt><trkpt lat="43.957557" lon="12.4231383"><ele>303.0</ele><time>2026-04-12T09:43:25.29Z</time></trkpt><trkpt lat="43.9575412" lon="12.4232377"><ele>303.57142857142856</ele><time>2026-04-12T09:43:26.293Z</time></trkpt><trkpt lat="43.9575229" lon="12.4233333"><ele>304.1428571428571</ele><time>2026-04-12T09:43:27.287Z</time></trkpt><trkpt lat="43.9575023" lon="12.4234265"><ele>304.71428571428567</ele><time>2026-04-12T09:43:28.259Z</time></trkpt><trkpt lat="43.9574759" lon="12.4235169"><ele>305.2857142857143</ele><time>2026-04-12T09:43:29.259Z</time></trkpt><trkpt lat="43.9574493" lon="12.4236161"><ele>305.85714285714283</ele><time>2026-04-12T09:43:30.29Z</time></trkpt><trkpt lat="43.9574276" lon="12.4237124"><ele>306.4285714285714</ele><time>2026-04-12T09:43:31.297Z</time></trkpt><trkpt lat="43.957404" lon="12.4238028"><ele>307.0</ele><time>2026-04-12T09:43:32.289Z</time></trkpt><trkpt lat="43.9573445" lon="12.4239514"><ele>307.0</ele><time>2026-04-12T09:43:34.267Z</time></trkpt><trkpt lat="43.9573088" lon="12.4240995"><ele>307.0</ele><time>2026-04-12T09:43:36.256Z</time></trkpt><trkpt lat="43.957271" lon="12.4242137"><ele>307.0</ele><time>2026-04-12T09:43:38.252Z</time></trkpt><trkpt lat="43.9572546" lon="12.4243441"><ele>307.0</ele><time>2026-04-12T09:43:40.259Z</time></trkpt><trkpt lat="43.9572265" lon="12.4244553"><ele>307.0</ele><time>2026-04-12T09:43:42.271Z</time></trkpt><trkpt lat="43.9571952" lon="12.4245776"><ele>306.4285714285714</ele><time>2026-04-12T09:43:44.299Z</time></trkpt><trkpt lat="43.9571805" lon="12.4246878"><ele>305.85714285714283</ele><time>2026-04-12T09:43:46.283Z</time></trkpt><trkpt lat="43.9571606" lon="12.4247773"><ele>305.2857142857143</ele><time>2026-04-12T09:43:48.288Z</time></trkpt><trkpt lat="43.9571506" lon="12.4248803"><ele>304.71428571428567</ele><time>2026-04-12T09:43:50.264Z</time></trkpt><trkpt lat="43.9571364" lon="12.4249715"><ele>304.1428571428571</ele><time>2026-04-12T09:43:52.29Z</time></trkpt><trkpt lat="43.9571213" lon="12.4250717"><ele>303.57142857142856</ele><time>2026-04-12T09:43:54.291Z</time></trkpt><trkpt lat="43.9571059" lon="12.4251688"><ele>303.0</ele><time>2026-04-12T09:43:56.282Z</time></trkpt><trkpt lat="43.9570938" lon="12.4252829"><ele>303.0</ele><time>2026-04-12T09:43:58.272Z</time></trkpt><trkpt lat="43.9570894" lon="12.4254068"><ele>303.0</ele><time>2026-04-12T09:44:00.269Z</time></trkpt><trkpt lat="43.9570745" lon="12.4255391"><ele>303.0</ele><time>2026-04-12T09:44:02.301Z</time></trkpt><trkpt lat="43.9570529" lon="12.4256648"><ele>303.0</ele><time>2026-04-12T09:44:04.275Z</time></trkpt><trkpt lat="43.9570395" lon="12.4258057"><ele>303.0</ele><time>2026-04-12T09:44:06.285Z</time></trkpt><trkpt lat="43.9570327" lon="12.4259352"><ele>303.0</ele><time>2026-04-12T09:44:08.302Z</time></trkpt><trkpt lat="43.957034" lon="12.4260701"><ele>303.0</ele><time>2026-04-12T09:44:10.286Z</time></trkpt><trkpt lat="43.9570501" lon="12.4261948"><ele>303.0</ele><time>2026-04-12T09:44:12.295Z</time></trkpt><trkpt lat="43.9570853" lon="12.4263144"><ele>303.0</ele><time>2026-04-12T09:44:14.311Z</time></trkpt><trkpt lat="43.957138" lon="12.4264306"><ele>303.0</ele><time>2026-04-12T09:44:16.305Z</time></trkpt><trkpt lat="43.9571919" lon="12.4265369"><ele>304.1666666666667</ele><time>2026-04-12T09:44:18.318Z</time></trkpt><trkpt lat="43.9572379" lon="12.4266232"><ele>305.3333333333333</ele><time>2026-04-12T09:44:20.309Z</time></trkpt><trkpt lat="43.9572717" lon="12.4267048"><ele>306.5</ele><time>2026-04-12T09:44:22.285Z</time></trkpt><trkpt lat="43.9573115" lon="12.4267795"><ele>307.66666666666663</ele><time>2026-04-12T09:44:24.313Z</time></trkpt><trkpt lat="43.9573661" lon="12.4268806"><ele>308.8333333333333</ele><time>2026-04-12T09:44:27.285Z</time></trkpt><trkpt lat="43.9574183" lon="12.426963"><ele>310.0</ele><time>2026-04-12T09:44:30.288Z</time></trkpt><trkpt lat="43.9574782" lon="12.4270357"><ele>311.0</ele><time>2026-04-12T09:44:33.297Z</time></trkpt><trkpt lat="43.9575425" lon="12.4270834"><ele>312.0</ele><time>2026-04-12T09:44:36.305Z</time></trkpt><trkpt lat="43.9576121" lon="12.4271051"><ele>313.0</ele><time>2026-04-12T09:44:39.289Z</time></trkpt><trkpt lat="43.9576759" lon="12.4271008"><ele>314.0</ele><time>2026-04-12T09:44:42.287Z</time></trkpt><trkpt lat="43.9577486" lon="12.4271009"><ele>315.0</ele><time>2026-04-12T09:44:45.3Z</time></trkpt><trkpt lat="43.9578244" lon="12.4270726"><ele>316.0</ele><time>2026-04-12T09:44:48.304Z</time></trkpt><trkpt lat="43.9578962" lon="12.427032"><ele>317.0</ele><time>2026-04-12T09:44:51.314Z</time></trkpt><trkpt lat="43.957964" lon="12.4269889"><ele>317.0</ele><time>2026-04-12T09:44:54.282Z</time></trkpt><trkpt lat="43.9580353" lon="12.4269485"><ele>317.0</ele><time>2026-04-12T09:44:57.31Z</time></trkpt><trkpt lat="43.9581061" lon="12.4268941"><ele>317.0</ele><time>2026-04-12T09:45:00.293Z</time></trkpt><trkpt lat="43.958176" lon="12.4268557"><ele>317.0</ele><time>2026-04-12T09:45:03.233Z</time></trkpt><trkpt lat="43.9582509" lon="12.4268114"><ele>317.0</ele><time>2026-04-12T09:45:06.304Z</time></trkpt><trkpt lat="43.9583238" lon="12.4267645"><ele>317.0</ele><time>2026-04-12T09:45:09.289Z</time></trkpt><trkpt lat="43.9584009" lon="12.4267677"><ele>317.0</ele><time>2026-04-12T09:45:12.304Z</time></trkpt><trkpt lat="43.9584599" lon="12.4268358"><ele>317.0</ele><time>2026-04-12T09:45:15.307Z</time></trkpt><trkpt lat="43.9584528" lon="12.426946"><ele>317.0</ele><time>2026-04-12T09:45:18.251Z</time></trkpt><trkpt lat="43.9584095" lon="12.4270313"><ele>317.0</ele><time>2026-04-12T09:45:21.274Z</time></trkpt><trkpt lat="43.9583433" lon="12.4270753"><ele>317.0</ele><time>2026-04-12T09:45:24.265Z</time></trkpt><trkpt lat="43.9582701" lon="12.427134"><ele>317.0</ele><time>2026-04-12T09:45:27.303Z</time></trkpt><trkpt lat="43.9582081" lon="12.4271997"><ele>318.6666666666667</ele><time>2026-04-12T09:45:30.277Z</time></trkpt><trkpt lat="43.9581693" lon="12.4272733"><ele>320.33333333333337</ele><time>2026-04-12T09:45:33.295Z</time></trkpt><trkpt lat="43.9581922" lon="12.4273924"><ele>322.0</ele><time>2026-04-12T09:45:36.288Z</time></trkpt><trkpt lat="43.9582422" lon="12.4274653"><ele>323.6666666666667</ele><time>2026-04-12T09:45:39.287Z</time></trkpt><trkpt lat="43.9583067" lon="12.4274841"><ele>325.3333333333333</ele><time>2026-04-12T09:45:42.258Z</time></trkpt><trkpt lat="43.9583822" lon="12.4274733"><ele>327.0</ele><time>2026-04-12T09:45:45.279Z</time></trkpt><trkpt lat="43.9584664" lon="12.4274502"><ele>327.3333333333333</ele><time>2026-04-12T09:45:48.314Z</time></trkpt><trkpt lat="43.9585539" lon="12.427412"><ele>327.6666666666667</ele><time>2026-04-12T09:45:51.307Z</time></trkpt><trkpt lat="43.9586209" lon="12.4273785"><ele>328.0</ele><time>2026-04-12T09:45:53.299Z</time></trkpt><trkpt lat="43.9586817" lon="12.4273455"><ele>328.33333333333337</ele><time>2026-04-12T09:45:55.301Z</time></trkpt><trkpt lat="43.95875" lon="12.4273359"><ele>328.6666666666667</ele><time>2026-04-12T09:45:57.287Z</time></trkpt><trkpt lat="43.9588454" lon="12.4273311"><ele>329.0</ele><time>2026-04-12T09:46:00.269Z</time></trkpt><trkpt lat="43.9589131" lon="12.4273401"><ele>329.0</ele><time>2026-04-12T09:46:02.286Z</time></trkpt><trkpt lat="43.9590005" lon="12.4273545"><ele>329.0</ele><time>2026-04-12T09:46:05.269Z</time></trkpt><trkpt lat="43.9590643" lon="12.4273676"><ele>329.0</ele><time>2026-04-12T09:46:07.3Z</time></trkpt><trkpt lat="43.9591274" lon="12.427401"><ele>329.0</ele><time>2026-04-12T09:46:09.295Z</time></trkpt><trkpt lat="43.9591944" lon="12.427458"><ele>329.0</ele><time>2026-04-12T09:46:12.294Z</time></trkpt><trkpt lat="43.9592657" lon="12.4275221"><ele>329.0</ele><time>2026-04-12T09:46:15.293Z</time></trkpt><trkpt lat="43.9593262" lon="12.4276065"><ele>328.83333333333337</ele><time>2026-04-12T09:46:18.307Z</time></trkpt><trkpt lat="43.9593683" lon="12.4277037"><ele>328.6666666666667</ele><time>2026-04-12T09:46:21.315Z</time></trkpt><trkpt lat="43.9594051" lon="12.4277834"><ele>328.5</ele><time>2026-04-12T09:46:23.294Z</time></trkpt><trkpt lat="43.9594536" lon="12.4278945"><ele>328.3333333333333</ele><time>2026-04-12T09:46:26.295Z</time></trkpt><trkpt lat="43.9594933" lon="12.4280104"><ele>328.16666666666663</ele><time>2026-04-12T09:46:29.29Z</time></trkpt><trkpt lat="43.95953" lon="12.4281258"><ele>328.0</ele><time>2026-04-12T09:46:32.292Z</time></trkpt><trkpt lat="43.9595605" lon="12.4282423"><ele>327.99999999999994</ele><time>2026-04-12T09:46:35.288Z</time></trkpt><trkpt lat="43.9595839" lon="12.4283581"><ele>328.0</ele><time>2026-04-12T09:46:38.306Z</time></trkpt><trkpt lat="43.9596039" lon="12.4284506"><ele>328.0</ele><time>2026-04-12T09:46:40.266Z</time></trkpt><trkpt lat="43.9596299" lon="12.4285341"><ele>328.0</ele><time>2026-04-12T09:46:42.308Z</time></trkpt><trkpt lat="43.9596478" lon="12.4286212"><ele>328.0</ele><time>2026-04-12T09:46:44.303Z</time></trkpt><trkpt lat="43.9596654" lon="12.4287059"><ele>327.99999999999994</ele><time>2026-04-12T09:46:46.317Z</time></trkpt><trkpt lat="43.9596896" lon="12.4288215"><ele>328.0</ele><time>2026-04-12T09:46:49.257Z</time></trkpt><trkpt lat="43.9597019" lon="12.4289106"><ele>329.2857142857143</ele><time>2026-04-12T09:46:51.287Z</time></trkpt><trkpt lat="43.959722" lon="12.4290251"><ele>330.57142857142856</ele><time>2026-04-12T09:46:54.3Z</time></trkpt><trkpt lat="43.9597339" lon="12.4291174"><ele>331.8571428571429</ele><time>2026-04-12T09:46:57.29Z</time></trkpt><trkpt lat="43.9597176" lon="12.4292223"><ele>333.1428571428571</ele><time>2026-04-12T09:47:01.304Z</time></trkpt><trkpt lat="43.9596691" lon="12.4292901"><ele>334.42857142857144</ele><time>2026-04-12T09:47:04.272Z</time></trkpt><trkpt lat="43.959606" lon="12.4293066"><ele>335.7142857142857</ele><time>2026-04-12T09:47:07.3Z</time></trkpt><trkpt lat="43.9595433" lon="12.4292853"><ele>337.0</ele><time>2026-04-12T09:47:10.288Z</time></trkpt><trkpt lat="43.9594897" lon="12.4292057"><ele>337.00000000000006</ele><time>2026-04-12T09:47:13.311Z</time></trkpt><trkpt lat="43.959463" lon="12.4291088"><ele>337.0</ele><time>2026-04-12T09:47:16.285Z</time></trkpt><trkpt lat="43.9594362" lon="12.4290109"><ele>337.0</ele><time>2026-04-12T09:47:19.302Z</time></trkpt><trkpt lat="43.9594026" lon="12.4289046"><ele>337.0</ele><time>2026-04-12T09:47:22.287Z</time></trkpt><trkpt lat="43.9593724" lon="12.428823"><ele>337.0</ele><time>2026-04-12T09:47:24.267Z</time></trkpt><trkpt lat="43.9593464" lon="12.4287395"><ele>337.00000000000006</ele><time>2026-04-12T09:47:26.28Z</time></trkpt><trkpt lat="43.9593205" lon="12.4286584"><ele>337.0</ele><time>2026-04-12T09:47:28.269Z</time></trkpt><trkpt lat="43.959273" lon="12.4285512"><ele>337.66666666666663</ele><time>2026-04-12T09:47:31.297Z</time></trkpt><trkpt lat="43.959236" lon="12.4284792"><ele>338.3333333333333</ele><time>2026-04-12T09:47:33.278Z</time></trkpt><trkpt lat="43.9591912" lon="12.4284111"><ele>339.0</ele><time>2026-04-12T09:47:35.296Z</time></trkpt><trkpt lat="43.9591244" lon="12.4283378"><ele>339.6666666666667</ele><time>2026-04-12T09:47:38.293Z</time></trkpt><trkpt lat="43.9590473" lon="12.4282955"><ele>340.33333333333337</ele><time>2026-04-12T09:47:41.305Z</time></trkpt><trkpt lat="43.9589692" lon="12.4282636"><ele>341.0</ele><time>2026-04-12T09:47:44.299Z</time></trkpt><trkpt lat="43.9588879" lon="12.4282927"><ele>341.0</ele><time>2026-04-12T09:47:47.307Z</time></trkpt><trkpt lat="43.9588103" lon="12.4283606"><ele>341.0</ele><time>2026-04-12T09:47:50.282Z</time></trkpt><trkpt lat="43.9587584" lon="12.4284197"><ele>341.0</ele><time>2026-04-12T09:47:52.271Z</time></trkpt><trkpt lat="43.9587213" lon="12.4285119"><ele>341.0</ele><time>2026-04-12T09:47:55.292Z</time></trkpt><trkpt lat="43.958715" lon="12.4286227"><ele>341.0</ele><time>2026-04-12T09:47:58.241Z</time></trkpt><trkpt lat="43.9587504" lon="12.4287311"><ele>341.0</ele><time>2026-04-12T09:48:01.307Z</time></trkpt><trkpt lat="43.9588005" lon="12.428822"><ele>341.6666666666667</ele><time>2026-04-12T09:48:04.289Z</time></trkpt><trkpt lat="43.9588578" lon="12.4289066"><ele>342.33333333333337</ele><time>2026-04-12T09:48:07.309Z</time></trkpt><trkpt lat="43.9589145" lon="12.4289933"><ele>343.0</ele><time>2026-04-12T09:48:10.3Z</time></trkpt><trkpt lat="43.958964" lon="12.4290888"><ele>343.6666666666667</ele><time>2026-04-12T09:48:13.237Z</time></trkpt><trkpt lat="43.9589996" lon="12.429192"><ele>344.3333333333333</ele><time>2026-04-12T09:48:16.311Z</time></trkpt><trkpt lat="43.9590276" lon="12.4293014"><ele>345.0</ele><time>2026-04-12T09:48:19.294Z</time></trkpt><trkpt lat="43.9590402" lon="12.42942"><ele>345.0</ele><time>2026-04-12T09:48:22.273Z</time></trkpt><trkpt lat="43.9590401" lon="12.4295291"><ele>345.0</ele><time>2026-04-12T09:48:25.282Z</time></trkpt><trkpt lat="43.9590436" lon="12.4296377"><ele>345.0</ele><time>2026-04-12T09:48:28.294Z</time></trkpt><trkpt lat="43.9590294" lon="12.4297509"><ele>345.0</ele><time>2026-04-12T09:48:32.306Z</time></trkpt><trkpt lat="43.9590094" lon="12.4298375"><ele>345.0</ele><time>2026-04-12T09:48:35.288Z</time></trkpt><trkpt lat="43.9589845" lon="12.4299312"><ele>345.0</ele><time>2026-04-12T09:48:39.295Z</time></trkpt><trkpt lat="43.958984" lon="12.4300294"><ele>345.0</ele><time>2026-04-12T09:48:43.281Z</time></trkpt><trkpt lat="43.9590055" lon="12.430121"><ele>346.42857142857144</ele><time>2026-04-12T09:48:49.238Z</time></trkpt><trkpt lat="43.9590333" lon="12.4302171"><ele>347.85714285714283</ele><time>2026-04-12T09:48:55.293Z</time></trkpt><trkpt lat="43.9590732" lon="12.4302889"><ele>349.2857142857143</ele><time>2026-04-12T09:49:00.325Z</time></trkpt><trkpt lat="43.9591136" lon="12.4303632"><ele>350.7142857142857</ele><time>2026-04-12T09:49:04.291Z</time></trkpt><trkpt lat="43.9591511" lon="12.4304367"><ele>352.14285714285717</ele><time>2026-04-12T09:49:08.3Z</time></trkpt><trkpt lat="43.9591979" lon="12.4305142"><ele>353.57142857142856</ele><time>2026-04-12T09:49:12.294Z</time></trkpt><trkpt lat="43.9592366" lon="12.4305885"><ele>355.0</ele><time>2026-04-12T09:49:15.293Z</time></trkpt><trkpt lat="43.9592849" lon="12.4306699"><ele>355.42857142857144</ele><time>2026-04-12T09:49:18.306Z</time></trkpt><trkpt lat="43.9593423" lon="12.4307612"><ele>355.8571428571429</ele><time>2026-04-12T09:49:21.298Z</time></trkpt><trkpt lat="43.9593885" lon="12.4308472"><ele>356.28571428571433</ele><time>2026-04-12T09:49:24.308Z</time></trkpt><trkpt lat="43.9594297" lon="12.4309223"><ele>356.7142857142857</ele><time>2026-04-12T09:49:27.306Z</time></trkpt><trkpt lat="43.9594675" lon="12.4310006"><ele>357.14285714285717</ele><time>2026-04-12T09:49:33.296Z</time></trkpt><trkpt lat="43.9594237" lon="12.4310837"><ele>357.5714285714286</ele><time>2026-04-12T09:49:39.301Z</time></trkpt><trkpt lat="43.9593578" lon="12.4311143"><ele>358.0</ele><time>2026-04-12T09:49:43.295Z</time></trkpt><trkpt lat="43.9592951" lon="12.4311568"><ele>358.00000000000006</ele><time>2026-04-12T09:49:47.287Z</time></trkpt><trkpt lat="43.9592316" lon="12.4311937"><ele>358.0</ele><time>2026-04-12T09:49:51.285Z</time></trkpt><trkpt lat="43.9591653" lon="12.4312347"><ele>358.0</ele><time>2026-04-12T09:49:55.297Z</time></trkpt><trkpt lat="43.9591053" lon="12.4312649"><ele>358.0</ele><time>2026-04-12T09:50:00.291Z</time></trkpt><trkpt lat="43.9590422" lon="12.4312967"><ele>358.0</ele><time>2026-04-12T09:50:05.232Z</time></trkpt><trkpt lat="43.9589765" lon="12.4313288"><ele>358.00000000000006</ele><time>2026-04-12T09:50:10.281Z</time></trkpt><trkpt lat="43.9589145" lon="12.4313601"><ele>358.0</ele><time>2026-04-12T09:50:15.288Z</time></trkpt><trkpt lat="43.9588476" lon="12.4313775"><ele>360.3333333333333</ele><time>2026-04-12T09:50:20.267Z</time></trkpt><trkpt lat="43.9587775" lon="12.4314012"><ele>362.66666666666663</ele><time>2026-04-12T09:50:25.29Z</time></trkpt><trkpt lat="43.9587227" lon="12.4314589"><ele>365.0</ele><time>2026-04-12T09:50:29.303Z</time></trkpt><trkpt lat="43.9586766" lon="12.4315222"><ele>367.3333333333333</ele><time>2026-04-12T09:50:32.302Z</time></trkpt><trkpt lat="43.9586235" lon="12.4316084"><ele>369.6666666666667</ele><time>2026-04-12T09:50:36.298Z</time></trkpt><trkpt lat="43.9585684" lon="12.4316917"><ele>372.0</ele><time>2026-04-12T09:50:40.311Z</time></trkpt><trkpt lat="43.9585103" lon="12.4317729"><ele>372.0</ele><time>2026-04-12T09:50:44.304Z</time></trkpt><trkpt lat="43.9584563" lon="12.4318556"><ele>372.0</ele><time>2026-04-12T09:50:48.307Z</time></trkpt><trkpt lat="43.9584017" lon="12.431939"><ele>372.0</ele><time>2026-04-12T09:50:52.304Z</time></trkpt><trkpt lat="43.9583577" lon="12.4320233"><ele>372.0</ele><time>2026-04-12T09:50:55.3Z</time></trkpt><trkpt lat="43.9583058" lon="12.4320964"><ele>372.0</ele><time>2026-04-12T09:50:58.305Z</time></trkpt><trkpt lat="43.9582735" lon="12.4321812"><ele>372.0</ele><time>2026-04-12T09:51:01.272Z</time></trkpt><trkpt lat="43.9582671" lon="12.4322802"><ele>373.14285714285717</ele><time>2026-04-12T09:51:05.287Z</time></trkpt><trkpt lat="43.9582595" lon="12.4323835"><ele>374.2857142857143</ele><time>2026-04-12T09:51:09.301Z</time></trkpt><trkpt lat="43.9582621" lon="12.4324799"><ele>375.42857142857144</ele><time>2026-04-12T09:51:13.291Z</time></trkpt><trkpt lat="43.958267" lon="12.4325716"><ele>376.57142857142856</ele><time>2026-04-12T09:51:17.287Z</time></trkpt><trkpt lat="43.9582723" lon="12.4326623"><ele>377.7142857142857</ele><time>2026-04-12T09:51:21.276Z</time></trkpt><trkpt lat="43.9582842" lon="12.4327577"><ele>378.8571428571429</ele><time>2026-04-12T09:51:25.308Z</time></trkpt><trkpt lat="43.9582998" lon="12.4328517"><ele>380.0</ele><time>2026-04-12T09:51:29.295Z</time></trkpt><trkpt lat="43.9583192" lon="12.4329379"><ele>380.8571428571429</ele><time>2026-04-12T09:51:33.282Z</time></trkpt><trkpt lat="43.9583409" lon="12.4330325"><ele>381.7142857142857</ele><time>2026-04-12T09:51:39.267Z</time></trkpt><trkpt lat="43.9583573" lon="12.4331227"><ele>382.57142857142856</ele><time>2026-04-12T09:51:45.256Z</time></trkpt><trkpt lat="43.9583835" lon="12.4332133"><ele>383.42857142857144</ele><time>2026-04-12T09:51:50.24Z</time></trkpt><trkpt lat="43.958413" lon="12.4333035"><ele>384.2857142857143</ele><time>2026-04-12T09:51:55.286Z</time></trkpt><trkpt lat="43.9584459" lon="12.4333839"><ele>385.14285714285717</ele><time>2026-04-12T09:52:00.279Z</time></trkpt><trkpt lat="43.9584784" lon="12.433469"><ele>386.0</ele><time>2026-04-12T09:52:05.247Z</time></trkpt><trkpt lat="43.9585071" lon="12.4335611"><ele>386.00000000000006</ele><time>2026-04-12T09:52:10.305Z</time></trkpt><trkpt lat="43.9585357" lon="12.4336541"><ele>386.0</ele><time>2026-04-12T09:52:15.31Z</time></trkpt><trkpt lat="43.9585663" lon="12.4337325"><ele>386.0</ele><time>2026-04-12T09:52:19.309Z</time></trkpt><trkpt lat="43.9585985" lon="12.4338333"><ele>386.0</ele><time>2026-04-12T09:52:24.303Z</time></trkpt><trkpt lat="43.9586332" lon="12.4339267"><ele>386.0</ele><time>2026-04-12T09:52:29.299Z</time></trkpt><trkpt lat="43.9586396" lon="12.4340172"><ele>386.00000000000006</ele><time>2026-04-12T09:52:34.309Z</time></trkpt><trkpt lat="43.9586369" lon="12.4341192"><ele>386.0</ele><time>2026-04-12T09:52:39.264Z</time></trkpt><trkpt lat="43.958605" lon="12.4342197"><ele>386.14285714285717</ele><time>2026-04-12T09:52:44.289Z</time></trkpt><trkpt lat="43.9585772" lon="12.4342982"><ele>386.2857142857143</ele><time>2026-04-12T09:52:48.306Z</time></trkpt><trkpt lat="43.9585391" lon="12.4343705"><ele>386.42857142857144</ele><time>2026-04-12T09:52:53.295Z</time></trkpt><trkpt lat="43.9584939" lon="12.4344491"><ele>386.57142857142856</ele><time>2026-04-12T09:52:58.266Z</time></trkpt><trkpt lat="43.9584435" lon="12.4345053"><ele>386.7142857142857</ele><time>2026-04-12T09:53:02.312Z</time></trkpt><trkpt lat="43.9583857" lon="12.434566"><ele>386.8571428571429</ele><time>2026-04-12T09:53:06.288Z</time></trkpt><trkpt lat="43.9583221" lon="12.4346272"><ele>387.0</ele><time>2026-04-12T09:53:11.287Z</time></trkpt><trkpt lat="43.9582697" lon="12.4346927"><ele>388.8571428571429</ele><time>2026-04-12T09:53:15.282Z</time></trkpt><trkpt lat="43.9582204" lon="12.4347624"><ele>390.7142857142857</ele><time>2026-04-12T09:53:19.297Z</time></trkpt><trkpt lat="43.9581524" lon="12.4348173"><ele>392.57142857142856</ele><time>2026-04-12T09:53:23.306Z</time></trkpt><trkpt lat="43.9581071" lon="12.4348806"><ele>394.42857142857144</ele><time>2026-04-12T09:53:26.278Z</time></trkpt><trkpt lat="43.9580577" lon="12.434944"><ele>396.2857142857143</ele><time>2026-04-12T09:53:29.296Z</time></trkpt><trkpt lat="43.9581206" lon="12.4348646"><ele>398.14285714285717</ele><time>2026-04-12T09:53:38.297Z</time></trkpt><trkpt lat="43.9581817" lon="12.4347854"><ele>400.0</ele><time>2026-04-12T09:53:41.312Z</time></trkpt><trkpt lat="43.9582389" lon="12.4347222"><ele>400.00000000000006</ele><time>2026-04-12T09:53:43.305Z</time></trkpt><trkpt lat="43.9583094" lon="12.4346502"><ele>400.0</ele><time>2026-04-12T09:53:45.277Z</time></trkpt><trkpt lat="43.958392" lon="12.43457"><ele>400.0</ele><time>2026-04-12T09:53:47.244Z</time></trkpt><trkpt lat="43.9584441" lon="12.434518"><ele>400.0</ele><time>2026-04-12T09:53:48.291Z</time></trkpt><trkpt lat="43.9584968" lon="12.4344513"><ele>400.00000000000006</ele><time>2026-04-12T09:53:49.295Z</time></trkpt><trkpt lat="43.9585416" lon="12.4343699"><ele>400.0</ele><time>2026-04-12T09:53:50.271Z</time></trkpt><trkpt lat="43.9585833" lon="12.4342875"><ele>397.83333333333337</ele><time>2026-04-12T09:53:51.287Z</time></trkpt><trkpt lat="43.9586224" lon="12.4341961"><ele>395.6666666666667</ele><time>2026-04-12T09:53:52.294Z</time></trkpt><trkpt lat="43.9586471" lon="12.4340918"><ele>393.5</ele><time>2026-04-12T09:53:53.237Z</time></trkpt><trkpt lat="43.9586472" lon="12.4339701"><ele>391.33333333333337</ele><time>2026-04-12T09:53:54.291Z</time></trkpt><trkpt lat="43.958632" lon="12.4338446"><ele>389.1666666666667</ele><time>2026-04-12T09:53:55.301Z</time></trkpt><trkpt lat="43.9586021" lon="12.4337199"><ele>387.0</ele><time>2026-04-12T09:53:56.302Z</time></trkpt><trkpt lat="43.9585539" lon="12.4336016"><ele>386.75</ele><time>2026-04-12T09:53:57.305Z</time></trkpt><trkpt lat="43.9585075" lon="12.4334662"><ele>386.5</ele><time>2026-04-12T09:53:58.279Z</time></trkpt><trkpt lat="43.9584568" lon="12.4333253"><ele>386.25</ele><time>2026-04-12T09:53:59.305Z</time></trkpt><trkpt lat="43.9584064" lon="12.433182"><ele>386.0</ele><time>2026-04-12T09:54:00.309Z</time></trkpt><trkpt lat="43.9583556" lon="12.4330302"><ele>384.5</ele><time>2026-04-12T09:54:01.297Z</time></trkpt><trkpt lat="43.9583083" lon="12.4328678"><ele>383.0</ele><time>2026-04-12T09:54:02.317Z</time></trkpt><trkpt lat="43.9582754" lon="12.4327015"><ele>381.5</ele><time>2026-04-12T09:54:03.285Z</time></trkpt><trkpt lat="43.9582609" lon="12.4325359"><ele>380.0</ele><time>2026-04-12T09:54:04.298Z</time></trkpt><trkpt lat="43.9582602" lon="12.432381"><ele>380.0</ele><time>2026-04-12T09:54:05.294Z</time></trkpt><trkpt lat="43.9582722" lon="12.4322475"><ele>380.0</ele><time>2026-04-12T09:54:06.303Z</time></trkpt><trkpt lat="43.9582886" lon="12.4321281"><ele>380.0</ele><time>2026-04-12T09:54:07.3Z</time></trkpt><trkpt lat="43.9583265" lon="12.4320309"><ele>380.0</ele><time>2026-04-12T09:54:08.288Z</time></trkpt><trkpt lat="43.958385" lon="12.4319483"><ele>380.0</ele><time>2026-04-12T09:54:09.293Z</time></trkpt><trkpt lat="43.9584539" lon="12.4318596"><ele>380.0</ele><time>2026-04-12T09:54:10.304Z</time></trkpt><trkpt lat="43.9585118" lon="12.4317621"><ele>378.4</ele><time>2026-04-12T09:54:11.307Z</time></trkpt><trkpt lat="43.9585681" lon="12.4316609"><ele>376.8</ele><time>2026-04-12T09:54:12.303Z</time></trkpt><trkpt lat="43.9586319" lon="12.4315582"><ele>375.20000000000005</ele><time>2026-04-12T09:54:13.304Z</time></trkpt><trkpt lat="43.9587084" lon="12.4314754"><ele>373.6</ele><time>2026-04-12T09:54:14.303Z</time></trkpt><trkpt lat="43.9587964" lon="12.4314171"><ele>372.0</ele><time>2026-04-12T09:54:15.289Z</time></trkpt><trkpt lat="43.9588916" lon="12.4313703"><ele>372.0</ele><time>2026-04-12T09:54:16.293Z</time></trkpt><trkpt lat="43.958989" lon="12.4313186"><ele>372.0</ele><time>2026-04-12T09:54:17.273Z</time></trkpt><trkpt lat="43.9590946" lon="12.4312697"><ele>372.0</ele><time>2026-04-12T09:54:18.316Z</time></trkpt><trkpt lat="43.9592008" lon="12.4312137"><ele>372.0</ele><time>2026-04-12T09:54:19.292Z</time></trkpt><trkpt lat="43.9593105" lon="12.431158"><ele>372.0</ele><time>2026-04-12T09:54:20.292Z</time></trkpt><trkpt lat="43.9594008" lon="12.4311118"><ele>369.6666666666667</ele><time>2026-04-12T09:54:21.308Z</time></trkpt><trkpt lat="43.9594632" lon="12.4310774"><ele>367.3333333333333</ele><time>2026-04-12T09:54:22.299Z</time></trkpt><trkpt lat="43.9595036" lon="12.4309696"><ele>365.0</ele><time>2026-04-12T09:54:24.305Z</time></trkpt><trkpt lat="43.9594839" lon="12.4308662"><ele>362.66666666666663</ele><time>2026-04-12T09:54:25.298Z</time></trkpt><trkpt lat="43.9594386" lon="12.4307819"><ele>360.3333333333333</ele><time>2026-04-12T09:54:26.314Z</time></trkpt><trkpt lat="43.9593847" lon="12.4306977"><ele>358.0</ele><time>2026-04-12T09:54:27.305Z</time></trkpt><trkpt lat="43.959329" lon="12.4306111"><ele>358.0</ele><time>2026-04-12T09:54:28.304Z</time></trkpt><trkpt lat="43.9592775" lon="12.4305193"><ele>358.0</ele><time>2026-04-12T09:54:29.304Z</time></trkpt><trkpt lat="43.9592259" lon="12.4304298"><ele>358.0</ele><time>2026-04-12T09:54:30.296Z</time></trkpt><trkpt lat="43.9591696" lon="12.430342"><ele>358.0</ele><time>2026-04-12T09:54:31.311Z</time></trkpt><trkpt lat="43.9591115" lon="12.4302456"><ele>358.0</ele><time>2026-04-12T09:54:32.305Z</time></trkpt><trkpt lat="43.9590618" lon="12.4301436"><ele>358.0</ele><time>2026-04-12T09:54:33.259Z</time></trkpt><trkpt lat="43.9590279" lon="12.430046"><ele>357.4</ele><time>2026-04-12T09:54:34.303Z</time></trkpt><trkpt lat="43.9590196" lon="12.4299286"><ele>356.79999999999995</ele><time>2026-04-12T09:54:35.311Z</time></trkpt><trkpt lat="43.9590496" lon="12.4298048"><ele>356.2</ele><time>2026-04-12T09:54:36.29Z</time></trkpt><trkpt lat="43.9590936" lon="12.4296774"><ele>355.6</ele><time>2026-04-12T09:54:37.248Z</time></trkpt><trkpt lat="43.9591214" lon="12.4295525"><ele>355.0</ele><time>2026-04-12T09:54:38.273Z</time></trkpt><trkpt lat="43.9591191" lon="12.4294183"><ele>353.0</ele><time>2026-04-12T09:54:39.279Z</time></trkpt><trkpt lat="43.9591035" lon="12.4292848"><ele>351.0</ele><time>2026-04-12T09:54:40.27Z</time></trkpt><trkpt lat="43.9590808" lon="12.4291438"><ele>349.0</ele><time>2026-04-12T09:54:41.28Z</time></trkpt><trkpt lat="43.9590421" lon="12.4290167"><ele>347.0</ele><time>2026-04-12T09:54:42.282Z</time></trkpt><trkpt lat="43.9589817" lon="12.4289166"><ele>345.0</ele><time>2026-04-12T09:54:43.313Z</time></trkpt><trkpt lat="43.9589092" lon="12.4288319"><ele>344.3333333333333</ele><time>2026-04-12T09:54:44.279Z</time></trkpt><trkpt lat="43.9588382" lon="12.4287464"><ele>343.6666666666667</ele><time>2026-04-12T09:54:45.277Z</time></trkpt><trkpt lat="43.9587763" lon="12.4286542"><ele>343.0</ele><time>2026-04-12T09:54:46.287Z</time></trkpt><trkpt lat="43.9587555" lon="12.428559"><ele>342.33333333333337</ele><time>2026-04-12T09:54:47.282Z</time></trkpt><trkpt lat="43.9587812" lon="12.4284642"><ele>341.6666666666667</ele><time>2026-04-12T09:54:48.292Z</time></trkpt><trkpt lat="43.9588455" lon="12.4283881"><ele>341.0</ele><time>2026-04-12T09:54:49.283Z</time></trkpt><trkpt lat="43.958914" lon="12.4283456"><ele>341.0</ele><time>2026-04-12T09:54:50.286Z</time></trkpt><trkpt lat="43.9589924" lon="12.4283313"><ele>341.0</ele><time>2026-04-12T09:54:51.298Z</time></trkpt><trkpt lat="43.9590691" lon="12.4283547"><ele>341.0</ele><time>2026-04-12T09:54:52.326Z</time></trkpt><trkpt lat="43.9591392" lon="12.4283958"><ele>341.0</ele><time>2026-04-12T09:54:53.306Z</time></trkpt><trkpt lat="43.9591985" lon="12.4284981"><ele>341.0</ele><time>2026-04-12T09:54:54.292Z</time></trkpt><trkpt lat="43.9592516" lon="12.4285905"><ele>341.0</ele><time>2026-04-12T09:54:55.299Z</time></trkpt><trkpt lat="43.9592964" lon="12.4286941"><ele>340.33333333333337</ele><time>2026-04-12T09:54:56.309Z</time></trkpt><trkpt lat="43.9593353" lon="12.428804"><ele>339.6666666666667</ele><time>2026-04-12T09:54:57.284Z</time></trkpt><trkpt lat="43.9593695" lon="12.4289156"><ele>339.0</ele><time>2026-04-12T09:54:58.305Z</time></trkpt><trkpt lat="43.959404" lon="12.4290215"><ele>338.3333333333333</ele><time>2026-04-12T09:54:59.296Z</time></trkpt><trkpt lat="43.9594345" lon="12.4291301"><ele>337.66666666666663</ele><time>2026-04-12T09:55:00.299Z</time></trkpt><trkpt lat="43.9594747" lon="12.4292318"><ele>337.0</ele><time>2026-04-12T09:55:01.315Z</time></trkpt><trkpt lat="43.95952" lon="12.4293266"><ele>337.0</ele><time>2026-04-12T09:55:02.29Z</time></trkpt><trkpt lat="43.9595797" lon="12.4293724"><ele>337.0</ele><time>2026-04-12T09:55:03.306Z</time></trkpt><trkpt lat="43.9596526" lon="12.4293469"><ele>337.0</ele><time>2026-04-12T09:55:04.303Z</time></trkpt><trkpt lat="43.9597263" lon="12.4292865"><ele>337.0</ele><time>2026-04-12T09:55:05.285Z</time></trkpt><trkpt lat="43.9597704" lon="12.4291713"><ele>337.0</ele><time>2026-04-12T09:55:06.3Z</time></trkpt><trkpt lat="43.9597836" lon="12.4290379"><ele>337.0</ele><time>2026-04-12T09:55:07.292Z</time></trkpt><trkpt lat="43.9597648" lon="12.4289121"><ele>335.5</ele><time>2026-04-12T09:55:08.293Z</time></trkpt><trkpt lat="43.9597406" lon="12.4287977"><ele>334.0</ele><time>2026-04-12T09:55:09.294Z</time></trkpt><trkpt lat="43.9597163" lon="12.4286921"><ele>332.5</ele><time>2026-04-12T09:55:10.283Z</time></trkpt><trkpt lat="43.9596949" lon="12.4285847"><ele>331.0</ele><time>2026-04-12T09:55:11.264Z</time></trkpt><trkpt lat="43.9596725" lon="12.42847"><ele>329.5</ele><time>2026-04-12T09:55:12.282Z</time></trkpt><trkpt lat="43.9596492" lon="12.4283543"><ele>328.0</ele><time>2026-04-12T09:55:13.295Z</time></trkpt><trkpt lat="43.959621" lon="12.4282352"><ele>328.0</ele><time>2026-04-12T09:55:14.242Z</time></trkpt><trkpt lat="43.9595953" lon="12.4281186"><ele>328.0</ele><time>2026-04-12T09:55:15.262Z</time></trkpt><trkpt lat="43.9595705" lon="12.4279959"><ele>328.0</ele><time>2026-04-12T09:55:16.265Z</time></trkpt><trkpt lat="43.9595299" lon="12.4278793"><ele>328.0</ele><time>2026-04-12T09:55:17.286Z</time></trkpt><trkpt lat="43.9594849" lon="12.4277799"><ele>328.0</ele><time>2026-04-12T09:55:18.242Z</time></trkpt><trkpt lat="43.9594423" lon="12.4276732"><ele>328.0</ele><time>2026-04-12T09:55:19.27Z</time></trkpt><trkpt lat="43.9593799" lon="12.427576"><ele>328.2</ele><time>2026-04-12T09:55:20.246Z</time></trkpt><trkpt lat="43.9593133" lon="12.42749"><ele>328.4</ele><time>2026-04-12T09:55:21.261Z</time></trkpt><trkpt lat="43.9592271" lon="12.4274115"><ele>328.59999999999997</ele><time>2026-04-12T09:55:22.307Z</time></trkpt><trkpt lat="43.9591348" lon="12.4273447"><ele>328.79999999999995</ele><time>2026-04-12T09:55:23.238Z</time></trkpt><trkpt lat="43.9590353" lon="12.4273161"><ele>329.0</ele><time>2026-04-12T09:55:24.265Z</time></trkpt><trkpt lat="43.9589358" lon="12.4272905"><ele>329.0</ele><time>2026-04-12T09:55:25.303Z</time></trkpt><trkpt lat="43.95883" lon="12.4272916"><ele>329.0</ele><time>2026-04-12T09:55:26.294Z</time></trkpt><trkpt lat="43.9587272" lon="12.4273"><ele>329.0</ele><time>2026-04-12T09:55:27.289Z</time></trkpt><trkpt lat="43.9586243" lon="12.4273214"><ele>329.0</ele><time>2026-04-12T09:55:28.309Z</time></trkpt><trkpt lat="43.9585396" lon="12.4273762"><ele>329.0</ele><time>2026-04-12T09:55:29.296Z</time></trkpt><trkpt lat="43.9584508" lon="12.427437"><ele>329.0</ele><time>2026-04-12T09:55:30.278Z</time></trkpt><trkpt lat="43.9583716" lon="12.427486"><ele>329.0</ele><time>2026-04-12T09:55:31.291Z</time></trkpt><trkpt lat="43.9582882" lon="12.4274996"><ele>329.0</ele><time>2026-04-12T09:55:32.294Z</time></trkpt><trkpt lat="43.9582181" lon="12.427446"><ele>329.0</ele><time>2026-04-12T09:55:33.256Z</time></trkpt><trkpt lat="43.9581885" lon="12.4273314"><ele>329.0</ele><time>2026-04-12T09:55:34.28Z</time></trkpt><trkpt lat="43.9582062" lon="12.4272134"><ele>329.0</ele><time>2026-04-12T09:55:35.304Z</time></trkpt><trkpt lat="43.9582693" lon="12.4271346"><ele>327.2857142857143</ele><time>2026-04-12T09:55:36.289Z</time></trkpt><trkpt lat="43.9583424" lon="12.4270894"><ele>325.57142857142856</ele><time>2026-04-12T09:55:37.284Z</time></trkpt><trkpt lat="43.9584114" lon="12.4270569"><ele>323.8571428571429</ele><time>2026-04-12T09:55:38.28Z</time></trkpt><trkpt lat="43.9584788" lon="12.4269969"><ele>322.1428571428571</ele><time>2026-04-12T09:55:39.307Z</time></trkpt><trkpt lat="43.9585104" lon="12.4269104"><ele>320.42857142857144</ele><time>2026-04-12T09:55:40.293Z</time></trkpt><trkpt lat="43.9584959" lon="12.426821"><ele>318.7142857142857</ele><time>2026-04-12T09:55:41.305Z</time></trkpt><trkpt lat="43.9584388" lon="12.4267563"><ele>317.0</ele><time>2026-04-12T09:55:42.303Z</time></trkpt><trkpt lat="43.9583645" lon="12.4267164"><ele>317.0</ele><time>2026-04-12T09:55:43.267Z</time></trkpt><trkpt lat="43.9582888" lon="12.426737"><ele>317.0</ele><time>2026-04-12T09:55:44.285Z</time></trkpt><trkpt lat="43.9582174" lon="12.4267808"><ele>317.0</ele><time>2026-04-12T09:55:45.292Z</time></trkpt><trkpt lat="43.9581525" lon="12.4268232"><ele>317.0</ele><time>2026-04-12T09:55:46.303Z</time></trkpt><trkpt lat="43.9580848" lon="12.4268675"><ele>317.0</ele><time>2026-04-12T09:55:47.287Z</time></trkpt><trkpt lat="43.958007" lon="12.4269191"><ele>317.0</ele><time>2026-04-12T09:55:48.28Z</time></trkpt><trkpt lat="43.9579344" lon="12.4269716"><ele>317.0</ele><time>2026-04-12T09:55:49.294Z</time></trkpt><trkpt lat="43.9578473" lon="12.4270206"><ele>317.0</ele><time>2026-04-12T09:55:50.269Z</time></trkpt><trkpt lat="43.9577626" lon="12.4270604"><ele>317.0</ele><time>2026-04-12T09:55:51.295Z</time></trkpt><trkpt lat="43.9576757" lon="12.4270715"><ele>317.0</ele><time>2026-04-12T09:55:52.291Z</time></trkpt><trkpt lat="43.9575824" lon="12.4270517"><ele>317.0</ele><time>2026-04-12T09:55:53.272Z</time></trkpt><trkpt lat="43.9574925" lon="12.4269912"><ele>315.6</ele><time>2026-04-12T09:55:54.29Z</time></trkpt><trkpt lat="43.9574179" lon="12.4268778"><ele>314.2</ele><time>2026-04-12T09:55:55.292Z</time></trkpt><trkpt lat="43.957351" lon="12.4267716"><ele>312.8</ele><time>2026-04-12T09:55:56.289Z</time></trkpt><trkpt lat="43.9572933" lon="12.4266477"><ele>311.4</ele><time>2026-04-12T09:55:57.285Z</time></trkpt><trkpt lat="43.9572309" lon="12.4265332"><ele>310.0</ele><time>2026-04-12T09:55:58.286Z</time></trkpt><trkpt lat="43.9571743" lon="12.426418"><ele>308.6</ele><time>2026-04-12T09:55:59.271Z</time></trkpt><trkpt lat="43.9571161" lon="12.4262969"><ele>307.2</ele><time>2026-04-12T09:56:00.294Z</time></trkpt><trkpt lat="43.9570646" lon="12.4261731"><ele>305.8</ele><time>2026-04-12T09:56:01.302Z</time></trkpt><trkpt lat="43.9570345" lon="12.4260344"><ele>304.4</ele><time>2026-04-12T09:56:02.296Z</time></trkpt><trkpt lat="43.957041" lon="12.4259038"><ele>303.0</ele><time>2026-04-12T09:56:03.319Z</time></trkpt><trkpt lat="43.957062" lon="12.4257843"><ele>303.0</ele><time>2026-04-12T09:56:04.294Z</time></trkpt><trkpt lat="43.9570758" lon="12.4256666"><ele>303.0</ele><time>2026-04-12T09:56:05.253Z</time></trkpt><trkpt lat="43.9570914" lon="12.4255523"><ele>303.0</ele><time>2026-04-12T09:56:06.25Z</time></trkpt><trkpt lat="43.957108" lon="12.4254319"><ele>303.0</ele><time>2026-04-12T09:56:07.296Z</time></trkpt><trkpt lat="43.9571213" lon="12.4253136"><ele>303.0</ele><time>2026-04-12T09:56:08.295Z</time></trkpt><trkpt lat="43.9571393" lon="12.4252009"><ele>303.0</ele><time>2026-04-12T09:56:09.271Z</time></trkpt><trkpt lat="43.9571557" lon="12.425085"><ele>303.0</ele><time>2026-04-12T09:56:10.272Z</time></trkpt><trkpt lat="43.9571661" lon="12.424974"><ele>303.0</ele><time>2026-04-12T09:56:11.27Z</time></trkpt><trkpt lat="43.9571803" lon="12.4248686"><ele>303.0</ele><time>2026-04-12T09:56:12.289Z</time></trkpt><trkpt lat="43.957198" lon="12.4247511"><ele>303.0</ele><time>2026-04-12T09:56:13.269Z</time></trkpt><trkpt lat="43.9572162" lon="12.4246398"><ele>303.0</ele><time>2026-04-12T09:56:14.289Z</time></trkpt><trkpt lat="43.9572415" lon="12.4245352"><ele>303.0</ele><time>2026-04-12T09:56:15.298Z</time></trkpt><trkpt lat="43.9572678" lon="12.4244349"><ele>303.6666666666667</ele><time>2026-04-12T09:56:16.287Z</time></trkpt><trkpt lat="43.9572969" lon="12.4243266"><ele>304.3333333333333</ele><time>2026-04-12T09:56:17.283Z</time></trkpt><trkpt lat="43.9573178" lon="12.4242249"><ele>305.0</ele><time>2026-04-12T09:56:18.293Z</time></trkpt><trkpt lat="43.9573381" lon="12.4241218"><ele>305.66666666666663</ele><time>2026-04-12T09:56:19.284Z</time></trkpt><trkpt lat="43.9573614" lon="12.4240237"><ele>306.3333333333333</ele><time>2026-04-12T09:56:20.305Z</time></trkpt><trkpt lat="43.9573855" lon="12.4239174"><ele>307.0</ele><time>2026-04-12T09:56:21.304Z</time></trkpt><trkpt lat="43.9574095" lon="12.4238118"><ele>307.16666666666663</ele><time>2026-04-12T09:56:22.299Z</time></trkpt><trkpt lat="43.9574324" lon="12.4237082"><ele>307.3333333333333</ele><time>2026-04-12T09:56:23.309Z</time></trkpt><trkpt lat="43.9574587" lon="12.4236136"><ele>307.5</ele><time>2026-04-12T09:56:24.289Z</time></trkpt><trkpt lat="43.9574865" lon="12.4235207"><ele>307.6666666666667</ele><time>2026-04-12T09:56:25.308Z</time></trkpt><trkpt lat="43.9575046" lon="12.4234263"><ele>307.83333333333337</ele><time>2026-04-12T09:56:26.31Z</time></trkpt><trkpt lat="43.9575265" lon="12.423335"><ele>308.0</ele><time>2026-04-12T09:56:27.345Z</time></trkpt><trkpt lat="43.9575577" lon="12.4231803"><ele>307.0</ele><time>2026-04-12T09:56:29.273Z</time></trkpt><trkpt lat="43.957579" lon="12.42303"><ele>306.0</ele><time>2026-04-12T09:56:31.268Z</time></trkpt><trkpt lat="43.957588" lon="12.422891"><ele>305.0</ele><time>2026-04-12T09:56:33.279Z</time></trkpt><trkpt lat="43.9575971" lon="12.4227708"><ele>304.0</ele><time>2026-04-12T09:56:35.299Z</time></trkpt><trkpt lat="43.9576056" lon="12.4226573"><ele>303.0</ele><time>2026-04-12T09:56:37.296Z</time></trkpt><trkpt lat="43.9576115" lon="12.4225475"><ele>303.0</ele><time>2026-04-12T09:56:39.3Z</time></trkpt><trkpt lat="43.9576243" lon="12.422447"><ele>303.0</ele><time>2026-04-12T09:56:41.301Z</time></trkpt><trkpt lat="43.9576317" lon="12.4223589"><ele>303.0</ele><time>2026-04-12T09:56:43.291Z</time></trkpt><trkpt lat="43.957642" lon="12.4222651"><ele>303.0</ele><time>2026-04-12T09:56:45.285Z</time></trkpt><trkpt lat="43.9576581" lon="12.4221582"><ele>303.0</ele><time>2026-04-12T09:56:47.284Z</time></trkpt><trkpt lat="43.9576653" lon="12.4220434"><ele>303.0</ele><time>2026-04-12T09:56:49.307Z</time></trkpt><trkpt lat="43.9576774" lon="12.4219216"><ele>303.0</ele><time>2026-04-12T09:56:51.288Z</time></trkpt><trkpt lat="43.9576916" lon="12.421795"><ele>303.0</ele><time>2026-04-12T09:56:53.264Z</time></trkpt><trkpt lat="43.9577118" lon="12.4216589"><ele>303.0</ele><time>2026-04-12T09:56:55.309Z</time></trkpt><trkpt lat="43.9577233" lon="12.4215046"><ele>303.0</ele><time>2026-04-12T09:56:57.268Z</time></trkpt><trkpt lat="43.9577439" lon="12.4213353"><ele>303.0</ele><time>2026-04-12T09:56:59.301Z</time></trkpt><trkpt lat="43.9577573" lon="12.4212399"><ele>303.0</ele><time>2026-04-12T09:57:00.304Z</time></trkpt><trkpt lat="43.9577683" lon="12.4210575"><ele>303.0</ele><time>2026-04-12T09:57:02.3Z</time></trkpt><trkpt lat="43.9577762" lon="12.4209588"><ele>303.0</ele><time>2026-04-12T09:57:03.301Z</time></trkpt><trkpt lat="43.9577828" lon="12.4208536"><ele>303.0</ele><time>2026-04-12T09:57:04.321Z</time></trkpt><trkpt lat="43.9577889" lon="12.420751"><ele>303.0</ele><time>2026-04-12T09:57:05.301Z</time></trkpt><trkpt lat="43.9577825" lon="12.4206334"><ele>303.0</ele><time>2026-04-12T09:57:06.291Z</time></trkpt><trkpt lat="43.9577756" lon="12.4205193"><ele>302.5</ele><time>2026-04-12T09:57:07.301Z</time></trkpt><trkpt lat="43.9577695" lon="12.4204076"><ele>302.0</ele><time>2026-04-12T09:57:08.296Z</time></trkpt><trkpt lat="43.9577713" lon="12.420296"><ele>301.5</ele><time>2026-04-12T09:57:09.288Z</time></trkpt><trkpt lat="43.9577774" lon="12.4201892"><ele>301.0</ele><time>2026-04-12T09:57:10.293Z</time></trkpt><trkpt lat="43.9577809" lon="12.4200772"><ele>300.5</ele><time>2026-04-12T09:57:11.314Z</time></trkpt><trkpt lat="43.9577916" lon="12.4199613"><ele>300.0</ele><time>2026-04-12T09:57:12.289Z</time></trkpt><trkpt lat="43.9578166" lon="12.4198621"><ele>300.0</ele><time>2026-04-12T09:57:13.305Z</time></trkpt><trkpt lat="43.9578476" lon="12.4197629"><ele>300.0</ele><time>2026-04-12T09:57:14.303Z</time></trkpt><trkpt lat="43.9578828" lon="12.4196595"><ele>300.0</ele><time>2026-04-12T09:57:15.3Z</time></trkpt><trkpt lat="43.9579273" lon="12.4195612"><ele>300.0</ele><time>2026-04-12T09:57:16.296Z</time></trkpt><trkpt lat="43.9579738" lon="12.419455"><ele>300.0</ele><time>2026-04-12T09:57:17.299Z</time></trkpt><trkpt lat="43.958013" lon="12.419357"><ele>300.0</ele><time>2026-04-12T09:57:18.308Z</time></trkpt><trkpt lat="43.9580521" lon="12.4192503"><ele>300.0</ele><time>2026-04-12T09:57:19.295Z</time></trkpt><trkpt lat="43.9580838" lon="12.4191437"><ele>300.0</ele><time>2026-04-12T09:57:20.316Z</time></trkpt><trkpt lat="43.9581151" lon="12.4190385"><ele>300.0</ele><time>2026-04-12T09:57:21.287Z</time></trkpt><trkpt lat="43.9581494" lon="12.4189325"><ele>300.0</ele><time>2026-04-12T09:57:22.304Z</time></trkpt><trkpt lat="43.958186" lon="12.4188318"><ele>300.0</ele><time>2026-04-12T09:57:23.3Z</time></trkpt><trkpt lat="43.958228" lon="12.4187372"><ele>300.0</ele><time>2026-04-12T09:57:24.3Z</time></trkpt><trkpt lat="43.9582821" lon="12.4186712"><ele>300.1666666666667</ele><time>2026-04-12T09:57:25.31Z</time></trkpt><trkpt lat="43.9583485" lon="12.4186348"><ele>300.3333333333333</ele><time>2026-04-12T09:57:26.305Z</time></trkpt><trkpt lat="43.9584251" lon="12.4186223"><ele>300.5</ele><time>2026-04-12T09:57:27.289Z</time></trkpt><trkpt lat="43.9585058" lon="12.4186116"><ele>300.66666666666663</ele><time>2026-04-12T09:57:28.301Z</time></trkpt><trkpt lat="43.958585" lon="12.4185956"><ele>300.8333333333333</ele><time>2026-04-12T09:57:29.302Z</time></trkpt><trkpt lat="43.9586679" lon="12.4185676"><ele>301.0</ele><time>2026-04-12T09:57:30.31Z</time></trkpt><trkpt lat="43.9587521" lon="12.4185344"><ele>299.66666666666663</ele><time>2026-04-12T09:57:31.312Z</time></trkpt><trkpt lat="43.9588362" lon="12.418496"><ele>298.3333333333333</ele><time>2026-04-12T09:57:32.31Z</time></trkpt><trkpt lat="43.9589215" lon="12.4184792"><ele>297.0</ele><time>2026-04-12T09:57:33.296Z</time></trkpt><trkpt lat="43.9590097" lon="12.4184705"><ele>295.6666666666667</ele><time>2026-04-12T09:57:34.314Z</time></trkpt><trkpt lat="43.9590854" lon="12.4184573"><ele>294.33333333333337</ele><time>2026-04-12T09:57:35.309Z</time></trkpt><trkpt lat="43.9591643" lon="12.4184132"><ele>293.0</ele><time>2026-04-12T09:57:36.324Z</time></trkpt><trkpt lat="43.9592407" lon="12.4183448"><ele>290.83333333333337</ele><time>2026-04-12T09:57:37.296Z</time></trkpt><trkpt lat="43.959309" lon="12.418249"><ele>288.6666666666667</ele><time>2026-04-12T09:57:38.316Z</time></trkpt><trkpt lat="43.9593737" lon="12.4181511"><ele>286.5</ele><time>2026-04-12T09:57:39.294Z</time></trkpt><trkpt lat="43.9594272" lon="12.4180731"><ele>284.3333333333333</ele><time>2026-04-12T09:57:40.308Z</time></trkpt><trkpt lat="43.9594671" lon="12.4179862"><ele>282.16666666666663</ele><time>2026-04-12T09:57:41.304Z</time></trkpt><trkpt lat="43.9594973" lon="12.417891"><ele>280.0</ele><time>2026-04-12T09:57:42.292Z</time></trkpt><trkpt lat="43.959525" lon="12.4177969"><ele>280.0</ele><time>2026-04-12T09:57:43.257Z</time></trkpt><trkpt lat="43.9595513" lon="12.4176896"><ele>280.0</ele><time>2026-04-12T09:57:44.299Z</time></trkpt><trkpt lat="43.9595889" lon="12.4175813"><ele>280.0</ele><time>2026-04-12T09:57:45.311Z</time></trkpt><trkpt lat="43.9596307" lon="12.4174774"><ele>280.0</ele><time>2026-04-12T09:57:46.296Z</time></trkpt><trkpt lat="43.9596831" lon="12.4173868"><ele>280.0</ele><time>2026-04-12T09:57:47.27Z</time></trkpt><trkpt lat="43.9597578" lon="12.4173016"><ele>280.0</ele><time>2026-04-12T09:57:48.297Z</time></trkpt><trkpt lat="43.9598341" lon="12.417223"><ele>279.2</ele><time>2026-04-12T09:57:49.287Z</time></trkpt><trkpt lat="43.959917" lon="12.417136"><ele>278.4</ele><time>2026-04-12T09:57:50.271Z</time></trkpt><trkpt lat="43.9599948" lon="12.4170421"><ele>277.6</ele><time>2026-04-12T09:57:51.307Z</time></trkpt><trkpt lat="43.9600536" lon="12.4169391"><ele>276.8</ele><time>2026-04-12T09:57:52.295Z</time></trkpt><trkpt lat="43.9601037" lon="12.4168297"><ele>276.0</ele><time>2026-04-12T09:57:53.291Z</time></trkpt><trkpt lat="43.9601493" lon="12.4167302"><ele>274.0</ele><time>2026-04-12T09:57:54.301Z</time></trkpt><trkpt lat="43.9601894" lon="12.416634"><ele>272.0</ele><time>2026-04-12T09:57:55.304Z</time></trkpt><trkpt lat="43.9602148" lon="12.4165277"><ele>270.0</ele><time>2026-04-12T09:57:56.303Z</time></trkpt><trkpt lat="43.9602134" lon="12.4163893"><ele>268.0</ele><time>2026-04-12T09:57:57.297Z</time></trkpt><trkpt lat="43.9601876" lon="12.4162443"><ele>266.0</ele><time>2026-04-12T09:57:58.264Z</time></trkpt><trkpt lat="43.9601459" lon="12.4160988"><ele>264.25</ele><time>2026-04-12T09:57:59.3Z</time></trkpt><trkpt lat="43.9601011" lon="12.4159368"><ele>262.5</ele><time>2026-04-12T09:58:00.276Z</time></trkpt><trkpt lat="43.9600663" lon="12.415778"><ele>260.75</ele><time>2026-04-12T09:58:01.302Z</time></trkpt><trkpt lat="43.9600363" lon="12.4156336"><ele>259.0</ele><time>2026-04-12T09:58:02.307Z</time></trkpt><trkpt lat="43.9600115" lon="12.4154809"><ele>258.59999999999997</ele><time>2026-04-12T09:58:03.284Z</time></trkpt><trkpt lat="43.9599938" lon="12.4153346"><ele>258.2</ele><time>2026-04-12T09:58:04.305Z</time></trkpt><trkpt lat="43.9599785" lon="12.415202"><ele>257.79999999999995</ele><time>2026-04-12T09:58:05.298Z</time></trkpt><trkpt lat="43.9599726" lon="12.4150798"><ele>257.4</ele><time>2026-04-12T09:58:06.326Z</time></trkpt><trkpt lat="43.9599744" lon="12.4149681"><ele>257.0</ele><time>2026-04-12T09:58:07.301Z</time></trkpt><trkpt lat="43.9600032" lon="12.4148653"><ele>255.2</ele><time>2026-04-12T09:58:08.309Z</time></trkpt><trkpt lat="43.9600466" lon="12.4147598"><ele>253.39999999999998</ele><time>2026-04-12T09:58:09.301Z</time></trkpt><trkpt lat="43.9601107" lon="12.4146604"><ele>251.60000000000002</ele><time>2026-04-12T09:58:10.305Z</time></trkpt><trkpt lat="43.9601864" lon="12.4145711"><ele>249.8</ele><time>2026-04-12T09:58:11.288Z</time></trkpt><trkpt lat="43.9602571" lon="12.4144727"><ele>248.0</ele><time>2026-04-12T09:58:12.278Z</time></trkpt><trkpt lat="43.9603195" lon="12.4143608"><ele>246.00000000000003</ele><time>2026-04-12T09:58:13.289Z</time></trkpt><trkpt lat="43.960346" lon="12.4142548"><ele>244.0</ele><time>2026-04-12T09:58:14.294Z</time></trkpt><trkpt lat="43.9603619" lon="12.4141448"><ele>242.0</ele><time>2026-04-12T09:58:15.269Z</time></trkpt><trkpt lat="43.9603625" lon="12.4140213"><ele>240.0</ele><time>2026-04-12T09:58:16.278Z</time></trkpt><trkpt lat="43.9603619" lon="12.4138989"><ele>238.00000000000003</ele><time>2026-04-12T09:58:17.307Z</time></trkpt><trkpt lat="43.9603793" lon="12.4137831"><ele>236.0</ele><time>2026-04-12T09:58:18.244Z</time></trkpt><trkpt lat="43.9604187" lon="12.4136558"><ele>234.5</ele><time>2026-04-12T09:58:19.284Z</time></trkpt><trkpt lat="43.9604788" lon="12.4135317"><ele>233.0</ele><time>2026-04-12T09:58:20.251Z</time></trkpt><trkpt lat="43.9605284" lon="12.4134012"><ele>231.5</ele><time>2026-04-12T09:58:21.279Z</time></trkpt><trkpt lat="43.9605647" lon="12.413235"><ele>230.0</ele><time>2026-04-12T09:58:22.281Z</time></trkpt><trkpt lat="43.9606066" lon="12.4130742"><ele>229.25</ele><time>2026-04-12T09:58:23.276Z</time></trkpt><trkpt lat="43.96065" lon="12.4129225"><ele>228.5</ele><time>2026-04-12T09:58:24.284Z</time></trkpt><trkpt lat="43.960692" lon="12.412764"><ele>227.75</ele><time>2026-04-12T09:58:25.277Z</time></trkpt><trkpt lat="43.960726" lon="12.4126043"><ele>227.0</ele><time>2026-04-12T09:58:26.297Z</time></trkpt><trkpt lat="43.960732" lon="12.4124522"><ele>227.0</ele><time>2026-04-12T09:58:27.294Z</time></trkpt><trkpt lat="43.9607484" lon="12.4123023"><ele>227.0</ele><time>2026-04-12T09:58:28.255Z</time></trkpt><trkpt lat="43.9607531" lon="12.4121548"><ele>227.0</ele><time>2026-04-12T09:58:29.25Z</time></trkpt><trkpt lat="43.9607595" lon="12.4120049"><ele>227.0</ele><time>2026-04-12T09:58:30.28Z</time></trkpt><trkpt lat="43.9607747" lon="12.4118589"><ele>227.0</ele><time>2026-04-12T09:58:31.301Z</time></trkpt><trkpt lat="43.9607938" lon="12.4117089"><ele>226.66666666666669</ele><time>2026-04-12T09:58:32.316Z</time></trkpt><trkpt lat="43.9608279" lon="12.4115672"><ele>226.33333333333334</ele><time>2026-04-12T09:58:33.293Z</time></trkpt><trkpt lat="43.9608694" lon="12.4114397"><ele>226.0</ele><time>2026-04-12T09:58:34.297Z</time></trkpt><trkpt lat="43.9609181" lon="12.4113337"><ele>225.66666666666669</ele><time>2026-04-12T09:58:35.287Z</time></trkpt><trkpt lat="43.9609523" lon="12.4112442"><ele>225.33333333333334</ele><time>2026-04-12T09:58:36.293Z</time></trkpt><trkpt lat="43.9609726" lon="12.4111485"><ele>225.0</ele><time>2026-04-12T09:58:37.309Z</time></trkpt><trkpt lat="43.9609767" lon="12.4110355"><ele>221.2</ele><time>2026-04-12T09:58:38.31Z</time></trkpt><trkpt lat="43.9609708" lon="12.4109084"><ele>217.4</ele><time>2026-04-12T09:58:39.294Z</time></trkpt><trkpt lat="43.9609597" lon="12.410798"><ele>213.60000000000002</ele><time>2026-04-12T09:58:40.279Z</time></trkpt><trkpt lat="43.9609502" lon="12.4106695"><ele>209.8</ele><time>2026-04-12T09:58:41.294Z</time></trkpt><trkpt lat="43.9609543" lon="12.4105319"><ele>206.0</ele><time>2026-04-12T09:58:42.293Z</time></trkpt><trkpt lat="43.9609703" lon="12.4103929"><ele>205.4</ele><time>2026-04-12T09:58:43.307Z</time></trkpt><trkpt lat="43.9609821" lon="12.4102529"><ele>204.8</ele><time>2026-04-12T09:58:44.302Z</time></trkpt><trkpt lat="43.9609959" lon="12.4101133"><ele>204.20000000000002</ele><time>2026-04-12T09:58:45.289Z</time></trkpt><trkpt lat="43.9610188" lon="12.4099799"><ele>203.60000000000002</ele><time>2026-04-12T09:58:46.297Z</time></trkpt><trkpt lat="43.961043" lon="12.4098509"><ele>203.0</ele><time>2026-04-12T09:58:47.317Z</time></trkpt><trkpt lat="43.9610551" lon="12.409731"><ele>202.4</ele><time>2026-04-12T09:58:48.285Z</time></trkpt><trkpt lat="43.9610565" lon="12.4096226"><ele>201.8</ele><time>2026-04-12T09:58:49.288Z</time></trkpt><trkpt lat="43.961045" lon="12.4095072"><ele>201.2</ele><time>2026-04-12T09:58:50.294Z</time></trkpt><trkpt lat="43.9610193" lon="12.4093809"><ele>200.6</ele><time>2026-04-12T09:58:51.293Z</time></trkpt><trkpt lat="43.9609963" lon="12.4092423"><ele>200.0</ele><time>2026-04-12T09:58:52.301Z</time></trkpt><trkpt lat="43.9609738" lon="12.4091072"><ele>200.0</ele><time>2026-04-12T09:58:53.3Z</time></trkpt><trkpt lat="43.9609562" lon="12.4089685"><ele>200.0</ele><time>2026-04-12T09:58:54.287Z</time></trkpt><trkpt lat="43.9609554" lon="12.4088385"><ele>200.0</ele><time>2026-04-12T09:58:55.298Z</time></trkpt><trkpt lat="43.9609583" lon="12.4087104"><ele>200.0</ele><time>2026-04-12T09:58:56.293Z</time></trkpt><trkpt lat="43.9609365" lon="12.408588"><ele>200.0</ele><time>2026-04-12T09:58:57.298Z</time></trkpt><trkpt lat="43.9608867" lon="12.4084868"><ele>198.6</ele><time>2026-04-12T09:58:58.282Z</time></trkpt><trkpt lat="43.9608323" lon="12.408386"><ele>197.2</ele><time>2026-04-12T09:58:59.298Z</time></trkpt><trkpt lat="43.960783" lon="12.4082861"><ele>195.8</ele><time>2026-04-12T09:59:00.273Z</time></trkpt><trkpt lat="43.9607417" lon="12.4081716"><ele>194.4</ele><time>2026-04-12T09:59:01.299Z</time></trkpt><trkpt lat="43.9607074" lon="12.4080494"><ele>193.0</ele><time>2026-04-12T09:59:02.293Z</time></trkpt><trkpt lat="43.9606785" lon="12.4079272"><ele>191.0</ele><time>2026-04-12T09:59:03.3Z</time></trkpt><trkpt lat="43.96067" lon="12.4077823"><ele>189.0</ele><time>2026-04-12T09:59:04.322Z</time></trkpt><trkpt lat="43.9606629" lon="12.4076253"><ele>187.0</ele><time>2026-04-12T09:59:05.298Z</time></trkpt><trkpt lat="43.9606642" lon="12.4074684"><ele>185.0</ele><time>2026-04-12T09:59:06.298Z</time></trkpt><trkpt lat="43.9606603" lon="12.4073044"><ele>183.0</ele><time>2026-04-12T09:59:07.31Z</time></trkpt><trkpt lat="43.9606445" lon="12.4071528"><ele>181.2</ele><time>2026-04-12T09:59:08.311Z</time></trkpt><trkpt lat="43.9606301" lon="12.4070028"><ele>179.4</ele><time>2026-04-12T09:59:09.297Z</time></trkpt><trkpt lat="43.9606359" lon="12.4068497"><ele>177.6</ele><time>2026-04-12T09:59:10.294Z</time></trkpt><trkpt lat="43.9606628" lon="12.4067085"><ele>175.79999999999998</ele><time>2026-04-12T09:59:11.302Z</time></trkpt><trkpt lat="43.9606971" lon="12.4065716"><ele>174.0</ele><time>2026-04-12T09:59:12.28Z</time></trkpt><trkpt lat="43.9607422" lon="12.406449"><ele>174.0</ele><time>2026-04-12T09:59:13.299Z</time></trkpt><trkpt lat="43.9607943" lon="12.4063493"><ele>174.0</ele><time>2026-04-12T09:59:14.254Z</time></trkpt><trkpt lat="43.9608387" lon="12.4062311"><ele>174.0</ele><time>2026-04-12T09:59:15.31Z</time></trkpt><trkpt lat="43.9608526" lon="12.406118"><ele>174.0</ele><time>2026-04-12T09:59:16.293Z</time></trkpt><trkpt lat="43.9608579" lon="12.4059845"><ele>174.0</ele><time>2026-04-12T09:59:17.318Z</time></trkpt><trkpt lat="43.9608594" lon="12.4058468"><ele>172.6</ele><time>2026-04-12T09:59:18.276Z</time></trkpt><trkpt lat="43.9608624" lon="12.4057124"><ele>171.2</ele><time>2026-04-12T09:59:19.28Z</time></trkpt><trkpt lat="43.9608741" lon="12.4055698"><ele>169.79999999999998</ele><time>2026-04-12T09:59:20.305Z</time></trkpt><trkpt lat="43.9608835" lon="12.4054101"><ele>168.39999999999998</ele><time>2026-04-12T09:59:21.289Z</time></trkpt><trkpt lat="43.9608963" lon="12.405262"><ele>167.0</ele><time>2026-04-12T09:59:22.299Z</time></trkpt><trkpt lat="43.960902" lon="12.4051149"><ele>164.79999999999998</ele><time>2026-04-12T09:59:23.299Z</time></trkpt><trkpt lat="43.9609148" lon="12.4049657"><ele>162.6</ele><time>2026-04-12T09:59:24.262Z</time></trkpt><trkpt lat="43.9609287" lon="12.4048158"><ele>160.39999999999998</ele><time>2026-04-12T09:59:25.307Z</time></trkpt><trkpt lat="43.9609393" lon="12.4046652"><ele>158.2</ele><time>2026-04-12T09:59:26.26Z</time></trkpt><trkpt lat="43.9609365" lon="12.4045237"><ele>156.0</ele><time>2026-04-12T09:59:27.301Z</time></trkpt><trkpt lat="43.9609316" lon="12.4043834"><ele>155.16666666666666</ele><time>2026-04-12T09:59:28.291Z</time></trkpt><trkpt lat="43.9609261" lon="12.4042511"><ele>154.33333333333334</ele><time>2026-04-12T09:59:29.304Z</time></trkpt><trkpt lat="43.9609202" lon="12.4041286"><ele>153.5</ele><time>2026-04-12T09:59:30.298Z</time></trkpt><trkpt lat="43.960921" lon="12.4040079"><ele>152.66666666666669</ele><time>2026-04-12T09:59:31.286Z</time></trkpt><trkpt lat="43.9609209" lon="12.4038998"><ele>151.83333333333334</ele><time>2026-04-12T09:59:32.308Z</time></trkpt><trkpt lat="43.9609273" lon="12.4037822"><ele>151.0</ele><time>2026-04-12T09:59:33.295Z</time></trkpt><trkpt lat="43.9609348" lon="12.4036584"><ele>149.66666666666669</ele><time>2026-04-12T09:59:34.299Z</time></trkpt><trkpt lat="43.9609432" lon="12.4035309"><ele>148.33333333333334</ele><time>2026-04-12T09:59:35.235Z</time></trkpt><trkpt lat="43.9609536" lon="12.4034003"><ele>147.0</ele><time>2026-04-12T09:59:36.291Z</time></trkpt><trkpt lat="43.9609644" lon="12.4032785"><ele>145.66666666666666</ele><time>2026-04-12T09:59:37.289Z</time></trkpt><trkpt lat="43.9609787" lon="12.4031676"><ele>144.33333333333331</ele><time>2026-04-12T09:59:38.303Z</time></trkpt><trkpt lat="43.9609802" lon="12.4030515"><ele>143.0</ele><time>2026-04-12T09:59:39.292Z</time></trkpt><trkpt lat="43.9609718" lon="12.4029309"><ele>142.28571428571428</ele><time>2026-04-12T09:59:40.282Z</time></trkpt><trkpt lat="43.9609604" lon="12.4028123"><ele>141.57142857142856</ele><time>2026-04-12T09:59:41.296Z</time></trkpt><trkpt lat="43.9609543" lon="12.4026943"><ele>140.85714285714286</ele><time>2026-04-12T09:59:42.312Z</time></trkpt><trkpt lat="43.9609557" lon="12.4025918"><ele>140.14285714285714</ele><time>2026-04-12T09:59:43.299Z</time></trkpt><trkpt lat="43.9609648" lon="12.4024935"><ele>139.42857142857144</ele><time>2026-04-12T09:59:44.306Z</time></trkpt><trkpt lat="43.9609757" lon="12.402403"><ele>138.71428571428572</ele><time>2026-04-12T09:59:45.286Z</time></trkpt><trkpt lat="43.9609826" lon="12.4023135"><ele>138.0</ele><time>2026-04-12T09:59:46.325Z</time></trkpt><trkpt lat="43.9609975" lon="12.4022251"><ele>136.83333333333334</ele><time>2026-04-12T09:59:47.305Z</time></trkpt><trkpt lat="43.9610106" lon="12.4020747"><ele>135.66666666666666</ele><time>2026-04-12T09:59:49.305Z</time></trkpt><trkpt lat="43.9610093" lon="12.4019757"><ele>134.5</ele><time>2026-04-12T09:59:56.294Z</time></trkpt><trkpt lat="43.960958" lon="12.4020322"><ele>133.33333333333331</ele><time>2026-04-12T10:00:01.306Z</time></trkpt><trkpt lat="43.9610247" lon="12.4019846"><ele>132.16666666666666</ele><time>2026-04-12T10:00:09.304Z</time></trkpt><trkpt lat="43.960957" lon="12.4019945"><ele>131.0</ele><time>2026-04-12T10:00:31.265Z</time></trkpt><trkpt lat="43.960959" lon="12.4020963"><ele>132.0</ele><time>2026-04-12T10:00:35.269Z</time></trkpt><trkpt lat="43.9609668" lon="12.4021866"><ele>133.0</ele><time>2026-04-12T10:00:39.314Z</time></trkpt><trkpt lat="43.960959" lon="12.4022772"><ele>134.0</ele><time>2026-04-12T10:00:43.251Z</time></trkpt><trkpt lat="43.9609401" lon="12.4023675"><ele>135.0</ele><time>2026-04-12T10:00:47.301Z</time></trkpt><trkpt lat="43.9609339" lon="12.4024634"><ele>136.0</ele><time>2026-04-12T10:00:52.305Z</time></trkpt><trkpt lat="43.9609282" lon="12.4025645"><ele>137.0</ele><time>2026-04-12T10:00:57.288Z</time></trkpt><trkpt lat="43.9609234" lon="12.4026731"><ele>138.0</ele><time>2026-04-12T10:01:02.304Z</time></trkpt><trkpt lat="43.9609175" lon="12.4027642"><ele>138.0</ele><time>2026-04-12T10:01:06.261Z</time></trkpt><trkpt lat="43.9609202" lon="12.4028682"><ele>138.0</ele><time>2026-04-12T10:01:10.286Z</time></trkpt><trkpt lat="43.9609313" lon="12.402967"><ele>138.0</ele><time>2026-04-12T10:01:14.298Z</time></trkpt><trkpt lat="43.9609475" lon="12.403061"><ele>138.0</ele><time>2026-04-12T10:01:18.294Z</time></trkpt><trkpt lat="43.9609523" lon="12.4031667"><ele>138.0</ele><time>2026-04-12T10:01:23.281Z</time></trkpt><trkpt lat="43.9609405" lon="12.4032717"><ele>138.0</ele><time>2026-04-12T10:01:28.291Z</time></trkpt><trkpt lat="43.9609227" lon="12.4033685"><ele>138.0</ele><time>2026-04-12T10:01:32.309Z</time></trkpt><trkpt lat="43.9609134" lon="12.4034741"><ele>138.71428571428572</ele><time>2026-04-12T10:01:36.316Z</time></trkpt><trkpt lat="43.9608912" lon="12.4035644"><ele>139.42857142857144</ele><time>2026-04-12T10:01:40.316Z</time></trkpt><trkpt lat="43.9608939" lon="12.4036587"><ele>140.14285714285714</ele><time>2026-04-12T10:01:44.301Z</time></trkpt><trkpt lat="43.9608893" lon="12.4037589"><ele>140.85714285714286</ele><time>2026-04-12T10:01:48.316Z</time></trkpt><trkpt lat="43.9608874" lon="12.403861"><ele>141.57142857142856</ele><time>2026-04-12T10:01:53.312Z</time></trkpt><trkpt lat="43.9608853" lon="12.4039659"><ele>142.28571428571428</ele><time>2026-04-12T10:01:58.293Z</time></trkpt><trkpt lat="43.9608818" lon="12.4040729"><ele>143.0</ele><time>2026-04-12T10:02:03.299Z</time></trkpt><trkpt lat="43.9608722" lon="12.4041752"><ele>144.14285714285714</ele><time>2026-04-12T10:02:07.297Z</time></trkpt><trkpt lat="43.9608655" lon="12.4042841"><ele>145.28571428571428</ele><time>2026-04-12T10:02:11.293Z</time></trkpt><trkpt lat="43.9608619" lon="12.40438"><ele>146.42857142857144</ele><time>2026-04-12T10:02:15.304Z</time></trkpt><trkpt lat="43.9608701" lon="12.4044731"><ele>147.57142857142856</ele><time>2026-04-12T10:02:19.3Z</time></trkpt><trkpt lat="43.9608729" lon="12.4045693"><ele>148.71428571428572</ele><time>2026-04-12T10:02:23.299Z</time></trkpt><trkpt lat="43.9608708" lon="12.4046741"><ele>149.85714285714286</ele><time>2026-04-12T10:02:28.286Z</time></trkpt><trkpt lat="43.9608624" lon="12.4047786"><ele>151.0</ele><time>2026-04-12T10:02:33.299Z</time></trkpt><trkpt lat="43.9608642" lon="12.4048777"><ele>152.57142857142858</ele><time>2026-04-12T10:02:37.312Z</time></trkpt><trkpt lat="43.9608466" lon="12.4049689"><ele>154.14285714285714</ele><time>2026-04-12T10:02:41.301Z</time></trkpt><trkpt lat="43.9608373" lon="12.4050631"><ele>155.71428571428572</ele><time>2026-04-12T10:02:45.296Z</time></trkpt><trkpt lat="43.960831" lon="12.4051594"><ele>157.28571428571428</ele><time>2026-04-12T10:02:49.316Z</time></trkpt><trkpt lat="43.9608284" lon="12.4052468"><ele>158.85714285714286</ele><time>2026-04-12T10:02:53.276Z</time></trkpt><trkpt lat="43.9608314" lon="12.4053396"><ele>160.42857142857144</ele><time>2026-04-12T10:02:56.3Z</time></trkpt><trkpt lat="43.960834" lon="12.4054495"><ele>162.0</ele><time>2026-04-12T10:03:00.29Z</time></trkpt><trkpt lat="43.9608265" lon="12.4055515"><ele>162.71428571428572</ele><time>2026-04-12T10:03:04.295Z</time></trkpt><trkpt lat="43.9608121" lon="12.4056374"><ele>163.42857142857142</ele><time>2026-04-12T10:03:08.301Z</time></trkpt><trkpt lat="43.9608108" lon="12.4057311"><ele>164.14285714285714</ele><time>2026-04-12T10:03:12.295Z</time></trkpt><trkpt lat="43.9608057" lon="12.4058183"><ele>164.85714285714286</ele><time>2026-04-12T10:03:16.299Z</time></trkpt><trkpt lat="43.9608028" lon="12.4059071"><ele>165.57142857142858</ele><time>2026-04-12T10:03:20.297Z</time></trkpt><trkpt lat="43.9608007" lon="12.4060087"><ele>166.28571428571428</ele><time>2026-04-12T10:03:24.288Z</time></trkpt><trkpt lat="43.9607979" lon="12.4061162"><ele>167.0</ele><time>2026-04-12T10:03:28.286Z</time></trkpt><trkpt lat="43.9607892" lon="12.4062075"><ele>167.0</ele><time>2026-04-12T10:03:31.264Z</time></trkpt><trkpt lat="43.9607829" lon="12.4063082"><ele>167.0</ele><time>2026-04-12T10:03:35.302Z</time></trkpt><trkpt lat="43.9607751" lon="12.4063963"><ele>167.0</ele><time>2026-04-12T10:03:38.296Z</time></trkpt><trkpt lat="43.9607419" lon="12.4064861"><ele>167.0</ele><time>2026-04-12T10:03:42.293Z</time></trkpt><trkpt lat="43.9606958" lon="12.4065705"><ele>167.0</ele><time>2026-04-12T10:03:48.264Z</time></trkpt><trkpt lat="43.9606671" lon="12.4066514"><ele>167.0</ele><time>2026-04-12T10:03:52.273Z</time></trkpt><trkpt lat="43.9606241" lon="12.4067177"><ele>167.0</ele><time>2026-04-12T10:03:56.273Z</time></trkpt><trkpt lat="43.9605947" lon="12.4068171"><ele>168.0</ele><time>2026-04-12T10:04:01.264Z</time></trkpt><trkpt lat="43.9605874" lon="12.4069061"><ele>169.0</ele><time>2026-04-12T10:04:05.289Z</time></trkpt><trkpt lat="43.9605928" lon="12.4070131"><ele>170.0</ele><time>2026-04-12T10:04:09.299Z</time></trkpt><trkpt lat="43.9605966" lon="12.4071066"><ele>171.0</ele><time>2026-04-12T10:04:13.273Z</time></trkpt><trkpt lat="43.9606035" lon="12.4072041"><ele>172.0</ele><time>2026-04-12T10:04:17.295Z</time></trkpt><trkpt lat="43.9606179" lon="12.4072921"><ele>173.0</ele><time>2026-04-12T10:04:21.301Z</time></trkpt><trkpt lat="43.960624" lon="12.4073838"><ele>174.0</ele><time>2026-04-12T10:04:25.302Z</time></trkpt><trkpt lat="43.9606407" lon="12.4074839"><ele>175.28571428571428</ele><time>2026-04-12T10:04:31.302Z</time></trkpt><trkpt lat="43.9606459" lon="12.4075857"><ele>176.57142857142858</ele><time>2026-04-12T10:04:36.292Z</time></trkpt><trkpt lat="43.960648" lon="12.4076773"><ele>177.85714285714286</ele><time>2026-04-12T10:04:42.257Z</time></trkpt><trkpt lat="43.9606472" lon="12.4077655"><ele>179.14285714285714</ele><time>2026-04-12T10:04:47.301Z</time></trkpt><trkpt lat="43.9606509" lon="12.407858"><ele>180.42857142857144</ele><time>2026-04-12T10:04:53.277Z</time></trkpt><trkpt lat="43.9606656" lon="12.4079605"><ele>181.71428571428572</ele><time>2026-04-12T10:04:58.3Z</time></trkpt><trkpt lat="43.9606759" lon="12.4080608"><ele>183.0</ele><time>2026-04-12T10:05:04.283Z</time></trkpt><trkpt lat="43.9606907" lon="12.4081552"><ele>184.0</ele><time>2026-04-12T10:05:10.276Z</time></trkpt><trkpt lat="43.9607215" lon="12.4082522"><ele>185.0</ele><time>2026-04-12T10:05:16.305Z</time></trkpt><trkpt lat="43.9607452" lon="12.4083501"><ele>186.0</ele><time>2026-04-12T10:05:21.273Z</time></trkpt><trkpt lat="43.9607746" lon="12.4084441"><ele>187.0</ele><time>2026-04-12T10:05:26.293Z</time></trkpt><trkpt lat="43.9608177" lon="12.4085197"><ele>188.0</ele><time>2026-04-12T10:05:32.298Z</time></trkpt><trkpt lat="43.9608625" lon="12.4085871"><ele>189.0</ele><time>2026-04-12T10:05:36.301Z</time></trkpt><trkpt lat="43.960894" lon="12.4086663"><ele>190.0</ele><time>2026-04-12T10:05:42.284Z</time></trkpt><trkpt lat="43.960918" lon="12.4087474"><ele>191.42857142857144</ele><time>2026-04-12T10:05:47.293Z</time></trkpt><trkpt lat="43.9609243" lon="12.4088451"><ele>192.85714285714286</ele><time>2026-04-12T10:05:53.303Z</time></trkpt><trkpt lat="43.9609352" lon="12.4089386"><ele>194.28571428571428</ele><time>2026-04-12T10:05:59.277Z</time></trkpt><trkpt lat="43.9609378" lon="12.4090352"><ele>195.71428571428572</ele><time>2026-04-12T10:06:05.292Z</time></trkpt><trkpt lat="43.9609441" lon="12.4091282"><ele>197.14285714285714</ele><time>2026-04-12T10:06:11.29Z</time></trkpt><trkpt lat="43.9609587" lon="12.4092326"><ele>198.57142857142858</ele><time>2026-04-12T10:06:17.306Z</time></trkpt><trkpt lat="43.9609823" lon="12.409325"><ele>200.0</ele><time>2026-04-12T10:06:23.3Z</time></trkpt><trkpt lat="43.9610027" lon="12.4094152"><ele>200.00000000000003</ele><time>2026-04-12T10:06:29.308Z</time></trkpt><trkpt lat="43.9610184" lon="12.409505"><ele>200.0</ele><time>2026-04-12T10:06:35.284Z</time></trkpt><trkpt lat="43.9610272" lon="12.4095945"><ele>200.0</ele><time>2026-04-12T10:06:40.264Z</time></trkpt><trkpt lat="43.9610288" lon="12.4096858"><ele>200.0</ele><time>2026-04-12T10:06:44.295Z</time></trkpt><trkpt lat="43.9610438" lon="12.4097926"><ele>200.0</ele><time>2026-04-12T10:06:49.275Z</time></trkpt><trkpt lat="43.9610342" lon="12.4098945"><ele>200.00000000000003</ele><time>2026-04-12T10:06:53.304Z</time></trkpt><trkpt lat="43.9610139" lon="12.4099962"><ele>200.0</ele><time>2026-04-12T10:06:57.311Z</time></trkpt><trkpt lat="43.9609947" lon="12.4100872"><ele>200.42857142857144</ele><time>2026-04-12T10:07:01.316Z</time></trkpt><trkpt lat="43.9609859" lon="12.410187"><ele>200.85714285714286</ele><time>2026-04-12T10:07:05.311Z</time></trkpt><trkpt lat="43.9609713" lon="12.4102774"><ele>201.28571428571428</ele><time>2026-04-12T10:07:09.272Z</time></trkpt><trkpt lat="43.9609692" lon="12.4103657"><ele>201.71428571428572</ele><time>2026-04-12T10:07:13.3Z</time></trkpt><trkpt lat="43.9609465" lon="12.4104549"><ele>202.14285714285714</ele><time>2026-04-12T10:07:18.28Z</time></trkpt><trkpt lat="43.960942" lon="12.4105522"><ele>202.57142857142858</ele><time>2026-04-12T10:07:23.299Z</time></trkpt><trkpt lat="43.9609393" lon="12.410641"><ele>203.0</ele><time>2026-04-12T10:07:27.296Z</time></trkpt><trkpt lat="43.9609349" lon="12.4107377"><ele>203.42857142857142</ele><time>2026-04-12T10:07:32.308Z</time></trkpt><trkpt lat="43.9609322" lon="12.4108466"><ele>203.85714285714286</ele><time>2026-04-12T10:07:37.268Z</time></trkpt><trkpt lat="43.960931" lon="12.4109473"><ele>204.28571428571428</ele><time>2026-04-12T10:07:41.3Z</time></trkpt><trkpt lat="43.9609399" lon="12.4110397"><ele>204.71428571428572</ele><time>2026-04-12T10:07:45.283Z</time></trkpt><trkpt lat="43.9609378" lon="12.4111319"><ele>205.14285714285714</ele><time>2026-04-12T10:07:50.292Z</time></trkpt><trkpt lat="43.9609109" lon="12.4112139"><ele>205.57142857142856</ele><time>2026-04-12T10:07:55.299Z</time></trkpt><trkpt lat="43.9608912" lon="12.4112973"><ele>206.0</ele><time>2026-04-12T10:07:59.293Z</time></trkpt><trkpt lat="43.960872" lon="12.4113876"><ele>209.16666666666669</ele><time>2026-04-12T10:08:02.332Z</time></trkpt><trkpt lat="43.9608312" lon="12.411494"><ele>212.33333333333334</ele><time>2026-04-12T10:08:05.31Z</time></trkpt><trkpt lat="43.9607987" lon="12.4116176"><ele>215.5</ele><time>2026-04-12T10:08:08.297Z</time></trkpt><trkpt lat="43.9607773" lon="12.411707"><ele>218.66666666666669</ele><time>2026-04-12T10:08:10.309Z</time></trkpt><trkpt lat="43.9607621" lon="12.4117988"><ele>221.83333333333334</ele><time>2026-04-12T10:08:12.286Z</time></trkpt><trkpt lat="43.9607422" lon="12.411907"><ele>225.0</ele><time>2026-04-12T10:08:15.256Z</time></trkpt><trkpt lat="43.9607227" lon="12.411999"><ele>225.00000000000003</ele><time>2026-04-12T10:08:18.288Z</time></trkpt><trkpt lat="43.9607123" lon="12.4120883"><ele>225.0</ele><time>2026-04-12T10:08:21.296Z</time></trkpt><trkpt lat="43.9607208" lon="12.4121819"><ele>225.00000000000003</ele><time>2026-04-12T10:08:24.304Z</time></trkpt><trkpt lat="43.9607187" lon="12.41228"><ele>225.00000000000003</ele><time>2026-04-12T10:08:27.305Z</time></trkpt><trkpt lat="43.9607158" lon="12.4123906"><ele>225.0</ele><time>2026-04-12T10:08:30.3Z</time></trkpt><trkpt lat="43.9607081" lon="12.4125197"><ele>225.00000000000003</ele><time>2026-04-12T10:08:33.306Z</time></trkpt><trkpt lat="43.9606999" lon="12.4126089"><ele>225.00000000000003</ele><time>2026-04-12T10:08:35.284Z</time></trkpt><trkpt lat="43.9606874" lon="12.4127328"><ele>225.28571428571433</ele><time>2026-04-12T10:08:38.297Z</time></trkpt><trkpt lat="43.9606721" lon="12.4128462"><ele>225.57142857142858</ele><time>2026-04-12T10:08:41.262Z</time></trkpt><trkpt lat="43.9606509" lon="12.4129399"><ele>225.8571428571429</ele><time>2026-04-12T10:08:44.254Z</time></trkpt><trkpt lat="43.9606219" lon="12.4130321"><ele>226.14285714285717</ele><time>2026-04-12T10:08:48.241Z</time></trkpt><trkpt lat="43.9605958" lon="12.4131159"><ele>226.42857142857144</ele><time>2026-04-12T10:08:52.236Z</time></trkpt><trkpt lat="43.9605847" lon="12.4132118"><ele>226.71428571428572</ele><time>2026-04-12T10:08:56.3Z</time></trkpt><trkpt lat="43.9605547" lon="12.4133012"><ele>227.0</ele><time>2026-04-12T10:09:00.263Z</time></trkpt><trkpt lat="43.9605307" lon="12.4133831"><ele>227.42857142857144</ele><time>2026-04-12T10:09:03.292Z</time></trkpt><trkpt lat="43.960498" lon="12.4134742"><ele>227.8571428571429</ele><time>2026-04-12T10:09:07.301Z</time></trkpt><trkpt lat="43.9604681" lon="12.4135723"><ele>228.28571428571428</ele><time>2026-04-12T10:09:12.321Z</time></trkpt><trkpt lat="43.9604397" lon="12.4136589"><ele>228.71428571428572</ele><time>2026-04-12T10:09:17.249Z</time></trkpt><trkpt lat="43.9604078" lon="12.413736"><ele>229.14285714285714</ele><time>2026-04-12T10:09:22.305Z</time></trkpt><trkpt lat="43.9603665" lon="12.4138217"><ele>229.57142857142856</ele><time>2026-04-12T10:09:28.308Z</time></trkpt><trkpt lat="43.9603436" lon="12.4139118"><ele>229.99999999999997</ele><time>2026-04-12T10:09:34.323Z</time></trkpt><trkpt lat="43.9603194" lon="12.4139959"><ele>230.85714285714283</ele><time>2026-04-12T10:09:40.318Z</time></trkpt><trkpt lat="43.9603028" lon="12.4140811"><ele>231.71428571428572</ele><time>2026-04-12T10:09:45.273Z</time></trkpt><trkpt lat="43.9602946" lon="12.4141831"><ele>232.57142857142856</ele><time>2026-04-12T10:09:51.286Z</time></trkpt><trkpt lat="43.960285" lon="12.4142867"><ele>233.42857142857142</ele><time>2026-04-12T10:09:55.31Z</time></trkpt><trkpt lat="43.9602651" lon="12.4143898"><ele>234.28571428571428</ele><time>2026-04-12T10:09:59.311Z</time></trkpt><trkpt lat="43.9602289" lon="12.4144677"><ele>235.14285714285714</ele><time>2026-04-12T10:10:03.303Z</time></trkpt><trkpt lat="43.9601776" lon="12.4145468"><ele>236.0</ele><time>2026-04-12T10:10:08.26Z</time></trkpt><trkpt lat="43.9601352" lon="12.4146167"><ele>237.71428571428572</ele><time>2026-04-12T10:10:12.301Z</time></trkpt><trkpt lat="43.9600912" lon="12.4146899"><ele>239.42857142857144</ele><time>2026-04-12T10:10:17.306Z</time></trkpt><trkpt lat="43.9600435" lon="12.4147656"><ele>241.14285714285717</ele><time>2026-04-12T10:10:22.309Z</time></trkpt><trkpt lat="43.9599922" lon="12.4148394"><ele>242.85714285714286</ele><time>2026-04-12T10:10:27.303Z</time></trkpt><trkpt lat="43.9599558" lon="12.4149261"><ele>244.5714285714286</ele><time>2026-04-12T10:10:32.297Z</time></trkpt><trkpt lat="43.9599364" lon="12.4150203"><ele>246.2857142857143</ele><time>2026-04-12T10:10:38.293Z</time></trkpt><trkpt lat="43.9599218" lon="12.4151171"><ele>248.0</ele><time>2026-04-12T10:10:44.3Z</time></trkpt><trkpt lat="43.9599278" lon="12.415207"><ele>249.2857142857143</ele><time>2026-04-12T10:10:50.288Z</time></trkpt><trkpt lat="43.9599468" lon="12.4153035"><ele>250.5714285714286</ele><time>2026-04-12T10:10:56.253Z</time></trkpt><trkpt lat="43.9599573" lon="12.4153933"><ele>251.85714285714286</ele><time>2026-04-12T10:11:02.285Z</time></trkpt><trkpt lat="43.9599783" lon="12.4154872"><ele>253.14285714285717</ele><time>2026-04-12T10:11:08.299Z</time></trkpt><trkpt lat="43.960004" lon="12.4155756"><ele>254.42857142857144</ele><time>2026-04-12T10:11:14.288Z</time></trkpt><trkpt lat="43.9600188" lon="12.4156621"><ele>255.71428571428572</ele><time>2026-04-12T10:11:19.303Z</time></trkpt><trkpt lat="43.9600221" lon="12.4157683"><ele>257.0</ele><time>2026-04-12T10:11:24.291Z</time></trkpt><trkpt lat="43.9600364" lon="12.415865"><ele>257.2857142857143</ele><time>2026-04-12T10:11:28.265Z</time></trkpt><trkpt lat="43.9600512" lon="12.4159698"><ele>257.57142857142856</ele><time>2026-04-12T10:11:33.288Z</time></trkpt><trkpt lat="43.9600715" lon="12.4160654"><ele>257.8571428571429</ele><time>2026-04-12T10:11:38.291Z</time></trkpt><trkpt lat="43.9601084" lon="12.4161511"><ele>258.1428571428571</ele><time>2026-04-12T10:11:43.275Z</time></trkpt><trkpt lat="43.9601422" lon="12.4162387"><ele>258.42857142857144</ele><time>2026-04-12T10:11:48.307Z</time></trkpt><trkpt lat="43.9601705" lon="12.4163333"><ele>258.7142857142857</ele><time>2026-04-12T10:11:54.293Z</time></trkpt><trkpt lat="43.9601685" lon="12.416431"><ele>259.0</ele><time>2026-04-12T10:12:00.301Z</time></trkpt><trkpt lat="43.9601618" lon="12.4165207"><ele>260.0</ele><time>2026-04-12T10:12:06.295Z</time></trkpt><trkpt lat="43.9601461" lon="12.4166095"><ele>261.0</ele><time>2026-04-12T10:12:12.303Z</time></trkpt><trkpt lat="43.9601175" lon="12.4167011"><ele>262.0</ele><time>2026-04-12T10:12:18.307Z</time></trkpt><trkpt lat="43.9600752" lon="12.4167832"><ele>263.0</ele><time>2026-04-12T10:12:23.297Z</time></trkpt><trkpt lat="43.9600471" lon="12.4168777"><ele>264.0</ele><time>2026-04-12T10:12:28.3Z</time></trkpt><trkpt lat="43.9600074" lon="12.4169566"><ele>265.0</ele><time>2026-04-12T10:12:33.301Z</time></trkpt><trkpt lat="43.959973" lon="12.417035"><ele>266.0</ele><time>2026-04-12T10:12:37.286Z</time></trkpt><trkpt lat="43.9599278" lon="12.4170998"><ele>268.0</ele><time>2026-04-12T10:12:42.301Z</time></trkpt><trkpt lat="43.9598741" lon="12.4171808"><ele>270.0</ele><time>2026-04-12T10:12:47.301Z</time></trkpt><trkpt lat="43.9598244" lon="12.4172475"><ele>272.0</ele><time>2026-04-12T10:12:52.296Z</time></trkpt><trkpt lat="43.959767" lon="12.4173047"><ele>274.0</ele><time>2026-04-12T10:12:57.295Z</time></trkpt><trkpt lat="43.9597157" lon="12.4173568"><ele>276.0</ele><time>2026-04-12T10:13:01.299Z</time></trkpt><trkpt lat="43.9596498" lon="12.4174049"><ele>278.0</ele><time>2026-04-12T10:13:06.276Z</time></trkpt><trkpt lat="43.9596163" lon="12.4174807"><ele>280.0</ele><time>2026-04-12T10:13:10.303Z</time></trkpt><trkpt lat="43.9595811" lon="12.4175771"><ele>280.0</ele><time>2026-04-12T10:13:14.289Z</time></trkpt><trkpt lat="43.9595429" lon="12.4176661"><ele>280.0</ele><time>2026-04-12T10:13:18.309Z</time></trkpt><trkpt lat="43.9595093" lon="12.4177436"><ele>280.0</ele><time>2026-04-12T10:13:22.302Z</time></trkpt><trkpt lat="43.9594787" lon="12.4178342"><ele>280.0</ele><time>2026-04-12T10:13:26.294Z</time></trkpt><trkpt lat="43.9594475" lon="12.4179241"><ele>280.0</ele><time>2026-04-12T10:13:30.304Z</time></trkpt><trkpt lat="43.9594199" lon="12.4180281"><ele>280.0</ele><time>2026-04-12T10:13:34.305Z</time></trkpt><trkpt lat="43.9593875" lon="12.4181033"><ele>280.0</ele><time>2026-04-12T10:13:37.293Z</time></trkpt><trkpt lat="43.9593323" lon="12.4181561"><ele>280.0</ele><time>2026-04-12T10:13:40.34Z</time></trkpt><trkpt lat="43.9592817" lon="12.4182209"><ele>280.0</ele><time>2026-04-12T10:13:43.319Z</time></trkpt><trkpt lat="43.9592272" lon="12.4183034"><ele>280.0</ele><time>2026-04-12T10:13:46.302Z</time></trkpt><trkpt lat="43.9591636" lon="12.4183652"><ele>280.0</ele><time>2026-04-12T10:13:49.293Z</time></trkpt><trkpt lat="43.9591039" lon="12.4184135"><ele>280.0</ele><time>2026-04-12T10:13:52.292Z</time></trkpt><trkpt lat="43.9590281" lon="12.4184485"><ele>280.0</ele><time>2026-04-12T10:13:56.299Z</time></trkpt><trkpt lat="43.9589528" lon="12.4184768"><ele>282.16666666666663</ele><time>2026-04-12T10:14:00.304Z</time></trkpt><trkpt lat="43.9588726" lon="12.4185003"><ele>284.3333333333333</ele><time>2026-04-12T10:14:04.315Z</time></trkpt><trkpt lat="43.9587955" lon="12.4185215"><ele>286.5</ele><time>2026-04-12T10:14:09.259Z</time></trkpt><trkpt lat="43.958727" lon="12.4185506"><ele>288.6666666666667</ele><time>2026-04-12T10:14:13.319Z</time></trkpt><trkpt lat="43.9586571" lon="12.41858"><ele>290.83333333333337</ele><time>2026-04-12T10:14:17.294Z</time></trkpt><trkpt lat="43.9585789" lon="12.4186004"><ele>293.0</ele><time>2026-04-12T10:14:21.303Z</time></trkpt><trkpt lat="43.9585017" lon="12.4186108"><ele>292.99999999999994</ele><time>2026-04-12T10:14:25.268Z</time></trkpt><trkpt lat="43.9584342" lon="12.4186188"><ele>293.0</ele><time>2026-04-12T10:14:29.31Z</time></trkpt><trkpt lat="43.9583664" lon="12.4186289"><ele>293.0</ele><time>2026-04-12T10:14:33.304Z</time></trkpt><trkpt lat="43.9582874" lon="12.4186603"><ele>293.0</ele><time>2026-04-12T10:14:37.302Z</time></trkpt><trkpt lat="43.9582299" lon="12.4187147"><ele>293.0</ele><time>2026-04-12T10:14:41.291Z</time></trkpt><trkpt lat="43.9581844" lon="12.4187813"><ele>292.99999999999994</ele><time>2026-04-12T10:14:44.286Z</time></trkpt><trkpt lat="43.9581456" lon="12.4188636"><ele>293.0</ele><time>2026-04-12T10:14:47.301Z</time></trkpt><trkpt lat="43.9581239" lon="12.418951"><ele>294.1666666666667</ele><time>2026-04-12T10:14:50.302Z</time></trkpt><trkpt lat="43.9581016" lon="12.419048"><ele>295.33333333333337</ele><time>2026-04-12T10:14:53.312Z</time></trkpt><trkpt lat="43.958077" lon="12.4191453"><ele>296.5</ele><time>2026-04-12T10:14:56.293Z</time></trkpt><trkpt lat="43.9580579" lon="12.4192524"><ele>297.6666666666667</ele><time>2026-04-12T10:14:59.293Z</time></trkpt><trkpt lat="43.9580335" lon="12.4193336"><ele>298.8333333333333</ele><time>2026-04-12T10:15:01.268Z</time></trkpt><trkpt lat="43.9579972" lon="12.4194456"><ele>300.0</ele><time>2026-04-12T10:15:04.279Z</time></trkpt><trkpt lat="43.9579568" lon="12.4195486"><ele>300.0</ele><time>2026-04-12T10:15:07.31Z</time></trkpt><trkpt lat="43.9579169" lon="12.4196295"><ele>300.0</ele><time>2026-04-12T10:15:10.292Z</time></trkpt><trkpt lat="43.9578859" lon="12.4197239"><ele>300.0</ele><time>2026-04-12T10:15:13.301Z</time></trkpt><trkpt lat="43.9578467" lon="12.4198258"><ele>300.0</ele><time>2026-04-12T10:15:16.316Z</time></trkpt><trkpt lat="43.9578106" lon="12.4199292"><ele>300.0</ele><time>2026-04-12T10:15:19.302Z</time></trkpt><trkpt lat="43.95778" lon="12.4200361"><ele>300.0</ele><time>2026-04-12T10:15:22.3Z</time></trkpt><trkpt lat="43.9577595" lon="12.4201548"><ele>299.99999999999994</ele><time>2026-04-12T10:15:25.267Z</time></trkpt><trkpt lat="43.9577502" lon="12.4202535"><ele>300.0</ele><time>2026-04-12T10:15:27.29Z</time></trkpt><trkpt lat="43.9577452" lon="12.4203483"><ele>300.0</ele><time>2026-04-12T10:15:29.299Z</time></trkpt><trkpt lat="43.9577426" lon="12.4204475"><ele>300.0</ele><time>2026-04-12T10:15:31.278Z</time></trkpt><trkpt lat="43.9577439" lon="12.4205493"><ele>300.0</ele><time>2026-04-12T10:15:33.279Z</time></trkpt><trkpt lat="43.9577451" lon="12.4206433"><ele>299.99999999999994</ele><time>2026-04-12T10:15:35.292Z</time></trkpt><trkpt lat="43.9577531" lon="12.4207387"><ele>300.0</ele><time>2026-04-12T10:15:37.248Z</time></trkpt><trkpt lat="43.9577675" lon="12.4208286"><ele>300.5</ele><time>2026-04-12T10:15:39.28Z</time></trkpt><trkpt lat="43.9577651" lon="12.420918"><ele>301.0</ele><time>2026-04-12T10:15:41.307Z</time></trkpt><trkpt lat="43.9577586" lon="12.4210052"><ele>301.5</ele><time>2026-04-12T10:15:43.29Z</time></trkpt><trkpt lat="43.9577529" lon="12.4211286"><ele>302.0</ele><time>2026-04-12T10:15:46.297Z</time></trkpt><trkpt lat="43.9577415" lon="12.4212475"><ele>302.5</ele><time>2026-04-12T10:15:49.303Z</time></trkpt><trkpt lat="43.9577278" lon="12.4213737"><ele>303.0</ele><time>2026-04-12T10:15:52.308Z</time></trkpt><trkpt lat="43.9577191" lon="12.4214643"><ele>303.0</ele><time>2026-04-12T10:15:54.292Z</time></trkpt><trkpt lat="43.957704" lon="12.4215942"><ele>303.0</ele><time>2026-04-12T10:15:57.289Z</time></trkpt><trkpt lat="43.957688" lon="12.4216863"><ele>303.0</ele><time>2026-04-12T10:15:59.308Z</time></trkpt><trkpt lat="43.9576758" lon="12.4217735"><ele>303.0</ele><time>2026-04-12T10:16:01.303Z</time></trkpt><trkpt lat="43.9576631" lon="12.4218694"><ele>303.0</ele><time>2026-04-12T10:16:03.275Z</time></trkpt><trkpt lat="43.9576491" lon="12.4219683"><ele>303.0</ele><time>2026-04-12T10:16:05.301Z</time></trkpt><trkpt lat="43.9576336" lon="12.4220687"><ele>303.0</ele><time>2026-04-12T10:16:07.31Z</time></trkpt><trkpt lat="43.9576176" lon="12.4221647"><ele>303.0</ele><time>2026-04-12T10:16:09.296Z</time></trkpt><trkpt lat="43.9576008" lon="12.4222722"><ele>303.0</ele><time>2026-04-12T10:16:11.305Z</time></trkpt><trkpt lat="43.9575878" lon="12.4223948"><ele>303.0</ele><time>2026-04-12T10:16:13.302Z</time></trkpt><trkpt lat="43.9575728" lon="12.4225471"><ele>303.0</ele><time>2026-04-12T10:16:15.296Z</time></trkpt><trkpt lat="43.9575567" lon="12.4227105"><ele>303.0</ele><time>2026-04-12T10:16:17.304Z</time></trkpt><trkpt lat="43.9575476" lon="12.4227971"><ele>303.0</ele><time>2026-04-12T10:16:18.305Z</time></trkpt><trkpt lat="43.9575385" lon="12.4228842"><ele>303.0</ele><time>2026-04-12T10:16:19.312Z</time></trkpt><trkpt lat="43.9575339" lon="12.4229731"><ele>303.0</ele><time>2026-04-12T10:16:20.292Z</time></trkpt><trkpt lat="43.9575235" lon="12.42307"><ele>303.0</ele><time>2026-04-12T10:16:21.309Z</time></trkpt><trkpt lat="43.9575159" lon="12.4231679"><ele>303.0</ele><time>2026-04-12T10:16:22.306Z</time></trkpt><trkpt lat="43.9574977" lon="12.4232656"><ele>303.0</ele><time>2026-04-12T10:16:23.297Z</time></trkpt><trkpt lat="43.9574786" lon="12.423369"><ele>303.0</ele><time>2026-04-12T10:16:24.29Z</time></trkpt><trkpt lat="43.9574548" lon="12.4234668"><ele>303.57142857142856</ele><time>2026-04-12T10:16:25.299Z</time></trkpt><trkpt lat="43.9574344" lon="12.4235589"><ele>304.1428571428571</ele><time>2026-04-12T10:16:26.297Z</time></trkpt><trkpt lat="43.9574134" lon="12.423654"><ele>304.71428571428567</ele><time>2026-04-12T10:16:27.297Z</time></trkpt><trkpt lat="43.9573867" lon="12.4237502"><ele>305.2857142857143</ele><time>2026-04-12T10:16:28.301Z</time></trkpt><trkpt lat="43.9573674" lon="12.4238361"><ele>305.85714285714283</ele><time>2026-04-12T10:16:29.299Z</time></trkpt><trkpt lat="43.9573512" lon="12.4239245"><ele>306.4285714285714</ele><time>2026-04-12T10:16:30.303Z</time></trkpt><trkpt lat="43.9573324" lon="12.4240235"><ele>307.0</ele><time>2026-04-12T10:16:31.302Z</time></trkpt><trkpt lat="43.9572939" lon="12.4241914"><ele>307.0</ele><time>2026-04-12T10:16:33.296Z</time></trkpt><trkpt lat="43.9572581" lon="12.4243519"><ele>307.0</ele><time>2026-04-12T10:16:35.304Z</time></trkpt><trkpt lat="43.957223" lon="12.4244992"><ele>307.0</ele><time>2026-04-12T10:16:37.298Z</time></trkpt><trkpt lat="43.9571896" lon="12.4246397"><ele>307.0</ele><time>2026-04-12T10:16:39.308Z</time></trkpt><trkpt lat="43.9571654" lon="12.4247775"><ele>307.0</ele><time>2026-04-12T10:16:41.271Z</time></trkpt><trkpt lat="43.9571444" lon="12.4249057"><ele>306.2</ele><time>2026-04-12T10:16:43.318Z</time></trkpt><trkpt lat="43.957125" lon="12.425033"><ele>305.4</ele><time>2026-04-12T10:16:45.317Z</time></trkpt><trkpt lat="43.9571009" lon="12.4251805"><ele>304.6</ele><time>2026-04-12T10:16:47.292Z</time></trkpt><trkpt lat="43.957087" lon="12.4253228"><ele>303.8</ele><time>2026-04-12T10:16:49.308Z</time></trkpt><trkpt lat="43.9570708" lon="12.4254696"><ele>303.0</ele><time>2026-04-12T10:16:51.279Z</time></trkpt><trkpt lat="43.9570549" lon="12.4256161"><ele>303.0</ele><time>2026-04-12T10:16:53.309Z</time></trkpt><trkpt lat="43.9570428" lon="12.4257632"><ele>303.0</ele><time>2026-04-12T10:16:55.301Z</time></trkpt><trkpt lat="43.957042" lon="12.4258866"><ele>303.0</ele><time>2026-04-12T10:16:57.291Z</time></trkpt><trkpt lat="43.9570255" lon="12.4260181"><ele>303.0</ele><time>2026-04-12T10:16:59.312Z</time></trkpt><trkpt lat="43.95705" lon="12.4261639"><ele>303.0</ele><time>2026-04-12T10:17:01.302Z</time></trkpt><trkpt lat="43.9570915" lon="12.4263031"><ele>304.1666666666667</ele><time>2026-04-12T10:17:03.281Z</time></trkpt><trkpt lat="43.9571471" lon="12.4264331"><ele>305.3333333333333</ele><time>2026-04-12T10:17:05.307Z</time></trkpt><trkpt lat="43.957207" lon="12.4265341"><ele>306.5</ele><time>2026-04-12T10:17:07.275Z</time></trkpt><trkpt lat="43.9572511" lon="12.426626"><ele>307.66666666666663</ele><time>2026-04-12T10:17:09.309Z</time></trkpt><trkpt lat="43.9572949" lon="12.4267211"><ele>308.8333333333333</ele><time>2026-04-12T10:17:11.296Z</time></trkpt><trkpt lat="43.9573342" lon="12.4267988"><ele>310.0</ele><time>2026-04-12T10:17:13.307Z</time></trkpt><trkpt lat="43.9573938" lon="12.4269041"><ele>310.0</ele><time>2026-04-12T10:17:16.307Z</time></trkpt><trkpt lat="43.95745" lon="12.4269874"><ele>310.0</ele><time>2026-04-12T10:17:19.304Z</time></trkpt><trkpt lat="43.9575041" lon="12.4270548"><ele>310.0</ele><time>2026-04-12T10:17:22.296Z</time></trkpt><trkpt lat="43.9575719" lon="12.4271069"><ele>310.0</ele><time>2026-04-12T10:17:25.264Z</time></trkpt><trkpt lat="43.9576515" lon="12.4271255"><ele>310.0</ele><time>2026-04-12T10:17:28.284Z</time></trkpt><trkpt lat="43.9577275" lon="12.4271091"><ele>310.0</ele><time>2026-04-12T10:17:31.296Z</time></trkpt><trkpt lat="43.95781" lon="12.4270849"><ele>311.16666666666663</ele><time>2026-04-12T10:17:34.31Z</time></trkpt><trkpt lat="43.9578898" lon="12.427046"><ele>312.3333333333333</ele><time>2026-04-12T10:17:37.282Z</time></trkpt><trkpt lat="43.957957" lon="12.4270058"><ele>313.5</ele><time>2026-04-12T10:17:40.328Z</time></trkpt><trkpt lat="43.9580306" lon="12.4269469"><ele>314.6666666666667</ele><time>2026-04-12T10:17:43.317Z</time></trkpt><trkpt lat="43.9581044" lon="12.4268984"><ele>315.83333333333337</ele><time>2026-04-12T10:17:46.302Z</time></trkpt><trkpt lat="43.9581745" lon="12.4268529"><ele>317.0</ele><time>2026-04-12T10:17:49.304Z</time></trkpt><trkpt lat="43.9582504" lon="12.4268076"><ele>317.0</ele><time>2026-04-12T10:17:52.275Z</time></trkpt><trkpt lat="43.9583295" lon="12.4267698"><ele>317.0</ele><time>2026-04-12T10:17:55.315Z</time></trkpt><trkpt lat="43.9584064" lon="12.4267739"><ele>317.0</ele><time>2026-04-12T10:17:58.294Z</time></trkpt><trkpt lat="43.9584651" lon="12.426831"><ele>317.0</ele><time>2026-04-12T10:18:01.285Z</time></trkpt><trkpt lat="43.9584773" lon="12.4269316"><ele>317.0</ele><time>2026-04-12T10:18:04.277Z</time></trkpt><trkpt lat="43.9584393" lon="12.4270113"><ele>317.0</ele><time>2026-04-12T10:18:07.289Z</time></trkpt><trkpt lat="43.958373" lon="12.4270709"><ele>317.0</ele><time>2026-04-12T10:18:10.237Z</time></trkpt><trkpt lat="43.9582986" lon="12.4271156"><ele>317.0</ele><time>2026-04-12T10:18:13.308Z</time></trkpt><trkpt lat="43.9582247" lon="12.4271648"><ele>317.0</ele><time>2026-04-12T10:18:16.292Z</time></trkpt><trkpt lat="43.9581683" lon="12.4272592"><ele>317.0</ele><time>2026-04-12T10:18:19.234Z</time></trkpt><trkpt lat="43.9581659" lon="12.427364"><ele>317.0</ele><time>2026-04-12T10:18:22.268Z</time></trkpt><trkpt lat="43.9581962" lon="12.4274556"><ele>317.0</ele><time>2026-04-12T10:18:25.303Z</time></trkpt><trkpt lat="43.9582615" lon="12.4274965"><ele>318.6666666666667</ele><time>2026-04-12T10:18:28.291Z</time></trkpt><trkpt lat="43.9583395" lon="12.4274956"><ele>320.33333333333337</ele><time>2026-04-12T10:18:31.3Z</time></trkpt><trkpt lat="43.9584215" lon="12.4274718"><ele>322.0</ele><time>2026-04-12T10:18:34.3Z</time></trkpt><trkpt lat="43.9585064" lon="12.4274361"><ele>323.6666666666667</ele><time>2026-04-12T10:18:37.263Z</time></trkpt><trkpt lat="43.9585659" lon="12.4274"><ele>325.3333333333333</ele><time>2026-04-12T10:18:39.281Z</time></trkpt><trkpt lat="43.9586431" lon="12.4273637"><ele>327.0</ele><time>2026-04-12T10:18:42.299Z</time></trkpt><trkpt lat="43.9587321" lon="12.4273379"><ele>327.3333333333333</ele><time>2026-04-12T10:18:45.311Z</time></trkpt><trkpt lat="43.9588285" lon="12.4273266"><ele>327.6666666666667</ele><time>2026-04-12T10:18:48.301Z</time></trkpt><trkpt lat="43.9588965" lon="12.4273339"><ele>328.0</ele><time>2026-04-12T10:18:50.302Z</time></trkpt><trkpt lat="43.9589874" lon="12.4273526"><ele>328.33333333333337</ele><time>2026-04-12T10:18:53.302Z</time></trkpt><trkpt lat="43.9590714" lon="12.4273852"><ele>328.6666666666667</ele><time>2026-04-12T10:18:56.317Z</time></trkpt><trkpt lat="43.9591628" lon="12.4274178"><ele>329.0</ele><time>2026-04-12T10:18:59.277Z</time></trkpt><trkpt lat="43.9592284" lon="12.4274879"><ele>328.83333333333337</ele><time>2026-04-12T10:19:02.273Z</time></trkpt><trkpt lat="43.9592942" lon="12.42757"><ele>328.6666666666667</ele><time>2026-04-12T10:19:05.291Z</time></trkpt><trkpt lat="43.9593493" lon="12.4276636"><ele>328.5</ele><time>2026-04-12T10:19:08.309Z</time></trkpt><trkpt lat="43.9593829" lon="12.4277392"><ele>328.3333333333333</ele><time>2026-04-12T10:19:10.266Z</time></trkpt><trkpt lat="43.9594132" lon="12.4278182"><ele>328.16666666666663</ele><time>2026-04-12T10:19:12.295Z</time></trkpt><trkpt lat="43.9594554" lon="12.4279311"><ele>328.0</ele><time>2026-04-12T10:19:15.283Z</time></trkpt><trkpt lat="43.9594848" lon="12.4280088"><ele>328.0</ele><time>2026-04-12T10:19:17.291Z</time></trkpt><trkpt lat="43.9595069" lon="12.4280911"><ele>328.0</ele><time>2026-04-12T10:19:19.287Z</time></trkpt><trkpt lat="43.9595353" lon="12.4282128"><ele>328.0</ele><time>2026-04-12T10:19:22.291Z</time></trkpt><trkpt lat="43.9595638" lon="12.4283216"><ele>328.0</ele><time>2026-04-12T10:19:25.305Z</time></trkpt><trkpt lat="43.9595962" lon="12.4284361"><ele>328.0</ele><time>2026-04-12T10:19:28.296Z</time></trkpt><trkpt lat="43.9596281" lon="12.4285516"><ele>328.0</ele><time>2026-04-12T10:19:31.283Z</time></trkpt><trkpt lat="43.9596483" lon="12.4286633"><ele>328.0</ele><time>2026-04-12T10:19:34.292Z</time></trkpt><trkpt lat="43.9596666" lon="12.4287664"><ele>328.0</ele><time>2026-04-12T10:19:37.312Z</time></trkpt><trkpt lat="43.9596986" lon="12.4288855"><ele>328.0</ele><time>2026-04-12T10:19:40.319Z</time></trkpt><trkpt lat="43.9597235" lon="12.4289978"><ele>328.0</ele><time>2026-04-12T10:19:43.298Z</time></trkpt><trkpt lat="43.9597353" lon="12.4290889"><ele>328.0</ele><time>2026-04-12T10:19:46.309Z</time></trkpt><trkpt lat="43.9597269" lon="12.4292021"><ele>328.0</ele><time>2026-04-12T10:19:50.246Z</time></trkpt><trkpt lat="43.9596779" lon="12.4292816"><ele>329.5</ele><time>2026-04-12T10:19:54.303Z</time></trkpt><trkpt lat="43.9596143" lon="12.4293062"><ele>331.0</ele><time>2026-04-12T10:19:57.309Z</time></trkpt><trkpt lat="43.9595388" lon="12.4292651"><ele>332.5</ele><time>2026-04-12T10:20:01.313Z</time></trkpt><trkpt lat="43.9594985" lon="12.4291866"><ele>334.0</ele><time>2026-04-12T10:20:04.273Z</time></trkpt><trkpt lat="43.959461" lon="12.4290932"><ele>335.5</ele><time>2026-04-12T10:20:07.305Z</time></trkpt><trkpt lat="43.9594294" lon="12.4289977"><ele>337.0</ele><time>2026-04-12T10:20:10.301Z</time></trkpt><trkpt lat="43.9593974" lon="12.4288936"><ele>337.66666666666663</ele><time>2026-04-12T10:20:13.26Z</time></trkpt><trkpt lat="43.9593609" lon="12.4287861"><ele>338.3333333333333</ele><time>2026-04-12T10:20:16.311Z</time></trkpt><trkpt lat="43.9593225" lon="12.4286801"><ele>339.0</ele><time>2026-04-12T10:20:19.309Z</time></trkpt><trkpt lat="43.9592901" lon="12.4285787"><ele>339.6666666666667</ele><time>2026-04-12T10:20:22.278Z</time></trkpt><trkpt lat="43.9592427" lon="12.4284847"><ele>340.33333333333337</ele><time>2026-04-12T10:20:25.317Z</time></trkpt><trkpt lat="43.9591882" lon="12.4283948"><ele>341.0</ele><time>2026-04-12T10:20:28.292Z</time></trkpt><trkpt lat="43.9591285" lon="12.4283279"><ele>341.0</ele><time>2026-04-12T10:20:31.3Z</time></trkpt><trkpt lat="43.9590446" lon="12.4283036"><ele>341.0</ele><time>2026-04-12T10:20:34.287Z</time></trkpt><trkpt lat="43.9589617" lon="12.4282922"><ele>341.0</ele><time>2026-04-12T10:20:37.278Z</time></trkpt><trkpt lat="43.9588812" lon="12.4283217"><ele>341.0</ele><time>2026-04-12T10:20:40.296Z</time></trkpt><trkpt lat="43.9588086" lon="12.4283734"><ele>341.0</ele><time>2026-04-12T10:20:43.311Z</time></trkpt><trkpt lat="43.9587564" lon="12.4284562"><ele>341.0</ele><time>2026-04-12T10:20:46.316Z</time></trkpt><trkpt lat="43.9587277" lon="12.4285513"><ele>341.0</ele><time>2026-04-12T10:20:49.288Z</time></trkpt><trkpt lat="43.9587323" lon="12.4286398"><ele>341.0</ele><time>2026-04-12T10:20:52.299Z</time></trkpt><trkpt lat="43.9587815" lon="12.4287467"><ele>341.0</ele><time>2026-04-12T10:20:55.301Z</time></trkpt><trkpt lat="43.958836" lon="12.4288431"><ele>341.0</ele><time>2026-04-12T10:20:58.309Z</time></trkpt><trkpt lat="43.9588947" lon="12.4289303"><ele>341.0</ele><time>2026-04-12T10:21:01.301Z</time></trkpt><trkpt lat="43.9589511" lon="12.429022"><ele>341.0</ele><time>2026-04-12T10:21:04.299Z</time></trkpt><trkpt lat="43.9589973" lon="12.4291204"><ele>341.6666666666667</ele><time>2026-04-12T10:21:07.296Z</time></trkpt><trkpt lat="43.9590252" lon="12.429227"><ele>342.33333333333337</ele><time>2026-04-12T10:21:10.305Z</time></trkpt><trkpt lat="43.9590458" lon="12.4293365"><ele>343.0</ele><time>2026-04-12T10:21:13.311Z</time></trkpt><trkpt lat="43.9590602" lon="12.4294393"><ele>343.6666666666667</ele><time>2026-04-12T10:21:16.312Z</time></trkpt><trkpt lat="43.9590623" lon="12.4295526"><ele>344.3333333333333</ele><time>2026-04-12T10:21:19.304Z</time></trkpt><trkpt lat="43.9590559" lon="12.4296483"><ele>345.0</ele><time>2026-04-12T10:21:22.313Z</time></trkpt><trkpt lat="43.9590405" lon="12.429754"><ele>346.42857142857144</ele><time>2026-04-12T10:21:26.308Z</time></trkpt><trkpt lat="43.9590131" lon="12.4298626"><ele>347.85714285714283</ele><time>2026-04-12T10:21:30.28Z</time></trkpt><trkpt lat="43.9589902" lon="12.4299523"><ele>349.2857142857143</ele><time>2026-04-12T10:21:34.31Z</time></trkpt><trkpt lat="43.9589892" lon="12.4300439"><ele>350.7142857142857</ele><time>2026-04-12T10:21:38.297Z</time></trkpt><trkpt lat="43.9590185" lon="12.4301332"><ele>352.14285714285717</ele><time>2026-04-12T10:21:44.308Z</time></trkpt><trkpt lat="43.959048" lon="12.4302161"><ele>353.57142857142856</ele><time>2026-04-12T10:21:49.296Z</time></trkpt><trkpt lat="43.9590828" lon="12.4302944"><ele>355.0</ele><time>2026-04-12T10:21:55.319Z</time></trkpt><trkpt lat="43.9591291" lon="12.430364"><ele>355.0</ele><time>2026-04-12T10:22:00.276Z</time></trkpt><trkpt lat="43.959168" lon="12.43045"><ele>355.0</ele><time>2026-04-12T10:22:05.277Z</time></trkpt><trkpt lat="43.9592099" lon="12.4305382"><ele>355.0</ele><time>2026-04-12T10:22:09.302Z</time></trkpt><trkpt lat="43.9592654" lon="12.4306319"><ele>355.0</ele><time>2026-04-12T10:22:13.3Z</time></trkpt><trkpt lat="43.9593109" lon="12.4307056"><ele>355.0</ele><time>2026-04-12T10:22:16.28Z</time></trkpt><trkpt lat="43.9593588" lon="12.430776"><ele>355.0</ele><time>2026-04-12T10:22:19.306Z</time></trkpt><trkpt lat="43.9594095" lon="12.4308556"><ele>355.42857142857144</ele><time>2026-04-12T10:22:22.301Z</time></trkpt><trkpt lat="43.9594565" lon="12.4309335"><ele>355.8571428571429</ele><time>2026-04-12T10:22:26.289Z</time></trkpt><trkpt lat="43.9594795" lon="12.4310211"><ele>356.28571428571433</ele><time>2026-04-12T10:22:33.327Z</time></trkpt><trkpt lat="43.9594143" lon="12.4310792"><ele>356.7142857142857</ele><time>2026-04-12T10:22:39.299Z</time></trkpt><trkpt lat="43.9593479" lon="12.4311179"><ele>357.14285714285717</ele><time>2026-04-12T10:22:43.304Z</time></trkpt><trkpt lat="43.9592842" lon="12.4311539"><ele>357.5714285714286</ele><time>2026-04-12T10:22:47.299Z</time></trkpt><trkpt lat="43.9592212" lon="12.4311936"><ele>358.0</ele><time>2026-04-12T10:22:51.301Z</time></trkpt><trkpt lat="43.9591555" lon="12.4312279"><ele>359.28571428571433</ele><time>2026-04-12T10:22:56.312Z</time></trkpt><trkpt lat="43.9590936" lon="12.4312662"><ele>360.57142857142856</ele><time>2026-04-12T10:23:01.288Z</time></trkpt><trkpt lat="43.9590201" lon="12.4312976"><ele>361.8571428571429</ele><time>2026-04-12T10:23:06.302Z</time></trkpt><trkpt lat="43.9589621" lon="12.4313345"><ele>363.14285714285717</ele><time>2026-04-12T10:23:11.247Z</time></trkpt><trkpt lat="43.9588947" lon="12.4313578"><ele>364.42857142857144</ele><time>2026-04-12T10:23:16.308Z</time></trkpt><trkpt lat="43.9588311" lon="12.4313934"><ele>365.7142857142857</ele><time>2026-04-12T10:23:21.299Z</time></trkpt><trkpt lat="43.9587657" lon="12.4314307"><ele>367.0</ele><time>2026-04-12T10:23:26.255Z</time></trkpt><trkpt lat="43.9587053" lon="12.4314662"><ele>367.7142857142857</ele><time>2026-04-12T10:23:30.254Z</time></trkpt><trkpt lat="43.9586599" lon="12.4315478"><ele>368.42857142857144</ele><time>2026-04-12T10:23:34.273Z</time></trkpt><trkpt lat="43.9586098" lon="12.4316423"><ele>369.14285714285717</ele><time>2026-04-12T10:23:38.3Z</time></trkpt><trkpt lat="43.9585546" lon="12.4317203"><ele>369.8571428571429</ele><time>2026-04-12T10:23:42.306Z</time></trkpt><trkpt lat="43.95851" lon="12.4317825"><ele>370.57142857142856</ele><time>2026-04-12T10:23:45.298Z</time></trkpt><trkpt lat="43.9584621" lon="12.4318604"><ele>371.28571428571433</ele><time>2026-04-12T10:23:49.299Z</time></trkpt><trkpt lat="43.9584091" lon="12.4319338"><ele>372.0</ele><time>2026-04-12T10:23:53.298Z</time></trkpt><trkpt lat="43.9583566" lon="12.4320169"><ele>372.3333333333333</ele><time>2026-04-12T10:23:57.31Z</time></trkpt><trkpt lat="43.9583138" lon="12.432104"><ele>372.6666666666667</ele><time>2026-04-12T10:24:01.304Z</time></trkpt><trkpt lat="43.9582939" lon="12.4322077"><ele>373.0</ele><time>2026-04-12T10:24:05.271Z</time></trkpt><trkpt lat="43.9582935" lon="12.432315"><ele>373.33333333333337</ele><time>2026-04-12T10:24:09.28Z</time></trkpt><trkpt lat="43.9582891" lon="12.4324147"><ele>373.6666666666667</ele><time>2026-04-12T10:24:13.301Z</time></trkpt><trkpt lat="43.9582814" lon="12.4325269"><ele>374.0</ele><time>2026-04-12T10:24:18.309Z</time></trkpt><trkpt lat="43.9582901" lon="12.432631"><ele>374.85714285714283</ele><time>2026-04-12T10:24:23.293Z</time></trkpt><trkpt lat="43.9582892" lon="12.4327262"><ele>375.7142857142857</ele><time>2026-04-12T10:24:28.303Z</time></trkpt><trkpt lat="43.9583089" lon="12.4328244"><ele>376.57142857142856</ele><time>2026-04-12T10:24:33.299Z</time></trkpt><trkpt lat="43.9583291" lon="12.4329135"><ele>377.42857142857144</ele><time>2026-04-12T10:24:38.302Z</time></trkpt><trkpt lat="43.9583596" lon="12.4330017"><ele>378.28571428571433</ele><time>2026-04-12T10:24:43.301Z</time></trkpt><trkpt lat="43.9583935" lon="12.4330905"><ele>379.14285714285717</ele><time>2026-04-12T10:24:48.293Z</time></trkpt><trkpt lat="43.9584111" lon="12.4331796"><ele>380.0</ele><time>2026-04-12T10:24:53.32Z</time></trkpt><trkpt lat="43.9584332" lon="12.4332708"><ele>380.8571428571429</ele><time>2026-04-12T10:24:59.312Z</time></trkpt><trkpt lat="43.9584679" lon="12.4333646"><ele>381.7142857142857</ele><time>2026-04-12T10:25:05.28Z</time></trkpt><trkpt lat="43.9584972" lon="12.4334472"><ele>382.57142857142856</ele><time>2026-04-12T10:25:10.259Z</time></trkpt><trkpt lat="43.9585273" lon="12.4335277"><ele>383.42857142857144</ele><time>2026-04-12T10:25:15.292Z</time></trkpt><trkpt lat="43.9585545" lon="12.4336237"><ele>384.2857142857143</ele><time>2026-04-12T10:25:20.31Z</time></trkpt><trkpt lat="43.9585857" lon="12.433708"><ele>385.14285714285717</ele><time>2026-04-12T10:25:25.288Z</time></trkpt><trkpt lat="43.9586123" lon="12.4337911"><ele>386.0</ele><time>2026-04-12T10:25:29.3Z</time></trkpt><trkpt lat="43.958637" lon="12.4338743"><ele>386.14285714285717</ele><time>2026-04-12T10:25:33.295Z</time></trkpt><trkpt lat="43.958658" lon="12.4339587"><ele>386.2857142857143</ele><time>2026-04-12T10:25:37.313Z</time></trkpt><trkpt lat="43.9586572" lon="12.4340519"><ele>386.42857142857144</ele><time>2026-04-12T10:25:42.32Z</time></trkpt><trkpt lat="43.9586359" lon="12.4341409"><ele>386.57142857142856</ele><time>2026-04-12T10:25:47.295Z</time></trkpt><trkpt lat="43.9586035" lon="12.4342212"><ele>386.7142857142857</ele><time>2026-04-12T10:25:52.307Z</time></trkpt><trkpt lat="43.9585654" lon="12.4342996"><ele>386.8571428571429</ele><time>2026-04-12T10:25:57.324Z</time></trkpt><trkpt lat="43.9585202" lon="12.4343905"><ele>387.0</ele><time>2026-04-12T10:26:02.273Z</time></trkpt><trkpt lat="43.9584692" lon="12.434455"><ele>387.0</ele><time>2026-04-12T10:26:06.279Z</time></trkpt><trkpt lat="43.9584185" lon="12.4345288"><ele>387.0</ele><time>2026-04-12T10:26:10.258Z</time></trkpt><trkpt lat="43.9583615" lon="12.4345962"><ele>387.0</ele><time>2026-04-12T10:26:14.316Z</time></trkpt><trkpt lat="43.9583036" lon="12.4346557"><ele>387.0</ele><time>2026-04-12T10:26:18.301Z</time></trkpt><trkpt lat="43.9582462" lon="12.434727"><ele>387.0</ele><time>2026-04-12T10:26:22.283Z</time></trkpt><trkpt lat="43.9581825" lon="12.434773"><ele>387.0</ele><time>2026-04-12T10:26:26.292Z</time></trkpt><trkpt lat="43.9581279" lon="12.4348494"><ele>387.0</ele><time>2026-04-12T10:26:29.292Z</time></trkpt><trkpt lat="43.9580568" lon="12.4349283"><ele>389.6</ele><time>2026-04-12T10:26:32.3Z</time></trkpt><trkpt lat="43.9580124" lon="12.4350001"><ele>392.20000000000005</ele><time>2026-04-12T10:26:34.27Z</time></trkpt><trkpt lat="43.9579499" lon="12.4350954"><ele>394.8</ele><time>2026-04-12T10:26:36.302Z</time></trkpt><trkpt lat="43.9578816" lon="12.4351764"><ele>397.4</ele><time>2026-04-12T10:26:38.291Z</time></trkpt><trkpt lat="43.9577918" lon="12.4352833"><ele>400.0</ele><time>2026-04-12T10:26:40.295Z</time></trkpt><trkpt lat="43.9576852" lon="12.4353693"><ele>400.0</ele><time>2026-04-12T10:26:42.285Z</time></trkpt><trkpt lat="43.9575772" lon="12.4354425"><ele>400.0</ele><time>2026-04-12T10:26:44.294Z</time></trkpt><trkpt lat="43.9574678" lon="12.4355289"><ele>400.0</ele><time>2026-04-12T10:26:46.292Z</time></trkpt><trkpt lat="43.9574234" lon="12.435593"><ele>400.0</ele><time>2026-04-12T10:26:47.299Z</time></trkpt><trkpt lat="43.9573838" lon="12.4356639"><ele>400.0</ele><time>2026-04-12T10:26:48.26Z</time></trkpt><trkpt lat="43.9573472" lon="12.435829"><ele>400.00000000000006</ele><time>2026-04-12T10:26:50.287Z</time></trkpt><trkpt lat="43.957337" lon="12.4359375"><ele>400.0</ele><time>2026-04-12T10:26:51.289Z</time></trkpt><trkpt lat="43.9573344" lon="12.4360478"><ele>400.0</ele><time>2026-04-12T10:26:52.305Z</time></trkpt><trkpt lat="43.9573244" lon="12.4361647"><ele>400.0</ele><time>2026-04-12T10:26:53.316Z</time></trkpt><trkpt lat="43.9573098" lon="12.4362921"><ele>400.00000000000006</ele><time>2026-04-12T10:26:54.281Z</time></trkpt><trkpt lat="43.9572921" lon="12.4364221"><ele>400.0</ele><time>2026-04-12T10:26:55.3Z</time></trkpt><trkpt lat="43.9572704" lon="12.4365581"><ele>398.50000000000006</ele><time>2026-04-12T10:26:56.301Z</time></trkpt><trkpt lat="43.9572334" lon="12.4366786"><ele>397.0</ele><time>2026-04-12T10:26:57.314Z</time></trkpt><trkpt lat="43.9571931" lon="12.436774"><ele>395.5</ele><time>2026-04-12T10:26:58.3Z</time></trkpt><trkpt lat="43.9571564" lon="12.4368586"><ele>394.0</ele><time>2026-04-12T10:26:59.292Z</time></trkpt><trkpt lat="43.9571099" lon="12.4369691"><ele>392.50000000000006</ele><time>2026-04-12T10:27:01.315Z</time></trkpt><trkpt lat="43.9571697" lon="12.4370321"><ele>391.0</ele><time>2026-04-12T10:27:04.299Z</time></trkpt><trkpt lat="43.9572364" lon="12.4369384"><ele>391.0</ele><time>2026-04-12T10:27:06.301Z</time></trkpt><trkpt lat="43.9572858" lon="12.4368377"><ele>391.0</ele><time>2026-04-12T10:27:08.304Z</time></trkpt><trkpt lat="43.9573424" lon="12.4367408"><ele>391.0</ele><time>2026-04-12T10:27:10.293Z</time></trkpt><trkpt lat="43.9574048" lon="12.4366268"><ele>391.0</ele><time>2026-04-12T10:27:12.304Z</time></trkpt><trkpt lat="43.9574793" lon="12.4365097"><ele>391.0</ele><time>2026-04-12T10:27:14.305Z</time></trkpt><trkpt lat="43.9575696" lon="12.4363991"><ele>391.33333333333337</ele><time>2026-04-12T10:27:16.316Z</time></trkpt><trkpt lat="43.9576223" lon="12.4363434"><ele>391.6666666666667</ele><time>2026-04-12T10:27:17.302Z</time></trkpt><trkpt lat="43.957681" lon="12.4362997"><ele>392.0</ele><time>2026-04-12T10:27:18.297Z</time></trkpt><trkpt lat="43.957809" lon="12.4362678"><ele>392.33333333333337</ele><time>2026-04-12T10:27:20.307Z</time></trkpt><trkpt lat="43.9578749" lon="12.4362606"><ele>392.6666666666667</ele><time>2026-04-12T10:27:21.287Z</time></trkpt><trkpt lat="43.9579473" lon="12.4362598"><ele>393.0</ele><time>2026-04-12T10:27:22.286Z</time></trkpt><trkpt lat="43.9580213" lon="12.4362475"><ele>393.0</ele><time>2026-04-12T10:27:23.296Z</time></trkpt><trkpt lat="43.9580951" lon="12.4362428"><ele>393.0</ele><time>2026-04-12T10:27:24.292Z</time></trkpt><trkpt lat="43.9581704" lon="12.4362442"><ele>393.0</ele><time>2026-04-12T10:27:25.298Z</time></trkpt><trkpt lat="43.9582543" lon="12.4362333"><ele>393.0</ele><time>2026-04-12T10:27:26.311Z</time></trkpt><trkpt lat="43.9583307" lon="12.43622"><ele>393.0</ele><time>2026-04-12T10:27:27.289Z</time></trkpt><trkpt lat="43.9584151" lon="12.4361971"><ele>393.0</ele><time>2026-04-12T10:27:28.263Z</time></trkpt><trkpt lat="43.9584994" lon="12.4361593"><ele>390.79999999999995</ele><time>2026-04-12T10:27:29.293Z</time></trkpt><trkpt lat="43.9585822" lon="12.4361058"><ele>388.6</ele><time>2026-04-12T10:27:30.301Z</time></trkpt><trkpt lat="43.9586618" lon="12.4360466"><ele>386.4</ele><time>2026-04-12T10:27:31.304Z</time></trkpt><trkpt lat="43.9587443" lon="12.4359733"><ele>384.20000000000005</ele><time>2026-04-12T10:27:32.29Z</time></trkpt><trkpt lat="43.9588283" lon="12.4358987"><ele>382.0</ele><time>2026-04-12T10:27:33.301Z</time></trkpt><trkpt lat="43.9589052" lon="12.4358455"><ele>382.0</ele><time>2026-04-12T10:27:34.304Z</time></trkpt><trkpt lat="43.9589738" lon="12.435821"><ele>382.0</ele><time>2026-04-12T10:27:35.306Z</time></trkpt><trkpt lat="43.9590685" lon="12.4359573"><ele>382.0</ele><time>2026-04-12T10:27:37.266Z</time></trkpt><trkpt lat="43.9590862" lon="12.4361002"><ele>382.0</ele><time>2026-04-12T10:27:38.289Z</time></trkpt><trkpt lat="43.9590886" lon="12.4362571"><ele>382.0</ele><time>2026-04-12T10:27:39.301Z</time></trkpt><trkpt lat="43.9590803" lon="12.4363994"><ele>380.0</ele><time>2026-04-12T10:27:40.297Z</time></trkpt><trkpt lat="43.9590334" lon="12.4365386"><ele>378.0</ele><time>2026-04-12T10:27:41.303Z</time></trkpt><trkpt lat="43.95899" lon="12.436653"><ele>376.0</ele><time>2026-04-12T10:27:42.283Z</time></trkpt><trkpt lat="43.9589433" lon="12.4367648"><ele>374.0</ele><time>2026-04-12T10:27:43.267Z</time></trkpt><trkpt lat="43.9588944" lon="12.4368844"><ele>372.0</ele><time>2026-04-12T10:27:44.297Z</time></trkpt><trkpt lat="43.9588519" lon="12.4370124"><ele>370.20000000000005</ele><time>2026-04-12T10:27:45.293Z</time></trkpt><trkpt lat="43.9588349" lon="12.43716"><ele>368.4</ele><time>2026-04-12T10:27:46.307Z</time></trkpt><trkpt lat="43.9588339" lon="12.4373158"><ele>366.6</ele><time>2026-04-12T10:27:47.308Z</time></trkpt><trkpt lat="43.9588555" lon="12.4374624"><ele>364.79999999999995</ele><time>2026-04-12T10:27:48.293Z</time></trkpt><trkpt lat="43.9589077" lon="12.4375936"><ele>363.0</ele><time>2026-04-12T10:27:49.307Z</time></trkpt><trkpt lat="43.9589665" lon="12.4377219"><ele>363.0</ele><time>2026-04-12T10:27:50.284Z</time></trkpt><trkpt lat="43.9590359" lon="12.4378402"><ele>363.0</ele><time>2026-04-12T10:27:51.299Z</time></trkpt><trkpt lat="43.9591303" lon="12.4379514"><ele>363.0</ele><time>2026-04-12T10:27:52.309Z</time></trkpt><trkpt lat="43.9592212" lon="12.4380605"><ele>363.0</ele><time>2026-04-12T10:27:53.262Z</time></trkpt><trkpt lat="43.9593319" lon="12.4381677"><ele>359.75</ele><time>2026-04-12T10:27:54.301Z</time></trkpt><trkpt lat="43.959443" lon="12.438276"><ele>356.5</ele><time>2026-04-12T10:27:55.305Z</time></trkpt><trkpt lat="43.9595638" lon="12.4383806"><ele>353.25</ele><time>2026-04-12T10:27:56.303Z</time></trkpt><trkpt lat="43.9596919" lon="12.4384839"><ele>350.0</ele><time>2026-04-12T10:27:57.299Z</time></trkpt><trkpt lat="43.9598264" lon="12.4385677"><ele>350.0</ele><time>2026-04-12T10:27:58.309Z</time></trkpt><trkpt lat="43.95997" lon="12.4386345"><ele>350.0</ele><time>2026-04-12T10:27:59.293Z</time></trkpt><trkpt lat="43.9601151" lon="12.4386942"><ele>350.0</ele><time>2026-04-12T10:28:00.308Z</time></trkpt><trkpt lat="43.9602557" lon="12.4387534"><ele>345.5</ele><time>2026-04-12T10:28:01.253Z</time></trkpt><trkpt lat="43.9603928" lon="12.4388164"><ele>341.0</ele><time>2026-04-12T10:28:02.298Z</time></trkpt><trkpt lat="43.9605271" lon="12.4388976"><ele>336.5</ele><time>2026-04-12T10:28:03.302Z</time></trkpt><trkpt lat="43.9606583" lon="12.4390022"><ele>332.0</ele><time>2026-04-12T10:28:04.3Z</time></trkpt><trkpt lat="43.9607924" lon="12.4391063"><ele>326.33333333333337</ele><time>2026-04-12T10:28:05.298Z</time></trkpt><trkpt lat="43.9609331" lon="12.439201"><ele>320.6666666666667</ele><time>2026-04-12T10:28:06.295Z</time></trkpt><trkpt lat="43.9610775" lon="12.4392739"><ele>315.0</ele><time>2026-04-12T10:28:07.312Z</time></trkpt><trkpt lat="43.9612271" lon="12.4393303"><ele>315.0</ele><time>2026-04-12T10:28:08.301Z</time></trkpt><trkpt lat="43.9613698" lon="12.4394095"><ele>315.0</ele><time>2026-04-12T10:28:09.313Z</time></trkpt><trkpt lat="43.9615117" lon="12.4394899"><ele>315.0</ele><time>2026-04-12T10:28:10.292Z</time></trkpt><trkpt lat="43.9616474" lon="12.439582"><ele>314.0</ele><time>2026-04-12T10:28:11.309Z</time></trkpt><trkpt lat="43.9617747" lon="12.4396845"><ele>313.0</ele><time>2026-04-12T10:28:12.263Z</time></trkpt><trkpt lat="43.9619022" lon="12.439791"><ele>312.0</ele><time>2026-04-12T10:28:13.308Z</time></trkpt><trkpt lat="43.9620267" lon="12.439893"><ele>311.0</ele><time>2026-04-12T10:28:14.295Z</time></trkpt><trkpt lat="43.9621512" lon="12.4399899"><ele>311.0</ele><time>2026-04-12T10:28:15.282Z</time></trkpt><trkpt lat="43.9622689" lon="12.4400785"><ele>311.0</ele><time>2026-04-12T10:28:16.285Z</time></trkpt><trkpt lat="43.9623816" lon="12.4401618"><ele>311.0</ele><time>2026-04-12T10:28:17.293Z</time></trkpt><trkpt lat="43.9624942" lon="12.4402381"><ele>311.0</ele><time>2026-04-12T10:28:18.296Z</time></trkpt><trkpt lat="43.9626045" lon="12.4402872"><ele>311.2</ele><time>2026-04-12T10:28:19.302Z</time></trkpt><trkpt lat="43.9627119" lon="12.4402973"><ele>311.40000000000003</ele><time>2026-04-12T10:28:20.301Z</time></trkpt><trkpt lat="43.9628216" lon="12.4402547"><ele>311.6</ele><time>2026-04-12T10:28:21.3Z</time></trkpt><trkpt lat="43.9629251" lon="12.4402085"><ele>311.8</ele><time>2026-04-12T10:28:22.307Z</time></trkpt><trkpt lat="43.9630277" lon="12.4401787"><ele>312.0</ele><time>2026-04-12T10:28:23.321Z</time></trkpt><trkpt lat="43.9631308" lon="12.4401603"><ele>312.0</ele><time>2026-04-12T10:28:24.3Z</time></trkpt><trkpt lat="43.9632333" lon="12.4401567"><ele>312.0</ele><time>2026-04-12T10:28:25.292Z</time></trkpt><trkpt lat="43.9633399" lon="12.4401474"><ele>312.0</ele><time>2026-04-12T10:28:26.29Z</time></trkpt><trkpt lat="43.9634395" lon="12.4401327"><ele>312.0</ele><time>2026-04-12T10:28:27.298Z</time></trkpt><trkpt lat="43.963542" lon="12.4401142"><ele>312.0</ele><time>2026-04-12T10:28:28.305Z</time></trkpt><trkpt lat="43.9636454" lon="12.4400857"><ele>310.25</ele><time>2026-04-12T10:28:29.291Z</time></trkpt><trkpt lat="43.9637505" lon="12.4400635"><ele>308.5</ele><time>2026-04-12T10:28:30.3Z</time></trkpt><trkpt lat="43.9638681" lon="12.4400486"><ele>306.75</ele><time>2026-04-12T10:28:31.315Z</time></trkpt><trkpt lat="43.9639858" lon="12.4400546"><ele>305.0</ele><time>2026-04-12T10:28:32.319Z</time></trkpt><trkpt lat="43.964096" lon="12.4400873"><ele>303.5</ele><time>2026-04-12T10:28:33.3Z</time></trkpt><trkpt lat="43.9642135" lon="12.4401265"><ele>302.0</ele><time>2026-04-12T10:28:34.284Z</time></trkpt><trkpt lat="43.9643269" lon="12.440174"><ele>300.5</ele><time>2026-04-12T10:28:35.312Z</time></trkpt><trkpt lat="43.9644374" lon="12.4402085"><ele>299.0</ele><time>2026-04-12T10:28:36.294Z</time></trkpt><trkpt lat="43.9645512" lon="12.4402534"><ele>299.0</ele><time>2026-04-12T10:28:37.304Z</time></trkpt><trkpt lat="43.9646705" lon="12.4402903"><ele>299.0</ele><time>2026-04-12T10:28:38.301Z</time></trkpt><trkpt lat="43.9647928" lon="12.4403392"><ele>299.0</ele><time>2026-04-12T10:28:39.306Z</time></trkpt><trkpt lat="43.9649036" lon="12.4403881"><ele>299.0</ele><time>2026-04-12T10:28:40.311Z</time></trkpt><trkpt lat="43.9650179" lon="12.4404388"><ele>299.0</ele><time>2026-04-12T10:28:41.288Z</time></trkpt><trkpt lat="43.9651372" lon="12.4404918"><ele>299.0</ele><time>2026-04-12T10:28:42.32Z</time></trkpt><trkpt lat="43.9652477" lon="12.4405501"><ele>299.0</ele><time>2026-04-12T10:28:43.302Z</time></trkpt><trkpt lat="43.965359" lon="12.4406109"><ele>299.0</ele><time>2026-04-12T10:28:44.315Z</time></trkpt><trkpt lat="43.9654629" lon="12.4407009"><ele>299.0</ele><time>2026-04-12T10:28:45.283Z</time></trkpt><trkpt lat="43.965554" lon="12.4408185"><ele>299.0</ele><time>2026-04-12T10:28:46.309Z</time></trkpt><trkpt lat="43.965647" lon="12.4409329"><ele>299.0</ele><time>2026-04-12T10:28:47.312Z</time></trkpt><trkpt lat="43.9657345" lon="12.441041"><ele>299.0</ele><time>2026-04-12T10:28:48.304Z</time></trkpt><trkpt lat="43.9658241" lon="12.4411461"><ele>299.59999999999997</ele><time>2026-04-12T10:28:49.312Z</time></trkpt><trkpt lat="43.9659083" lon="12.441242"><ele>300.2</ele><time>2026-04-12T10:28:50.306Z</time></trkpt><trkpt lat="43.9659832" lon="12.4413421"><ele>300.79999999999995</ele><time>2026-04-12T10:28:51.266Z</time></trkpt><trkpt lat="43.966029" lon="12.4414452"><ele>301.4</ele><time>2026-04-12T10:28:52.287Z</time></trkpt><trkpt lat="43.9660277" lon="12.441545"><ele>302.0</ele><time>2026-04-12T10:28:53.32Z</time></trkpt><trkpt lat="43.9659909" lon="12.4416406"><ele>300.8</ele><time>2026-04-12T10:28:54.298Z</time></trkpt><trkpt lat="43.9659171" lon="12.4416867"><ele>299.6</ele><time>2026-04-12T10:28:55.307Z</time></trkpt><trkpt lat="43.9658143" lon="12.4416651"><ele>298.40000000000003</ele><time>2026-04-12T10:28:56.306Z</time></trkpt><trkpt lat="43.9657252" lon="12.4416117"><ele>297.2</ele><time>2026-04-12T10:28:57.261Z</time></trkpt><trkpt lat="43.9656385" lon="12.4415528"><ele>296.0</ele><time>2026-04-12T10:28:58.29Z</time></trkpt><trkpt lat="43.9655578" lon="12.4414893"><ele>294.83333333333337</ele><time>2026-04-12T10:28:59.298Z</time></trkpt><trkpt lat="43.9654712" lon="12.4414341"><ele>293.6666666666667</ele><time>2026-04-12T10:29:00.3Z</time></trkpt><trkpt lat="43.9653917" lon="12.4413996"><ele>292.5</ele><time>2026-04-12T10:29:01.312Z</time></trkpt><trkpt lat="43.9653106" lon="12.4414068"><ele>291.3333333333333</ele><time>2026-04-12T10:29:02.287Z</time></trkpt><trkpt lat="43.9652528" lon="12.4414684"><ele>290.16666666666663</ele><time>2026-04-12T10:29:03.306Z</time></trkpt><trkpt lat="43.9652535" lon="12.4415726"><ele>289.0</ele><time>2026-04-12T10:29:04.271Z</time></trkpt><trkpt lat="43.965294" lon="12.441682"><ele>289.0</ele><time>2026-04-12T10:29:05.288Z</time></trkpt><trkpt lat="43.9653594" lon="12.4417862"><ele>289.0</ele><time>2026-04-12T10:29:06.277Z</time></trkpt><trkpt lat="43.9654203" lon="12.4418838"><ele>289.0</ele><time>2026-04-12T10:29:07.263Z</time></trkpt><trkpt lat="43.9654753" lon="12.4419595"><ele>289.0</ele><time>2026-04-12T10:29:08.292Z</time></trkpt><trkpt lat="43.9655482" lon="12.4420485"><ele>289.0</ele><time>2026-04-12T10:29:09.31Z</time></trkpt><trkpt lat="43.965619" lon="12.4421465"><ele>288.0</ele><time>2026-04-12T10:29:10.259Z</time></trkpt><trkpt lat="43.9656854" lon="12.4422351"><ele>287.0</ele><time>2026-04-12T10:29:11.305Z</time></trkpt><trkpt lat="43.9657557" lon="12.4423271"><ele>286.0</ele><time>2026-04-12T10:29:12.288Z</time></trkpt><trkpt lat="43.9658245" lon="12.4424128"><ele>285.0</ele><time>2026-04-12T10:29:13.298Z</time></trkpt><trkpt lat="43.9659015" lon="12.4425074"><ele>284.0</ele><time>2026-04-12T10:29:14.306Z</time></trkpt><trkpt lat="43.9659801" lon="12.4426122"><ele>284.0</ele><time>2026-04-12T10:29:15.289Z</time></trkpt><trkpt lat="43.966057" lon="12.4427178"><ele>284.0</ele><time>2026-04-12T10:29:16.305Z</time></trkpt><trkpt lat="43.9661373" lon="12.4428172"><ele>284.0</ele><time>2026-04-12T10:29:17.301Z</time></trkpt><trkpt lat="43.9662202" lon="12.4429249"><ele>284.0</ele><time>2026-04-12T10:29:18.293Z</time></trkpt><trkpt lat="43.9663053" lon="12.4430288"><ele>284.0</ele><time>2026-04-12T10:29:19.301Z</time></trkpt><trkpt lat="43.966388" lon="12.4431218"><ele>282.2</ele><time>2026-04-12T10:29:20.302Z</time></trkpt><trkpt lat="43.966465" lon="12.4432212"><ele>280.4</ele><time>2026-04-12T10:29:21.288Z</time></trkpt><trkpt lat="43.9665378" lon="12.4433397"><ele>278.6</ele><time>2026-04-12T10:29:22.291Z</time></trkpt><trkpt lat="43.9665978" lon="12.4434637"><ele>276.8</ele><time>2026-04-12T10:29:23.294Z</time></trkpt><trkpt lat="43.9666403" lon="12.4436091"><ele>275.0</ele><time>2026-04-12T10:29:24.292Z</time></trkpt><trkpt lat="43.9666703" lon="12.4437688"><ele>273.0</ele><time>2026-04-12T10:29:25.256Z</time></trkpt><trkpt lat="43.9666734" lon="12.4439353"><ele>271.0</ele><time>2026-04-12T10:29:26.294Z</time></trkpt><trkpt lat="43.9666701" lon="12.4440921"><ele>269.0</ele><time>2026-04-12T10:29:27.296Z</time></trkpt><trkpt lat="43.9666571" lon="12.4442513"><ele>267.0</ele><time>2026-04-12T10:29:28.318Z</time></trkpt><trkpt lat="43.966632" lon="12.4444102"><ele>267.0</ele><time>2026-04-12T10:29:29.305Z</time></trkpt><trkpt lat="43.9666076" lon="12.444566"><ele>267.0</ele><time>2026-04-12T10:29:30.292Z</time></trkpt><trkpt lat="43.9665807" lon="12.4447256"><ele>267.0</ele><time>2026-04-12T10:29:31.309Z</time></trkpt><trkpt lat="43.9665546" lon="12.4448877"><ele>267.0</ele><time>2026-04-12T10:29:32.292Z</time></trkpt><trkpt lat="43.9665338" lon="12.4450539"><ele>266.5</ele><time>2026-04-12T10:29:33.302Z</time></trkpt><trkpt lat="43.9665154" lon="12.445218"><ele>266.0</ele><time>2026-04-12T10:29:34.301Z</time></trkpt><trkpt lat="43.9664872" lon="12.4453829"><ele>265.5</ele><time>2026-04-12T10:29:35.308Z</time></trkpt><trkpt lat="43.9664658" lon="12.4455459"><ele>265.0</ele><time>2026-04-12T10:29:36.302Z</time></trkpt><trkpt lat="43.966447" lon="12.4457065"><ele>263.75</ele><time>2026-04-12T10:29:37.273Z</time></trkpt><trkpt lat="43.9664305" lon="12.4458677"><ele>262.5</ele><time>2026-04-12T10:29:38.299Z</time></trkpt><trkpt lat="43.9664129" lon="12.4460275"><ele>261.25</ele><time>2026-04-12T10:29:39.309Z</time></trkpt><trkpt lat="43.9664034" lon="12.4461917"><ele>260.0</ele><time>2026-04-12T10:29:40.295Z</time></trkpt><trkpt lat="43.9664031" lon="12.4463616"><ele>258.5</ele><time>2026-04-12T10:29:41.309Z</time></trkpt><trkpt lat="43.9664005" lon="12.4465219"><ele>257.0</ele><time>2026-04-12T10:29:42.301Z</time></trkpt><trkpt lat="43.9663968" lon="12.4466813"><ele>255.5</ele><time>2026-04-12T10:29:43.293Z</time></trkpt><trkpt lat="43.9663951" lon="12.446837"><ele>254.0</ele><time>2026-04-12T10:29:44.292Z</time></trkpt><trkpt lat="43.9663981" lon="12.4469916"><ele>253.39999999999998</ele><time>2026-04-12T10:29:45.295Z</time></trkpt><trkpt lat="43.9664047" lon="12.4471414"><ele>252.79999999999998</ele><time>2026-04-12T10:29:46.281Z</time></trkpt><trkpt lat="43.9664127" lon="12.447283"><ele>252.20000000000002</ele><time>2026-04-12T10:29:47.299Z</time></trkpt><trkpt lat="43.966411" lon="12.4474084"><ele>251.60000000000002</ele><time>2026-04-12T10:29:48.295Z</time></trkpt><trkpt lat="43.9663756" lon="12.4475249"><ele>251.0</ele><time>2026-04-12T10:29:49.308Z</time></trkpt><trkpt lat="43.9663255" lon="12.4476239"><ele>251.0</ele><time>2026-04-12T10:29:50.267Z</time></trkpt><trkpt lat="43.9662703" lon="12.4477131"><ele>251.00000000000003</ele><time>2026-04-12T10:29:51.302Z</time></trkpt><trkpt lat="43.9662176" lon="12.4478098"><ele>251.00000000000003</ele><time>2026-04-12T10:29:52.305Z</time></trkpt><trkpt lat="43.9661786" lon="12.447913"><ele>251.0</ele><time>2026-04-12T10:29:53.303Z</time></trkpt><trkpt lat="43.9661386" lon="12.4480046"><ele>251.0</ele><time>2026-04-12T10:29:54.265Z</time></trkpt><trkpt lat="43.9660814" lon="12.448166"><ele>251.1428571428571</ele><time>2026-04-12T10:29:56.304Z</time></trkpt><trkpt lat="43.9660642" lon="12.448259"><ele>251.28571428571428</ele><time>2026-04-12T10:29:57.292Z</time></trkpt><trkpt lat="43.966044" lon="12.4483436"><ele>251.42857142857142</ele><time>2026-04-12T10:29:58.248Z</time></trkpt><trkpt lat="43.9660212" lon="12.4484304"><ele>251.57142857142856</ele><time>2026-04-12T10:29:59.277Z</time></trkpt><trkpt lat="43.9660034" lon="12.4485332"><ele>251.71428571428572</ele><time>2026-04-12T10:30:00.293Z</time></trkpt><trkpt lat="43.9659723" lon="12.4486409"><ele>251.85714285714286</ele><time>2026-04-12T10:30:01.324Z</time></trkpt><trkpt lat="43.9659293" lon="12.448748"><ele>252.0</ele><time>2026-04-12T10:30:02.317Z</time></trkpt><trkpt lat="43.96587" lon="12.4488613"><ele>249.5</ele><time>2026-04-12T10:30:03.324Z</time></trkpt><trkpt lat="43.9657998" lon="12.4489737"><ele>247.0</ele><time>2026-04-12T10:30:04.321Z</time></trkpt><trkpt lat="43.9657266" lon="12.4490909"><ele>244.5</ele><time>2026-04-12T10:30:05.316Z</time></trkpt><trkpt lat="43.9656395" lon="12.449213"><ele>242.0</ele><time>2026-04-12T10:30:06.314Z</time></trkpt><trkpt lat="43.9655455" lon="12.4493414"><ele>242.0</ele><time>2026-04-12T10:30:07.319Z</time></trkpt><trkpt lat="43.9654597" lon="12.4494669"><ele>242.0</ele><time>2026-04-12T10:30:08.314Z</time></trkpt><trkpt lat="43.9653869" lon="12.4495917"><ele>242.0</ele><time>2026-04-12T10:30:09.31Z</time></trkpt><trkpt lat="43.9653271" lon="12.4497303"><ele>242.0</ele><time>2026-04-12T10:30:10.3Z</time></trkpt><trkpt lat="43.9652854" lon="12.449883"><ele>241.0</ele><time>2026-04-12T10:30:11.296Z</time></trkpt><trkpt lat="43.9652507" lon="12.4500438"><ele>240.0</ele><time>2026-04-12T10:30:12.287Z</time></trkpt><trkpt lat="43.9652272" lon="12.4502104"><ele>239.0</ele><time>2026-04-12T10:30:13.266Z</time></trkpt><trkpt lat="43.9651984" lon="12.4503713"><ele>238.0</ele><time>2026-04-12T10:30:14.303Z</time></trkpt><trkpt lat="43.9651451" lon="12.4505168"><ele>236.16666666666666</ele><time>2026-04-12T10:30:15.266Z</time></trkpt><trkpt lat="43.965088" lon="12.450649"><ele>234.33333333333331</ele><time>2026-04-12T10:30:16.293Z</time></trkpt><trkpt lat="43.9650399" lon="12.4507775"><ele>232.5</ele><time>2026-04-12T10:30:17.288Z</time></trkpt><trkpt lat="43.9650018" lon="12.4508826"><ele>230.66666666666669</ele><time>2026-04-12T10:30:18.277Z</time></trkpt><trkpt lat="43.9649607" lon="12.4509572"><ele>228.83333333333334</ele><time>2026-04-12T10:30:19.307Z</time></trkpt><trkpt lat="43.9648993" lon="12.4509895"><ele>227.0</ele><time>2026-04-12T10:30:20.288Z</time></trkpt><trkpt lat="43.9648257" lon="12.4509733"><ele>225.42857142857144</ele><time>2026-04-12T10:30:21.304Z</time></trkpt><trkpt lat="43.9647666" lon="12.4509347"><ele>223.8571428571429</ele><time>2026-04-12T10:30:22.299Z</time></trkpt><trkpt lat="43.9647201" lon="12.4508616"><ele>222.28571428571428</ele><time>2026-04-12T10:30:23.301Z</time></trkpt><trkpt lat="43.9646733" lon="12.4507869"><ele>220.71428571428572</ele><time>2026-04-12T10:30:24.275Z</time></trkpt><trkpt lat="43.9646238" lon="12.4507055"><ele>219.14285714285714</ele><time>2026-04-12T10:30:25.307Z</time></trkpt><trkpt lat="43.9645631" lon="12.4506247"><ele>217.57142857142856</ele><time>2026-04-12T10:30:26.315Z</time></trkpt><trkpt lat="43.9645118" lon="12.4505441"><ele>216.0</ele><time>2026-04-12T10:30:27.303Z</time></trkpt><trkpt lat="43.9644538" lon="12.4505087"><ele>216.0</ele><time>2026-04-12T10:30:28.304Z</time></trkpt><trkpt lat="43.9643905" lon="12.4505235"><ele>216.00000000000003</ele><time>2026-04-12T10:30:29.302Z</time></trkpt><trkpt lat="43.9643017" lon="12.4505869"><ele>216.00000000000003</ele><time>2026-04-12T10:30:30.292Z</time></trkpt><trkpt lat="43.9642279" lon="12.4506718"><ele>216.0</ele><time>2026-04-12T10:30:31.29Z</time></trkpt><trkpt lat="43.9641448" lon="12.4507578"><ele>216.0</ele><time>2026-04-12T10:30:32.313Z</time></trkpt><trkpt lat="43.9640654" lon="12.450847"><ele>213.0</ele><time>2026-04-12T10:30:33.321Z</time></trkpt><trkpt lat="43.9639746" lon="12.4509262"><ele>210.00000000000003</ele><time>2026-04-12T10:30:34.304Z</time></trkpt><trkpt lat="43.9638697" lon="12.4509893"><ele>207.0</ele><time>2026-04-12T10:30:35.314Z</time></trkpt><trkpt lat="43.9637628" lon="12.4509948"><ele>204.0</ele><time>2026-04-12T10:30:36.307Z</time></trkpt><trkpt lat="43.9636736" lon="12.4509689"><ele>201.0</ele><time>2026-04-12T10:30:37.328Z</time></trkpt><trkpt lat="43.9635926" lon="12.4509634"><ele>201.0</ele><time>2026-04-12T10:30:38.301Z</time></trkpt><trkpt lat="43.96351" lon="12.4510004"><ele>201.0</ele><time>2026-04-12T10:30:39.309Z</time></trkpt><trkpt lat="43.9634241" lon="12.4510582"><ele>201.0</ele><time>2026-04-12T10:30:40.301Z</time></trkpt><trkpt lat="43.9633403" lon="12.4511374"><ele>201.0</ele><time>2026-04-12T10:30:41.31Z</time></trkpt><trkpt lat="43.9632571" lon="12.4511696"><ele>201.0</ele><time>2026-04-12T10:30:42.328Z</time></trkpt><trkpt lat="43.963188" lon="12.451137"><ele>201.0</ele><time>2026-04-12T10:30:43.301Z</time></trkpt><trkpt lat="43.9631317" lon="12.4510644"><ele>199.0</ele><time>2026-04-12T10:30:44.249Z</time></trkpt><trkpt lat="43.9630986" lon="12.4509796"><ele>197.0</ele><time>2026-04-12T10:30:45.301Z</time></trkpt><trkpt lat="43.9630821" lon="12.4508925"><ele>195.0</ele><time>2026-04-12T10:30:46.305Z</time></trkpt><trkpt lat="43.9630817" lon="12.4507314"><ele>193.0</ele><time>2026-04-12T10:30:48.259Z</time></trkpt><trkpt lat="43.9630887" lon="12.4505925"><ele>191.0</ele><time>2026-04-12T10:30:50.296Z</time></trkpt><trkpt lat="43.9630894" lon="12.4504506"><ele>191.0</ele><time>2026-04-12T10:30:52.271Z</time></trkpt><trkpt lat="43.9630978" lon="12.4503209"><ele>191.0</ele><time>2026-04-12T10:30:54.318Z</time></trkpt><trkpt lat="43.9631012" lon="12.4501968"><ele>191.0</ele><time>2026-04-12T10:30:56.28Z</time></trkpt><trkpt lat="43.9630999" lon="12.4500743"><ele>191.0</ele><time>2026-04-12T10:30:58.308Z</time></trkpt><trkpt lat="43.9630859" lon="12.4499421"><ele>191.0</ele><time>2026-04-12T10:31:00.298Z</time></trkpt><trkpt lat="43.9630604" lon="12.4498569"><ele>191.0</ele><time>2026-04-12T10:31:03.317Z</time></trkpt><trkpt lat="43.9630151" lon="12.4497917"><ele>191.0</ele><time>2026-04-12T10:31:37.3Z</time></trkpt><trkpt lat="43.9629393" lon="12.4497521"><ele>191.0</ele><time>2026-04-12T10:32:28.287Z</time></trkpt><trkpt lat="43.9628666" lon="12.4497049"><ele>191.0</ele><time>2026-04-12T10:32:31.278Z</time></trkpt><trkpt lat="43.9627968" lon="12.4496835"><ele>191.0</ele><time>2026-04-12T10:32:33.307Z</time></trkpt><trkpt lat="43.9627381" lon="12.4496518"><ele>191.0</ele><time>2026-04-12T10:32:35.305Z</time></trkpt><trkpt lat="43.9626796" lon="12.4495952"><ele>191.0</ele><time>2026-04-12T10:32:37.3Z</time></trkpt><trkpt lat="43.9626226" lon="12.4495101"><ele>191.33333333333331</ele><time>2026-04-12T10:32:40.297Z</time></trkpt><trkpt lat="43.9625844" lon="12.4494046"><ele>191.66666666666666</ele><time>2026-04-12T10:32:43.25Z</time></trkpt><trkpt lat="43.9625668" lon="12.4493042"><ele>192.0</ele><time>2026-04-12T10:32:46.268Z</time></trkpt><trkpt lat="43.9625436" lon="12.4492098"><ele>192.33333333333331</ele><time>2026-04-12T10:32:49.31Z</time></trkpt><trkpt lat="43.9625117" lon="12.4491102"><ele>192.66666666666666</ele><time>2026-04-12T10:32:52.289Z</time></trkpt><trkpt lat="43.9624744" lon="12.4490333"><ele>193.0</ele><time>2026-04-12T10:32:55.296Z</time></trkpt><trkpt lat="43.9624171" lon="12.4489528"><ele>192.99999999999997</ele><time>2026-04-12T10:32:58.299Z</time></trkpt><trkpt lat="43.962353" lon="12.4488822"><ele>193.0</ele><time>2026-04-12T10:33:01.312Z</time></trkpt><trkpt lat="43.9622867" lon="12.4488242"><ele>193.0</ele><time>2026-04-12T10:33:04.296Z</time></trkpt><trkpt lat="43.962211" lon="12.4487692"><ele>193.0</ele><time>2026-04-12T10:33:07.313Z</time></trkpt><trkpt lat="43.9621443" lon="12.4487199"><ele>192.99999999999997</ele><time>2026-04-12T10:33:10.295Z</time></trkpt><trkpt lat="43.9620736" lon="12.4486636"><ele>193.0</ele><time>2026-04-12T10:33:14.294Z</time></trkpt><trkpt lat="43.9620104" lon="12.4486189"><ele>194.14285714285717</ele><time>2026-04-12T10:33:18.293Z</time></trkpt><trkpt lat="43.9619497" lon="12.4485733"><ele>195.28571428571428</ele><time>2026-04-12T10:33:23.302Z</time></trkpt><trkpt lat="43.9618782" lon="12.4485365"><ele>196.42857142857144</ele><time>2026-04-12T10:33:29.298Z</time></trkpt><trkpt lat="43.9618084" lon="12.4485074"><ele>197.57142857142858</ele><time>2026-04-12T10:33:34.253Z</time></trkpt><trkpt lat="43.9617329" lon="12.4485011"><ele>198.71428571428572</ele><time>2026-04-12T10:33:39.298Z</time></trkpt><trkpt lat="43.9616693" lon="12.4484822"><ele>199.85714285714286</ele><time>2026-04-12T10:33:45.31Z</time></trkpt><trkpt lat="43.9615992" lon="12.4484901"><ele>201.0</ele><time>2026-04-12T10:33:52.303Z</time></trkpt><trkpt lat="43.961536" lon="12.4484935"><ele>202.0</ele><time>2026-04-12T10:33:57.293Z</time></trkpt><trkpt lat="43.9614651" lon="12.4484961"><ele>203.0</ele><time>2026-04-12T10:34:03.301Z</time></trkpt><trkpt lat="43.9614005" lon="12.448521"><ele>204.0</ele><time>2026-04-12T10:34:10.271Z</time></trkpt><trkpt lat="43.9613334" lon="12.4485391"><ele>205.0</ele><time>2026-04-12T10:34:17.284Z</time></trkpt><trkpt lat="43.9612674" lon="12.4485691"><ele>206.0</ele><time>2026-04-12T10:34:24.295Z</time></trkpt><trkpt lat="43.9611954" lon="12.4485978"><ele>207.0</ele><time>2026-04-12T10:34:31.303Z</time></trkpt><trkpt lat="43.961125" lon="12.4486093"><ele>208.0</ele><time>2026-04-12T10:34:39.295Z</time></trkpt><trkpt lat="43.9610649" lon="12.4486619"><ele>208.0</ele><time>2026-04-12T10:34:46.284Z</time></trkpt><trkpt lat="43.9610161" lon="12.4487297"><ele>208.0</ele><time>2026-04-12T10:34:51.29Z</time></trkpt><trkpt lat="43.9609621" lon="12.4487871"><ele>208.0</ele><time>2026-04-12T10:34:55.241Z</time></trkpt><trkpt lat="43.9609074" lon="12.4488458"><ele>208.0</ele><time>2026-04-12T10:35:01.301Z</time></trkpt><trkpt lat="43.9608608" lon="12.4489296"><ele>208.0</ele><time>2026-04-12T10:35:06.323Z</time></trkpt><trkpt lat="43.9608127" lon="12.4490044"><ele>208.0</ele><time>2026-04-12T10:35:10.293Z</time></trkpt><trkpt lat="43.96078" lon="12.4490917"><ele>208.0</ele><time>2026-04-12T10:35:14.245Z</time></trkpt><trkpt lat="43.9607458" lon="12.4491737"><ele>210.28571428571428</ele><time>2026-04-12T10:35:18.286Z</time></trkpt><trkpt lat="43.9606996" lon="12.449264"><ele>212.57142857142858</ele><time>2026-04-12T10:35:23.3Z</time></trkpt><trkpt lat="43.9606547" lon="12.4493345"><ele>214.85714285714286</ele><time>2026-04-12T10:35:28.288Z</time></trkpt><trkpt lat="43.960607" lon="12.4494113"><ele>217.14285714285714</ele><time>2026-04-12T10:35:33.289Z</time></trkpt><trkpt lat="43.9605591" lon="12.449485"><ele>219.42857142857144</ele><time>2026-04-12T10:35:38.298Z</time></trkpt><trkpt lat="43.9605309" lon="12.4495723"><ele>221.71428571428572</ele><time>2026-04-12T10:35:44.294Z</time></trkpt><trkpt lat="43.960503" lon="12.4496654"><ele>224.0</ele><time>2026-04-12T10:35:51.29Z</time></trkpt><trkpt lat="43.9604906" lon="12.4497743"><ele>224.0</ele><time>2026-04-12T10:35:57.303Z</time></trkpt><trkpt lat="43.9604783" lon="12.4498611"><ele>224.0</ele><time>2026-04-12T10:36:01.317Z</time></trkpt><trkpt lat="43.9604692" lon="12.4499491"><ele>224.0</ele><time>2026-04-12T10:36:07.3Z</time></trkpt><trkpt lat="43.9604529" lon="12.4500372"><ele>224.0</ele><time>2026-04-12T10:36:11.306Z</time></trkpt><trkpt lat="43.960442" lon="12.4501241"><ele>224.0</ele><time>2026-04-12T10:36:15.282Z</time></trkpt><trkpt lat="43.9604238" lon="12.4502177"><ele>224.0</ele><time>2026-04-12T10:36:19.303Z</time></trkpt><trkpt lat="43.9603971" lon="12.450311"><ele>224.0</ele><time>2026-04-12T10:36:22.3Z</time></trkpt><trkpt lat="43.960355" lon="12.4504475"><ele>224.2</ele><time>2026-04-12T10:36:25.295Z</time></trkpt><trkpt lat="43.9602994" lon="12.4505629"><ele>224.39999999999998</ele><time>2026-04-12T10:36:27.299Z</time></trkpt><trkpt lat="43.9602024" lon="12.4506616"><ele>224.6</ele><time>2026-04-12T10:36:29.308Z</time></trkpt><trkpt lat="43.960086" lon="12.4506838"><ele>224.8</ele><time>2026-04-12T10:36:31.296Z</time></trkpt><trkpt lat="43.9600193" lon="12.4506961"><ele>225.0</ele><time>2026-04-12T10:36:33.289Z</time></trkpt><trkpt lat="43.9599457" lon="12.4507205"><ele>226.5714285714286</ele><time>2026-04-12T10:36:36.315Z</time></trkpt><trkpt lat="43.9598774" lon="12.4507325"><ele>228.14285714285717</ele><time>2026-04-12T10:36:39.307Z</time></trkpt><trkpt lat="43.95981" lon="12.4507418"><ele>229.71428571428572</ele><time>2026-04-12T10:36:43.302Z</time></trkpt><trkpt lat="43.959746" lon="12.4507617"><ele>231.2857142857143</ele><time>2026-04-12T10:36:47.287Z</time></trkpt><trkpt lat="43.9596668" lon="12.450769"><ele>232.8571428571429</ele><time>2026-04-12T10:36:52.311Z</time></trkpt><trkpt lat="43.959596" lon="12.45078"><ele>234.42857142857142</ele><time>2026-04-12T10:36:57.305Z</time></trkpt><trkpt lat="43.9595313" lon="12.4508058"><ele>236.0</ele><time>2026-04-12T10:37:02.297Z</time></trkpt><trkpt lat="43.9594585" lon="12.4508145"><ele>236.0</ele><time>2026-04-12T10:37:07.313Z</time></trkpt><trkpt lat="43.9593944" lon="12.4508367"><ele>236.0</ele><time>2026-04-12T10:37:12.314Z</time></trkpt><trkpt lat="43.9593299" lon="12.4508833"><ele>236.0</ele><time>2026-04-12T10:37:17.294Z</time></trkpt><trkpt lat="43.9592644" lon="12.4509153"><ele>236.0</ele><time>2026-04-12T10:37:22.311Z</time></trkpt><trkpt lat="43.9592005" lon="12.4509653"><ele>236.0</ele><time>2026-04-12T10:37:28.285Z</time></trkpt><trkpt lat="43.9591299" lon="12.4509979"><ele>236.0</ele><time>2026-04-12T10:37:33.309Z</time></trkpt><trkpt lat="43.9590492" lon="12.4510173"><ele>236.0</ele><time>2026-04-12T10:37:37.3Z</time></trkpt><trkpt lat="43.9589699" lon="12.4510641"><ele>236.50000000000003</ele><time>2026-04-12T10:37:41.291Z</time></trkpt><trkpt lat="43.9588726" lon="12.4510773"><ele>237.0</ele><time>2026-04-12T10:37:43.3Z</time></trkpt><trkpt lat="43.9588155" lon="12.4511269"><ele>237.5</ele><time>2026-04-12T10:37:44.262Z</time></trkpt><trkpt lat="43.9587543" lon="12.4512089"><ele>238.0</ele><time>2026-04-12T10:37:45.317Z</time></trkpt><trkpt lat="43.9587013" lon="12.4513008"><ele>238.50000000000003</ele><time>2026-04-12T10:37:46.293Z</time></trkpt><trkpt lat="43.9586376" lon="12.4514054"><ele>239.0</ele><time>2026-04-12T10:37:47.298Z</time></trkpt><trkpt lat="43.9585712" lon="12.4515113"><ele>239.0</ele><time>2026-04-12T10:37:48.289Z</time></trkpt><trkpt lat="43.9585064" lon="12.451617"><ele>238.99999999999997</ele><time>2026-04-12T10:37:49.309Z</time></trkpt><trkpt lat="43.9584324" lon="12.4517277"><ele>238.99999999999997</ele><time>2026-04-12T10:37:50.299Z</time></trkpt><trkpt lat="43.9583607" lon="12.4518313"><ele>239.0</ele><time>2026-04-12T10:37:51.285Z</time></trkpt><trkpt lat="43.9582906" lon="12.4519378"><ele>239.0</ele><time>2026-04-12T10:37:52.282Z</time></trkpt><trkpt lat="43.958224" lon="12.4520333"><ele>236.0</ele><time>2026-04-12T10:37:53.302Z</time></trkpt><trkpt lat="43.9581624" lon="12.4521283"><ele>232.99999999999997</ele><time>2026-04-12T10:37:54.292Z</time></trkpt><trkpt lat="43.9581121" lon="12.4521998"><ele>229.99999999999997</ele><time>2026-04-12T10:37:55.28Z</time></trkpt><trkpt lat="43.958072" lon="12.4523278"><ele>227.0</ele><time>2026-04-12T10:37:57.296Z</time></trkpt><trkpt lat="43.9580991" lon="12.452419"><ele>224.0</ele><time>2026-04-12T10:37:58.301Z</time></trkpt><trkpt lat="43.9581775" lon="12.4525544"><ele>224.0</ele><time>2026-04-12T10:38:00.297Z</time></trkpt><trkpt lat="43.9582069" lon="12.4526364"><ele>224.0</ele><time>2026-04-12T10:38:01.294Z</time></trkpt><trkpt lat="43.9582356" lon="12.4527204"><ele>224.0</ele><time>2026-04-12T10:38:02.295Z</time></trkpt><trkpt lat="43.9582972" lon="12.4528686"><ele>224.0</ele><time>2026-04-12T10:38:04.302Z</time></trkpt><trkpt lat="43.958339" lon="12.4529374"><ele>224.0</ele><time>2026-04-12T10:38:05.302Z</time></trkpt><trkpt lat="43.9583802" lon="12.4530049"><ele>224.0</ele><time>2026-04-12T10:38:06.292Z</time></trkpt><trkpt lat="43.958422" lon="12.4530736"><ele>224.0</ele><time>2026-04-12T10:38:07.276Z</time></trkpt><trkpt lat="43.958464" lon="12.4531426"><ele>222.83333333333334</ele><time>2026-04-12T10:38:08.309Z</time></trkpt><trkpt lat="43.9585098" lon="12.4532079"><ele>221.66666666666669</ele><time>2026-04-12T10:38:09.307Z</time></trkpt><trkpt lat="43.9585606" lon="12.4532682"><ele>220.5</ele><time>2026-04-12T10:38:10.241Z</time></trkpt><trkpt lat="43.9586708" lon="12.4533558"><ele>219.33333333333331</ele><time>2026-04-12T10:38:12.254Z</time></trkpt><trkpt lat="43.9587306" lon="12.453394"><ele>218.16666666666666</ele><time>2026-04-12T10:38:13.246Z</time></trkpt><trkpt lat="43.9588527" lon="12.4534213"><ele>217.0</ele><time>2026-04-12T10:38:15.245Z</time></trkpt><trkpt lat="43.9589178" lon="12.4534428"><ele>216.99999999999997</ele><time>2026-04-12T10:38:16.236Z</time></trkpt><trkpt lat="43.9589876" lon="12.4534571"><ele>217.0</ele><time>2026-04-12T10:38:17.237Z</time></trkpt><trkpt lat="43.9590623" lon="12.4534765"><ele>217.0</ele><time>2026-04-12T10:38:18.274Z</time></trkpt><trkpt lat="43.9591368" lon="12.4534972"><ele>217.0</ele><time>2026-04-12T10:38:19.31Z</time></trkpt><trkpt lat="43.9592098" lon="12.4535191"><ele>216.99999999999997</ele><time>2026-04-12T10:38:20.269Z</time></trkpt><trkpt lat="43.9592892" lon="12.4535449"><ele>217.0</ele><time>2026-04-12T10:38:21.329Z</time></trkpt><trkpt lat="43.9593695" lon="12.4535731"><ele>217.33333333333331</ele><time>2026-04-12T10:38:22.265Z</time></trkpt><trkpt lat="43.9594482" lon="12.4535965"><ele>217.66666666666666</ele><time>2026-04-12T10:38:23.293Z</time></trkpt><trkpt lat="43.9595239" lon="12.4536247"><ele>218.0</ele><time>2026-04-12T10:38:24.298Z</time></trkpt><trkpt lat="43.9595973" lon="12.4536524"><ele>218.33333333333331</ele><time>2026-04-12T10:38:25.308Z</time></trkpt><trkpt lat="43.9596682" lon="12.4536977"><ele>218.66666666666666</ele><time>2026-04-12T10:38:26.292Z</time></trkpt><trkpt lat="43.9597317" lon="12.4537435"><ele>219.0</ele><time>2026-04-12T10:38:27.298Z</time></trkpt><trkpt lat="43.9597936" lon="12.4538059"><ele>218.0</ele><time>2026-04-12T10:38:28.264Z</time></trkpt><trkpt lat="43.9598513" lon="12.4538795"><ele>217.0</ele><time>2026-04-12T10:38:29.269Z</time></trkpt><trkpt lat="43.9599086" lon="12.4539508"><ele>216.0</ele><time>2026-04-12T10:38:30.285Z</time></trkpt><trkpt lat="43.9599672" lon="12.4540177"><ele>215.0</ele><time>2026-04-12T10:38:31.318Z</time></trkpt><trkpt lat="43.9600323" lon="12.4540632"><ele>214.0</ele><time>2026-04-12T10:38:32.308Z</time></trkpt><trkpt lat="43.9601007" lon="12.4540901"><ele>213.0</ele><time>2026-04-12T10:38:33.296Z</time></trkpt><trkpt lat="43.9601707" lon="12.4540911"><ele>212.0</ele><time>2026-04-12T10:38:34.31Z</time></trkpt><trkpt lat="43.9602424" lon="12.4540742"><ele>210.0</ele><time>2026-04-12T10:38:35.302Z</time></trkpt><trkpt lat="43.9603063" lon="12.4540502"><ele>208.0</ele><time>2026-04-12T10:38:36.307Z</time></trkpt><trkpt lat="43.9603698" lon="12.454014"><ele>206.0</ele><time>2026-04-12T10:38:37.308Z</time></trkpt><trkpt lat="43.9604673" lon="12.4539468"><ele>204.0</ele><time>2026-04-12T10:38:39.284Z</time></trkpt><trkpt lat="43.9605985" lon="12.4539601"><ele>202.0</ele><time>2026-04-12T10:38:41.305Z</time></trkpt><trkpt lat="43.9606679" lon="12.4540075"><ele>202.0</ele><time>2026-04-12T10:38:42.303Z</time></trkpt><trkpt lat="43.9607473" lon="12.454087"><ele>202.0</ele><time>2026-04-12T10:38:43.287Z</time></trkpt><trkpt lat="43.9608235" lon="12.4541801"><ele>202.0</ele><time>2026-04-12T10:38:44.263Z</time></trkpt><trkpt lat="43.9608841" lon="12.4542991"><ele>202.0</ele><time>2026-04-12T10:38:45.28Z</time></trkpt><trkpt lat="43.9609423" lon="12.4544297"><ele>202.0</ele><time>2026-04-12T10:38:46.266Z</time></trkpt><trkpt lat="43.960999" lon="12.4545735"><ele>198.25</ele><time>2026-04-12T10:38:47.302Z</time></trkpt><trkpt lat="43.9610563" lon="12.4547232"><ele>194.5</ele><time>2026-04-12T10:38:48.306Z</time></trkpt><trkpt lat="43.9611108" lon="12.4548761"><ele>190.75</ele><time>2026-04-12T10:38:49.305Z</time></trkpt><trkpt lat="43.9611703" lon="12.455029"><ele>187.0</ele><time>2026-04-12T10:38:50.292Z</time></trkpt><trkpt lat="43.96123" lon="12.4551808"><ele>187.0</ele><time>2026-04-12T10:38:51.304Z</time></trkpt><trkpt lat="43.9612909" lon="12.4553392"><ele>187.0</ele><time>2026-04-12T10:38:52.294Z</time></trkpt><trkpt lat="43.9613497" lon="12.4554802"><ele>187.0</ele><time>2026-04-12T10:38:53.299Z</time></trkpt><trkpt lat="43.9614044" lon="12.4556211"><ele>187.0</ele><time>2026-04-12T10:38:54.307Z</time></trkpt><trkpt lat="43.9614664" lon="12.4557585"><ele>187.0</ele><time>2026-04-12T10:38:55.303Z</time></trkpt><trkpt lat="43.9615274" lon="12.4558951"><ele>187.0</ele><time>2026-04-12T10:38:56.289Z</time></trkpt><trkpt lat="43.9615838" lon="12.4560334"><ele>187.0</ele><time>2026-04-12T10:38:57.281Z</time></trkpt><trkpt lat="43.9616399" lon="12.4561783"><ele>187.0</ele><time>2026-04-12T10:38:58.307Z</time></trkpt><trkpt lat="43.9617" lon="12.4563244"><ele>184.39999999999998</ele><time>2026-04-12T10:38:59.314Z</time></trkpt><trkpt lat="43.961751" lon="12.4564643"><ele>181.79999999999998</ele><time>2026-04-12T10:39:00.31Z</time></trkpt><trkpt lat="43.961806" lon="12.4565917"><ele>179.2</ele><time>2026-04-12T10:39:01.301Z</time></trkpt><trkpt lat="43.9618681" lon="12.4567025"><ele>176.6</ele><time>2026-04-12T10:39:02.292Z</time></trkpt><trkpt lat="43.9619376" lon="12.456799"><ele>174.0</ele><time>2026-04-12T10:39:03.307Z</time></trkpt><trkpt lat="43.9620223" lon="12.4568862"><ele>174.0</ele><time>2026-04-12T10:39:04.296Z</time></trkpt><trkpt lat="43.9620995" lon="12.4569612"><ele>174.0</ele><time>2026-04-12T10:39:05.301Z</time></trkpt><trkpt lat="43.9621795" lon="12.4570179"><ele>174.0</ele><time>2026-04-12T10:39:06.303Z</time></trkpt><trkpt lat="43.9622753" lon="12.4570564"><ele>174.0</ele><time>2026-04-12T10:39:07.301Z</time></trkpt><trkpt lat="43.962377" lon="12.4570939"><ele>174.0</ele><time>2026-04-12T10:39:08.32Z</time></trkpt><trkpt lat="43.9624809" lon="12.4571262"><ele>170.39999999999998</ele><time>2026-04-12T10:39:09.298Z</time></trkpt><trkpt lat="43.9625881" lon="12.457164"><ele>166.79999999999998</ele><time>2026-04-12T10:39:10.279Z</time></trkpt><trkpt lat="43.9626851" lon="12.457208"><ele>163.2</ele><time>2026-04-12T10:39:11.298Z</time></trkpt><trkpt lat="43.9627723" lon="12.4572583"><ele>159.6</ele><time>2026-04-12T10:39:12.301Z</time></trkpt><trkpt lat="43.9628495" lon="12.4572982"><ele>156.0</ele><time>2026-04-12T10:39:13.301Z</time></trkpt><trkpt lat="43.9629165" lon="12.457334"><ele>156.0</ele><time>2026-04-12T10:39:14.324Z</time></trkpt><trkpt lat="43.9629347" lon="12.4574508"><ele>156.0</ele><time>2026-04-12T10:39:17.297Z</time></trkpt><trkpt lat="43.9628795" lon="12.4574999"><ele>156.0</ele><time>2026-04-12T10:39:19.308Z</time></trkpt><trkpt lat="43.9628174" lon="12.4575369"><ele>156.0</ele><time>2026-04-12T10:39:21.286Z</time></trkpt><trkpt lat="43.9627671" lon="12.4576025"><ele>156.0</ele><time>2026-04-12T10:39:23.268Z</time></trkpt><trkpt lat="43.9627494" lon="12.4577069"><ele>156.0</ele><time>2026-04-12T10:39:25.293Z</time></trkpt><trkpt lat="43.9627617" lon="12.4577977"><ele>156.0</ele><time>2026-04-12T10:39:27.289Z</time></trkpt><trkpt lat="43.9627967" lon="12.4578776"><ele>156.0</ele><time>2026-04-12T10:39:29.29Z</time></trkpt><trkpt lat="43.9628572" lon="12.4579259"><ele>156.0</ele><time>2026-04-12T10:39:32.267Z</time></trkpt><trkpt lat="43.9629194" lon="12.4579582"><ele>156.0</ele><time>2026-04-12T10:39:36.293Z</time></trkpt><trkpt lat="43.96298" lon="12.4579883"><ele>156.0</ele><time>2026-04-12T10:39:40.274Z</time></trkpt><trkpt lat="43.9630461" lon="12.4580039"><ele>156.0</ele><time>2026-04-12T10:39:46.293Z</time></trkpt><trkpt lat="43.9631195" lon="12.4580192"><ele>156.0</ele><time>2026-04-12T10:39:52.28Z</time></trkpt><trkpt lat="43.9631873" lon="12.4580369"><ele>156.0</ele><time>2026-04-12T10:39:58.277Z</time></trkpt><trkpt lat="43.9632627" lon="12.4580567"><ele>157.42857142857144</ele><time>2026-04-12T10:40:03.299Z</time></trkpt><trkpt lat="43.9633091" lon="12.4581261"><ele>158.85714285714283</ele><time>2026-04-12T10:40:09.299Z</time></trkpt><trkpt lat="43.9632681" lon="12.4582011"><ele>160.28571428571428</ele><time>2026-04-12T10:40:17.273Z</time></trkpt><trkpt lat="43.9632024" lon="12.4582347"><ele>161.71428571428572</ele><time>2026-04-12T10:40:22.261Z</time></trkpt><trkpt lat="43.9631394" lon="12.4582727"><ele>163.14285714285717</ele><time>2026-04-12T10:40:26.301Z</time></trkpt><trkpt lat="43.9630795" lon="12.4583096"><ele>164.57142857142856</ele><time>2026-04-12T10:40:30.309Z</time></trkpt><trkpt lat="43.9630217" lon="12.4583493"><ele>166.0</ele><time>2026-04-12T10:40:34.292Z</time></trkpt><trkpt lat="43.9629649" lon="12.4584148"><ele>166.0</ele><time>2026-04-12T10:40:39.242Z</time></trkpt><trkpt lat="43.962911" lon="12.4584911"><ele>166.0</ele><time>2026-04-12T10:40:43.301Z</time></trkpt><trkpt lat="43.9628639" lon="12.4585693"><ele>166.0</ele><time>2026-04-12T10:40:47.306Z</time></trkpt><trkpt lat="43.9628205" lon="12.4586558"><ele>166.0</ele><time>2026-04-12T10:40:51.302Z</time></trkpt><trkpt lat="43.9627847" lon="12.4587364"><ele>166.0</ele><time>2026-04-12T10:40:55.311Z</time></trkpt><trkpt lat="43.9627415" lon="12.4588065"><ele>166.0</ele><time>2026-04-12T10:40:59.317Z</time></trkpt><trkpt lat="43.9627005" lon="12.4588769"><ele>166.0</ele><time>2026-04-12T10:41:05.247Z</time></trkpt><trkpt lat="43.9626722" lon="12.4589625"><ele>167.28571428571428</ele><time>2026-04-12T10:41:11.309Z</time></trkpt><trkpt lat="43.9626336" lon="12.4590393"><ele>168.57142857142858</ele><time>2026-04-12T10:41:15.308Z</time></trkpt><trkpt lat="43.9626068" lon="12.4591305"><ele>169.85714285714286</ele><time>2026-04-12T10:41:20.311Z</time></trkpt><trkpt lat="43.9625721" lon="12.4592214"><ele>171.14285714285714</ele><time>2026-04-12T10:41:25.312Z</time></trkpt><trkpt lat="43.9625567" lon="12.4593163"><ele>172.42857142857144</ele><time>2026-04-12T10:41:29.309Z</time></trkpt><trkpt lat="43.9625441" lon="12.4594127"><ele>173.71428571428572</ele><time>2026-04-12T10:41:33.317Z</time></trkpt><trkpt lat="43.962522" lon="12.4595071"><ele>175.0</ele><time>2026-04-12T10:41:37.318Z</time></trkpt><trkpt lat="43.9624959" lon="12.4595937"><ele>177.42857142857142</ele><time>2026-04-12T10:41:41.292Z</time></trkpt><trkpt lat="43.9624656" lon="12.4596769"><ele>179.85714285714286</ele><time>2026-04-12T10:41:45.257Z</time></trkpt><trkpt lat="43.9624318" lon="12.4597696"><ele>182.28571428571428</ele><time>2026-04-12T10:41:51.312Z</time></trkpt><trkpt lat="43.9624055" lon="12.4598753"><ele>184.71428571428572</ele><time>2026-04-12T10:41:57.301Z</time></trkpt><trkpt lat="43.9623775" lon="12.4599737"><ele>187.14285714285714</ele><time>2026-04-12T10:42:03.311Z</time></trkpt><trkpt lat="43.9623291" lon="12.4600504"><ele>189.57142857142856</ele><time>2026-04-12T10:42:08.299Z</time></trkpt><trkpt lat="43.9622933" lon="12.4601353"><ele>192.0</ele><time>2026-04-12T10:42:14.261Z</time></trkpt><trkpt lat="43.9622498" lon="12.4602072"><ele>191.99999999999997</ele><time>2026-04-12T10:42:20.321Z</time></trkpt><trkpt lat="43.9622128" lon="12.4602916"><ele>192.0</ele><time>2026-04-12T10:42:25.292Z</time></trkpt><trkpt lat="43.9621744" lon="12.4603752"><ele>192.0</ele><time>2026-04-12T10:42:29.295Z</time></trkpt><trkpt lat="43.9621303" lon="12.4604558"><ele>192.0</ele><time>2026-04-12T10:42:34.28Z</time></trkpt><trkpt lat="43.9620841" lon="12.4605238"><ele>192.0</ele><time>2026-04-12T10:42:40.304Z</time></trkpt><trkpt lat="43.9620667" lon="12.4606169"><ele>191.99999999999997</ele><time>2026-04-12T10:42:45.285Z</time></trkpt><trkpt lat="43.9620867" lon="12.4607202"><ele>192.0</ele><time>2026-04-12T10:42:49.303Z</time></trkpt><trkpt lat="43.9621057" lon="12.4608102"><ele>192.66666666666666</ele><time>2026-04-12T10:42:53.269Z</time></trkpt><trkpt lat="43.9621651" lon="12.4609123"><ele>193.33333333333331</ele><time>2026-04-12T10:42:56.29Z</time></trkpt><trkpt lat="43.9622642" lon="12.4609911"><ele>194.0</ele><time>2026-04-12T10:42:58.311Z</time></trkpt><trkpt lat="43.9623206" lon="12.4610386"><ele>194.66666666666666</ele><time>2026-04-12T10:42:59.279Z</time></trkpt><trkpt lat="43.9623794" lon="12.4611019"><ele>195.33333333333331</ele><time>2026-04-12T10:43:00.303Z</time></trkpt><trkpt lat="43.9624408" lon="12.4611918"><ele>196.0</ele><time>2026-04-12T10:43:01.322Z</time></trkpt><trkpt lat="43.9625144" lon="12.4612715"><ele>193.4</ele><time>2026-04-12T10:43:02.288Z</time></trkpt><trkpt lat="43.9625899" lon="12.4613401"><ele>190.8</ele><time>2026-04-12T10:43:03.31Z</time></trkpt><trkpt lat="43.9626818" lon="12.4613742"><ele>188.20000000000002</ele><time>2026-04-12T10:43:04.3Z</time></trkpt><trkpt lat="43.9627801" lon="12.4613958"><ele>185.60000000000002</ele><time>2026-04-12T10:43:05.299Z</time></trkpt><trkpt lat="43.9628807" lon="12.4614263"><ele>183.0</ele><time>2026-04-12T10:43:06.292Z</time></trkpt><trkpt lat="43.9629657" lon="12.4614528"><ele>183.0</ele><time>2026-04-12T10:43:07.288Z</time></trkpt><trkpt lat="43.9630487" lon="12.4614948"><ele>183.0</ele><time>2026-04-12T10:43:08.292Z</time></trkpt><trkpt lat="43.9631343" lon="12.4615483"><ele>183.0</ele><time>2026-04-12T10:43:09.277Z</time></trkpt><trkpt lat="43.9632164" lon="12.4616182"><ele>183.0</ele><time>2026-04-12T10:43:10.294Z</time></trkpt><trkpt lat="43.9632815" lon="12.4617328"><ele>183.0</ele><time>2026-04-12T10:43:11.301Z</time></trkpt><trkpt lat="43.9633439" lon="12.4618507"><ele>180.8</ele><time>2026-04-12T10:43:12.308Z</time></trkpt><trkpt lat="43.9634146" lon="12.4619685"><ele>178.60000000000002</ele><time>2026-04-12T10:43:13.277Z</time></trkpt><trkpt lat="43.9634919" lon="12.4620797"><ele>176.39999999999998</ele><time>2026-04-12T10:43:14.276Z</time></trkpt><trkpt lat="43.9635676" lon="12.4622015"><ele>174.2</ele><time>2026-04-12T10:43:15.298Z</time></trkpt><trkpt lat="43.9636387" lon="12.4623106"><ele>172.0</ele><time>2026-04-12T10:43:16.301Z</time></trkpt><trkpt lat="43.9637216" lon="12.4624006"><ele>172.0</ele><time>2026-04-12T10:43:17.298Z</time></trkpt><trkpt lat="43.9637963" lon="12.462487"><ele>172.0</ele><time>2026-04-12T10:43:18.277Z</time></trkpt><trkpt lat="43.9638741" lon="12.4625618"><ele>172.0</ele><time>2026-04-12T10:43:19.297Z</time></trkpt><trkpt lat="43.9639637" lon="12.4626371"><ele>172.0</ele><time>2026-04-12T10:43:20.272Z</time></trkpt><trkpt lat="43.9640575" lon="12.462699"><ele>172.0</ele><time>2026-04-12T10:43:21.289Z</time></trkpt><trkpt lat="43.9641498" lon="12.4627603"><ele>169.4</ele><time>2026-04-12T10:43:22.305Z</time></trkpt><trkpt lat="43.9642404" lon="12.4628453"><ele>166.79999999999998</ele><time>2026-04-12T10:43:23.306Z</time></trkpt><trkpt lat="43.9643221" lon="12.4629339"><ele>164.2</ele><time>2026-04-12T10:43:24.284Z</time></trkpt><trkpt lat="43.9643986" lon="12.4630127"><ele>161.6</ele><time>2026-04-12T10:43:25.319Z</time></trkpt><trkpt lat="43.9644789" lon="12.4630823"><ele>159.0</ele><time>2026-04-12T10:43:26.307Z</time></trkpt><trkpt lat="43.9645555" lon="12.4631219"><ele>159.0</ele><time>2026-04-12T10:43:27.307Z</time></trkpt><trkpt lat="43.9646423" lon="12.4631418"><ele>159.0</ele><time>2026-04-12T10:43:28.307Z</time></trkpt><trkpt lat="43.9647374" lon="12.4631361"><ele>159.0</ele><time>2026-04-12T10:43:29.302Z</time></trkpt><trkpt lat="43.9648371" lon="12.4631158"><ele>159.0</ele><time>2026-04-12T10:43:30.28Z</time></trkpt><trkpt lat="43.9649345" lon="12.4631012"><ele>159.0</ele><time>2026-04-12T10:43:31.303Z</time></trkpt><trkpt lat="43.9650101" lon="12.4631236"><ele>156.83333333333334</ele><time>2026-04-12T10:43:32.302Z</time></trkpt><trkpt lat="43.9650761" lon="12.4631717"><ele>154.66666666666666</ele><time>2026-04-12T10:43:33.292Z</time></trkpt><trkpt lat="43.9651327" lon="12.4632396"><ele>152.5</ele><time>2026-04-12T10:43:34.296Z</time></trkpt><trkpt lat="43.9651802" lon="12.4633343"><ele>150.33333333333331</ele><time>2026-04-12T10:43:35.293Z</time></trkpt><trkpt lat="43.9652142" lon="12.4634461"><ele>148.16666666666666</ele><time>2026-04-12T10:43:36.303Z</time></trkpt><trkpt lat="43.9652574" lon="12.4635462"><ele>146.0</ele><time>2026-04-12T10:43:37.261Z</time></trkpt><trkpt lat="43.9652967" lon="12.4636361"><ele>146.0</ele><time>2026-04-12T10:43:38.269Z</time></trkpt><trkpt lat="43.9653334" lon="12.463723"><ele>146.0</ele><time>2026-04-12T10:43:39.279Z</time></trkpt><trkpt lat="43.9653723" lon="12.4638011"><ele>146.0</ele><time>2026-04-12T10:43:40.25Z</time></trkpt><trkpt lat="43.9654304" lon="12.4638606"><ele>146.0</ele><time>2026-04-12T10:43:41.295Z</time></trkpt><trkpt lat="43.9654987" lon="12.463895"><ele>146.0</ele><time>2026-04-12T10:43:42.259Z</time></trkpt><trkpt lat="43.9655863" lon="12.4639221"><ele>146.0</ele><time>2026-04-12T10:43:43.254Z</time></trkpt><trkpt lat="43.96567" lon="12.4639619"><ele>145.5</ele><time>2026-04-12T10:43:44.261Z</time></trkpt><trkpt lat="43.9657563" lon="12.4640033"><ele>145.0</ele><time>2026-04-12T10:43:45.259Z</time></trkpt><trkpt lat="43.965845" lon="12.4640515"><ele>144.5</ele><time>2026-04-12T10:43:46.258Z</time></trkpt><trkpt lat="43.9659214" lon="12.4641152"><ele>144.0</ele><time>2026-04-12T10:43:47.261Z</time></trkpt><trkpt lat="43.9659761" lon="12.4641923"><ele>143.5</ele><time>2026-04-12T10:43:48.261Z</time></trkpt><trkpt lat="43.9660227" lon="12.4642594"><ele>143.0</ele><time>2026-04-12T10:43:49.275Z</time></trkpt><trkpt lat="43.9661009" lon="12.4642913"><ele>141.33333333333331</ele><time>2026-04-12T10:43:51.265Z</time></trkpt><trkpt lat="43.9661883" lon="12.4642739"><ele>139.66666666666666</ele><time>2026-04-12T10:43:53.257Z</time></trkpt><trkpt lat="43.9662659" lon="12.4642621"><ele>138.0</ele><time>2026-04-12T10:43:55.248Z</time></trkpt><trkpt lat="43.9663304" lon="12.4642565"><ele>136.33333333333334</ele><time>2026-04-12T10:43:57.261Z</time></trkpt><trkpt lat="43.9664125" lon="12.4642608"><ele>134.66666666666669</ele><time>2026-04-12T10:43:59.266Z</time></trkpt><trkpt lat="43.9665258" lon="12.4642536"><ele>133.0</ele><time>2026-04-12T10:44:01.271Z</time></trkpt><trkpt lat="43.9666402" lon="12.4642451"><ele>131.16666666666669</ele><time>2026-04-12T10:44:03.269Z</time></trkpt><trkpt lat="43.9667699" lon="12.4642436"><ele>129.33333333333334</ele><time>2026-04-12T10:44:05.276Z</time></trkpt><trkpt lat="43.9668337" lon="12.4642328"><ele>127.5</ele><time>2026-04-12T10:44:06.273Z</time></trkpt><trkpt lat="43.9669068" lon="12.4642212"><ele>125.66666666666666</ele><time>2026-04-12T10:44:07.288Z</time></trkpt><trkpt lat="43.9669791" lon="12.4642183"><ele>123.83333333333333</ele><time>2026-04-12T10:44:08.291Z</time></trkpt><trkpt lat="43.9670539" lon="12.4642304"><ele>122.0</ele><time>2026-04-12T10:44:09.289Z</time></trkpt><trkpt lat="43.9671275" lon="12.4642546"><ele>121.99999999999999</ele><time>2026-04-12T10:44:10.285Z</time></trkpt><trkpt lat="43.9671963" lon="12.4642743"><ele>122.0</ele><time>2026-04-12T10:44:11.298Z</time></trkpt><trkpt lat="43.9672656" lon="12.4643001"><ele>122.0</ele><time>2026-04-12T10:44:12.291Z</time></trkpt><trkpt lat="43.9673279" lon="12.4643217"><ele>122.0</ele><time>2026-04-12T10:44:13.282Z</time></trkpt><trkpt lat="43.9673906" lon="12.4643472"><ele>121.99999999999999</ele><time>2026-04-12T10:44:14.266Z</time></trkpt><trkpt lat="43.9675135" lon="12.4643857"><ele>122.0</ele><time>2026-04-12T10:44:16.302Z</time></trkpt><trkpt lat="43.9675854" lon="12.4643958"><ele>121.16666666666666</ele><time>2026-04-12T10:44:17.299Z</time></trkpt><trkpt lat="43.9676543" lon="12.4643923"><ele>120.33333333333333</ele><time>2026-04-12T10:44:18.288Z</time></trkpt><trkpt lat="43.9677276" lon="12.4643756"><ele>119.5</ele><time>2026-04-12T10:44:19.28Z</time></trkpt><trkpt lat="43.9678503" lon="12.4643468"><ele>118.66666666666666</ele><time>2026-04-12T10:44:21.296Z</time></trkpt><trkpt lat="43.9679127" lon="12.4643338"><ele>117.83333333333333</ele><time>2026-04-12T10:44:22.286Z</time></trkpt><trkpt lat="43.9679778" lon="12.4643251"><ele>117.0</ele><time>2026-04-12T10:44:23.261Z</time></trkpt><trkpt lat="43.9680461" lon="12.4643428"><ele>117.0</ele><time>2026-04-12T10:44:24.251Z</time></trkpt><trkpt lat="43.968116" lon="12.4643361"><ele>117.00000000000001</ele><time>2026-04-12T10:44:25.303Z</time></trkpt><trkpt lat="43.9681795" lon="12.4643185"><ele>117.0</ele><time>2026-04-12T10:44:26.271Z</time></trkpt><trkpt lat="43.9682414" lon="12.4643024"><ele>117.0</ele><time>2026-04-12T10:44:27.262Z</time></trkpt><trkpt lat="43.968304" lon="12.4642698"><ele>117.00000000000001</ele><time>2026-04-12T10:44:28.233Z</time></trkpt><trkpt lat="43.9683642" lon="12.4642418"><ele>117.0</ele><time>2026-04-12T10:44:29.25Z</time></trkpt><trkpt lat="43.96845" lon="12.4642239"><ele>117.0</ele><time>2026-04-12T10:44:31.258Z</time></trkpt><trkpt lat="43.9685046" lon="12.4643492"><ele>117.0</ele><time>2026-04-12T10:44:33.292Z</time></trkpt><trkpt lat="43.9685906" lon="12.464442"><ele>116.99999999999999</ele><time>2026-04-12T10:44:35.262Z</time></trkpt><trkpt lat="43.9686571" lon="12.464542"><ele>116.99999999999999</ele><time>2026-04-12T10:44:37.248Z</time></trkpt><trkpt lat="43.9687288" lon="12.4646688"><ele>117.0</ele><time>2026-04-12T10:44:39.254Z</time></trkpt><trkpt lat="43.9687928" lon="12.4647954"><ele>117.0</ele><time>2026-04-12T10:44:41.292Z</time></trkpt><trkpt lat="43.9688035" lon="12.4649727"><ele>117.0</ele><time>2026-04-12T10:44:43.273Z</time></trkpt><trkpt lat="43.9687874" lon="12.4650672"><ele>116.99999999999999</ele><time>2026-04-12T10:44:44.27Z</time></trkpt><trkpt lat="43.9687676" lon="12.4651566"><ele>116.99999999999999</ele><time>2026-04-12T10:44:45.283Z</time></trkpt><trkpt lat="43.9687418" lon="12.4653294"><ele>117.0</ele><time>2026-04-12T10:44:47.265Z</time></trkpt><trkpt lat="43.9687083" lon="12.4654977"><ele>117.0</ele><time>2026-04-12T10:44:49.273Z</time></trkpt><trkpt lat="43.9686857" lon="12.4656491"><ele>117.0</ele><time>2026-04-12T10:44:51.27Z</time></trkpt><trkpt lat="43.9686764" lon="12.4657371"><ele>117.00000000000001</ele><time>2026-04-12T10:44:52.267Z</time></trkpt><trkpt lat="43.9686668" lon="12.4658281"><ele>117.0</ele><time>2026-04-12T10:44:53.267Z</time></trkpt><trkpt lat="43.9686621" lon="12.4659201"><ele>117.0</ele><time>2026-04-12T10:44:54.27Z</time></trkpt><trkpt lat="43.9686528" lon="12.4660241"><ele>117.00000000000001</ele><time>2026-04-12T10:44:55.269Z</time></trkpt><trkpt lat="43.9686415" lon="12.4661209"><ele>117.0</ele><time>2026-04-12T10:44:56.268Z</time></trkpt><trkpt lat="43.9686292" lon="12.4662121"><ele>117.0</ele><time>2026-04-12T10:44:57.267Z</time></trkpt><trkpt lat="43.9686127" lon="12.4662996"><ele>115.75</ele><time>2026-04-12T10:44:58.261Z</time></trkpt><trkpt lat="43.9685828" lon="12.4664678"><ele>114.5</ele><time>2026-04-12T10:45:00.301Z</time></trkpt><trkpt lat="43.9685446" lon="12.4666196"><ele>113.25</ele><time>2026-04-12T10:45:02.293Z</time></trkpt><trkpt lat="43.9685147" lon="12.4667753"><ele>112.0</ele><time>2026-04-12T10:45:04.298Z</time></trkpt><trkpt lat="43.9684827" lon="12.4669269"><ele>112.00000000000001</ele><time>2026-04-12T10:45:06.267Z</time></trkpt><trkpt lat="43.9684476" lon="12.4670878"><ele>112.0</ele><time>2026-04-12T10:45:08.262Z</time></trkpt><trkpt lat="43.9684328" lon="12.4671771"><ele>112.0</ele><time>2026-04-12T10:45:09.275Z</time></trkpt><trkpt lat="43.9684219" lon="12.4672709"><ele>112.0</ele><time>2026-04-12T10:45:10.272Z</time></trkpt><trkpt lat="43.9684042" lon="12.467362"><ele>112.00000000000001</ele><time>2026-04-12T10:45:11.275Z</time></trkpt><trkpt lat="43.9683885" lon="12.4674532"><ele>112.0</ele><time>2026-04-12T10:45:12.273Z</time></trkpt><trkpt lat="43.9683689" lon="12.4675466"><ele>111.42857142857143</ele><time>2026-04-12T10:45:13.277Z</time></trkpt><trkpt lat="43.9683505" lon="12.4676409"><ele>110.85714285714286</ele><time>2026-04-12T10:45:14.252Z</time></trkpt><trkpt lat="43.9683396" lon="12.467735"><ele>110.28571428571428</ele><time>2026-04-12T10:45:15.3Z</time></trkpt><trkpt lat="43.968329" lon="12.4678335"><ele>109.71428571428572</ele><time>2026-04-12T10:45:16.264Z</time></trkpt><trkpt lat="43.9683211" lon="12.4679289"><ele>109.14285714285714</ele><time>2026-04-12T10:45:17.256Z</time></trkpt><trkpt lat="43.9683262" lon="12.4680242"><ele>108.57142857142857</ele><time>2026-04-12T10:45:18.268Z</time></trkpt><trkpt lat="43.9683343" lon="12.4681217"><ele>108.0</ele><time>2026-04-12T10:45:19.297Z</time></trkpt><trkpt lat="43.9683495" lon="12.468223"><ele>108.0</ele><time>2026-04-12T10:45:20.305Z</time></trkpt><trkpt lat="43.9683647" lon="12.4683225"><ele>108.0</ele><time>2026-04-12T10:45:21.308Z</time></trkpt><trkpt lat="43.9683785" lon="12.4684101"><ele>108.0</ele><time>2026-04-12T10:45:22.302Z</time></trkpt><trkpt lat="43.9683885" lon="12.4685044"><ele>108.0</ele><time>2026-04-12T10:45:23.29Z</time></trkpt><trkpt lat="43.9683923" lon="12.4686005"><ele>108.0</ele><time>2026-04-12T10:45:24.293Z</time></trkpt><trkpt lat="43.9683888" lon="12.468697"><ele>108.0</ele><time>2026-04-12T10:45:25.31Z</time></trkpt><trkpt lat="43.9683897" lon="12.4687972"><ele>108.0</ele><time>2026-04-12T10:45:26.286Z</time></trkpt><trkpt lat="43.968386" lon="12.468902"><ele>108.16666666666667</ele><time>2026-04-12T10:45:27.316Z</time></trkpt><trkpt lat="43.9683859" lon="12.469003"><ele>108.33333333333334</ele><time>2026-04-12T10:45:28.308Z</time></trkpt><trkpt lat="43.9683845" lon="12.4690977"><ele>108.5</ele><time>2026-04-12T10:45:29.287Z</time></trkpt><trkpt lat="43.9683884" lon="12.4692014"><ele>108.66666666666667</ele><time>2026-04-12T10:45:30.294Z</time></trkpt><trkpt lat="43.9683911" lon="12.4692994"><ele>108.83333333333334</ele><time>2026-04-12T10:45:31.292Z</time></trkpt><trkpt lat="43.9683888" lon="12.4694802"><ele>109.0</ele><time>2026-04-12T10:45:33.314Z</time></trkpt><trkpt lat="43.9683853" lon="12.4695752"><ele>109.50000000000001</ele><time>2026-04-12T10:45:34.263Z</time></trkpt><trkpt lat="43.9683818" lon="12.4697556"><ele>110.0</ele><time>2026-04-12T10:45:36.265Z</time></trkpt><trkpt lat="43.9683771" lon="12.4698451"><ele>110.5</ele><time>2026-04-12T10:45:37.304Z</time></trkpt><trkpt lat="43.9683669" lon="12.4699319"><ele>111.0</ele><time>2026-04-12T10:45:38.301Z</time></trkpt><trkpt lat="43.9683608" lon="12.4700215"><ele>111.50000000000001</ele><time>2026-04-12T10:45:39.301Z</time></trkpt><trkpt lat="43.9683704" lon="12.4701122"><ele>112.0</ele><time>2026-04-12T10:45:40.3Z</time></trkpt><trkpt lat="43.9684216" lon="12.4702559"><ele>112.00000000000001</ele><time>2026-04-12T10:45:42.269Z</time></trkpt><trkpt lat="43.9684696" lon="12.4703694"><ele>112.0</ele><time>2026-04-12T10:45:44.3Z</time></trkpt><trkpt lat="43.9685005" lon="12.4704715"><ele>112.0</ele><time>2026-04-12T10:45:46.269Z</time></trkpt><trkpt lat="43.9685323" lon="12.4705709"><ele>112.0</ele><time>2026-04-12T10:45:48.297Z</time></trkpt><trkpt lat="43.9685525" lon="12.4706651"><ele>112.00000000000001</ele><time>2026-04-12T10:45:50.287Z</time></trkpt><trkpt lat="43.968567" lon="12.4707504"><ele>112.0</ele><time>2026-04-12T10:45:52.302Z</time></trkpt><trkpt lat="43.9686063" lon="12.4708519"><ele>111.83333333333334</ele><time>2026-04-12T10:45:55.314Z</time></trkpt><trkpt lat="43.9686522" lon="12.470946"><ele>111.66666666666667</ele><time>2026-04-12T10:45:58.317Z</time></trkpt><trkpt lat="43.9687091" lon="12.4710376"><ele>111.5</ele><time>2026-04-12T10:46:01.283Z</time></trkpt><trkpt lat="43.9687625" lon="12.4711146"><ele>111.33333333333334</ele><time>2026-04-12T10:46:04.267Z</time></trkpt><trkpt lat="43.9688045" lon="12.47118"><ele>111.16666666666667</ele><time>2026-04-12T10:46:07.244Z</time></trkpt><trkpt lat="43.9688667" lon="12.471249"><ele>111.0</ele><time>2026-04-12T10:46:10.304Z</time></trkpt><trkpt lat="43.9689299" lon="12.4713015"><ele>111.0</ele><time>2026-04-12T10:46:13.305Z</time></trkpt><trkpt lat="43.9689991" lon="12.471351"><ele>111.0</ele><time>2026-04-12T10:46:17.305Z</time></trkpt><trkpt lat="43.9690657" lon="12.4713525"><ele>111.0</ele><time>2026-04-12T10:46:22.285Z</time></trkpt><trkpt lat="43.9691346" lon="12.4713001"><ele>111.0</ele><time>2026-04-12T10:46:27.3Z</time></trkpt><trkpt lat="43.9691876" lon="12.4712379"><ele>111.0</ele><time>2026-04-12T10:46:31.305Z</time></trkpt><trkpt lat="43.9692376" lon="12.4711735"><ele>111.0</ele><time>2026-04-12T10:46:35.29Z</time></trkpt><trkpt lat="43.9692928" lon="12.4710932"><ele>111.0</ele><time>2026-04-12T10:46:40.241Z</time></trkpt><trkpt lat="43.9693351" lon="12.4710283"><ele>112.71428571428571</ele><time>2026-04-12T10:46:44.3Z</time></trkpt><trkpt lat="43.9693811" lon="12.4709613"><ele>114.42857142857144</ele><time>2026-04-12T10:46:49.284Z</time></trkpt><trkpt lat="43.9694256" lon="12.4708951"><ele>116.14285714285715</ele><time>2026-04-12T10:46:54.302Z</time></trkpt><trkpt lat="43.9694737" lon="12.4708168"><ele>117.85714285714286</ele><time>2026-04-12T10:47:00.284Z</time></trkpt><trkpt lat="43.9695158" lon="12.4707461"><ele>119.57142857142858</ele><time>2026-04-12T10:47:06.294Z</time></trkpt><trkpt lat="43.9695541" lon="12.4706642"><ele>121.2857142857143</ele><time>2026-04-12T10:47:12.326Z</time></trkpt><trkpt lat="43.9695887" lon="12.4705828"><ele>123.00000000000001</ele><time>2026-04-12T10:47:18.271Z</time></trkpt><trkpt lat="43.9696301" lon="12.470505"><ele>124.00000000000001</ele><time>2026-04-12T10:47:24.263Z</time></trkpt><trkpt lat="43.9696613" lon="12.4704119"><ele>125.0</ele><time>2026-04-12T10:47:31.304Z</time></trkpt><trkpt lat="43.9696952" lon="12.4703367"><ele>126.00000000000001</ele><time>2026-04-12T10:47:37.312Z</time></trkpt><trkpt lat="43.9697299" lon="12.4702567"><ele>127.00000000000001</ele><time>2026-04-12T10:47:43.297Z</time></trkpt><trkpt lat="43.9697539" lon="12.4701601"><ele>128.0</ele><time>2026-04-12T10:47:49.31Z</time></trkpt><trkpt lat="43.9697952" lon="12.470089"><ele>129.00000000000003</ele><time>2026-04-12T10:47:55.303Z</time></trkpt><trkpt lat="43.9698526" lon="12.4700514"><ele>130.0</ele><time>2026-04-12T10:48:00.293Z</time></trkpt><trkpt lat="43.9699149" lon="12.4700878"><ele>130.00000000000003</ele><time>2026-04-12T10:48:06.272Z</time></trkpt><trkpt lat="43.9699543" lon="12.4701621"><ele>130.0</ele><time>2026-04-12T10:48:11.299Z</time></trkpt><trkpt lat="43.9700051" lon="12.4702379"><ele>130.0</ele><time>2026-04-12T10:48:17.246Z</time></trkpt><trkpt lat="43.9700526" lon="12.4703173"><ele>130.0</ele><time>2026-04-12T10:48:23.297Z</time></trkpt><trkpt lat="43.9701032" lon="12.4703758"><ele>130.0</ele><time>2026-04-12T10:48:29.269Z</time></trkpt><trkpt lat="43.970179" lon="12.4703961"><ele>130.00000000000003</ele><time>2026-04-12T10:48:35.313Z</time></trkpt><trkpt lat="43.9702461" lon="12.4703615"><ele>130.0</ele><time>2026-04-12T10:48:40.3Z</time></trkpt><trkpt lat="43.9703047" lon="12.4703018"><ele>131.71428571428572</ele><time>2026-04-12T10:48:45.274Z</time></trkpt><trkpt lat="43.9703453" lon="12.4702282"><ele>133.42857142857144</ele><time>2026-04-12T10:48:49.302Z</time></trkpt><trkpt lat="43.9703865" lon="12.4701587"><ele>135.14285714285714</ele><time>2026-04-12T10:48:54.301Z</time></trkpt><trkpt lat="43.9704307" lon="12.4700832"><ele>136.85714285714286</ele><time>2026-04-12T10:48:59.297Z</time></trkpt><trkpt lat="43.970469" lon="12.4699958"><ele>138.57142857142856</ele><time>2026-04-12T10:49:04.272Z</time></trkpt><trkpt lat="43.97051" lon="12.4699196"><ele>140.28571428571428</ele><time>2026-04-12T10:49:09.307Z</time></trkpt><trkpt lat="43.9705551" lon="12.4698304"><ele>142.0</ele><time>2026-04-12T10:49:14.251Z</time></trkpt><trkpt lat="43.9706079" lon="12.4697434"><ele>142.0</ele><time>2026-04-12T10:49:19.294Z</time></trkpt><trkpt lat="43.9706405" lon="12.4696675"><ele>142.0</ele><time>2026-04-12T10:49:23.28Z</time></trkpt><trkpt lat="43.9706946" lon="12.4695771"><ele>142.0</ele><time>2026-04-12T10:49:28.293Z</time></trkpt><trkpt lat="43.9707398" lon="12.4694978"><ele>142.0</ele><time>2026-04-12T10:49:33.306Z</time></trkpt><trkpt lat="43.9707886" lon="12.4694285"><ele>142.0</ele><time>2026-04-12T10:49:38.301Z</time></trkpt><trkpt lat="43.9708355" lon="12.4693564"><ele>142.0</ele><time>2026-04-12T10:49:43.311Z</time></trkpt><trkpt lat="43.9708826" lon="12.4692724"><ele>142.0</ele><time>2026-04-12T10:49:48.271Z</time></trkpt><trkpt lat="43.9709246" lon="12.4691913"><ele>143.85714285714286</ele><time>2026-04-12T10:49:53.309Z</time></trkpt><trkpt lat="43.9709644" lon="12.4691061"><ele>145.7142857142857</ele><time>2026-04-12T10:49:58.315Z</time></trkpt><trkpt lat="43.9710152" lon="12.4690466"><ele>147.57142857142856</ele><time>2026-04-12T10:50:03.304Z</time></trkpt><trkpt lat="43.9710501" lon="12.4689687"><ele>149.42857142857142</ele><time>2026-04-12T10:50:07.294Z</time></trkpt><trkpt lat="43.9710806" lon="12.4688746"><ele>151.28571428571428</ele><time>2026-04-12T10:50:11.299Z</time></trkpt><trkpt lat="43.9710851" lon="12.4687822"><ele>153.14285714285714</ele><time>2026-04-12T10:50:15.268Z</time></trkpt><trkpt lat="43.9710735" lon="12.4686871"><ele>155.0</ele><time>2026-04-12T10:50:19.243Z</time></trkpt><trkpt lat="43.9710599" lon="12.468585"><ele>156.42857142857144</ele><time>2026-04-12T10:50:23.286Z</time></trkpt><trkpt lat="43.9710488" lon="12.4684963"><ele>157.85714285714286</ele><time>2026-04-12T10:50:27.259Z</time></trkpt><trkpt lat="43.9710374" lon="12.4683947"><ele>159.28571428571428</ele><time>2026-04-12T10:50:32.297Z</time></trkpt><trkpt lat="43.9710152" lon="12.4682894"><ele>160.71428571428572</ele><time>2026-04-12T10:50:37.292Z</time></trkpt><trkpt lat="43.9710041" lon="12.4681945"><ele>162.14285714285714</ele><time>2026-04-12T10:50:41.304Z</time></trkpt><trkpt lat="43.970985" lon="12.46809"><ele>163.57142857142858</ele><time>2026-04-12T10:50:45.31Z</time></trkpt><trkpt lat="43.970975" lon="12.4679872"><ele>165.0</ele><time>2026-04-12T10:50:49.319Z</time></trkpt><trkpt lat="43.9710034" lon="12.4678829"><ele>165.66666666666666</ele><time>2026-04-12T10:50:53.272Z</time></trkpt><trkpt lat="43.9710519" lon="12.4678059"><ele>166.33333333333334</ele><time>2026-04-12T10:50:57.28Z</time></trkpt><trkpt lat="43.9711158" lon="12.4677456"><ele>167.0</ele><time>2026-04-12T10:51:02.3Z</time></trkpt><trkpt lat="43.9711885" lon="12.4676889"><ele>167.66666666666669</ele><time>2026-04-12T10:51:07.269Z</time></trkpt><trkpt lat="43.9712492" lon="12.4676201"><ele>168.33333333333334</ele><time>2026-04-12T10:51:12.262Z</time></trkpt><trkpt lat="43.9712998" lon="12.4675645"><ele>169.0</ele><time>2026-04-12T10:51:16.311Z</time></trkpt><trkpt lat="43.9713585" lon="12.4675033"><ele>169.0</ele><time>2026-04-12T10:51:20.295Z</time></trkpt><trkpt lat="43.9714159" lon="12.4674343"><ele>169.0</ele><time>2026-04-12T10:51:24.306Z</time></trkpt><trkpt lat="43.9714744" lon="12.467374"><ele>169.0</ele><time>2026-04-12T10:51:28.298Z</time></trkpt><trkpt lat="43.9715414" lon="12.4673227"><ele>169.0</ele><time>2026-04-12T10:51:33.297Z</time></trkpt><trkpt lat="43.9715945" lon="12.46726"><ele>169.0</ele><time>2026-04-12T10:51:39.302Z</time></trkpt><trkpt lat="43.9716549" lon="12.4672053"><ele>169.0</ele><time>2026-04-12T10:51:44.306Z</time></trkpt><trkpt lat="43.9717166" lon="12.4671427"><ele>169.0</ele><time>2026-04-12T10:51:49.304Z</time></trkpt><trkpt lat="43.9717739" lon="12.4670853"><ele>170.42857142857144</ele><time>2026-04-12T10:51:53.316Z</time></trkpt><trkpt lat="43.9718403" lon="12.4670513"><ele>171.85714285714286</ele><time>2026-04-12T10:51:58.296Z</time></trkpt><trkpt lat="43.971912" lon="12.4670518"><ele>173.28571428571428</ele><time>2026-04-12T10:52:03.309Z</time></trkpt><trkpt lat="43.9719782" lon="12.4670772"><ele>174.71428571428572</ele><time>2026-04-12T10:52:08.289Z</time></trkpt><trkpt lat="43.9720538" lon="12.4670935"><ele>176.14285714285714</ele><time>2026-04-12T10:52:13.304Z</time></trkpt><trkpt lat="43.9721241" lon="12.46712"><ele>177.57142857142858</ele><time>2026-04-12T10:52:18.261Z</time></trkpt><trkpt lat="43.9721941" lon="12.4671179"><ele>179.0</ele><time>2026-04-12T10:52:22.26Z</time></trkpt><trkpt lat="43.9722589" lon="12.4671355"><ele>179.00000000000003</ele><time>2026-04-12T10:52:27.283Z</time></trkpt><trkpt lat="43.9723308" lon="12.4671616"><ele>179.0</ele><time>2026-04-12T10:52:32.316Z</time></trkpt><trkpt lat="43.9724016" lon="12.4671754"><ele>179.0</ele><time>2026-04-12T10:52:37.297Z</time></trkpt><trkpt lat="43.9724744" lon="12.4671829"><ele>179.0</ele><time>2026-04-12T10:52:42.296Z</time></trkpt><trkpt lat="43.9725513" lon="12.4671958"><ele>179.0</ele><time>2026-04-12T10:52:46.311Z</time></trkpt><trkpt lat="43.9726239" lon="12.4671638"><ele>179.00000000000003</ele><time>2026-04-12T10:52:50.298Z</time></trkpt><trkpt lat="43.9726839" lon="12.4671292"><ele>179.0</ele><time>2026-04-12T10:52:54.283Z</time></trkpt><trkpt lat="43.9727471" lon="12.4670847"><ele>182.14285714285717</ele><time>2026-04-12T10:52:58.305Z</time></trkpt><trkpt lat="43.9728079" lon="12.4670251"><ele>185.28571428571428</ele><time>2026-04-12T10:53:03.3Z</time></trkpt><trkpt lat="43.9728658" lon="12.4669647"><ele>188.42857142857144</ele><time>2026-04-12T10:53:10.262Z</time></trkpt><trkpt lat="43.9729152" lon="12.466886"><ele>191.57142857142858</ele><time>2026-04-12T10:53:16.269Z</time></trkpt><trkpt lat="43.9729591" lon="12.4668058"><ele>194.71428571428572</ele><time>2026-04-12T10:53:22.27Z</time></trkpt><trkpt lat="43.9729902" lon="12.4667182"><ele>197.85714285714286</ele><time>2026-04-12T10:53:29.265Z</time></trkpt><trkpt lat="43.9730158" lon="12.4666349"><ele>201.0</ele><time>2026-04-12T10:53:35.298Z</time></trkpt><trkpt lat="43.9730416" lon="12.4665491"><ele>201.0</ele><time>2026-04-12T10:53:41.277Z</time></trkpt><trkpt lat="43.9730778" lon="12.4664618"><ele>201.0</ele><time>2026-04-12T10:53:48.306Z</time></trkpt><trkpt lat="43.9731079" lon="12.466372"><ele>201.0</ele><time>2026-04-12T10:53:54.301Z</time></trkpt><trkpt lat="43.9731472" lon="12.4662892"><ele>201.0</ele><time>2026-04-12T10:54:00.3Z</time></trkpt><trkpt lat="43.9731891" lon="12.4662178"><ele>201.0</ele><time>2026-04-12T10:54:06.297Z</time></trkpt><trkpt lat="43.973241" lon="12.4661442"><ele>201.0</ele><time>2026-04-12T10:54:13.28Z</time></trkpt><trkpt lat="43.9732921" lon="12.4660919"><ele>201.0</ele><time>2026-04-12T10:54:19.303Z</time></trkpt><trkpt lat="43.9733459" lon="12.4660378"><ele>203.28571428571428</ele><time>2026-04-12T10:54:25.3Z</time></trkpt><trkpt lat="43.9733986" lon="12.4659785"><ele>205.57142857142858</ele><time>2026-04-12T10:54:32.256Z</time></trkpt><trkpt lat="43.9734548" lon="12.465903"><ele>207.85714285714286</ele><time>2026-04-12T10:54:40.306Z</time></trkpt><trkpt lat="43.9735036" lon="12.4658364"><ele>210.14285714285714</ele><time>2026-04-12T10:54:46.306Z</time></trkpt><trkpt lat="43.9735529" lon="12.4657644"><ele>212.42857142857144</ele><time>2026-04-12T10:54:52.286Z</time></trkpt><trkpt lat="43.9735967" lon="12.4656967"><ele>214.71428571428572</ele><time>2026-04-12T10:54:58.296Z</time></trkpt><trkpt lat="43.9736497" lon="12.4656374"><ele>217.0</ele><time>2026-04-12T10:55:04.261Z</time></trkpt><trkpt lat="43.9737029" lon="12.4655738"><ele>217.0</ele><time>2026-04-12T10:55:10.263Z</time></trkpt><trkpt lat="43.9737588" lon="12.4655256"><ele>217.0</ele><time>2026-04-12T10:55:17.243Z</time></trkpt><trkpt lat="43.9737977" lon="12.4654428"><ele>217.0</ele><time>2026-04-12T10:55:25.303Z</time></trkpt><trkpt lat="43.9738449" lon="12.4653716"><ele>217.0</ele><time>2026-04-12T10:55:31.263Z</time></trkpt><trkpt lat="43.9738971" lon="12.4653197"><ele>217.0</ele><time>2026-04-12T10:55:38.287Z</time></trkpt><trkpt lat="43.9739474" lon="12.4652572"><ele>217.0</ele><time>2026-04-12T10:55:44.249Z</time></trkpt><trkpt lat="43.9740047" lon="12.4652123"><ele>217.0</ele><time>2026-04-12T10:55:50.245Z</time></trkpt><trkpt lat="43.9740606" lon="12.4651647"><ele>216.99999999999997</ele><time>2026-04-12T10:55:56.33Z</time></trkpt><trkpt lat="43.9741222" lon="12.4651897"><ele>217.0</ele><time>2026-04-12T10:56:03.297Z</time></trkpt><trkpt lat="43.9741276" lon="12.4652911"><ele>217.0</ele><time>2026-04-12T10:56:05.286Z</time></trkpt><trkpt lat="43.9741309" lon="12.4654262"><ele>217.0</ele><time>2026-04-12T10:56:07.317Z</time></trkpt><trkpt lat="43.9741454" lon="12.4655936"><ele>216.99999999999997</ele><time>2026-04-12T10:56:09.299Z</time></trkpt><trkpt lat="43.974149" lon="12.4657026"><ele>217.0</ele><time>2026-04-12T10:56:10.316Z</time></trkpt><trkpt lat="43.9741578" lon="12.4658204"><ele>217.0</ele><time>2026-04-12T10:56:11.31Z</time></trkpt><trkpt lat="43.9741662" lon="12.465941"><ele>217.0</ele><time>2026-04-12T10:56:12.305Z</time></trkpt><trkpt lat="43.9741715" lon="12.4660722"><ele>217.0</ele><time>2026-04-12T10:56:13.312Z</time></trkpt><trkpt lat="43.9741782" lon="12.4662025"><ele>217.0</ele><time>2026-04-12T10:56:14.302Z</time></trkpt><trkpt lat="43.9741811" lon="12.4663333"><ele>217.0</ele><time>2026-04-12T10:56:15.274Z</time></trkpt><trkpt lat="43.9741892" lon="12.4664659"><ele>216.39999999999998</ele><time>2026-04-12T10:56:16.298Z</time></trkpt><trkpt lat="43.9741982" lon="12.4666072"><ele>215.79999999999998</ele><time>2026-04-12T10:56:17.277Z</time></trkpt><trkpt lat="43.9742086" lon="12.4667526"><ele>215.2</ele><time>2026-04-12T10:56:18.25Z</time></trkpt><trkpt lat="43.9742151" lon="12.4668996"><ele>214.6</ele><time>2026-04-12T10:56:19.301Z</time></trkpt><trkpt lat="43.9742201" lon="12.4670505"><ele>214.0</ele><time>2026-04-12T10:56:20.266Z</time></trkpt><trkpt lat="43.9742289" lon="12.4672025"><ele>212.0</ele><time>2026-04-12T10:56:21.292Z</time></trkpt><trkpt lat="43.9742356" lon="12.4673523"><ele>209.99999999999997</ele><time>2026-04-12T10:56:22.3Z</time></trkpt><trkpt lat="43.9742459" lon="12.4674937"><ele>208.0</ele><time>2026-04-12T10:56:23.318Z</time></trkpt><trkpt lat="43.9742582" lon="12.4676383"><ele>206.0</ele><time>2026-04-12T10:56:24.318Z</time></trkpt><trkpt lat="43.9742682" lon="12.4677805"><ele>204.0</ele><time>2026-04-12T10:56:25.326Z</time></trkpt><trkpt lat="43.974278" lon="12.4679249"><ele>203.2</ele><time>2026-04-12T10:56:26.327Z</time></trkpt><trkpt lat="43.9742829" lon="12.468065"><ele>202.39999999999998</ele><time>2026-04-12T10:56:27.31Z</time></trkpt><trkpt lat="43.9742879" lon="12.468199"><ele>201.6</ele><time>2026-04-12T10:56:28.324Z</time></trkpt><trkpt lat="43.9742933" lon="12.4683395"><ele>200.8</ele><time>2026-04-12T10:56:29.312Z</time></trkpt><trkpt lat="43.9743015" lon="12.4684711"><ele>200.0</ele><time>2026-04-12T10:56:30.308Z</time></trkpt><trkpt lat="43.974309" lon="12.4686049"><ele>200.0</ele><time>2026-04-12T10:56:31.305Z</time></trkpt><trkpt lat="43.9743162" lon="12.4687409"><ele>200.0</ele><time>2026-04-12T10:56:32.291Z</time></trkpt><trkpt lat="43.9743225" lon="12.4688809"><ele>200.0</ele><time>2026-04-12T10:56:33.309Z</time></trkpt><trkpt lat="43.9743285" lon="12.4690227"><ele>200.0</ele><time>2026-04-12T10:56:34.319Z</time></trkpt><trkpt lat="43.9743368" lon="12.4691566"><ele>200.0</ele><time>2026-04-12T10:56:35.315Z</time></trkpt><trkpt lat="43.9743475" lon="12.4692957"><ele>199.0</ele><time>2026-04-12T10:56:36.299Z</time></trkpt><trkpt lat="43.9743573" lon="12.4694325"><ele>198.0</ele><time>2026-04-12T10:56:37.281Z</time></trkpt><trkpt lat="43.9743743" lon="12.4695729"><ele>197.0</ele><time>2026-04-12T10:56:38.277Z</time></trkpt><trkpt lat="43.9743823" lon="12.4697083"><ele>196.0</ele><time>2026-04-12T10:56:39.297Z</time></trkpt><trkpt lat="43.9743845" lon="12.4698494"><ele>195.0</ele><time>2026-04-12T10:56:40.312Z</time></trkpt><trkpt lat="43.9743922" lon="12.4699847"><ele>194.4</ele><time>2026-04-12T10:56:41.316Z</time></trkpt><trkpt lat="43.9743992" lon="12.4701253"><ele>193.8</ele><time>2026-04-12T10:56:42.319Z</time></trkpt><trkpt lat="43.974409" lon="12.470265"><ele>193.2</ele><time>2026-04-12T10:56:43.308Z</time></trkpt><trkpt lat="43.9744217" lon="12.4704024"><ele>192.6</ele><time>2026-04-12T10:56:44.318Z</time></trkpt><trkpt lat="43.9744364" lon="12.4705424"><ele>192.0</ele><time>2026-04-12T10:56:45.319Z</time></trkpt><trkpt lat="43.9744406" lon="12.4706876"><ele>192.0</ele><time>2026-04-12T10:56:46.314Z</time></trkpt><trkpt lat="43.9744428" lon="12.4708312"><ele>192.0</ele><time>2026-04-12T10:56:47.327Z</time></trkpt><trkpt lat="43.9744504" lon="12.470978"><ele>192.0</ele><time>2026-04-12T10:56:48.317Z</time></trkpt><trkpt lat="43.9744554" lon="12.4711227"><ele>192.0</ele><time>2026-04-12T10:56:49.331Z</time></trkpt><trkpt lat="43.9744634" lon="12.4712672"><ele>192.0</ele><time>2026-04-12T10:56:50.295Z</time></trkpt><trkpt lat="43.9744806" lon="12.4714098"><ele>191.8</ele><time>2026-04-12T10:56:51.306Z</time></trkpt><trkpt lat="43.9745014" lon="12.4715576"><ele>191.6</ele><time>2026-04-12T10:56:52.33Z</time></trkpt><trkpt lat="43.9745289" lon="12.4716918"><ele>191.4</ele><time>2026-04-12T10:56:53.305Z</time></trkpt><trkpt lat="43.9745691" lon="12.471825"><ele>191.20000000000002</ele><time>2026-04-12T10:56:54.3Z</time></trkpt><trkpt lat="43.9746145" lon="12.4719568"><ele>191.0</ele><time>2026-04-12T10:56:55.314Z</time></trkpt><trkpt lat="43.9746661" lon="12.4720779"><ele>190.0</ele><time>2026-04-12T10:56:56.304Z</time></trkpt><trkpt lat="43.9747163" lon="12.4721972"><ele>189.0</ele><time>2026-04-12T10:56:57.323Z</time></trkpt><trkpt lat="43.9747763" lon="12.4723127"><ele>188.0</ele><time>2026-04-12T10:56:58.29Z</time></trkpt><trkpt lat="43.9748424" lon="12.472419"><ele>187.0</ele><time>2026-04-12T10:56:59.282Z</time></trkpt><trkpt lat="43.9749196" lon="12.4725194"><ele>186.0</ele><time>2026-04-12T10:57:00.283Z</time></trkpt><trkpt lat="43.9750033" lon="12.4726098"><ele>185.4</ele><time>2026-04-12T10:57:01.327Z</time></trkpt><trkpt lat="43.97508" lon="12.4726962"><ele>184.8</ele><time>2026-04-12T10:57:02.321Z</time></trkpt><trkpt lat="43.9751612" lon="12.4727802"><ele>184.20000000000002</ele><time>2026-04-12T10:57:03.317Z</time></trkpt><trkpt lat="43.9752379" lon="12.472872"><ele>183.60000000000002</ele><time>2026-04-12T10:57:04.311Z</time></trkpt><trkpt lat="43.9753171" lon="12.472962"><ele>183.0</ele><time>2026-04-12T10:57:05.312Z</time></trkpt><trkpt lat="43.9753958" lon="12.4730547"><ele>183.0</ele><time>2026-04-12T10:57:06.302Z</time></trkpt><trkpt lat="43.9754758" lon="12.473146"><ele>183.0</ele><time>2026-04-12T10:57:07.331Z</time></trkpt><trkpt lat="43.9755537" lon="12.4732387"><ele>183.0</ele><time>2026-04-12T10:57:08.309Z</time></trkpt><trkpt lat="43.9756407" lon="12.4733249"><ele>183.0</ele><time>2026-04-12T10:57:09.321Z</time></trkpt><trkpt lat="43.9757247" lon="12.4734162"><ele>183.0</ele><time>2026-04-12T10:57:10.314Z</time></trkpt><trkpt lat="43.975811" lon="12.4735098"><ele>180.0</ele><time>2026-04-12T10:57:11.267Z</time></trkpt><trkpt lat="43.975899" lon="12.4736122"><ele>177.0</ele><time>2026-04-12T10:57:12.319Z</time></trkpt><trkpt lat="43.9759839" lon="12.4737169"><ele>174.0</ele><time>2026-04-12T10:57:13.284Z</time></trkpt><trkpt lat="43.9760663" lon="12.4738301"><ele>171.0</ele><time>2026-04-12T10:57:14.325Z</time></trkpt><trkpt lat="43.9761468" lon="12.4739548"><ele>170.25</ele><time>2026-04-12T10:57:15.329Z</time></trkpt><trkpt lat="43.9762328" lon="12.4740682"><ele>169.5</ele><time>2026-04-12T10:57:16.282Z</time></trkpt><trkpt lat="43.9763272" lon="12.4741934"><ele>168.75</ele><time>2026-04-12T10:57:17.301Z</time></trkpt><trkpt lat="43.9764166" lon="12.4743133"><ele>168.0</ele><time>2026-04-12T10:57:18.318Z</time></trkpt><trkpt lat="43.9765085" lon="12.4744349"><ele>168.0</ele><time>2026-04-12T10:57:19.325Z</time></trkpt><trkpt lat="43.9766063" lon="12.4745626"><ele>168.0</ele><time>2026-04-12T10:57:20.315Z</time></trkpt><trkpt lat="43.9766979" lon="12.4746842"><ele>168.0</ele><time>2026-04-12T10:57:21.306Z</time></trkpt><trkpt lat="43.9767921" lon="12.4748088"><ele>168.0</ele><time>2026-04-12T10:57:22.317Z</time></trkpt><trkpt lat="43.9768901" lon="12.4749329"><ele>165.0</ele><time>2026-04-12T10:57:23.323Z</time></trkpt><trkpt lat="43.9769879" lon="12.47506"><ele>162.0</ele><time>2026-04-12T10:57:24.31Z</time></trkpt><trkpt lat="43.9770863" lon="12.4751881"><ele>159.0</ele><time>2026-04-12T10:57:25.311Z</time></trkpt><trkpt lat="43.9771794" lon="12.4753174"><ele>156.0</ele><time>2026-04-12T10:57:26.307Z</time></trkpt><trkpt lat="43.977278" lon="12.4754516"><ele>155.25</ele><time>2026-04-12T10:57:27.303Z</time></trkpt><trkpt lat="43.977368" lon="12.4755881"><ele>154.5</ele><time>2026-04-12T10:57:28.329Z</time></trkpt><trkpt lat="43.9774464" lon="12.4757344"><ele>153.75</ele><time>2026-04-12T10:57:29.317Z</time></trkpt><trkpt lat="43.9775054" lon="12.4759018"><ele>153.0</ele><time>2026-04-12T10:57:30.298Z</time></trkpt><trkpt lat="43.9775457" lon="12.4760864"><ele>150.5</ele><time>2026-04-12T10:57:31.332Z</time></trkpt><trkpt lat="43.9775774" lon="12.4762689"><ele>148.0</ele><time>2026-04-12T10:57:32.29Z</time></trkpt><trkpt lat="43.9776061" lon="12.4764447"><ele>145.5</ele><time>2026-04-12T10:57:33.298Z</time></trkpt><trkpt lat="43.9776402" lon="12.4766179"><ele>143.0</ele><time>2026-04-12T10:57:34.29Z</time></trkpt><trkpt lat="43.9776673" lon="12.4767954"><ele>142.5</ele><time>2026-04-12T10:57:35.313Z</time></trkpt><trkpt lat="43.9776985" lon="12.4769611"><ele>142.0</ele><time>2026-04-12T10:57:36.305Z</time></trkpt><trkpt lat="43.9777262" lon="12.4771248"><ele>141.5</ele><time>2026-04-12T10:57:37.31Z</time></trkpt><trkpt lat="43.97774" lon="12.477284"><ele>141.0</ele><time>2026-04-12T10:57:38.333Z</time></trkpt><trkpt lat="43.9777247" lon="12.4774326"><ele>140.66666666666666</ele><time>2026-04-12T10:57:39.304Z</time></trkpt><trkpt lat="43.9776967" lon="12.4775751"><ele>140.33333333333334</ele><time>2026-04-12T10:57:40.309Z</time></trkpt><trkpt lat="43.9776753" lon="12.477704"><ele>140.0</ele><time>2026-04-12T10:57:41.316Z</time></trkpt><trkpt lat="43.9776886" lon="12.4778256"><ele>139.66666666666669</ele><time>2026-04-12T10:57:42.314Z</time></trkpt><trkpt lat="43.9777295" lon="12.4779054"><ele>139.33333333333334</ele><time>2026-04-12T10:57:43.33Z</time></trkpt><trkpt lat="43.9777836" lon="12.4779713"><ele>139.0</ele><time>2026-04-12T10:57:44.253Z</time></trkpt><trkpt lat="43.9778445" lon="12.4780457"><ele>139.0</ele><time>2026-04-12T10:57:45.24Z</time></trkpt><trkpt lat="43.9778881" lon="12.4781545"><ele>139.0</ele><time>2026-04-12T10:57:46.244Z</time></trkpt><trkpt lat="43.9779033" lon="12.4782769"><ele>139.0</ele><time>2026-04-12T10:57:47.243Z</time></trkpt><trkpt lat="43.9779171" lon="12.4784073"><ele>139.0</ele><time>2026-04-12T10:57:48.239Z</time></trkpt><trkpt lat="43.9779251" lon="12.4785316"><ele>139.0</ele><time>2026-04-12T10:57:49.275Z</time></trkpt><trkpt lat="43.9779445" lon="12.4786572"><ele>137.8</ele><time>2026-04-12T10:57:50.275Z</time></trkpt><trkpt lat="43.977959" lon="12.4787888"><ele>136.60000000000002</ele><time>2026-04-12T10:57:51.29Z</time></trkpt><trkpt lat="43.9779778" lon="12.4789202"><ele>135.4</ele><time>2026-04-12T10:57:52.295Z</time></trkpt><trkpt lat="43.9780028" lon="12.4790503"><ele>134.20000000000002</ele><time>2026-04-12T10:57:53.321Z</time></trkpt><trkpt lat="43.9780252" lon="12.4791857"><ele>133.0</ele><time>2026-04-12T10:57:54.29Z</time></trkpt><trkpt lat="43.9780489" lon="12.4793148"><ele>133.0</ele><time>2026-04-12T10:57:55.325Z</time></trkpt><trkpt lat="43.978068" lon="12.4794494"><ele>133.0</ele><time>2026-04-12T10:57:56.317Z</time></trkpt><trkpt lat="43.9780884" lon="12.4795925"><ele>133.0</ele><time>2026-04-12T10:57:57.313Z</time></trkpt><trkpt lat="43.9781119" lon="12.4797229"><ele>133.0</ele><time>2026-04-12T10:57:58.307Z</time></trkpt><trkpt lat="43.9781335" lon="12.4798574"><ele>133.0</ele><time>2026-04-12T10:57:59.323Z</time></trkpt><trkpt lat="43.9781488" lon="12.4799797"><ele>132.0</ele><time>2026-04-12T10:58:00.319Z</time></trkpt><trkpt lat="43.9781662" lon="12.4801025"><ele>131.0</ele><time>2026-04-12T10:58:01.323Z</time></trkpt><trkpt lat="43.9781879" lon="12.4802113"><ele>130.0</ele><time>2026-04-12T10:58:02.294Z</time></trkpt><trkpt lat="43.9781572" lon="12.480366"><ele>129.0</ele><time>2026-04-12T10:58:04.286Z</time></trkpt><trkpt lat="43.9780585" lon="12.4804497"><ele>128.0</ele><time>2026-04-12T10:58:06.291Z</time></trkpt><trkpt lat="43.9779627" lon="12.4805105"><ele>127.99999999999999</ele><time>2026-04-12T10:58:08.311Z</time></trkpt><trkpt lat="43.977866" lon="12.4805781"><ele>128.0</ele><time>2026-04-12T10:58:10.306Z</time></trkpt><trkpt lat="43.9777556" lon="12.4806612"><ele>128.0</ele><time>2026-04-12T10:58:12.31Z</time></trkpt><trkpt lat="43.9777" lon="12.4807124"><ele>128.0</ele><time>2026-04-12T10:58:13.329Z</time></trkpt><trkpt lat="43.9776441" lon="12.480763"><ele>127.99999999999999</ele><time>2026-04-12T10:58:14.305Z</time></trkpt><trkpt lat="43.9775729" lon="12.4808194"><ele>128.0</ele><time>2026-04-12T10:58:15.295Z</time></trkpt><trkpt lat="43.9775049" lon="12.4808705"><ele>127.60000000000001</ele><time>2026-04-12T10:58:16.28Z</time></trkpt><trkpt lat="43.977441" lon="12.4809307"><ele>127.20000000000002</ele><time>2026-04-12T10:58:17.28Z</time></trkpt><trkpt lat="43.9773692" lon="12.4809982"><ele>126.8</ele><time>2026-04-12T10:58:18.297Z</time></trkpt><trkpt lat="43.9772907" lon="12.4810644"><ele>126.4</ele><time>2026-04-12T10:58:19.294Z</time></trkpt><trkpt lat="43.9772033" lon="12.4811305"><ele>126.0</ele><time>2026-04-12T10:58:20.295Z</time></trkpt><trkpt lat="43.9771131" lon="12.4811889"><ele>126.0</ele><time>2026-04-12T10:58:21.294Z</time></trkpt><trkpt lat="43.9770176" lon="12.4811954"><ele>126.0</ele><time>2026-04-12T10:58:22.287Z</time></trkpt><trkpt lat="43.9769075" lon="12.4811696"><ele>126.0</ele><time>2026-04-12T10:58:23.295Z</time></trkpt><trkpt lat="43.9767883" lon="12.4811417"><ele>126.0</ele><time>2026-04-12T10:58:24.298Z</time></trkpt><trkpt lat="43.9766773" lon="12.4811169"><ele>126.0</ele><time>2026-04-12T10:58:25.317Z</time></trkpt><trkpt lat="43.9765717" lon="12.4811112"><ele>125.0</ele><time>2026-04-12T10:58:26.303Z</time></trkpt><trkpt lat="43.9764774" lon="12.4811344"><ele>124.0</ele><time>2026-04-12T10:58:27.321Z</time></trkpt><trkpt lat="43.9763904" lon="12.4811493"><ele>123.0</ele><time>2026-04-12T10:58:28.328Z</time></trkpt><trkpt lat="43.9763195" lon="12.4811634"><ele>122.0</ele><time>2026-04-12T10:58:29.277Z</time></trkpt><trkpt lat="43.9762385" lon="12.4812253"><ele>121.0</ele><time>2026-04-12T10:58:31.314Z</time></trkpt><trkpt lat="43.9762592" lon="12.4813275"><ele>120.0</ele><time>2026-04-12T10:58:33.308Z</time></trkpt><trkpt lat="43.9763392" lon="12.4814511"><ele>116.0</ele><time>2026-04-12T10:58:35.239Z</time></trkpt><trkpt lat="43.9763955" lon="12.4815205"><ele>116.0</ele><time>2026-04-12T10:58:37.255Z</time></trkpt><trkpt lat="43.9764326" lon="12.4815987"><ele>116.0</ele><time>2026-04-12T10:59:30.284Z</time></trkpt><trkpt lat="43.9764897" lon="12.4816467"><ele>116.0</ele><time>2026-04-12T10:59:37.259Z</time></trkpt></trkseg></trk></gpx>